<?xml version="1.0"?>
<gpx
 version="1.1"
 creator="Satmap Active 20"
 xmlns:xsi="http://www.w3.org/2001/XMLSchema-instance"
 xmlns="http://www.topografix.com/GPX/1/1"
 xmlns:satmap="http://www.satmap.com/updates/xmlschemas/GpxExtensions/v2/GpxExtensions_v2.xsd"
 xsi:schemaLocation="http://www.topografix.com/GPX/1/1 http://www.topografix.com/GPX/1/1/gpx.xsd">
<metadata>
<time>2022-11-15T10:14:39Z</time>
<extensions>
<satmap:platform>43</satmap:platform>
<satmap:software version="3.13.037">SM15.exe</satmap:software>
<satmap:username>pieter metz</satmap:username>
<satmap:network_ids>
<satmap:network_id type="wifi">00-23-A7-CA-E3-5C</satmap:network_id>
<satmap:network_id type="bluetooth">80-BB-EB-78-4F-29</satmap:network_id>
</satmap:network_ids>
<satmap:snap_type>simple</satmap:snap_type>
</extensions>
</metadata>
<trk>
<name>2022-11-15_1014</name>
<desc>Track 1</desc>
<number>1</number>
<trkseg>
<trkpt lat="51.564484" lon="03.769468"><ele>21.9</ele><time>2022-11-15T10:14:39Z</time><name>PT1</name></trkpt>
<trkpt lat="51.564483" lon="03.769469"><ele>21.5</ele><time>2022-11-15T10:15:22Z</time><name>PT2</name></trkpt>
<trkpt lat="51.564483" lon="03.769462"><ele>21.5</ele><time>2022-11-15T10:15:23Z</time><name>PT3</name></trkpt>
<trkpt lat="51.564485" lon="03.769466"><ele>21.4</ele><time>2022-11-15T10:15:24Z</time><name>PT4</name></trkpt>
<trkpt lat="51.564477" lon="03.769470"><ele>21.3</ele><time>2022-11-15T10:15:42Z</time><name>PT5</name></trkpt>
<trkpt lat="51.564475" lon="03.769469"><ele>21.2</ele><time>2022-11-15T10:15:43Z</time><name>PT6</name></trkpt>
<trkpt lat="51.564473" lon="03.769468"><ele>21.4</ele><time>2022-11-15T10:15:44Z</time><name>PT7</name></trkpt>
<trkpt lat="51.564471" lon="03.769466"><ele>21.5</ele><time>2022-11-15T10:15:45Z</time><name>PT8</name></trkpt>
<trkpt lat="51.564482" lon="03.769489"><ele>21.3</ele><time>2022-11-15T10:16:16Z</time><name>PT9</name></trkpt>
<trkpt lat="51.564490" lon="03.769501"><ele>21.3</ele><time>2022-11-15T10:16:17Z</time><name>PT10</name></trkpt>
<trkpt lat="51.564494" lon="03.769506"><ele>21.5</ele><time>2022-11-15T10:16:18Z</time><name>PT11</name></trkpt>
<trkpt lat="51.564491" lon="03.769502"><ele>21.5</ele><time>2022-11-15T10:16:28Z</time><name>PT12</name></trkpt>
<trkpt lat="51.564491" lon="03.769501"><ele>21.5</ele><time>2022-11-15T10:16:29Z</time><name>PT13</name></trkpt>
<trkpt lat="51.564491" lon="03.769500"><ele>21.4</ele><time>2022-11-15T10:16:30Z</time><name>PT14</name></trkpt>
<trkpt lat="51.564486" lon="03.769502"><ele>21.8</ele><time>2022-11-15T10:16:37Z</time><name>PT15</name></trkpt>
<trkpt lat="51.564488" lon="03.769505"><ele>22</ele><time>2022-11-15T10:16:38Z</time><name>PT16</name></trkpt>
<trkpt lat="51.564491" lon="03.769502"><ele>22.1</ele><time>2022-11-15T10:16:39Z</time><name>PT17</name></trkpt>
<trkpt lat="51.564480" lon="03.769483"><ele>22.1</ele><time>2022-11-15T10:16:40Z</time><name>PT18</name></trkpt>
<trkpt lat="51.564479" lon="03.769481"><ele>22.1</ele><time>2022-11-15T10:16:41Z</time><name>PT19</name></trkpt>
<trkpt lat="51.564480" lon="03.769479"><ele>21.9</ele><time>2022-11-15T10:16:42Z</time><name>PT20</name></trkpt>
<trkpt lat="51.564479" lon="03.769474"><ele>21.8</ele><time>2022-11-15T10:16:43Z</time><name>PT21</name></trkpt>
<trkpt lat="51.564482" lon="03.769481"><ele>22</ele><time>2022-11-15T10:16:50Z</time><name>PT22</name></trkpt>
<trkpt lat="51.564483" lon="03.769487"><ele>22.2</ele><time>2022-11-15T10:16:51Z</time><name>PT23</name></trkpt>
<trkpt lat="51.564479" lon="03.769489"><ele>22.2</ele><time>2022-11-15T10:16:52Z</time><name>PT24</name></trkpt>
<trkpt lat="51.564482" lon="03.769491"><ele>22.2</ele><time>2022-11-15T10:16:53Z</time><name>PT25</name></trkpt>
<trkpt lat="51.564483" lon="03.769497"><ele>22.1</ele><time>2022-11-15T10:16:54Z</time><name>PT26</name></trkpt>
<trkpt lat="51.564487" lon="03.769515"><ele>22.1</ele><time>2022-11-15T10:16:55Z</time><name>PT27</name></trkpt>
<trkpt lat="51.564487" lon="03.769523"><ele>22</ele><time>2022-11-15T10:16:56Z</time><name>PT28</name></trkpt>
<trkpt lat="51.564489" lon="03.769534"><ele>22</ele><time>2022-11-15T10:16:57Z</time><name>PT29</name></trkpt>
<trkpt lat="51.564489" lon="03.769547"><ele>22</ele><time>2022-11-15T10:16:58Z</time><name>PT30</name></trkpt>
<trkpt lat="51.564491" lon="03.769562"><ele>22.2</ele><time>2022-11-15T10:16:59Z</time><name>PT31</name></trkpt>
<trkpt lat="51.564494" lon="03.769576"><ele>22.2</ele><time>2022-11-15T10:17:00Z</time><name>PT32</name></trkpt>
<trkpt lat="51.564495" lon="03.769590"><ele>22.2</ele><time>2022-11-15T10:17:01Z</time><name>PT33</name></trkpt>
<trkpt lat="51.564492" lon="03.769598"><ele>22</ele><time>2022-11-15T10:17:02Z</time><name>PT34</name></trkpt>
<trkpt lat="51.564486" lon="03.769602"><ele>21.9</ele><time>2022-11-15T10:17:03Z</time><name>PT35</name></trkpt>
<trkpt lat="51.564480" lon="03.769603"><ele>21.8</ele><time>2022-11-15T10:17:04Z</time><name>PT36</name></trkpt>
<trkpt lat="51.564472" lon="03.769603"><ele>21.7</ele><time>2022-11-15T10:17:05Z</time><name>PT37</name></trkpt>
<trkpt lat="51.564462" lon="03.769603"><ele>21.8</ele><time>2022-11-15T10:17:06Z</time><name>PT38</name></trkpt>
<trkpt lat="51.564454" lon="03.769606"><ele>21.9</ele><time>2022-11-15T10:17:07Z</time><name>PT39</name></trkpt>
<trkpt lat="51.564448" lon="03.769603"><ele>22</ele><time>2022-11-15T10:17:08Z</time><name>PT40</name></trkpt>
<trkpt lat="51.564442" lon="03.769598"><ele>22</ele><time>2022-11-15T10:17:09Z</time><name>PT41</name></trkpt>
<trkpt lat="51.564439" lon="03.769590"><ele>22.2</ele><time>2022-11-15T10:17:10Z</time><name>PT42</name></trkpt>
<trkpt lat="51.564433" lon="03.769580"><ele>22.4</ele><time>2022-11-15T10:17:11Z</time><name>PT43</name></trkpt>
<trkpt lat="51.564429" lon="03.769566"><ele>22.7</ele><time>2022-11-15T10:17:12Z</time><name>PT44</name></trkpt>
<trkpt lat="51.564426" lon="03.769551"><ele>22.8</ele><time>2022-11-15T10:17:13Z</time><name>PT45</name></trkpt>
<trkpt lat="51.564421" lon="03.769537"><ele>23</ele><time>2022-11-15T10:17:14Z</time><name>PT46</name></trkpt>
<trkpt lat="51.564415" lon="03.769522"><ele>22.9</ele><time>2022-11-15T10:17:15Z</time><name>PT47</name></trkpt>
<trkpt lat="51.564410" lon="03.769507"><ele>22.7</ele><time>2022-11-15T10:17:16Z</time><name>PT48</name></trkpt>
<trkpt lat="51.564406" lon="03.769494"><ele>22.5</ele><time>2022-11-15T10:17:17Z</time><name>PT49</name></trkpt>
<trkpt lat="51.564402" lon="03.769478"><ele>22.6</ele><time>2022-11-15T10:17:18Z</time><name>PT50</name></trkpt>
<trkpt lat="51.564399" lon="03.769456"><ele>22.4</ele><time>2022-11-15T10:17:19Z</time><name>PT51</name></trkpt>
<trkpt lat="51.564396" lon="03.769430"><ele>22.3</ele><time>2022-11-15T10:17:20Z</time><name>PT52</name></trkpt>
<trkpt lat="51.564393" lon="03.769402"><ele>22.3</ele><time>2022-11-15T10:17:21Z</time><name>PT53</name></trkpt>
<trkpt lat="51.564391" lon="03.769383"><ele>22.3</ele><time>2022-11-15T10:17:22Z</time><name>PT54</name></trkpt>
<trkpt lat="51.564390" lon="03.769370"><ele>22.2</ele><time>2022-11-15T10:17:23Z</time><name>PT55</name></trkpt>
<trkpt lat="51.564388" lon="03.769360"><ele>22.3</ele><time>2022-11-15T10:17:24Z</time><name>PT56</name></trkpt>
<trkpt lat="51.564386" lon="03.769348"><ele>22.2</ele><time>2022-11-15T10:17:25Z</time><name>PT57</name></trkpt>
<trkpt lat="51.564381" lon="03.769333"><ele>22.2</ele><time>2022-11-15T10:17:26Z</time><name>PT58</name></trkpt>
<trkpt lat="51.564378" lon="03.769313"><ele>22.2</ele><time>2022-11-15T10:17:27Z</time><name>PT59</name></trkpt>
<trkpt lat="51.564379" lon="03.769301"><ele>22.2</ele><time>2022-11-15T10:17:28Z</time><name>PT60</name></trkpt>
<trkpt lat="51.564377" lon="03.769290"><ele>22.2</ele><time>2022-11-15T10:17:29Z</time><name>PT61</name></trkpt>
<trkpt lat="51.564372" lon="03.769275"><ele>22.3</ele><time>2022-11-15T10:17:30Z</time><name>PT62</name></trkpt>
<trkpt lat="51.564366" lon="03.769258"><ele>22.5</ele><time>2022-11-15T10:17:31Z</time><name>PT63</name></trkpt>
<trkpt lat="51.564360" lon="03.769244"><ele>22.5</ele><time>2022-11-15T10:17:32Z</time><name>PT64</name></trkpt>
<trkpt lat="51.564355" lon="03.769232"><ele>22.4</ele><time>2022-11-15T10:17:33Z</time><name>PT65</name></trkpt>
<trkpt lat="51.564353" lon="03.769222"><ele>22.7</ele><time>2022-11-15T10:17:34Z</time><name>PT66</name></trkpt>
<trkpt lat="51.564351" lon="03.769211"><ele>22.7</ele><time>2022-11-15T10:17:35Z</time><name>PT67</name></trkpt>
<trkpt lat="51.564349" lon="03.769200"><ele>22.6</ele><time>2022-11-15T10:17:36Z</time><name>PT68</name></trkpt>
<trkpt lat="51.564348" lon="03.769189"><ele>22.8</ele><time>2022-11-15T10:17:37Z</time><name>PT69</name></trkpt>
<trkpt lat="51.564346" lon="03.769178"><ele>23.1</ele><time>2022-11-15T10:17:38Z</time><name>PT70</name></trkpt>
<trkpt lat="51.564344" lon="03.769169"><ele>23</ele><time>2022-11-15T10:17:39Z</time><name>PT71</name></trkpt>
<trkpt lat="51.564343" lon="03.769154"><ele>22.9</ele><time>2022-11-15T10:17:40Z</time><name>PT72</name></trkpt>
<trkpt lat="51.564340" lon="03.769135"><ele>22.7</ele><time>2022-11-15T10:17:41Z</time><name>PT73</name></trkpt>
<trkpt lat="51.564335" lon="03.769115"><ele>22.6</ele><time>2022-11-15T10:17:42Z</time><name>PT74</name></trkpt>
<trkpt lat="51.564330" lon="03.769089"><ele>22.3</ele><time>2022-11-15T10:17:43Z</time><name>PT75</name></trkpt>
<trkpt lat="51.564324" lon="03.769063"><ele>22.7</ele><time>2022-11-15T10:17:44Z</time><name>PT76</name></trkpt>
<trkpt lat="51.564324" lon="03.769035"><ele>22.9</ele><time>2022-11-15T10:17:45Z</time><name>PT77</name></trkpt>
<trkpt lat="51.564322" lon="03.769005"><ele>23</ele><time>2022-11-15T10:17:46Z</time><name>PT78</name></trkpt>
<trkpt lat="51.564316" lon="03.768981"><ele>23.2</ele><time>2022-11-15T10:17:47Z</time><name>PT79</name></trkpt>
<trkpt lat="51.564312" lon="03.768962"><ele>23.2</ele><time>2022-11-15T10:17:48Z</time><name>PT80</name></trkpt>
<trkpt lat="51.564309" lon="03.768948"><ele>22.9</ele><time>2022-11-15T10:17:49Z</time><name>PT81</name></trkpt>
<trkpt lat="51.564307" lon="03.768930"><ele>22.7</ele><time>2022-11-15T10:17:50Z</time><name>PT82</name></trkpt>
<trkpt lat="51.564301" lon="03.768914"><ele>22.6</ele><time>2022-11-15T10:17:51Z</time><name>PT83</name></trkpt>
<trkpt lat="51.564297" lon="03.768899"><ele>22.5</ele><time>2022-11-15T10:17:52Z</time><name>PT84</name></trkpt>
<trkpt lat="51.564293" lon="03.768889"><ele>22.3</ele><time>2022-11-15T10:17:53Z</time><name>PT85</name></trkpt>
<trkpt lat="51.564292" lon="03.768881"><ele>22.2</ele><time>2022-11-15T10:17:54Z</time><name>PT86</name></trkpt>
<trkpt lat="51.564291" lon="03.768871"><ele>22.2</ele><time>2022-11-15T10:17:55Z</time><name>PT87</name></trkpt>
<trkpt lat="51.564290" lon="03.768857"><ele>22</ele><time>2022-11-15T10:17:56Z</time><name>PT88</name></trkpt>
<trkpt lat="51.564289" lon="03.768839"><ele>21.8</ele><time>2022-11-15T10:17:57Z</time><name>PT89</name></trkpt>
<trkpt lat="51.564286" lon="03.768818"><ele>21.9</ele><time>2022-11-15T10:17:58Z</time><name>PT90</name></trkpt>
<trkpt lat="51.564282" lon="03.768793"><ele>22.2</ele><time>2022-11-15T10:17:59Z</time><name>PT91</name></trkpt>
<trkpt lat="51.564281" lon="03.768768"><ele>22.2</ele><time>2022-11-15T10:18:00Z</time><name>PT92</name></trkpt>
<trkpt lat="51.564280" lon="03.768746"><ele>22.2</ele><time>2022-11-15T10:18:01Z</time><name>PT93</name></trkpt>
<trkpt lat="51.564280" lon="03.768724"><ele>22.2</ele><time>2022-11-15T10:18:02Z</time><name>PT94</name></trkpt>
<trkpt lat="51.564283" lon="03.768706"><ele>22.2</ele><time>2022-11-15T10:18:03Z</time><name>PT95</name></trkpt>
<trkpt lat="51.564283" lon="03.768688"><ele>22</ele><time>2022-11-15T10:18:04Z</time><name>PT96</name></trkpt>
<trkpt lat="51.564282" lon="03.768672"><ele>22.1</ele><time>2022-11-15T10:18:05Z</time><name>PT97</name></trkpt>
<trkpt lat="51.564279" lon="03.768657"><ele>22.2</ele><time>2022-11-15T10:18:06Z</time><name>PT98</name></trkpt>
<trkpt lat="51.564278" lon="03.768639"><ele>22.2</ele><time>2022-11-15T10:18:07Z</time><name>PT99</name></trkpt>
<trkpt lat="51.564278" lon="03.768624"><ele>22.3</ele><time>2022-11-15T10:18:08Z</time><name>PT100</name></trkpt>
<trkpt lat="51.564282" lon="03.768608"><ele>22.3</ele><time>2022-11-15T10:18:09Z</time><name>PT101</name></trkpt>
<trkpt lat="51.564281" lon="03.768588"><ele>22.2</ele><time>2022-11-15T10:18:10Z</time><name>PT102</name></trkpt>
<trkpt lat="51.564284" lon="03.768571"><ele>22</ele><time>2022-11-15T10:18:11Z</time><name>PT103</name></trkpt>
<trkpt lat="51.564288" lon="03.768557"><ele>22</ele><time>2022-11-15T10:18:12Z</time><name>PT104</name></trkpt>
<trkpt lat="51.564291" lon="03.768541"><ele>22</ele><time>2022-11-15T10:18:13Z</time><name>PT105</name></trkpt>
<trkpt lat="51.564293" lon="03.768522"><ele>22.1</ele><time>2022-11-15T10:18:14Z</time><name>PT106</name></trkpt>
<trkpt lat="51.564294" lon="03.768506"><ele>22.1</ele><time>2022-11-15T10:18:15Z</time><name>PT107</name></trkpt>
<trkpt lat="51.564295" lon="03.768491"><ele>22.2</ele><time>2022-11-15T10:18:16Z</time><name>PT108</name></trkpt>
<trkpt lat="51.564294" lon="03.768479"><ele>22.1</ele><time>2022-11-15T10:18:17Z</time><name>PT109</name></trkpt>
<trkpt lat="51.564290" lon="03.768470"><ele>21.9</ele><time>2022-11-15T10:18:18Z</time><name>PT110</name></trkpt>
<trkpt lat="51.564284" lon="03.768458"><ele>22</ele><time>2022-11-15T10:18:19Z</time><name>PT111</name></trkpt>
<trkpt lat="51.564276" lon="03.768448"><ele>21.9</ele><time>2022-11-15T10:18:20Z</time><name>PT112</name></trkpt>
<trkpt lat="51.564268" lon="03.768436"><ele>22</ele><time>2022-11-15T10:18:21Z</time><name>PT113</name></trkpt>
<trkpt lat="51.564259" lon="03.768425"><ele>22.1</ele><time>2022-11-15T10:18:22Z</time><name>PT114</name></trkpt>
<trkpt lat="51.564250" lon="03.768415"><ele>22.2</ele><time>2022-11-15T10:18:23Z</time><name>PT115</name></trkpt>
<trkpt lat="51.564241" lon="03.768406"><ele>22.1</ele><time>2022-11-15T10:18:24Z</time><name>PT116</name></trkpt>
<trkpt lat="51.564232" lon="03.768398"><ele>22.2</ele><time>2022-11-15T10:18:25Z</time><name>PT117</name></trkpt>
<trkpt lat="51.564224" lon="03.768393"><ele>22.4</ele><time>2022-11-15T10:18:26Z</time><name>PT118</name></trkpt>
<trkpt lat="51.564219" lon="03.768386"><ele>22.4</ele><time>2022-11-15T10:18:27Z</time><name>PT119</name></trkpt>
<trkpt lat="51.564214" lon="03.768379"><ele>22.7</ele><time>2022-11-15T10:18:28Z</time><name>PT120</name></trkpt>
<trkpt lat="51.564211" lon="03.768376"><ele>22.7</ele><time>2022-11-15T10:18:29Z</time><name>PT121</name></trkpt>
<trkpt lat="51.564211" lon="03.768374"><ele>22.7</ele><time>2022-11-15T10:18:30Z</time><name>PT122</name></trkpt>
<trkpt lat="51.564211" lon="03.768373"><ele>22.7</ele><time>2022-11-15T10:18:31Z</time><name>PT123</name></trkpt>
<trkpt lat="51.564206" lon="03.768377"><ele>22.7</ele><time>2022-11-15T10:18:38Z</time><name>PT124</name></trkpt>
<trkpt lat="51.564200" lon="03.768374"><ele>22.7</ele><time>2022-11-15T10:18:39Z</time><name>PT125</name></trkpt>
<trkpt lat="51.564198" lon="03.768374"><ele>22.7</ele><time>2022-11-15T10:18:40Z</time><name>PT126</name></trkpt>
<trkpt lat="51.564199" lon="03.768378"><ele>22.7</ele><time>2022-11-15T10:18:41Z</time><name>PT127</name></trkpt>
<trkpt lat="51.564201" lon="03.768378"><ele>22.7</ele><time>2022-11-15T10:18:42Z</time><name>PT128</name></trkpt>
<trkpt lat="51.564202" lon="03.768381"><ele>22.7</ele><time>2022-11-15T10:18:43Z</time><name>PT129</name></trkpt>
<trkpt lat="51.564200" lon="03.768380"><ele>22.6</ele><time>2022-11-15T10:18:51Z</time><name>PT130</name></trkpt>
<trkpt lat="51.564200" lon="03.768377"><ele>22.6</ele><time>2022-11-15T10:18:52Z</time><name>PT131</name></trkpt>
<trkpt lat="51.564200" lon="03.768377"><ele>22.7</ele><time>2022-11-15T10:18:53Z</time><name>PT132</name></trkpt>
<trkpt lat="51.564201" lon="03.768376"><ele>22.7</ele><time>2022-11-15T10:18:54Z</time><name>PT133</name></trkpt>
<trkpt lat="51.564201" lon="03.768376"><ele>22.7</ele><time>2022-11-15T10:18:55Z</time><name>PT134</name></trkpt>
<trkpt lat="51.564202" lon="03.768370"><ele>22.8</ele><time>2022-11-15T10:19:07Z</time><name>PT135</name></trkpt>
<trkpt lat="51.564196" lon="03.768358"><ele>22.9</ele><time>2022-11-15T10:19:08Z</time><name>PT136</name></trkpt>
<trkpt lat="51.564188" lon="03.768345"><ele>22.8</ele><time>2022-11-15T10:19:09Z</time><name>PT137</name></trkpt>
<trkpt lat="51.564182" lon="03.768334"><ele>22.8</ele><time>2022-11-15T10:19:10Z</time><name>PT138</name></trkpt>
<trkpt lat="51.564178" lon="03.768323"><ele>23</ele><time>2022-11-15T10:19:11Z</time><name>PT139</name></trkpt>
<trkpt lat="51.564172" lon="03.768310"><ele>23</ele><time>2022-11-15T10:19:12Z</time><name>PT140</name></trkpt>
<trkpt lat="51.564166" lon="03.768298"><ele>22.8</ele><time>2022-11-15T10:19:13Z</time><name>PT141</name></trkpt>
<trkpt lat="51.564161" lon="03.768290"><ele>23</ele><time>2022-11-15T10:19:14Z</time><name>PT142</name></trkpt>
<trkpt lat="51.564157" lon="03.768283"><ele>23</ele><time>2022-11-15T10:19:15Z</time><name>PT143</name></trkpt>
<trkpt lat="51.564153" lon="03.768271"><ele>22.8</ele><time>2022-11-15T10:19:16Z</time><name>PT144</name></trkpt>
<trkpt lat="51.564149" lon="03.768257"><ele>22.5</ele><time>2022-11-15T10:19:17Z</time><name>PT145</name></trkpt>
<trkpt lat="51.564145" lon="03.768242"><ele>22.3</ele><time>2022-11-15T10:19:18Z</time><name>PT146</name></trkpt>
<trkpt lat="51.564140" lon="03.768229"><ele>22</ele><time>2022-11-15T10:19:19Z</time><name>PT147</name></trkpt>
<trkpt lat="51.564136" lon="03.768219"><ele>21.8</ele><time>2022-11-15T10:19:20Z</time><name>PT148</name></trkpt>
<trkpt lat="51.564132" lon="03.768206"><ele>21.6</ele><time>2022-11-15T10:19:21Z</time><name>PT149</name></trkpt>
<trkpt lat="51.564127" lon="03.768191"><ele>21.6</ele><time>2022-11-15T10:19:22Z</time><name>PT150</name></trkpt>
<trkpt lat="51.564122" lon="03.768175"><ele>21.5</ele><time>2022-11-15T10:19:23Z</time><name>PT151</name></trkpt>
<trkpt lat="51.564115" lon="03.768159"><ele>21.3</ele><time>2022-11-15T10:19:24Z</time><name>PT152</name></trkpt>
<trkpt lat="51.564109" lon="03.768142"><ele>21.4</ele><time>2022-11-15T10:19:25Z</time><name>PT153</name></trkpt>
<trkpt lat="51.564102" lon="03.768129"><ele>21.5</ele><time>2022-11-15T10:19:26Z</time><name>PT154</name></trkpt>
<trkpt lat="51.564093" lon="03.768122"><ele>21.6</ele><time>2022-11-15T10:19:27Z</time><name>PT155</name></trkpt>
<trkpt lat="51.564088" lon="03.768108"><ele>21.7</ele><time>2022-11-15T10:19:28Z</time><name>PT156</name></trkpt>
<trkpt lat="51.564082" lon="03.768093"><ele>21.8</ele><time>2022-11-15T10:19:29Z</time><name>PT157</name></trkpt>
<trkpt lat="51.564074" lon="03.768083"><ele>21.7</ele><time>2022-11-15T10:19:30Z</time><name>PT158</name></trkpt>
<trkpt lat="51.564067" lon="03.768073"><ele>21.7</ele><time>2022-11-15T10:19:31Z</time><name>PT159</name></trkpt>
<trkpt lat="51.564061" lon="03.768061"><ele>21.6</ele><time>2022-11-15T10:19:32Z</time><name>PT160</name></trkpt>
<trkpt lat="51.564056" lon="03.768052"><ele>20.9</ele><time>2022-11-15T10:19:33Z</time><name>PT161</name></trkpt>
<trkpt lat="51.564051" lon="03.768042"><ele>20.9</ele><time>2022-11-15T10:19:34Z</time><name>PT162</name></trkpt>
<trkpt lat="51.564044" lon="03.768030"><ele>21</ele><time>2022-11-15T10:19:35Z</time><name>PT163</name></trkpt>
<trkpt lat="51.564036" lon="03.768018"><ele>20.9</ele><time>2022-11-15T10:19:36Z</time><name>PT164</name></trkpt>
<trkpt lat="51.564031" lon="03.768005"><ele>21.2</ele><time>2022-11-15T10:19:37Z</time><name>PT165</name></trkpt>
<trkpt lat="51.564028" lon="03.767991"><ele>21.4</ele><time>2022-11-15T10:19:38Z</time><name>PT166</name></trkpt>
<trkpt lat="51.564022" lon="03.767982"><ele>21.4</ele><time>2022-11-15T10:19:39Z</time><name>PT167</name></trkpt>
<trkpt lat="51.564013" lon="03.767971"><ele>21.2</ele><time>2022-11-15T10:19:40Z</time><name>PT168</name></trkpt>
<trkpt lat="51.564005" lon="03.767960"><ele>21</ele><time>2022-11-15T10:19:41Z</time><name>PT169</name></trkpt>
<trkpt lat="51.563996" lon="03.767948"><ele>20.7</ele><time>2022-11-15T10:19:42Z</time><name>PT170</name></trkpt>
<trkpt lat="51.563988" lon="03.767940"><ele>20.7</ele><time>2022-11-15T10:19:43Z</time><name>PT171</name></trkpt>
<trkpt lat="51.563980" lon="03.767931"><ele>20.2</ele><time>2022-11-15T10:19:44Z</time><name>PT172</name></trkpt>
<trkpt lat="51.563977" lon="03.767923"><ele>19.9</ele><time>2022-11-15T10:19:45Z</time><name>PT173</name></trkpt>
<trkpt lat="51.563968" lon="03.767920"><ele>19.6</ele><time>2022-11-15T10:19:46Z</time><name>PT174</name></trkpt>
<trkpt lat="51.563960" lon="03.767915"><ele>19.5</ele><time>2022-11-15T10:19:47Z</time><name>PT175</name></trkpt>
<trkpt lat="51.563956" lon="03.767911"><ele>19.3</ele><time>2022-11-15T10:19:48Z</time><name>PT176</name></trkpt>
<trkpt lat="51.563954" lon="03.767903"><ele>19.4</ele><time>2022-11-15T10:19:49Z</time><name>PT177</name></trkpt>
<trkpt lat="51.563947" lon="03.767903"><ele>19.6</ele><time>2022-11-15T10:19:50Z</time><name>PT178</name></trkpt>
<trkpt lat="51.563941" lon="03.767905"><ele>19.8</ele><time>2022-11-15T10:19:51Z</time><name>PT179</name></trkpt>
<trkpt lat="51.563944" lon="03.767903"><ele>20.1</ele><time>2022-11-15T10:19:52Z</time><name>PT180</name></trkpt>
<trkpt lat="51.563948" lon="03.767906"><ele>20.3</ele><time>2022-11-15T10:19:53Z</time><name>PT181</name></trkpt>
<trkpt lat="51.563955" lon="03.767908"><ele>20.6</ele><time>2022-11-15T10:19:54Z</time><name>PT182</name></trkpt>
<trkpt lat="51.563952" lon="03.767912"><ele>20.7</ele><time>2022-11-15T10:19:55Z</time><name>PT183</name></trkpt>
<trkpt lat="51.563945" lon="03.767911"><ele>20.5</ele><time>2022-11-15T10:19:56Z</time><name>PT184</name></trkpt>
<trkpt lat="51.563938" lon="03.767912"><ele>20.2</ele><time>2022-11-15T10:19:57Z</time><name>PT185</name></trkpt>
<trkpt lat="51.563930" lon="03.767911"><ele>20.2</ele><time>2022-11-15T10:19:58Z</time><name>PT186</name></trkpt>
<trkpt lat="51.563922" lon="03.767909"><ele>19.7</ele><time>2022-11-15T10:19:59Z</time><name>PT187</name></trkpt>
<trkpt lat="51.563915" lon="03.767902"><ele>19.5</ele><time>2022-11-15T10:20:00Z</time><name>PT188</name></trkpt>
<trkpt lat="51.563917" lon="03.767872"><ele>19.4</ele><time>2022-11-15T10:20:01Z</time><name>PT189</name></trkpt>
<trkpt lat="51.563908" lon="03.767858"><ele>19.2</ele><time>2022-11-15T10:20:02Z</time><name>PT190</name></trkpt>
<trkpt lat="51.563901" lon="03.767861"><ele>19.2</ele><time>2022-11-15T10:20:03Z</time><name>PT191</name></trkpt>
<trkpt lat="51.563900" lon="03.767857"><ele>19.4</ele><time>2022-11-15T10:20:04Z</time><name>PT192</name></trkpt>
<trkpt lat="51.563901" lon="03.767849"><ele>19.7</ele><time>2022-11-15T10:20:05Z</time><name>PT193</name></trkpt>
<trkpt lat="51.563918" lon="03.767838"><ele>19.7</ele><time>2022-11-15T10:20:06Z</time><name>PT194</name></trkpt>
<trkpt lat="51.563924" lon="03.767835"><ele>20.1</ele><time>2022-11-15T10:20:07Z</time><name>PT195</name></trkpt>
<trkpt lat="51.563913" lon="03.767840"><ele>19.9</ele><time>2022-11-15T10:20:10Z</time><name>PT196</name></trkpt>
<trkpt lat="51.563908" lon="03.767831"><ele>20.1</ele><time>2022-11-15T10:20:11Z</time><name>PT197</name></trkpt>
<trkpt lat="51.563908" lon="03.767833"><ele>20</ele><time>2022-11-15T10:20:12Z</time><name>PT198</name></trkpt>
<trkpt lat="51.563910" lon="03.767835"><ele>19.9</ele><time>2022-11-15T10:20:13Z</time><name>PT199</name></trkpt>
<trkpt lat="51.563909" lon="03.767838"><ele>20.1</ele><time>2022-11-15T10:20:14Z</time><name>PT200</name></trkpt>
<trkpt lat="51.563912" lon="03.767839"><ele>20.3</ele><time>2022-11-15T10:20:15Z</time><name>PT201</name></trkpt>
<trkpt lat="51.563916" lon="03.767842"><ele>20.2</ele><time>2022-11-15T10:20:16Z</time><name>PT202</name></trkpt>
<trkpt lat="51.563920" lon="03.767844"><ele>20.2</ele><time>2022-11-15T10:20:17Z</time><name>PT203</name></trkpt>
<trkpt lat="51.563922" lon="03.767846"><ele>20.1</ele><time>2022-11-15T10:20:18Z</time><name>PT204</name></trkpt>
<trkpt lat="51.563924" lon="03.767851"><ele>19.9</ele><time>2022-11-15T10:20:19Z</time><name>PT205</name></trkpt>
<trkpt lat="51.563918" lon="03.767856"><ele>19.8</ele><time>2022-11-15T10:20:21Z</time><name>PT206</name></trkpt>
<trkpt lat="51.563925" lon="03.767860"><ele>19.9</ele><time>2022-11-15T10:20:22Z</time><name>PT207</name></trkpt>
<trkpt lat="51.563929" lon="03.767860"><ele>20</ele><time>2022-11-15T10:20:23Z</time><name>PT208</name></trkpt>
<trkpt lat="51.563933" lon="03.767864"><ele>20.2</ele><time>2022-11-15T10:20:24Z</time><name>PT209</name></trkpt>
<trkpt lat="51.563945" lon="03.767871"><ele>20.2</ele><time>2022-11-15T10:20:25Z</time><name>PT210</name></trkpt>
<trkpt lat="51.563953" lon="03.767870"><ele>20.3</ele><time>2022-11-15T10:20:26Z</time><name>PT211</name></trkpt>
<trkpt lat="51.563963" lon="03.767865"><ele>20.4</ele><time>2022-11-15T10:20:27Z</time><name>PT212</name></trkpt>
<trkpt lat="51.563984" lon="03.767863"><ele>20.7</ele><time>2022-11-15T10:20:28Z</time><name>PT213</name></trkpt>
<trkpt lat="51.563994" lon="03.767862"><ele>20.7</ele><time>2022-11-15T10:20:29Z</time><name>PT214</name></trkpt>
<trkpt lat="51.563993" lon="03.767859"><ele>20.7</ele><time>2022-11-15T10:20:30Z</time><name>PT215</name></trkpt>
<trkpt lat="51.563993" lon="03.767856"><ele>19.9</ele><time>2022-11-15T10:20:51Z</time><name>PT216</name></trkpt>
<trkpt lat="51.563996" lon="03.767845"><ele>20.2</ele><time>2022-11-15T10:20:52Z</time><name>PT217</name></trkpt>
<trkpt lat="51.564001" lon="03.767843"><ele>19.7</ele><time>2022-11-15T10:21:24Z</time><name>PT218</name></trkpt>
<trkpt lat="51.563994" lon="03.767837"><ele>19.3</ele><time>2022-11-15T10:21:25Z</time><name>PT219</name></trkpt>
<trkpt lat="51.563987" lon="03.767829"><ele>19</ele><time>2022-11-15T10:21:26Z</time><name>PT220</name></trkpt>
<trkpt lat="51.563972" lon="03.767834"><ele>18.5</ele><time>2022-11-15T10:21:27Z</time><name>PT221</name></trkpt>
<trkpt lat="51.563957" lon="03.767834"><ele>18.6</ele><time>2022-11-15T10:21:28Z</time><name>PT222</name></trkpt>
<trkpt lat="51.563947" lon="03.767831"><ele>18.5</ele><time>2022-11-15T10:21:29Z</time><name>PT223</name></trkpt>
<trkpt lat="51.563935" lon="03.767828"><ele>18.4</ele><time>2022-11-15T10:21:30Z</time><name>PT224</name></trkpt>
<trkpt lat="51.563922" lon="03.767830"><ele>18.4</ele><time>2022-11-15T10:21:31Z</time><name>PT225</name></trkpt>
<trkpt lat="51.563909" lon="03.767821"><ele>18.8</ele><time>2022-11-15T10:21:32Z</time><name>PT226</name></trkpt>
<trkpt lat="51.563897" lon="03.767825"><ele>18.8</ele><time>2022-11-15T10:21:33Z</time><name>PT227</name></trkpt>
<trkpt lat="51.563889" lon="03.767825"><ele>18.8</ele><time>2022-11-15T10:21:34Z</time><name>PT228</name></trkpt>
<trkpt lat="51.563879" lon="03.767829"><ele>19.1</ele><time>2022-11-15T10:21:35Z</time><name>PT229</name></trkpt>
<trkpt lat="51.563871" lon="03.767828"><ele>19.2</ele><time>2022-11-15T10:21:36Z</time><name>PT230</name></trkpt>
<trkpt lat="51.563860" lon="03.767826"><ele>19</ele><time>2022-11-15T10:21:37Z</time><name>PT231</name></trkpt>
<trkpt lat="51.563850" lon="03.767823"><ele>19.1</ele><time>2022-11-15T10:21:38Z</time><name>PT232</name></trkpt>
<trkpt lat="51.563839" lon="03.767818"><ele>19.1</ele><time>2022-11-15T10:21:39Z</time><name>PT233</name></trkpt>
<trkpt lat="51.563831" lon="03.767811"><ele>18.9</ele><time>2022-11-15T10:21:40Z</time><name>PT234</name></trkpt>
<trkpt lat="51.563822" lon="03.767808"><ele>19</ele><time>2022-11-15T10:21:41Z</time><name>PT235</name></trkpt>
<trkpt lat="51.563812" lon="03.767811"><ele>18.8</ele><time>2022-11-15T10:21:42Z</time><name>PT236</name></trkpt>
<trkpt lat="51.563799" lon="03.767813"><ele>18.7</ele><time>2022-11-15T10:21:43Z</time><name>PT237</name></trkpt>
<trkpt lat="51.563789" lon="03.767812"><ele>18.6</ele><time>2022-11-15T10:21:44Z</time><name>PT238</name></trkpt>
<trkpt lat="51.563776" lon="03.767813"><ele>18.6</ele><time>2022-11-15T10:21:45Z</time><name>PT239</name></trkpt>
<trkpt lat="51.563765" lon="03.767812"><ele>18.5</ele><time>2022-11-15T10:21:46Z</time><name>PT240</name></trkpt>
<trkpt lat="51.563756" lon="03.767808"><ele>18.5</ele><time>2022-11-15T10:21:47Z</time><name>PT241</name></trkpt>
<trkpt lat="51.563745" lon="03.767806"><ele>18.5</ele><time>2022-11-15T10:21:48Z</time><name>PT242</name></trkpt>
<trkpt lat="51.563733" lon="03.767806"><ele>18.6</ele><time>2022-11-15T10:21:49Z</time><name>PT243</name></trkpt>
<trkpt lat="51.563722" lon="03.767805"><ele>18.6</ele><time>2022-11-15T10:21:50Z</time><name>PT244</name></trkpt>
<trkpt lat="51.563711" lon="03.767801"><ele>18.7</ele><time>2022-11-15T10:21:51Z</time><name>PT245</name></trkpt>
<trkpt lat="51.563701" lon="03.767801"><ele>18.7</ele><time>2022-11-15T10:21:52Z</time><name>PT246</name></trkpt>
<trkpt lat="51.563690" lon="03.767802"><ele>18.9</ele><time>2022-11-15T10:21:53Z</time><name>PT247</name></trkpt>
<trkpt lat="51.563680" lon="03.767800"><ele>18.9</ele><time>2022-11-15T10:21:54Z</time><name>PT248</name></trkpt>
<trkpt lat="51.563672" lon="03.767797"><ele>19.2</ele><time>2022-11-15T10:21:55Z</time><name>PT249</name></trkpt>
<trkpt lat="51.563663" lon="03.767794"><ele>19.3</ele><time>2022-11-15T10:21:56Z</time><name>PT250</name></trkpt>
<trkpt lat="51.563653" lon="03.767789"><ele>19.2</ele><time>2022-11-15T10:21:57Z</time><name>PT251</name></trkpt>
<trkpt lat="51.563645" lon="03.767784"><ele>19.2</ele><time>2022-11-15T10:21:58Z</time><name>PT252</name></trkpt>
<trkpt lat="51.563636" lon="03.767784"><ele>19.4</ele><time>2022-11-15T10:21:59Z</time><name>PT253</name></trkpt>
<trkpt lat="51.563628" lon="03.767785"><ele>19.4</ele><time>2022-11-15T10:22:00Z</time><name>PT254</name></trkpt>
<trkpt lat="51.563618" lon="03.767784"><ele>19.3</ele><time>2022-11-15T10:22:01Z</time><name>PT255</name></trkpt>
<trkpt lat="51.563610" lon="03.767782"><ele>19.3</ele><time>2022-11-15T10:22:02Z</time><name>PT256</name></trkpt>
<trkpt lat="51.563601" lon="03.767784"><ele>19.3</ele><time>2022-11-15T10:22:03Z</time><name>PT257</name></trkpt>
<trkpt lat="51.563592" lon="03.767783"><ele>19.2</ele><time>2022-11-15T10:22:04Z</time><name>PT258</name></trkpt>
<trkpt lat="51.563583" lon="03.767780"><ele>19</ele><time>2022-11-15T10:22:05Z</time><name>PT259</name></trkpt>
<trkpt lat="51.563575" lon="03.767777"><ele>19.2</ele><time>2022-11-15T10:22:06Z</time><name>PT260</name></trkpt>
<trkpt lat="51.563565" lon="03.767778"><ele>19.2</ele><time>2022-11-15T10:22:07Z</time><name>PT261</name></trkpt>
<trkpt lat="51.563557" lon="03.767777"><ele>19</ele><time>2022-11-15T10:22:08Z</time><name>PT262</name></trkpt>
<trkpt lat="51.563547" lon="03.767776"><ele>18.8</ele><time>2022-11-15T10:22:09Z</time><name>PT263</name></trkpt>
<trkpt lat="51.563540" lon="03.767769"><ele>19</ele><time>2022-11-15T10:22:10Z</time><name>PT264</name></trkpt>
<trkpt lat="51.563533" lon="03.767764"><ele>18.8</ele><time>2022-11-15T10:22:11Z</time><name>PT265</name></trkpt>
<trkpt lat="51.563523" lon="03.767763"><ele>18.9</ele><time>2022-11-15T10:22:12Z</time><name>PT266</name></trkpt>
<trkpt lat="51.563514" lon="03.767761"><ele>19.2</ele><time>2022-11-15T10:22:13Z</time><name>PT267</name></trkpt>
<trkpt lat="51.563503" lon="03.767760"><ele>19.2</ele><time>2022-11-15T10:22:14Z</time><name>PT268</name></trkpt>
<trkpt lat="51.563493" lon="03.767757"><ele>19.2</ele><time>2022-11-15T10:22:15Z</time><name>PT269</name></trkpt>
<trkpt lat="51.563482" lon="03.767758"><ele>19.2</ele><time>2022-11-15T10:22:16Z</time><name>PT270</name></trkpt>
<trkpt lat="51.563472" lon="03.767756"><ele>19</ele><time>2022-11-15T10:22:17Z</time><name>PT271</name></trkpt>
<trkpt lat="51.563462" lon="03.767754"><ele>19.1</ele><time>2022-11-15T10:22:18Z</time><name>PT272</name></trkpt>
<trkpt lat="51.563452" lon="03.767750"><ele>19.1</ele><time>2022-11-15T10:22:19Z</time><name>PT273</name></trkpt>
<trkpt lat="51.563442" lon="03.767746"><ele>19.1</ele><time>2022-11-15T10:22:20Z</time><name>PT274</name></trkpt>
<trkpt lat="51.563429" lon="03.767745"><ele>19</ele><time>2022-11-15T10:22:21Z</time><name>PT275</name></trkpt>
<trkpt lat="51.563419" lon="03.767743"><ele>18.8</ele><time>2022-11-15T10:22:22Z</time><name>PT276</name></trkpt>
<trkpt lat="51.563410" lon="03.767739"><ele>18.6</ele><time>2022-11-15T10:22:23Z</time><name>PT277</name></trkpt>
<trkpt lat="51.563399" lon="03.767732"><ele>18.6</ele><time>2022-11-15T10:22:24Z</time><name>PT278</name></trkpt>
<trkpt lat="51.563389" lon="03.767724"><ele>18.4</ele><time>2022-11-15T10:22:25Z</time><name>PT279</name></trkpt>
<trkpt lat="51.563378" lon="03.767720"><ele>18.6</ele><time>2022-11-15T10:22:26Z</time><name>PT280</name></trkpt>
<trkpt lat="51.563365" lon="03.767716"><ele>18.7</ele><time>2022-11-15T10:22:27Z</time><name>PT281</name></trkpt>
<trkpt lat="51.563354" lon="03.767715"><ele>18.9</ele><time>2022-11-15T10:22:28Z</time><name>PT282</name></trkpt>
<trkpt lat="51.563342" lon="03.767715"><ele>18.7</ele><time>2022-11-15T10:22:29Z</time><name>PT283</name></trkpt>
<trkpt lat="51.563329" lon="03.767712"><ele>18.7</ele><time>2022-11-15T10:22:30Z</time><name>PT284</name></trkpt>
<trkpt lat="51.563318" lon="03.767711"><ele>18.5</ele><time>2022-11-15T10:22:31Z</time><name>PT285</name></trkpt>
<trkpt lat="51.563307" lon="03.767708"><ele>18.3</ele><time>2022-11-15T10:22:32Z</time><name>PT286</name></trkpt>
<trkpt lat="51.563296" lon="03.767705"><ele>18.1</ele><time>2022-11-15T10:22:33Z</time><name>PT287</name></trkpt>
<trkpt lat="51.563285" lon="03.767702"><ele>18.2</ele><time>2022-11-15T10:22:34Z</time><name>PT288</name></trkpt>
<trkpt lat="51.563274" lon="03.767698"><ele>18.3</ele><time>2022-11-15T10:22:35Z</time><name>PT289</name></trkpt>
<trkpt lat="51.563261" lon="03.767695"><ele>18.5</ele><time>2022-11-15T10:22:36Z</time><name>PT290</name></trkpt>
<trkpt lat="51.563249" lon="03.767689"><ele>18.6</ele><time>2022-11-15T10:22:37Z</time><name>PT291</name></trkpt>
<trkpt lat="51.563237" lon="03.767683"><ele>18.7</ele><time>2022-11-15T10:22:38Z</time><name>PT292</name></trkpt>
<trkpt lat="51.563224" lon="03.767677"><ele>18.7</ele><time>2022-11-15T10:22:39Z</time><name>PT293</name></trkpt>
<trkpt lat="51.563208" lon="03.767677"><ele>18.7</ele><time>2022-11-15T10:22:40Z</time><name>PT294</name></trkpt>
<trkpt lat="51.563195" lon="03.767674"><ele>18.7</ele><time>2022-11-15T10:22:41Z</time><name>PT295</name></trkpt>
<trkpt lat="51.563180" lon="03.767672"><ele>18.6</ele><time>2022-11-15T10:22:42Z</time><name>PT296</name></trkpt>
<trkpt lat="51.563169" lon="03.767670"><ele>18.7</ele><time>2022-11-15T10:22:43Z</time><name>PT297</name></trkpt>
<trkpt lat="51.563158" lon="03.767668"><ele>18.6</ele><time>2022-11-15T10:22:44Z</time><name>PT298</name></trkpt>
<trkpt lat="51.563145" lon="03.767666"><ele>18.5</ele><time>2022-11-15T10:22:45Z</time><name>PT299</name></trkpt>
<trkpt lat="51.563133" lon="03.767663"><ele>18.4</ele><time>2022-11-15T10:22:46Z</time><name>PT300</name></trkpt>
<trkpt lat="51.563123" lon="03.767660"><ele>18.7</ele><time>2022-11-15T10:22:47Z</time><name>PT301</name></trkpt>
<trkpt lat="51.563110" lon="03.767658"><ele>18.6</ele><time>2022-11-15T10:22:48Z</time><name>PT302</name></trkpt>
<trkpt lat="51.563096" lon="03.767657"><ele>18.6</ele><time>2022-11-15T10:22:49Z</time><name>PT303</name></trkpt>
<trkpt lat="51.563084" lon="03.767655"><ele>18.5</ele><time>2022-11-15T10:22:50Z</time><name>PT304</name></trkpt>
<trkpt lat="51.563074" lon="03.767653"><ele>18.6</ele><time>2022-11-15T10:22:51Z</time><name>PT305</name></trkpt>
<trkpt lat="51.563063" lon="03.767651"><ele>18.4</ele><time>2022-11-15T10:22:52Z</time><name>PT306</name></trkpt>
<trkpt lat="51.563053" lon="03.767646"><ele>18.6</ele><time>2022-11-15T10:22:53Z</time><name>PT307</name></trkpt>
<trkpt lat="51.563042" lon="03.767641"><ele>18.5</ele><time>2022-11-15T10:22:54Z</time><name>PT308</name></trkpt>
<trkpt lat="51.563030" lon="03.767637"><ele>18.5</ele><time>2022-11-15T10:22:55Z</time><name>PT309</name></trkpt>
<trkpt lat="51.563018" lon="03.767632"><ele>18.5</ele><time>2022-11-15T10:22:56Z</time><name>PT310</name></trkpt>
<trkpt lat="51.563004" lon="03.767629"><ele>18.8</ele><time>2022-11-15T10:22:57Z</time><name>PT311</name></trkpt>
<trkpt lat="51.562991" lon="03.767626"><ele>18.7</ele><time>2022-11-15T10:22:58Z</time><name>PT312</name></trkpt>
<trkpt lat="51.562978" lon="03.767622"><ele>18.8</ele><time>2022-11-15T10:22:59Z</time><name>PT313</name></trkpt>
<trkpt lat="51.562966" lon="03.767617"><ele>18.8</ele><time>2022-11-15T10:23:00Z</time><name>PT314</name></trkpt>
<trkpt lat="51.562955" lon="03.767611"><ele>18.7</ele><time>2022-11-15T10:23:01Z</time><name>PT315</name></trkpt>
<trkpt lat="51.562945" lon="03.767605"><ele>18.5</ele><time>2022-11-15T10:23:02Z</time><name>PT316</name></trkpt>
<trkpt lat="51.562933" lon="03.767602"><ele>18.4</ele><time>2022-11-15T10:23:03Z</time><name>PT317</name></trkpt>
<trkpt lat="51.562922" lon="03.767599"><ele>18.2</ele><time>2022-11-15T10:23:04Z</time><name>PT318</name></trkpt>
<trkpt lat="51.562910" lon="03.767598"><ele>18.1</ele><time>2022-11-15T10:23:05Z</time><name>PT319</name></trkpt>
<trkpt lat="51.562899" lon="03.767596"><ele>18.2</ele><time>2022-11-15T10:23:06Z</time><name>PT320</name></trkpt>
<trkpt lat="51.562887" lon="03.767592"><ele>18.1</ele><time>2022-11-15T10:23:07Z</time><name>PT321</name></trkpt>
<trkpt lat="51.562875" lon="03.767587"><ele>18.2</ele><time>2022-11-15T10:23:08Z</time><name>PT322</name></trkpt>
<trkpt lat="51.562864" lon="03.767587"><ele>18.4</ele><time>2022-11-15T10:23:09Z</time><name>PT323</name></trkpt>
<trkpt lat="51.562853" lon="03.767584"><ele>18.4</ele><time>2022-11-15T10:23:10Z</time><name>PT324</name></trkpt>
<trkpt lat="51.562843" lon="03.767580"><ele>18.1</ele><time>2022-11-15T10:23:11Z</time><name>PT325</name></trkpt>
<trkpt lat="51.562833" lon="03.767577"><ele>17.7</ele><time>2022-11-15T10:23:12Z</time><name>PT326</name></trkpt>
<trkpt lat="51.562822" lon="03.767575"><ele>17.8</ele><time>2022-11-15T10:23:13Z</time><name>PT327</name></trkpt>
<trkpt lat="51.562811" lon="03.767572"><ele>17.8</ele><time>2022-11-15T10:23:14Z</time><name>PT328</name></trkpt>
<trkpt lat="51.562799" lon="03.767567"><ele>17.8</ele><time>2022-11-15T10:23:15Z</time><name>PT329</name></trkpt>
<trkpt lat="51.562789" lon="03.767563"><ele>18.1</ele><time>2022-11-15T10:23:16Z</time><name>PT330</name></trkpt>
<trkpt lat="51.562778" lon="03.767560"><ele>18.2</ele><time>2022-11-15T10:23:17Z</time><name>PT331</name></trkpt>
<trkpt lat="51.562767" lon="03.767554"><ele>18.2</ele><time>2022-11-15T10:23:18Z</time><name>PT332</name></trkpt>
<trkpt lat="51.562756" lon="03.767550"><ele>18.2</ele><time>2022-11-15T10:23:19Z</time><name>PT333</name></trkpt>
<trkpt lat="51.562744" lon="03.767546"><ele>18.7</ele><time>2022-11-15T10:23:20Z</time><name>PT334</name></trkpt>
<trkpt lat="51.562732" lon="03.767542"><ele>18.9</ele><time>2022-11-15T10:23:21Z</time><name>PT335</name></trkpt>
<trkpt lat="51.562722" lon="03.767540"><ele>18.8</ele><time>2022-11-15T10:23:22Z</time><name>PT336</name></trkpt>
<trkpt lat="51.562711" lon="03.767539"><ele>18.7</ele><time>2022-11-15T10:23:23Z</time><name>PT337</name></trkpt>
<trkpt lat="51.562699" lon="03.767538"><ele>18.7</ele><time>2022-11-15T10:23:24Z</time><name>PT338</name></trkpt>
<trkpt lat="51.562686" lon="03.767536"><ele>18.2</ele><time>2022-11-15T10:23:25Z</time><name>PT339</name></trkpt>
<trkpt lat="51.562673" lon="03.767535"><ele>18.2</ele><time>2022-11-15T10:23:26Z</time><name>PT340</name></trkpt>
<trkpt lat="51.562663" lon="03.767529"><ele>18.1</ele><time>2022-11-15T10:23:27Z</time><name>PT341</name></trkpt>
<trkpt lat="51.562655" lon="03.767523"><ele>18.2</ele><time>2022-11-15T10:23:28Z</time><name>PT342</name></trkpt>
<trkpt lat="51.562645" lon="03.767521"><ele>18.2</ele><time>2022-11-15T10:23:29Z</time><name>PT343</name></trkpt>
<trkpt lat="51.562634" lon="03.767518"><ele>18.2</ele><time>2022-11-15T10:23:30Z</time><name>PT344</name></trkpt>
<trkpt lat="51.562622" lon="03.767514"><ele>18.2</ele><time>2022-11-15T10:23:31Z</time><name>PT345</name></trkpt>
<trkpt lat="51.562610" lon="03.767510"><ele>18.1</ele><time>2022-11-15T10:23:32Z</time><name>PT346</name></trkpt>
<trkpt lat="51.562599" lon="03.767505"><ele>18</ele><time>2022-11-15T10:23:33Z</time><name>PT347</name></trkpt>
<trkpt lat="51.562587" lon="03.767502"><ele>18.1</ele><time>2022-11-15T10:23:34Z</time><name>PT348</name></trkpt>
<trkpt lat="51.562575" lon="03.767498"><ele>18.2</ele><time>2022-11-15T10:23:35Z</time><name>PT349</name></trkpt>
<trkpt lat="51.562563" lon="03.767495"><ele>18.3</ele><time>2022-11-15T10:23:36Z</time><name>PT350</name></trkpt>
<trkpt lat="51.562550" lon="03.767490"><ele>18.5</ele><time>2022-11-15T10:23:37Z</time><name>PT351</name></trkpt>
<trkpt lat="51.562537" lon="03.767488"><ele>18.7</ele><time>2022-11-15T10:23:38Z</time><name>PT352</name></trkpt>
<trkpt lat="51.562523" lon="03.767485"><ele>18.7</ele><time>2022-11-15T10:23:39Z</time><name>PT353</name></trkpt>
<trkpt lat="51.562509" lon="03.767482"><ele>18.8</ele><time>2022-11-15T10:23:40Z</time><name>PT354</name></trkpt>
<trkpt lat="51.562495" lon="03.767480"><ele>18.9</ele><time>2022-11-15T10:23:41Z</time><name>PT355</name></trkpt>
<trkpt lat="51.562483" lon="03.767477"><ele>19</ele><time>2022-11-15T10:23:42Z</time><name>PT356</name></trkpt>
<trkpt lat="51.562471" lon="03.767475"><ele>19.2</ele><time>2022-11-15T10:23:43Z</time><name>PT357</name></trkpt>
<trkpt lat="51.562459" lon="03.767471"><ele>19.2</ele><time>2022-11-15T10:23:44Z</time><name>PT358</name></trkpt>
<trkpt lat="51.562447" lon="03.767468"><ele>19.2</ele><time>2022-11-15T10:23:45Z</time><name>PT359</name></trkpt>
<trkpt lat="51.562435" lon="03.767465"><ele>19.1</ele><time>2022-11-15T10:23:46Z</time><name>PT360</name></trkpt>
<trkpt lat="51.562422" lon="03.767464"><ele>19.2</ele><time>2022-11-15T10:23:47Z</time><name>PT361</name></trkpt>
<trkpt lat="51.562407" lon="03.767466"><ele>19.2</ele><time>2022-11-15T10:23:48Z</time><name>PT362</name></trkpt>
<trkpt lat="51.562393" lon="03.767464"><ele>19.2</ele><time>2022-11-15T10:23:49Z</time><name>PT363</name></trkpt>
<trkpt lat="51.562382" lon="03.767461"><ele>19.2</ele><time>2022-11-15T10:23:50Z</time><name>PT364</name></trkpt>
<trkpt lat="51.562369" lon="03.767454"><ele>19</ele><time>2022-11-15T10:23:51Z</time><name>PT365</name></trkpt>
<trkpt lat="51.562358" lon="03.767452"><ele>18.4</ele><time>2022-11-15T10:23:52Z</time><name>PT366</name></trkpt>
<trkpt lat="51.562345" lon="03.767452"><ele>18.2</ele><time>2022-11-15T10:23:53Z</time><name>PT367</name></trkpt>
<trkpt lat="51.562332" lon="03.767452"><ele>17.8</ele><time>2022-11-15T10:23:54Z</time><name>PT368</name></trkpt>
<trkpt lat="51.562322" lon="03.767449"><ele>17.7</ele><time>2022-11-15T10:23:55Z</time><name>PT369</name></trkpt>
<trkpt lat="51.562311" lon="03.767446"><ele>17.7</ele><time>2022-11-15T10:23:56Z</time><name>PT370</name></trkpt>
<trkpt lat="51.562299" lon="03.767443"><ele>18.1</ele><time>2022-11-15T10:23:57Z</time><name>PT371</name></trkpt>
<trkpt lat="51.562286" lon="03.767438"><ele>18.3</ele><time>2022-11-15T10:23:58Z</time><name>PT372</name></trkpt>
<trkpt lat="51.562274" lon="03.767432"><ele>18.5</ele><time>2022-11-15T10:23:59Z</time><name>PT373</name></trkpt>
<trkpt lat="51.562262" lon="03.767427"><ele>18.3</ele><time>2022-11-15T10:24:00Z</time><name>PT374</name></trkpt>
<trkpt lat="51.562249" lon="03.767421"><ele>18.3</ele><time>2022-11-15T10:24:01Z</time><name>PT375</name></trkpt>
<trkpt lat="51.562237" lon="03.767416"><ele>18.2</ele><time>2022-11-15T10:24:02Z</time><name>PT376</name></trkpt>
<trkpt lat="51.562225" lon="03.767413"><ele>17.9</ele><time>2022-11-15T10:24:03Z</time><name>PT377</name></trkpt>
<trkpt lat="51.562214" lon="03.767411"><ele>17.4</ele><time>2022-11-15T10:24:04Z</time><name>PT378</name></trkpt>
<trkpt lat="51.562202" lon="03.767408"><ele>17.4</ele><time>2022-11-15T10:24:05Z</time><name>PT379</name></trkpt>
<trkpt lat="51.562191" lon="03.767404"><ele>17.4</ele><time>2022-11-15T10:24:06Z</time><name>PT380</name></trkpt>
<trkpt lat="51.562178" lon="03.767403"><ele>17.4</ele><time>2022-11-15T10:24:07Z</time><name>PT381</name></trkpt>
<trkpt lat="51.562166" lon="03.767400"><ele>17.8</ele><time>2022-11-15T10:24:08Z</time><name>PT382</name></trkpt>
<trkpt lat="51.562154" lon="03.767397"><ele>18.3</ele><time>2022-11-15T10:24:09Z</time><name>PT383</name></trkpt>
<trkpt lat="51.562143" lon="03.767395"><ele>18.2</ele><time>2022-11-15T10:24:10Z</time><name>PT384</name></trkpt>
<trkpt lat="51.562132" lon="03.767393"><ele>18.4</ele><time>2022-11-15T10:24:11Z</time><name>PT385</name></trkpt>
<trkpt lat="51.562121" lon="03.767391"><ele>18.5</ele><time>2022-11-15T10:24:12Z</time><name>PT386</name></trkpt>
<trkpt lat="51.562121" lon="03.767395"><ele>18.6</ele><time>2022-11-15T10:24:13Z</time><name>PT387</name></trkpt>
<trkpt lat="51.562122" lon="03.767393"><ele>19.1</ele><time>2022-11-15T10:24:14Z</time><name>PT388</name></trkpt>
<trkpt lat="51.562119" lon="03.767391"><ele>19.8</ele><time>2022-11-15T10:24:15Z</time><name>PT389</name></trkpt>
<trkpt lat="51.562111" lon="03.767393"><ele>20.5</ele><time>2022-11-15T10:24:16Z</time><name>PT390</name></trkpt>
<trkpt lat="51.562101" lon="03.767389"><ele>20.4</ele><time>2022-11-15T10:24:17Z</time><name>PT391</name></trkpt>
<trkpt lat="51.562090" lon="03.767386"><ele>20.4</ele><time>2022-11-15T10:24:18Z</time><name>PT392</name></trkpt>
<trkpt lat="51.562078" lon="03.767386"><ele>19.7</ele><time>2022-11-15T10:24:19Z</time><name>PT393</name></trkpt>
<trkpt lat="51.562069" lon="03.767382"><ele>19.5</ele><time>2022-11-15T10:24:20Z</time><name>PT394</name></trkpt>
<trkpt lat="51.562060" lon="03.767378"><ele>19.1</ele><time>2022-11-15T10:24:21Z</time><name>PT395</name></trkpt>
<trkpt lat="51.562048" lon="03.767375"><ele>19.2</ele><time>2022-11-15T10:24:22Z</time><name>PT396</name></trkpt>
<trkpt lat="51.562038" lon="03.767368"><ele>19</ele><time>2022-11-15T10:24:23Z</time><name>PT397</name></trkpt>
<trkpt lat="51.562026" lon="03.767364"><ele>19</ele><time>2022-11-15T10:24:24Z</time><name>PT398</name></trkpt>
<trkpt lat="51.562016" lon="03.767361"><ele>19</ele><time>2022-11-15T10:24:25Z</time><name>PT399</name></trkpt>
<trkpt lat="51.562004" lon="03.767357"><ele>19.2</ele><time>2022-11-15T10:24:26Z</time><name>PT400</name></trkpt>
<trkpt lat="51.561990" lon="03.767356"><ele>19.2</ele><time>2022-11-15T10:24:27Z</time><name>PT401</name></trkpt>
<trkpt lat="51.561978" lon="03.767354"><ele>19.6</ele><time>2022-11-15T10:24:28Z</time><name>PT402</name></trkpt>
<trkpt lat="51.561966" lon="03.767352"><ele>19.4</ele><time>2022-11-15T10:24:29Z</time><name>PT403</name></trkpt>
<trkpt lat="51.561953" lon="03.767349"><ele>19.6</ele><time>2022-11-15T10:24:30Z</time><name>PT404</name></trkpt>
<trkpt lat="51.561938" lon="03.767348"><ele>19.5</ele><time>2022-11-15T10:24:31Z</time><name>PT405</name></trkpt>
<trkpt lat="51.561925" lon="03.767347"><ele>19.2</ele><time>2022-11-15T10:24:32Z</time><name>PT406</name></trkpt>
<trkpt lat="51.561915" lon="03.767345"><ele>18.9</ele><time>2022-11-15T10:24:33Z</time><name>PT407</name></trkpt>
<trkpt lat="51.561903" lon="03.767340"><ele>18.9</ele><time>2022-11-15T10:24:34Z</time><name>PT408</name></trkpt>
<trkpt lat="51.561892" lon="03.767338"><ele>18.7</ele><time>2022-11-15T10:24:35Z</time><name>PT409</name></trkpt>
<trkpt lat="51.561881" lon="03.767335"><ele>18.7</ele><time>2022-11-15T10:24:36Z</time><name>PT410</name></trkpt>
<trkpt lat="51.561868" lon="03.767330"><ele>18.8</ele><time>2022-11-15T10:24:37Z</time><name>PT411</name></trkpt>
<trkpt lat="51.561857" lon="03.767324"><ele>18.9</ele><time>2022-11-15T10:24:38Z</time><name>PT412</name></trkpt>
<trkpt lat="51.561845" lon="03.767317"><ele>19</ele><time>2022-11-15T10:24:39Z</time><name>PT413</name></trkpt>
<trkpt lat="51.561834" lon="03.767309"><ele>19.2</ele><time>2022-11-15T10:24:40Z</time><name>PT414</name></trkpt>
<trkpt lat="51.561821" lon="03.767303"><ele>19.2</ele><time>2022-11-15T10:24:41Z</time><name>PT415</name></trkpt>
<trkpt lat="51.561810" lon="03.767299"><ele>18.8</ele><time>2022-11-15T10:24:42Z</time><name>PT416</name></trkpt>
<trkpt lat="51.561797" lon="03.767296"><ele>18.7</ele><time>2022-11-15T10:24:43Z</time><name>PT417</name></trkpt>
<trkpt lat="51.561785" lon="03.767293"><ele>18.7</ele><time>2022-11-15T10:24:44Z</time><name>PT418</name></trkpt>
<trkpt lat="51.561773" lon="03.767289"><ele>18.4</ele><time>2022-11-15T10:24:45Z</time><name>PT419</name></trkpt>
<trkpt lat="51.561760" lon="03.767285"><ele>18.6</ele><time>2022-11-15T10:24:46Z</time><name>PT420</name></trkpt>
<trkpt lat="51.561748" lon="03.767284"><ele>18.5</ele><time>2022-11-15T10:24:47Z</time><name>PT421</name></trkpt>
<trkpt lat="51.561734" lon="03.767282"><ele>18.3</ele><time>2022-11-15T10:24:48Z</time><name>PT422</name></trkpt>
<trkpt lat="51.561722" lon="03.767281"><ele>18.2</ele><time>2022-11-15T10:24:49Z</time><name>PT423</name></trkpt>
<trkpt lat="51.561709" lon="03.767280"><ele>18</ele><time>2022-11-15T10:24:50Z</time><name>PT424</name></trkpt>
<trkpt lat="51.561696" lon="03.767277"><ele>17.6</ele><time>2022-11-15T10:24:51Z</time><name>PT425</name></trkpt>
<trkpt lat="51.561686" lon="03.767271"><ele>17.7</ele><time>2022-11-15T10:24:52Z</time><name>PT426</name></trkpt>
<trkpt lat="51.561675" lon="03.767265"><ele>17.7</ele><time>2022-11-15T10:24:53Z</time><name>PT427</name></trkpt>
<trkpt lat="51.561662" lon="03.767260"><ele>17.7</ele><time>2022-11-15T10:24:54Z</time><name>PT428</name></trkpt>
<trkpt lat="51.561651" lon="03.767255"><ele>18</ele><time>2022-11-15T10:24:55Z</time><name>PT429</name></trkpt>
<trkpt lat="51.561640" lon="03.767254"><ele>18.5</ele><time>2022-11-15T10:24:56Z</time><name>PT430</name></trkpt>
<trkpt lat="51.561627" lon="03.767249"><ele>18.5</ele><time>2022-11-15T10:24:57Z</time><name>PT431</name></trkpt>
<trkpt lat="51.561617" lon="03.767244"><ele>18.5</ele><time>2022-11-15T10:24:58Z</time><name>PT432</name></trkpt>
<trkpt lat="51.561606" lon="03.767240"><ele>18.7</ele><time>2022-11-15T10:24:59Z</time><name>PT433</name></trkpt>
<trkpt lat="51.561594" lon="03.767236"><ele>18.5</ele><time>2022-11-15T10:25:00Z</time><name>PT434</name></trkpt>
<trkpt lat="51.561582" lon="03.767233"><ele>18.2</ele><time>2022-11-15T10:25:01Z</time><name>PT435</name></trkpt>
<trkpt lat="51.561570" lon="03.767227"><ele>18.2</ele><time>2022-11-15T10:25:02Z</time><name>PT436</name></trkpt>
<trkpt lat="51.561559" lon="03.767222"><ele>18</ele><time>2022-11-15T10:25:03Z</time><name>PT437</name></trkpt>
<trkpt lat="51.561549" lon="03.767215"><ele>17.8</ele><time>2022-11-15T10:25:04Z</time><name>PT438</name></trkpt>
<trkpt lat="51.561538" lon="03.767210"><ele>17.7</ele><time>2022-11-15T10:25:05Z</time><name>PT439</name></trkpt>
<trkpt lat="51.561526" lon="03.767206"><ele>17.9</ele><time>2022-11-15T10:25:06Z</time><name>PT440</name></trkpt>
<trkpt lat="51.561514" lon="03.767203"><ele>18.2</ele><time>2022-11-15T10:25:07Z</time><name>PT441</name></trkpt>
<trkpt lat="51.561504" lon="03.767201"><ele>18.5</ele><time>2022-11-15T10:25:08Z</time><name>PT442</name></trkpt>
<trkpt lat="51.561492" lon="03.767198"><ele>18.7</ele><time>2022-11-15T10:25:09Z</time><name>PT443</name></trkpt>
<trkpt lat="51.561479" lon="03.767196"><ele>18.8</ele><time>2022-11-15T10:25:10Z</time><name>PT444</name></trkpt>
<trkpt lat="51.561467" lon="03.767192"><ele>18.4</ele><time>2022-11-15T10:25:11Z</time><name>PT445</name></trkpt>
<trkpt lat="51.561453" lon="03.767190"><ele>18.7</ele><time>2022-11-15T10:25:12Z</time><name>PT446</name></trkpt>
<trkpt lat="51.561440" lon="03.767187"><ele>18.3</ele><time>2022-11-15T10:25:13Z</time><name>PT447</name></trkpt>
<trkpt lat="51.561427" lon="03.767183"><ele>18.4</ele><time>2022-11-15T10:25:14Z</time><name>PT448</name></trkpt>
<trkpt lat="51.561413" lon="03.767184"><ele>18.4</ele><time>2022-11-15T10:25:15Z</time><name>PT449</name></trkpt>
<trkpt lat="51.561401" lon="03.767182"><ele>18.6</ele><time>2022-11-15T10:25:16Z</time><name>PT450</name></trkpt>
<trkpt lat="51.561390" lon="03.767180"><ele>18.6</ele><time>2022-11-15T10:25:17Z</time><name>PT451</name></trkpt>
<trkpt lat="51.561377" lon="03.767178"><ele>18.7</ele><time>2022-11-15T10:25:18Z</time><name>PT452</name></trkpt>
<trkpt lat="51.561365" lon="03.767175"><ele>18.7</ele><time>2022-11-15T10:25:19Z</time><name>PT453</name></trkpt>
<trkpt lat="51.561354" lon="03.767173"><ele>19.1</ele><time>2022-11-15T10:25:20Z</time><name>PT454</name></trkpt>
<trkpt lat="51.561344" lon="03.767170"><ele>19.2</ele><time>2022-11-15T10:25:21Z</time><name>PT455</name></trkpt>
<trkpt lat="51.561334" lon="03.767166"><ele>19.2</ele><time>2022-11-15T10:25:22Z</time><name>PT456</name></trkpt>
<trkpt lat="51.561323" lon="03.767162"><ele>19.2</ele><time>2022-11-15T10:25:23Z</time><name>PT457</name></trkpt>
<trkpt lat="51.561312" lon="03.767156"><ele>19</ele><time>2022-11-15T10:25:24Z</time><name>PT458</name></trkpt>
<trkpt lat="51.561300" lon="03.767150"><ele>18.8</ele><time>2022-11-15T10:25:25Z</time><name>PT459</name></trkpt>
<trkpt lat="51.561288" lon="03.767145"><ele>18.5</ele><time>2022-11-15T10:25:26Z</time><name>PT460</name></trkpt>
<trkpt lat="51.561276" lon="03.767139"><ele>18.4</ele><time>2022-11-15T10:25:27Z</time><name>PT461</name></trkpt>
<trkpt lat="51.561263" lon="03.767136"><ele>18.3</ele><time>2022-11-15T10:25:28Z</time><name>PT462</name></trkpt>
<trkpt lat="51.561250" lon="03.767134"><ele>18.2</ele><time>2022-11-15T10:25:29Z</time><name>PT463</name></trkpt>
<trkpt lat="51.561238" lon="03.767131"><ele>18</ele><time>2022-11-15T10:25:30Z</time><name>PT464</name></trkpt>
<trkpt lat="51.561226" lon="03.767124"><ele>18</ele><time>2022-11-15T10:25:31Z</time><name>PT465</name></trkpt>
<trkpt lat="51.561215" lon="03.767119"><ele>17.9</ele><time>2022-11-15T10:25:32Z</time><name>PT466</name></trkpt>
<trkpt lat="51.561202" lon="03.767115"><ele>17.9</ele><time>2022-11-15T10:25:33Z</time><name>PT467</name></trkpt>
<trkpt lat="51.561190" lon="03.767111"><ele>18</ele><time>2022-11-15T10:25:34Z</time><name>PT468</name></trkpt>
<trkpt lat="51.561178" lon="03.767108"><ele>18.1</ele><time>2022-11-15T10:25:35Z</time><name>PT469</name></trkpt>
<trkpt lat="51.561166" lon="03.767109"><ele>18.4</ele><time>2022-11-15T10:25:36Z</time><name>PT470</name></trkpt>
<trkpt lat="51.561152" lon="03.767111"><ele>18.5</ele><time>2022-11-15T10:25:37Z</time><name>PT471</name></trkpt>
<trkpt lat="51.561140" lon="03.767111"><ele>18.7</ele><time>2022-11-15T10:25:38Z</time><name>PT472</name></trkpt>
<trkpt lat="51.561128" lon="03.767109"><ele>19.2</ele><time>2022-11-15T10:25:39Z</time><name>PT473</name></trkpt>
<trkpt lat="51.561114" lon="03.767109"><ele>19.7</ele><time>2022-11-15T10:25:40Z</time><name>PT474</name></trkpt>
<trkpt lat="51.561102" lon="03.767101"><ele>19.6</ele><time>2022-11-15T10:25:41Z</time><name>PT475</name></trkpt>
<trkpt lat="51.561090" lon="03.767098"><ele>19.7</ele><time>2022-11-15T10:25:42Z</time><name>PT476</name></trkpt>
<trkpt lat="51.561079" lon="03.767097"><ele>19.6</ele><time>2022-11-15T10:25:43Z</time><name>PT477</name></trkpt>
<trkpt lat="51.561067" lon="03.767097"><ele>19.6</ele><time>2022-11-15T10:25:44Z</time><name>PT478</name></trkpt>
<trkpt lat="51.561055" lon="03.767094"><ele>19.6</ele><time>2022-11-15T10:25:45Z</time><name>PT479</name></trkpt>
<trkpt lat="51.561046" lon="03.767088"><ele>19.7</ele><time>2022-11-15T10:25:46Z</time><name>PT480</name></trkpt>
<trkpt lat="51.561035" lon="03.767083"><ele>19.7</ele><time>2022-11-15T10:25:47Z</time><name>PT481</name></trkpt>
<trkpt lat="51.561023" lon="03.767079"><ele>19.7</ele><time>2022-11-15T10:25:48Z</time><name>PT482</name></trkpt>
<trkpt lat="51.561012" lon="03.767074"><ele>19.8</ele><time>2022-11-15T10:25:49Z</time><name>PT483</name></trkpt>
<trkpt lat="51.561001" lon="03.767069"><ele>19.7</ele><time>2022-11-15T10:25:50Z</time><name>PT484</name></trkpt>
<trkpt lat="51.560990" lon="03.767067"><ele>19.6</ele><time>2022-11-15T10:25:51Z</time><name>PT485</name></trkpt>
<trkpt lat="51.560978" lon="03.767064"><ele>19.7</ele><time>2022-11-15T10:25:52Z</time><name>PT486</name></trkpt>
<trkpt lat="51.560965" lon="03.767060"><ele>19.6</ele><time>2022-11-15T10:25:53Z</time><name>PT487</name></trkpt>
<trkpt lat="51.560953" lon="03.767055"><ele>19.3</ele><time>2022-11-15T10:25:54Z</time><name>PT488</name></trkpt>
<trkpt lat="51.560942" lon="03.767055"><ele>19.2</ele><time>2022-11-15T10:25:55Z</time><name>PT489</name></trkpt>
<trkpt lat="51.560930" lon="03.767053"><ele>19</ele><time>2022-11-15T10:25:56Z</time><name>PT490</name></trkpt>
<trkpt lat="51.560918" lon="03.767052"><ele>18.9</ele><time>2022-11-15T10:25:57Z</time><name>PT491</name></trkpt>
<trkpt lat="51.560907" lon="03.767050"><ele>18.8</ele><time>2022-11-15T10:25:58Z</time><name>PT492</name></trkpt>
<trkpt lat="51.560896" lon="03.767049"><ele>18.7</ele><time>2022-11-15T10:25:59Z</time><name>PT493</name></trkpt>
<trkpt lat="51.560885" lon="03.767048"><ele>18.6</ele><time>2022-11-15T10:26:00Z</time><name>PT494</name></trkpt>
<trkpt lat="51.560875" lon="03.767044"><ele>18.7</ele><time>2022-11-15T10:26:01Z</time><name>PT495</name></trkpt>
<trkpt lat="51.560864" lon="03.767039"><ele>18.2</ele><time>2022-11-15T10:26:02Z</time><name>PT496</name></trkpt>
<trkpt lat="51.560853" lon="03.767033"><ele>18.3</ele><time>2022-11-15T10:26:03Z</time><name>PT497</name></trkpt>
<trkpt lat="51.560841" lon="03.767030"><ele>18.6</ele><time>2022-11-15T10:26:04Z</time><name>PT498</name></trkpt>
<trkpt lat="51.560828" lon="03.767028"><ele>18.7</ele><time>2022-11-15T10:26:05Z</time><name>PT499</name></trkpt>
<trkpt lat="51.560816" lon="03.767024"><ele>18.8</ele><time>2022-11-15T10:26:06Z</time><name>PT500</name></trkpt>
<trkpt lat="51.560804" lon="03.767020"><ele>19.3</ele><time>2022-11-15T10:26:07Z</time><name>PT501</name></trkpt>
<trkpt lat="51.560794" lon="03.767015"><ele>19.6</ele><time>2022-11-15T10:26:08Z</time><name>PT502</name></trkpt>
<trkpt lat="51.560782" lon="03.767011"><ele>19.5</ele><time>2022-11-15T10:26:09Z</time><name>PT503</name></trkpt>
<trkpt lat="51.560770" lon="03.767006"><ele>19.3</ele><time>2022-11-15T10:26:10Z</time><name>PT504</name></trkpt>
<trkpt lat="51.560759" lon="03.767002"><ele>19.2</ele><time>2022-11-15T10:26:11Z</time><name>PT505</name></trkpt>
<trkpt lat="51.560747" lon="03.766999"><ele>19.1</ele><time>2022-11-15T10:26:12Z</time><name>PT506</name></trkpt>
<trkpt lat="51.560737" lon="03.766993"><ele>18.7</ele><time>2022-11-15T10:26:13Z</time><name>PT507</name></trkpt>
<trkpt lat="51.560725" lon="03.766989"><ele>18.7</ele><time>2022-11-15T10:26:14Z</time><name>PT508</name></trkpt>
<trkpt lat="51.560712" lon="03.766986"><ele>18.8</ele><time>2022-11-15T10:26:15Z</time><name>PT509</name></trkpt>
<trkpt lat="51.560700" lon="03.766983"><ele>19</ele><time>2022-11-15T10:26:16Z</time><name>PT510</name></trkpt>
<trkpt lat="51.560686" lon="03.766983"><ele>19</ele><time>2022-11-15T10:26:17Z</time><name>PT511</name></trkpt>
<trkpt lat="51.560673" lon="03.766979"><ele>19.2</ele><time>2022-11-15T10:26:18Z</time><name>PT512</name></trkpt>
<trkpt lat="51.560661" lon="03.766979"><ele>19.4</ele><time>2022-11-15T10:26:19Z</time><name>PT513</name></trkpt>
<trkpt lat="51.560648" lon="03.766978"><ele>19.7</ele><time>2022-11-15T10:26:20Z</time><name>PT514</name></trkpt>
<trkpt lat="51.560636" lon="03.766975"><ele>19.4</ele><time>2022-11-15T10:26:21Z</time><name>PT515</name></trkpt>
<trkpt lat="51.560624" lon="03.766970"><ele>19.5</ele><time>2022-11-15T10:26:22Z</time><name>PT516</name></trkpt>
<trkpt lat="51.560612" lon="03.766965"><ele>19.4</ele><time>2022-11-15T10:26:23Z</time><name>PT517</name></trkpt>
<trkpt lat="51.560601" lon="03.766963"><ele>19.1</ele><time>2022-11-15T10:26:24Z</time><name>PT518</name></trkpt>
<trkpt lat="51.560589" lon="03.766960"><ele>19.2</ele><time>2022-11-15T10:26:25Z</time><name>PT519</name></trkpt>
<trkpt lat="51.560577" lon="03.766956"><ele>19</ele><time>2022-11-15T10:26:26Z</time><name>PT520</name></trkpt>
<trkpt lat="51.560566" lon="03.766951"><ele>18.9</ele><time>2022-11-15T10:26:27Z</time><name>PT521</name></trkpt>
<trkpt lat="51.560554" lon="03.766944"><ele>18.7</ele><time>2022-11-15T10:26:28Z</time><name>PT522</name></trkpt>
<trkpt lat="51.560542" lon="03.766938"><ele>18.7</ele><time>2022-11-15T10:26:29Z</time><name>PT523</name></trkpt>
<trkpt lat="51.560530" lon="03.766935"><ele>18.7</ele><time>2022-11-15T10:26:30Z</time><name>PT524</name></trkpt>
<trkpt lat="51.560528" lon="03.766934"><ele>19.2</ele><time>2022-11-15T10:26:31Z</time><name>PT525</name></trkpt>
<trkpt lat="51.560529" lon="03.766935"><ele>19.8</ele><time>2022-11-15T10:26:32Z</time><name>PT526</name></trkpt>
<trkpt lat="51.560531" lon="03.766933"><ele>20.7</ele><time>2022-11-15T10:26:33Z</time><name>PT527</name></trkpt>
<trkpt lat="51.560529" lon="03.766934"><ele>21</ele><time>2022-11-15T10:26:36Z</time><name>PT528</name></trkpt>
<trkpt lat="51.560520" lon="03.766930"><ele>20.4</ele><time>2022-11-15T10:26:37Z</time><name>PT529</name></trkpt>
<trkpt lat="51.560507" lon="03.766917"><ele>19.6</ele><time>2022-11-15T10:26:38Z</time><name>PT530</name></trkpt>
<trkpt lat="51.560494" lon="03.766915"><ele>18.8</ele><time>2022-11-15T10:26:39Z</time><name>PT531</name></trkpt>
<trkpt lat="51.560484" lon="03.766911"><ele>18.4</ele><time>2022-11-15T10:26:40Z</time><name>PT532</name></trkpt>
<trkpt lat="51.560473" lon="03.766907"><ele>18.6</ele><time>2022-11-15T10:26:41Z</time><name>PT533</name></trkpt>
<trkpt lat="51.560466" lon="03.766907"><ele>18.8</ele><time>2022-11-15T10:26:42Z</time><name>PT534</name></trkpt>
<trkpt lat="51.560459" lon="03.766904"><ele>18.9</ele><time>2022-11-15T10:26:43Z</time><name>PT535</name></trkpt>
<trkpt lat="51.560453" lon="03.766901"><ele>19.2</ele><time>2022-11-15T10:26:44Z</time><name>PT536</name></trkpt>
<trkpt lat="51.560451" lon="03.766903"><ele>19.5</ele><time>2022-11-15T10:26:45Z</time><name>PT537</name></trkpt>
<trkpt lat="51.560450" lon="03.766903"><ele>19.8</ele><time>2022-11-15T10:26:46Z</time><name>PT538</name></trkpt>
<trkpt lat="51.560451" lon="03.766903"><ele>20.2</ele><time>2022-11-15T10:26:47Z</time><name>PT539</name></trkpt>
<trkpt lat="51.560449" lon="03.766905"><ele>20.8</ele><time>2022-11-15T10:26:48Z</time><name>PT540</name></trkpt>
<trkpt lat="51.560451" lon="03.766906"><ele>21.2</ele><time>2022-11-15T10:26:49Z</time><name>PT541</name></trkpt>
<trkpt lat="51.560452" lon="03.766909"><ele>21.7</ele><time>2022-11-15T10:26:50Z</time><name>PT542</name></trkpt>
<trkpt lat="51.560455" lon="03.766910"><ele>21.7</ele><time>2022-11-15T10:26:51Z</time><name>PT543</name></trkpt>
<trkpt lat="51.560456" lon="03.766908"><ele>21.7</ele><time>2022-11-15T10:26:52Z</time><name>PT544</name></trkpt>
<trkpt lat="51.560452" lon="03.766904"><ele>21.5</ele><time>2022-11-15T10:27:28Z</time><name>PT545</name></trkpt>
<trkpt lat="51.560444" lon="03.766900"><ele>20.7</ele><time>2022-11-15T10:27:29Z</time><name>PT546</name></trkpt>
<trkpt lat="51.560434" lon="03.766895"><ele>20.2</ele><time>2022-11-15T10:27:30Z</time><name>PT547</name></trkpt>
<trkpt lat="51.560423" lon="03.766890"><ele>19.6</ele><time>2022-11-15T10:27:31Z</time><name>PT548</name></trkpt>
<trkpt lat="51.560412" lon="03.766888"><ele>19.3</ele><time>2022-11-15T10:27:32Z</time><name>PT549</name></trkpt>
<trkpt lat="51.560405" lon="03.766883"><ele>19.3</ele><time>2022-11-15T10:27:33Z</time><name>PT550</name></trkpt>
<trkpt lat="51.560395" lon="03.766879"><ele>19.3</ele><time>2022-11-15T10:27:34Z</time><name>PT551</name></trkpt>
<trkpt lat="51.560385" lon="03.766875"><ele>19.4</ele><time>2022-11-15T10:27:35Z</time><name>PT552</name></trkpt>
<trkpt lat="51.560373" lon="03.766872"><ele>19.3</ele><time>2022-11-15T10:27:36Z</time><name>PT553</name></trkpt>
<trkpt lat="51.560362" lon="03.766869"><ele>19.4</ele><time>2022-11-15T10:27:37Z</time><name>PT554</name></trkpt>
<trkpt lat="51.560351" lon="03.766868"><ele>19.6</ele><time>2022-11-15T10:27:38Z</time><name>PT555</name></trkpt>
<trkpt lat="51.560341" lon="03.766867"><ele>19.7</ele><time>2022-11-15T10:27:39Z</time><name>PT556</name></trkpt>
<trkpt lat="51.560330" lon="03.766855"><ele>19.9</ele><time>2022-11-15T10:27:40Z</time><name>PT557</name></trkpt>
<trkpt lat="51.560319" lon="03.766850"><ele>20.1</ele><time>2022-11-15T10:27:41Z</time><name>PT558</name></trkpt>
<trkpt lat="51.560307" lon="03.766850"><ele>20.1</ele><time>2022-11-15T10:27:42Z</time><name>PT559</name></trkpt>
<trkpt lat="51.560291" lon="03.766852"><ele>20.1</ele><time>2022-11-15T10:27:43Z</time><name>PT560</name></trkpt>
<trkpt lat="51.560278" lon="03.766850"><ele>19.9</ele><time>2022-11-15T10:27:44Z</time><name>PT561</name></trkpt>
<trkpt lat="51.560266" lon="03.766847"><ele>19.9</ele><time>2022-11-15T10:27:45Z</time><name>PT562</name></trkpt>
<trkpt lat="51.560256" lon="03.766844"><ele>19.8</ele><time>2022-11-15T10:27:46Z</time><name>PT563</name></trkpt>
<trkpt lat="51.560243" lon="03.766840"><ele>19.7</ele><time>2022-11-15T10:27:47Z</time><name>PT564</name></trkpt>
<trkpt lat="51.560231" lon="03.766839"><ele>19.7</ele><time>2022-11-15T10:27:48Z</time><name>PT565</name></trkpt>
<trkpt lat="51.560219" lon="03.766836"><ele>19.7</ele><time>2022-11-15T10:27:49Z</time><name>PT566</name></trkpt>
<trkpt lat="51.560206" lon="03.766835"><ele>19.5</ele><time>2022-11-15T10:27:50Z</time><name>PT567</name></trkpt>
<trkpt lat="51.560193" lon="03.766832"><ele>19.4</ele><time>2022-11-15T10:27:51Z</time><name>PT568</name></trkpt>
<trkpt lat="51.560181" lon="03.766829"><ele>19.2</ele><time>2022-11-15T10:27:52Z</time><name>PT569</name></trkpt>
<trkpt lat="51.560170" lon="03.766824"><ele>19.2</ele><time>2022-11-15T10:27:53Z</time><name>PT570</name></trkpt>
<trkpt lat="51.560158" lon="03.766819"><ele>19.2</ele><time>2022-11-15T10:27:54Z</time><name>PT571</name></trkpt>
<trkpt lat="51.560146" lon="03.766813"><ele>19.3</ele><time>2022-11-15T10:27:55Z</time><name>PT572</name></trkpt>
<trkpt lat="51.560133" lon="03.766809"><ele>19.5</ele><time>2022-11-15T10:27:56Z</time><name>PT573</name></trkpt>
<trkpt lat="51.560120" lon="03.766805"><ele>19.7</ele><time>2022-11-15T10:27:57Z</time><name>PT574</name></trkpt>
<trkpt lat="51.560107" lon="03.766800"><ele>19.8</ele><time>2022-11-15T10:27:58Z</time><name>PT575</name></trkpt>
<trkpt lat="51.560096" lon="03.766796"><ele>19.7</ele><time>2022-11-15T10:27:59Z</time><name>PT576</name></trkpt>
<trkpt lat="51.560084" lon="03.766793"><ele>19.7</ele><time>2022-11-15T10:28:00Z</time><name>PT577</name></trkpt>
<trkpt lat="51.560072" lon="03.766789"><ele>19.6</ele><time>2022-11-15T10:28:01Z</time><name>PT578</name></trkpt>
<trkpt lat="51.560059" lon="03.766787"><ele>19.2</ele><time>2022-11-15T10:28:02Z</time><name>PT579</name></trkpt>
<trkpt lat="51.560045" lon="03.766782"><ele>19</ele><time>2022-11-15T10:28:03Z</time><name>PT580</name></trkpt>
<trkpt lat="51.560027" lon="03.766783"><ele>18.7</ele><time>2022-11-15T10:28:04Z</time><name>PT581</name></trkpt>
<trkpt lat="51.560018" lon="03.766779"><ele>18.6</ele><time>2022-11-15T10:28:05Z</time><name>PT582</name></trkpt>
<trkpt lat="51.560005" lon="03.766773"><ele>18.4</ele><time>2022-11-15T10:28:06Z</time><name>PT583</name></trkpt>
<trkpt lat="51.559995" lon="03.766769"><ele>18.5</ele><time>2022-11-15T10:28:07Z</time><name>PT584</name></trkpt>
<trkpt lat="51.559981" lon="03.766773"><ele>18.4</ele><time>2022-11-15T10:28:08Z</time><name>PT585</name></trkpt>
<trkpt lat="51.559967" lon="03.766774"><ele>18.7</ele><time>2022-11-15T10:28:09Z</time><name>PT586</name></trkpt>
<trkpt lat="51.559955" lon="03.766772"><ele>19.1</ele><time>2022-11-15T10:28:10Z</time><name>PT587</name></trkpt>
<trkpt lat="51.559942" lon="03.766771"><ele>19.3</ele><time>2022-11-15T10:28:11Z</time><name>PT588</name></trkpt>
<trkpt lat="51.559930" lon="03.766767"><ele>19.4</ele><time>2022-11-15T10:28:12Z</time><name>PT589</name></trkpt>
<trkpt lat="51.559918" lon="03.766760"><ele>19.7</ele><time>2022-11-15T10:28:13Z</time><name>PT590</name></trkpt>
<trkpt lat="51.559905" lon="03.766756"><ele>19.5</ele><time>2022-11-15T10:28:14Z</time><name>PT591</name></trkpt>
<trkpt lat="51.559892" lon="03.766752"><ele>19.3</ele><time>2022-11-15T10:28:15Z</time><name>PT592</name></trkpt>
<trkpt lat="51.559879" lon="03.766749"><ele>19.2</ele><time>2022-11-15T10:28:16Z</time><name>PT593</name></trkpt>
<trkpt lat="51.559865" lon="03.766747"><ele>19.3</ele><time>2022-11-15T10:28:17Z</time><name>PT594</name></trkpt>
<trkpt lat="51.559852" lon="03.766744"><ele>19.2</ele><time>2022-11-15T10:28:18Z</time><name>PT595</name></trkpt>
<trkpt lat="51.559838" lon="03.766737"><ele>19.4</ele><time>2022-11-15T10:28:19Z</time><name>PT596</name></trkpt>
<trkpt lat="51.559825" lon="03.766733"><ele>19.6</ele><time>2022-11-15T10:28:20Z</time><name>PT597</name></trkpt>
<trkpt lat="51.559814" lon="03.766728"><ele>19.7</ele><time>2022-11-15T10:28:21Z</time><name>PT598</name></trkpt>
<trkpt lat="51.559804" lon="03.766724"><ele>19.6</ele><time>2022-11-15T10:28:22Z</time><name>PT599</name></trkpt>
<trkpt lat="51.559793" lon="03.766720"><ele>19.7</ele><time>2022-11-15T10:28:23Z</time><name>PT600</name></trkpt>
<trkpt lat="51.559781" lon="03.766712"><ele>19.7</ele><time>2022-11-15T10:28:24Z</time><name>PT601</name></trkpt>
<trkpt lat="51.559769" lon="03.766708"><ele>19.5</ele><time>2022-11-15T10:28:25Z</time><name>PT602</name></trkpt>
<trkpt lat="51.559757" lon="03.766705"><ele>19.6</ele><time>2022-11-15T10:28:26Z</time><name>PT603</name></trkpt>
<trkpt lat="51.559744" lon="03.766704"><ele>19.6</ele><time>2022-11-15T10:28:27Z</time><name>PT604</name></trkpt>
<trkpt lat="51.559731" lon="03.766701"><ele>19.6</ele><time>2022-11-15T10:28:28Z</time><name>PT605</name></trkpt>
<trkpt lat="51.559718" lon="03.766699"><ele>19.3</ele><time>2022-11-15T10:28:29Z</time><name>PT606</name></trkpt>
<trkpt lat="51.559709" lon="03.766698"><ele>19.4</ele><time>2022-11-15T10:28:30Z</time><name>PT607</name></trkpt>
<trkpt lat="51.559699" lon="03.766696"><ele>18.9</ele><time>2022-11-15T10:28:31Z</time><name>PT608</name></trkpt>
<trkpt lat="51.559687" lon="03.766694"><ele>18.5</ele><time>2022-11-15T10:28:32Z</time><name>PT609</name></trkpt>
<trkpt lat="51.559675" lon="03.766691"><ele>18</ele><time>2022-11-15T10:28:33Z</time><name>PT610</name></trkpt>
<trkpt lat="51.559663" lon="03.766688"><ele>17.8</ele><time>2022-11-15T10:28:34Z</time><name>PT611</name></trkpt>
<trkpt lat="51.559654" lon="03.766683"><ele>17.7</ele><time>2022-11-15T10:28:35Z</time><name>PT612</name></trkpt>
<trkpt lat="51.559641" lon="03.766677"><ele>17.7</ele><time>2022-11-15T10:28:36Z</time><name>PT613</name></trkpt>
<trkpt lat="51.559630" lon="03.766671"><ele>17.8</ele><time>2022-11-15T10:28:37Z</time><name>PT614</name></trkpt>
<trkpt lat="51.559618" lon="03.766667"><ele>18</ele><time>2022-11-15T10:28:38Z</time><name>PT615</name></trkpt>
<trkpt lat="51.559606" lon="03.766661"><ele>18.5</ele><time>2022-11-15T10:28:39Z</time><name>PT616</name></trkpt>
<trkpt lat="51.559594" lon="03.766657"><ele>18.8</ele><time>2022-11-15T10:28:40Z</time><name>PT617</name></trkpt>
<trkpt lat="51.559581" lon="03.766652"><ele>19.2</ele><time>2022-11-15T10:28:41Z</time><name>PT618</name></trkpt>
<trkpt lat="51.559569" lon="03.766653"><ele>19.4</ele><time>2022-11-15T10:28:42Z</time><name>PT619</name></trkpt>
<trkpt lat="51.559557" lon="03.766649"><ele>19.3</ele><time>2022-11-15T10:28:43Z</time><name>PT620</name></trkpt>
<trkpt lat="51.559546" lon="03.766647"><ele>19.2</ele><time>2022-11-15T10:28:44Z</time><name>PT621</name></trkpt>
<trkpt lat="51.559534" lon="03.766645"><ele>19</ele><time>2022-11-15T10:28:45Z</time><name>PT622</name></trkpt>
<trkpt lat="51.559521" lon="03.766643"><ele>18.9</ele><time>2022-11-15T10:28:46Z</time><name>PT623</name></trkpt>
<trkpt lat="51.559508" lon="03.766639"><ele>18.9</ele><time>2022-11-15T10:28:47Z</time><name>PT624</name></trkpt>
<trkpt lat="51.559496" lon="03.766634"><ele>18.9</ele><time>2022-11-15T10:28:48Z</time><name>PT625</name></trkpt>
<trkpt lat="51.559483" lon="03.766631"><ele>19.1</ele><time>2022-11-15T10:28:49Z</time><name>PT626</name></trkpt>
<trkpt lat="51.559472" lon="03.766628"><ele>19.2</ele><time>2022-11-15T10:28:50Z</time><name>PT627</name></trkpt>
<trkpt lat="51.559460" lon="03.766626"><ele>19.1</ele><time>2022-11-15T10:28:51Z</time><name>PT628</name></trkpt>
<trkpt lat="51.559450" lon="03.766624"><ele>19</ele><time>2022-11-15T10:28:52Z</time><name>PT629</name></trkpt>
<trkpt lat="51.559440" lon="03.766620"><ele>19</ele><time>2022-11-15T10:28:53Z</time><name>PT630</name></trkpt>
<trkpt lat="51.559430" lon="03.766615"><ele>18.9</ele><time>2022-11-15T10:28:54Z</time><name>PT631</name></trkpt>
<trkpt lat="51.559419" lon="03.766614"><ele>19.2</ele><time>2022-11-15T10:28:55Z</time><name>PT632</name></trkpt>
<trkpt lat="51.559406" lon="03.766612"><ele>19.2</ele><time>2022-11-15T10:28:56Z</time><name>PT633</name></trkpt>
<trkpt lat="51.559395" lon="03.766607"><ele>19.2</ele><time>2022-11-15T10:28:57Z</time><name>PT634</name></trkpt>
<trkpt lat="51.559385" lon="03.766601"><ele>19.2</ele><time>2022-11-15T10:28:58Z</time><name>PT635</name></trkpt>
<trkpt lat="51.559374" lon="03.766597"><ele>18.9</ele><time>2022-11-15T10:28:59Z</time><name>PT636</name></trkpt>
<trkpt lat="51.559363" lon="03.766592"><ele>18.6</ele><time>2022-11-15T10:29:00Z</time><name>PT637</name></trkpt>
<trkpt lat="51.559352" lon="03.766588"><ele>18.7</ele><time>2022-11-15T10:29:01Z</time><name>PT638</name></trkpt>
<trkpt lat="51.559341" lon="03.766583"><ele>18.7</ele><time>2022-11-15T10:29:02Z</time><name>PT639</name></trkpt>
<trkpt lat="51.559328" lon="03.766578"><ele>18.5</ele><time>2022-11-15T10:29:03Z</time><name>PT640</name></trkpt>
<trkpt lat="51.559315" lon="03.766573"><ele>18.4</ele><time>2022-11-15T10:29:04Z</time><name>PT641</name></trkpt>
<trkpt lat="51.559304" lon="03.766568"><ele>18.5</ele><time>2022-11-15T10:29:05Z</time><name>PT642</name></trkpt>
<trkpt lat="51.559292" lon="03.766563"><ele>18.5</ele><time>2022-11-15T10:29:06Z</time><name>PT643</name></trkpt>
<trkpt lat="51.559281" lon="03.766558"><ele>18.2</ele><time>2022-11-15T10:29:07Z</time><name>PT644</name></trkpt>
<trkpt lat="51.559270" lon="03.766559"><ele>18.2</ele><time>2022-11-15T10:29:08Z</time><name>PT645</name></trkpt>
<trkpt lat="51.559259" lon="03.766558"><ele>18.4</ele><time>2022-11-15T10:29:09Z</time><name>PT646</name></trkpt>
<trkpt lat="51.559247" lon="03.766555"><ele>18.3</ele><time>2022-11-15T10:29:10Z</time><name>PT647</name></trkpt>
<trkpt lat="51.559235" lon="03.766554"><ele>18.5</ele><time>2022-11-15T10:29:11Z</time><name>PT648</name></trkpt>
<trkpt lat="51.559223" lon="03.766553"><ele>18.7</ele><time>2022-11-15T10:29:12Z</time><name>PT649</name></trkpt>
<trkpt lat="51.559209" lon="03.766555"><ele>19</ele><time>2022-11-15T10:29:13Z</time><name>PT650</name></trkpt>
<trkpt lat="51.559198" lon="03.766554"><ele>19.1</ele><time>2022-11-15T10:29:14Z</time><name>PT651</name></trkpt>
<trkpt lat="51.559187" lon="03.766552"><ele>19.2</ele><time>2022-11-15T10:29:15Z</time><name>PT652</name></trkpt>
<trkpt lat="51.559176" lon="03.766551"><ele>18.8</ele><time>2022-11-15T10:29:16Z</time><name>PT653</name></trkpt>
<trkpt lat="51.559164" lon="03.766548"><ele>18.7</ele><time>2022-11-15T10:29:17Z</time><name>PT654</name></trkpt>
<trkpt lat="51.559152" lon="03.766545"><ele>18.3</ele><time>2022-11-15T10:29:18Z</time><name>PT655</name></trkpt>
<trkpt lat="51.559142" lon="03.766542"><ele>18.2</ele><time>2022-11-15T10:29:19Z</time><name>PT656</name></trkpt>
<trkpt lat="51.559131" lon="03.766536"><ele>17.9</ele><time>2022-11-15T10:29:20Z</time><name>PT657</name></trkpt>
<trkpt lat="51.559118" lon="03.766532"><ele>17.7</ele><time>2022-11-15T10:29:21Z</time><name>PT658</name></trkpt>
<trkpt lat="51.559106" lon="03.766527"><ele>17.6</ele><time>2022-11-15T10:29:22Z</time><name>PT659</name></trkpt>
<trkpt lat="51.559094" lon="03.766524"><ele>17.9</ele><time>2022-11-15T10:29:23Z</time><name>PT660</name></trkpt>
<trkpt lat="51.559083" lon="03.766520"><ele>18</ele><time>2022-11-15T10:29:24Z</time><name>PT661</name></trkpt>
<trkpt lat="51.559072" lon="03.766517"><ele>17.7</ele><time>2022-11-15T10:29:25Z</time><name>PT662</name></trkpt>
<trkpt lat="51.559059" lon="03.766514"><ele>17.7</ele><time>2022-11-15T10:29:26Z</time><name>PT663</name></trkpt>
<trkpt lat="51.559047" lon="03.766512"><ele>17.7</ele><time>2022-11-15T10:29:27Z</time><name>PT664</name></trkpt>
<trkpt lat="51.559036" lon="03.766512"><ele>17.3</ele><time>2022-11-15T10:29:28Z</time><name>PT665</name></trkpt>
<trkpt lat="51.559026" lon="03.766511"><ele>17.1</ele><time>2022-11-15T10:29:29Z</time><name>PT666</name></trkpt>
<trkpt lat="51.559015" lon="03.766509"><ele>17.1</ele><time>2022-11-15T10:29:30Z</time><name>PT667</name></trkpt>
<trkpt lat="51.559003" lon="03.766506"><ele>17.3</ele><time>2022-11-15T10:29:31Z</time><name>PT668</name></trkpt>
<trkpt lat="51.558991" lon="03.766504"><ele>17.4</ele><time>2022-11-15T10:29:32Z</time><name>PT669</name></trkpt>
<trkpt lat="51.558980" lon="03.766498"><ele>17.7</ele><time>2022-11-15T10:29:33Z</time><name>PT670</name></trkpt>
<trkpt lat="51.558968" lon="03.766494"><ele>17.9</ele><time>2022-11-15T10:29:34Z</time><name>PT671</name></trkpt>
<trkpt lat="51.558956" lon="03.766489"><ele>18</ele><time>2022-11-15T10:29:35Z</time><name>PT672</name></trkpt>
<trkpt lat="51.558945" lon="03.766483"><ele>18</ele><time>2022-11-15T10:29:36Z</time><name>PT673</name></trkpt>
<trkpt lat="51.558934" lon="03.766478"><ele>17.9</ele><time>2022-11-15T10:29:37Z</time><name>PT674</name></trkpt>
<trkpt lat="51.558923" lon="03.766475"><ele>18.1</ele><time>2022-11-15T10:29:38Z</time><name>PT675</name></trkpt>
<trkpt lat="51.558912" lon="03.766470"><ele>18.3</ele><time>2022-11-15T10:29:39Z</time><name>PT676</name></trkpt>
<trkpt lat="51.558902" lon="03.766468"><ele>18.1</ele><time>2022-11-15T10:29:40Z</time><name>PT677</name></trkpt>
<trkpt lat="51.558892" lon="03.766468"><ele>17.6</ele><time>2022-11-15T10:29:41Z</time><name>PT678</name></trkpt>
<trkpt lat="51.558881" lon="03.766468"><ele>17.3</ele><time>2022-11-15T10:29:42Z</time><name>PT679</name></trkpt>
<trkpt lat="51.558869" lon="03.766469"><ele>17.2</ele><time>2022-11-15T10:29:43Z</time><name>PT680</name></trkpt>
<trkpt lat="51.558857" lon="03.766467"><ele>17.3</ele><time>2022-11-15T10:29:44Z</time><name>PT681</name></trkpt>
<trkpt lat="51.558845" lon="03.766465"><ele>17.7</ele><time>2022-11-15T10:29:45Z</time><name>PT682</name></trkpt>
<trkpt lat="51.558832" lon="03.766464"><ele>18</ele><time>2022-11-15T10:29:46Z</time><name>PT683</name></trkpt>
<trkpt lat="51.558820" lon="03.766464"><ele>17.9</ele><time>2022-11-15T10:29:47Z</time><name>PT684</name></trkpt>
<trkpt lat="51.558809" lon="03.766462"><ele>18</ele><time>2022-11-15T10:29:48Z</time><name>PT685</name></trkpt>
<trkpt lat="51.558796" lon="03.766461"><ele>18.3</ele><time>2022-11-15T10:29:49Z</time><name>PT686</name></trkpt>
<trkpt lat="51.558784" lon="03.766460"><ele>18.1</ele><time>2022-11-15T10:29:50Z</time><name>PT687</name></trkpt>
<trkpt lat="51.558773" lon="03.766457"><ele>17.7</ele><time>2022-11-15T10:29:51Z</time><name>PT688</name></trkpt>
<trkpt lat="51.558762" lon="03.766452"><ele>17.7</ele><time>2022-11-15T10:29:52Z</time><name>PT689</name></trkpt>
<trkpt lat="51.558751" lon="03.766446"><ele>17.2</ele><time>2022-11-15T10:29:53Z</time><name>PT690</name></trkpt>
<trkpt lat="51.558740" lon="03.766440"><ele>17</ele><time>2022-11-15T10:29:54Z</time><name>PT691</name></trkpt>
<trkpt lat="51.558728" lon="03.766437"><ele>17.1</ele><time>2022-11-15T10:29:55Z</time><name>PT692</name></trkpt>
<trkpt lat="51.558718" lon="03.766436"><ele>17.3</ele><time>2022-11-15T10:29:56Z</time><name>PT693</name></trkpt>
<trkpt lat="51.558706" lon="03.766437"><ele>17.3</ele><time>2022-11-15T10:29:57Z</time><name>PT694</name></trkpt>
<trkpt lat="51.558695" lon="03.766433"><ele>17.6</ele><time>2022-11-15T10:29:58Z</time><name>PT695</name></trkpt>
<trkpt lat="51.558683" lon="03.766431"><ele>17.8</ele><time>2022-11-15T10:29:59Z</time><name>PT696</name></trkpt>
<trkpt lat="51.558673" lon="03.766429"><ele>17.7</ele><time>2022-11-15T10:30:00Z</time><name>PT697</name></trkpt>
<trkpt lat="51.558660" lon="03.766427"><ele>18.1</ele><time>2022-11-15T10:30:01Z</time><name>PT698</name></trkpt>
<trkpt lat="51.558650" lon="03.766425"><ele>18.2</ele><time>2022-11-15T10:30:02Z</time><name>PT699</name></trkpt>
<trkpt lat="51.558639" lon="03.766425"><ele>18</ele><time>2022-11-15T10:30:03Z</time><name>PT700</name></trkpt>
<trkpt lat="51.558627" lon="03.766423"><ele>18</ele><time>2022-11-15T10:30:04Z</time><name>PT701</name></trkpt>
<trkpt lat="51.558616" lon="03.766417"><ele>18</ele><time>2022-11-15T10:30:05Z</time><name>PT702</name></trkpt>
<trkpt lat="51.558606" lon="03.766411"><ele>18.2</ele><time>2022-11-15T10:30:06Z</time><name>PT703</name></trkpt>
<trkpt lat="51.558596" lon="03.766405"><ele>18.3</ele><time>2022-11-15T10:30:07Z</time><name>PT704</name></trkpt>
<trkpt lat="51.558585" lon="03.766400"><ele>18.6</ele><time>2022-11-15T10:30:08Z</time><name>PT705</name></trkpt>
<trkpt lat="51.558574" lon="03.766394"><ele>18.4</ele><time>2022-11-15T10:30:09Z</time><name>PT706</name></trkpt>
<trkpt lat="51.558563" lon="03.766390"><ele>18.6</ele><time>2022-11-15T10:30:10Z</time><name>PT707</name></trkpt>
<trkpt lat="51.558552" lon="03.766387"><ele>18.7</ele><time>2022-11-15T10:30:11Z</time><name>PT708</name></trkpt>
<trkpt lat="51.558540" lon="03.766383"><ele>18.9</ele><time>2022-11-15T10:30:12Z</time><name>PT709</name></trkpt>
<trkpt lat="51.558527" lon="03.766378"><ele>19</ele><time>2022-11-15T10:30:13Z</time><name>PT710</name></trkpt>
<trkpt lat="51.558514" lon="03.766375"><ele>19</ele><time>2022-11-15T10:30:14Z</time><name>PT711</name></trkpt>
<trkpt lat="51.558501" lon="03.766374"><ele>18.9</ele><time>2022-11-15T10:30:15Z</time><name>PT712</name></trkpt>
<trkpt lat="51.558487" lon="03.766372"><ele>18.3</ele><time>2022-11-15T10:30:16Z</time><name>PT713</name></trkpt>
<trkpt lat="51.558476" lon="03.766367"><ele>18</ele><time>2022-11-15T10:30:17Z</time><name>PT714</name></trkpt>
<trkpt lat="51.558464" lon="03.766363"><ele>17.7</ele><time>2022-11-15T10:30:18Z</time><name>PT715</name></trkpt>
<trkpt lat="51.558453" lon="03.766358"><ele>17.7</ele><time>2022-11-15T10:30:19Z</time><name>PT716</name></trkpt>
<trkpt lat="51.558443" lon="03.766357"><ele>17.6</ele><time>2022-11-15T10:30:20Z</time><name>PT717</name></trkpt>
<trkpt lat="51.558431" lon="03.766355"><ele>17.4</ele><time>2022-11-15T10:30:21Z</time><name>PT718</name></trkpt>
<trkpt lat="51.558421" lon="03.766351"><ele>17.4</ele><time>2022-11-15T10:30:22Z</time><name>PT719</name></trkpt>
<trkpt lat="51.558410" lon="03.766346"><ele>17.5</ele><time>2022-11-15T10:30:23Z</time><name>PT720</name></trkpt>
<trkpt lat="51.558400" lon="03.766342"><ele>17.8</ele><time>2022-11-15T10:30:24Z</time><name>PT721</name></trkpt>
<trkpt lat="51.558389" lon="03.766335"><ele>18</ele><time>2022-11-15T10:30:25Z</time><name>PT722</name></trkpt>
<trkpt lat="51.558379" lon="03.766328"><ele>17.7</ele><time>2022-11-15T10:30:26Z</time><name>PT723</name></trkpt>
<trkpt lat="51.558370" lon="03.766323"><ele>17.3</ele><time>2022-11-15T10:30:27Z</time><name>PT724</name></trkpt>
<trkpt lat="51.558359" lon="03.766319"><ele>17.1</ele><time>2022-11-15T10:30:28Z</time><name>PT725</name></trkpt>
<trkpt lat="51.558347" lon="03.766315"><ele>17</ele><time>2022-11-15T10:30:29Z</time><name>PT726</name></trkpt>
<trkpt lat="51.558336" lon="03.766313"><ele>16.9</ele><time>2022-11-15T10:30:30Z</time><name>PT727</name></trkpt>
<trkpt lat="51.558323" lon="03.766311"><ele>17.3</ele><time>2022-11-15T10:30:31Z</time><name>PT728</name></trkpt>
<trkpt lat="51.558311" lon="03.766309"><ele>17.7</ele><time>2022-11-15T10:30:32Z</time><name>PT729</name></trkpt>
<trkpt lat="51.558299" lon="03.766307"><ele>17.7</ele><time>2022-11-15T10:30:33Z</time><name>PT730</name></trkpt>
<trkpt lat="51.558288" lon="03.766305"><ele>17.8</ele><time>2022-11-15T10:30:34Z</time><name>PT731</name></trkpt>
<trkpt lat="51.558279" lon="03.766302"><ele>17.9</ele><time>2022-11-15T10:30:35Z</time><name>PT732</name></trkpt>
<trkpt lat="51.558268" lon="03.766298"><ele>17.7</ele><time>2022-11-15T10:30:36Z</time><name>PT733</name></trkpt>
<trkpt lat="51.558258" lon="03.766297"><ele>17.7</ele><time>2022-11-15T10:30:37Z</time><name>PT734</name></trkpt>
<trkpt lat="51.558246" lon="03.766294"><ele>18</ele><time>2022-11-15T10:30:38Z</time><name>PT735</name></trkpt>
<trkpt lat="51.558235" lon="03.766291"><ele>17.8</ele><time>2022-11-15T10:30:39Z</time><name>PT736</name></trkpt>
<trkpt lat="51.558223" lon="03.766288"><ele>17.8</ele><time>2022-11-15T10:30:40Z</time><name>PT737</name></trkpt>
<trkpt lat="51.558211" lon="03.766282"><ele>17.8</ele><time>2022-11-15T10:30:41Z</time><name>PT738</name></trkpt>
<trkpt lat="51.558200" lon="03.766279"><ele>17.5</ele><time>2022-11-15T10:30:42Z</time><name>PT739</name></trkpt>
<trkpt lat="51.558188" lon="03.766276"><ele>17.7</ele><time>2022-11-15T10:30:43Z</time><name>PT740</name></trkpt>
<trkpt lat="51.558178" lon="03.766274"><ele>17.8</ele><time>2022-11-15T10:30:44Z</time><name>PT741</name></trkpt>
<trkpt lat="51.558166" lon="03.766271"><ele>18.1</ele><time>2022-11-15T10:30:45Z</time><name>PT742</name></trkpt>
<trkpt lat="51.558155" lon="03.766268"><ele>18.2</ele><time>2022-11-15T10:30:46Z</time><name>PT743</name></trkpt>
<trkpt lat="51.558143" lon="03.766265"><ele>18.3</ele><time>2022-11-15T10:30:47Z</time><name>PT744</name></trkpt>
<trkpt lat="51.558130" lon="03.766264"><ele>18.6</ele><time>2022-11-15T10:30:48Z</time><name>PT745</name></trkpt>
<trkpt lat="51.558120" lon="03.766262"><ele>18.5</ele><time>2022-11-15T10:30:49Z</time><name>PT746</name></trkpt>
<trkpt lat="51.558109" lon="03.766260"><ele>18.6</ele><time>2022-11-15T10:30:50Z</time><name>PT747</name></trkpt>
<trkpt lat="51.558099" lon="03.766257"><ele>18.3</ele><time>2022-11-15T10:30:51Z</time><name>PT748</name></trkpt>
<trkpt lat="51.558086" lon="03.766253"><ele>18.1</ele><time>2022-11-15T10:30:52Z</time><name>PT749</name></trkpt>
<trkpt lat="51.558076" lon="03.766248"><ele>17.9</ele><time>2022-11-15T10:30:53Z</time><name>PT750</name></trkpt>
<trkpt lat="51.558065" lon="03.766243"><ele>17.9</ele><time>2022-11-15T10:30:54Z</time><name>PT751</name></trkpt>
<trkpt lat="51.558054" lon="03.766237"><ele>17.9</ele><time>2022-11-15T10:30:55Z</time><name>PT752</name></trkpt>
<trkpt lat="51.558044" lon="03.766230"><ele>18.1</ele><time>2022-11-15T10:30:56Z</time><name>PT753</name></trkpt>
<trkpt lat="51.558034" lon="03.766228"><ele>18.3</ele><time>2022-11-15T10:30:57Z</time><name>PT754</name></trkpt>
<trkpt lat="51.558022" lon="03.766223"><ele>18.4</ele><time>2022-11-15T10:30:58Z</time><name>PT755</name></trkpt>
<trkpt lat="51.558013" lon="03.766223"><ele>18</ele><time>2022-11-15T10:30:59Z</time><name>PT756</name></trkpt>
<trkpt lat="51.558002" lon="03.766222"><ele>18.1</ele><time>2022-11-15T10:31:00Z</time><name>PT757</name></trkpt>
<trkpt lat="51.557991" lon="03.766220"><ele>18.1</ele><time>2022-11-15T10:31:01Z</time><name>PT758</name></trkpt>
<trkpt lat="51.557982" lon="03.766219"><ele>17.9</ele><time>2022-11-15T10:31:02Z</time><name>PT759</name></trkpt>
<trkpt lat="51.557972" lon="03.766214"><ele>18.2</ele><time>2022-11-15T10:31:03Z</time><name>PT760</name></trkpt>
<trkpt lat="51.557963" lon="03.766211"><ele>18.2</ele><time>2022-11-15T10:31:04Z</time><name>PT761</name></trkpt>
<trkpt lat="51.557953" lon="03.766207"><ele>18.2</ele><time>2022-11-15T10:31:05Z</time><name>PT762</name></trkpt>
<trkpt lat="51.557942" lon="03.766202"><ele>18.1</ele><time>2022-11-15T10:31:06Z</time><name>PT763</name></trkpt>
<trkpt lat="51.557932" lon="03.766197"><ele>18.3</ele><time>2022-11-15T10:31:07Z</time><name>PT764</name></trkpt>
<trkpt lat="51.557922" lon="03.766193"><ele>18.3</ele><time>2022-11-15T10:31:08Z</time><name>PT765</name></trkpt>
<trkpt lat="51.557912" lon="03.766192"><ele>18.2</ele><time>2022-11-15T10:31:09Z</time><name>PT766</name></trkpt>
<trkpt lat="51.557900" lon="03.766190"><ele>18.6</ele><time>2022-11-15T10:31:10Z</time><name>PT767</name></trkpt>
<trkpt lat="51.557887" lon="03.766189"><ele>18.7</ele><time>2022-11-15T10:31:11Z</time><name>PT768</name></trkpt>
<trkpt lat="51.557875" lon="03.766188"><ele>18.9</ele><time>2022-11-15T10:31:12Z</time><name>PT769</name></trkpt>
<trkpt lat="51.557865" lon="03.766187"><ele>19.2</ele><time>2022-11-15T10:31:13Z</time><name>PT770</name></trkpt>
<trkpt lat="51.557854" lon="03.766183"><ele>19.3</ele><time>2022-11-15T10:31:14Z</time><name>PT771</name></trkpt>
<trkpt lat="51.557843" lon="03.766179"><ele>19.4</ele><time>2022-11-15T10:31:15Z</time><name>PT772</name></trkpt>
<trkpt lat="51.557834" lon="03.766175"><ele>19.2</ele><time>2022-11-15T10:31:16Z</time><name>PT773</name></trkpt>
<trkpt lat="51.557823" lon="03.766173"><ele>19.4</ele><time>2022-11-15T10:31:17Z</time><name>PT774</name></trkpt>
<trkpt lat="51.557812" lon="03.766169"><ele>19.3</ele><time>2022-11-15T10:31:18Z</time><name>PT775</name></trkpt>
<trkpt lat="51.557801" lon="03.766164"><ele>19.2</ele><time>2022-11-15T10:31:19Z</time><name>PT776</name></trkpt>
<trkpt lat="51.557790" lon="03.766159"><ele>19.4</ele><time>2022-11-15T10:31:20Z</time><name>PT777</name></trkpt>
<trkpt lat="51.557780" lon="03.766154"><ele>19.2</ele><time>2022-11-15T10:31:21Z</time><name>PT778</name></trkpt>
<trkpt lat="51.557769" lon="03.766150"><ele>19.2</ele><time>2022-11-15T10:31:22Z</time><name>PT779</name></trkpt>
<trkpt lat="51.557757" lon="03.766147"><ele>19.2</ele><time>2022-11-15T10:31:23Z</time><name>PT780</name></trkpt>
<trkpt lat="51.557746" lon="03.766142"><ele>19.3</ele><time>2022-11-15T10:31:24Z</time><name>PT781</name></trkpt>
<trkpt lat="51.557735" lon="03.766140"><ele>19.3</ele><time>2022-11-15T10:31:25Z</time><name>PT782</name></trkpt>
<trkpt lat="51.557723" lon="03.766135"><ele>19.3</ele><time>2022-11-15T10:31:26Z</time><name>PT783</name></trkpt>
<trkpt lat="51.557712" lon="03.766133"><ele>19</ele><time>2022-11-15T10:31:27Z</time><name>PT784</name></trkpt>
<trkpt lat="51.557702" lon="03.766130"><ele>19.1</ele><time>2022-11-15T10:31:28Z</time><name>PT785</name></trkpt>
<trkpt lat="51.557691" lon="03.766126"><ele>19.1</ele><time>2022-11-15T10:31:29Z</time><name>PT786</name></trkpt>
<trkpt lat="51.557680" lon="03.766118"><ele>19</ele><time>2022-11-15T10:31:30Z</time><name>PT787</name></trkpt>
<trkpt lat="51.557669" lon="03.766113"><ele>19</ele><time>2022-11-15T10:31:31Z</time><name>PT788</name></trkpt>
<trkpt lat="51.557658" lon="03.766109"><ele>19.4</ele><time>2022-11-15T10:31:32Z</time><name>PT789</name></trkpt>
<trkpt lat="51.557646" lon="03.766106"><ele>19.5</ele><time>2022-11-15T10:31:33Z</time><name>PT790</name></trkpt>
<trkpt lat="51.557634" lon="03.766104"><ele>19.3</ele><time>2022-11-15T10:31:34Z</time><name>PT791</name></trkpt>
<trkpt lat="51.557621" lon="03.766100"><ele>19.1</ele><time>2022-11-15T10:31:35Z</time><name>PT792</name></trkpt>
<trkpt lat="51.557610" lon="03.766097"><ele>18.7</ele><time>2022-11-15T10:31:36Z</time><name>PT793</name></trkpt>
<trkpt lat="51.557597" lon="03.766095"><ele>18.3</ele><time>2022-11-15T10:31:37Z</time><name>PT794</name></trkpt>
<trkpt lat="51.557584" lon="03.766094"><ele>18.2</ele><time>2022-11-15T10:31:38Z</time><name>PT795</name></trkpt>
<trkpt lat="51.557573" lon="03.766093"><ele>18.4</ele><time>2022-11-15T10:31:39Z</time><name>PT796</name></trkpt>
<trkpt lat="51.557561" lon="03.766091"><ele>18.6</ele><time>2022-11-15T10:31:40Z</time><name>PT797</name></trkpt>
<trkpt lat="51.557550" lon="03.766089"><ele>18.5</ele><time>2022-11-15T10:31:41Z</time><name>PT798</name></trkpt>
<trkpt lat="51.557539" lon="03.766086"><ele>18.4</ele><time>2022-11-15T10:31:42Z</time><name>PT799</name></trkpt>
<trkpt lat="51.557529" lon="03.766082"><ele>18.3</ele><time>2022-11-15T10:31:43Z</time><name>PT800</name></trkpt>
<trkpt lat="51.557519" lon="03.766078"><ele>18.2</ele><time>2022-11-15T10:31:44Z</time><name>PT801</name></trkpt>
<trkpt lat="51.557507" lon="03.766075"><ele>18.2</ele><time>2022-11-15T10:31:45Z</time><name>PT802</name></trkpt>
<trkpt lat="51.557495" lon="03.766069"><ele>18.7</ele><time>2022-11-15T10:31:46Z</time><name>PT803</name></trkpt>
<trkpt lat="51.557483" lon="03.766065"><ele>18.7</ele><time>2022-11-15T10:31:47Z</time><name>PT804</name></trkpt>
<trkpt lat="51.557473" lon="03.766062"><ele>18.9</ele><time>2022-11-15T10:31:48Z</time><name>PT805</name></trkpt>
<trkpt lat="51.557462" lon="03.766060"><ele>19.1</ele><time>2022-11-15T10:31:49Z</time><name>PT806</name></trkpt>
<trkpt lat="51.557451" lon="03.766058"><ele>18.8</ele><time>2022-11-15T10:31:50Z</time><name>PT807</name></trkpt>
<trkpt lat="51.557438" lon="03.766055"><ele>18.8</ele><time>2022-11-15T10:31:51Z</time><name>PT808</name></trkpt>
<trkpt lat="51.557427" lon="03.766052"><ele>18.9</ele><time>2022-11-15T10:31:52Z</time><name>PT809</name></trkpt>
<trkpt lat="51.557416" lon="03.766050"><ele>18.7</ele><time>2022-11-15T10:31:53Z</time><name>PT810</name></trkpt>
<trkpt lat="51.557404" lon="03.766049"><ele>18.7</ele><time>2022-11-15T10:31:54Z</time><name>PT811</name></trkpt>
<trkpt lat="51.557392" lon="03.766047"><ele>18.3</ele><time>2022-11-15T10:31:55Z</time><name>PT812</name></trkpt>
<trkpt lat="51.557380" lon="03.766044"><ele>18.2</ele><time>2022-11-15T10:31:56Z</time><name>PT813</name></trkpt>
<trkpt lat="51.557370" lon="03.766040"><ele>17.9</ele><time>2022-11-15T10:31:57Z</time><name>PT814</name></trkpt>
<trkpt lat="51.557357" lon="03.766036"><ele>18.2</ele><time>2022-11-15T10:31:58Z</time><name>PT815</name></trkpt>
<trkpt lat="51.557345" lon="03.766034"><ele>18.6</ele><time>2022-11-15T10:31:59Z</time><name>PT816</name></trkpt>
<trkpt lat="51.557333" lon="03.766031"><ele>18.7</ele><time>2022-11-15T10:32:00Z</time><name>PT817</name></trkpt>
<trkpt lat="51.557319" lon="03.766032"><ele>18.8</ele><time>2022-11-15T10:32:01Z</time><name>PT818</name></trkpt>
<trkpt lat="51.557307" lon="03.766031"><ele>18.8</ele><time>2022-11-15T10:32:02Z</time><name>PT819</name></trkpt>
<trkpt lat="51.557292" lon="03.766029"><ele>18.6</ele><time>2022-11-15T10:32:03Z</time><name>PT820</name></trkpt>
<trkpt lat="51.557278" lon="03.766029"><ele>18.2</ele><time>2022-11-15T10:32:04Z</time><name>PT821</name></trkpt>
<trkpt lat="51.557266" lon="03.766028"><ele>18.1</ele><time>2022-11-15T10:32:05Z</time><name>PT822</name></trkpt>
<trkpt lat="51.557254" lon="03.766027"><ele>18</ele><time>2022-11-15T10:32:06Z</time><name>PT823</name></trkpt>
<trkpt lat="51.557244" lon="03.766026"><ele>17.9</ele><time>2022-11-15T10:32:07Z</time><name>PT824</name></trkpt>
<trkpt lat="51.557233" lon="03.766023"><ele>18</ele><time>2022-11-15T10:32:08Z</time><name>PT825</name></trkpt>
<trkpt lat="51.557222" lon="03.766018"><ele>18.2</ele><time>2022-11-15T10:32:09Z</time><name>PT826</name></trkpt>
<trkpt lat="51.557210" lon="03.766012"><ele>18.2</ele><time>2022-11-15T10:32:10Z</time><name>PT827</name></trkpt>
<trkpt lat="51.557200" lon="03.766007"><ele>18.3</ele><time>2022-11-15T10:32:11Z</time><name>PT828</name></trkpt>
<trkpt lat="51.557190" lon="03.766004"><ele>18.4</ele><time>2022-11-15T10:32:12Z</time><name>PT829</name></trkpt>
<trkpt lat="51.557179" lon="03.765998"><ele>18.6</ele><time>2022-11-15T10:32:13Z</time><name>PT830</name></trkpt>
<trkpt lat="51.557168" lon="03.765993"><ele>18.7</ele><time>2022-11-15T10:32:14Z</time><name>PT831</name></trkpt>
<trkpt lat="51.557158" lon="03.765991"><ele>18.7</ele><time>2022-11-15T10:32:15Z</time><name>PT832</name></trkpt>
<trkpt lat="51.557148" lon="03.765987"><ele>18.7</ele><time>2022-11-15T10:32:16Z</time><name>PT833</name></trkpt>
<trkpt lat="51.557138" lon="03.765987"><ele>18.5</ele><time>2022-11-15T10:32:17Z</time><name>PT834</name></trkpt>
<trkpt lat="51.557127" lon="03.765984"><ele>18.2</ele><time>2022-11-15T10:32:18Z</time><name>PT835</name></trkpt>
<trkpt lat="51.557118" lon="03.765980"><ele>18</ele><time>2022-11-15T10:32:19Z</time><name>PT836</name></trkpt>
<trkpt lat="51.557108" lon="03.765974"><ele>18.1</ele><time>2022-11-15T10:32:20Z</time><name>PT837</name></trkpt>
<trkpt lat="51.557098" lon="03.765969"><ele>18.1</ele><time>2022-11-15T10:32:21Z</time><name>PT838</name></trkpt>
<trkpt lat="51.557087" lon="03.765964"><ele>18.3</ele><time>2022-11-15T10:32:22Z</time><name>PT839</name></trkpt>
<trkpt lat="51.557077" lon="03.765961"><ele>18.4</ele><time>2022-11-15T10:32:23Z</time><name>PT840</name></trkpt>
<trkpt lat="51.557065" lon="03.765958"><ele>18.8</ele><time>2022-11-15T10:32:24Z</time><name>PT841</name></trkpt>
<trkpt lat="51.557054" lon="03.765957"><ele>19.1</ele><time>2022-11-15T10:32:25Z</time><name>PT842</name></trkpt>
<trkpt lat="51.557043" lon="03.765953"><ele>19.4</ele><time>2022-11-15T10:32:26Z</time><name>PT843</name></trkpt>
<trkpt lat="51.557033" lon="03.765949"><ele>19.5</ele><time>2022-11-15T10:32:27Z</time><name>PT844</name></trkpt>
<trkpt lat="51.557022" lon="03.765945"><ele>19.5</ele><time>2022-11-15T10:32:28Z</time><name>PT845</name></trkpt>
<trkpt lat="51.557012" lon="03.765941"><ele>19.5</ele><time>2022-11-15T10:32:29Z</time><name>PT846</name></trkpt>
<trkpt lat="51.557002" lon="03.765938"><ele>19.5</ele><time>2022-11-15T10:32:30Z</time><name>PT847</name></trkpt>
<trkpt lat="51.556990" lon="03.765935"><ele>19.4</ele><time>2022-11-15T10:32:31Z</time><name>PT848</name></trkpt>
<trkpt lat="51.556978" lon="03.765933"><ele>19.3</ele><time>2022-11-15T10:32:32Z</time><name>PT849</name></trkpt>
<trkpt lat="51.556968" lon="03.765927"><ele>18.9</ele><time>2022-11-15T10:32:33Z</time><name>PT850</name></trkpt>
<trkpt lat="51.556958" lon="03.765925"><ele>18.6</ele><time>2022-11-15T10:32:34Z</time><name>PT851</name></trkpt>
<trkpt lat="51.556948" lon="03.765921"><ele>18.2</ele><time>2022-11-15T10:32:35Z</time><name>PT852</name></trkpt>
<trkpt lat="51.556937" lon="03.765918"><ele>18.2</ele><time>2022-11-15T10:32:36Z</time><name>PT853</name></trkpt>
<trkpt lat="51.556925" lon="03.765918"><ele>18.2</ele><time>2022-11-15T10:32:37Z</time><name>PT854</name></trkpt>
<trkpt lat="51.556914" lon="03.765914"><ele>18.3</ele><time>2022-11-15T10:32:38Z</time><name>PT855</name></trkpt>
<trkpt lat="51.556904" lon="03.765911"><ele>18.3</ele><time>2022-11-15T10:32:39Z</time><name>PT856</name></trkpt>
<trkpt lat="51.556894" lon="03.765906"><ele>19</ele><time>2022-11-15T10:32:40Z</time><name>PT857</name></trkpt>
<trkpt lat="51.556882" lon="03.765900"><ele>19.2</ele><time>2022-11-15T10:32:41Z</time><name>PT858</name></trkpt>
<trkpt lat="51.556870" lon="03.765897"><ele>19.3</ele><time>2022-11-15T10:32:42Z</time><name>PT859</name></trkpt>
<trkpt lat="51.556859" lon="03.765896"><ele>19.4</ele><time>2022-11-15T10:32:43Z</time><name>PT860</name></trkpt>
<trkpt lat="51.556850" lon="03.765893"><ele>19.4</ele><time>2022-11-15T10:32:44Z</time><name>PT861</name></trkpt>
<trkpt lat="51.556839" lon="03.765890"><ele>19.1</ele><time>2022-11-15T10:32:45Z</time><name>PT862</name></trkpt>
<trkpt lat="51.556829" lon="03.765886"><ele>19.2</ele><time>2022-11-15T10:32:46Z</time><name>PT863</name></trkpt>
<trkpt lat="51.556819" lon="03.765883"><ele>19.3</ele><time>2022-11-15T10:32:47Z</time><name>PT864</name></trkpt>
<trkpt lat="51.556808" lon="03.765879"><ele>19.2</ele><time>2022-11-15T10:32:48Z</time><name>PT865</name></trkpt>
<trkpt lat="51.556798" lon="03.765876"><ele>19.5</ele><time>2022-11-15T10:32:49Z</time><name>PT866</name></trkpt>
<trkpt lat="51.556787" lon="03.765873"><ele>19.5</ele><time>2022-11-15T10:32:50Z</time><name>PT867</name></trkpt>
<trkpt lat="51.556777" lon="03.765870"><ele>19.4</ele><time>2022-11-15T10:32:51Z</time><name>PT868</name></trkpt>
<trkpt lat="51.556765" lon="03.765867"><ele>19.4</ele><time>2022-11-15T10:32:52Z</time><name>PT869</name></trkpt>
<trkpt lat="51.556754" lon="03.765864"><ele>19.3</ele><time>2022-11-15T10:32:53Z</time><name>PT870</name></trkpt>
<trkpt lat="51.556743" lon="03.765861"><ele>19</ele><time>2022-11-15T10:32:54Z</time><name>PT871</name></trkpt>
<trkpt lat="51.556732" lon="03.765858"><ele>19</ele><time>2022-11-15T10:32:55Z</time><name>PT872</name></trkpt>
<trkpt lat="51.556722" lon="03.765855"><ele>18.7</ele><time>2022-11-15T10:32:56Z</time><name>PT873</name></trkpt>
<trkpt lat="51.556711" lon="03.765852"><ele>18.6</ele><time>2022-11-15T10:32:57Z</time><name>PT874</name></trkpt>
<trkpt lat="51.556699" lon="03.765845"><ele>18.5</ele><time>2022-11-15T10:32:58Z</time><name>PT875</name></trkpt>
<trkpt lat="51.556688" lon="03.765840"><ele>18.3</ele><time>2022-11-15T10:32:59Z</time><name>PT876</name></trkpt>
<trkpt lat="51.556678" lon="03.765838"><ele>18</ele><time>2022-11-15T10:33:00Z</time><name>PT877</name></trkpt>
<trkpt lat="51.556666" lon="03.765838"><ele>18</ele><time>2022-11-15T10:33:01Z</time><name>PT878</name></trkpt>
<trkpt lat="51.556653" lon="03.765838"><ele>18.2</ele><time>2022-11-15T10:33:02Z</time><name>PT879</name></trkpt>
<trkpt lat="51.556642" lon="03.765837"><ele>17.9</ele><time>2022-11-15T10:33:03Z</time><name>PT880</name></trkpt>
<trkpt lat="51.556633" lon="03.765833"><ele>18.4</ele><time>2022-11-15T10:33:04Z</time><name>PT881</name></trkpt>
<trkpt lat="51.556624" lon="03.765829"><ele>18.5</ele><time>2022-11-15T10:33:05Z</time><name>PT882</name></trkpt>
<trkpt lat="51.556613" lon="03.765828"><ele>18.6</ele><time>2022-11-15T10:33:06Z</time><name>PT883</name></trkpt>
<trkpt lat="51.556602" lon="03.765824"><ele>18.9</ele><time>2022-11-15T10:33:07Z</time><name>PT884</name></trkpt>
<trkpt lat="51.556593" lon="03.765819"><ele>19</ele><time>2022-11-15T10:33:08Z</time><name>PT885</name></trkpt>
<trkpt lat="51.556582" lon="03.765815"><ele>18.9</ele><time>2022-11-15T10:33:09Z</time><name>PT886</name></trkpt>
<trkpt lat="51.556571" lon="03.765811"><ele>18.7</ele><time>2022-11-15T10:33:10Z</time><name>PT887</name></trkpt>
<trkpt lat="51.556561" lon="03.765806"><ele>18.8</ele><time>2022-11-15T10:33:11Z</time><name>PT888</name></trkpt>
<trkpt lat="51.556551" lon="03.765803"><ele>18.7</ele><time>2022-11-15T10:33:12Z</time><name>PT889</name></trkpt>
<trkpt lat="51.556541" lon="03.765798"><ele>18.7</ele><time>2022-11-15T10:33:13Z</time><name>PT890</name></trkpt>
<trkpt lat="51.556532" lon="03.765794"><ele>18.8</ele><time>2022-11-15T10:33:14Z</time><name>PT891</name></trkpt>
<trkpt lat="51.556521" lon="03.765789"><ele>18.7</ele><time>2022-11-15T10:33:15Z</time><name>PT892</name></trkpt>
<trkpt lat="51.556510" lon="03.765783"><ele>18.5</ele><time>2022-11-15T10:33:16Z</time><name>PT893</name></trkpt>
<trkpt lat="51.556500" lon="03.765780"><ele>18.2</ele><time>2022-11-15T10:33:17Z</time><name>PT894</name></trkpt>
<trkpt lat="51.556490" lon="03.765779"><ele>18.1</ele><time>2022-11-15T10:33:18Z</time><name>PT895</name></trkpt>
<trkpt lat="51.556479" lon="03.765777"><ele>18</ele><time>2022-11-15T10:33:19Z</time><name>PT896</name></trkpt>
<trkpt lat="51.556467" lon="03.765775"><ele>18.2</ele><time>2022-11-15T10:33:20Z</time><name>PT897</name></trkpt>
<trkpt lat="51.556456" lon="03.765774"><ele>18.8</ele><time>2022-11-15T10:33:21Z</time><name>PT898</name></trkpt>
<trkpt lat="51.556444" lon="03.765771"><ele>18.8</ele><time>2022-11-15T10:33:22Z</time><name>PT899</name></trkpt>
<trkpt lat="51.556434" lon="03.765770"><ele>18.9</ele><time>2022-11-15T10:33:23Z</time><name>PT900</name></trkpt>
<trkpt lat="51.556423" lon="03.765767"><ele>19.3</ele><time>2022-11-15T10:33:24Z</time><name>PT901</name></trkpt>
<trkpt lat="51.556413" lon="03.765760"><ele>19.1</ele><time>2022-11-15T10:33:25Z</time><name>PT902</name></trkpt>
<trkpt lat="51.556401" lon="03.765755"><ele>19.1</ele><time>2022-11-15T10:33:26Z</time><name>PT903</name></trkpt>
<trkpt lat="51.556389" lon="03.765753"><ele>19.2</ele><time>2022-11-15T10:33:27Z</time><name>PT904</name></trkpt>
<trkpt lat="51.556378" lon="03.765753"><ele>19.3</ele><time>2022-11-15T10:33:28Z</time><name>PT905</name></trkpt>
<trkpt lat="51.556367" lon="03.765752"><ele>19.5</ele><time>2022-11-15T10:33:29Z</time><name>PT906</name></trkpt>
<trkpt lat="51.556355" lon="03.765751"><ele>19.8</ele><time>2022-11-15T10:33:30Z</time><name>PT907</name></trkpt>
<trkpt lat="51.556343" lon="03.765746"><ele>19.7</ele><time>2022-11-15T10:33:31Z</time><name>PT908</name></trkpt>
<trkpt lat="51.556330" lon="03.765743"><ele>19.4</ele><time>2022-11-15T10:33:32Z</time><name>PT909</name></trkpt>
<trkpt lat="51.556321" lon="03.765740"><ele>19.3</ele><time>2022-11-15T10:33:33Z</time><name>PT910</name></trkpt>
<trkpt lat="51.556311" lon="03.765738"><ele>19.4</ele><time>2022-11-15T10:33:34Z</time><name>PT911</name></trkpt>
<trkpt lat="51.556301" lon="03.765733"><ele>19.3</ele><time>2022-11-15T10:33:35Z</time><name>PT912</name></trkpt>
<trkpt lat="51.556290" lon="03.765726"><ele>19.6</ele><time>2022-11-15T10:33:36Z</time><name>PT913</name></trkpt>
<trkpt lat="51.556278" lon="03.765723"><ele>19.7</ele><time>2022-11-15T10:33:37Z</time><name>PT914</name></trkpt>
<trkpt lat="51.556266" lon="03.765723"><ele>19.8</ele><time>2022-11-15T10:33:38Z</time><name>PT915</name></trkpt>
<trkpt lat="51.556254" lon="03.765721"><ele>19.7</ele><time>2022-11-15T10:33:39Z</time><name>PT916</name></trkpt>
<trkpt lat="51.556243" lon="03.765719"><ele>19.6</ele><time>2022-11-15T10:33:40Z</time><name>PT917</name></trkpt>
<trkpt lat="51.556231" lon="03.765715"><ele>19.7</ele><time>2022-11-15T10:33:41Z</time><name>PT918</name></trkpt>
<trkpt lat="51.556217" lon="03.765713"><ele>19.7</ele><time>2022-11-15T10:33:42Z</time><name>PT919</name></trkpt>
<trkpt lat="51.556206" lon="03.765710"><ele>19.2</ele><time>2022-11-15T10:33:43Z</time><name>PT920</name></trkpt>
<trkpt lat="51.556195" lon="03.765707"><ele>19.3</ele><time>2022-11-15T10:33:44Z</time><name>PT921</name></trkpt>
<trkpt lat="51.556185" lon="03.765704"><ele>19.2</ele><time>2022-11-15T10:33:45Z</time><name>PT922</name></trkpt>
<trkpt lat="51.556174" lon="03.765699"><ele>18.8</ele><time>2022-11-15T10:33:46Z</time><name>PT923</name></trkpt>
<trkpt lat="51.556163" lon="03.765696"><ele>19.2</ele><time>2022-11-15T10:33:47Z</time><name>PT924</name></trkpt>
<trkpt lat="51.556151" lon="03.765692"><ele>19.5</ele><time>2022-11-15T10:33:48Z</time><name>PT925</name></trkpt>
<trkpt lat="51.556139" lon="03.765688"><ele>19.5</ele><time>2022-11-15T10:33:49Z</time><name>PT926</name></trkpt>
<trkpt lat="51.556128" lon="03.765685"><ele>19.9</ele><time>2022-11-15T10:33:50Z</time><name>PT927</name></trkpt>
<trkpt lat="51.556118" lon="03.765683"><ele>19.8</ele><time>2022-11-15T10:33:51Z</time><name>PT928</name></trkpt>
<trkpt lat="51.556107" lon="03.765680"><ele>19.7</ele><time>2022-11-15T10:33:52Z</time><name>PT929</name></trkpt>
<trkpt lat="51.556096" lon="03.765676"><ele>19.7</ele><time>2022-11-15T10:33:53Z</time><name>PT930</name></trkpt>
<trkpt lat="51.556083" lon="03.765676"><ele>19.8</ele><time>2022-11-15T10:33:54Z</time><name>PT931</name></trkpt>
<trkpt lat="51.556071" lon="03.765673"><ele>19.8</ele><time>2022-11-15T10:33:55Z</time><name>PT932</name></trkpt>
<trkpt lat="51.556060" lon="03.765672"><ele>19.9</ele><time>2022-11-15T10:33:56Z</time><name>PT933</name></trkpt>
<trkpt lat="51.556048" lon="03.765670"><ele>20</ele><time>2022-11-15T10:33:57Z</time><name>PT934</name></trkpt>
<trkpt lat="51.556034" lon="03.765665"><ele>20.2</ele><time>2022-11-15T10:33:58Z</time><name>PT935</name></trkpt>
<trkpt lat="51.556022" lon="03.765661"><ele>20.2</ele><time>2022-11-15T10:33:59Z</time><name>PT936</name></trkpt>
<trkpt lat="51.556011" lon="03.765655"><ele>20.3</ele><time>2022-11-15T10:34:00Z</time><name>PT937</name></trkpt>
<trkpt lat="51.555999" lon="03.765651"><ele>20.3</ele><time>2022-11-15T10:34:01Z</time><name>PT938</name></trkpt>
<trkpt lat="51.555986" lon="03.765650"><ele>20.2</ele><time>2022-11-15T10:34:02Z</time><name>PT939</name></trkpt>
<trkpt lat="51.555975" lon="03.765647"><ele>20.1</ele><time>2022-11-15T10:34:03Z</time><name>PT940</name></trkpt>
<trkpt lat="51.555963" lon="03.765642"><ele>20</ele><time>2022-11-15T10:34:04Z</time><name>PT941</name></trkpt>
<trkpt lat="51.555952" lon="03.765638"><ele>20.1</ele><time>2022-11-15T10:34:05Z</time><name>PT942</name></trkpt>
<trkpt lat="51.555940" lon="03.765637"><ele>20.2</ele><time>2022-11-15T10:34:06Z</time><name>PT943</name></trkpt>
<trkpt lat="51.555928" lon="03.765635"><ele>20.2</ele><time>2022-11-15T10:34:07Z</time><name>PT944</name></trkpt>
<trkpt lat="51.555917" lon="03.765634"><ele>20.2</ele><time>2022-11-15T10:34:08Z</time><name>PT945</name></trkpt>
<trkpt lat="51.555907" lon="03.765630"><ele>20.6</ele><time>2022-11-15T10:34:09Z</time><name>PT946</name></trkpt>
<trkpt lat="51.555896" lon="03.765625"><ele>20.8</ele><time>2022-11-15T10:34:10Z</time><name>PT947</name></trkpt>
<trkpt lat="51.555886" lon="03.765623"><ele>20.9</ele><time>2022-11-15T10:34:11Z</time><name>PT948</name></trkpt>
<trkpt lat="51.555876" lon="03.765619"><ele>20.7</ele><time>2022-11-15T10:34:12Z</time><name>PT949</name></trkpt>
<trkpt lat="51.555865" lon="03.765615"><ele>20.2</ele><time>2022-11-15T10:34:13Z</time><name>PT950</name></trkpt>
<trkpt lat="51.555855" lon="03.765609"><ele>19.8</ele><time>2022-11-15T10:34:14Z</time><name>PT951</name></trkpt>
<trkpt lat="51.555845" lon="03.765605"><ele>19.4</ele><time>2022-11-15T10:34:15Z</time><name>PT952</name></trkpt>
<trkpt lat="51.555834" lon="03.765603"><ele>19.3</ele><time>2022-11-15T10:34:16Z</time><name>PT953</name></trkpt>
<trkpt lat="51.555822" lon="03.765601"><ele>19.3</ele><time>2022-11-15T10:34:17Z</time><name>PT954</name></trkpt>
<trkpt lat="51.555811" lon="03.765599"><ele>19.2</ele><time>2022-11-15T10:34:18Z</time><name>PT955</name></trkpt>
<trkpt lat="51.555799" lon="03.765597"><ele>19.2</ele><time>2022-11-15T10:34:19Z</time><name>PT956</name></trkpt>
<trkpt lat="51.555788" lon="03.765596"><ele>19.1</ele><time>2022-11-15T10:34:20Z</time><name>PT957</name></trkpt>
<trkpt lat="51.555778" lon="03.765590"><ele>19.1</ele><time>2022-11-15T10:34:21Z</time><name>PT958</name></trkpt>
<trkpt lat="51.555766" lon="03.765584"><ele>19.2</ele><time>2022-11-15T10:34:22Z</time><name>PT959</name></trkpt>
<trkpt lat="51.555755" lon="03.765577"><ele>19.3</ele><time>2022-11-15T10:34:23Z</time><name>PT960</name></trkpt>
<trkpt lat="51.555745" lon="03.765570"><ele>19.9</ele><time>2022-11-15T10:34:24Z</time><name>PT961</name></trkpt>
<trkpt lat="51.555734" lon="03.765564"><ele>20.1</ele><time>2022-11-15T10:34:25Z</time><name>PT962</name></trkpt>
<trkpt lat="51.555723" lon="03.765561"><ele>20.1</ele><time>2022-11-15T10:34:26Z</time><name>PT963</name></trkpt>
<trkpt lat="51.555712" lon="03.765556"><ele>20.3</ele><time>2022-11-15T10:34:27Z</time><name>PT964</name></trkpt>
<trkpt lat="51.555702" lon="03.765551"><ele>20.2</ele><time>2022-11-15T10:34:28Z</time><name>PT965</name></trkpt>
<trkpt lat="51.555691" lon="03.765544"><ele>20.2</ele><time>2022-11-15T10:34:29Z</time><name>PT966</name></trkpt>
<trkpt lat="51.555681" lon="03.765539"><ele>20.2</ele><time>2022-11-15T10:34:30Z</time><name>PT967</name></trkpt>
<trkpt lat="51.555669" lon="03.765533"><ele>20.2</ele><time>2022-11-15T10:34:31Z</time><name>PT968</name></trkpt>
<trkpt lat="51.555658" lon="03.765528"><ele>20.2</ele><time>2022-11-15T10:34:32Z</time><name>PT969</name></trkpt>
<trkpt lat="51.555647" lon="03.765523"><ele>20.2</ele><time>2022-11-15T10:34:33Z</time><name>PT970</name></trkpt>
<trkpt lat="51.555638" lon="03.765520"><ele>20.2</ele><time>2022-11-15T10:34:34Z</time><name>PT971</name></trkpt>
<trkpt lat="51.555629" lon="03.765512"><ele>20.4</ele><time>2022-11-15T10:34:35Z</time><name>PT972</name></trkpt>
<trkpt lat="51.555620" lon="03.765505"><ele>20.6</ele><time>2022-11-15T10:34:36Z</time><name>PT973</name></trkpt>
<trkpt lat="51.555611" lon="03.765496"><ele>20.5</ele><time>2022-11-15T10:34:37Z</time><name>PT974</name></trkpt>
<trkpt lat="51.555600" lon="03.765489"><ele>20.5</ele><time>2022-11-15T10:34:38Z</time><name>PT975</name></trkpt>
<trkpt lat="51.555590" lon="03.765481"><ele>20.4</ele><time>2022-11-15T10:34:39Z</time><name>PT976</name></trkpt>
<trkpt lat="51.555581" lon="03.765472"><ele>20.3</ele><time>2022-11-15T10:34:40Z</time><name>PT977</name></trkpt>
<trkpt lat="51.555571" lon="03.765462"><ele>20.2</ele><time>2022-11-15T10:34:41Z</time><name>PT978</name></trkpt>
<trkpt lat="51.555562" lon="03.765454"><ele>20.1</ele><time>2022-11-15T10:34:42Z</time><name>PT979</name></trkpt>
<trkpt lat="51.555552" lon="03.765447"><ele>20.2</ele><time>2022-11-15T10:34:43Z</time><name>PT980</name></trkpt>
<trkpt lat="51.555543" lon="03.765440"><ele>20.3</ele><time>2022-11-15T10:34:44Z</time><name>PT981</name></trkpt>
<trkpt lat="51.555533" lon="03.765433"><ele>20.4</ele><time>2022-11-15T10:34:45Z</time><name>PT982</name></trkpt>
<trkpt lat="51.555525" lon="03.765424"><ele>20.6</ele><time>2022-11-15T10:34:46Z</time><name>PT983</name></trkpt>
<trkpt lat="51.555517" lon="03.765417"><ele>20.6</ele><time>2022-11-15T10:34:47Z</time><name>PT984</name></trkpt>
<trkpt lat="51.555507" lon="03.765409"><ele>20.7</ele><time>2022-11-15T10:34:48Z</time><name>PT985</name></trkpt>
<trkpt lat="51.555499" lon="03.765404"><ele>20.8</ele><time>2022-11-15T10:34:49Z</time><name>PT986</name></trkpt>
<trkpt lat="51.555490" lon="03.765397"><ele>20.9</ele><time>2022-11-15T10:34:50Z</time><name>PT987</name></trkpt>
<trkpt lat="51.555481" lon="03.765389"><ele>21</ele><time>2022-11-15T10:34:51Z</time><name>PT988</name></trkpt>
<trkpt lat="51.555473" lon="03.765380"><ele>20.9</ele><time>2022-11-15T10:34:52Z</time><name>PT989</name></trkpt>
<trkpt lat="51.555462" lon="03.765374"><ele>21.2</ele><time>2022-11-15T10:34:53Z</time><name>PT990</name></trkpt>
<trkpt lat="51.555452" lon="03.765367"><ele>21.2</ele><time>2022-11-15T10:34:54Z</time><name>PT991</name></trkpt>
<trkpt lat="51.555443" lon="03.765360"><ele>21.3</ele><time>2022-11-15T10:34:55Z</time><name>PT992</name></trkpt>
<trkpt lat="51.555435" lon="03.765351"><ele>21.5</ele><time>2022-11-15T10:34:56Z</time><name>PT993</name></trkpt>
<trkpt lat="51.555427" lon="03.765340"><ele>21.7</ele><time>2022-11-15T10:34:57Z</time><name>PT994</name></trkpt>
<trkpt lat="51.555418" lon="03.765331"><ele>21.8</ele><time>2022-11-15T10:34:58Z</time><name>PT995</name></trkpt>
<trkpt lat="51.555409" lon="03.765322"><ele>21.8</ele><time>2022-11-15T10:34:59Z</time><name>PT996</name></trkpt>
<trkpt lat="51.555401" lon="03.765312"><ele>21.7</ele><time>2022-11-15T10:35:00Z</time><name>PT997</name></trkpt>
<trkpt lat="51.555394" lon="03.765300"><ele>21.1</ele><time>2022-11-15T10:35:01Z</time><name>PT998</name></trkpt>
<trkpt lat="51.555385" lon="03.765293"><ele>21.1</ele><time>2022-11-15T10:35:02Z</time><name>PT999</name></trkpt>
<trkpt lat="51.555375" lon="03.765284"><ele>21.3</ele><time>2022-11-15T10:35:03Z</time><name>PT1000</name></trkpt>
<trkpt lat="51.555367" lon="03.765275"><ele>21.7</ele><time>2022-11-15T10:35:04Z</time><name>PT1001</name></trkpt>
<trkpt lat="51.555358" lon="03.765267"><ele>21.8</ele><time>2022-11-15T10:35:05Z</time><name>PT1002</name></trkpt>
<trkpt lat="51.555348" lon="03.765259"><ele>22.1</ele><time>2022-11-15T10:35:06Z</time><name>PT1003</name></trkpt>
<trkpt lat="51.555338" lon="03.765253"><ele>22.1</ele><time>2022-11-15T10:35:07Z</time><name>PT1004</name></trkpt>
<trkpt lat="51.555330" lon="03.765246"><ele>21.6</ele><time>2022-11-15T10:35:08Z</time><name>PT1005</name></trkpt>
<trkpt lat="51.555321" lon="03.765237"><ele>21.4</ele><time>2022-11-15T10:35:09Z</time><name>PT1006</name></trkpt>
<trkpt lat="51.555310" lon="03.765227"><ele>21.7</ele><time>2022-11-15T10:35:10Z</time><name>PT1007</name></trkpt>
<trkpt lat="51.555301" lon="03.765218"><ele>21.6</ele><time>2022-11-15T10:35:11Z</time><name>PT1008</name></trkpt>
<trkpt lat="51.555291" lon="03.765209"><ele>21.7</ele><time>2022-11-15T10:35:12Z</time><name>PT1009</name></trkpt>
<trkpt lat="51.555282" lon="03.765200"><ele>22.2</ele><time>2022-11-15T10:35:13Z</time><name>PT1010</name></trkpt>
<trkpt lat="51.555274" lon="03.765190"><ele>22.4</ele><time>2022-11-15T10:35:14Z</time><name>PT1011</name></trkpt>
<trkpt lat="51.555264" lon="03.765182"><ele>22.6</ele><time>2022-11-15T10:35:15Z</time><name>PT1012</name></trkpt>
<trkpt lat="51.555255" lon="03.765171"><ele>22.7</ele><time>2022-11-15T10:35:16Z</time><name>PT1013</name></trkpt>
<trkpt lat="51.555245" lon="03.765160"><ele>23.1</ele><time>2022-11-15T10:35:17Z</time><name>PT1014</name></trkpt>
<trkpt lat="51.555236" lon="03.765147"><ele>23.2</ele><time>2022-11-15T10:35:18Z</time><name>PT1015</name></trkpt>
<trkpt lat="51.555229" lon="03.765136"><ele>23.6</ele><time>2022-11-15T10:35:19Z</time><name>PT1016</name></trkpt>
<trkpt lat="51.555223" lon="03.765125"><ele>23.7</ele><time>2022-11-15T10:35:20Z</time><name>PT1017</name></trkpt>
<trkpt lat="51.555215" lon="03.765112"><ele>23.8</ele><time>2022-11-15T10:35:21Z</time><name>PT1018</name></trkpt>
<trkpt lat="51.555206" lon="03.765097"><ele>23.8</ele><time>2022-11-15T10:35:22Z</time><name>PT1019</name></trkpt>
<trkpt lat="51.555199" lon="03.765081"><ele>23.7</ele><time>2022-11-15T10:35:23Z</time><name>PT1020</name></trkpt>
<trkpt lat="51.555192" lon="03.765066"><ele>23.7</ele><time>2022-11-15T10:35:24Z</time><name>PT1021</name></trkpt>
<trkpt lat="51.555187" lon="03.765052"><ele>23.8</ele><time>2022-11-15T10:35:25Z</time><name>PT1022</name></trkpt>
<trkpt lat="51.555181" lon="03.765040"><ele>23.9</ele><time>2022-11-15T10:35:26Z</time><name>PT1023</name></trkpt>
<trkpt lat="51.555175" lon="03.765028"><ele>24.1</ele><time>2022-11-15T10:35:27Z</time><name>PT1024</name></trkpt>
<trkpt lat="51.555168" lon="03.765016"><ele>24.2</ele><time>2022-11-15T10:35:28Z</time><name>PT1025</name></trkpt>
<trkpt lat="51.555162" lon="03.765002"><ele>24.3</ele><time>2022-11-15T10:35:29Z</time><name>PT1026</name></trkpt>
<trkpt lat="51.555157" lon="03.764989"><ele>24.2</ele><time>2022-11-15T10:35:30Z</time><name>PT1027</name></trkpt>
<trkpt lat="51.555151" lon="03.764977"><ele>24.3</ele><time>2022-11-15T10:35:31Z</time><name>PT1028</name></trkpt>
<trkpt lat="51.555149" lon="03.764971"><ele>24.4</ele><time>2022-11-15T10:35:32Z</time><name>PT1029</name></trkpt>
<trkpt lat="51.555148" lon="03.764961"><ele>24.4</ele><time>2022-11-15T10:35:33Z</time><name>PT1030</name></trkpt>
<trkpt lat="51.555147" lon="03.764945"><ele>24.4</ele><time>2022-11-15T10:35:34Z</time><name>PT1031</name></trkpt>
<trkpt lat="51.555143" lon="03.764921"><ele>24.5</ele><time>2022-11-15T10:35:35Z</time><name>PT1032</name></trkpt>
<trkpt lat="51.555137" lon="03.764891"><ele>24.5</ele><time>2022-11-15T10:35:36Z</time><name>PT1033</name></trkpt>
<trkpt lat="51.555132" lon="03.764857"><ele>24.6</ele><time>2022-11-15T10:35:37Z</time><name>PT1034</name></trkpt>
<trkpt lat="51.555127" lon="03.764825"><ele>24.8</ele><time>2022-11-15T10:35:38Z</time><name>PT1035</name></trkpt>
<trkpt lat="51.555119" lon="03.764798"><ele>25</ele><time>2022-11-15T10:35:39Z</time><name>PT1036</name></trkpt>
<trkpt lat="51.555115" lon="03.764781"><ele>25.2</ele><time>2022-11-15T10:35:40Z</time><name>PT1037</name></trkpt>
<trkpt lat="51.555113" lon="03.764770"><ele>25.6</ele><time>2022-11-15T10:35:41Z</time><name>PT1038</name></trkpt>
<trkpt lat="51.555114" lon="03.764763"><ele>25.4</ele><time>2022-11-15T10:35:42Z</time><name>PT1039</name></trkpt>
<trkpt lat="51.555115" lon="03.764749"><ele>25.4</ele><time>2022-11-15T10:35:43Z</time><name>PT1040</name></trkpt>
<trkpt lat="51.555111" lon="03.764746"><ele>25.7</ele><time>2022-11-15T10:35:44Z</time><name>PT1041</name></trkpt>
<trkpt lat="51.555109" lon="03.764743"><ele>25.5</ele><time>2022-11-15T10:35:45Z</time><name>PT1042</name></trkpt>
<trkpt lat="51.555110" lon="03.764727"><ele>25.4</ele><time>2022-11-15T10:35:46Z</time><name>PT1043</name></trkpt>
<trkpt lat="51.555112" lon="03.764700"><ele>25.4</ele><time>2022-11-15T10:35:47Z</time><name>PT1044</name></trkpt>
<trkpt lat="51.555113" lon="03.764673"><ele>25.4</ele><time>2022-11-15T10:35:48Z</time><name>PT1045</name></trkpt>
<trkpt lat="51.555111" lon="03.764652"><ele>25.2</ele><time>2022-11-15T10:35:49Z</time><name>PT1046</name></trkpt>
<trkpt lat="51.555111" lon="03.764634"><ele>25.2</ele><time>2022-11-15T10:35:50Z</time><name>PT1047</name></trkpt>
<trkpt lat="51.555112" lon="03.764617"><ele>25.2</ele><time>2022-11-15T10:35:51Z</time><name>PT1048</name></trkpt>
<trkpt lat="51.555113" lon="03.764601"><ele>25.2</ele><time>2022-11-15T10:35:52Z</time><name>PT1049</name></trkpt>
<trkpt lat="51.555113" lon="03.764587"><ele>25.5</ele><time>2022-11-15T10:35:53Z</time><name>PT1050</name></trkpt>
<trkpt lat="51.555113" lon="03.764573"><ele>25.6</ele><time>2022-11-15T10:35:54Z</time><name>PT1051</name></trkpt>
<trkpt lat="51.555112" lon="03.764558"><ele>25.4</ele><time>2022-11-15T10:35:55Z</time><name>PT1052</name></trkpt>
<trkpt lat="51.555114" lon="03.764543"><ele>25.6</ele><time>2022-11-15T10:35:56Z</time><name>PT1053</name></trkpt>
<trkpt lat="51.555116" lon="03.764524"><ele>25.5</ele><time>2022-11-15T10:35:57Z</time><name>PT1054</name></trkpt>
<trkpt lat="51.555118" lon="03.764504"><ele>25.7</ele><time>2022-11-15T10:35:58Z</time><name>PT1055</name></trkpt>
<trkpt lat="51.555123" lon="03.764479"><ele>25.7</ele><time>2022-11-15T10:35:59Z</time><name>PT1056</name></trkpt>
<trkpt lat="51.555127" lon="03.764450"><ele>25.8</ele><time>2022-11-15T10:36:00Z</time><name>PT1057</name></trkpt>
<trkpt lat="51.555128" lon="03.764421"><ele>26</ele><time>2022-11-15T10:36:01Z</time><name>PT1058</name></trkpt>
<trkpt lat="51.555129" lon="03.764402"><ele>26.2</ele><time>2022-11-15T10:36:02Z</time><name>PT1059</name></trkpt>
<trkpt lat="51.555130" lon="03.764385"><ele>25.9</ele><time>2022-11-15T10:36:03Z</time><name>PT1060</name></trkpt>
<trkpt lat="51.555132" lon="03.764370"><ele>26</ele><time>2022-11-15T10:36:04Z</time><name>PT1061</name></trkpt>
<trkpt lat="51.555133" lon="03.764357"><ele>26.2</ele><time>2022-11-15T10:36:05Z</time><name>PT1062</name></trkpt>
<trkpt lat="51.555132" lon="03.764344"><ele>26.7</ele><time>2022-11-15T10:36:06Z</time><name>PT1063</name></trkpt>
<trkpt lat="51.555132" lon="03.764329"><ele>26.8</ele><time>2022-11-15T10:36:07Z</time><name>PT1064</name></trkpt>
<trkpt lat="51.555132" lon="03.764313"><ele>27.2</ele><time>2022-11-15T10:36:08Z</time><name>PT1065</name></trkpt>
<trkpt lat="51.555132" lon="03.764299"><ele>27.4</ele><time>2022-11-15T10:36:09Z</time><name>PT1066</name></trkpt>
<trkpt lat="51.555133" lon="03.764286"><ele>27.4</ele><time>2022-11-15T10:36:10Z</time><name>PT1067</name></trkpt>
<trkpt lat="51.555133" lon="03.764274"><ele>27.2</ele><time>2022-11-15T10:36:11Z</time><name>PT1068</name></trkpt>
<trkpt lat="51.555133" lon="03.764262"><ele>27.3</ele><time>2022-11-15T10:36:12Z</time><name>PT1069</name></trkpt>
<trkpt lat="51.555131" lon="03.764248"><ele>27.2</ele><time>2022-11-15T10:36:13Z</time><name>PT1070</name></trkpt>
<trkpt lat="51.555130" lon="03.764236"><ele>27.3</ele><time>2022-11-15T10:36:14Z</time><name>PT1071</name></trkpt>
<trkpt lat="51.555131" lon="03.764220"><ele>27.4</ele><time>2022-11-15T10:36:15Z</time><name>PT1072</name></trkpt>
<trkpt lat="51.555131" lon="03.764205"><ele>27.2</ele><time>2022-11-15T10:36:16Z</time><name>PT1073</name></trkpt>
<trkpt lat="51.555133" lon="03.764190"><ele>26.8</ele><time>2022-11-15T10:36:17Z</time><name>PT1074</name></trkpt>
<trkpt lat="51.555133" lon="03.764176"><ele>26.7</ele><time>2022-11-15T10:36:18Z</time><name>PT1075</name></trkpt>
<trkpt lat="51.555133" lon="03.764162"><ele>26.3</ele><time>2022-11-15T10:36:19Z</time><name>PT1076</name></trkpt>
<trkpt lat="51.555133" lon="03.764147"><ele>26.2</ele><time>2022-11-15T10:36:20Z</time><name>PT1077</name></trkpt>
<trkpt lat="51.555133" lon="03.764133"><ele>26.1</ele><time>2022-11-15T10:36:21Z</time><name>PT1078</name></trkpt>
<trkpt lat="51.555134" lon="03.764119"><ele>26</ele><time>2022-11-15T10:36:22Z</time><name>PT1079</name></trkpt>
<trkpt lat="51.555133" lon="03.764104"><ele>26.1</ele><time>2022-11-15T10:36:23Z</time><name>PT1080</name></trkpt>
<trkpt lat="51.555133" lon="03.764088"><ele>26</ele><time>2022-11-15T10:36:24Z</time><name>PT1081</name></trkpt>
<trkpt lat="51.555133" lon="03.764074"><ele>26</ele><time>2022-11-15T10:36:25Z</time><name>PT1082</name></trkpt>
<trkpt lat="51.555134" lon="03.764062"><ele>26</ele><time>2022-11-15T10:36:26Z</time><name>PT1083</name></trkpt>
<trkpt lat="51.555135" lon="03.764048"><ele>25.9</ele><time>2022-11-15T10:36:27Z</time><name>PT1084</name></trkpt>
<trkpt lat="51.555137" lon="03.764034"><ele>25.7</ele><time>2022-11-15T10:36:28Z</time><name>PT1085</name></trkpt>
<trkpt lat="51.555138" lon="03.764018"><ele>25.8</ele><time>2022-11-15T10:36:29Z</time><name>PT1086</name></trkpt>
<trkpt lat="51.555139" lon="03.764001"><ele>25.7</ele><time>2022-11-15T10:36:30Z</time><name>PT1087</name></trkpt>
<trkpt lat="51.555138" lon="03.763984"><ele>25.8</ele><time>2022-11-15T10:36:31Z</time><name>PT1088</name></trkpt>
<trkpt lat="51.555139" lon="03.763970"><ele>25.9</ele><time>2022-11-15T10:36:32Z</time><name>PT1089</name></trkpt>
<trkpt lat="51.555141" lon="03.763958"><ele>26</ele><time>2022-11-15T10:36:33Z</time><name>PT1090</name></trkpt>
<trkpt lat="51.555142" lon="03.763944"><ele>26</ele><time>2022-11-15T10:36:34Z</time><name>PT1091</name></trkpt>
<trkpt lat="51.555142" lon="03.763928"><ele>26</ele><time>2022-11-15T10:36:35Z</time><name>PT1092</name></trkpt>
<trkpt lat="51.555141" lon="03.763916"><ele>26.1</ele><time>2022-11-15T10:36:36Z</time><name>PT1093</name></trkpt>
<trkpt lat="51.555140" lon="03.763898"><ele>26.4</ele><time>2022-11-15T10:36:37Z</time><name>PT1094</name></trkpt>
<trkpt lat="51.555144" lon="03.763882"><ele>27.4</ele><time>2022-11-15T10:36:38Z</time><name>PT1095</name></trkpt>
<trkpt lat="51.555142" lon="03.763873"><ele>28.3</ele><time>2022-11-15T10:36:39Z</time><name>PT1096</name></trkpt>
<trkpt lat="51.555138" lon="03.763862"><ele>28.7</ele><time>2022-11-15T10:36:40Z</time><name>PT1097</name></trkpt>
<trkpt lat="51.555137" lon="03.763851"><ele>29.1</ele><time>2022-11-15T10:36:41Z</time><name>PT1098</name></trkpt>
<trkpt lat="51.555138" lon="03.763844"><ele>28.8</ele><time>2022-11-15T10:36:42Z</time><name>PT1099</name></trkpt>
<trkpt lat="51.555139" lon="03.763833"><ele>28.7</ele><time>2022-11-15T10:36:43Z</time><name>PT1100</name></trkpt>
<trkpt lat="51.555138" lon="03.763820"><ele>28.6</ele><time>2022-11-15T10:36:44Z</time><name>PT1101</name></trkpt>
<trkpt lat="51.555137" lon="03.763807"><ele>28.3</ele><time>2022-11-15T10:36:45Z</time><name>PT1102</name></trkpt>
<trkpt lat="51.555135" lon="03.763793"><ele>27.7</ele><time>2022-11-15T10:36:46Z</time><name>PT1103</name></trkpt>
<trkpt lat="51.555136" lon="03.763780"><ele>27.5</ele><time>2022-11-15T10:36:47Z</time><name>PT1104</name></trkpt>
<trkpt lat="51.555137" lon="03.763766"><ele>27</ele><time>2022-11-15T10:36:48Z</time><name>PT1105</name></trkpt>
<trkpt lat="51.555137" lon="03.763751"><ele>26.7</ele><time>2022-11-15T10:36:49Z</time><name>PT1106</name></trkpt>
<trkpt lat="51.555137" lon="03.763735"><ele>26.5</ele><time>2022-11-15T10:36:50Z</time><name>PT1107</name></trkpt>
<trkpt lat="51.555137" lon="03.763718"><ele>26.3</ele><time>2022-11-15T10:36:51Z</time><name>PT1108</name></trkpt>
<trkpt lat="51.555136" lon="03.763703"><ele>26.1</ele><time>2022-11-15T10:36:52Z</time><name>PT1109</name></trkpt>
<trkpt lat="51.555137" lon="03.763689"><ele>26.1</ele><time>2022-11-15T10:36:53Z</time><name>PT1110</name></trkpt>
<trkpt lat="51.555138" lon="03.763674"><ele>25.9</ele><time>2022-11-15T10:36:54Z</time><name>PT1111</name></trkpt>
<trkpt lat="51.555138" lon="03.763661"><ele>25.7</ele><time>2022-11-15T10:36:55Z</time><name>PT1112</name></trkpt>
<trkpt lat="51.555138" lon="03.763647"><ele>25.7</ele><time>2022-11-15T10:36:56Z</time><name>PT1113</name></trkpt>
<trkpt lat="51.555138" lon="03.763636"><ele>25.7</ele><time>2022-11-15T10:36:57Z</time><name>PT1114</name></trkpt>
<trkpt lat="51.555140" lon="03.763625"><ele>25.9</ele><time>2022-11-15T10:36:58Z</time><name>PT1115</name></trkpt>
<trkpt lat="51.555141" lon="03.763620"><ele>26.6</ele><time>2022-11-15T10:36:59Z</time><name>PT1116</name></trkpt>
<trkpt lat="51.555140" lon="03.763613"><ele>27</ele><time>2022-11-15T10:37:00Z</time><name>PT1117</name></trkpt>
<trkpt lat="51.555140" lon="03.763605"><ele>27.6</ele><time>2022-11-15T10:37:01Z</time><name>PT1118</name></trkpt>
<trkpt lat="51.555141" lon="03.763595"><ele>27.7</ele><time>2022-11-15T10:37:02Z</time><name>PT1119</name></trkpt>
<trkpt lat="51.555140" lon="03.763583"><ele>27.8</ele><time>2022-11-15T10:37:03Z</time><name>PT1120</name></trkpt>
<trkpt lat="51.555140" lon="03.763569"><ele>27.5</ele><time>2022-11-15T10:37:04Z</time><name>PT1121</name></trkpt>
<trkpt lat="51.555139" lon="03.763557"><ele>27.4</ele><time>2022-11-15T10:37:05Z</time><name>PT1122</name></trkpt>
<trkpt lat="51.555139" lon="03.763547"><ele>27.1</ele><time>2022-11-15T10:37:06Z</time><name>PT1123</name></trkpt>
<trkpt lat="51.555141" lon="03.763536"><ele>27</ele><time>2022-11-15T10:37:07Z</time><name>PT1124</name></trkpt>
<trkpt lat="51.555142" lon="03.763526"><ele>26.9</ele><time>2022-11-15T10:37:08Z</time><name>PT1125</name></trkpt>
<trkpt lat="51.555144" lon="03.763517"><ele>27.1</ele><time>2022-11-15T10:37:09Z</time><name>PT1126</name></trkpt>
<trkpt lat="51.555145" lon="03.763505"><ele>27.4</ele><time>2022-11-15T10:37:10Z</time><name>PT1127</name></trkpt>
<trkpt lat="51.555146" lon="03.763495"><ele>27.5</ele><time>2022-11-15T10:37:11Z</time><name>PT1128</name></trkpt>
<trkpt lat="51.555147" lon="03.763484"><ele>27.6</ele><time>2022-11-15T10:37:12Z</time><name>PT1129</name></trkpt>
<trkpt lat="51.555149" lon="03.763479"><ele>27.7</ele><time>2022-11-15T10:37:13Z</time><name>PT1130</name></trkpt>
<trkpt lat="51.555151" lon="03.763472"><ele>27.5</ele><time>2022-11-15T10:37:14Z</time><name>PT1131</name></trkpt>
<trkpt lat="51.555152" lon="03.763467"><ele>27.4</ele><time>2022-11-15T10:37:15Z</time><name>PT1132</name></trkpt>
<trkpt lat="51.555150" lon="03.763464"><ele>27.5</ele><time>2022-11-15T10:37:16Z</time><name>PT1133</name></trkpt>
<trkpt lat="51.555147" lon="03.763461"><ele>27.4</ele><time>2022-11-15T10:37:17Z</time><name>PT1134</name></trkpt>
<trkpt lat="51.555146" lon="03.763462"><ele>27.3</ele><time>2022-11-15T10:37:18Z</time><name>PT1135</name></trkpt>
<trkpt lat="51.555146" lon="03.763454"><ele>27.3</ele><time>2022-11-15T10:37:39Z</time><name>PT1136</name></trkpt>
<trkpt lat="51.555148" lon="03.763440"><ele>27.2</ele><time>2022-11-15T10:37:40Z</time><name>PT1137</name></trkpt>
<trkpt lat="51.555149" lon="03.763424"><ele>27</ele><time>2022-11-15T10:37:41Z</time><name>PT1138</name></trkpt>
<trkpt lat="51.555153" lon="03.763407"><ele>26.9</ele><time>2022-11-15T10:37:42Z</time><name>PT1139</name></trkpt>
<trkpt lat="51.555151" lon="03.763392"><ele>26.7</ele><time>2022-11-15T10:37:43Z</time><name>PT1140</name></trkpt>
<trkpt lat="51.555152" lon="03.763377"><ele>26.7</ele><time>2022-11-15T10:37:44Z</time><name>PT1141</name></trkpt>
<trkpt lat="51.555154" lon="03.763367"><ele>26.8</ele><time>2022-11-15T10:37:45Z</time><name>PT1142</name></trkpt>
<trkpt lat="51.555157" lon="03.763357"><ele>27</ele><time>2022-11-15T10:37:46Z</time><name>PT1143</name></trkpt>
<trkpt lat="51.555160" lon="03.763352"><ele>27.1</ele><time>2022-11-15T10:37:47Z</time><name>PT1144</name></trkpt>
<trkpt lat="51.555160" lon="03.763352"><ele>27.2</ele><time>2022-11-15T10:37:48Z</time><name>PT1145</name></trkpt>
<trkpt lat="51.555164" lon="03.763350"><ele>27.4</ele><time>2022-11-15T10:37:49Z</time><name>PT1146</name></trkpt>
<trkpt lat="51.555164" lon="03.763346"><ele>26.6</ele><time>2022-11-15T10:38:03Z</time><name>PT1147</name></trkpt>
<trkpt lat="51.555164" lon="03.763329"><ele>26.2</ele><time>2022-11-15T10:38:04Z</time><name>PT1148</name></trkpt>
<trkpt lat="51.555164" lon="03.763312"><ele>26.2</ele><time>2022-11-15T10:38:05Z</time><name>PT1149</name></trkpt>
<trkpt lat="51.555165" lon="03.763297"><ele>26.2</ele><time>2022-11-15T10:38:06Z</time><name>PT1150</name></trkpt>
<trkpt lat="51.555166" lon="03.763284"><ele>26.4</ele><time>2022-11-15T10:38:07Z</time><name>PT1151</name></trkpt>
<trkpt lat="51.555167" lon="03.763274"><ele>26.6</ele><time>2022-11-15T10:38:08Z</time><name>PT1152</name></trkpt>
<trkpt lat="51.555167" lon="03.763267"><ele>26.7</ele><time>2022-11-15T10:38:09Z</time><name>PT1153</name></trkpt>
<trkpt lat="51.555166" lon="03.763263"><ele>26.7</ele><time>2022-11-15T10:38:10Z</time><name>PT1154</name></trkpt>
<trkpt lat="51.555165" lon="03.763262"><ele>26.7</ele><time>2022-11-15T10:38:11Z</time><name>PT1155</name></trkpt>
<trkpt lat="51.555163" lon="03.763260"><ele>25.5</ele><time>2022-11-15T10:38:54Z</time><name>PT1156</name></trkpt>
<trkpt lat="51.555164" lon="03.763244"><ele>26.1</ele><time>2022-11-15T10:38:55Z</time><name>PT1157</name></trkpt>
<trkpt lat="51.555166" lon="03.763223"><ele>26.2</ele><time>2022-11-15T10:38:56Z</time><name>PT1158</name></trkpt>
<trkpt lat="51.555166" lon="03.763209"><ele>26.2</ele><time>2022-11-15T10:38:57Z</time><name>PT1159</name></trkpt>
<trkpt lat="51.555166" lon="03.763193"><ele>25.8</ele><time>2022-11-15T10:38:58Z</time><name>PT1160</name></trkpt>
<trkpt lat="51.555167" lon="03.763182"><ele>25.7</ele><time>2022-11-15T10:38:59Z</time><name>PT1161</name></trkpt>
<trkpt lat="51.555167" lon="03.763172"><ele>25.6</ele><time>2022-11-15T10:39:00Z</time><name>PT1162</name></trkpt>
<trkpt lat="51.555167" lon="03.763160"><ele>25.7</ele><time>2022-11-15T10:39:01Z</time><name>PT1163</name></trkpt>
<trkpt lat="51.555171" lon="03.763148"><ele>26</ele><time>2022-11-15T10:39:02Z</time><name>PT1164</name></trkpt>
<trkpt lat="51.555172" lon="03.763134"><ele>26.2</ele><time>2022-11-15T10:39:03Z</time><name>PT1165</name></trkpt>
<trkpt lat="51.555170" lon="03.763113"><ele>26.3</ele><time>2022-11-15T10:39:04Z</time><name>PT1166</name></trkpt>
<trkpt lat="51.555170" lon="03.763095"><ele>26.4</ele><time>2022-11-15T10:39:05Z</time><name>PT1167</name></trkpt>
<trkpt lat="51.555170" lon="03.763075"><ele>26.4</ele><time>2022-11-15T10:39:06Z</time><name>PT1168</name></trkpt>
<trkpt lat="51.555170" lon="03.763056"><ele>26.3</ele><time>2022-11-15T10:39:07Z</time><name>PT1169</name></trkpt>
<trkpt lat="51.555171" lon="03.763040"><ele>26.2</ele><time>2022-11-15T10:39:08Z</time><name>PT1170</name></trkpt>
<trkpt lat="51.555171" lon="03.763021"><ele>26.3</ele><time>2022-11-15T10:39:09Z</time><name>PT1171</name></trkpt>
<trkpt lat="51.555171" lon="03.763003"><ele>26.4</ele><time>2022-11-15T10:39:10Z</time><name>PT1172</name></trkpt>
<trkpt lat="51.555172" lon="03.762987"><ele>26.3</ele><time>2022-11-15T10:39:11Z</time><name>PT1173</name></trkpt>
<trkpt lat="51.555175" lon="03.762972"><ele>26</ele><time>2022-11-15T10:39:12Z</time><name>PT1174</name></trkpt>
<trkpt lat="51.555176" lon="03.762956"><ele>26.1</ele><time>2022-11-15T10:39:13Z</time><name>PT1175</name></trkpt>
<trkpt lat="51.555175" lon="03.762938"><ele>26</ele><time>2022-11-15T10:39:14Z</time><name>PT1176</name></trkpt>
<trkpt lat="51.555177" lon="03.762922"><ele>26.1</ele><time>2022-11-15T10:39:15Z</time><name>PT1177</name></trkpt>
<trkpt lat="51.555173" lon="03.762909"><ele>26</ele><time>2022-11-15T10:39:16Z</time><name>PT1178</name></trkpt>
<trkpt lat="51.555174" lon="03.762895"><ele>26.2</ele><time>2022-11-15T10:39:17Z</time><name>PT1179</name></trkpt>
<trkpt lat="51.555172" lon="03.762882"><ele>26.3</ele><time>2022-11-15T10:39:18Z</time><name>PT1180</name></trkpt>
<trkpt lat="51.555173" lon="03.762866"><ele>25.9</ele><time>2022-11-15T10:39:19Z</time><name>PT1181</name></trkpt>
<trkpt lat="51.555173" lon="03.762849"><ele>25.5</ele><time>2022-11-15T10:39:20Z</time><name>PT1182</name></trkpt>
<trkpt lat="51.555174" lon="03.762831"><ele>25.5</ele><time>2022-11-15T10:39:21Z</time><name>PT1183</name></trkpt>
<trkpt lat="51.555175" lon="03.762813"><ele>25.4</ele><time>2022-11-15T10:39:22Z</time><name>PT1184</name></trkpt>
<trkpt lat="51.555176" lon="03.762793"><ele>25.2</ele><time>2022-11-15T10:39:23Z</time><name>PT1185</name></trkpt>
<trkpt lat="51.555175" lon="03.762776"><ele>25.6</ele><time>2022-11-15T10:39:24Z</time><name>PT1186</name></trkpt>
<trkpt lat="51.555174" lon="03.762757"><ele>25.7</ele><time>2022-11-15T10:39:25Z</time><name>PT1187</name></trkpt>
<trkpt lat="51.555174" lon="03.762741"><ele>25.7</ele><time>2022-11-15T10:39:26Z</time><name>PT1188</name></trkpt>
<trkpt lat="51.555175" lon="03.762724"><ele>25.5</ele><time>2022-11-15T10:39:27Z</time><name>PT1189</name></trkpt>
<trkpt lat="51.555175" lon="03.762706"><ele>25.5</ele><time>2022-11-15T10:39:28Z</time><name>PT1190</name></trkpt>
<trkpt lat="51.555176" lon="03.762691"><ele>25.4</ele><time>2022-11-15T10:39:29Z</time><name>PT1191</name></trkpt>
<trkpt lat="51.555177" lon="03.762676"><ele>25.2</ele><time>2022-11-15T10:39:30Z</time><name>PT1192</name></trkpt>
<trkpt lat="51.555177" lon="03.762660"><ele>25.2</ele><time>2022-11-15T10:39:31Z</time><name>PT1193</name></trkpt>
<trkpt lat="51.555175" lon="03.762644"><ele>25.1</ele><time>2022-11-15T10:39:32Z</time><name>PT1194</name></trkpt>
<trkpt lat="51.555173" lon="03.762627"><ele>25</ele><time>2022-11-15T10:39:33Z</time><name>PT1195</name></trkpt>
<trkpt lat="51.555171" lon="03.762609"><ele>24.7</ele><time>2022-11-15T10:39:34Z</time><name>PT1196</name></trkpt>
<trkpt lat="51.555170" lon="03.762589"><ele>24.5</ele><time>2022-11-15T10:39:35Z</time><name>PT1197</name></trkpt>
<trkpt lat="51.555168" lon="03.762570"><ele>24.6</ele><time>2022-11-15T10:39:36Z</time><name>PT1198</name></trkpt>
<trkpt lat="51.555166" lon="03.762552"><ele>24.6</ele><time>2022-11-15T10:39:37Z</time><name>PT1199</name></trkpt>
<trkpt lat="51.555164" lon="03.762534"><ele>24.3</ele><time>2022-11-15T10:39:38Z</time><name>PT1200</name></trkpt>
<trkpt lat="51.555162" lon="03.762519"><ele>24.2</ele><time>2022-11-15T10:39:39Z</time><name>PT1201</name></trkpt>
<trkpt lat="51.555160" lon="03.762504"><ele>23.9</ele><time>2022-11-15T10:39:40Z</time><name>PT1202</name></trkpt>
<trkpt lat="51.555158" lon="03.762485"><ele>23.9</ele><time>2022-11-15T10:39:41Z</time><name>PT1203</name></trkpt>
<trkpt lat="51.555157" lon="03.762467"><ele>23.8</ele><time>2022-11-15T10:39:42Z</time><name>PT1204</name></trkpt>
<trkpt lat="51.555155" lon="03.762447"><ele>23.8</ele><time>2022-11-15T10:39:43Z</time><name>PT1205</name></trkpt>
<trkpt lat="51.555154" lon="03.762430"><ele>23.6</ele><time>2022-11-15T10:39:44Z</time><name>PT1206</name></trkpt>
<trkpt lat="51.555154" lon="03.762413"><ele>23.5</ele><time>2022-11-15T10:39:45Z</time><name>PT1207</name></trkpt>
<trkpt lat="51.555153" lon="03.762399"><ele>23.2</ele><time>2022-11-15T10:39:46Z</time><name>PT1208</name></trkpt>
<trkpt lat="51.555151" lon="03.762392"><ele>23.2</ele><time>2022-11-15T10:39:47Z</time><name>PT1209</name></trkpt>
<trkpt lat="51.555152" lon="03.762387"><ele>23.2</ele><time>2022-11-15T10:39:48Z</time><name>PT1210</name></trkpt>
<trkpt lat="51.555151" lon="03.762381"><ele>23.2</ele><time>2022-11-15T10:39:49Z</time><name>PT1211</name></trkpt>
<trkpt lat="51.555151" lon="03.762383"><ele>23.2</ele><time>2022-11-15T10:39:50Z</time><name>PT1212</name></trkpt>
<trkpt lat="51.555152" lon="03.762384"><ele>23.2</ele><time>2022-11-15T10:39:51Z</time><name>PT1213</name></trkpt>
<trkpt lat="51.555151" lon="03.762384"><ele>23</ele><time>2022-11-15T10:39:52Z</time><name>PT1214</name></trkpt>
<trkpt lat="51.555153" lon="03.762377"><ele>22.8</ele><time>2022-11-15T10:39:53Z</time><name>PT1215</name></trkpt>
<trkpt lat="51.555152" lon="03.762363"><ele>22.8</ele><time>2022-11-15T10:39:54Z</time><name>PT1216</name></trkpt>
<trkpt lat="51.555152" lon="03.762346"><ele>23</ele><time>2022-11-15T10:39:55Z</time><name>PT1217</name></trkpt>
<trkpt lat="51.555151" lon="03.762330"><ele>23.3</ele><time>2022-11-15T10:39:56Z</time><name>PT1218</name></trkpt>
<trkpt lat="51.555151" lon="03.762313"><ele>23.3</ele><time>2022-11-15T10:39:57Z</time><name>PT1219</name></trkpt>
<trkpt lat="51.555151" lon="03.762296"><ele>23.5</ele><time>2022-11-15T10:39:58Z</time><name>PT1220</name></trkpt>
<trkpt lat="51.555149" lon="03.762281"><ele>23.5</ele><time>2022-11-15T10:39:59Z</time><name>PT1221</name></trkpt>
<trkpt lat="51.555145" lon="03.762266"><ele>23.2</ele><time>2022-11-15T10:40:00Z</time><name>PT1222</name></trkpt>
<trkpt lat="51.555142" lon="03.762250"><ele>23.1</ele><time>2022-11-15T10:40:01Z</time><name>PT1223</name></trkpt>
<trkpt lat="51.555140" lon="03.762239"><ele>22.9</ele><time>2022-11-15T10:40:02Z</time><name>PT1224</name></trkpt>
<trkpt lat="51.555138" lon="03.762230"><ele>22.8</ele><time>2022-11-15T10:40:03Z</time><name>PT1225</name></trkpt>
<trkpt lat="51.555136" lon="03.762219"><ele>22.6</ele><time>2022-11-15T10:40:04Z</time><name>PT1226</name></trkpt>
<trkpt lat="51.555133" lon="03.762209"><ele>22.5</ele><time>2022-11-15T10:40:05Z</time><name>PT1227</name></trkpt>
<trkpt lat="51.555135" lon="03.762210"><ele>22.5</ele><time>2022-11-15T10:40:06Z</time><name>PT1228</name></trkpt>
<trkpt lat="51.555138" lon="03.762214"><ele>22.4</ele><time>2022-11-15T10:40:07Z</time><name>PT1229</name></trkpt>
<trkpt lat="51.555139" lon="03.762214"><ele>22.4</ele><time>2022-11-15T10:40:08Z</time><name>PT1230</name></trkpt>
<trkpt lat="51.555137" lon="03.762210"><ele>22.4</ele><time>2022-11-15T10:40:09Z</time><name>PT1231</name></trkpt>
<trkpt lat="51.555134" lon="03.762206"><ele>22.2</ele><time>2022-11-15T10:40:10Z</time><name>PT1232</name></trkpt>
<trkpt lat="51.555132" lon="03.762199"><ele>22</ele><time>2022-11-15T10:40:11Z</time><name>PT1233</name></trkpt>
<trkpt lat="51.555132" lon="03.762201"><ele>21.7</ele><time>2022-11-15T10:40:12Z</time><name>PT1234</name></trkpt>
<trkpt lat="51.555133" lon="03.762210"><ele>21.7</ele><time>2022-11-15T10:40:13Z</time><name>PT1235</name></trkpt>
<trkpt lat="51.555134" lon="03.762218"><ele>22.2</ele><time>2022-11-15T10:40:14Z</time><name>PT1236</name></trkpt>
<trkpt lat="51.555132" lon="03.762228"><ele>22.3</ele><time>2022-11-15T10:40:15Z</time><name>PT1237</name></trkpt>
<trkpt lat="51.555132" lon="03.762239"><ele>22.8</ele><time>2022-11-15T10:40:16Z</time><name>PT1238</name></trkpt>
<trkpt lat="51.555130" lon="03.762251"><ele>23.3</ele><time>2022-11-15T10:40:17Z</time><name>PT1239</name></trkpt>
<trkpt lat="51.555130" lon="03.762264"><ele>23.3</ele><time>2022-11-15T10:40:18Z</time><name>PT1240</name></trkpt>
<trkpt lat="51.555130" lon="03.762278"><ele>23.2</ele><time>2022-11-15T10:40:19Z</time><name>PT1241</name></trkpt>
<trkpt lat="51.555129" lon="03.762292"><ele>23.2</ele><time>2022-11-15T10:40:20Z</time><name>PT1242</name></trkpt>
<trkpt lat="51.555127" lon="03.762308"><ele>23.1</ele><time>2022-11-15T10:40:21Z</time><name>PT1243</name></trkpt>
<trkpt lat="51.555124" lon="03.762322"><ele>22.9</ele><time>2022-11-15T10:40:22Z</time><name>PT1244</name></trkpt>
<trkpt lat="51.555122" lon="03.762337"><ele>22.8</ele><time>2022-11-15T10:40:23Z</time><name>PT1245</name></trkpt>
<trkpt lat="51.555121" lon="03.762356"><ele>22.8</ele><time>2022-11-15T10:40:24Z</time><name>PT1246</name></trkpt>
<trkpt lat="51.555121" lon="03.762373"><ele>22.7</ele><time>2022-11-15T10:40:25Z</time><name>PT1247</name></trkpt>
<trkpt lat="51.555121" lon="03.762391"><ele>22.7</ele><time>2022-11-15T10:40:26Z</time><name>PT1248</name></trkpt>
<trkpt lat="51.555119" lon="03.762407"><ele>22.5</ele><time>2022-11-15T10:40:27Z</time><name>PT1249</name></trkpt>
<trkpt lat="51.555117" lon="03.762424"><ele>22.5</ele><time>2022-11-15T10:40:28Z</time><name>PT1250</name></trkpt>
<trkpt lat="51.555115" lon="03.762442"><ele>22.3</ele><time>2022-11-15T10:40:29Z</time><name>PT1251</name></trkpt>
<trkpt lat="51.555115" lon="03.762460"><ele>22.2</ele><time>2022-11-15T10:40:30Z</time><name>PT1252</name></trkpt>
<trkpt lat="51.555115" lon="03.762476"><ele>22.1</ele><time>2022-11-15T10:40:31Z</time><name>PT1253</name></trkpt>
<trkpt lat="51.555113" lon="03.762492"><ele>22.2</ele><time>2022-11-15T10:40:32Z</time><name>PT1254</name></trkpt>
<trkpt lat="51.555114" lon="03.762514"><ele>22.2</ele><time>2022-11-15T10:40:33Z</time><name>PT1255</name></trkpt>
<trkpt lat="51.555115" lon="03.762531"><ele>22</ele><time>2022-11-15T10:40:34Z</time><name>PT1256</name></trkpt>
<trkpt lat="51.555113" lon="03.762546"><ele>22.1</ele><time>2022-11-15T10:40:35Z</time><name>PT1257</name></trkpt>
<trkpt lat="51.555113" lon="03.762563"><ele>22.2</ele><time>2022-11-15T10:40:36Z</time><name>PT1258</name></trkpt>
<trkpt lat="51.555113" lon="03.762581"><ele>22.3</ele><time>2022-11-15T10:40:37Z</time><name>PT1259</name></trkpt>
<trkpt lat="51.555112" lon="03.762596"><ele>22.5</ele><time>2022-11-15T10:40:38Z</time><name>PT1260</name></trkpt>
<trkpt lat="51.555113" lon="03.762609"><ele>22.7</ele><time>2022-11-15T10:40:39Z</time><name>PT1261</name></trkpt>
<trkpt lat="51.555113" lon="03.762620"><ele>22.7</ele><time>2022-11-15T10:40:40Z</time><name>PT1262</name></trkpt>
<trkpt lat="51.555115" lon="03.762623"><ele>22.7</ele><time>2022-11-15T10:40:41Z</time><name>PT1263</name></trkpt>
<trkpt lat="51.555116" lon="03.762624"><ele>22.6</ele><time>2022-11-15T10:40:42Z</time><name>PT1264</name></trkpt>
<trkpt lat="51.555117" lon="03.762634"><ele>22.7</ele><time>2022-11-15T10:40:43Z</time><name>PT1265</name></trkpt>
<trkpt lat="51.555116" lon="03.762646"><ele>22.7</ele><time>2022-11-15T10:40:44Z</time><name>PT1266</name></trkpt>
<trkpt lat="51.555115" lon="03.762663"><ele>22.6</ele><time>2022-11-15T10:40:45Z</time><name>PT1267</name></trkpt>
<trkpt lat="51.555116" lon="03.762681"><ele>22.7</ele><time>2022-11-15T10:40:46Z</time><name>PT1268</name></trkpt>
<trkpt lat="51.555117" lon="03.762695"><ele>22.7</ele><time>2022-11-15T10:40:47Z</time><name>PT1269</name></trkpt>
<trkpt lat="51.555118" lon="03.762709"><ele>22.7</ele><time>2022-11-15T10:40:48Z</time><name>PT1270</name></trkpt>
<trkpt lat="51.555120" lon="03.762723"><ele>22.7</ele><time>2022-11-15T10:40:49Z</time><name>PT1271</name></trkpt>
<trkpt lat="51.555120" lon="03.762739"><ele>22.7</ele><time>2022-11-15T10:40:50Z</time><name>PT1272</name></trkpt>
<trkpt lat="51.555120" lon="03.762754"><ele>22.7</ele><time>2022-11-15T10:40:51Z</time><name>PT1273</name></trkpt>
<trkpt lat="51.555120" lon="03.762770"><ele>22.7</ele><time>2022-11-15T10:40:52Z</time><name>PT1274</name></trkpt>
<trkpt lat="51.555120" lon="03.762783"><ele>22.9</ele><time>2022-11-15T10:40:53Z</time><name>PT1275</name></trkpt>
<trkpt lat="51.555123" lon="03.762797"><ele>23.1</ele><time>2022-11-15T10:40:54Z</time><name>PT1276</name></trkpt>
<trkpt lat="51.555126" lon="03.762813"><ele>23.1</ele><time>2022-11-15T10:40:55Z</time><name>PT1277</name></trkpt>
<trkpt lat="51.555129" lon="03.762830"><ele>23.2</ele><time>2022-11-15T10:40:56Z</time><name>PT1278</name></trkpt>
<trkpt lat="51.555133" lon="03.762844"><ele>23.2</ele><time>2022-11-15T10:40:57Z</time><name>PT1279</name></trkpt>
<trkpt lat="51.555138" lon="03.762858"><ele>23</ele><time>2022-11-15T10:40:58Z</time><name>PT1280</name></trkpt>
<trkpt lat="51.555142" lon="03.762871"><ele>23.1</ele><time>2022-11-15T10:40:59Z</time><name>PT1281</name></trkpt>
<trkpt lat="51.555146" lon="03.762883"><ele>23</ele><time>2022-11-15T10:41:00Z</time><name>PT1282</name></trkpt>
<trkpt lat="51.555150" lon="03.762894"><ele>23</ele><time>2022-11-15T10:41:01Z</time><name>PT1283</name></trkpt>
<trkpt lat="51.555151" lon="03.762908"><ele>23.2</ele><time>2022-11-15T10:41:02Z</time><name>PT1284</name></trkpt>
<trkpt lat="51.555148" lon="03.762918"><ele>23.2</ele><time>2022-11-15T10:41:03Z</time><name>PT1285</name></trkpt>
<trkpt lat="51.555142" lon="03.762930"><ele>23.2</ele><time>2022-11-15T10:41:04Z</time><name>PT1286</name></trkpt>
<trkpt lat="51.555135" lon="03.762944"><ele>23.3</ele><time>2022-11-15T10:41:05Z</time><name>PT1287</name></trkpt>
<trkpt lat="51.555128" lon="03.762959"><ele>23.2</ele><time>2022-11-15T10:41:06Z</time><name>PT1288</name></trkpt>
<trkpt lat="51.555124" lon="03.762974"><ele>23.3</ele><time>2022-11-15T10:41:07Z</time><name>PT1289</name></trkpt>
<trkpt lat="51.555122" lon="03.762992"><ele>23.2</ele><time>2022-11-15T10:41:08Z</time><name>PT1290</name></trkpt>
<trkpt lat="51.555120" lon="03.763012"><ele>23.2</ele><time>2022-11-15T10:41:09Z</time><name>PT1291</name></trkpt>
<trkpt lat="51.555119" lon="03.763031"><ele>23.2</ele><time>2022-11-15T10:41:10Z</time><name>PT1292</name></trkpt>
<trkpt lat="51.555118" lon="03.763050"><ele>23.5</ele><time>2022-11-15T10:41:11Z</time><name>PT1293</name></trkpt>
<trkpt lat="51.555118" lon="03.763068"><ele>23.3</ele><time>2022-11-15T10:41:12Z</time><name>PT1294</name></trkpt>
<trkpt lat="51.555119" lon="03.763086"><ele>23.2</ele><time>2022-11-15T10:41:13Z</time><name>PT1295</name></trkpt>
<trkpt lat="51.555120" lon="03.763104"><ele>23.2</ele><time>2022-11-15T10:41:14Z</time><name>PT1296</name></trkpt>
<trkpt lat="51.555120" lon="03.763122"><ele>23</ele><time>2022-11-15T10:41:15Z</time><name>PT1297</name></trkpt>
<trkpt lat="51.555120" lon="03.763140"><ele>22.9</ele><time>2022-11-15T10:41:16Z</time><name>PT1298</name></trkpt>
<trkpt lat="51.555119" lon="03.763157"><ele>22.7</ele><time>2022-11-15T10:41:17Z</time><name>PT1299</name></trkpt>
<trkpt lat="51.555119" lon="03.763174"><ele>22.9</ele><time>2022-11-15T10:41:18Z</time><name>PT1300</name></trkpt>
<trkpt lat="51.555118" lon="03.763193"><ele>23.1</ele><time>2022-11-15T10:41:19Z</time><name>PT1301</name></trkpt>
<trkpt lat="51.555116" lon="03.763209"><ele>23</ele><time>2022-11-15T10:41:20Z</time><name>PT1302</name></trkpt>
<trkpt lat="51.555114" lon="03.763225"><ele>23</ele><time>2022-11-15T10:41:21Z</time><name>PT1303</name></trkpt>
<trkpt lat="51.555115" lon="03.763240"><ele>23.1</ele><time>2022-11-15T10:41:22Z</time><name>PT1304</name></trkpt>
<trkpt lat="51.555116" lon="03.763259"><ele>22.9</ele><time>2022-11-15T10:41:23Z</time><name>PT1305</name></trkpt>
<trkpt lat="51.555116" lon="03.763277"><ele>22.8</ele><time>2022-11-15T10:41:24Z</time><name>PT1306</name></trkpt>
<trkpt lat="51.555116" lon="03.763294"><ele>23</ele><time>2022-11-15T10:41:25Z</time><name>PT1307</name></trkpt>
<trkpt lat="51.555115" lon="03.763312"><ele>23</ele><time>2022-11-15T10:41:26Z</time><name>PT1308</name></trkpt>
<trkpt lat="51.555115" lon="03.763329"><ele>23</ele><time>2022-11-15T10:41:27Z</time><name>PT1309</name></trkpt>
<trkpt lat="51.555115" lon="03.763346"><ele>23.1</ele><time>2022-11-15T10:41:28Z</time><name>PT1310</name></trkpt>
<trkpt lat="51.555117" lon="03.763363"><ele>23.2</ele><time>2022-11-15T10:41:29Z</time><name>PT1311</name></trkpt>
<trkpt lat="51.555116" lon="03.763381"><ele>23.2</ele><time>2022-11-15T10:41:30Z</time><name>PT1312</name></trkpt>
<trkpt lat="51.555114" lon="03.763398"><ele>23.4</ele><time>2022-11-15T10:41:31Z</time><name>PT1313</name></trkpt>
<trkpt lat="51.555113" lon="03.763417"><ele>23.6</ele><time>2022-11-15T10:41:32Z</time><name>PT1314</name></trkpt>
<trkpt lat="51.555110" lon="03.763435"><ele>23.4</ele><time>2022-11-15T10:41:33Z</time><name>PT1315</name></trkpt>
<trkpt lat="51.555108" lon="03.763453"><ele>23.6</ele><time>2022-11-15T10:41:34Z</time><name>PT1316</name></trkpt>
<trkpt lat="51.555107" lon="03.763472"><ele>23.6</ele><time>2022-11-15T10:41:35Z</time><name>PT1317</name></trkpt>
<trkpt lat="51.555104" lon="03.763494"><ele>23.5</ele><time>2022-11-15T10:41:36Z</time><name>PT1318</name></trkpt>
<trkpt lat="51.555102" lon="03.763513"><ele>23.2</ele><time>2022-11-15T10:41:37Z</time><name>PT1319</name></trkpt>
<trkpt lat="51.555100" lon="03.763530"><ele>23.3</ele><time>2022-11-15T10:41:38Z</time><name>PT1320</name></trkpt>
<trkpt lat="51.555099" lon="03.763549"><ele>23.2</ele><time>2022-11-15T10:41:39Z</time><name>PT1321</name></trkpt>
<trkpt lat="51.555097" lon="03.763567"><ele>23.3</ele><time>2022-11-15T10:41:40Z</time><name>PT1322</name></trkpt>
<trkpt lat="51.555097" lon="03.763588"><ele>23.4</ele><time>2022-11-15T10:41:41Z</time><name>PT1323</name></trkpt>
<trkpt lat="51.555096" lon="03.763608"><ele>23.7</ele><time>2022-11-15T10:41:42Z</time><name>PT1324</name></trkpt>
<trkpt lat="51.555094" lon="03.763627"><ele>23.6</ele><time>2022-11-15T10:41:43Z</time><name>PT1325</name></trkpt>
<trkpt lat="51.555094" lon="03.763647"><ele>23.4</ele><time>2022-11-15T10:41:44Z</time><name>PT1326</name></trkpt>
<trkpt lat="51.555093" lon="03.763666"><ele>23.5</ele><time>2022-11-15T10:41:45Z</time><name>PT1327</name></trkpt>
<trkpt lat="51.555093" lon="03.763685"><ele>23.4</ele><time>2022-11-15T10:41:46Z</time><name>PT1328</name></trkpt>
<trkpt lat="51.555093" lon="03.763705"><ele>23.4</ele><time>2022-11-15T10:41:47Z</time><name>PT1329</name></trkpt>
<trkpt lat="51.555093" lon="03.763724"><ele>23.5</ele><time>2022-11-15T10:41:48Z</time><name>PT1330</name></trkpt>
<trkpt lat="51.555092" lon="03.763741"><ele>23.6</ele><time>2022-11-15T10:41:49Z</time><name>PT1331</name></trkpt>
<trkpt lat="51.555091" lon="03.763759"><ele>23.4</ele><time>2022-11-15T10:41:50Z</time><name>PT1332</name></trkpt>
<trkpt lat="51.555092" lon="03.763778"><ele>23.2</ele><time>2022-11-15T10:41:51Z</time><name>PT1333</name></trkpt>
<trkpt lat="51.555091" lon="03.763797"><ele>23.2</ele><time>2022-11-15T10:41:52Z</time><name>PT1334</name></trkpt>
<trkpt lat="51.555088" lon="03.763816"><ele>23.2</ele><time>2022-11-15T10:41:53Z</time><name>PT1335</name></trkpt>
<trkpt lat="51.555087" lon="03.763834"><ele>23.1</ele><time>2022-11-15T10:41:54Z</time><name>PT1336</name></trkpt>
<trkpt lat="51.555086" lon="03.763854"><ele>23.1</ele><time>2022-11-15T10:41:55Z</time><name>PT1337</name></trkpt>
<trkpt lat="51.555085" lon="03.763875"><ele>23.2</ele><time>2022-11-15T10:41:56Z</time><name>PT1338</name></trkpt>
<trkpt lat="51.555083" lon="03.763896"><ele>23.2</ele><time>2022-11-15T10:41:57Z</time><name>PT1339</name></trkpt>
<trkpt lat="51.555080" lon="03.763916"><ele>23.1</ele><time>2022-11-15T10:41:58Z</time><name>PT1340</name></trkpt>
<trkpt lat="51.555079" lon="03.763934"><ele>23.2</ele><time>2022-11-15T10:41:59Z</time><name>PT1341</name></trkpt>
<trkpt lat="51.555078" lon="03.763953"><ele>23.2</ele><time>2022-11-15T10:42:00Z</time><name>PT1342</name></trkpt>
<trkpt lat="51.555077" lon="03.763972"><ele>23.4</ele><time>2022-11-15T10:42:01Z</time><name>PT1343</name></trkpt>
<trkpt lat="51.555077" lon="03.763991"><ele>23.4</ele><time>2022-11-15T10:42:02Z</time><name>PT1344</name></trkpt>
<trkpt lat="51.555076" lon="03.764012"><ele>23.4</ele><time>2022-11-15T10:42:03Z</time><name>PT1345</name></trkpt>
<trkpt lat="51.555076" lon="03.764033"><ele>23.3</ele><time>2022-11-15T10:42:04Z</time><name>PT1346</name></trkpt>
<trkpt lat="51.555075" lon="03.764053"><ele>23.2</ele><time>2022-11-15T10:42:05Z</time><name>PT1347</name></trkpt>
<trkpt lat="51.555074" lon="03.764075"><ele>23.2</ele><time>2022-11-15T10:42:06Z</time><name>PT1348</name></trkpt>
<trkpt lat="51.555074" lon="03.764095"><ele>23.1</ele><time>2022-11-15T10:42:07Z</time><name>PT1349</name></trkpt>
<trkpt lat="51.555074" lon="03.764114"><ele>23</ele><time>2022-11-15T10:42:08Z</time><name>PT1350</name></trkpt>
<trkpt lat="51.555075" lon="03.764134"><ele>23.1</ele><time>2022-11-15T10:42:09Z</time><name>PT1351</name></trkpt>
<trkpt lat="51.555076" lon="03.764154"><ele>23.2</ele><time>2022-11-15T10:42:10Z</time><name>PT1352</name></trkpt>
<trkpt lat="51.555075" lon="03.764172"><ele>23.2</ele><time>2022-11-15T10:42:11Z</time><name>PT1353</name></trkpt>
<trkpt lat="51.555075" lon="03.764187"><ele>23.2</ele><time>2022-11-15T10:42:12Z</time><name>PT1354</name></trkpt>
<trkpt lat="51.555073" lon="03.764204"><ele>23.2</ele><time>2022-11-15T10:42:13Z</time><name>PT1355</name></trkpt>
<trkpt lat="51.555073" lon="03.764222"><ele>23.3</ele><time>2022-11-15T10:42:14Z</time><name>PT1356</name></trkpt>
<trkpt lat="51.555072" lon="03.764242"><ele>23.2</ele><time>2022-11-15T10:42:15Z</time><name>PT1357</name></trkpt>
<trkpt lat="51.555070" lon="03.764263"><ele>23.3</ele><time>2022-11-15T10:42:16Z</time><name>PT1358</name></trkpt>
<trkpt lat="51.555069" lon="03.764283"><ele>23.3</ele><time>2022-11-15T10:42:17Z</time><name>PT1359</name></trkpt>
<trkpt lat="51.555068" lon="03.764304"><ele>23.4</ele><time>2022-11-15T10:42:18Z</time><name>PT1360</name></trkpt>
<trkpt lat="51.555066" lon="03.764325"><ele>23.6</ele><time>2022-11-15T10:42:19Z</time><name>PT1361</name></trkpt>
<trkpt lat="51.555065" lon="03.764343"><ele>23.7</ele><time>2022-11-15T10:42:20Z</time><name>PT1362</name></trkpt>
<trkpt lat="51.555065" lon="03.764359"><ele>23.7</ele><time>2022-11-15T10:42:21Z</time><name>PT1363</name></trkpt>
<trkpt lat="51.555064" lon="03.764376"><ele>23.6</ele><time>2022-11-15T10:42:22Z</time><name>PT1364</name></trkpt>
<trkpt lat="51.555063" lon="03.764394"><ele>23.5</ele><time>2022-11-15T10:42:23Z</time><name>PT1365</name></trkpt>
<trkpt lat="51.555063" lon="03.764413"><ele>23.5</ele><time>2022-11-15T10:42:24Z</time><name>PT1366</name></trkpt>
<trkpt lat="51.555063" lon="03.764435"><ele>23.4</ele><time>2022-11-15T10:42:25Z</time><name>PT1367</name></trkpt>
<trkpt lat="51.555063" lon="03.764455"><ele>23.3</ele><time>2022-11-15T10:42:26Z</time><name>PT1368</name></trkpt>
<trkpt lat="51.555063" lon="03.764475"><ele>23.4</ele><time>2022-11-15T10:42:27Z</time><name>PT1369</name></trkpt>
<trkpt lat="51.555064" lon="03.764493"><ele>23.4</ele><time>2022-11-15T10:42:28Z</time><name>PT1370</name></trkpt>
<trkpt lat="51.555065" lon="03.764513"><ele>23.2</ele><time>2022-11-15T10:42:29Z</time><name>PT1371</name></trkpt>
<trkpt lat="51.555066" lon="03.764529"><ele>23.1</ele><time>2022-11-15T10:42:30Z</time><name>PT1372</name></trkpt>
<trkpt lat="51.555066" lon="03.764544"><ele>23.1</ele><time>2022-11-15T10:42:31Z</time><name>PT1373</name></trkpt>
<trkpt lat="51.555064" lon="03.764561"><ele>23.1</ele><time>2022-11-15T10:42:32Z</time><name>PT1374</name></trkpt>
<trkpt lat="51.555062" lon="03.764578"><ele>23</ele><time>2022-11-15T10:42:33Z</time><name>PT1375</name></trkpt>
<trkpt lat="51.555060" lon="03.764596"><ele>23</ele><time>2022-11-15T10:42:34Z</time><name>PT1376</name></trkpt>
<trkpt lat="51.555058" lon="03.764615"><ele>23</ele><time>2022-11-15T10:42:35Z</time><name>PT1377</name></trkpt>
<trkpt lat="51.555056" lon="03.764634"><ele>22.9</ele><time>2022-11-15T10:42:36Z</time><name>PT1378</name></trkpt>
<trkpt lat="51.555053" lon="03.764656"><ele>23</ele><time>2022-11-15T10:42:37Z</time><name>PT1379</name></trkpt>
<trkpt lat="51.555052" lon="03.764676"><ele>23.1</ele><time>2022-11-15T10:42:38Z</time><name>PT1380</name></trkpt>
<trkpt lat="51.555050" lon="03.764698"><ele>23.2</ele><time>2022-11-15T10:42:39Z</time><name>PT1381</name></trkpt>
<trkpt lat="51.555049" lon="03.764717"><ele>23.2</ele><time>2022-11-15T10:42:40Z</time><name>PT1382</name></trkpt>
<trkpt lat="51.555048" lon="03.764734"><ele>22.9</ele><time>2022-11-15T10:42:41Z</time><name>PT1383</name></trkpt>
<trkpt lat="51.555046" lon="03.764756"><ele>23.1</ele><time>2022-11-15T10:42:42Z</time><name>PT1384</name></trkpt>
<trkpt lat="51.555046" lon="03.764775"><ele>22.9</ele><time>2022-11-15T10:42:43Z</time><name>PT1385</name></trkpt>
<trkpt lat="51.555046" lon="03.764796"><ele>22.9</ele><time>2022-11-15T10:42:44Z</time><name>PT1386</name></trkpt>
<trkpt lat="51.555046" lon="03.764817"><ele>23.2</ele><time>2022-11-15T10:42:45Z</time><name>PT1387</name></trkpt>
<trkpt lat="51.555046" lon="03.764837"><ele>23.5</ele><time>2022-11-15T10:42:46Z</time><name>PT1388</name></trkpt>
<trkpt lat="51.555046" lon="03.764857"><ele>23.3</ele><time>2022-11-15T10:42:47Z</time><name>PT1389</name></trkpt>
<trkpt lat="51.555045" lon="03.764877"><ele>23.6</ele><time>2022-11-15T10:42:48Z</time><name>PT1390</name></trkpt>
<trkpt lat="51.555045" lon="03.764897"><ele>23.7</ele><time>2022-11-15T10:42:49Z</time><name>PT1391</name></trkpt>
<trkpt lat="51.555044" lon="03.764916"><ele>23.8</ele><time>2022-11-15T10:42:50Z</time><name>PT1392</name></trkpt>
<trkpt lat="51.555043" lon="03.764934"><ele>23.5</ele><time>2022-11-15T10:42:51Z</time><name>PT1393</name></trkpt>
<trkpt lat="51.555041" lon="03.764953"><ele>23.5</ele><time>2022-11-15T10:42:52Z</time><name>PT1394</name></trkpt>
<trkpt lat="51.555040" lon="03.764973"><ele>23.4</ele><time>2022-11-15T10:42:53Z</time><name>PT1395</name></trkpt>
<trkpt lat="51.555038" lon="03.764994"><ele>23.3</ele><time>2022-11-15T10:42:54Z</time><name>PT1396</name></trkpt>
<trkpt lat="51.555037" lon="03.765012"><ele>23.3</ele><time>2022-11-15T10:42:55Z</time><name>PT1397</name></trkpt>
<trkpt lat="51.555036" lon="03.765031"><ele>23.4</ele><time>2022-11-15T10:42:56Z</time><name>PT1398</name></trkpt>
<trkpt lat="51.555033" lon="03.765050"><ele>23.2</ele><time>2022-11-15T10:42:57Z</time><name>PT1399</name></trkpt>
<trkpt lat="51.555031" lon="03.765071"><ele>23.5</ele><time>2022-11-15T10:42:58Z</time><name>PT1400</name></trkpt>
<trkpt lat="51.555029" lon="03.765090"><ele>23.3</ele><time>2022-11-15T10:42:59Z</time><name>PT1401</name></trkpt>
<trkpt lat="51.555029" lon="03.765107"><ele>23.3</ele><time>2022-11-15T10:43:00Z</time><name>PT1402</name></trkpt>
<trkpt lat="51.555028" lon="03.765126"><ele>23.3</ele><time>2022-11-15T10:43:01Z</time><name>PT1403</name></trkpt>
<trkpt lat="51.555027" lon="03.765146"><ele>23.2</ele><time>2022-11-15T10:43:02Z</time><name>PT1404</name></trkpt>
<trkpt lat="51.555024" lon="03.765166"><ele>23</ele><time>2022-11-15T10:43:03Z</time><name>PT1405</name></trkpt>
<trkpt lat="51.555022" lon="03.765186"><ele>22.9</ele><time>2022-11-15T10:43:04Z</time><name>PT1406</name></trkpt>
<trkpt lat="51.555021" lon="03.765203"><ele>23</ele><time>2022-11-15T10:43:05Z</time><name>PT1407</name></trkpt>
<trkpt lat="51.555021" lon="03.765221"><ele>22.7</ele><time>2022-11-15T10:43:06Z</time><name>PT1408</name></trkpt>
<trkpt lat="51.555021" lon="03.765238"><ele>22.7</ele><time>2022-11-15T10:43:07Z</time><name>PT1409</name></trkpt>
<trkpt lat="51.555021" lon="03.765256"><ele>22.8</ele><time>2022-11-15T10:43:08Z</time><name>PT1410</name></trkpt>
<trkpt lat="51.555019" lon="03.765272"><ele>22.7</ele><time>2022-11-15T10:43:09Z</time><name>PT1411</name></trkpt>
<trkpt lat="51.555018" lon="03.765288"><ele>22.7</ele><time>2022-11-15T10:43:10Z</time><name>PT1412</name></trkpt>
<trkpt lat="51.555016" lon="03.765307"><ele>22.8</ele><time>2022-11-15T10:43:11Z</time><name>PT1413</name></trkpt>
<trkpt lat="51.555015" lon="03.765325"><ele>22.8</ele><time>2022-11-15T10:43:12Z</time><name>PT1414</name></trkpt>
<trkpt lat="51.555014" lon="03.765345"><ele>22.7</ele><time>2022-11-15T10:43:13Z</time><name>PT1415</name></trkpt>
<trkpt lat="51.555013" lon="03.765365"><ele>22.8</ele><time>2022-11-15T10:43:14Z</time><name>PT1416</name></trkpt>
<trkpt lat="51.555013" lon="03.765383"><ele>22.8</ele><time>2022-11-15T10:43:15Z</time><name>PT1417</name></trkpt>
<trkpt lat="51.555014" lon="03.765399"><ele>22.8</ele><time>2022-11-15T10:43:16Z</time><name>PT1418</name></trkpt>
<trkpt lat="51.555014" lon="03.765418"><ele>23.1</ele><time>2022-11-15T10:43:17Z</time><name>PT1419</name></trkpt>
<trkpt lat="51.555013" lon="03.765436"><ele>23</ele><time>2022-11-15T10:43:18Z</time><name>PT1420</name></trkpt>
<trkpt lat="51.555010" lon="03.765456"><ele>23.2</ele><time>2022-11-15T10:43:19Z</time><name>PT1421</name></trkpt>
<trkpt lat="51.555009" lon="03.765476"><ele>23.2</ele><time>2022-11-15T10:43:20Z</time><name>PT1422</name></trkpt>
<trkpt lat="51.555009" lon="03.765493"><ele>23.1</ele><time>2022-11-15T10:43:21Z</time><name>PT1423</name></trkpt>
<trkpt lat="51.555009" lon="03.765510"><ele>22.9</ele><time>2022-11-15T10:43:22Z</time><name>PT1424</name></trkpt>
<trkpt lat="51.555009" lon="03.765528"><ele>22.9</ele><time>2022-11-15T10:43:23Z</time><name>PT1425</name></trkpt>
<trkpt lat="51.555009" lon="03.765547"><ele>22.9</ele><time>2022-11-15T10:43:24Z</time><name>PT1426</name></trkpt>
<trkpt lat="51.555010" lon="03.765566"><ele>22.9</ele><time>2022-11-15T10:43:25Z</time><name>PT1427</name></trkpt>
<trkpt lat="51.555011" lon="03.765585"><ele>22.9</ele><time>2022-11-15T10:43:26Z</time><name>PT1428</name></trkpt>
<trkpt lat="51.555011" lon="03.765604"><ele>22.8</ele><time>2022-11-15T10:43:27Z</time><name>PT1429</name></trkpt>
<trkpt lat="51.555011" lon="03.765625"><ele>22.7</ele><time>2022-11-15T10:43:28Z</time><name>PT1430</name></trkpt>
<trkpt lat="51.555010" lon="03.765643"><ele>22.7</ele><time>2022-11-15T10:43:29Z</time><name>PT1431</name></trkpt>
<trkpt lat="51.555009" lon="03.765664"><ele>22.6</ele><time>2022-11-15T10:43:30Z</time><name>PT1432</name></trkpt>
<trkpt lat="51.555010" lon="03.765683"><ele>22.6</ele><time>2022-11-15T10:43:31Z</time><name>PT1433</name></trkpt>
<trkpt lat="51.555011" lon="03.765703"><ele>22.7</ele><time>2022-11-15T10:43:32Z</time><name>PT1434</name></trkpt>
<trkpt lat="51.555010" lon="03.765720"><ele>22.7</ele><time>2022-11-15T10:43:33Z</time><name>PT1435</name></trkpt>
<trkpt lat="51.555010" lon="03.765737"><ele>22.7</ele><time>2022-11-15T10:43:34Z</time><name>PT1436</name></trkpt>
<trkpt lat="51.555009" lon="03.765754"><ele>22.6</ele><time>2022-11-15T10:43:35Z</time><name>PT1437</name></trkpt>
<trkpt lat="51.555008" lon="03.765771"><ele>22.7</ele><time>2022-11-15T10:43:36Z</time><name>PT1438</name></trkpt>
<trkpt lat="51.555008" lon="03.765791"><ele>22.7</ele><time>2022-11-15T10:43:37Z</time><name>PT1439</name></trkpt>
<trkpt lat="51.555006" lon="03.765810"><ele>22.5</ele><time>2022-11-15T10:43:38Z</time><name>PT1440</name></trkpt>
<trkpt lat="51.555005" lon="03.765829"><ele>22.5</ele><time>2022-11-15T10:43:39Z</time><name>PT1441</name></trkpt>
<trkpt lat="51.555003" lon="03.765849"><ele>22.5</ele><time>2022-11-15T10:43:40Z</time><name>PT1442</name></trkpt>
<trkpt lat="51.555001" lon="03.765870"><ele>22.3</ele><time>2022-11-15T10:43:41Z</time><name>PT1443</name></trkpt>
<trkpt lat="51.554999" lon="03.765889"><ele>22.4</ele><time>2022-11-15T10:43:42Z</time><name>PT1444</name></trkpt>
<trkpt lat="51.554996" lon="03.765908"><ele>22.3</ele><time>2022-11-15T10:43:43Z</time><name>PT1445</name></trkpt>
<trkpt lat="51.554994" lon="03.765926"><ele>22.3</ele><time>2022-11-15T10:43:44Z</time><name>PT1446</name></trkpt>
<trkpt lat="51.554993" lon="03.765943"><ele>22.5</ele><time>2022-11-15T10:43:45Z</time><name>PT1447</name></trkpt>
<trkpt lat="51.554992" lon="03.765961"><ele>22.4</ele><time>2022-11-15T10:43:46Z</time><name>PT1448</name></trkpt>
<trkpt lat="51.554990" lon="03.765979"><ele>22.5</ele><time>2022-11-15T10:43:47Z</time><name>PT1449</name></trkpt>
<trkpt lat="51.554989" lon="03.765998"><ele>22.6</ele><time>2022-11-15T10:43:48Z</time><name>PT1450</name></trkpt>
<trkpt lat="51.554989" lon="03.766019"><ele>22.6</ele><time>2022-11-15T10:43:49Z</time><name>PT1451</name></trkpt>
<trkpt lat="51.554988" lon="03.766040"><ele>22.7</ele><time>2022-11-15T10:43:50Z</time><name>PT1452</name></trkpt>
<trkpt lat="51.554987" lon="03.766061"><ele>23</ele><time>2022-11-15T10:43:51Z</time><name>PT1453</name></trkpt>
<trkpt lat="51.554987" lon="03.766080"><ele>23.1</ele><time>2022-11-15T10:43:52Z</time><name>PT1454</name></trkpt>
<trkpt lat="51.554988" lon="03.766097"><ele>23.2</ele><time>2022-11-15T10:43:53Z</time><name>PT1455</name></trkpt>
<trkpt lat="51.554987" lon="03.766113"><ele>23.2</ele><time>2022-11-15T10:43:54Z</time><name>PT1456</name></trkpt>
<trkpt lat="51.554987" lon="03.766128"><ele>23.1</ele><time>2022-11-15T10:43:55Z</time><name>PT1457</name></trkpt>
<trkpt lat="51.554985" lon="03.766145"><ele>23.1</ele><time>2022-11-15T10:43:56Z</time><name>PT1458</name></trkpt>
<trkpt lat="51.554983" lon="03.766163"><ele>23.1</ele><time>2022-11-15T10:43:57Z</time><name>PT1459</name></trkpt>
<trkpt lat="51.554979" lon="03.766176"><ele>23.2</ele><time>2022-11-15T10:43:58Z</time><name>PT1460</name></trkpt>
<trkpt lat="51.554978" lon="03.766187"><ele>23.2</ele><time>2022-11-15T10:43:59Z</time><name>PT1461</name></trkpt>
<trkpt lat="51.554978" lon="03.766196"><ele>23.2</ele><time>2022-11-15T10:44:00Z</time><name>PT1462</name></trkpt>
<trkpt lat="51.554976" lon="03.766199"><ele>23.2</ele><time>2022-11-15T10:44:01Z</time><name>PT1463</name></trkpt>
<trkpt lat="51.554978" lon="03.766202"><ele>23.2</ele><time>2022-11-15T10:44:02Z</time><name>PT1464</name></trkpt>
<trkpt lat="51.554979" lon="03.766208"><ele>23.2</ele><time>2022-11-15T10:44:03Z</time><name>PT1465</name></trkpt>
<trkpt lat="51.554977" lon="03.766218"><ele>23.2</ele><time>2022-11-15T10:44:04Z</time><name>PT1466</name></trkpt>
<trkpt lat="51.554976" lon="03.766227"><ele>23.1</ele><time>2022-11-15T10:44:05Z</time><name>PT1467</name></trkpt>
<trkpt lat="51.554973" lon="03.766233"><ele>22.9</ele><time>2022-11-15T10:44:06Z</time><name>PT1468</name></trkpt>
<trkpt lat="51.554971" lon="03.766234"><ele>22.7</ele><time>2022-11-15T10:44:07Z</time><name>PT1469</name></trkpt>
<trkpt lat="51.554973" lon="03.766237"><ele>22.9</ele><time>2022-11-15T10:44:08Z</time><name>PT1470</name></trkpt>
<trkpt lat="51.554973" lon="03.766238"><ele>22.9</ele><time>2022-11-15T10:44:09Z</time><name>PT1471</name></trkpt>
<trkpt lat="51.554971" lon="03.766244"><ele>23</ele><time>2022-11-15T10:44:10Z</time><name>PT1472</name></trkpt>
<trkpt lat="51.554966" lon="03.766255"><ele>23.1</ele><time>2022-11-15T10:44:11Z</time><name>PT1473</name></trkpt>
<trkpt lat="51.554963" lon="03.766251"><ele>23.1</ele><time>2022-11-15T10:44:13Z</time><name>PT1474</name></trkpt>
<trkpt lat="51.554963" lon="03.766258"><ele>23</ele><time>2022-11-15T10:44:14Z</time><name>PT1475</name></trkpt>
<trkpt lat="51.554960" lon="03.766260"><ele>22.9</ele><time>2022-11-15T10:44:15Z</time><name>PT1476</name></trkpt>
<trkpt lat="51.554959" lon="03.766267"><ele>22.8</ele><time>2022-11-15T10:44:16Z</time><name>PT1477</name></trkpt>
<trkpt lat="51.554960" lon="03.766281"><ele>23</ele><time>2022-11-15T10:44:17Z</time><name>PT1478</name></trkpt>
<trkpt lat="51.554960" lon="03.766301"><ele>23.1</ele><time>2022-11-15T10:44:18Z</time><name>PT1479</name></trkpt>
<trkpt lat="51.554960" lon="03.766315"><ele>23.1</ele><time>2022-11-15T10:44:19Z</time><name>PT1480</name></trkpt>
<trkpt lat="51.554960" lon="03.766330"><ele>23.2</ele><time>2022-11-15T10:44:20Z</time><name>PT1481</name></trkpt>
<trkpt lat="51.554960" lon="03.766346"><ele>23.4</ele><time>2022-11-15T10:44:21Z</time><name>PT1482</name></trkpt>
<trkpt lat="51.554959" lon="03.766362"><ele>23.3</ele><time>2022-11-15T10:44:22Z</time><name>PT1483</name></trkpt>
<trkpt lat="51.554962" lon="03.766381"><ele>23.2</ele><time>2022-11-15T10:44:23Z</time><name>PT1484</name></trkpt>
<trkpt lat="51.554963" lon="03.766401"><ele>23.1</ele><time>2022-11-15T10:44:24Z</time><name>PT1485</name></trkpt>
<trkpt lat="51.554963" lon="03.766418"><ele>23.2</ele><time>2022-11-15T10:44:25Z</time><name>PT1486</name></trkpt>
<trkpt lat="51.554961" lon="03.766434"><ele>23.2</ele><time>2022-11-15T10:44:26Z</time><name>PT1487</name></trkpt>
<trkpt lat="51.554959" lon="03.766450"><ele>23.5</ele><time>2022-11-15T10:44:27Z</time><name>PT1488</name></trkpt>
<trkpt lat="51.554958" lon="03.766471"><ele>23.6</ele><time>2022-11-15T10:44:28Z</time><name>PT1489</name></trkpt>
<trkpt lat="51.554958" lon="03.766491"><ele>23.7</ele><time>2022-11-15T10:44:29Z</time><name>PT1490</name></trkpt>
<trkpt lat="51.554958" lon="03.766511"><ele>23.6</ele><time>2022-11-15T10:44:30Z</time><name>PT1491</name></trkpt>
<trkpt lat="51.554959" lon="03.766531"><ele>23.6</ele><time>2022-11-15T10:44:31Z</time><name>PT1492</name></trkpt>
<trkpt lat="51.554959" lon="03.766550"><ele>23.6</ele><time>2022-11-15T10:44:32Z</time><name>PT1493</name></trkpt>
<trkpt lat="51.554958" lon="03.766568"><ele>23.8</ele><time>2022-11-15T10:44:33Z</time><name>PT1494</name></trkpt>
<trkpt lat="51.554958" lon="03.766586"><ele>24.1</ele><time>2022-11-15T10:44:34Z</time><name>PT1495</name></trkpt>
<trkpt lat="51.554958" lon="03.766605"><ele>24.2</ele><time>2022-11-15T10:44:35Z</time><name>PT1496</name></trkpt>
<trkpt lat="51.554956" lon="03.766625"><ele>24.2</ele><time>2022-11-15T10:44:36Z</time><name>PT1497</name></trkpt>
<trkpt lat="51.554956" lon="03.766645"><ele>24</ele><time>2022-11-15T10:44:37Z</time><name>PT1498</name></trkpt>
<trkpt lat="51.554954" lon="03.766666"><ele>23.8</ele><time>2022-11-15T10:44:38Z</time><name>PT1499</name></trkpt>
<trkpt lat="51.554953" lon="03.766686"><ele>23.7</ele><time>2022-11-15T10:44:39Z</time><name>PT1500</name></trkpt>
<trkpt lat="51.554952" lon="03.766704"><ele>23.4</ele><time>2022-11-15T10:44:40Z</time><name>PT1501</name></trkpt>
<trkpt lat="51.554951" lon="03.766723"><ele>23.4</ele><time>2022-11-15T10:44:41Z</time><name>PT1502</name></trkpt>
<trkpt lat="51.554950" lon="03.766743"><ele>23.3</ele><time>2022-11-15T10:44:42Z</time><name>PT1503</name></trkpt>
<trkpt lat="51.554950" lon="03.766764"><ele>23.2</ele><time>2022-11-15T10:44:43Z</time><name>PT1504</name></trkpt>
<trkpt lat="51.554949" lon="03.766786"><ele>23.3</ele><time>2022-11-15T10:44:44Z</time><name>PT1505</name></trkpt>
<trkpt lat="51.554949" lon="03.766807"><ele>23.6</ele><time>2022-11-15T10:44:45Z</time><name>PT1506</name></trkpt>
<trkpt lat="51.554949" lon="03.766824"><ele>23.7</ele><time>2022-11-15T10:44:46Z</time><name>PT1507</name></trkpt>
<trkpt lat="51.554948" lon="03.766840"><ele>23.8</ele><time>2022-11-15T10:44:47Z</time><name>PT1508</name></trkpt>
<trkpt lat="51.554948" lon="03.766858"><ele>23.9</ele><time>2022-11-15T10:44:48Z</time><name>PT1509</name></trkpt>
<trkpt lat="51.554948" lon="03.766874"><ele>23.8</ele><time>2022-11-15T10:44:49Z</time><name>PT1510</name></trkpt>
<trkpt lat="51.554947" lon="03.766892"><ele>23.7</ele><time>2022-11-15T10:44:50Z</time><name>PT1511</name></trkpt>
<trkpt lat="51.554947" lon="03.766909"><ele>23.8</ele><time>2022-11-15T10:44:51Z</time><name>PT1512</name></trkpt>
<trkpt lat="51.554946" lon="03.766927"><ele>23.6</ele><time>2022-11-15T10:44:52Z</time><name>PT1513</name></trkpt>
<trkpt lat="51.554945" lon="03.766943"><ele>23.5</ele><time>2022-11-15T10:44:53Z</time><name>PT1514</name></trkpt>
<trkpt lat="51.554943" lon="03.766961"><ele>23.5</ele><time>2022-11-15T10:44:54Z</time><name>PT1515</name></trkpt>
<trkpt lat="51.554942" lon="03.766981"><ele>23.4</ele><time>2022-11-15T10:44:55Z</time><name>PT1516</name></trkpt>
<trkpt lat="51.554941" lon="03.767000"><ele>23.5</ele><time>2022-11-15T10:44:56Z</time><name>PT1517</name></trkpt>
<trkpt lat="51.554939" lon="03.767019"><ele>23.7</ele><time>2022-11-15T10:44:57Z</time><name>PT1518</name></trkpt>
<trkpt lat="51.554938" lon="03.767039"><ele>23.7</ele><time>2022-11-15T10:44:58Z</time><name>PT1519</name></trkpt>
<trkpt lat="51.554937" lon="03.767061"><ele>23.7</ele><time>2022-11-15T10:44:59Z</time><name>PT1520</name></trkpt>
<trkpt lat="51.554935" lon="03.767082"><ele>23.5</ele><time>2022-11-15T10:45:00Z</time><name>PT1521</name></trkpt>
<trkpt lat="51.554931" lon="03.767104"><ele>23.5</ele><time>2022-11-15T10:45:01Z</time><name>PT1522</name></trkpt>
<trkpt lat="51.554929" lon="03.767122"><ele>23.7</ele><time>2022-11-15T10:45:02Z</time><name>PT1523</name></trkpt>
<trkpt lat="51.554928" lon="03.767140"><ele>23.6</ele><time>2022-11-15T10:45:03Z</time><name>PT1524</name></trkpt>
<trkpt lat="51.554927" lon="03.767159"><ele>23.7</ele><time>2022-11-15T10:45:04Z</time><name>PT1525</name></trkpt>
<trkpt lat="51.554926" lon="03.767179"><ele>24</ele><time>2022-11-15T10:45:05Z</time><name>PT1526</name></trkpt>
<trkpt lat="51.554924" lon="03.767199"><ele>24.1</ele><time>2022-11-15T10:45:06Z</time><name>PT1527</name></trkpt>
<trkpt lat="51.554924" lon="03.767219"><ele>24.2</ele><time>2022-11-15T10:45:07Z</time><name>PT1528</name></trkpt>
<trkpt lat="51.554925" lon="03.767238"><ele>24.2</ele><time>2022-11-15T10:45:08Z</time><name>PT1529</name></trkpt>
<trkpt lat="51.554925" lon="03.767255"><ele>23.9</ele><time>2022-11-15T10:45:09Z</time><name>PT1530</name></trkpt>
<trkpt lat="51.554924" lon="03.767273"><ele>24</ele><time>2022-11-15T10:45:10Z</time><name>PT1531</name></trkpt>
<trkpt lat="51.554923" lon="03.767291"><ele>23.9</ele><time>2022-11-15T10:45:11Z</time><name>PT1532</name></trkpt>
<trkpt lat="51.554923" lon="03.767309"><ele>23.8</ele><time>2022-11-15T10:45:12Z</time><name>PT1533</name></trkpt>
<trkpt lat="51.554924" lon="03.767326"><ele>23.8</ele><time>2022-11-15T10:45:13Z</time><name>PT1534</name></trkpt>
<trkpt lat="51.554924" lon="03.767342"><ele>23.9</ele><time>2022-11-15T10:45:14Z</time><name>PT1535</name></trkpt>
<trkpt lat="51.554924" lon="03.767360"><ele>23.8</ele><time>2022-11-15T10:45:15Z</time><name>PT1536</name></trkpt>
<trkpt lat="51.554923" lon="03.767379"><ele>23.8</ele><time>2022-11-15T10:45:16Z</time><name>PT1537</name></trkpt>
<trkpt lat="51.554923" lon="03.767398"><ele>23.6</ele><time>2022-11-15T10:45:17Z</time><name>PT1538</name></trkpt>
<trkpt lat="51.554920" lon="03.767417"><ele>23.6</ele><time>2022-11-15T10:45:18Z</time><name>PT1539</name></trkpt>
<trkpt lat="51.554918" lon="03.767436"><ele>23.6</ele><time>2022-11-15T10:45:19Z</time><name>PT1540</name></trkpt>
<trkpt lat="51.554919" lon="03.767454"><ele>23.3</ele><time>2022-11-15T10:45:20Z</time><name>PT1541</name></trkpt>
<trkpt lat="51.554919" lon="03.767472"><ele>23.3</ele><time>2022-11-15T10:45:21Z</time><name>PT1542</name></trkpt>
<trkpt lat="51.554919" lon="03.767489"><ele>23.5</ele><time>2022-11-15T10:45:22Z</time><name>PT1543</name></trkpt>
<trkpt lat="51.554918" lon="03.767505"><ele>23.6</ele><time>2022-11-15T10:45:23Z</time><name>PT1544</name></trkpt>
<trkpt lat="51.554919" lon="03.767523"><ele>23.6</ele><time>2022-11-15T10:45:24Z</time><name>PT1545</name></trkpt>
<trkpt lat="51.554919" lon="03.767543"><ele>23.7</ele><time>2022-11-15T10:45:25Z</time><name>PT1546</name></trkpt>
<trkpt lat="51.554919" lon="03.767564"><ele>23.6</ele><time>2022-11-15T10:45:26Z</time><name>PT1547</name></trkpt>
<trkpt lat="51.554919" lon="03.767583"><ele>23.5</ele><time>2022-11-15T10:45:27Z</time><name>PT1548</name></trkpt>
<trkpt lat="51.554919" lon="03.767604"><ele>23.5</ele><time>2022-11-15T10:45:28Z</time><name>PT1549</name></trkpt>
<trkpt lat="51.554920" lon="03.767622"><ele>23.7</ele><time>2022-11-15T10:45:29Z</time><name>PT1550</name></trkpt>
<trkpt lat="51.554919" lon="03.767639"><ele>23.7</ele><time>2022-11-15T10:45:30Z</time><name>PT1551</name></trkpt>
<trkpt lat="51.554917" lon="03.767659"><ele>23.7</ele><time>2022-11-15T10:45:31Z</time><name>PT1552</name></trkpt>
<trkpt lat="51.554917" lon="03.767680"><ele>23.7</ele><time>2022-11-15T10:45:32Z</time><name>PT1553</name></trkpt>
<trkpt lat="51.554917" lon="03.767701"><ele>23.8</ele><time>2022-11-15T10:45:33Z</time><name>PT1554</name></trkpt>
<trkpt lat="51.554916" lon="03.767722"><ele>23.7</ele><time>2022-11-15T10:45:34Z</time><name>PT1555</name></trkpt>
<trkpt lat="51.554913" lon="03.767738"><ele>23.9</ele><time>2022-11-15T10:45:35Z</time><name>PT1556</name></trkpt>
<trkpt lat="51.554911" lon="03.767759"><ele>24.1</ele><time>2022-11-15T10:45:36Z</time><name>PT1557</name></trkpt>
<trkpt lat="51.554910" lon="03.767780"><ele>24.2</ele><time>2022-11-15T10:45:37Z</time><name>PT1558</name></trkpt>
<trkpt lat="51.554910" lon="03.767800"><ele>24.2</ele><time>2022-11-15T10:45:38Z</time><name>PT1559</name></trkpt>
<trkpt lat="51.554909" lon="03.767823"><ele>24.2</ele><time>2022-11-15T10:45:39Z</time><name>PT1560</name></trkpt>
<trkpt lat="51.554909" lon="03.767845"><ele>24.2</ele><time>2022-11-15T10:45:40Z</time><name>PT1561</name></trkpt>
<trkpt lat="51.554910" lon="03.767865"><ele>24.2</ele><time>2022-11-15T10:45:41Z</time><name>PT1562</name></trkpt>
<trkpt lat="51.554912" lon="03.767883"><ele>24</ele><time>2022-11-15T10:45:42Z</time><name>PT1563</name></trkpt>
<trkpt lat="51.554911" lon="03.767899"><ele>24</ele><time>2022-11-15T10:45:43Z</time><name>PT1564</name></trkpt>
<trkpt lat="51.554909" lon="03.767917"><ele>24.1</ele><time>2022-11-15T10:45:44Z</time><name>PT1565</name></trkpt>
<trkpt lat="51.554908" lon="03.767935"><ele>23.9</ele><time>2022-11-15T10:45:45Z</time><name>PT1566</name></trkpt>
<trkpt lat="51.554907" lon="03.767957"><ele>23.9</ele><time>2022-11-15T10:45:46Z</time><name>PT1567</name></trkpt>
<trkpt lat="51.554906" lon="03.767979"><ele>23.9</ele><time>2022-11-15T10:45:47Z</time><name>PT1568</name></trkpt>
<trkpt lat="51.554903" lon="03.768001"><ele>23.7</ele><time>2022-11-15T10:45:48Z</time><name>PT1569</name></trkpt>
<trkpt lat="51.554902" lon="03.768022"><ele>23.7</ele><time>2022-11-15T10:45:49Z</time><name>PT1570</name></trkpt>
<trkpt lat="51.554900" lon="03.768041"><ele>23.8</ele><time>2022-11-15T10:45:50Z</time><name>PT1571</name></trkpt>
<trkpt lat="51.554899" lon="03.768059"><ele>23.8</ele><time>2022-11-15T10:45:51Z</time><name>PT1572</name></trkpt>
<trkpt lat="51.554898" lon="03.768076"><ele>23.8</ele><time>2022-11-15T10:45:52Z</time><name>PT1573</name></trkpt>
<trkpt lat="51.554897" lon="03.768095"><ele>23.9</ele><time>2022-11-15T10:45:53Z</time><name>PT1574</name></trkpt>
<trkpt lat="51.554897" lon="03.768113"><ele>24</ele><time>2022-11-15T10:45:54Z</time><name>PT1575</name></trkpt>
<trkpt lat="51.554897" lon="03.768132"><ele>24.1</ele><time>2022-11-15T10:45:55Z</time><name>PT1576</name></trkpt>
<trkpt lat="51.554897" lon="03.768153"><ele>24.1</ele><time>2022-11-15T10:45:56Z</time><name>PT1577</name></trkpt>
<trkpt lat="51.554899" lon="03.768172"><ele>24</ele><time>2022-11-15T10:45:57Z</time><name>PT1578</name></trkpt>
<trkpt lat="51.554900" lon="03.768192"><ele>23.9</ele><time>2022-11-15T10:45:58Z</time><name>PT1579</name></trkpt>
<trkpt lat="51.554900" lon="03.768210"><ele>23.9</ele><time>2022-11-15T10:45:59Z</time><name>PT1580</name></trkpt>
<trkpt lat="51.554898" lon="03.768230"><ele>23.7</ele><time>2022-11-15T10:46:00Z</time><name>PT1581</name></trkpt>
<trkpt lat="51.554897" lon="03.768246"><ele>23.8</ele><time>2022-11-15T10:46:01Z</time><name>PT1582</name></trkpt>
<trkpt lat="51.554896" lon="03.768265"><ele>23.9</ele><time>2022-11-15T10:46:02Z</time><name>PT1583</name></trkpt>
<trkpt lat="51.554896" lon="03.768285"><ele>23.7</ele><time>2022-11-15T10:46:03Z</time><name>PT1584</name></trkpt>
<trkpt lat="51.554894" lon="03.768304"><ele>23.7</ele><time>2022-11-15T10:46:04Z</time><name>PT1585</name></trkpt>
<trkpt lat="51.554893" lon="03.768323"><ele>23.8</ele><time>2022-11-15T10:46:05Z</time><name>PT1586</name></trkpt>
<trkpt lat="51.554893" lon="03.768342"><ele>23.7</ele><time>2022-11-15T10:46:06Z</time><name>PT1587</name></trkpt>
<trkpt lat="51.554891" lon="03.768362"><ele>23.7</ele><time>2022-11-15T10:46:07Z</time><name>PT1588</name></trkpt>
<trkpt lat="51.554890" lon="03.768381"><ele>24</ele><time>2022-11-15T10:46:08Z</time><name>PT1589</name></trkpt>
<trkpt lat="51.554887" lon="03.768401"><ele>24.1</ele><time>2022-11-15T10:46:09Z</time><name>PT1590</name></trkpt>
<trkpt lat="51.554887" lon="03.768419"><ele>24.1</ele><time>2022-11-15T10:46:10Z</time><name>PT1591</name></trkpt>
<trkpt lat="51.554887" lon="03.768439"><ele>24.4</ele><time>2022-11-15T10:46:11Z</time><name>PT1592</name></trkpt>
<trkpt lat="51.554887" lon="03.768457"><ele>24.2</ele><time>2022-11-15T10:46:12Z</time><name>PT1593</name></trkpt>
<trkpt lat="51.554886" lon="03.768475"><ele>24.2</ele><time>2022-11-15T10:46:13Z</time><name>PT1594</name></trkpt>
<trkpt lat="51.554885" lon="03.768494"><ele>24.3</ele><time>2022-11-15T10:46:14Z</time><name>PT1595</name></trkpt>
<trkpt lat="51.554884" lon="03.768516"><ele>24.2</ele><time>2022-11-15T10:46:15Z</time><name>PT1596</name></trkpt>
<trkpt lat="51.554884" lon="03.768537"><ele>24.2</ele><time>2022-11-15T10:46:16Z</time><name>PT1597</name></trkpt>
<trkpt lat="51.554883" lon="03.768559"><ele>24.2</ele><time>2022-11-15T10:46:17Z</time><name>PT1598</name></trkpt>
<trkpt lat="51.554883" lon="03.768582"><ele>24.2</ele><time>2022-11-15T10:46:18Z</time><name>PT1599</name></trkpt>
<trkpt lat="51.554883" lon="03.768603"><ele>24</ele><time>2022-11-15T10:46:19Z</time><name>PT1600</name></trkpt>
<trkpt lat="51.554882" lon="03.768622"><ele>24.1</ele><time>2022-11-15T10:46:20Z</time><name>PT1601</name></trkpt>
<trkpt lat="51.554882" lon="03.768640"><ele>23.9</ele><time>2022-11-15T10:46:21Z</time><name>PT1602</name></trkpt>
<trkpt lat="51.554881" lon="03.768658"><ele>23.7</ele><time>2022-11-15T10:46:22Z</time><name>PT1603</name></trkpt>
<trkpt lat="51.554880" lon="03.768675"><ele>23.7</ele><time>2022-11-15T10:46:23Z</time><name>PT1604</name></trkpt>
<trkpt lat="51.554878" lon="03.768693"><ele>23.7</ele><time>2022-11-15T10:46:24Z</time><name>PT1605</name></trkpt>
<trkpt lat="51.554878" lon="03.768713"><ele>23.9</ele><time>2022-11-15T10:46:25Z</time><name>PT1606</name></trkpt>
<trkpt lat="51.554877" lon="03.768733"><ele>23.8</ele><time>2022-11-15T10:46:26Z</time><name>PT1607</name></trkpt>
<trkpt lat="51.554875" lon="03.768752"><ele>24.1</ele><time>2022-11-15T10:46:27Z</time><name>PT1608</name></trkpt>
<trkpt lat="51.554874" lon="03.768772"><ele>24.1</ele><time>2022-11-15T10:46:28Z</time><name>PT1609</name></trkpt>
<trkpt lat="51.554873" lon="03.768791"><ele>24</ele><time>2022-11-15T10:46:29Z</time><name>PT1610</name></trkpt>
<trkpt lat="51.554872" lon="03.768810"><ele>24</ele><time>2022-11-15T10:46:30Z</time><name>PT1611</name></trkpt>
<trkpt lat="51.554871" lon="03.768829"><ele>23.9</ele><time>2022-11-15T10:46:31Z</time><name>PT1612</name></trkpt>
<trkpt lat="51.554869" lon="03.768847"><ele>23.9</ele><time>2022-11-15T10:46:32Z</time><name>PT1613</name></trkpt>
<trkpt lat="51.554869" lon="03.768864"><ele>23.7</ele><time>2022-11-15T10:46:33Z</time><name>PT1614</name></trkpt>
<trkpt lat="51.554871" lon="03.768882"><ele>23.9</ele><time>2022-11-15T10:46:34Z</time><name>PT1615</name></trkpt>
<trkpt lat="51.554871" lon="03.768900"><ele>23.8</ele><time>2022-11-15T10:46:35Z</time><name>PT1616</name></trkpt>
<trkpt lat="51.554870" lon="03.768918"><ele>23.8</ele><time>2022-11-15T10:46:36Z</time><name>PT1617</name></trkpt>
<trkpt lat="51.554870" lon="03.768939"><ele>23.9</ele><time>2022-11-15T10:46:37Z</time><name>PT1618</name></trkpt>
<trkpt lat="51.554870" lon="03.768959"><ele>23.8</ele><time>2022-11-15T10:46:38Z</time><name>PT1619</name></trkpt>
<trkpt lat="51.554870" lon="03.768980"><ele>23.9</ele><time>2022-11-15T10:46:39Z</time><name>PT1620</name></trkpt>
<trkpt lat="51.554870" lon="03.769000"><ele>23.8</ele><time>2022-11-15T10:46:40Z</time><name>PT1621</name></trkpt>
<trkpt lat="51.554868" lon="03.769018"><ele>23.7</ele><time>2022-11-15T10:46:41Z</time><name>PT1622</name></trkpt>
<trkpt lat="51.554866" lon="03.769039"><ele>23.8</ele><time>2022-11-15T10:46:42Z</time><name>PT1623</name></trkpt>
<trkpt lat="51.554864" lon="03.769058"><ele>23.9</ele><time>2022-11-15T10:46:43Z</time><name>PT1624</name></trkpt>
<trkpt lat="51.554863" lon="03.769078"><ele>23.9</ele><time>2022-11-15T10:46:44Z</time><name>PT1625</name></trkpt>
<trkpt lat="51.554862" lon="03.769097"><ele>23.9</ele><time>2022-11-15T10:46:45Z</time><name>PT1626</name></trkpt>
<trkpt lat="51.554861" lon="03.769118"><ele>24.1</ele><time>2022-11-15T10:46:46Z</time><name>PT1627</name></trkpt>
<trkpt lat="51.554860" lon="03.769137"><ele>24.2</ele><time>2022-11-15T10:46:47Z</time><name>PT1628</name></trkpt>
<trkpt lat="51.554859" lon="03.769155"><ele>24.2</ele><time>2022-11-15T10:46:48Z</time><name>PT1629</name></trkpt>
<trkpt lat="51.554858" lon="03.769174"><ele>24.1</ele><time>2022-11-15T10:46:49Z</time><name>PT1630</name></trkpt>
<trkpt lat="51.554858" lon="03.769192"><ele>24.1</ele><time>2022-11-15T10:46:50Z</time><name>PT1631</name></trkpt>
<trkpt lat="51.554859" lon="03.769209"><ele>24.1</ele><time>2022-11-15T10:46:51Z</time><name>PT1632</name></trkpt>
<trkpt lat="51.554859" lon="03.769229"><ele>24</ele><time>2022-11-15T10:46:52Z</time><name>PT1633</name></trkpt>
<trkpt lat="51.554856" lon="03.769250"><ele>24</ele><time>2022-11-15T10:46:53Z</time><name>PT1634</name></trkpt>
<trkpt lat="51.554855" lon="03.769272"><ele>23.8</ele><time>2022-11-15T10:46:54Z</time><name>PT1635</name></trkpt>
<trkpt lat="51.554853" lon="03.769293"><ele>23.7</ele><time>2022-11-15T10:46:55Z</time><name>PT1636</name></trkpt>
<trkpt lat="51.554853" lon="03.769314"><ele>23.7</ele><time>2022-11-15T10:46:56Z</time><name>PT1637</name></trkpt>
<trkpt lat="51.554853" lon="03.769336"><ele>23.6</ele><time>2022-11-15T10:46:57Z</time><name>PT1638</name></trkpt>
<trkpt lat="51.554853" lon="03.769358"><ele>23.5</ele><time>2022-11-15T10:46:58Z</time><name>PT1639</name></trkpt>
<trkpt lat="51.554853" lon="03.769377"><ele>23.4</ele><time>2022-11-15T10:46:59Z</time><name>PT1640</name></trkpt>
<trkpt lat="51.554852" lon="03.769397"><ele>23.4</ele><time>2022-11-15T10:47:00Z</time><name>PT1641</name></trkpt>
<trkpt lat="51.554851" lon="03.769416"><ele>23.7</ele><time>2022-11-15T10:47:01Z</time><name>PT1642</name></trkpt>
<trkpt lat="51.554850" lon="03.769435"><ele>23.7</ele><time>2022-11-15T10:47:02Z</time><name>PT1643</name></trkpt>
<trkpt lat="51.554848" lon="03.769453"><ele>23.7</ele><time>2022-11-15T10:47:03Z</time><name>PT1644</name></trkpt>
<trkpt lat="51.554848" lon="03.769471"><ele>23.7</ele><time>2022-11-15T10:47:04Z</time><name>PT1645</name></trkpt>
<trkpt lat="51.554847" lon="03.769490"><ele>23.6</ele><time>2022-11-15T10:47:05Z</time><name>PT1646</name></trkpt>
<trkpt lat="51.554845" lon="03.769510"><ele>23.5</ele><time>2022-11-15T10:47:06Z</time><name>PT1647</name></trkpt>
<trkpt lat="51.554843" lon="03.769530"><ele>23.5</ele><time>2022-11-15T10:47:07Z</time><name>PT1648</name></trkpt>
<trkpt lat="51.554841" lon="03.769548"><ele>23.5</ele><time>2022-11-15T10:47:08Z</time><name>PT1649</name></trkpt>
<trkpt lat="51.554840" lon="03.769568"><ele>23.3</ele><time>2022-11-15T10:47:09Z</time><name>PT1650</name></trkpt>
<trkpt lat="51.554838" lon="03.769588"><ele>23.3</ele><time>2022-11-15T10:47:10Z</time><name>PT1651</name></trkpt>
<trkpt lat="51.554837" lon="03.769608"><ele>23.2</ele><time>2022-11-15T10:47:11Z</time><name>PT1652</name></trkpt>
<trkpt lat="51.554836" lon="03.769627"><ele>23.4</ele><time>2022-11-15T10:47:12Z</time><name>PT1653</name></trkpt>
<trkpt lat="51.554836" lon="03.769644"><ele>23.4</ele><time>2022-11-15T10:47:13Z</time><name>PT1654</name></trkpt>
<trkpt lat="51.554836" lon="03.769662"><ele>23.5</ele><time>2022-11-15T10:47:14Z</time><name>PT1655</name></trkpt>
<trkpt lat="51.554835" lon="03.769681"><ele>23.6</ele><time>2022-11-15T10:47:15Z</time><name>PT1656</name></trkpt>
<trkpt lat="51.554835" lon="03.769700"><ele>23.4</ele><time>2022-11-15T10:47:16Z</time><name>PT1657</name></trkpt>
<trkpt lat="51.554834" lon="03.769720"><ele>23.4</ele><time>2022-11-15T10:47:17Z</time><name>PT1658</name></trkpt>
<trkpt lat="51.554834" lon="03.769739"><ele>23.4</ele><time>2022-11-15T10:47:18Z</time><name>PT1659</name></trkpt>
<trkpt lat="51.554833" lon="03.769757"><ele>23.5</ele><time>2022-11-15T10:47:19Z</time><name>PT1660</name></trkpt>
<trkpt lat="51.554832" lon="03.769775"><ele>23.7</ele><time>2022-11-15T10:47:20Z</time><name>PT1661</name></trkpt>
<trkpt lat="51.554830" lon="03.769795"><ele>23.7</ele><time>2022-11-15T10:47:21Z</time><name>PT1662</name></trkpt>
<trkpt lat="51.554828" lon="03.769815"><ele>23.7</ele><time>2022-11-15T10:47:22Z</time><name>PT1663</name></trkpt>
<trkpt lat="51.554828" lon="03.769833"><ele>23.7</ele><time>2022-11-15T10:47:23Z</time><name>PT1664</name></trkpt>
<trkpt lat="51.554828" lon="03.769849"><ele>23.7</ele><time>2022-11-15T10:47:24Z</time><name>PT1665</name></trkpt>
<trkpt lat="51.554828" lon="03.769868"><ele>23.6</ele><time>2022-11-15T10:47:25Z</time><name>PT1666</name></trkpt>
<trkpt lat="51.554828" lon="03.769887"><ele>23.3</ele><time>2022-11-15T10:47:26Z</time><name>PT1667</name></trkpt>
<trkpt lat="51.554828" lon="03.769907"><ele>23.4</ele><time>2022-11-15T10:47:27Z</time><name>PT1668</name></trkpt>
<trkpt lat="51.554826" lon="03.769926"><ele>23.4</ele><time>2022-11-15T10:47:28Z</time><name>PT1669</name></trkpt>
<trkpt lat="51.554827" lon="03.769943"><ele>23.4</ele><time>2022-11-15T10:47:29Z</time><name>PT1670</name></trkpt>
<trkpt lat="51.554827" lon="03.769962"><ele>23.7</ele><time>2022-11-15T10:47:30Z</time><name>PT1671</name></trkpt>
<trkpt lat="51.554825" lon="03.769980"><ele>23.7</ele><time>2022-11-15T10:47:31Z</time><name>PT1672</name></trkpt>
<trkpt lat="51.554823" lon="03.769998"><ele>23.7</ele><time>2022-11-15T10:47:32Z</time><name>PT1673</name></trkpt>
<trkpt lat="51.554822" lon="03.770016"><ele>23.6</ele><time>2022-11-15T10:47:33Z</time><name>PT1674</name></trkpt>
<trkpt lat="51.554821" lon="03.770036"><ele>23.6</ele><time>2022-11-15T10:47:34Z</time><name>PT1675</name></trkpt>
<trkpt lat="51.554820" lon="03.770059"><ele>23.6</ele><time>2022-11-15T10:47:35Z</time><name>PT1676</name></trkpt>
<trkpt lat="51.554818" lon="03.770079"><ele>23.4</ele><time>2022-11-15T10:47:36Z</time><name>PT1677</name></trkpt>
<trkpt lat="51.554818" lon="03.770099"><ele>23.3</ele><time>2022-11-15T10:47:37Z</time><name>PT1678</name></trkpt>
<trkpt lat="51.554817" lon="03.770120"><ele>23.2</ele><time>2022-11-15T10:47:38Z</time><name>PT1679</name></trkpt>
<trkpt lat="51.554816" lon="03.770140"><ele>23.2</ele><time>2022-11-15T10:47:39Z</time><name>PT1680</name></trkpt>
<trkpt lat="51.554815" lon="03.770161"><ele>23.2</ele><time>2022-11-15T10:47:40Z</time><name>PT1681</name></trkpt>
<trkpt lat="51.554815" lon="03.770180"><ele>23.2</ele><time>2022-11-15T10:47:41Z</time><name>PT1682</name></trkpt>
<trkpt lat="51.554814" lon="03.770197"><ele>23</ele><time>2022-11-15T10:47:42Z</time><name>PT1683</name></trkpt>
<trkpt lat="51.554814" lon="03.770215"><ele>23</ele><time>2022-11-15T10:47:43Z</time><name>PT1684</name></trkpt>
<trkpt lat="51.554812" lon="03.770235"><ele>22.9</ele><time>2022-11-15T10:47:44Z</time><name>PT1685</name></trkpt>
<trkpt lat="51.554810" lon="03.770254"><ele>22.9</ele><time>2022-11-15T10:47:45Z</time><name>PT1686</name></trkpt>
<trkpt lat="51.554811" lon="03.770272"><ele>23</ele><time>2022-11-15T10:47:46Z</time><name>PT1687</name></trkpt>
<trkpt lat="51.554811" lon="03.770293"><ele>23.3</ele><time>2022-11-15T10:47:47Z</time><name>PT1688</name></trkpt>
<trkpt lat="51.554811" lon="03.770316"><ele>23.3</ele><time>2022-11-15T10:47:48Z</time><name>PT1689</name></trkpt>
<trkpt lat="51.554810" lon="03.770338"><ele>23.3</ele><time>2022-11-15T10:47:49Z</time><name>PT1690</name></trkpt>
<trkpt lat="51.554809" lon="03.770359"><ele>23.3</ele><time>2022-11-15T10:47:50Z</time><name>PT1691</name></trkpt>
<trkpt lat="51.554809" lon="03.770379"><ele>23.2</ele><time>2022-11-15T10:47:51Z</time><name>PT1692</name></trkpt>
<trkpt lat="51.554809" lon="03.770398"><ele>23.1</ele><time>2022-11-15T10:47:52Z</time><name>PT1693</name></trkpt>
<trkpt lat="51.554809" lon="03.770416"><ele>23.1</ele><time>2022-11-15T10:47:53Z</time><name>PT1694</name></trkpt>
<trkpt lat="51.554808" lon="03.770436"><ele>23.2</ele><time>2022-11-15T10:47:54Z</time><name>PT1695</name></trkpt>
<trkpt lat="51.554806" lon="03.770457"><ele>23.3</ele><time>2022-11-15T10:47:55Z</time><name>PT1696</name></trkpt>
<trkpt lat="51.554804" lon="03.770475"><ele>23.3</ele><time>2022-11-15T10:47:56Z</time><name>PT1697</name></trkpt>
<trkpt lat="51.554802" lon="03.770494"><ele>23.4</ele><time>2022-11-15T10:47:57Z</time><name>PT1698</name></trkpt>
<trkpt lat="51.554801" lon="03.770513"><ele>23.5</ele><time>2022-11-15T10:47:58Z</time><name>PT1699</name></trkpt>
<trkpt lat="51.554799" lon="03.770533"><ele>23.5</ele><time>2022-11-15T10:47:59Z</time><name>PT1700</name></trkpt>
<trkpt lat="51.554797" lon="03.770551"><ele>23.5</ele><time>2022-11-15T10:48:00Z</time><name>PT1701</name></trkpt>
<trkpt lat="51.554794" lon="03.770560"><ele>23.4</ele><time>2022-11-15T10:48:01Z</time><name>PT1702</name></trkpt>
<trkpt lat="51.554792" lon="03.770570"><ele>23.3</ele><time>2022-11-15T10:48:02Z</time><name>PT1703</name></trkpt>
<trkpt lat="51.554794" lon="03.770587"><ele>23.3</ele><time>2022-11-15T10:48:03Z</time><name>PT1704</name></trkpt>
<trkpt lat="51.554794" lon="03.770605"><ele>23.3</ele><time>2022-11-15T10:48:04Z</time><name>PT1705</name></trkpt>
<trkpt lat="51.554792" lon="03.770624"><ele>23.2</ele><time>2022-11-15T10:48:05Z</time><name>PT1706</name></trkpt>
<trkpt lat="51.554792" lon="03.770641"><ele>23.2</ele><time>2022-11-15T10:48:06Z</time><name>PT1707</name></trkpt>
<trkpt lat="51.554791" lon="03.770658"><ele>23.2</ele><time>2022-11-15T10:48:07Z</time><name>PT1708</name></trkpt>
<trkpt lat="51.554790" lon="03.770677"><ele>23.2</ele><time>2022-11-15T10:48:08Z</time><name>PT1709</name></trkpt>
<trkpt lat="51.554789" lon="03.770697"><ele>23.3</ele><time>2022-11-15T10:48:09Z</time><name>PT1710</name></trkpt>
<trkpt lat="51.554787" lon="03.770716"><ele>23.2</ele><time>2022-11-15T10:48:10Z</time><name>PT1711</name></trkpt>
<trkpt lat="51.554785" lon="03.770738"><ele>23.2</ele><time>2022-11-15T10:48:11Z</time><name>PT1712</name></trkpt>
<trkpt lat="51.554784" lon="03.770759"><ele>23.3</ele><time>2022-11-15T10:48:12Z</time><name>PT1713</name></trkpt>
<trkpt lat="51.554783" lon="03.770779"><ele>23.4</ele><time>2022-11-15T10:48:13Z</time><name>PT1714</name></trkpt>
<trkpt lat="51.554782" lon="03.770799"><ele>23.5</ele><time>2022-11-15T10:48:14Z</time><name>PT1715</name></trkpt>
<trkpt lat="51.554782" lon="03.770817"><ele>23.4</ele><time>2022-11-15T10:48:15Z</time><name>PT1716</name></trkpt>
<trkpt lat="51.554781" lon="03.770834"><ele>23.4</ele><time>2022-11-15T10:48:16Z</time><name>PT1717</name></trkpt>
<trkpt lat="51.554780" lon="03.770854"><ele>23.6</ele><time>2022-11-15T10:48:17Z</time><name>PT1718</name></trkpt>
<trkpt lat="51.554780" lon="03.770874"><ele>23.6</ele><time>2022-11-15T10:48:18Z</time><name>PT1719</name></trkpt>
<trkpt lat="51.554780" lon="03.770894"><ele>23.7</ele><time>2022-11-15T10:48:19Z</time><name>PT1720</name></trkpt>
<trkpt lat="51.554781" lon="03.770913"><ele>23.7</ele><time>2022-11-15T10:48:20Z</time><name>PT1721</name></trkpt>
<trkpt lat="51.554780" lon="03.770933"><ele>23.7</ele><time>2022-11-15T10:48:21Z</time><name>PT1722</name></trkpt>
<trkpt lat="51.554779" lon="03.770954"><ele>23.7</ele><time>2022-11-15T10:48:22Z</time><name>PT1723</name></trkpt>
<trkpt lat="51.554778" lon="03.770976"><ele>23.7</ele><time>2022-11-15T10:48:23Z</time><name>PT1724</name></trkpt>
<trkpt lat="51.554778" lon="03.770997"><ele>23.7</ele><time>2022-11-15T10:48:24Z</time><name>PT1725</name></trkpt>
<trkpt lat="51.554778" lon="03.771017"><ele>23.7</ele><time>2022-11-15T10:48:25Z</time><name>PT1726</name></trkpt>
<trkpt lat="51.554779" lon="03.771036"><ele>23.7</ele><time>2022-11-15T10:48:26Z</time><name>PT1727</name></trkpt>
<trkpt lat="51.554779" lon="03.771055"><ele>23.7</ele><time>2022-11-15T10:48:27Z</time><name>PT1728</name></trkpt>
<trkpt lat="51.554778" lon="03.771074"><ele>23.8</ele><time>2022-11-15T10:48:28Z</time><name>PT1729</name></trkpt>
<trkpt lat="51.554776" lon="03.771093"><ele>23.9</ele><time>2022-11-15T10:48:29Z</time><name>PT1730</name></trkpt>
<trkpt lat="51.554775" lon="03.771112"><ele>23.8</ele><time>2022-11-15T10:48:30Z</time><name>PT1731</name></trkpt>
<trkpt lat="51.554774" lon="03.771131"><ele>23.9</ele><time>2022-11-15T10:48:31Z</time><name>PT1732</name></trkpt>
<trkpt lat="51.554774" lon="03.771151"><ele>23.9</ele><time>2022-11-15T10:48:32Z</time><name>PT1733</name></trkpt>
<trkpt lat="51.554773" lon="03.771172"><ele>23.8</ele><time>2022-11-15T10:48:33Z</time><name>PT1734</name></trkpt>
<trkpt lat="51.554770" lon="03.771193"><ele>23.7</ele><time>2022-11-15T10:48:34Z</time><name>PT1735</name></trkpt>
<trkpt lat="51.554768" lon="03.771215"><ele>23.6</ele><time>2022-11-15T10:48:35Z</time><name>PT1736</name></trkpt>
<trkpt lat="51.554767" lon="03.771234"><ele>23.6</ele><time>2022-11-15T10:48:36Z</time><name>PT1737</name></trkpt>
<trkpt lat="51.554765" lon="03.771253"><ele>23.4</ele><time>2022-11-15T10:48:37Z</time><name>PT1738</name></trkpt>
<trkpt lat="51.554764" lon="03.771273"><ele>23.6</ele><time>2022-11-15T10:48:38Z</time><name>PT1739</name></trkpt>
<trkpt lat="51.554763" lon="03.771293"><ele>23.6</ele><time>2022-11-15T10:48:39Z</time><name>PT1740</name></trkpt>
<trkpt lat="51.554763" lon="03.771311"><ele>23.7</ele><time>2022-11-15T10:48:40Z</time><name>PT1741</name></trkpt>
<trkpt lat="51.554762" lon="03.771330"><ele>23.7</ele><time>2022-11-15T10:48:41Z</time><name>PT1742</name></trkpt>
<trkpt lat="51.554762" lon="03.771349"><ele>23.7</ele><time>2022-11-15T10:48:42Z</time><name>PT1743</name></trkpt>
<trkpt lat="51.554762" lon="03.771369"><ele>23.6</ele><time>2022-11-15T10:48:43Z</time><name>PT1744</name></trkpt>
<trkpt lat="51.554762" lon="03.771390"><ele>23.4</ele><time>2022-11-15T10:48:44Z</time><name>PT1745</name></trkpt>
<trkpt lat="51.554763" lon="03.771406"><ele>23.4</ele><time>2022-11-15T10:48:45Z</time><name>PT1746</name></trkpt>
<trkpt lat="51.554763" lon="03.771423"><ele>23.4</ele><time>2022-11-15T10:48:46Z</time><name>PT1747</name></trkpt>
<trkpt lat="51.554762" lon="03.771442"><ele>23.3</ele><time>2022-11-15T10:48:47Z</time><name>PT1748</name></trkpt>
<trkpt lat="51.554759" lon="03.771459"><ele>23.3</ele><time>2022-11-15T10:48:48Z</time><name>PT1749</name></trkpt>
<trkpt lat="51.554759" lon="03.771478"><ele>23.4</ele><time>2022-11-15T10:48:49Z</time><name>PT1750</name></trkpt>
<trkpt lat="51.554758" lon="03.771496"><ele>23.3</ele><time>2022-11-15T10:48:50Z</time><name>PT1751</name></trkpt>
<trkpt lat="51.554758" lon="03.771516"><ele>23.4</ele><time>2022-11-15T10:48:51Z</time><name>PT1752</name></trkpt>
<trkpt lat="51.554756" lon="03.771536"><ele>23.4</ele><time>2022-11-15T10:48:52Z</time><name>PT1753</name></trkpt>
<trkpt lat="51.554755" lon="03.771557"><ele>23.6</ele><time>2022-11-15T10:48:53Z</time><name>PT1754</name></trkpt>
<trkpt lat="51.554753" lon="03.771575"><ele>23.6</ele><time>2022-11-15T10:48:54Z</time><name>PT1755</name></trkpt>
<trkpt lat="51.554752" lon="03.771593"><ele>23.7</ele><time>2022-11-15T10:48:55Z</time><name>PT1756</name></trkpt>
<trkpt lat="51.554751" lon="03.771610"><ele>23.7</ele><time>2022-11-15T10:48:56Z</time><name>PT1757</name></trkpt>
<trkpt lat="51.554750" lon="03.771632"><ele>23.7</ele><time>2022-11-15T10:48:57Z</time><name>PT1758</name></trkpt>
<trkpt lat="51.554751" lon="03.771654"><ele>23.5</ele><time>2022-11-15T10:48:58Z</time><name>PT1759</name></trkpt>
<trkpt lat="51.554750" lon="03.771674"><ele>23.5</ele><time>2022-11-15T10:48:59Z</time><name>PT1760</name></trkpt>
<trkpt lat="51.554750" lon="03.771694"><ele>23.5</ele><time>2022-11-15T10:49:00Z</time><name>PT1761</name></trkpt>
<trkpt lat="51.554749" lon="03.771712"><ele>23.5</ele><time>2022-11-15T10:49:01Z</time><name>PT1762</name></trkpt>
<trkpt lat="51.554749" lon="03.771731"><ele>23.7</ele><time>2022-11-15T10:49:02Z</time><name>PT1763</name></trkpt>
<trkpt lat="51.554748" lon="03.771749"><ele>23.7</ele><time>2022-11-15T10:49:03Z</time><name>PT1764</name></trkpt>
<trkpt lat="51.554748" lon="03.771766"><ele>23.9</ele><time>2022-11-15T10:49:04Z</time><name>PT1765</name></trkpt>
<trkpt lat="51.554747" lon="03.771783"><ele>23.8</ele><time>2022-11-15T10:49:05Z</time><name>PT1766</name></trkpt>
<trkpt lat="51.554745" lon="03.771803"><ele>23.9</ele><time>2022-11-15T10:49:06Z</time><name>PT1767</name></trkpt>
<trkpt lat="51.554743" lon="03.771823"><ele>23.9</ele><time>2022-11-15T10:49:07Z</time><name>PT1768</name></trkpt>
<trkpt lat="51.554742" lon="03.771843"><ele>23.9</ele><time>2022-11-15T10:49:08Z</time><name>PT1769</name></trkpt>
<trkpt lat="51.554742" lon="03.771862"><ele>24</ele><time>2022-11-15T10:49:09Z</time><name>PT1770</name></trkpt>
<trkpt lat="51.554740" lon="03.771880"><ele>24.1</ele><time>2022-11-15T10:49:10Z</time><name>PT1771</name></trkpt>
<trkpt lat="51.554739" lon="03.771897"><ele>24.1</ele><time>2022-11-15T10:49:11Z</time><name>PT1772</name></trkpt>
<trkpt lat="51.554736" lon="03.771913"><ele>24.1</ele><time>2022-11-15T10:49:12Z</time><name>PT1773</name></trkpt>
<trkpt lat="51.554736" lon="03.771934"><ele>24</ele><time>2022-11-15T10:49:13Z</time><name>PT1774</name></trkpt>
<trkpt lat="51.554735" lon="03.771955"><ele>23.9</ele><time>2022-11-15T10:49:14Z</time><name>PT1775</name></trkpt>
<trkpt lat="51.554736" lon="03.771977"><ele>23.9</ele><time>2022-11-15T10:49:15Z</time><name>PT1776</name></trkpt>
<trkpt lat="51.554736" lon="03.771997"><ele>23.9</ele><time>2022-11-15T10:49:16Z</time><name>PT1777</name></trkpt>
<trkpt lat="51.554735" lon="03.772016"><ele>23.8</ele><time>2022-11-15T10:49:17Z</time><name>PT1778</name></trkpt>
<trkpt lat="51.554735" lon="03.772036"><ele>23.9</ele><time>2022-11-15T10:49:18Z</time><name>PT1779</name></trkpt>
<trkpt lat="51.554735" lon="03.772054"><ele>23.8</ele><time>2022-11-15T10:49:19Z</time><name>PT1780</name></trkpt>
<trkpt lat="51.554735" lon="03.772072"><ele>23.7</ele><time>2022-11-15T10:49:20Z</time><name>PT1781</name></trkpt>
<trkpt lat="51.554733" lon="03.772091"><ele>23.8</ele><time>2022-11-15T10:49:21Z</time><name>PT1782</name></trkpt>
<trkpt lat="51.554730" lon="03.772110"><ele>23.7</ele><time>2022-11-15T10:49:22Z</time><name>PT1783</name></trkpt>
<trkpt lat="51.554729" lon="03.772129"><ele>23.7</ele><time>2022-11-15T10:49:23Z</time><name>PT1784</name></trkpt>
<trkpt lat="51.554727" lon="03.772148"><ele>23.8</ele><time>2022-11-15T10:49:24Z</time><name>PT1785</name></trkpt>
<trkpt lat="51.554728" lon="03.772168"><ele>23.7</ele><time>2022-11-15T10:49:25Z</time><name>PT1786</name></trkpt>
<trkpt lat="51.554730" lon="03.772189"><ele>23.7</ele><time>2022-11-15T10:49:26Z</time><name>PT1787</name></trkpt>
<trkpt lat="51.554728" lon="03.772210"><ele>23.6</ele><time>2022-11-15T10:49:27Z</time><name>PT1788</name></trkpt>
<trkpt lat="51.554728" lon="03.772232"><ele>23.4</ele><time>2022-11-15T10:49:28Z</time><name>PT1789</name></trkpt>
<trkpt lat="51.554728" lon="03.772252"><ele>23.4</ele><time>2022-11-15T10:49:29Z</time><name>PT1790</name></trkpt>
<trkpt lat="51.554727" lon="03.772271"><ele>23.4</ele><time>2022-11-15T10:49:30Z</time><name>PT1791</name></trkpt>
<trkpt lat="51.554727" lon="03.772289"><ele>23.4</ele><time>2022-11-15T10:49:31Z</time><name>PT1792</name></trkpt>
<trkpt lat="51.554726" lon="03.772307"><ele>23.5</ele><time>2022-11-15T10:49:32Z</time><name>PT1793</name></trkpt>
<trkpt lat="51.554725" lon="03.772326"><ele>23.6</ele><time>2022-11-15T10:49:33Z</time><name>PT1794</name></trkpt>
<trkpt lat="51.554724" lon="03.772347"><ele>23.4</ele><time>2022-11-15T10:49:34Z</time><name>PT1795</name></trkpt>
<trkpt lat="51.554722" lon="03.772367"><ele>23.4</ele><time>2022-11-15T10:49:35Z</time><name>PT1796</name></trkpt>
<trkpt lat="51.554720" lon="03.772387"><ele>23.5</ele><time>2022-11-15T10:49:36Z</time><name>PT1797</name></trkpt>
<trkpt lat="51.554719" lon="03.772405"><ele>23.3</ele><time>2022-11-15T10:49:37Z</time><name>PT1798</name></trkpt>
<trkpt lat="51.554718" lon="03.772422"><ele>23.3</ele><time>2022-11-15T10:49:38Z</time><name>PT1799</name></trkpt>
<trkpt lat="51.554717" lon="03.772440"><ele>23.2</ele><time>2022-11-15T10:49:39Z</time><name>PT1800</name></trkpt>
<trkpt lat="51.554717" lon="03.772460"><ele>23.4</ele><time>2022-11-15T10:49:40Z</time><name>PT1801</name></trkpt>
<trkpt lat="51.554717" lon="03.772480"><ele>23.4</ele><time>2022-11-15T10:49:41Z</time><name>PT1802</name></trkpt>
<trkpt lat="51.554717" lon="03.772499"><ele>23.6</ele><time>2022-11-15T10:49:42Z</time><name>PT1803</name></trkpt>
<trkpt lat="51.554718" lon="03.772517"><ele>23.5</ele><time>2022-11-15T10:49:43Z</time><name>PT1804</name></trkpt>
<trkpt lat="51.554718" lon="03.772535"><ele>23.4</ele><time>2022-11-15T10:49:44Z</time><name>PT1805</name></trkpt>
<trkpt lat="51.554716" lon="03.772553"><ele>23.3</ele><time>2022-11-15T10:49:45Z</time><name>PT1806</name></trkpt>
<trkpt lat="51.554715" lon="03.772573"><ele>23.3</ele><time>2022-11-15T10:49:46Z</time><name>PT1807</name></trkpt>
<trkpt lat="51.554714" lon="03.772595"><ele>23.5</ele><time>2022-11-15T10:49:47Z</time><name>PT1808</name></trkpt>
<trkpt lat="51.554712" lon="03.772616"><ele>23.5</ele><time>2022-11-15T10:49:48Z</time><name>PT1809</name></trkpt>
<trkpt lat="51.554709" lon="03.772632"><ele>23.5</ele><time>2022-11-15T10:49:49Z</time><name>PT1810</name></trkpt>
<trkpt lat="51.554707" lon="03.772651"><ele>23.5</ele><time>2022-11-15T10:49:50Z</time><name>PT1811</name></trkpt>
<trkpt lat="51.554706" lon="03.772670"><ele>23.6</ele><time>2022-11-15T10:49:51Z</time><name>PT1812</name></trkpt>
<trkpt lat="51.554706" lon="03.772690"><ele>23.6</ele><time>2022-11-15T10:49:52Z</time><name>PT1813</name></trkpt>
<trkpt lat="51.554706" lon="03.772709"><ele>23.5</ele><time>2022-11-15T10:49:53Z</time><name>PT1814</name></trkpt>
<trkpt lat="51.554706" lon="03.772730"><ele>23.4</ele><time>2022-11-15T10:49:54Z</time><name>PT1815</name></trkpt>
<trkpt lat="51.554705" lon="03.772753"><ele>23.3</ele><time>2022-11-15T10:49:55Z</time><name>PT1816</name></trkpt>
<trkpt lat="51.554705" lon="03.772775"><ele>23.2</ele><time>2022-11-15T10:49:56Z</time><name>PT1817</name></trkpt>
<trkpt lat="51.554704" lon="03.772798"><ele>23.4</ele><time>2022-11-15T10:49:57Z</time><name>PT1818</name></trkpt>
<trkpt lat="51.554703" lon="03.772818"><ele>23.5</ele><time>2022-11-15T10:49:58Z</time><name>PT1819</name></trkpt>
<trkpt lat="51.554703" lon="03.772838"><ele>23.5</ele><time>2022-11-15T10:49:59Z</time><name>PT1820</name></trkpt>
<trkpt lat="51.554703" lon="03.772856"><ele>23.5</ele><time>2022-11-15T10:50:00Z</time><name>PT1821</name></trkpt>
<trkpt lat="51.554703" lon="03.772876"><ele>23.5</ele><time>2022-11-15T10:50:01Z</time><name>PT1822</name></trkpt>
<trkpt lat="51.554703" lon="03.772893"><ele>23.7</ele><time>2022-11-15T10:50:02Z</time><name>PT1823</name></trkpt>
<trkpt lat="51.554701" lon="03.772910"><ele>23.6</ele><time>2022-11-15T10:50:03Z</time><name>PT1824</name></trkpt>
<trkpt lat="51.554700" lon="03.772927"><ele>23.6</ele><time>2022-11-15T10:50:04Z</time><name>PT1825</name></trkpt>
<trkpt lat="51.554699" lon="03.772945"><ele>23.5</ele><time>2022-11-15T10:50:05Z</time><name>PT1826</name></trkpt>
<trkpt lat="51.554699" lon="03.772964"><ele>23.7</ele><time>2022-11-15T10:50:06Z</time><name>PT1827</name></trkpt>
<trkpt lat="51.554698" lon="03.772984"><ele>23.7</ele><time>2022-11-15T10:50:07Z</time><name>PT1828</name></trkpt>
<trkpt lat="51.554697" lon="03.773004"><ele>23.8</ele><time>2022-11-15T10:50:08Z</time><name>PT1829</name></trkpt>
<trkpt lat="51.554695" lon="03.773022"><ele>23.8</ele><time>2022-11-15T10:50:09Z</time><name>PT1830</name></trkpt>
<trkpt lat="51.554695" lon="03.773042"><ele>23.9</ele><time>2022-11-15T10:50:10Z</time><name>PT1831</name></trkpt>
<trkpt lat="51.554694" lon="03.773060"><ele>23.8</ele><time>2022-11-15T10:50:11Z</time><name>PT1832</name></trkpt>
<trkpt lat="51.554693" lon="03.773079"><ele>23.9</ele><time>2022-11-15T10:50:12Z</time><name>PT1833</name></trkpt>
<trkpt lat="51.554691" lon="03.773097"><ele>23.7</ele><time>2022-11-15T10:50:13Z</time><name>PT1834</name></trkpt>
<trkpt lat="51.554691" lon="03.773116"><ele>23.8</ele><time>2022-11-15T10:50:14Z</time><name>PT1835</name></trkpt>
<trkpt lat="51.554691" lon="03.773135"><ele>23.6</ele><time>2022-11-15T10:50:15Z</time><name>PT1836</name></trkpt>
<trkpt lat="51.554691" lon="03.773155"><ele>23.7</ele><time>2022-11-15T10:50:16Z</time><name>PT1837</name></trkpt>
<trkpt lat="51.554693" lon="03.773175"><ele>23.6</ele><time>2022-11-15T10:50:17Z</time><name>PT1838</name></trkpt>
<trkpt lat="51.554693" lon="03.773195"><ele>23.8</ele><time>2022-11-15T10:50:18Z</time><name>PT1839</name></trkpt>
<trkpt lat="51.554692" lon="03.773216"><ele>23.9</ele><time>2022-11-15T10:50:19Z</time><name>PT1840</name></trkpt>
<trkpt lat="51.554690" lon="03.773235"><ele>23.9</ele><time>2022-11-15T10:50:20Z</time><name>PT1841</name></trkpt>
<trkpt lat="51.554691" lon="03.773254"><ele>24</ele><time>2022-11-15T10:50:21Z</time><name>PT1842</name></trkpt>
<trkpt lat="51.554691" lon="03.773271"><ele>23.8</ele><time>2022-11-15T10:50:22Z</time><name>PT1843</name></trkpt>
<trkpt lat="51.554690" lon="03.773289"><ele>23.7</ele><time>2022-11-15T10:50:23Z</time><name>PT1844</name></trkpt>
<trkpt lat="51.554689" lon="03.773307"><ele>23.7</ele><time>2022-11-15T10:50:24Z</time><name>PT1845</name></trkpt>
<trkpt lat="51.554689" lon="03.773324"><ele>23.7</ele><time>2022-11-15T10:50:25Z</time><name>PT1846</name></trkpt>
<trkpt lat="51.554686" lon="03.773342"><ele>23.7</ele><time>2022-11-15T10:50:26Z</time><name>PT1847</name></trkpt>
<trkpt lat="51.554685" lon="03.773360"><ele>23.7</ele><time>2022-11-15T10:50:27Z</time><name>PT1848</name></trkpt>
<trkpt lat="51.554684" lon="03.773380"><ele>23.8</ele><time>2022-11-15T10:50:28Z</time><name>PT1849</name></trkpt>
<trkpt lat="51.554681" lon="03.773401"><ele>23.7</ele><time>2022-11-15T10:50:29Z</time><name>PT1850</name></trkpt>
<trkpt lat="51.554679" lon="03.773419"><ele>23.7</ele><time>2022-11-15T10:50:30Z</time><name>PT1851</name></trkpt>
<trkpt lat="51.554677" lon="03.773438"><ele>23.8</ele><time>2022-11-15T10:50:31Z</time><name>PT1852</name></trkpt>
<trkpt lat="51.554676" lon="03.773458"><ele>23.7</ele><time>2022-11-15T10:50:32Z</time><name>PT1853</name></trkpt>
<trkpt lat="51.554675" lon="03.773479"><ele>23.7</ele><time>2022-11-15T10:50:33Z</time><name>PT1854</name></trkpt>
<trkpt lat="51.554675" lon="03.773498"><ele>23.8</ele><time>2022-11-15T10:50:34Z</time><name>PT1855</name></trkpt>
<trkpt lat="51.554674" lon="03.773516"><ele>23.7</ele><time>2022-11-15T10:50:35Z</time><name>PT1856</name></trkpt>
<trkpt lat="51.554674" lon="03.773537"><ele>23.7</ele><time>2022-11-15T10:50:36Z</time><name>PT1857</name></trkpt>
<trkpt lat="51.554674" lon="03.773558"><ele>23.7</ele><time>2022-11-15T10:50:37Z</time><name>PT1858</name></trkpt>
<trkpt lat="51.554674" lon="03.773578"><ele>23.6</ele><time>2022-11-15T10:50:38Z</time><name>PT1859</name></trkpt>
<trkpt lat="51.554673" lon="03.773598"><ele>23.8</ele><time>2022-11-15T10:50:39Z</time><name>PT1860</name></trkpt>
<trkpt lat="51.554674" lon="03.773617"><ele>23.9</ele><time>2022-11-15T10:50:40Z</time><name>PT1861</name></trkpt>
<trkpt lat="51.554673" lon="03.773635"><ele>24</ele><time>2022-11-15T10:50:41Z</time><name>PT1862</name></trkpt>
<trkpt lat="51.554673" lon="03.773651"><ele>24.1</ele><time>2022-11-15T10:50:42Z</time><name>PT1863</name></trkpt>
<trkpt lat="51.554672" lon="03.773667"><ele>23.9</ele><time>2022-11-15T10:50:43Z</time><name>PT1864</name></trkpt>
<trkpt lat="51.554669" lon="03.773685"><ele>24</ele><time>2022-11-15T10:50:44Z</time><name>PT1865</name></trkpt>
<trkpt lat="51.554668" lon="03.773702"><ele>23.8</ele><time>2022-11-15T10:50:45Z</time><name>PT1866</name></trkpt>
<trkpt lat="51.554666" lon="03.773723"><ele>23.7</ele><time>2022-11-15T10:50:46Z</time><name>PT1867</name></trkpt>
<trkpt lat="51.554665" lon="03.773741"><ele>23.8</ele><time>2022-11-15T10:50:47Z</time><name>PT1868</name></trkpt>
<trkpt lat="51.554664" lon="03.773760"><ele>23.8</ele><time>2022-11-15T10:50:48Z</time><name>PT1869</name></trkpt>
<trkpt lat="51.554662" lon="03.773780"><ele>24.1</ele><time>2022-11-15T10:50:49Z</time><name>PT1870</name></trkpt>
<trkpt lat="51.554660" lon="03.773798"><ele>24.2</ele><time>2022-11-15T10:50:50Z</time><name>PT1871</name></trkpt>
<trkpt lat="51.554658" lon="03.773816"><ele>24.3</ele><time>2022-11-15T10:50:51Z</time><name>PT1872</name></trkpt>
<trkpt lat="51.554657" lon="03.773836"><ele>24.2</ele><time>2022-11-15T10:50:52Z</time><name>PT1873</name></trkpt>
<trkpt lat="51.554657" lon="03.773855"><ele>24.1</ele><time>2022-11-15T10:50:53Z</time><name>PT1874</name></trkpt>
<trkpt lat="51.554657" lon="03.773874"><ele>24</ele><time>2022-11-15T10:50:54Z</time><name>PT1875</name></trkpt>
<trkpt lat="51.554656" lon="03.773894"><ele>23.9</ele><time>2022-11-15T10:50:55Z</time><name>PT1876</name></trkpt>
<trkpt lat="51.554655" lon="03.773914"><ele>23.7</ele><time>2022-11-15T10:50:56Z</time><name>PT1877</name></trkpt>
<trkpt lat="51.554654" lon="03.773934"><ele>23.7</ele><time>2022-11-15T10:50:57Z</time><name>PT1878</name></trkpt>
<trkpt lat="51.554653" lon="03.773951"><ele>23.6</ele><time>2022-11-15T10:50:58Z</time><name>PT1879</name></trkpt>
<trkpt lat="51.554651" lon="03.773969"><ele>23.6</ele><time>2022-11-15T10:50:59Z</time><name>PT1880</name></trkpt>
<trkpt lat="51.554650" lon="03.773989"><ele>23.5</ele><time>2022-11-15T10:51:00Z</time><name>PT1881</name></trkpt>
<trkpt lat="51.554649" lon="03.774009"><ele>23.5</ele><time>2022-11-15T10:51:01Z</time><name>PT1882</name></trkpt>
<trkpt lat="51.554648" lon="03.774027"><ele>23.5</ele><time>2022-11-15T10:51:02Z</time><name>PT1883</name></trkpt>
<trkpt lat="51.554649" lon="03.774046"><ele>23.6</ele><time>2022-11-15T10:51:03Z</time><name>PT1884</name></trkpt>
<trkpt lat="51.554649" lon="03.774066"><ele>23.6</ele><time>2022-11-15T10:51:04Z</time><name>PT1885</name></trkpt>
<trkpt lat="51.554650" lon="03.774087"><ele>23.6</ele><time>2022-11-15T10:51:05Z</time><name>PT1886</name></trkpt>
<trkpt lat="51.554651" lon="03.774109"><ele>23.7</ele><time>2022-11-15T10:51:06Z</time><name>PT1887</name></trkpt>
<trkpt lat="51.554651" lon="03.774130"><ele>23.7</ele><time>2022-11-15T10:51:07Z</time><name>PT1888</name></trkpt>
<trkpt lat="51.554651" lon="03.774150"><ele>23.7</ele><time>2022-11-15T10:51:08Z</time><name>PT1889</name></trkpt>
<trkpt lat="51.554650" lon="03.774171"><ele>23.7</ele><time>2022-11-15T10:51:09Z</time><name>PT1890</name></trkpt>
<trkpt lat="51.554651" lon="03.774189"><ele>23.5</ele><time>2022-11-15T10:51:10Z</time><name>PT1891</name></trkpt>
<trkpt lat="51.554651" lon="03.774207"><ele>23.4</ele><time>2022-11-15T10:51:11Z</time><name>PT1892</name></trkpt>
<trkpt lat="51.554651" lon="03.774225"><ele>23.3</ele><time>2022-11-15T10:51:12Z</time><name>PT1893</name></trkpt>
<trkpt lat="51.554650" lon="03.774242"><ele>23.3</ele><time>2022-11-15T10:51:13Z</time><name>PT1894</name></trkpt>
<trkpt lat="51.554649" lon="03.774260"><ele>23.5</ele><time>2022-11-15T10:51:14Z</time><name>PT1895</name></trkpt>
<trkpt lat="51.554649" lon="03.774278"><ele>23.6</ele><time>2022-11-15T10:51:15Z</time><name>PT1896</name></trkpt>
<trkpt lat="51.554648" lon="03.774296"><ele>23.8</ele><time>2022-11-15T10:51:16Z</time><name>PT1897</name></trkpt>
<trkpt lat="51.554647" lon="03.774316"><ele>24</ele><time>2022-11-15T10:51:17Z</time><name>PT1898</name></trkpt>
<trkpt lat="51.554645" lon="03.774336"><ele>23.9</ele><time>2022-11-15T10:51:18Z</time><name>PT1899</name></trkpt>
<trkpt lat="51.554644" lon="03.774356"><ele>24.1</ele><time>2022-11-15T10:51:19Z</time><name>PT1900</name></trkpt>
<trkpt lat="51.554642" lon="03.774377"><ele>24.2</ele><time>2022-11-15T10:51:20Z</time><name>PT1901</name></trkpt>
<trkpt lat="51.554641" lon="03.774397"><ele>24.2</ele><time>2022-11-15T10:51:21Z</time><name>PT1902</name></trkpt>
<trkpt lat="51.554639" lon="03.774416"><ele>24.3</ele><time>2022-11-15T10:51:22Z</time><name>PT1903</name></trkpt>
<trkpt lat="51.554639" lon="03.774437"><ele>24.1</ele><time>2022-11-15T10:51:23Z</time><name>PT1904</name></trkpt>
<trkpt lat="51.554639" lon="03.774459"><ele>24</ele><time>2022-11-15T10:51:24Z</time><name>PT1905</name></trkpt>
<trkpt lat="51.554638" lon="03.774480"><ele>23.9</ele><time>2022-11-15T10:51:25Z</time><name>PT1906</name></trkpt>
<trkpt lat="51.554639" lon="03.774500"><ele>23.9</ele><time>2022-11-15T10:51:26Z</time><name>PT1907</name></trkpt>
<trkpt lat="51.554640" lon="03.774520"><ele>24.1</ele><time>2022-11-15T10:51:27Z</time><name>PT1908</name></trkpt>
<trkpt lat="51.554640" lon="03.774538"><ele>24.2</ele><time>2022-11-15T10:51:28Z</time><name>PT1909</name></trkpt>
<trkpt lat="51.554638" lon="03.774557"><ele>24.2</ele><time>2022-11-15T10:51:29Z</time><name>PT1910</name></trkpt>
<trkpt lat="51.554636" lon="03.774576"><ele>24.2</ele><time>2022-11-15T10:51:30Z</time><name>PT1911</name></trkpt>
<trkpt lat="51.554635" lon="03.774597"><ele>24.2</ele><time>2022-11-15T10:51:31Z</time><name>PT1912</name></trkpt>
<trkpt lat="51.554633" lon="03.774618"><ele>24.2</ele><time>2022-11-15T10:51:32Z</time><name>PT1913</name></trkpt>
<trkpt lat="51.554631" lon="03.774638"><ele>24.3</ele><time>2022-11-15T10:51:33Z</time><name>PT1914</name></trkpt>
<trkpt lat="51.554629" lon="03.774657"><ele>24.1</ele><time>2022-11-15T10:51:34Z</time><name>PT1915</name></trkpt>
<trkpt lat="51.554629" lon="03.774675"><ele>24</ele><time>2022-11-15T10:51:35Z</time><name>PT1916</name></trkpt>
<trkpt lat="51.554629" lon="03.774694"><ele>24</ele><time>2022-11-15T10:51:36Z</time><name>PT1917</name></trkpt>
<trkpt lat="51.554628" lon="03.774714"><ele>24</ele><time>2022-11-15T10:51:37Z</time><name>PT1918</name></trkpt>
<trkpt lat="51.554628" lon="03.774733"><ele>24.2</ele><time>2022-11-15T10:51:38Z</time><name>PT1919</name></trkpt>
<trkpt lat="51.554628" lon="03.774755"><ele>24.3</ele><time>2022-11-15T10:51:39Z</time><name>PT1920</name></trkpt>
<trkpt lat="51.554627" lon="03.774776"><ele>24.4</ele><time>2022-11-15T10:51:40Z</time><name>PT1921</name></trkpt>
<trkpt lat="51.554627" lon="03.774797"><ele>24.4</ele><time>2022-11-15T10:51:41Z</time><name>PT1922</name></trkpt>
<trkpt lat="51.554627" lon="03.774815"><ele>24.3</ele><time>2022-11-15T10:51:42Z</time><name>PT1923</name></trkpt>
<trkpt lat="51.554626" lon="03.774833"><ele>24.2</ele><time>2022-11-15T10:51:43Z</time><name>PT1924</name></trkpt>
<trkpt lat="51.554625" lon="03.774849"><ele>24.2</ele><time>2022-11-15T10:51:44Z</time><name>PT1925</name></trkpt>
<trkpt lat="51.554625" lon="03.774868"><ele>24.2</ele><time>2022-11-15T10:51:45Z</time><name>PT1926</name></trkpt>
<trkpt lat="51.554622" lon="03.774887"><ele>24.6</ele><time>2022-11-15T10:51:46Z</time><name>PT1927</name></trkpt>
<trkpt lat="51.554620" lon="03.774906"><ele>24.7</ele><time>2022-11-15T10:51:47Z</time><name>PT1928</name></trkpt>
<trkpt lat="51.554618" lon="03.774924"><ele>25</ele><time>2022-11-15T10:51:48Z</time><name>PT1929</name></trkpt>
<trkpt lat="51.554616" lon="03.774944"><ele>25</ele><time>2022-11-15T10:51:49Z</time><name>PT1930</name></trkpt>
<trkpt lat="51.554615" lon="03.774963"><ele>25</ele><time>2022-11-15T10:51:50Z</time><name>PT1931</name></trkpt>
<trkpt lat="51.554614" lon="03.774982"><ele>25</ele><time>2022-11-15T10:51:51Z</time><name>PT1932</name></trkpt>
<trkpt lat="51.554613" lon="03.775001"><ele>25</ele><time>2022-11-15T10:51:52Z</time><name>PT1933</name></trkpt>
<trkpt lat="51.554612" lon="03.775020"><ele>24.9</ele><time>2022-11-15T10:51:53Z</time><name>PT1934</name></trkpt>
<trkpt lat="51.554612" lon="03.775038"><ele>25</ele><time>2022-11-15T10:51:54Z</time><name>PT1935</name></trkpt>
<trkpt lat="51.554612" lon="03.775056"><ele>24.7</ele><time>2022-11-15T10:51:55Z</time><name>PT1936</name></trkpt>
<trkpt lat="51.554610" lon="03.775075"><ele>24.7</ele><time>2022-11-15T10:51:56Z</time><name>PT1937</name></trkpt>
<trkpt lat="51.554609" lon="03.775095"><ele>24.7</ele><time>2022-11-15T10:51:57Z</time><name>PT1938</name></trkpt>
<trkpt lat="51.554609" lon="03.775116"><ele>24.7</ele><time>2022-11-15T10:51:58Z</time><name>PT1939</name></trkpt>
<trkpt lat="51.554609" lon="03.775135"><ele>24.7</ele><time>2022-11-15T10:51:59Z</time><name>PT1940</name></trkpt>
<trkpt lat="51.554608" lon="03.775155"><ele>24.8</ele><time>2022-11-15T10:52:00Z</time><name>PT1941</name></trkpt>
<trkpt lat="51.554607" lon="03.775174"><ele>24.7</ele><time>2022-11-15T10:52:01Z</time><name>PT1942</name></trkpt>
<trkpt lat="51.554606" lon="03.775193"><ele>24.4</ele><time>2022-11-15T10:52:02Z</time><name>PT1943</name></trkpt>
<trkpt lat="51.554606" lon="03.775213"><ele>24.4</ele><time>2022-11-15T10:52:03Z</time><name>PT1944</name></trkpt>
<trkpt lat="51.554605" lon="03.775232"><ele>24.3</ele><time>2022-11-15T10:52:04Z</time><name>PT1945</name></trkpt>
<trkpt lat="51.554603" lon="03.775250"><ele>24.6</ele><time>2022-11-15T10:52:05Z</time><name>PT1946</name></trkpt>
<trkpt lat="51.554601" lon="03.775271"><ele>24.7</ele><time>2022-11-15T10:52:06Z</time><name>PT1947</name></trkpt>
<trkpt lat="51.554599" lon="03.775290"><ele>24.7</ele><time>2022-11-15T10:52:07Z</time><name>PT1948</name></trkpt>
<trkpt lat="51.554598" lon="03.775310"><ele>24.8</ele><time>2022-11-15T10:52:08Z</time><name>PT1949</name></trkpt>
<trkpt lat="51.554596" lon="03.775331"><ele>24.7</ele><time>2022-11-15T10:52:09Z</time><name>PT1950</name></trkpt>
<trkpt lat="51.554595" lon="03.775353"><ele>24.6</ele><time>2022-11-15T10:52:10Z</time><name>PT1951</name></trkpt>
<trkpt lat="51.554594" lon="03.775374"><ele>24.5</ele><time>2022-11-15T10:52:11Z</time><name>PT1952</name></trkpt>
<trkpt lat="51.554593" lon="03.775395"><ele>24.5</ele><time>2022-11-15T10:52:12Z</time><name>PT1953</name></trkpt>
<trkpt lat="51.554592" lon="03.775415"><ele>24.6</ele><time>2022-11-15T10:52:13Z</time><name>PT1954</name></trkpt>
<trkpt lat="51.554592" lon="03.775434"><ele>24.6</ele><time>2022-11-15T10:52:14Z</time><name>PT1955</name></trkpt>
<trkpt lat="51.554591" lon="03.775453"><ele>24.4</ele><time>2022-11-15T10:52:15Z</time><name>PT1956</name></trkpt>
<trkpt lat="51.554590" lon="03.775472"><ele>24.4</ele><time>2022-11-15T10:52:16Z</time><name>PT1957</name></trkpt>
<trkpt lat="51.554590" lon="03.775493"><ele>24.3</ele><time>2022-11-15T10:52:17Z</time><name>PT1958</name></trkpt>
<trkpt lat="51.554590" lon="03.775512"><ele>24.2</ele><time>2022-11-15T10:52:18Z</time><name>PT1959</name></trkpt>
<trkpt lat="51.554591" lon="03.775531"><ele>24.3</ele><time>2022-11-15T10:52:19Z</time><name>PT1960</name></trkpt>
<trkpt lat="51.554590" lon="03.775550"><ele>24.2</ele><time>2022-11-15T10:52:20Z</time><name>PT1961</name></trkpt>
<trkpt lat="51.554589" lon="03.775570"><ele>24.3</ele><time>2022-11-15T10:52:21Z</time><name>PT1962</name></trkpt>
<trkpt lat="51.554589" lon="03.775590"><ele>24.2</ele><time>2022-11-15T10:52:22Z</time><name>PT1963</name></trkpt>
<trkpt lat="51.554589" lon="03.775610"><ele>24.2</ele><time>2022-11-15T10:52:23Z</time><name>PT1964</name></trkpt>
<trkpt lat="51.554589" lon="03.775628"><ele>24.3</ele><time>2022-11-15T10:52:24Z</time><name>PT1965</name></trkpt>
<trkpt lat="51.554589" lon="03.775646"><ele>24</ele><time>2022-11-15T10:52:25Z</time><name>PT1966</name></trkpt>
<trkpt lat="51.554588" lon="03.775663"><ele>24.2</ele><time>2022-11-15T10:52:26Z</time><name>PT1967</name></trkpt>
<trkpt lat="51.554587" lon="03.775680"><ele>24.2</ele><time>2022-11-15T10:52:27Z</time><name>PT1968</name></trkpt>
<trkpt lat="51.554586" lon="03.775700"><ele>24.4</ele><time>2022-11-15T10:52:28Z</time><name>PT1969</name></trkpt>
<trkpt lat="51.554585" lon="03.775719"><ele>24.6</ele><time>2022-11-15T10:52:29Z</time><name>PT1970</name></trkpt>
<trkpt lat="51.554584" lon="03.775738"><ele>24.6</ele><time>2022-11-15T10:52:30Z</time><name>PT1971</name></trkpt>
<trkpt lat="51.554583" lon="03.775759"><ele>24.3</ele><time>2022-11-15T10:52:31Z</time><name>PT1972</name></trkpt>
<trkpt lat="51.554580" lon="03.775779"><ele>24.2</ele><time>2022-11-15T10:52:32Z</time><name>PT1973</name></trkpt>
<trkpt lat="51.554578" lon="03.775799"><ele>24.1</ele><time>2022-11-15T10:52:33Z</time><name>PT1974</name></trkpt>
<trkpt lat="51.554575" lon="03.775818"><ele>24.2</ele><time>2022-11-15T10:52:34Z</time><name>PT1975</name></trkpt>
<trkpt lat="51.554574" lon="03.775837"><ele>24.1</ele><time>2022-11-15T10:52:35Z</time><name>PT1976</name></trkpt>
<trkpt lat="51.554572" lon="03.775857"><ele>24.1</ele><time>2022-11-15T10:52:36Z</time><name>PT1977</name></trkpt>
<trkpt lat="51.554572" lon="03.775874"><ele>24.1</ele><time>2022-11-15T10:52:37Z</time><name>PT1978</name></trkpt>
<trkpt lat="51.554571" lon="03.775890"><ele>23.9</ele><time>2022-11-15T10:52:38Z</time><name>PT1979</name></trkpt>
<trkpt lat="51.554569" lon="03.775907"><ele>24</ele><time>2022-11-15T10:52:39Z</time><name>PT1980</name></trkpt>
<trkpt lat="51.554566" lon="03.775924"><ele>24</ele><time>2022-11-15T10:52:40Z</time><name>PT1981</name></trkpt>
<trkpt lat="51.554564" lon="03.775940"><ele>24.1</ele><time>2022-11-15T10:52:41Z</time><name>PT1982</name></trkpt>
<trkpt lat="51.554564" lon="03.775956"><ele>24.1</ele><time>2022-11-15T10:52:42Z</time><name>PT1983</name></trkpt>
<trkpt lat="51.554563" lon="03.775977"><ele>24.2</ele><time>2022-11-15T10:52:43Z</time><name>PT1984</name></trkpt>
<trkpt lat="51.554561" lon="03.775997"><ele>24.5</ele><time>2022-11-15T10:52:44Z</time><name>PT1985</name></trkpt>
<trkpt lat="51.554558" lon="03.776015"><ele>24.8</ele><time>2022-11-15T10:52:45Z</time><name>PT1986</name></trkpt>
<trkpt lat="51.554558" lon="03.776031"><ele>25</ele><time>2022-11-15T10:52:46Z</time><name>PT1987</name></trkpt>
<trkpt lat="51.554556" lon="03.776046"><ele>25</ele><time>2022-11-15T10:52:47Z</time><name>PT1988</name></trkpt>
<trkpt lat="51.554555" lon="03.776062"><ele>25.2</ele><time>2022-11-15T10:52:48Z</time><name>PT1989</name></trkpt>
<trkpt lat="51.554554" lon="03.776077"><ele>25.2</ele><time>2022-11-15T10:52:49Z</time><name>PT1990</name></trkpt>
<trkpt lat="51.554553" lon="03.776092"><ele>25</ele><time>2022-11-15T10:52:50Z</time><name>PT1991</name></trkpt>
<trkpt lat="51.554554" lon="03.776106"><ele>25.1</ele><time>2022-11-15T10:52:51Z</time><name>PT1992</name></trkpt>
<trkpt lat="51.554557" lon="03.776121"><ele>25.1</ele><time>2022-11-15T10:52:52Z</time><name>PT1993</name></trkpt>
<trkpt lat="51.554561" lon="03.776136"><ele>25.1</ele><time>2022-11-15T10:52:53Z</time><name>PT1994</name></trkpt>
<trkpt lat="51.554562" lon="03.776143"><ele>25</ele><time>2022-11-15T10:52:54Z</time><name>PT1995</name></trkpt>
<trkpt lat="51.554565" lon="03.776151"><ele>25.1</ele><time>2022-11-15T10:52:55Z</time><name>PT1996</name></trkpt>
<trkpt lat="51.554567" lon="03.776161"><ele>25.2</ele><time>2022-11-15T10:52:56Z</time><name>PT1997</name></trkpt>
<trkpt lat="51.554567" lon="03.776170"><ele>25.3</ele><time>2022-11-15T10:52:57Z</time><name>PT1998</name></trkpt>
<trkpt lat="51.554559" lon="03.776176"><ele>25.3</ele><time>2022-11-15T10:52:58Z</time><name>PT1999</name></trkpt>
<trkpt lat="51.554555" lon="03.776179"><ele>25.2</ele><time>2022-11-15T10:52:59Z</time><name>PT2000</name></trkpt>
<trkpt lat="51.554549" lon="03.776186"><ele>25.2</ele><time>2022-11-15T10:53:00Z</time><name>PT2001</name></trkpt>
<trkpt lat="51.554545" lon="03.776193"><ele>25.2</ele><time>2022-11-15T10:53:01Z</time><name>PT2002</name></trkpt>
<trkpt lat="51.554542" lon="03.776199"><ele>25.4</ele><time>2022-11-15T10:53:02Z</time><name>PT2003</name></trkpt>
<trkpt lat="51.554539" lon="03.776207"><ele>25.7</ele><time>2022-11-15T10:53:03Z</time><name>PT2004</name></trkpt>
<trkpt lat="51.554539" lon="03.776214"><ele>25.7</ele><time>2022-11-15T10:53:04Z</time><name>PT2005</name></trkpt>
<trkpt lat="51.554540" lon="03.776219"><ele>25.7</ele><time>2022-11-15T10:53:05Z</time><name>PT2006</name></trkpt>
<trkpt lat="51.554541" lon="03.776225"><ele>25.7</ele><time>2022-11-15T10:53:06Z</time><name>PT2007</name></trkpt>
<trkpt lat="51.554543" lon="03.776232"><ele>25.9</ele><time>2022-11-15T10:53:07Z</time><name>PT2008</name></trkpt>
<trkpt lat="51.554543" lon="03.776245"><ele>26</ele><time>2022-11-15T10:53:08Z</time><name>PT2009</name></trkpt>
<trkpt lat="51.554544" lon="03.776253"><ele>26.2</ele><time>2022-11-15T10:53:09Z</time><name>PT2010</name></trkpt>
<trkpt lat="51.554545" lon="03.776267"><ele>26.3</ele><time>2022-11-15T10:53:10Z</time><name>PT2011</name></trkpt>
<trkpt lat="51.554542" lon="03.776275"><ele>26.3</ele><time>2022-11-15T10:53:11Z</time><name>PT2012</name></trkpt>
<trkpt lat="51.554536" lon="03.776283"><ele>26.3</ele><time>2022-11-15T10:53:12Z</time><name>PT2013</name></trkpt>
<trkpt lat="51.554527" lon="03.776289"><ele>26.2</ele><time>2022-11-15T10:53:13Z</time><name>PT2014</name></trkpt>
<trkpt lat="51.554522" lon="03.776298"><ele>26</ele><time>2022-11-15T10:53:14Z</time><name>PT2015</name></trkpt>
<trkpt lat="51.554516" lon="03.776306"><ele>25.7</ele><time>2022-11-15T10:53:15Z</time><name>PT2016</name></trkpt>
<trkpt lat="51.554507" lon="03.776310"><ele>25.3</ele><time>2022-11-15T10:53:16Z</time><name>PT2017</name></trkpt>
<trkpt lat="51.554498" lon="03.776312"><ele>25.1</ele><time>2022-11-15T10:53:17Z</time><name>PT2018</name></trkpt>
<trkpt lat="51.554488" lon="03.776313"><ele>25</ele><time>2022-11-15T10:53:18Z</time><name>PT2019</name></trkpt>
<trkpt lat="51.554477" lon="03.776316"><ele>24.9</ele><time>2022-11-15T10:53:19Z</time><name>PT2020</name></trkpt>
<trkpt lat="51.554467" lon="03.776323"><ele>25</ele><time>2022-11-15T10:53:20Z</time><name>PT2021</name></trkpt>
<trkpt lat="51.554456" lon="03.776334"><ele>24.9</ele><time>2022-11-15T10:53:21Z</time><name>PT2022</name></trkpt>
<trkpt lat="51.554445" lon="03.776341"><ele>24.7</ele><time>2022-11-15T10:53:22Z</time><name>PT2023</name></trkpt>
<trkpt lat="51.554436" lon="03.776347"><ele>24.6</ele><time>2022-11-15T10:53:23Z</time><name>PT2024</name></trkpt>
<trkpt lat="51.554427" lon="03.776353"><ele>24.7</ele><time>2022-11-15T10:53:24Z</time><name>PT2025</name></trkpt>
<trkpt lat="51.554417" lon="03.776358"><ele>24.9</ele><time>2022-11-15T10:53:25Z</time><name>PT2026</name></trkpt>
<trkpt lat="51.554407" lon="03.776364"><ele>25</ele><time>2022-11-15T10:53:26Z</time><name>PT2027</name></trkpt>
<trkpt lat="51.554397" lon="03.776369"><ele>24.9</ele><time>2022-11-15T10:53:27Z</time><name>PT2028</name></trkpt>
<trkpt lat="51.554387" lon="03.776374"><ele>24.7</ele><time>2022-11-15T10:53:28Z</time><name>PT2029</name></trkpt>
<trkpt lat="51.554376" lon="03.776379"><ele>24.7</ele><time>2022-11-15T10:53:29Z</time><name>PT2030</name></trkpt>
<trkpt lat="51.554367" lon="03.776384"><ele>24.5</ele><time>2022-11-15T10:53:30Z</time><name>PT2031</name></trkpt>
<trkpt lat="51.554358" lon="03.776387"><ele>24.3</ele><time>2022-11-15T10:53:31Z</time><name>PT2032</name></trkpt>
<trkpt lat="51.554349" lon="03.776391"><ele>24.3</ele><time>2022-11-15T10:53:32Z</time><name>PT2033</name></trkpt>
<trkpt lat="51.554339" lon="03.776397"><ele>24.5</ele><time>2022-11-15T10:53:33Z</time><name>PT2034</name></trkpt>
<trkpt lat="51.554331" lon="03.776404"><ele>24.3</ele><time>2022-11-15T10:53:34Z</time><name>PT2035</name></trkpt>
<trkpt lat="51.554322" lon="03.776410"><ele>24.3</ele><time>2022-11-15T10:53:35Z</time><name>PT2036</name></trkpt>
<trkpt lat="51.554314" lon="03.776414"><ele>24.3</ele><time>2022-11-15T10:53:36Z</time><name>PT2037</name></trkpt>
<trkpt lat="51.554304" lon="03.776418"><ele>24.2</ele><time>2022-11-15T10:53:37Z</time><name>PT2038</name></trkpt>
<trkpt lat="51.554293" lon="03.776423"><ele>24.2</ele><time>2022-11-15T10:53:38Z</time><name>PT2039</name></trkpt>
<trkpt lat="51.554282" lon="03.776429"><ele>24.3</ele><time>2022-11-15T10:53:39Z</time><name>PT2040</name></trkpt>
<trkpt lat="51.554273" lon="03.776434"><ele>24.4</ele><time>2022-11-15T10:53:40Z</time><name>PT2041</name></trkpt>
<trkpt lat="51.554262" lon="03.776441"><ele>24.3</ele><time>2022-11-15T10:53:41Z</time><name>PT2042</name></trkpt>
<trkpt lat="51.554251" lon="03.776446"><ele>24</ele><time>2022-11-15T10:53:42Z</time><name>PT2043</name></trkpt>
<trkpt lat="51.554241" lon="03.776454"><ele>23.8</ele><time>2022-11-15T10:53:43Z</time><name>PT2044</name></trkpt>
<trkpt lat="51.554232" lon="03.776461"><ele>23.7</ele><time>2022-11-15T10:53:44Z</time><name>PT2045</name></trkpt>
<trkpt lat="51.554222" lon="03.776468"><ele>23.6</ele><time>2022-11-15T10:53:45Z</time><name>PT2046</name></trkpt>
<trkpt lat="51.554212" lon="03.776474"><ele>23.5</ele><time>2022-11-15T10:53:46Z</time><name>PT2047</name></trkpt>
<trkpt lat="51.554201" lon="03.776481"><ele>23.7</ele><time>2022-11-15T10:53:47Z</time><name>PT2048</name></trkpt>
<trkpt lat="51.554193" lon="03.776484"><ele>23.7</ele><time>2022-11-15T10:53:48Z</time><name>PT2049</name></trkpt>
<trkpt lat="51.554181" lon="03.776494"><ele>23.8</ele><time>2022-11-15T10:53:49Z</time><name>PT2050</name></trkpt>
<trkpt lat="51.554172" lon="03.776500"><ele>23.9</ele><time>2022-11-15T10:53:50Z</time><name>PT2051</name></trkpt>
<trkpt lat="51.554161" lon="03.776504"><ele>24</ele><time>2022-11-15T10:53:51Z</time><name>PT2052</name></trkpt>
<trkpt lat="51.554152" lon="03.776510"><ele>24.2</ele><time>2022-11-15T10:53:52Z</time><name>PT2053</name></trkpt>
<trkpt lat="51.554139" lon="03.776524"><ele>24.2</ele><time>2022-11-15T10:53:53Z</time><name>PT2054</name></trkpt>
<trkpt lat="51.554130" lon="03.776531"><ele>24.3</ele><time>2022-11-15T10:53:54Z</time><name>PT2055</name></trkpt>
<trkpt lat="51.554121" lon="03.776539"><ele>24.3</ele><time>2022-11-15T10:53:55Z</time><name>PT2056</name></trkpt>
<trkpt lat="51.554113" lon="03.776546"><ele>24.4</ele><time>2022-11-15T10:53:56Z</time><name>PT2057</name></trkpt>
<trkpt lat="51.554105" lon="03.776553"><ele>24.2</ele><time>2022-11-15T10:53:57Z</time><name>PT2058</name></trkpt>
<trkpt lat="51.554098" lon="03.776559"><ele>24.1</ele><time>2022-11-15T10:53:58Z</time><name>PT2059</name></trkpt>
<trkpt lat="51.554090" lon="03.776563"><ele>24</ele><time>2022-11-15T10:53:59Z</time><name>PT2060</name></trkpt>
<trkpt lat="51.554083" lon="03.776568"><ele>24</ele><time>2022-11-15T10:54:00Z</time><name>PT2061</name></trkpt>
<trkpt lat="51.554074" lon="03.776575"><ele>24</ele><time>2022-11-15T10:54:01Z</time><name>PT2062</name></trkpt>
<trkpt lat="51.554066" lon="03.776583"><ele>24.2</ele><time>2022-11-15T10:54:02Z</time><name>PT2063</name></trkpt>
<trkpt lat="51.554057" lon="03.776591"><ele>24.3</ele><time>2022-11-15T10:54:03Z</time><name>PT2064</name></trkpt>
<trkpt lat="51.554048" lon="03.776598"><ele>24.4</ele><time>2022-11-15T10:54:04Z</time><name>PT2065</name></trkpt>
<trkpt lat="51.554038" lon="03.776603"><ele>24.4</ele><time>2022-11-15T10:54:05Z</time><name>PT2066</name></trkpt>
<trkpt lat="51.554029" lon="03.776606"><ele>24.5</ele><time>2022-11-15T10:54:06Z</time><name>PT2067</name></trkpt>
<trkpt lat="51.554020" lon="03.776608"><ele>24.4</ele><time>2022-11-15T10:54:07Z</time><name>PT2068</name></trkpt>
<trkpt lat="51.554010" lon="03.776611"><ele>24.5</ele><time>2022-11-15T10:54:08Z</time><name>PT2069</name></trkpt>
<trkpt lat="51.554001" lon="03.776616"><ele>24.5</ele><time>2022-11-15T10:54:09Z</time><name>PT2070</name></trkpt>
<trkpt lat="51.553992" lon="03.776621"><ele>24.6</ele><time>2022-11-15T10:54:10Z</time><name>PT2071</name></trkpt>
<trkpt lat="51.553983" lon="03.776629"><ele>24.7</ele><time>2022-11-15T10:54:11Z</time><name>PT2072</name></trkpt>
<trkpt lat="51.553978" lon="03.776639"><ele>24.7</ele><time>2022-11-15T10:54:12Z</time><name>PT2073</name></trkpt>
<trkpt lat="51.553979" lon="03.776645"><ele>24.4</ele><time>2022-11-15T10:54:13Z</time><name>PT2074</name></trkpt>
<trkpt lat="51.553979" lon="03.776649"><ele>24.3</ele><time>2022-11-15T10:54:14Z</time><name>PT2075</name></trkpt>
<trkpt lat="51.553979" lon="03.776644"><ele>24.3</ele><time>2022-11-15T10:54:15Z</time><name>PT2076</name></trkpt>
<trkpt lat="51.553978" lon="03.776646"><ele>24.7</ele><time>2022-11-15T10:54:16Z</time><name>PT2077</name></trkpt>
<trkpt lat="51.553977" lon="03.776650"><ele>24.7</ele><time>2022-11-15T10:54:17Z</time><name>PT2078</name></trkpt>
<trkpt lat="51.553977" lon="03.776650"><ele>25</ele><time>2022-11-15T10:54:18Z</time><name>PT2079</name></trkpt>
<trkpt lat="51.553975" lon="03.776652"><ele>25.3</ele><time>2022-11-15T10:54:24Z</time><name>PT2080</name></trkpt>
<trkpt lat="51.553975" lon="03.776652"><ele>25.2</ele><time>2022-11-15T10:54:25Z</time><name>PT2081</name></trkpt>
<trkpt lat="51.553973" lon="03.776652"><ele>25.1</ele><time>2022-11-15T10:54:26Z</time><name>PT2082</name></trkpt>
<trkpt lat="51.553967" lon="03.776651"><ele>24.4</ele><time>2022-11-15T10:54:42Z</time><name>PT2083</name></trkpt>
<trkpt lat="51.553956" lon="03.776655"><ele>24.2</ele><time>2022-11-15T10:54:43Z</time><name>PT2084</name></trkpt>
<trkpt lat="51.553946" lon="03.776663"><ele>24.2</ele><time>2022-11-15T10:54:44Z</time><name>PT2085</name></trkpt>
<trkpt lat="51.553939" lon="03.776670"><ele>24.3</ele><time>2022-11-15T10:54:45Z</time><name>PT2086</name></trkpt>
<trkpt lat="51.553930" lon="03.776676"><ele>24.1</ele><time>2022-11-15T10:54:46Z</time><name>PT2087</name></trkpt>
<trkpt lat="51.553924" lon="03.776680"><ele>24.2</ele><time>2022-11-15T10:54:47Z</time><name>PT2088</name></trkpt>
<trkpt lat="51.553920" lon="03.776684"><ele>24.3</ele><time>2022-11-15T10:54:48Z</time><name>PT2089</name></trkpt>
<trkpt lat="51.553914" lon="03.776688"><ele>24.3</ele><time>2022-11-15T10:54:49Z</time><name>PT2090</name></trkpt>
<trkpt lat="51.553906" lon="03.776693"><ele>24.5</ele><time>2022-11-15T10:54:50Z</time><name>PT2091</name></trkpt>
<trkpt lat="51.553899" lon="03.776697"><ele>24.6</ele><time>2022-11-15T10:54:51Z</time><name>PT2092</name></trkpt>
<trkpt lat="51.553891" lon="03.776701"><ele>24.7</ele><time>2022-11-15T10:54:52Z</time><name>PT2093</name></trkpt>
<trkpt lat="51.553884" lon="03.776704"><ele>24.6</ele><time>2022-11-15T10:54:53Z</time><name>PT2094</name></trkpt>
<trkpt lat="51.553878" lon="03.776709"><ele>24.5</ele><time>2022-11-15T10:54:54Z</time><name>PT2095</name></trkpt>
<trkpt lat="51.553872" lon="03.776715"><ele>24.5</ele><time>2022-11-15T10:54:55Z</time><name>PT2096</name></trkpt>
<trkpt lat="51.553865" lon="03.776719"><ele>24.3</ele><time>2022-11-15T10:54:56Z</time><name>PT2097</name></trkpt>
<trkpt lat="51.553857" lon="03.776726"><ele>24.2</ele><time>2022-11-15T10:54:57Z</time><name>PT2098</name></trkpt>
<trkpt lat="51.553849" lon="03.776735"><ele>24.4</ele><time>2022-11-15T10:54:58Z</time><name>PT2099</name></trkpt>
<trkpt lat="51.553839" lon="03.776739"><ele>24.6</ele><time>2022-11-15T10:54:59Z</time><name>PT2100</name></trkpt>
<trkpt lat="51.553827" lon="03.776747"><ele>24.5</ele><time>2022-11-15T10:55:00Z</time><name>PT2101</name></trkpt>
<trkpt lat="51.553815" lon="03.776757"><ele>24.6</ele><time>2022-11-15T10:55:01Z</time><name>PT2102</name></trkpt>
<trkpt lat="51.553808" lon="03.776765"><ele>24.6</ele><time>2022-11-15T10:55:02Z</time><name>PT2103</name></trkpt>
<trkpt lat="51.553803" lon="03.776773"><ele>24.5</ele><time>2022-11-15T10:55:03Z</time><name>PT2104</name></trkpt>
<trkpt lat="51.553797" lon="03.776779"><ele>24.4</ele><time>2022-11-15T10:55:04Z</time><name>PT2105</name></trkpt>
<trkpt lat="51.553790" lon="03.776785"><ele>24.2</ele><time>2022-11-15T10:55:05Z</time><name>PT2106</name></trkpt>
<trkpt lat="51.553784" lon="03.776790"><ele>24.2</ele><time>2022-11-15T10:55:06Z</time><name>PT2107</name></trkpt>
<trkpt lat="51.553778" lon="03.776796"><ele>24.3</ele><time>2022-11-15T10:55:07Z</time><name>PT2108</name></trkpt>
<trkpt lat="51.553770" lon="03.776799"><ele>24.2</ele><time>2022-11-15T10:55:08Z</time><name>PT2109</name></trkpt>
<trkpt lat="51.553760" lon="03.776803"><ele>24.1</ele><time>2022-11-15T10:55:09Z</time><name>PT2110</name></trkpt>
<trkpt lat="51.553748" lon="03.776810"><ele>23.9</ele><time>2022-11-15T10:55:10Z</time><name>PT2111</name></trkpt>
<trkpt lat="51.553729" lon="03.776821"><ele>23.9</ele><time>2022-11-15T10:55:11Z</time><name>PT2112</name></trkpt>
<trkpt lat="51.553710" lon="03.776835"><ele>24.1</ele><time>2022-11-15T10:55:12Z</time><name>PT2113</name></trkpt>
<trkpt lat="51.553694" lon="03.776846"><ele>23.9</ele><time>2022-11-15T10:55:13Z</time><name>PT2114</name></trkpt>
<trkpt lat="51.553682" lon="03.776852"><ele>24.1</ele><time>2022-11-15T10:55:14Z</time><name>PT2115</name></trkpt>
<trkpt lat="51.553674" lon="03.776859"><ele>24.2</ele><time>2022-11-15T10:55:15Z</time><name>PT2116</name></trkpt>
<trkpt lat="51.553671" lon="03.776865"><ele>24</ele><time>2022-11-15T10:55:16Z</time><name>PT2117</name></trkpt>
<trkpt lat="51.553669" lon="03.776865"><ele>24.1</ele><time>2022-11-15T10:55:17Z</time><name>PT2118</name></trkpt>
<trkpt lat="51.553664" lon="03.776870"><ele>24.3</ele><time>2022-11-15T10:55:18Z</time><name>PT2119</name></trkpt>
<trkpt lat="51.553655" lon="03.776877"><ele>24.3</ele><time>2022-11-15T10:55:19Z</time><name>PT2120</name></trkpt>
<trkpt lat="51.553646" lon="03.776882"><ele>24.5</ele><time>2022-11-15T10:55:20Z</time><name>PT2121</name></trkpt>
<trkpt lat="51.553633" lon="03.776892"><ele>24.6</ele><time>2022-11-15T10:55:21Z</time><name>PT2122</name></trkpt>
<trkpt lat="51.553621" lon="03.776901"><ele>24.6</ele><time>2022-11-15T10:55:22Z</time><name>PT2123</name></trkpt>
<trkpt lat="51.553613" lon="03.776905"><ele>24.6</ele><time>2022-11-15T10:55:23Z</time><name>PT2124</name></trkpt>
<trkpt lat="51.553608" lon="03.776914"><ele>24.7</ele><time>2022-11-15T10:55:24Z</time><name>PT2125</name></trkpt>
<trkpt lat="51.553605" lon="03.776918"><ele>24.7</ele><time>2022-11-15T10:55:25Z</time><name>PT2126</name></trkpt>
<trkpt lat="51.553600" lon="03.776923"><ele>25</ele><time>2022-11-15T10:55:26Z</time><name>PT2127</name></trkpt>
<trkpt lat="51.553589" lon="03.776932"><ele>24.9</ele><time>2022-11-15T10:55:27Z</time><name>PT2128</name></trkpt>
<trkpt lat="51.553577" lon="03.776942"><ele>24.9</ele><time>2022-11-15T10:55:28Z</time><name>PT2129</name></trkpt>
<trkpt lat="51.553566" lon="03.776958"><ele>25</ele><time>2022-11-15T10:55:29Z</time><name>PT2130</name></trkpt>
<trkpt lat="51.553558" lon="03.776969"><ele>24.8</ele><time>2022-11-15T10:55:30Z</time><name>PT2131</name></trkpt>
<trkpt lat="51.553553" lon="03.776982"><ele>24.7</ele><time>2022-11-15T10:55:31Z</time><name>PT2132</name></trkpt>
<trkpt lat="51.553548" lon="03.776994"><ele>24.7</ele><time>2022-11-15T10:55:32Z</time><name>PT2133</name></trkpt>
<trkpt lat="51.553544" lon="03.777005"><ele>24.7</ele><time>2022-11-15T10:55:33Z</time><name>PT2134</name></trkpt>
<trkpt lat="51.553535" lon="03.777021"><ele>24.7</ele><time>2022-11-15T10:55:34Z</time><name>PT2135</name></trkpt>
<trkpt lat="51.553530" lon="03.777035"><ele>24.6</ele><time>2022-11-15T10:55:35Z</time><name>PT2136</name></trkpt>
<trkpt lat="51.553526" lon="03.777049"><ele>24.5</ele><time>2022-11-15T10:55:36Z</time><name>PT2137</name></trkpt>
<trkpt lat="51.553520" lon="03.777066"><ele>24.5</ele><time>2022-11-15T10:55:37Z</time><name>PT2138</name></trkpt>
<trkpt lat="51.553513" lon="03.777087"><ele>24.7</ele><time>2022-11-15T10:55:38Z</time><name>PT2139</name></trkpt>
<trkpt lat="51.553506" lon="03.777109"><ele>24.6</ele><time>2022-11-15T10:55:39Z</time><name>PT2140</name></trkpt>
<trkpt lat="51.553500" lon="03.777128"><ele>24.7</ele><time>2022-11-15T10:55:40Z</time><name>PT2141</name></trkpt>
<trkpt lat="51.553495" lon="03.777144"><ele>24.8</ele><time>2022-11-15T10:55:41Z</time><name>PT2142</name></trkpt>
<trkpt lat="51.553491" lon="03.777154"><ele>24.8</ele><time>2022-11-15T10:55:42Z</time><name>PT2143</name></trkpt>
<trkpt lat="51.553487" lon="03.777164"><ele>24.8</ele><time>2022-11-15T10:55:43Z</time><name>PT2144</name></trkpt>
<trkpt lat="51.553484" lon="03.777176"><ele>24.7</ele><time>2022-11-15T10:55:44Z</time><name>PT2145</name></trkpt>
<trkpt lat="51.553479" lon="03.777188"><ele>24.6</ele><time>2022-11-15T10:55:45Z</time><name>PT2146</name></trkpt>
<trkpt lat="51.553474" lon="03.777201"><ele>24.9</ele><time>2022-11-15T10:55:46Z</time><name>PT2147</name></trkpt>
<trkpt lat="51.553469" lon="03.777215"><ele>24.9</ele><time>2022-11-15T10:55:47Z</time><name>PT2148</name></trkpt>
<trkpt lat="51.553462" lon="03.777233"><ele>24.7</ele><time>2022-11-15T10:55:48Z</time><name>PT2149</name></trkpt>
<trkpt lat="51.553456" lon="03.777251"><ele>24.9</ele><time>2022-11-15T10:55:49Z</time><name>PT2150</name></trkpt>
<trkpt lat="51.553452" lon="03.777268"><ele>24.8</ele><time>2022-11-15T10:55:50Z</time><name>PT2151</name></trkpt>
<trkpt lat="51.553448" lon="03.777285"><ele>24.7</ele><time>2022-11-15T10:55:51Z</time><name>PT2152</name></trkpt>
<trkpt lat="51.553444" lon="03.777302"><ele>24.7</ele><time>2022-11-15T10:55:52Z</time><name>PT2153</name></trkpt>
<trkpt lat="51.553439" lon="03.777317"><ele>24.7</ele><time>2022-11-15T10:55:53Z</time><name>PT2154</name></trkpt>
<trkpt lat="51.553435" lon="03.777331"><ele>24.6</ele><time>2022-11-15T10:55:54Z</time><name>PT2155</name></trkpt>
<trkpt lat="51.553431" lon="03.777345"><ele>24.5</ele><time>2022-11-15T10:55:55Z</time><name>PT2156</name></trkpt>
<trkpt lat="51.553426" lon="03.777358"><ele>24.2</ele><time>2022-11-15T10:55:56Z</time><name>PT2157</name></trkpt>
<trkpt lat="51.553420" lon="03.777375"><ele>24.3</ele><time>2022-11-15T10:55:57Z</time><name>PT2158</name></trkpt>
<trkpt lat="51.553413" lon="03.777391"><ele>24.5</ele><time>2022-11-15T10:55:58Z</time><name>PT2159</name></trkpt>
<trkpt lat="51.553408" lon="03.777406"><ele>24.4</ele><time>2022-11-15T10:55:59Z</time><name>PT2160</name></trkpt>
<trkpt lat="51.553405" lon="03.777421"><ele>24.6</ele><time>2022-11-15T10:56:00Z</time><name>PT2161</name></trkpt>
<trkpt lat="51.553401" lon="03.777442"><ele>24.7</ele><time>2022-11-15T10:56:01Z</time><name>PT2162</name></trkpt>
<trkpt lat="51.553397" lon="03.777462"><ele>24.6</ele><time>2022-11-15T10:56:02Z</time><name>PT2163</name></trkpt>
<trkpt lat="51.553391" lon="03.777478"><ele>24.6</ele><time>2022-11-15T10:56:03Z</time><name>PT2164</name></trkpt>
<trkpt lat="51.553389" lon="03.777491"><ele>24.7</ele><time>2022-11-15T10:56:04Z</time><name>PT2165</name></trkpt>
<trkpt lat="51.553388" lon="03.777499"><ele>24.6</ele><time>2022-11-15T10:56:05Z</time><name>PT2166</name></trkpt>
<trkpt lat="51.553386" lon="03.777507"><ele>24.3</ele><time>2022-11-15T10:56:06Z</time><name>PT2167</name></trkpt>
<trkpt lat="51.553381" lon="03.777519"><ele>24.4</ele><time>2022-11-15T10:56:07Z</time><name>PT2168</name></trkpt>
<trkpt lat="51.553376" lon="03.777534"><ele>24</ele><time>2022-11-15T10:56:08Z</time><name>PT2169</name></trkpt>
<trkpt lat="51.553369" lon="03.777553"><ele>23.9</ele><time>2022-11-15T10:56:09Z</time><name>PT2170</name></trkpt>
<trkpt lat="51.553359" lon="03.777577"><ele>24</ele><time>2022-11-15T10:56:10Z</time><name>PT2171</name></trkpt>
<trkpt lat="51.553351" lon="03.777601"><ele>24</ele><time>2022-11-15T10:56:11Z</time><name>PT2172</name></trkpt>
<trkpt lat="51.553344" lon="03.777623"><ele>24.2</ele><time>2022-11-15T10:56:12Z</time><name>PT2173</name></trkpt>
<trkpt lat="51.553338" lon="03.777640"><ele>24.2</ele><time>2022-11-15T10:56:13Z</time><name>PT2174</name></trkpt>
<trkpt lat="51.553334" lon="03.777652"><ele>24.3</ele><time>2022-11-15T10:56:14Z</time><name>PT2175</name></trkpt>
<trkpt lat="51.553333" lon="03.777662"><ele>24.2</ele><time>2022-11-15T10:56:15Z</time><name>PT2176</name></trkpt>
<trkpt lat="51.553330" lon="03.777672"><ele>24.3</ele><time>2022-11-15T10:56:16Z</time><name>PT2177</name></trkpt>
<trkpt lat="51.553328" lon="03.777681"><ele>24.2</ele><time>2022-11-15T10:56:17Z</time><name>PT2178</name></trkpt>
<trkpt lat="51.553323" lon="03.777694"><ele>24.3</ele><time>2022-11-15T10:56:18Z</time><name>PT2179</name></trkpt>
<trkpt lat="51.553316" lon="03.777712"><ele>24.3</ele><time>2022-11-15T10:56:19Z</time><name>PT2180</name></trkpt>
<trkpt lat="51.553309" lon="03.777733"><ele>24.5</ele><time>2022-11-15T10:56:20Z</time><name>PT2181</name></trkpt>
<trkpt lat="51.553303" lon="03.777748"><ele>24.4</ele><time>2022-11-15T10:56:21Z</time><name>PT2182</name></trkpt>
<trkpt lat="51.553298" lon="03.777763"><ele>24.3</ele><time>2022-11-15T10:56:22Z</time><name>PT2183</name></trkpt>
<trkpt lat="51.553297" lon="03.777772"><ele>24.2</ele><time>2022-11-15T10:56:23Z</time><name>PT2184</name></trkpt>
<trkpt lat="51.553297" lon="03.777779"><ele>24.1</ele><time>2022-11-15T10:56:24Z</time><name>PT2185</name></trkpt>
<trkpt lat="51.553295" lon="03.777788"><ele>24</ele><time>2022-11-15T10:56:25Z</time><name>PT2186</name></trkpt>
<trkpt lat="51.553289" lon="03.777804"><ele>24</ele><time>2022-11-15T10:56:29Z</time><name>PT2187</name></trkpt>
<trkpt lat="51.553279" lon="03.777829"><ele>24</ele><time>2022-11-15T10:56:30Z</time><name>PT2188</name></trkpt>
<trkpt lat="51.553274" lon="03.777850"><ele>24.1</ele><time>2022-11-15T10:56:31Z</time><name>PT2189</name></trkpt>
<trkpt lat="51.553270" lon="03.777871"><ele>24.2</ele><time>2022-11-15T10:56:32Z</time><name>PT2190</name></trkpt>
<trkpt lat="51.553265" lon="03.777886"><ele>24.2</ele><time>2022-11-15T10:56:33Z</time><name>PT2191</name></trkpt>
<trkpt lat="51.553262" lon="03.777902"><ele>24.2</ele><time>2022-11-15T10:56:34Z</time><name>PT2192</name></trkpt>
<trkpt lat="51.553260" lon="03.777912"><ele>24.2</ele><time>2022-11-15T10:56:35Z</time><name>PT2193</name></trkpt>
<trkpt lat="51.553255" lon="03.777921"><ele>24.2</ele><time>2022-11-15T10:56:36Z</time><name>PT2194</name></trkpt>
<trkpt lat="51.553249" lon="03.777935"><ele>24.3</ele><time>2022-11-15T10:56:37Z</time><name>PT2195</name></trkpt>
<trkpt lat="51.553242" lon="03.777953"><ele>24.2</ele><time>2022-11-15T10:56:38Z</time><name>PT2196</name></trkpt>
<trkpt lat="51.553234" lon="03.777978"><ele>24.2</ele><time>2022-11-15T10:56:39Z</time><name>PT2197</name></trkpt>
<trkpt lat="51.553229" lon="03.778001"><ele>24.2</ele><time>2022-11-15T10:56:40Z</time><name>PT2198</name></trkpt>
<trkpt lat="51.553225" lon="03.778020"><ele>24.2</ele><time>2022-11-15T10:56:41Z</time><name>PT2199</name></trkpt>
<trkpt lat="51.553221" lon="03.778035"><ele>23.8</ele><time>2022-11-15T10:56:42Z</time><name>PT2200</name></trkpt>
<trkpt lat="51.553217" lon="03.778047"><ele>23.7</ele><time>2022-11-15T10:56:43Z</time><name>PT2201</name></trkpt>
<trkpt lat="51.553214" lon="03.778061"><ele>23.7</ele><time>2022-11-15T10:56:44Z</time><name>PT2202</name></trkpt>
<trkpt lat="51.553209" lon="03.778075"><ele>23.6</ele><time>2022-11-15T10:56:45Z</time><name>PT2203</name></trkpt>
<trkpt lat="51.553207" lon="03.778088"><ele>23.7</ele><time>2022-11-15T10:56:46Z</time><name>PT2204</name></trkpt>
<trkpt lat="51.553203" lon="03.778101"><ele>23.7</ele><time>2022-11-15T10:56:47Z</time><name>PT2205</name></trkpt>
<trkpt lat="51.553196" lon="03.778119"><ele>23.9</ele><time>2022-11-15T10:56:48Z</time><name>PT2206</name></trkpt>
<trkpt lat="51.553188" lon="03.778145"><ele>23.9</ele><time>2022-11-15T10:56:49Z</time><name>PT2207</name></trkpt>
<trkpt lat="51.553181" lon="03.778169"><ele>24</ele><time>2022-11-15T10:56:50Z</time><name>PT2208</name></trkpt>
<trkpt lat="51.553173" lon="03.778201"><ele>23.9</ele><time>2022-11-15T10:56:51Z</time><name>PT2209</name></trkpt>
<trkpt lat="51.553169" lon="03.778218"><ele>23.7</ele><time>2022-11-15T10:56:52Z</time><name>PT2210</name></trkpt>
<trkpt lat="51.553166" lon="03.778232"><ele>23.5</ele><time>2022-11-15T10:56:53Z</time><name>PT2211</name></trkpt>
<trkpt lat="51.553164" lon="03.778247"><ele>23.4</ele><time>2022-11-15T10:56:54Z</time><name>PT2212</name></trkpt>
<trkpt lat="51.553162" lon="03.778262"><ele>23.7</ele><time>2022-11-15T10:56:55Z</time><name>PT2213</name></trkpt>
<trkpt lat="51.553155" lon="03.778279"><ele>23.7</ele><time>2022-11-15T10:56:56Z</time><name>PT2214</name></trkpt>
<trkpt lat="51.553145" lon="03.778304"><ele>23.9</ele><time>2022-11-15T10:56:57Z</time><name>PT2215</name></trkpt>
<trkpt lat="51.553136" lon="03.778329"><ele>24.2</ele><time>2022-11-15T10:56:58Z</time><name>PT2216</name></trkpt>
<trkpt lat="51.553130" lon="03.778352"><ele>24.5</ele><time>2022-11-15T10:56:59Z</time><name>PT2217</name></trkpt>
<trkpt lat="51.553124" lon="03.778371"><ele>24.5</ele><time>2022-11-15T10:57:00Z</time><name>PT2218</name></trkpt>
<trkpt lat="51.553120" lon="03.778386"><ele>24.7</ele><time>2022-11-15T10:57:01Z</time><name>PT2219</name></trkpt>
<trkpt lat="51.553118" lon="03.778401"><ele>24.7</ele><time>2022-11-15T10:57:02Z</time><name>PT2220</name></trkpt>
<trkpt lat="51.553116" lon="03.778412"><ele>24.6</ele><time>2022-11-15T10:57:03Z</time><name>PT2221</name></trkpt>
<trkpt lat="51.553113" lon="03.778421"><ele>24.5</ele><time>2022-11-15T10:57:04Z</time><name>PT2222</name></trkpt>
<trkpt lat="51.553111" lon="03.778429"><ele>24.6</ele><time>2022-11-15T10:57:05Z</time><name>PT2223</name></trkpt>
<trkpt lat="51.553107" lon="03.778440"><ele>24.6</ele><time>2022-11-15T10:57:06Z</time><name>PT2224</name></trkpt>
<trkpt lat="51.553101" lon="03.778452"><ele>24.5</ele><time>2022-11-15T10:57:07Z</time><name>PT2225</name></trkpt>
<trkpt lat="51.553094" lon="03.778467"><ele>24.7</ele><time>2022-11-15T10:57:08Z</time><name>PT2226</name></trkpt>
<trkpt lat="51.553087" lon="03.778488"><ele>24.6</ele><time>2022-11-15T10:57:09Z</time><name>PT2227</name></trkpt>
<trkpt lat="51.553080" lon="03.778508"><ele>24.5</ele><time>2022-11-15T10:57:10Z</time><name>PT2228</name></trkpt>
<trkpt lat="51.553073" lon="03.778528"><ele>24.4</ele><time>2022-11-15T10:57:11Z</time><name>PT2229</name></trkpt>
<trkpt lat="51.553068" lon="03.778547"><ele>24.4</ele><time>2022-11-15T10:57:12Z</time><name>PT2230</name></trkpt>
<trkpt lat="51.553062" lon="03.778567"><ele>24.3</ele><time>2022-11-15T10:57:13Z</time><name>PT2231</name></trkpt>
<trkpt lat="51.553056" lon="03.778583"><ele>24.3</ele><time>2022-11-15T10:57:14Z</time><name>PT2232</name></trkpt>
<trkpt lat="51.553053" lon="03.778596"><ele>24.2</ele><time>2022-11-15T10:57:15Z</time><name>PT2233</name></trkpt>
<trkpt lat="51.553054" lon="03.778606"><ele>24.1</ele><time>2022-11-15T10:57:16Z</time><name>PT2234</name></trkpt>
<trkpt lat="51.553052" lon="03.778612"><ele>24.1</ele><time>2022-11-15T10:57:17Z</time><name>PT2235</name></trkpt>
<trkpt lat="51.553051" lon="03.778619"><ele>24.1</ele><time>2022-11-15T10:57:18Z</time><name>PT2236</name></trkpt>
<trkpt lat="51.553048" lon="03.778629"><ele>24</ele><time>2022-11-15T10:57:19Z</time><name>PT2237</name></trkpt>
<trkpt lat="51.553046" lon="03.778637"><ele>24</ele><time>2022-11-15T10:57:20Z</time><name>PT2238</name></trkpt>
<trkpt lat="51.553044" lon="03.778647"><ele>24.2</ele><time>2022-11-15T10:57:21Z</time><name>PT2239</name></trkpt>
<trkpt lat="51.553038" lon="03.778658"><ele>24.2</ele><time>2022-11-15T10:57:22Z</time><name>PT2240</name></trkpt>
<trkpt lat="51.553031" lon="03.778676"><ele>24.2</ele><time>2022-11-15T10:57:23Z</time><name>PT2241</name></trkpt>
<trkpt lat="51.553022" lon="03.778694"><ele>24.4</ele><time>2022-11-15T10:57:24Z</time><name>PT2242</name></trkpt>
<trkpt lat="51.553015" lon="03.778709"><ele>24.6</ele><time>2022-11-15T10:57:25Z</time><name>PT2243</name></trkpt>
<trkpt lat="51.553009" lon="03.778722"><ele>24.6</ele><time>2022-11-15T10:57:26Z</time><name>PT2244</name></trkpt>
<trkpt lat="51.553005" lon="03.778735"><ele>24.6</ele><time>2022-11-15T10:57:27Z</time><name>PT2245</name></trkpt>
<trkpt lat="51.553002" lon="03.778746"><ele>24.5</ele><time>2022-11-15T10:57:28Z</time><name>PT2246</name></trkpt>
<trkpt lat="51.553001" lon="03.778759"><ele>24.5</ele><time>2022-11-15T10:57:29Z</time><name>PT2247</name></trkpt>
<trkpt lat="51.553000" lon="03.778769"><ele>24.2</ele><time>2022-11-15T10:57:30Z</time><name>PT2248</name></trkpt>
<trkpt lat="51.552993" lon="03.778784"><ele>24.2</ele><time>2022-11-15T10:57:31Z</time><name>PT2249</name></trkpt>
<trkpt lat="51.552986" lon="03.778795"><ele>24.1</ele><time>2022-11-15T10:57:32Z</time><name>PT2250</name></trkpt>
<trkpt lat="51.552979" lon="03.778815"><ele>24.2</ele><time>2022-11-15T10:57:33Z</time><name>PT2251</name></trkpt>
<trkpt lat="51.552971" lon="03.778834"><ele>24</ele><time>2022-11-15T10:57:34Z</time><name>PT2252</name></trkpt>
<trkpt lat="51.552965" lon="03.778851"><ele>24.2</ele><time>2022-11-15T10:57:35Z</time><name>PT2253</name></trkpt>
<trkpt lat="51.552963" lon="03.778863"><ele>24.2</ele><time>2022-11-15T10:57:36Z</time><name>PT2254</name></trkpt>
<trkpt lat="51.552959" lon="03.778876"><ele>24.3</ele><time>2022-11-15T10:57:37Z</time><name>PT2255</name></trkpt>
<trkpt lat="51.552956" lon="03.778887"><ele>24.7</ele><time>2022-11-15T10:57:38Z</time><name>PT2256</name></trkpt>
<trkpt lat="51.552951" lon="03.778897"><ele>24.7</ele><time>2022-11-15T10:57:39Z</time><name>PT2257</name></trkpt>
<trkpt lat="51.552946" lon="03.778907"><ele>24.7</ele><time>2022-11-15T10:57:40Z</time><name>PT2258</name></trkpt>
<trkpt lat="51.552941" lon="03.778922"><ele>24.8</ele><time>2022-11-15T10:57:41Z</time><name>PT2259</name></trkpt>
<trkpt lat="51.552935" lon="03.778946"><ele>24.7</ele><time>2022-11-15T10:57:42Z</time><name>PT2260</name></trkpt>
<trkpt lat="51.552930" lon="03.778959"><ele>24.6</ele><time>2022-11-15T10:57:43Z</time><name>PT2261</name></trkpt>
<trkpt lat="51.552929" lon="03.778969"><ele>24.7</ele><time>2022-11-15T10:57:44Z</time><name>PT2262</name></trkpt>
<trkpt lat="51.552926" lon="03.778977"><ele>24.6</ele><time>2022-11-15T10:57:45Z</time><name>PT2263</name></trkpt>
<trkpt lat="51.552923" lon="03.778985"><ele>24.5</ele><time>2022-11-15T10:57:46Z</time><name>PT2264</name></trkpt>
<trkpt lat="51.552917" lon="03.779006"><ele>24.5</ele><time>2022-11-15T10:57:47Z</time><name>PT2265</name></trkpt>
<trkpt lat="51.552910" lon="03.779025"><ele>24.2</ele><time>2022-11-15T10:57:48Z</time><name>PT2266</name></trkpt>
<trkpt lat="51.552903" lon="03.779045"><ele>24.1</ele><time>2022-11-15T10:57:49Z</time><name>PT2267</name></trkpt>
<trkpt lat="51.552898" lon="03.779070"><ele>24.1</ele><time>2022-11-15T10:57:50Z</time><name>PT2268</name></trkpt>
<trkpt lat="51.552893" lon="03.779088"><ele>23.9</ele><time>2022-11-15T10:57:51Z</time><name>PT2269</name></trkpt>
<trkpt lat="51.552890" lon="03.779101"><ele>23.8</ele><time>2022-11-15T10:57:52Z</time><name>PT2270</name></trkpt>
<trkpt lat="51.552888" lon="03.779107"><ele>23.9</ele><time>2022-11-15T10:57:53Z</time><name>PT2271</name></trkpt>
<trkpt lat="51.552886" lon="03.779113"><ele>23.8</ele><time>2022-11-15T10:57:54Z</time><name>PT2272</name></trkpt>
<trkpt lat="51.552884" lon="03.779124"><ele>23.8</ele><time>2022-11-15T10:57:55Z</time><name>PT2273</name></trkpt>
<trkpt lat="51.552879" lon="03.779138"><ele>23.8</ele><time>2022-11-15T10:57:56Z</time><name>PT2274</name></trkpt>
<trkpt lat="51.552872" lon="03.779155"><ele>23.9</ele><time>2022-11-15T10:57:57Z</time><name>PT2275</name></trkpt>
<trkpt lat="51.552862" lon="03.779176"><ele>23.9</ele><time>2022-11-15T10:57:58Z</time><name>PT2276</name></trkpt>
<trkpt lat="51.552855" lon="03.779196"><ele>23.9</ele><time>2022-11-15T10:57:59Z</time><name>PT2277</name></trkpt>
<trkpt lat="51.552851" lon="03.779214"><ele>23.7</ele><time>2022-11-15T10:58:00Z</time><name>PT2278</name></trkpt>
<trkpt lat="51.552851" lon="03.779226"><ele>23.7</ele><time>2022-11-15T10:58:01Z</time><name>PT2279</name></trkpt>
<trkpt lat="51.552850" lon="03.779238"><ele>23.8</ele><time>2022-11-15T10:58:02Z</time><name>PT2280</name></trkpt>
<trkpt lat="51.552850" lon="03.779243"><ele>23.7</ele><time>2022-11-15T10:58:03Z</time><name>PT2281</name></trkpt>
<trkpt lat="51.552848" lon="03.779252"><ele>24</ele><time>2022-11-15T10:58:04Z</time><name>PT2282</name></trkpt>
<trkpt lat="51.552846" lon="03.779263"><ele>24.1</ele><time>2022-11-15T10:58:05Z</time><name>PT2283</name></trkpt>
<trkpt lat="51.552842" lon="03.779274"><ele>23.8</ele><time>2022-11-15T10:58:06Z</time><name>PT2284</name></trkpt>
<trkpt lat="51.552837" lon="03.779299"><ele>23.7</ele><time>2022-11-15T10:58:07Z</time><name>PT2285</name></trkpt>
<trkpt lat="51.552830" lon="03.779322"><ele>23.7</ele><time>2022-11-15T10:58:08Z</time><name>PT2286</name></trkpt>
<trkpt lat="51.552825" lon="03.779346"><ele>23.7</ele><time>2022-11-15T10:58:09Z</time><name>PT2287</name></trkpt>
<trkpt lat="51.552823" lon="03.779363"><ele>23.6</ele><time>2022-11-15T10:58:10Z</time><name>PT2288</name></trkpt>
<trkpt lat="51.552822" lon="03.779378"><ele>23.7</ele><time>2022-11-15T10:58:11Z</time><name>PT2289</name></trkpt>
<trkpt lat="51.552819" lon="03.779396"><ele>23.7</ele><time>2022-11-15T10:58:12Z</time><name>PT2290</name></trkpt>
<trkpt lat="51.552817" lon="03.779408"><ele>23.8</ele><time>2022-11-15T10:58:13Z</time><name>PT2291</name></trkpt>
<trkpt lat="51.552815" lon="03.779423"><ele>23.7</ele><time>2022-11-15T10:58:14Z</time><name>PT2292</name></trkpt>
<trkpt lat="51.552810" lon="03.779452"><ele>23.8</ele><time>2022-11-15T10:58:15Z</time><name>PT2293</name></trkpt>
<trkpt lat="51.552803" lon="03.779482"><ele>23.7</ele><time>2022-11-15T10:58:16Z</time><name>PT2294</name></trkpt>
<trkpt lat="51.552799" lon="03.779506"><ele>23.7</ele><time>2022-11-15T10:58:17Z</time><name>PT2295</name></trkpt>
<trkpt lat="51.552797" lon="03.779531"><ele>23.7</ele><time>2022-11-15T10:58:18Z</time><name>PT2296</name></trkpt>
<trkpt lat="51.552796" lon="03.779553"><ele>23.7</ele><time>2022-11-15T10:58:19Z</time><name>PT2297</name></trkpt>
<trkpt lat="51.552796" lon="03.779569"><ele>23.7</ele><time>2022-11-15T10:58:20Z</time><name>PT2298</name></trkpt>
<trkpt lat="51.552795" lon="03.779580"><ele>23.7</ele><time>2022-11-15T10:58:21Z</time><name>PT2299</name></trkpt>
<trkpt lat="51.552793" lon="03.779592"><ele>23.7</ele><time>2022-11-15T10:58:22Z</time><name>PT2300</name></trkpt>
<trkpt lat="51.552791" lon="03.779600"><ele>23.7</ele><time>2022-11-15T10:58:23Z</time><name>PT2301</name></trkpt>
<trkpt lat="51.552791" lon="03.779608"><ele>23.7</ele><time>2022-11-15T10:58:24Z</time><name>PT2302</name></trkpt>
<trkpt lat="51.552790" lon="03.779619"><ele>23.8</ele><time>2022-11-15T10:58:25Z</time><name>PT2303</name></trkpt>
<trkpt lat="51.552788" lon="03.779636"><ele>24</ele><time>2022-11-15T10:58:26Z</time><name>PT2304</name></trkpt>
<trkpt lat="51.552785" lon="03.779656"><ele>24.2</ele><time>2022-11-15T10:58:27Z</time><name>PT2305</name></trkpt>
<trkpt lat="51.552781" lon="03.779678"><ele>24.2</ele><time>2022-11-15T10:58:28Z</time><name>PT2306</name></trkpt>
<trkpt lat="51.552778" lon="03.779700"><ele>24.1</ele><time>2022-11-15T10:58:29Z</time><name>PT2307</name></trkpt>
<trkpt lat="51.552778" lon="03.779716"><ele>23.9</ele><time>2022-11-15T10:58:30Z</time><name>PT2308</name></trkpt>
<trkpt lat="51.552778" lon="03.779730"><ele>24.1</ele><time>2022-11-15T10:58:31Z</time><name>PT2309</name></trkpt>
<trkpt lat="51.552778" lon="03.779739"><ele>24.1</ele><time>2022-11-15T10:58:32Z</time><name>PT2310</name></trkpt>
<trkpt lat="51.552778" lon="03.779745"><ele>24.2</ele><time>2022-11-15T10:58:33Z</time><name>PT2311</name></trkpt>
<trkpt lat="51.552779" lon="03.779755"><ele>24.3</ele><time>2022-11-15T10:58:34Z</time><name>PT2312</name></trkpt>
<trkpt lat="51.552775" lon="03.779767"><ele>24.2</ele><time>2022-11-15T10:58:35Z</time><name>PT2313</name></trkpt>
<trkpt lat="51.552770" lon="03.779784"><ele>24.2</ele><time>2022-11-15T10:58:36Z</time><name>PT2314</name></trkpt>
<trkpt lat="51.552764" lon="03.779804"><ele>24.2</ele><time>2022-11-15T10:58:37Z</time><name>PT2315</name></trkpt>
<trkpt lat="51.552763" lon="03.779829"><ele>24.1</ele><time>2022-11-15T10:58:38Z</time><name>PT2316</name></trkpt>
<trkpt lat="51.552763" lon="03.779851"><ele>24.1</ele><time>2022-11-15T10:58:39Z</time><name>PT2317</name></trkpt>
<trkpt lat="51.552759" lon="03.779877"><ele>24.2</ele><time>2022-11-15T10:58:40Z</time><name>PT2318</name></trkpt>
<trkpt lat="51.552757" lon="03.779897"><ele>24.1</ele><time>2022-11-15T10:58:41Z</time><name>PT2319</name></trkpt>
<trkpt lat="51.552757" lon="03.779910"><ele>23.9</ele><time>2022-11-15T10:58:42Z</time><name>PT2320</name></trkpt>
<trkpt lat="51.552757" lon="03.779920"><ele>24</ele><time>2022-11-15T10:58:43Z</time><name>PT2321</name></trkpt>
<trkpt lat="51.552758" lon="03.779928"><ele>24</ele><time>2022-11-15T10:58:44Z</time><name>PT2322</name></trkpt>
<trkpt lat="51.552758" lon="03.779936"><ele>24</ele><time>2022-11-15T10:58:45Z</time><name>PT2323</name></trkpt>
<trkpt lat="51.552758" lon="03.779948"><ele>24.1</ele><time>2022-11-15T10:58:46Z</time><name>PT2324</name></trkpt>
<trkpt lat="51.552755" lon="03.779961"><ele>24.2</ele><time>2022-11-15T10:58:47Z</time><name>PT2325</name></trkpt>
<trkpt lat="51.552752" lon="03.779976"><ele>24.2</ele><time>2022-11-15T10:58:48Z</time><name>PT2326</name></trkpt>
<trkpt lat="51.552750" lon="03.779997"><ele>24.2</ele><time>2022-11-15T10:58:49Z</time><name>PT2327</name></trkpt>
<trkpt lat="51.552750" lon="03.780020"><ele>24.3</ele><time>2022-11-15T10:58:50Z</time><name>PT2328</name></trkpt>
<trkpt lat="51.552749" lon="03.780040"><ele>24.3</ele><time>2022-11-15T10:58:51Z</time><name>PT2329</name></trkpt>
<trkpt lat="51.552746" lon="03.780060"><ele>24.2</ele><time>2022-11-15T10:58:52Z</time><name>PT2330</name></trkpt>
<trkpt lat="51.552746" lon="03.780076"><ele>24.5</ele><time>2022-11-15T10:58:53Z</time><name>PT2331</name></trkpt>
<trkpt lat="51.552745" lon="03.780093"><ele>24.6</ele><time>2022-11-15T10:58:54Z</time><name>PT2332</name></trkpt>
<trkpt lat="51.552746" lon="03.780109"><ele>24.7</ele><time>2022-11-15T10:58:55Z</time><name>PT2333</name></trkpt>
<trkpt lat="51.552746" lon="03.780121"><ele>24.7</ele><time>2022-11-15T10:58:56Z</time><name>PT2334</name></trkpt>
<trkpt lat="51.552751" lon="03.780125"><ele>24.7</ele><time>2022-11-15T10:58:57Z</time><name>PT2335</name></trkpt>
<trkpt lat="51.552755" lon="03.780130"><ele>24.6</ele><time>2022-11-15T10:58:58Z</time><name>PT2336</name></trkpt>
<trkpt lat="51.552754" lon="03.780137"><ele>24.7</ele><time>2022-11-15T10:58:59Z</time><name>PT2337</name></trkpt>
<trkpt lat="51.552750" lon="03.780157"><ele>24.6</ele><time>2022-11-15T10:59:00Z</time><name>PT2338</name></trkpt>
<trkpt lat="51.552744" lon="03.780184"><ele>24.7</ele><time>2022-11-15T10:59:01Z</time><name>PT2339</name></trkpt>
<trkpt lat="51.552740" lon="03.780210"><ele>24.7</ele><time>2022-11-15T10:59:02Z</time><name>PT2340</name></trkpt>
<trkpt lat="51.552735" lon="03.780234"><ele>24.6</ele><time>2022-11-15T10:59:03Z</time><name>PT2341</name></trkpt>
<trkpt lat="51.552734" lon="03.780253"><ele>24.5</ele><time>2022-11-15T10:59:04Z</time><name>PT2342</name></trkpt>
<trkpt lat="51.552735" lon="03.780270"><ele>24.4</ele><time>2022-11-15T10:59:05Z</time><name>PT2343</name></trkpt>
<trkpt lat="51.552736" lon="03.780286"><ele>24.4</ele><time>2022-11-15T10:59:06Z</time><name>PT2344</name></trkpt>
<trkpt lat="51.552734" lon="03.780300"><ele>24.5</ele><time>2022-11-15T10:59:07Z</time><name>PT2345</name></trkpt>
<trkpt lat="51.552735" lon="03.780313"><ele>24.4</ele><time>2022-11-15T10:59:08Z</time><name>PT2346</name></trkpt>
<trkpt lat="51.552732" lon="03.780327"><ele>24.3</ele><time>2022-11-15T10:59:09Z</time><name>PT2347</name></trkpt>
<trkpt lat="51.552728" lon="03.780342"><ele>24.2</ele><time>2022-11-15T10:59:10Z</time><name>PT2348</name></trkpt>
<trkpt lat="51.552724" lon="03.780361"><ele>24.2</ele><time>2022-11-15T10:59:11Z</time><name>PT2349</name></trkpt>
<trkpt lat="51.552719" lon="03.780384"><ele>24.2</ele><time>2022-11-15T10:59:12Z</time><name>PT2350</name></trkpt>
<trkpt lat="51.552714" lon="03.780411"><ele>24.1</ele><time>2022-11-15T10:59:13Z</time><name>PT2351</name></trkpt>
<trkpt lat="51.552714" lon="03.780426"><ele>24.1</ele><time>2022-11-15T10:59:14Z</time><name>PT2352</name></trkpt>
<trkpt lat="51.552711" lon="03.780441"><ele>24.1</ele><time>2022-11-15T10:59:15Z</time><name>PT2353</name></trkpt>
<trkpt lat="51.552707" lon="03.780456"><ele>24.1</ele><time>2022-11-15T10:59:16Z</time><name>PT2354</name></trkpt>
<trkpt lat="51.552707" lon="03.780470"><ele>24.1</ele><time>2022-11-15T10:59:17Z</time><name>PT2355</name></trkpt>
<trkpt lat="51.552706" lon="03.780485"><ele>24.1</ele><time>2022-11-15T10:59:18Z</time><name>PT2356</name></trkpt>
<trkpt lat="51.552703" lon="03.780498"><ele>24.2</ele><time>2022-11-15T10:59:19Z</time><name>PT2357</name></trkpt>
<trkpt lat="51.552704" lon="03.780509"><ele>24.1</ele><time>2022-11-15T10:59:20Z</time><name>PT2358</name></trkpt>
<trkpt lat="51.552702" lon="03.780524"><ele>24.1</ele><time>2022-11-15T10:59:21Z</time><name>PT2359</name></trkpt>
<trkpt lat="51.552701" lon="03.780535"><ele>24.2</ele><time>2022-11-15T10:59:22Z</time><name>PT2360</name></trkpt>
<trkpt lat="51.552696" lon="03.780552"><ele>24.2</ele><time>2022-11-15T10:59:23Z</time><name>PT2361</name></trkpt>
<trkpt lat="51.552693" lon="03.780562"><ele>24.3</ele><time>2022-11-15T10:59:24Z</time><name>PT2362</name></trkpt>
<trkpt lat="51.552689" lon="03.780579"><ele>24.4</ele><time>2022-11-15T10:59:25Z</time><name>PT2363</name></trkpt>
<trkpt lat="51.552687" lon="03.780597"><ele>24.4</ele><time>2022-11-15T10:59:26Z</time><name>PT2364</name></trkpt>
<trkpt lat="51.552685" lon="03.780622"><ele>24.3</ele><time>2022-11-15T10:59:27Z</time><name>PT2365</name></trkpt>
<trkpt lat="51.552682" lon="03.780649"><ele>24.3</ele><time>2022-11-15T10:59:28Z</time><name>PT2366</name></trkpt>
<trkpt lat="51.552678" lon="03.780671"><ele>24.2</ele><time>2022-11-15T10:59:29Z</time><name>PT2367</name></trkpt>
<trkpt lat="51.552673" lon="03.780693"><ele>24.2</ele><time>2022-11-15T10:59:30Z</time><name>PT2368</name></trkpt>
<trkpt lat="51.552670" lon="03.780710"><ele>24.2</ele><time>2022-11-15T10:59:31Z</time><name>PT2369</name></trkpt>
<trkpt lat="51.552669" lon="03.780724"><ele>24.2</ele><time>2022-11-15T10:59:32Z</time><name>PT2370</name></trkpt>
<trkpt lat="51.552669" lon="03.780737"><ele>24.2</ele><time>2022-11-15T10:59:33Z</time><name>PT2371</name></trkpt>
<trkpt lat="51.552667" lon="03.780752"><ele>23.9</ele><time>2022-11-15T10:59:34Z</time><name>PT2372</name></trkpt>
<trkpt lat="51.552668" lon="03.780765"><ele>23.9</ele><time>2022-11-15T10:59:35Z</time><name>PT2373</name></trkpt>
<trkpt lat="51.552668" lon="03.780776"><ele>23.9</ele><time>2022-11-15T10:59:36Z</time><name>PT2374</name></trkpt>
<trkpt lat="51.552667" lon="03.780787"><ele>23.9</ele><time>2022-11-15T10:59:37Z</time><name>PT2375</name></trkpt>
<trkpt lat="51.552664" lon="03.780799"><ele>24</ele><time>2022-11-15T10:59:38Z</time><name>PT2376</name></trkpt>
<trkpt lat="51.552657" lon="03.780814"><ele>24.2</ele><time>2022-11-15T10:59:39Z</time><name>PT2377</name></trkpt>
<trkpt lat="51.552648" lon="03.780831"><ele>24.1</ele><time>2022-11-15T10:59:40Z</time><name>PT2378</name></trkpt>
<trkpt lat="51.552642" lon="03.780854"><ele>24</ele><time>2022-11-15T10:59:41Z</time><name>PT2379</name></trkpt>
<trkpt lat="51.552639" lon="03.780880"><ele>23.9</ele><time>2022-11-15T10:59:42Z</time><name>PT2380</name></trkpt>
<trkpt lat="51.552643" lon="03.780904"><ele>23.9</ele><time>2022-11-15T10:59:43Z</time><name>PT2381</name></trkpt>
<trkpt lat="51.552642" lon="03.780925"><ele>23.8</ele><time>2022-11-15T10:59:44Z</time><name>PT2382</name></trkpt>
<trkpt lat="51.552641" lon="03.780944"><ele>24.1</ele><time>2022-11-15T10:59:45Z</time><name>PT2383</name></trkpt>
<trkpt lat="51.552640" lon="03.780964"><ele>24.1</ele><time>2022-11-15T10:59:46Z</time><name>PT2384</name></trkpt>
<trkpt lat="51.552638" lon="03.780977"><ele>24.2</ele><time>2022-11-15T10:59:47Z</time><name>PT2385</name></trkpt>
<trkpt lat="51.552637" lon="03.780987"><ele>24.1</ele><time>2022-11-15T10:59:48Z</time><name>PT2386</name></trkpt>
<trkpt lat="51.552635" lon="03.780996"><ele>24.2</ele><time>2022-11-15T10:59:49Z</time><name>PT2387</name></trkpt>
<trkpt lat="51.552633" lon="03.781007"><ele>24.2</ele><time>2022-11-15T10:59:50Z</time><name>PT2388</name></trkpt>
<trkpt lat="51.552633" lon="03.781013"><ele>24.1</ele><time>2022-11-15T10:59:51Z</time><name>PT2389</name></trkpt>
<trkpt lat="51.552627" lon="03.781014"><ele>23.9</ele><time>2022-11-15T10:59:52Z</time><name>PT2390</name></trkpt>
<trkpt lat="51.552626" lon="03.781020"><ele>23.9</ele><time>2022-11-15T10:59:53Z</time><name>PT2391</name></trkpt>
<trkpt lat="51.552638" lon="03.781025"><ele>23.8</ele><time>2022-11-15T10:59:54Z</time><name>PT2392</name></trkpt>
<trkpt lat="51.552637" lon="03.781038"><ele>23.8</ele><time>2022-11-15T10:59:55Z</time><name>PT2393</name></trkpt>
<trkpt lat="51.552635" lon="03.781062"><ele>23.9</ele><time>2022-11-15T10:59:56Z</time><name>PT2394</name></trkpt>
<trkpt lat="51.552635" lon="03.781082"><ele>24.2</ele><time>2022-11-15T10:59:57Z</time><name>PT2395</name></trkpt>
<trkpt lat="51.552636" lon="03.781099"><ele>24.2</ele><time>2022-11-15T10:59:58Z</time><name>PT2396</name></trkpt>
<trkpt lat="51.552638" lon="03.781114"><ele>24.4</ele><time>2022-11-15T10:59:59Z</time><name>PT2397</name></trkpt>
<trkpt lat="51.552636" lon="03.781130"><ele>24.7</ele><time>2022-11-15T11:00:00Z</time><name>PT2398</name></trkpt>
<trkpt lat="51.552634" lon="03.781146"><ele>24.7</ele><time>2022-11-15T11:00:01Z</time><name>PT2399</name></trkpt>
<trkpt lat="51.552630" lon="03.781163"><ele>24.7</ele><time>2022-11-15T11:00:02Z</time><name>PT2400</name></trkpt>
<trkpt lat="51.552627" lon="03.781187"><ele>24.6</ele><time>2022-11-15T11:00:03Z</time><name>PT2401</name></trkpt>
<trkpt lat="51.552625" lon="03.781210"><ele>24.3</ele><time>2022-11-15T11:00:04Z</time><name>PT2402</name></trkpt>
<trkpt lat="51.552621" lon="03.781233"><ele>24.2</ele><time>2022-11-15T11:00:05Z</time><name>PT2403</name></trkpt>
<trkpt lat="51.552619" lon="03.781252"><ele>24.2</ele><time>2022-11-15T11:00:06Z</time><name>PT2404</name></trkpt>
<trkpt lat="51.552617" lon="03.781271"><ele>24</ele><time>2022-11-15T11:00:07Z</time><name>PT2405</name></trkpt>
<trkpt lat="51.552617" lon="03.781286"><ele>24.2</ele><time>2022-11-15T11:00:08Z</time><name>PT2406</name></trkpt>
<trkpt lat="51.552616" lon="03.781299"><ele>24.2</ele><time>2022-11-15T11:00:09Z</time><name>PT2407</name></trkpt>
<trkpt lat="51.552615" lon="03.781308"><ele>24.1</ele><time>2022-11-15T11:00:10Z</time><name>PT2408</name></trkpt>
<trkpt lat="51.552615" lon="03.781314"><ele>24.2</ele><time>2022-11-15T11:00:11Z</time><name>PT2409</name></trkpt>
<trkpt lat="51.552614" lon="03.781326"><ele>24.2</ele><time>2022-11-15T11:00:12Z</time><name>PT2410</name></trkpt>
<trkpt lat="51.552613" lon="03.781339"><ele>24.1</ele><time>2022-11-15T11:00:13Z</time><name>PT2411</name></trkpt>
<trkpt lat="51.552613" lon="03.781351"><ele>24.2</ele><time>2022-11-15T11:00:14Z</time><name>PT2412</name></trkpt>
<trkpt lat="51.552612" lon="03.781371"><ele>24.4</ele><time>2022-11-15T11:00:15Z</time><name>PT2413</name></trkpt>
<trkpt lat="51.552608" lon="03.781390"><ele>24.5</ele><time>2022-11-15T11:00:16Z</time><name>PT2414</name></trkpt>
<trkpt lat="51.552607" lon="03.781406"><ele>24.4</ele><time>2022-11-15T11:00:17Z</time><name>PT2415</name></trkpt>
<trkpt lat="51.552605" lon="03.781429"><ele>24.5</ele><time>2022-11-15T11:00:18Z</time><name>PT2416</name></trkpt>
<trkpt lat="51.552603" lon="03.781454"><ele>24.2</ele><time>2022-11-15T11:00:19Z</time><name>PT2417</name></trkpt>
<trkpt lat="51.552601" lon="03.781473"><ele>24.1</ele><time>2022-11-15T11:00:20Z</time><name>PT2418</name></trkpt>
<trkpt lat="51.552597" lon="03.781495"><ele>24.1</ele><time>2022-11-15T11:00:21Z</time><name>PT2419</name></trkpt>
<trkpt lat="51.552599" lon="03.781517"><ele>24.2</ele><time>2022-11-15T11:00:22Z</time><name>PT2420</name></trkpt>
<trkpt lat="51.552598" lon="03.781534"><ele>24.2</ele><time>2022-11-15T11:00:23Z</time><name>PT2421</name></trkpt>
<trkpt lat="51.552596" lon="03.781550"><ele>24.2</ele><time>2022-11-15T11:00:24Z</time><name>PT2422</name></trkpt>
<trkpt lat="51.552592" lon="03.781568"><ele>24.3</ele><time>2022-11-15T11:00:25Z</time><name>PT2423</name></trkpt>
<trkpt lat="51.552592" lon="03.781581"><ele>24.3</ele><time>2022-11-15T11:00:26Z</time><name>PT2424</name></trkpt>
<trkpt lat="51.552596" lon="03.781580"><ele>24.2</ele><time>2022-11-15T11:00:27Z</time><name>PT2425</name></trkpt>
<trkpt lat="51.552600" lon="03.781578"><ele>24.2</ele><time>2022-11-15T11:00:28Z</time><name>PT2426</name></trkpt>
<trkpt lat="51.552597" lon="03.781591"><ele>24.2</ele><time>2022-11-15T11:00:29Z</time><name>PT2427</name></trkpt>
<trkpt lat="51.552594" lon="03.781599"><ele>24.2</ele><time>2022-11-15T11:00:30Z</time><name>PT2428</name></trkpt>
<trkpt lat="51.552588" lon="03.781611"><ele>24.2</ele><time>2022-11-15T11:00:31Z</time><name>PT2429</name></trkpt>
<trkpt lat="51.552584" lon="03.781627"><ele>24.2</ele><time>2022-11-15T11:00:32Z</time><name>PT2430</name></trkpt>
<trkpt lat="51.552579" lon="03.781650"><ele>24.4</ele><time>2022-11-15T11:00:33Z</time><name>PT2431</name></trkpt>
<trkpt lat="51.552577" lon="03.781679"><ele>24.3</ele><time>2022-11-15T11:00:34Z</time><name>PT2432</name></trkpt>
<trkpt lat="51.552575" lon="03.781710"><ele>24.2</ele><time>2022-11-15T11:00:35Z</time><name>PT2433</name></trkpt>
<trkpt lat="51.552573" lon="03.781731"><ele>24.2</ele><time>2022-11-15T11:00:36Z</time><name>PT2434</name></trkpt>
<trkpt lat="51.552572" lon="03.781753"><ele>24.2</ele><time>2022-11-15T11:00:37Z</time><name>PT2435</name></trkpt>
<trkpt lat="51.552572" lon="03.781772"><ele>24.1</ele><time>2022-11-15T11:00:38Z</time><name>PT2436</name></trkpt>
<trkpt lat="51.552570" lon="03.781786"><ele>24.1</ele><time>2022-11-15T11:00:39Z</time><name>PT2437</name></trkpt>
<trkpt lat="51.552570" lon="03.781796"><ele>24.1</ele><time>2022-11-15T11:00:40Z</time><name>PT2438</name></trkpt>
<trkpt lat="51.552569" lon="03.781810"><ele>24.1</ele><time>2022-11-15T11:00:41Z</time><name>PT2439</name></trkpt>
<trkpt lat="51.552568" lon="03.781817"><ele>24.1</ele><time>2022-11-15T11:00:42Z</time><name>PT2440</name></trkpt>
<trkpt lat="51.552568" lon="03.781824"><ele>24.2</ele><time>2022-11-15T11:00:43Z</time><name>PT2441</name></trkpt>
<trkpt lat="51.552567" lon="03.781836"><ele>24.3</ele><time>2022-11-15T11:00:44Z</time><name>PT2442</name></trkpt>
<trkpt lat="51.552564" lon="03.781851"><ele>24.2</ele><time>2022-11-15T11:00:45Z</time><name>PT2443</name></trkpt>
<trkpt lat="51.552562" lon="03.781865"><ele>24.3</ele><time>2022-11-15T11:00:46Z</time><name>PT2444</name></trkpt>
<trkpt lat="51.552560" lon="03.781889"><ele>24.5</ele><time>2022-11-15T11:00:47Z</time><name>PT2445</name></trkpt>
<trkpt lat="51.552557" lon="03.781919"><ele>24.4</ele><time>2022-11-15T11:00:48Z</time><name>PT2446</name></trkpt>
<trkpt lat="51.552555" lon="03.781944"><ele>24.4</ele><time>2022-11-15T11:00:49Z</time><name>PT2447</name></trkpt>
<trkpt lat="51.552552" lon="03.781970"><ele>24.5</ele><time>2022-11-15T11:00:50Z</time><name>PT2448</name></trkpt>
<trkpt lat="51.552550" lon="03.781994"><ele>24.5</ele><time>2022-11-15T11:00:51Z</time><name>PT2449</name></trkpt>
<trkpt lat="51.552549" lon="03.782017"><ele>24.3</ele><time>2022-11-15T11:00:52Z</time><name>PT2450</name></trkpt>
<trkpt lat="51.552548" lon="03.782039"><ele>24.3</ele><time>2022-11-15T11:00:53Z</time><name>PT2451</name></trkpt>
<trkpt lat="51.552551" lon="03.782054"><ele>24.3</ele><time>2022-11-15T11:00:54Z</time><name>PT2452</name></trkpt>
<trkpt lat="51.552551" lon="03.782063"><ele>24.3</ele><time>2022-11-15T11:00:55Z</time><name>PT2453</name></trkpt>
<trkpt lat="51.552550" lon="03.782069"><ele>24.3</ele><time>2022-11-15T11:00:56Z</time><name>PT2454</name></trkpt>
<trkpt lat="51.552548" lon="03.782077"><ele>24.3</ele><time>2022-11-15T11:00:57Z</time><name>PT2455</name></trkpt>
<trkpt lat="51.552544" lon="03.782089"><ele>24.4</ele><time>2022-11-15T11:00:58Z</time><name>PT2456</name></trkpt>
<trkpt lat="51.552540" lon="03.782111"><ele>24.4</ele><time>2022-11-15T11:00:59Z</time><name>PT2457</name></trkpt>
<trkpt lat="51.552536" lon="03.782131"><ele>24.5</ele><time>2022-11-15T11:01:00Z</time><name>PT2458</name></trkpt>
<trkpt lat="51.552533" lon="03.782150"><ele>24.4</ele><time>2022-11-15T11:01:01Z</time><name>PT2459</name></trkpt>
<trkpt lat="51.552530" lon="03.782172"><ele>24.6</ele><time>2022-11-15T11:01:02Z</time><name>PT2460</name></trkpt>
<trkpt lat="51.552531" lon="03.782201"><ele>24.5</ele><time>2022-11-15T11:01:03Z</time><name>PT2461</name></trkpt>
<trkpt lat="51.552528" lon="03.782223"><ele>24.6</ele><time>2022-11-15T11:01:04Z</time><name>PT2462</name></trkpt>
<trkpt lat="51.552528" lon="03.782239"><ele>24.7</ele><time>2022-11-15T11:01:05Z</time><name>PT2463</name></trkpt>
<trkpt lat="51.552527" lon="03.782249"><ele>24.7</ele><time>2022-11-15T11:01:06Z</time><name>PT2464</name></trkpt>
<trkpt lat="51.552529" lon="03.782257"><ele>24.7</ele><time>2022-11-15T11:01:07Z</time><name>PT2465</name></trkpt>
<trkpt lat="51.552528" lon="03.782264"><ele>24.7</ele><time>2022-11-15T11:01:08Z</time><name>PT2466</name></trkpt>
<trkpt lat="51.552527" lon="03.782270"><ele>24.5</ele><time>2022-11-15T11:01:09Z</time><name>PT2467</name></trkpt>
<trkpt lat="51.552526" lon="03.782280"><ele>24.4</ele><time>2022-11-15T11:01:10Z</time><name>PT2468</name></trkpt>
<trkpt lat="51.552525" lon="03.782292"><ele>24.3</ele><time>2022-11-15T11:01:11Z</time><name>PT2469</name></trkpt>
<trkpt lat="51.552520" lon="03.782311"><ele>24.3</ele><time>2022-11-15T11:01:12Z</time><name>PT2470</name></trkpt>
<trkpt lat="51.552516" lon="03.782330"><ele>24.3</ele><time>2022-11-15T11:01:13Z</time><name>PT2471</name></trkpt>
<trkpt lat="51.552512" lon="03.782351"><ele>24.5</ele><time>2022-11-15T11:01:14Z</time><name>PT2472</name></trkpt>
<trkpt lat="51.552512" lon="03.782369"><ele>24.4</ele><time>2022-11-15T11:01:15Z</time><name>PT2473</name></trkpt>
<trkpt lat="51.552512" lon="03.782391"><ele>24.3</ele><time>2022-11-15T11:01:16Z</time><name>PT2474</name></trkpt>
<trkpt lat="51.552509" lon="03.782410"><ele>24.3</ele><time>2022-11-15T11:01:17Z</time><name>PT2475</name></trkpt>
<trkpt lat="51.552506" lon="03.782427"><ele>24.2</ele><time>2022-11-15T11:01:18Z</time><name>PT2476</name></trkpt>
<trkpt lat="51.552505" lon="03.782443"><ele>24.2</ele><time>2022-11-15T11:01:19Z</time><name>PT2477</name></trkpt>
<trkpt lat="51.552504" lon="03.782452"><ele>24.1</ele><time>2022-11-15T11:01:20Z</time><name>PT2478</name></trkpt>
<trkpt lat="51.552503" lon="03.782460"><ele>24.2</ele><time>2022-11-15T11:01:21Z</time><name>PT2479</name></trkpt>
<trkpt lat="51.552499" lon="03.782471"><ele>24.2</ele><time>2022-11-15T11:01:22Z</time><name>PT2480</name></trkpt>
<trkpt lat="51.552498" lon="03.782481"><ele>24.2</ele><time>2022-11-15T11:01:23Z</time><name>PT2481</name></trkpt>
<trkpt lat="51.552495" lon="03.782499"><ele>24.3</ele><time>2022-11-15T11:01:24Z</time><name>PT2482</name></trkpt>
<trkpt lat="51.552492" lon="03.782516"><ele>24.5</ele><time>2022-11-15T11:01:25Z</time><name>PT2483</name></trkpt>
<trkpt lat="51.552488" lon="03.782534"><ele>24.3</ele><time>2022-11-15T11:01:26Z</time><name>PT2484</name></trkpt>
<trkpt lat="51.552485" lon="03.782556"><ele>24.3</ele><time>2022-11-15T11:01:27Z</time><name>PT2485</name></trkpt>
<trkpt lat="51.552481" lon="03.782580"><ele>24.4</ele><time>2022-11-15T11:01:28Z</time><name>PT2486</name></trkpt>
<trkpt lat="51.552478" lon="03.782594"><ele>24.4</ele><time>2022-11-15T11:01:29Z</time><name>PT2487</name></trkpt>
<trkpt lat="51.552477" lon="03.782607"><ele>24.6</ele><time>2022-11-15T11:01:30Z</time><name>PT2488</name></trkpt>
<trkpt lat="51.552478" lon="03.782618"><ele>24.6</ele><time>2022-11-15T11:01:31Z</time><name>PT2489</name></trkpt>
<trkpt lat="51.552477" lon="03.782628"><ele>24.6</ele><time>2022-11-15T11:01:32Z</time><name>PT2490</name></trkpt>
<trkpt lat="51.552475" lon="03.782636"><ele>24.7</ele><time>2022-11-15T11:01:33Z</time><name>PT2491</name></trkpt>
<trkpt lat="51.552470" lon="03.782647"><ele>24.7</ele><time>2022-11-15T11:01:34Z</time><name>PT2492</name></trkpt>
<trkpt lat="51.552466" lon="03.782658"><ele>24.6</ele><time>2022-11-15T11:01:35Z</time><name>PT2493</name></trkpt>
<trkpt lat="51.552460" lon="03.782675"><ele>24.6</ele><time>2022-11-15T11:01:36Z</time><name>PT2494</name></trkpt>
<trkpt lat="51.552456" lon="03.782691"><ele>24.6</ele><time>2022-11-15T11:01:37Z</time><name>PT2495</name></trkpt>
<trkpt lat="51.552453" lon="03.782711"><ele>24.6</ele><time>2022-11-15T11:01:38Z</time><name>PT2496</name></trkpt>
<trkpt lat="51.552448" lon="03.782736"><ele>24.5</ele><time>2022-11-15T11:01:39Z</time><name>PT2497</name></trkpt>
<trkpt lat="51.552442" lon="03.782758"><ele>24.6</ele><time>2022-11-15T11:01:40Z</time><name>PT2498</name></trkpt>
<trkpt lat="51.552439" lon="03.782773"><ele>24.6</ele><time>2022-11-15T11:01:41Z</time><name>PT2499</name></trkpt>
<trkpt lat="51.552438" lon="03.782788"><ele>24.6</ele><time>2022-11-15T11:01:42Z</time><name>PT2500</name></trkpt>
<trkpt lat="51.552437" lon="03.782802"><ele>24.6</ele><time>2022-11-15T11:01:43Z</time><name>PT2501</name></trkpt>
<trkpt lat="51.552435" lon="03.782811"><ele>24.6</ele><time>2022-11-15T11:01:44Z</time><name>PT2502</name></trkpt>
<trkpt lat="51.552432" lon="03.782821"><ele>24.5</ele><time>2022-11-15T11:01:45Z</time><name>PT2503</name></trkpt>
<trkpt lat="51.552429" lon="03.782827"><ele>24.4</ele><time>2022-11-15T11:01:46Z</time><name>PT2504</name></trkpt>
<trkpt lat="51.552427" lon="03.782836"><ele>24.5</ele><time>2022-11-15T11:01:47Z</time><name>PT2505</name></trkpt>
<trkpt lat="51.552424" lon="03.782850"><ele>24.6</ele><time>2022-11-15T11:01:48Z</time><name>PT2506</name></trkpt>
<trkpt lat="51.552416" lon="03.782863"><ele>24.6</ele><time>2022-11-15T11:01:49Z</time><name>PT2507</name></trkpt>
<trkpt lat="51.552409" lon="03.782881"><ele>24.6</ele><time>2022-11-15T11:01:50Z</time><name>PT2508</name></trkpt>
<trkpt lat="51.552405" lon="03.782904"><ele>24.6</ele><time>2022-11-15T11:01:51Z</time><name>PT2509</name></trkpt>
<trkpt lat="51.552401" lon="03.782927"><ele>24.5</ele><time>2022-11-15T11:01:52Z</time><name>PT2510</name></trkpt>
<trkpt lat="51.552397" lon="03.782945"><ele>24.5</ele><time>2022-11-15T11:01:53Z</time><name>PT2511</name></trkpt>
<trkpt lat="51.552393" lon="03.782960"><ele>24.4</ele><time>2022-11-15T11:01:54Z</time><name>PT2512</name></trkpt>
<trkpt lat="51.552389" lon="03.782973"><ele>24.2</ele><time>2022-11-15T11:01:55Z</time><name>PT2513</name></trkpt>
<trkpt lat="51.552385" lon="03.782982"><ele>24.2</ele><time>2022-11-15T11:01:56Z</time><name>PT2514</name></trkpt>
<trkpt lat="51.552382" lon="03.782992"><ele>24.2</ele><time>2022-11-15T11:01:57Z</time><name>PT2515</name></trkpt>
<trkpt lat="51.552379" lon="03.783001"><ele>24.3</ele><time>2022-11-15T11:01:58Z</time><name>PT2516</name></trkpt>
<trkpt lat="51.552373" lon="03.783009"><ele>24.5</ele><time>2022-11-15T11:01:59Z</time><name>PT2517</name></trkpt>
<trkpt lat="51.552367" lon="03.783020"><ele>24.7</ele><time>2022-11-15T11:02:00Z</time><name>PT2518</name></trkpt>
<trkpt lat="51.552364" lon="03.783035"><ele>24.5</ele><time>2022-11-15T11:02:01Z</time><name>PT2519</name></trkpt>
<trkpt lat="51.552359" lon="03.783047"><ele>24.3</ele><time>2022-11-15T11:02:02Z</time><name>PT2520</name></trkpt>
<trkpt lat="51.552355" lon="03.783058"><ele>24.2</ele><time>2022-11-15T11:02:03Z</time><name>PT2521</name></trkpt>
<trkpt lat="51.552350" lon="03.783074"><ele>24.1</ele><time>2022-11-15T11:02:04Z</time><name>PT2522</name></trkpt>
<trkpt lat="51.552347" lon="03.783101"><ele>24.1</ele><time>2022-11-15T11:02:05Z</time><name>PT2523</name></trkpt>
<trkpt lat="51.552340" lon="03.783126"><ele>24.2</ele><time>2022-11-15T11:02:06Z</time><name>PT2524</name></trkpt>
<trkpt lat="51.552334" lon="03.783151"><ele>24.3</ele><time>2022-11-15T11:02:07Z</time><name>PT2525</name></trkpt>
<trkpt lat="51.552326" lon="03.783175"><ele>24.2</ele><time>2022-11-15T11:02:08Z</time><name>PT2526</name></trkpt>
<trkpt lat="51.552319" lon="03.783200"><ele>24.2</ele><time>2022-11-15T11:02:09Z</time><name>PT2527</name></trkpt>
<trkpt lat="51.552315" lon="03.783216"><ele>24.2</ele><time>2022-11-15T11:02:10Z</time><name>PT2528</name></trkpt>
<trkpt lat="51.552313" lon="03.783223"><ele>24.2</ele><time>2022-11-15T11:02:11Z</time><name>PT2529</name></trkpt>
<trkpt lat="51.552311" lon="03.783235"><ele>24.2</ele><time>2022-11-15T11:02:12Z</time><name>PT2530</name></trkpt>
<trkpt lat="51.552307" lon="03.783244"><ele>24</ele><time>2022-11-15T11:02:13Z</time><name>PT2531</name></trkpt>
<trkpt lat="51.552306" lon="03.783258"><ele>24.1</ele><time>2022-11-15T11:02:14Z</time><name>PT2532</name></trkpt>
<trkpt lat="51.552304" lon="03.783273"><ele>24</ele><time>2022-11-15T11:02:15Z</time><name>PT2533</name></trkpt>
<trkpt lat="51.552298" lon="03.783293"><ele>23.9</ele><time>2022-11-15T11:02:16Z</time><name>PT2534</name></trkpt>
<trkpt lat="51.552290" lon="03.783312"><ele>24.2</ele><time>2022-11-15T11:02:17Z</time><name>PT2535</name></trkpt>
<trkpt lat="51.552281" lon="03.783336"><ele>24.3</ele><time>2022-11-15T11:02:18Z</time><name>PT2536</name></trkpt>
<trkpt lat="51.552275" lon="03.783363"><ele>24.4</ele><time>2022-11-15T11:02:19Z</time><name>PT2537</name></trkpt>
<trkpt lat="51.552272" lon="03.783384"><ele>24.3</ele><time>2022-11-15T11:02:20Z</time><name>PT2538</name></trkpt>
<trkpt lat="51.552268" lon="03.783400"><ele>24.3</ele><time>2022-11-15T11:02:21Z</time><name>PT2539</name></trkpt>
<trkpt lat="51.552266" lon="03.783414"><ele>24.1</ele><time>2022-11-15T11:02:22Z</time><name>PT2540</name></trkpt>
<trkpt lat="51.552261" lon="03.783428"><ele>24</ele><time>2022-11-15T11:02:23Z</time><name>PT2541</name></trkpt>
<trkpt lat="51.552260" lon="03.783437"><ele>24</ele><time>2022-11-15T11:02:24Z</time><name>PT2542</name></trkpt>
<trkpt lat="51.552259" lon="03.783444"><ele>23.9</ele><time>2022-11-15T11:02:25Z</time><name>PT2543</name></trkpt>
<trkpt lat="51.552259" lon="03.783456"><ele>24</ele><time>2022-11-15T11:02:26Z</time><name>PT2544</name></trkpt>
<trkpt lat="51.552256" lon="03.783473"><ele>24.1</ele><time>2022-11-15T11:02:27Z</time><name>PT2545</name></trkpt>
<trkpt lat="51.552249" lon="03.783493"><ele>24.2</ele><time>2022-11-15T11:02:28Z</time><name>PT2546</name></trkpt>
<trkpt lat="51.552242" lon="03.783517"><ele>24.2</ele><time>2022-11-15T11:02:29Z</time><name>PT2547</name></trkpt>
<trkpt lat="51.552234" lon="03.783539"><ele>24.2</ele><time>2022-11-15T11:02:30Z</time><name>PT2548</name></trkpt>
<trkpt lat="51.552227" lon="03.783561"><ele>24.2</ele><time>2022-11-15T11:02:31Z</time><name>PT2549</name></trkpt>
<trkpt lat="51.552224" lon="03.783580"><ele>24.2</ele><time>2022-11-15T11:02:32Z</time><name>PT2550</name></trkpt>
<trkpt lat="51.552223" lon="03.783596"><ele>24.2</ele><time>2022-11-15T11:02:33Z</time><name>PT2551</name></trkpt>
<trkpt lat="51.552221" lon="03.783606"><ele>24.2</ele><time>2022-11-15T11:02:34Z</time><name>PT2552</name></trkpt>
<trkpt lat="51.552219" lon="03.783615"><ele>24.3</ele><time>2022-11-15T11:02:35Z</time><name>PT2553</name></trkpt>
<trkpt lat="51.552216" lon="03.783625"><ele>24.2</ele><time>2022-11-15T11:02:36Z</time><name>PT2554</name></trkpt>
<trkpt lat="51.552211" lon="03.783635"><ele>24.2</ele><time>2022-11-15T11:02:37Z</time><name>PT2555</name></trkpt>
<trkpt lat="51.552206" lon="03.783642"><ele>24.1</ele><time>2022-11-15T11:02:38Z</time><name>PT2556</name></trkpt>
<trkpt lat="51.552198" lon="03.783655"><ele>24.1</ele><time>2022-11-15T11:02:39Z</time><name>PT2557</name></trkpt>
<trkpt lat="51.552194" lon="03.783671"><ele>24.1</ele><time>2022-11-15T11:02:40Z</time><name>PT2558</name></trkpt>
<trkpt lat="51.552188" lon="03.783686"><ele>24.1</ele><time>2022-11-15T11:02:41Z</time><name>PT2559</name></trkpt>
<trkpt lat="51.552182" lon="03.783703"><ele>24.1</ele><time>2022-11-15T11:02:42Z</time><name>PT2560</name></trkpt>
<trkpt lat="51.552184" lon="03.783720"><ele>24.2</ele><time>2022-11-15T11:02:43Z</time><name>PT2561</name></trkpt>
<trkpt lat="51.552182" lon="03.783734"><ele>24.2</ele><time>2022-11-15T11:02:44Z</time><name>PT2562</name></trkpt>
<trkpt lat="51.552182" lon="03.783747"><ele>24.2</ele><time>2022-11-15T11:02:45Z</time><name>PT2563</name></trkpt>
<trkpt lat="51.552180" lon="03.783763"><ele>24.2</ele><time>2022-11-15T11:02:46Z</time><name>PT2564</name></trkpt>
<trkpt lat="51.552177" lon="03.783778"><ele>24.3</ele><time>2022-11-15T11:02:47Z</time><name>PT2565</name></trkpt>
<trkpt lat="51.552175" lon="03.783791"><ele>24.4</ele><time>2022-11-15T11:02:48Z</time><name>PT2566</name></trkpt>
<trkpt lat="51.552175" lon="03.783800"><ele>24.5</ele><time>2022-11-15T11:02:49Z</time><name>PT2567</name></trkpt>
<trkpt lat="51.552177" lon="03.783815"><ele>24.5</ele><time>2022-11-15T11:02:50Z</time><name>PT2568</name></trkpt>
<trkpt lat="51.552175" lon="03.783831"><ele>24.3</ele><time>2022-11-15T11:02:51Z</time><name>PT2569</name></trkpt>
<trkpt lat="51.552170" lon="03.783851"><ele>24.3</ele><time>2022-11-15T11:02:52Z</time><name>PT2570</name></trkpt>
<trkpt lat="51.552163" lon="03.783872"><ele>24.2</ele><time>2022-11-15T11:02:53Z</time><name>PT2571</name></trkpt>
<trkpt lat="51.552165" lon="03.783903"><ele>24.3</ele><time>2022-11-15T11:02:54Z</time><name>PT2572</name></trkpt>
<trkpt lat="51.552161" lon="03.783934"><ele>24.3</ele><time>2022-11-15T11:02:55Z</time><name>PT2573</name></trkpt>
<trkpt lat="51.552161" lon="03.783955"><ele>24.4</ele><time>2022-11-15T11:02:56Z</time><name>PT2574</name></trkpt>
<trkpt lat="51.552160" lon="03.783966"><ele>24.4</ele><time>2022-11-15T11:02:57Z</time><name>PT2575</name></trkpt>
<trkpt lat="51.552159" lon="03.783973"><ele>24.5</ele><time>2022-11-15T11:02:58Z</time><name>PT2576</name></trkpt>
<trkpt lat="51.552157" lon="03.783980"><ele>24.6</ele><time>2022-11-15T11:02:59Z</time><name>PT2577</name></trkpt>
<trkpt lat="51.552155" lon="03.783990"><ele>24.5</ele><time>2022-11-15T11:03:00Z</time><name>PT2578</name></trkpt>
<trkpt lat="51.552153" lon="03.783999"><ele>24.5</ele><time>2022-11-15T11:03:02Z</time><name>PT2579</name></trkpt>
<trkpt lat="51.552144" lon="03.784025"><ele>24.4</ele><time>2022-11-15T11:03:03Z</time><name>PT2580</name></trkpt>
<trkpt lat="51.552138" lon="03.784052"><ele>24.3</ele><time>2022-11-15T11:03:04Z</time><name>PT2581</name></trkpt>
<trkpt lat="51.552135" lon="03.784088"><ele>24.4</ele><time>2022-11-15T11:03:05Z</time><name>PT2582</name></trkpt>
<trkpt lat="51.552132" lon="03.784109"><ele>24.6</ele><time>2022-11-15T11:03:06Z</time><name>PT2583</name></trkpt>
<trkpt lat="51.552133" lon="03.784118"><ele>24.5</ele><time>2022-11-15T11:03:07Z</time><name>PT2584</name></trkpt>
<trkpt lat="51.552129" lon="03.784130"><ele>24.6</ele><time>2022-11-15T11:03:08Z</time><name>PT2585</name></trkpt>
<trkpt lat="51.552123" lon="03.784147"><ele>24.6</ele><time>2022-11-15T11:03:09Z</time><name>PT2586</name></trkpt>
<trkpt lat="51.552116" lon="03.784171"><ele>24.6</ele><time>2022-11-15T11:03:10Z</time><name>PT2587</name></trkpt>
<trkpt lat="51.552109" lon="03.784195"><ele>24.5</ele><time>2022-11-15T11:03:11Z</time><name>PT2588</name></trkpt>
<trkpt lat="51.552105" lon="03.784211"><ele>24.3</ele><time>2022-11-15T11:03:12Z</time><name>PT2589</name></trkpt>
<trkpt lat="51.552105" lon="03.784219"><ele>24.2</ele><time>2022-11-15T11:03:13Z</time><name>PT2590</name></trkpt>
<trkpt lat="51.552102" lon="03.784233"><ele>24.2</ele><time>2022-11-15T11:03:14Z</time><name>PT2591</name></trkpt>
<trkpt lat="51.552098" lon="03.784246"><ele>24.3</ele><time>2022-11-15T11:03:15Z</time><name>PT2592</name></trkpt>
<trkpt lat="51.552098" lon="03.784257"><ele>24.4</ele><time>2022-11-15T11:03:16Z</time><name>PT2593</name></trkpt>
<trkpt lat="51.552098" lon="03.784262"><ele>24.6</ele><time>2022-11-15T11:03:17Z</time><name>PT2594</name></trkpt>
<trkpt lat="51.552100" lon="03.784266"><ele>24.7</ele><time>2022-11-15T11:03:18Z</time><name>PT2595</name></trkpt>
<trkpt lat="51.552098" lon="03.784270"><ele>24.7</ele><time>2022-11-15T11:03:19Z</time><name>PT2596</name></trkpt>
<trkpt lat="51.552097" lon="03.784270"><ele>24.3</ele><time>2022-11-15T11:03:21Z</time><name>PT2597</name></trkpt>
<trkpt lat="51.552096" lon="03.784267"><ele>24.3</ele><time>2022-11-15T11:03:22Z</time><name>PT2598</name></trkpt>
<trkpt lat="51.552097" lon="03.784266"><ele>24.5</ele><time>2022-11-15T11:03:23Z</time><name>PT2599</name></trkpt>
<trkpt lat="51.552097" lon="03.784268"><ele>24.5</ele><time>2022-11-15T11:03:28Z</time><name>PT2600</name></trkpt>
<trkpt lat="51.552097" lon="03.784264"><ele>24.4</ele><time>2022-11-15T11:03:29Z</time><name>PT2601</name></trkpt>
<trkpt lat="51.552096" lon="03.784257"><ele>24.3</ele><time>2022-11-15T11:03:30Z</time><name>PT2602</name></trkpt>
<trkpt lat="51.552094" lon="03.784250"><ele>24.4</ele><time>2022-11-15T11:03:31Z</time><name>PT2603</name></trkpt>
<trkpt lat="51.552093" lon="03.784234"><ele>24.3</ele><time>2022-11-15T11:03:32Z</time><name>PT2604</name></trkpt>
<trkpt lat="51.552101" lon="03.784248"><ele>24.5</ele><time>2022-11-15T11:03:34Z</time><name>PT2605</name></trkpt>
<trkpt lat="51.552101" lon="03.784252"><ele>24.6</ele><time>2022-11-15T11:03:35Z</time><name>PT2606</name></trkpt>
<trkpt lat="51.552099" lon="03.784252"><ele>24.2</ele><time>2022-11-15T11:03:41Z</time><name>PT2607</name></trkpt>
<trkpt lat="51.552100" lon="03.784252"><ele>24.2</ele><time>2022-11-15T11:03:42Z</time><name>PT2608</name></trkpt>
<trkpt lat="51.552101" lon="03.784250"><ele>24.2</ele><time>2022-11-15T11:03:43Z</time><name>PT2609</name></trkpt>
<trkpt lat="51.552099" lon="03.784243"><ele>23.9</ele><time>2022-11-15T11:03:47Z</time><name>PT2610</name></trkpt>
<trkpt lat="51.552099" lon="03.784234"><ele>23.9</ele><time>2022-11-15T11:03:48Z</time><name>PT2611</name></trkpt>
<trkpt lat="51.552100" lon="03.784232"><ele>24.2</ele><time>2022-11-15T11:03:49Z</time><name>PT2612</name></trkpt>
<trkpt lat="51.552101" lon="03.784228"><ele>24.3</ele><time>2022-11-15T11:03:50Z</time><name>PT2613</name></trkpt>
<trkpt lat="51.552098" lon="03.784229"><ele>24</ele><time>2022-11-15T11:06:02Z</time><name>PT2614</name></trkpt>
<trkpt lat="51.552097" lon="03.784230"><ele>24</ele><time>2022-11-15T11:06:03Z</time><name>PT2615</name></trkpt>
<trkpt lat="51.552100" lon="03.784241"><ele>24</ele><time>2022-11-15T11:06:11Z</time><name>PT2616</name></trkpt>
<trkpt lat="51.552097" lon="03.784251"><ele>23.9</ele><time>2022-11-15T11:06:12Z</time><name>PT2617</name></trkpt>
<trkpt lat="51.552096" lon="03.784257"><ele>24.1</ele><time>2022-11-15T11:06:13Z</time><name>PT2618</name></trkpt>
<trkpt lat="51.552096" lon="03.784261"><ele>24.2</ele><time>2022-11-15T11:06:14Z</time><name>PT2619</name></trkpt>
<trkpt lat="51.552098" lon="03.784262"><ele>24.2</ele><time>2022-11-15T11:06:15Z</time><name>PT2620</name></trkpt>
<trkpt lat="51.552101" lon="03.784265"><ele>24.1</ele><time>2022-11-15T11:06:25Z</time><name>PT2621</name></trkpt>
<trkpt lat="51.552096" lon="03.784270"><ele>24.1</ele><time>2022-11-15T11:06:26Z</time><name>PT2622</name></trkpt>
<trkpt lat="51.552095" lon="03.784278"><ele>24.3</ele><time>2022-11-15T11:06:27Z</time><name>PT2623</name></trkpt>
<trkpt lat="51.552093" lon="03.784286"><ele>24.4</ele><time>2022-11-15T11:06:28Z</time><name>PT2624</name></trkpt>
<trkpt lat="51.552093" lon="03.784288"><ele>24.6</ele><time>2022-11-15T11:06:29Z</time><name>PT2625</name></trkpt>
<trkpt lat="51.552092" lon="03.784289"><ele>24.7</ele><time>2022-11-15T11:06:30Z</time><name>PT2626</name></trkpt>
<trkpt lat="51.552094" lon="03.784290"><ele>24.7</ele><time>2022-11-15T11:06:31Z</time><name>PT2627</name></trkpt>
<trkpt lat="51.552095" lon="03.784296"><ele>24.7</ele><time>2022-11-15T11:06:32Z</time><name>PT2628</name></trkpt>
<trkpt lat="51.552096" lon="03.784298"><ele>24</ele><time>2022-11-15T11:07:05Z</time><name>PT2629</name></trkpt>
<trkpt lat="51.552096" lon="03.784298"><ele>23.8</ele><time>2022-11-15T11:07:06Z</time><name>PT2630</name></trkpt>
<trkpt lat="51.552092" lon="03.784303"><ele>23.9</ele><time>2022-11-15T11:07:07Z</time><name>PT2631</name></trkpt>
<trkpt lat="51.552088" lon="03.784305"><ele>24</ele><time>2022-11-15T11:07:08Z</time><name>PT2632</name></trkpt>
<trkpt lat="51.552086" lon="03.784303"><ele>24.2</ele><time>2022-11-15T11:07:09Z</time><name>PT2633</name></trkpt>
<trkpt lat="51.552087" lon="03.784304"><ele>24.5</ele><time>2022-11-15T11:07:10Z</time><name>PT2634</name></trkpt>
<trkpt lat="51.552086" lon="03.784304"><ele>24.7</ele><time>2022-11-15T11:07:11Z</time><name>PT2635</name></trkpt>
<trkpt lat="51.552088" lon="03.784303"><ele>24</ele><time>2022-11-15T11:08:02Z</time><name>PT2636</name></trkpt>
<trkpt lat="51.552089" lon="03.784307"><ele>24</ele><time>2022-11-15T11:08:03Z</time><name>PT2637</name></trkpt>
<trkpt lat="51.552091" lon="03.784310"><ele>24.2</ele><time>2022-11-15T11:08:04Z</time><name>PT2638</name></trkpt>
<trkpt lat="51.552092" lon="03.784310"><ele>24.3</ele><time>2022-11-15T11:08:05Z</time><name>PT2639</name></trkpt>
<trkpt lat="51.552091" lon="03.784313"><ele>24.6</ele><time>2022-11-15T11:08:09Z</time><name>PT2640</name></trkpt>
<trkpt lat="51.552095" lon="03.784324"><ele>24.6</ele><time>2022-11-15T11:08:10Z</time><name>PT2641</name></trkpt>
<trkpt lat="51.552097" lon="03.784325"><ele>24.7</ele><time>2022-11-15T11:08:11Z</time><name>PT2642</name></trkpt>
<trkpt lat="51.552095" lon="03.784333"><ele>24.7</ele><time>2022-11-15T11:08:12Z</time><name>PT2643</name></trkpt>
<trkpt lat="51.552092" lon="03.784337"><ele>24.7</ele><time>2022-11-15T11:08:13Z</time><name>PT2644</name></trkpt>
<trkpt lat="51.552085" lon="03.784328"><ele>24.1</ele><time>2022-11-15T11:08:15Z</time><name>PT2645</name></trkpt>
<trkpt lat="51.552082" lon="03.784329"><ele>23.9</ele><time>2022-11-15T11:08:16Z</time><name>PT2646</name></trkpt>
<trkpt lat="51.552080" lon="03.784328"><ele>23.7</ele><time>2022-11-15T11:08:17Z</time><name>PT2647</name></trkpt>
<trkpt lat="51.552074" lon="03.784330"><ele>23.5</ele><time>2022-11-15T11:08:18Z</time><name>PT2648</name></trkpt>
<trkpt lat="51.552070" lon="03.784334"><ele>23.7</ele><time>2022-11-15T11:08:19Z</time><name>PT2649</name></trkpt>
<trkpt lat="51.552064" lon="03.784334"><ele>23.9</ele><time>2022-11-15T11:08:20Z</time><name>PT2650</name></trkpt>
<trkpt lat="51.552059" lon="03.784331"><ele>24.6</ele><time>2022-11-15T11:08:28Z</time><name>PT2651</name></trkpt>
<trkpt lat="51.552051" lon="03.784332"><ele>24.5</ele><time>2022-11-15T11:08:29Z</time><name>PT2652</name></trkpt>
<trkpt lat="51.552040" lon="03.784329"><ele>24.2</ele><time>2022-11-15T11:08:30Z</time><name>PT2653</name></trkpt>
<trkpt lat="51.552030" lon="03.784328"><ele>23.9</ele><time>2022-11-15T11:08:31Z</time><name>PT2654</name></trkpt>
<trkpt lat="51.552022" lon="03.784330"><ele>24</ele><time>2022-11-15T11:08:32Z</time><name>PT2655</name></trkpt>
<trkpt lat="51.552018" lon="03.784342"><ele>24</ele><time>2022-11-15T11:08:33Z</time><name>PT2656</name></trkpt>
<trkpt lat="51.552019" lon="03.784349"><ele>24.2</ele><time>2022-11-15T11:08:34Z</time><name>PT2657</name></trkpt>
<trkpt lat="51.552019" lon="03.784351"><ele>24.4</ele><time>2022-11-15T11:08:35Z</time><name>PT2658</name></trkpt>
<trkpt lat="51.552010" lon="03.784344"><ele>23.9</ele><time>2022-11-15T11:08:45Z</time><name>PT2659</name></trkpt>
<trkpt lat="51.551999" lon="03.784330"><ele>23.7</ele><time>2022-11-15T11:08:46Z</time><name>PT2660</name></trkpt>
<trkpt lat="51.551987" lon="03.784327"><ele>23.6</ele><time>2022-11-15T11:08:47Z</time><name>PT2661</name></trkpt>
<trkpt lat="51.551974" lon="03.784324"><ele>23.5</ele><time>2022-11-15T11:08:48Z</time><name>PT2662</name></trkpt>
<trkpt lat="51.551964" lon="03.784319"><ele>23.6</ele><time>2022-11-15T11:08:49Z</time><name>PT2663</name></trkpt>
<trkpt lat="51.551954" lon="03.784316"><ele>23.7</ele><time>2022-11-15T11:08:50Z</time><name>PT2664</name></trkpt>
<trkpt lat="51.551944" lon="03.784316"><ele>23.7</ele><time>2022-11-15T11:08:51Z</time><name>PT2665</name></trkpt>
<trkpt lat="51.551935" lon="03.784313"><ele>23.6</ele><time>2022-11-15T11:08:52Z</time><name>PT2666</name></trkpt>
<trkpt lat="51.551928" lon="03.784311"><ele>23.6</ele><time>2022-11-15T11:08:53Z</time><name>PT2667</name></trkpt>
<trkpt lat="51.551919" lon="03.784309"><ele>23.5</ele><time>2022-11-15T11:08:54Z</time><name>PT2668</name></trkpt>
<trkpt lat="51.551909" lon="03.784305"><ele>23.6</ele><time>2022-11-15T11:08:55Z</time><name>PT2669</name></trkpt>
<trkpt lat="51.551898" lon="03.784305"><ele>23.6</ele><time>2022-11-15T11:08:56Z</time><name>PT2670</name></trkpt>
<trkpt lat="51.551889" lon="03.784298"><ele>23.7</ele><time>2022-11-15T11:08:57Z</time><name>PT2671</name></trkpt>
<trkpt lat="51.551882" lon="03.784300"><ele>23.7</ele><time>2022-11-15T11:08:58Z</time><name>PT2672</name></trkpt>
<trkpt lat="51.551874" lon="03.784298"><ele>23.9</ele><time>2022-11-15T11:08:59Z</time><name>PT2673</name></trkpt>
<trkpt lat="51.551864" lon="03.784297"><ele>23.9</ele><time>2022-11-15T11:09:00Z</time><name>PT2674</name></trkpt>
<trkpt lat="51.551857" lon="03.784300"><ele>24.1</ele><time>2022-11-15T11:09:01Z</time><name>PT2675</name></trkpt>
<trkpt lat="51.551847" lon="03.784300"><ele>24.2</ele><time>2022-11-15T11:09:02Z</time><name>PT2676</name></trkpt>
<trkpt lat="51.551837" lon="03.784295"><ele>24.2</ele><time>2022-11-15T11:09:03Z</time><name>PT2677</name></trkpt>
<trkpt lat="51.551828" lon="03.784293"><ele>24</ele><time>2022-11-15T11:09:04Z</time><name>PT2678</name></trkpt>
<trkpt lat="51.551819" lon="03.784292"><ele>24.1</ele><time>2022-11-15T11:09:05Z</time><name>PT2679</name></trkpt>
<trkpt lat="51.551809" lon="03.784294"><ele>23.8</ele><time>2022-11-15T11:09:06Z</time><name>PT2680</name></trkpt>
<trkpt lat="51.551798" lon="03.784296"><ele>23.8</ele><time>2022-11-15T11:09:07Z</time><name>PT2681</name></trkpt>
<trkpt lat="51.551792" lon="03.784302"><ele>23.8</ele><time>2022-11-15T11:09:08Z</time><name>PT2682</name></trkpt>
<trkpt lat="51.551783" lon="03.784307"><ele>23.9</ele><time>2022-11-15T11:09:09Z</time><name>PT2683</name></trkpt>
<trkpt lat="51.551775" lon="03.784310"><ele>23.9</ele><time>2022-11-15T11:09:10Z</time><name>PT2684</name></trkpt>
<trkpt lat="51.551772" lon="03.784315"><ele>24.2</ele><time>2022-11-15T11:09:13Z</time><name>PT2685</name></trkpt>
<trkpt lat="51.551763" lon="03.784325"><ele>24.2</ele><time>2022-11-15T11:09:14Z</time><name>PT2686</name></trkpt>
<trkpt lat="51.551757" lon="03.784338"><ele>24.4</ele><time>2022-11-15T11:09:15Z</time><name>PT2687</name></trkpt>
<trkpt lat="51.551751" lon="03.784348"><ele>24.5</ele><time>2022-11-15T11:09:16Z</time><name>PT2688</name></trkpt>
<trkpt lat="51.551742" lon="03.784366"><ele>24.4</ele><time>2022-11-15T11:09:17Z</time><name>PT2689</name></trkpt>
<trkpt lat="51.551734" lon="03.784376"><ele>24.4</ele><time>2022-11-15T11:09:18Z</time><name>PT2690</name></trkpt>
<trkpt lat="51.551726" lon="03.784392"><ele>24.5</ele><time>2022-11-15T11:09:19Z</time><name>PT2691</name></trkpt>
<trkpt lat="51.551715" lon="03.784400"><ele>24.5</ele><time>2022-11-15T11:09:20Z</time><name>PT2692</name></trkpt>
<trkpt lat="51.551706" lon="03.784402"><ele>24.5</ele><time>2022-11-15T11:09:21Z</time><name>PT2693</name></trkpt>
<trkpt lat="51.551699" lon="03.784402"><ele>24.5</ele><time>2022-11-15T11:09:22Z</time><name>PT2694</name></trkpt>
<trkpt lat="51.551691" lon="03.784405"><ele>24.4</ele><time>2022-11-15T11:09:23Z</time><name>PT2695</name></trkpt>
<trkpt lat="51.551680" lon="03.784409"><ele>24.2</ele><time>2022-11-15T11:09:24Z</time><name>PT2696</name></trkpt>
<trkpt lat="51.551669" lon="03.784416"><ele>24.1</ele><time>2022-11-15T11:09:25Z</time><name>PT2697</name></trkpt>
<trkpt lat="51.551658" lon="03.784427"><ele>24.1</ele><time>2022-11-15T11:09:26Z</time><name>PT2698</name></trkpt>
<trkpt lat="51.551645" lon="03.784432"><ele>24.1</ele><time>2022-11-15T11:09:27Z</time><name>PT2699</name></trkpt>
<trkpt lat="51.551634" lon="03.784439"><ele>24</ele><time>2022-11-15T11:09:28Z</time><name>PT2700</name></trkpt>
<trkpt lat="51.551625" lon="03.784448"><ele>24.1</ele><time>2022-11-15T11:09:29Z</time><name>PT2701</name></trkpt>
<trkpt lat="51.551617" lon="03.784457"><ele>24.2</ele><time>2022-11-15T11:09:30Z</time><name>PT2702</name></trkpt>
<trkpt lat="51.551609" lon="03.784463"><ele>24.2</ele><time>2022-11-15T11:09:31Z</time><name>PT2703</name></trkpt>
<trkpt lat="51.551604" lon="03.784470"><ele>24.2</ele><time>2022-11-15T11:09:32Z</time><name>PT2704</name></trkpt>
<trkpt lat="51.551598" lon="03.784475"><ele>24.2</ele><time>2022-11-15T11:09:33Z</time><name>PT2705</name></trkpt>
<trkpt lat="51.551591" lon="03.784478"><ele>24.2</ele><time>2022-11-15T11:09:34Z</time><name>PT2706</name></trkpt>
<trkpt lat="51.551583" lon="03.784481"><ele>24.2</ele><time>2022-11-15T11:09:35Z</time><name>PT2707</name></trkpt>
<trkpt lat="51.551572" lon="03.784489"><ele>24.3</ele><time>2022-11-15T11:09:36Z</time><name>PT2708</name></trkpt>
<trkpt lat="51.551563" lon="03.784492"><ele>24.4</ele><time>2022-11-15T11:09:37Z</time><name>PT2709</name></trkpt>
<trkpt lat="51.551554" lon="03.784496"><ele>24.5</ele><time>2022-11-15T11:09:38Z</time><name>PT2710</name></trkpt>
<trkpt lat="51.551545" lon="03.784502"><ele>24.4</ele><time>2022-11-15T11:09:39Z</time><name>PT2711</name></trkpt>
<trkpt lat="51.551534" lon="03.784509"><ele>24.2</ele><time>2022-11-15T11:09:40Z</time><name>PT2712</name></trkpt>
<trkpt lat="51.551527" lon="03.784518"><ele>24.2</ele><time>2022-11-15T11:09:41Z</time><name>PT2713</name></trkpt>
<trkpt lat="51.551519" lon="03.784525"><ele>24.3</ele><time>2022-11-15T11:09:42Z</time><name>PT2714</name></trkpt>
<trkpt lat="51.551512" lon="03.784531"><ele>24.3</ele><time>2022-11-15T11:09:43Z</time><name>PT2715</name></trkpt>
<trkpt lat="51.551505" lon="03.784536"><ele>24.5</ele><time>2022-11-15T11:09:44Z</time><name>PT2716</name></trkpt>
<trkpt lat="51.551498" lon="03.784549"><ele>24.5</ele><time>2022-11-15T11:09:45Z</time><name>PT2717</name></trkpt>
<trkpt lat="51.551494" lon="03.784561"><ele>24.6</ele><time>2022-11-15T11:09:46Z</time><name>PT2718</name></trkpt>
<trkpt lat="51.551491" lon="03.784578"><ele>24.5</ele><time>2022-11-15T11:09:47Z</time><name>PT2719</name></trkpt>
<trkpt lat="51.551488" lon="03.784593"><ele>24.4</ele><time>2022-11-15T11:09:48Z</time><name>PT2720</name></trkpt>
<trkpt lat="51.551488" lon="03.784608"><ele>24.3</ele><time>2022-11-15T11:09:49Z</time><name>PT2721</name></trkpt>
<trkpt lat="51.551487" lon="03.784626"><ele>24.4</ele><time>2022-11-15T11:09:50Z</time><name>PT2722</name></trkpt>
<trkpt lat="51.551486" lon="03.784637"><ele>24.3</ele><time>2022-11-15T11:09:51Z</time><name>PT2723</name></trkpt>
<trkpt lat="51.551486" lon="03.784652"><ele>24.3</ele><time>2022-11-15T11:09:52Z</time><name>PT2724</name></trkpt>
<trkpt lat="51.551484" lon="03.784672"><ele>24.4</ele><time>2022-11-15T11:09:53Z</time><name>PT2725</name></trkpt>
<trkpt lat="51.551485" lon="03.784692"><ele>24.5</ele><time>2022-11-15T11:09:54Z</time><name>PT2726</name></trkpt>
<trkpt lat="51.551484" lon="03.784709"><ele>24.5</ele><time>2022-11-15T11:09:55Z</time><name>PT2727</name></trkpt>
<trkpt lat="51.551484" lon="03.784722"><ele>24.5</ele><time>2022-11-15T11:09:56Z</time><name>PT2728</name></trkpt>
<trkpt lat="51.551488" lon="03.784747"><ele>24.6</ele><time>2022-11-15T11:09:57Z</time><name>PT2729</name></trkpt>
<trkpt lat="51.551495" lon="03.784762"><ele>24.6</ele><time>2022-11-15T11:09:58Z</time><name>PT2730</name></trkpt>
<trkpt lat="51.551499" lon="03.784775"><ele>24.7</ele><time>2022-11-15T11:09:59Z</time><name>PT2731</name></trkpt>
<trkpt lat="51.551502" lon="03.784791"><ele>24.7</ele><time>2022-11-15T11:10:00Z</time><name>PT2732</name></trkpt>
<trkpt lat="51.551501" lon="03.784807"><ele>24.6</ele><time>2022-11-15T11:10:01Z</time><name>PT2733</name></trkpt>
<trkpt lat="51.551500" lon="03.784822"><ele>24.6</ele><time>2022-11-15T11:10:02Z</time><name>PT2734</name></trkpt>
<trkpt lat="51.551500" lon="03.784836"><ele>24.6</ele><time>2022-11-15T11:10:03Z</time><name>PT2735</name></trkpt>
<trkpt lat="51.551500" lon="03.784852"><ele>24.6</ele><time>2022-11-15T11:10:04Z</time><name>PT2736</name></trkpt>
<trkpt lat="51.551500" lon="03.784870"><ele>24.6</ele><time>2022-11-15T11:10:05Z</time><name>PT2737</name></trkpt>
<trkpt lat="51.551500" lon="03.784885"><ele>24.7</ele><time>2022-11-15T11:10:06Z</time><name>PT2738</name></trkpt>
<trkpt lat="51.551502" lon="03.784901"><ele>24.7</ele><time>2022-11-15T11:10:07Z</time><name>PT2739</name></trkpt>
<trkpt lat="51.551502" lon="03.784919"><ele>24.6</ele><time>2022-11-15T11:10:08Z</time><name>PT2740</name></trkpt>
<trkpt lat="51.551504" lon="03.784933"><ele>24.7</ele><time>2022-11-15T11:10:09Z</time><name>PT2741</name></trkpt>
<trkpt lat="51.551509" lon="03.784944"><ele>24.7</ele><time>2022-11-15T11:10:10Z</time><name>PT2742</name></trkpt>
<trkpt lat="51.551511" lon="03.784954"><ele>24.7</ele><time>2022-11-15T11:10:11Z</time><name>PT2743</name></trkpt>
<trkpt lat="51.551511" lon="03.784971"><ele>24.7</ele><time>2022-11-15T11:10:12Z</time><name>PT2744</name></trkpt>
<trkpt lat="51.551514" lon="03.784984"><ele>24.7</ele><time>2022-11-15T11:10:13Z</time><name>PT2745</name></trkpt>
<trkpt lat="51.551514" lon="03.784998"><ele>24.7</ele><time>2022-11-15T11:10:14Z</time><name>PT2746</name></trkpt>
<trkpt lat="51.551515" lon="03.785013"><ele>24.7</ele><time>2022-11-15T11:10:15Z</time><name>PT2747</name></trkpt>
<trkpt lat="51.551522" lon="03.785034"><ele>24.7</ele><time>2022-11-15T11:10:16Z</time><name>PT2748</name></trkpt>
<trkpt lat="51.551527" lon="03.785051"><ele>24.7</ele><time>2022-11-15T11:10:17Z</time><name>PT2749</name></trkpt>
<trkpt lat="51.551531" lon="03.785069"><ele>24.7</ele><time>2022-11-15T11:10:18Z</time><name>PT2750</name></trkpt>
<trkpt lat="51.551537" lon="03.785082"><ele>24.4</ele><time>2022-11-15T11:10:19Z</time><name>PT2751</name></trkpt>
<trkpt lat="51.551542" lon="03.785098"><ele>24.5</ele><time>2022-11-15T11:10:20Z</time><name>PT2752</name></trkpt>
<trkpt lat="51.551547" lon="03.785116"><ele>24.5</ele><time>2022-11-15T11:10:21Z</time><name>PT2753</name></trkpt>
<trkpt lat="51.551549" lon="03.785138"><ele>24.3</ele><time>2022-11-15T11:10:22Z</time><name>PT2754</name></trkpt>
<trkpt lat="51.551553" lon="03.785153"><ele>24.4</ele><time>2022-11-15T11:10:23Z</time><name>PT2755</name></trkpt>
<trkpt lat="51.551556" lon="03.785172"><ele>24.4</ele><time>2022-11-15T11:10:24Z</time><name>PT2756</name></trkpt>
<trkpt lat="51.551555" lon="03.785188"><ele>24.5</ele><time>2022-11-15T11:10:25Z</time><name>PT2757</name></trkpt>
<trkpt lat="51.551553" lon="03.785204"><ele>24.5</ele><time>2022-11-15T11:10:26Z</time><name>PT2758</name></trkpt>
<trkpt lat="51.551557" lon="03.785227"><ele>24.6</ele><time>2022-11-15T11:10:27Z</time><name>PT2759</name></trkpt>
<trkpt lat="51.551557" lon="03.785244"><ele>24.6</ele><time>2022-11-15T11:10:28Z</time><name>PT2760</name></trkpt>
<trkpt lat="51.551555" lon="03.785260"><ele>24.6</ele><time>2022-11-15T11:10:29Z</time><name>PT2761</name></trkpt>
<trkpt lat="51.551553" lon="03.785271"><ele>24.4</ele><time>2022-11-15T11:10:30Z</time><name>PT2762</name></trkpt>
<trkpt lat="51.551552" lon="03.785287"><ele>24.5</ele><time>2022-11-15T11:10:31Z</time><name>PT2763</name></trkpt>
<trkpt lat="51.551551" lon="03.785308"><ele>24.6</ele><time>2022-11-15T11:10:32Z</time><name>PT2764</name></trkpt>
<trkpt lat="51.551552" lon="03.785329"><ele>24.6</ele><time>2022-11-15T11:10:33Z</time><name>PT2765</name></trkpt>
<trkpt lat="51.551550" lon="03.785346"><ele>24.7</ele><time>2022-11-15T11:10:34Z</time><name>PT2766</name></trkpt>
<trkpt lat="51.551548" lon="03.785366"><ele>24.8</ele><time>2022-11-15T11:10:35Z</time><name>PT2767</name></trkpt>
<trkpt lat="51.551547" lon="03.785385"><ele>24.7</ele><time>2022-11-15T11:10:36Z</time><name>PT2768</name></trkpt>
<trkpt lat="51.551546" lon="03.785395"><ele>24.6</ele><time>2022-11-15T11:10:37Z</time><name>PT2769</name></trkpt>
<trkpt lat="51.551543" lon="03.785410"><ele>24.6</ele><time>2022-11-15T11:10:38Z</time><name>PT2770</name></trkpt>
<trkpt lat="51.551541" lon="03.785420"><ele>24.6</ele><time>2022-11-15T11:10:39Z</time><name>PT2771</name></trkpt>
<trkpt lat="51.551534" lon="03.785431"><ele>24.6</ele><time>2022-11-15T11:10:40Z</time><name>PT2772</name></trkpt>
<trkpt lat="51.551527" lon="03.785441"><ele>24.7</ele><time>2022-11-15T11:10:41Z</time><name>PT2773</name></trkpt>
<trkpt lat="51.551522" lon="03.785448"><ele>24.7</ele><time>2022-11-15T11:10:42Z</time><name>PT2774</name></trkpt>
<trkpt lat="51.551517" lon="03.785458"><ele>24.7</ele><time>2022-11-15T11:10:43Z</time><name>PT2775</name></trkpt>
<trkpt lat="51.551515" lon="03.785468"><ele>24.6</ele><time>2022-11-15T11:10:44Z</time><name>PT2776</name></trkpt>
<trkpt lat="51.551510" lon="03.785481"><ele>24.6</ele><time>2022-11-15T11:10:45Z</time><name>PT2777</name></trkpt>
<trkpt lat="51.551513" lon="03.785485"><ele>24.5</ele><time>2022-11-15T11:10:46Z</time><name>PT2778</name></trkpt>
<trkpt lat="51.551511" lon="03.785495"><ele>24.4</ele><time>2022-11-15T11:10:47Z</time><name>PT2779</name></trkpt>
<trkpt lat="51.551506" lon="03.785507"><ele>24.4</ele><time>2022-11-15T11:10:48Z</time><name>PT2780</name></trkpt>
<trkpt lat="51.551505" lon="03.785518"><ele>24.5</ele><time>2022-11-15T11:10:49Z</time><name>PT2781</name></trkpt>
<trkpt lat="51.551504" lon="03.785532"><ele>24.6</ele><time>2022-11-15T11:10:50Z</time><name>PT2782</name></trkpt>
<trkpt lat="51.551499" lon="03.785544"><ele>24.8</ele><time>2022-11-15T11:10:51Z</time><name>PT2783</name></trkpt>
<trkpt lat="51.551494" lon="03.785552"><ele>24.8</ele><time>2022-11-15T11:10:52Z</time><name>PT2784</name></trkpt>
<trkpt lat="51.551490" lon="03.785562"><ele>24.8</ele><time>2022-11-15T11:10:53Z</time><name>PT2785</name></trkpt>
<trkpt lat="51.551485" lon="03.785581"><ele>24.8</ele><time>2022-11-15T11:10:54Z</time><name>PT2786</name></trkpt>
<trkpt lat="51.551481" lon="03.785590"><ele>24.7</ele><time>2022-11-15T11:10:55Z</time><name>PT2787</name></trkpt>
<trkpt lat="51.551473" lon="03.785607"><ele>24.4</ele><time>2022-11-15T11:10:56Z</time><name>PT2788</name></trkpt>
<trkpt lat="51.551466" lon="03.785621"><ele>24.4</ele><time>2022-11-15T11:10:57Z</time><name>PT2789</name></trkpt>
<trkpt lat="51.551458" lon="03.785634"><ele>24.6</ele><time>2022-11-15T11:10:58Z</time><name>PT2790</name></trkpt>
<trkpt lat="51.551452" lon="03.785643"><ele>24.4</ele><time>2022-11-15T11:10:59Z</time><name>PT2791</name></trkpt>
<trkpt lat="51.551445" lon="03.785653"><ele>24.5</ele><time>2022-11-15T11:11:00Z</time><name>PT2792</name></trkpt>
<trkpt lat="51.551438" lon="03.785663"><ele>24.7</ele><time>2022-11-15T11:11:01Z</time><name>PT2793</name></trkpt>
<trkpt lat="51.551434" lon="03.785665"><ele>24.7</ele><time>2022-11-15T11:11:02Z</time><name>PT2794</name></trkpt>
<trkpt lat="51.551429" lon="03.785672"><ele>24.7</ele><time>2022-11-15T11:11:03Z</time><name>PT2795</name></trkpt>
<trkpt lat="51.551418" lon="03.785687"><ele>24.7</ele><time>2022-11-15T11:11:04Z</time><name>PT2796</name></trkpt>
<trkpt lat="51.551413" lon="03.785698"><ele>24.7</ele><time>2022-11-15T11:11:05Z</time><name>PT2797</name></trkpt>
<trkpt lat="51.551411" lon="03.785707"><ele>24.7</ele><time>2022-11-15T11:11:06Z</time><name>PT2798</name></trkpt>
<trkpt lat="51.551408" lon="03.785721"><ele>24.5</ele><time>2022-11-15T11:11:07Z</time><name>PT2799</name></trkpt>
<trkpt lat="51.551406" lon="03.785737"><ele>24.7</ele><time>2022-11-15T11:11:08Z</time><name>PT2800</name></trkpt>
<trkpt lat="51.551404" lon="03.785753"><ele>24.6</ele><time>2022-11-15T11:11:09Z</time><name>PT2801</name></trkpt>
<trkpt lat="51.551406" lon="03.785765"><ele>24.7</ele><time>2022-11-15T11:11:10Z</time><name>PT2802</name></trkpt>
<trkpt lat="51.551407" lon="03.785779"><ele>24.6</ele><time>2022-11-15T11:11:11Z</time><name>PT2803</name></trkpt>
<trkpt lat="51.551405" lon="03.785793"><ele>24.6</ele><time>2022-11-15T11:11:12Z</time><name>PT2804</name></trkpt>
<trkpt lat="51.551403" lon="03.785806"><ele>24.6</ele><time>2022-11-15T11:11:13Z</time><name>PT2805</name></trkpt>
<trkpt lat="51.551403" lon="03.785818"><ele>24.6</ele><time>2022-11-15T11:11:14Z</time><name>PT2806</name></trkpt>
<trkpt lat="51.551405" lon="03.785832"><ele>24.6</ele><time>2022-11-15T11:11:15Z</time><name>PT2807</name></trkpt>
<trkpt lat="51.551406" lon="03.785845"><ele>24.7</ele><time>2022-11-15T11:11:16Z</time><name>PT2808</name></trkpt>
<trkpt lat="51.551407" lon="03.785860"><ele>24.7</ele><time>2022-11-15T11:11:17Z</time><name>PT2809</name></trkpt>
<trkpt lat="51.551408" lon="03.785875"><ele>24.6</ele><time>2022-11-15T11:11:18Z</time><name>PT2810</name></trkpt>
<trkpt lat="51.551407" lon="03.785897"><ele>24.4</ele><time>2022-11-15T11:11:19Z</time><name>PT2811</name></trkpt>
<trkpt lat="51.551407" lon="03.785917"><ele>24.5</ele><time>2022-11-15T11:11:20Z</time><name>PT2812</name></trkpt>
<trkpt lat="51.551407" lon="03.785935"><ele>24.6</ele><time>2022-11-15T11:11:21Z</time><name>PT2813</name></trkpt>
<trkpt lat="51.551406" lon="03.785955"><ele>24.8</ele><time>2022-11-15T11:11:22Z</time><name>PT2814</name></trkpt>
<trkpt lat="51.551405" lon="03.785966"><ele>24.8</ele><time>2022-11-15T11:11:23Z</time><name>PT2815</name></trkpt>
<trkpt lat="51.551405" lon="03.785977"><ele>24.9</ele><time>2022-11-15T11:11:24Z</time><name>PT2816</name></trkpt>
<trkpt lat="51.551402" lon="03.785992"><ele>24.8</ele><time>2022-11-15T11:11:25Z</time><name>PT2817</name></trkpt>
<trkpt lat="51.551403" lon="03.786004"><ele>24.8</ele><time>2022-11-15T11:11:26Z</time><name>PT2818</name></trkpt>
<trkpt lat="51.551402" lon="03.786020"><ele>24.7</ele><time>2022-11-15T11:11:27Z</time><name>PT2819</name></trkpt>
<trkpt lat="51.551401" lon="03.786037"><ele>24.6</ele><time>2022-11-15T11:11:28Z</time><name>PT2820</name></trkpt>
<trkpt lat="51.551400" lon="03.786054"><ele>24.4</ele><time>2022-11-15T11:11:29Z</time><name>PT2821</name></trkpt>
<trkpt lat="51.551398" lon="03.786068"><ele>24.6</ele><time>2022-11-15T11:11:30Z</time><name>PT2822</name></trkpt>
<trkpt lat="51.551398" lon="03.786082"><ele>24.5</ele><time>2022-11-15T11:11:31Z</time><name>PT2823</name></trkpt>
<trkpt lat="51.551395" lon="03.786097"><ele>24.6</ele><time>2022-11-15T11:11:32Z</time><name>PT2824</name></trkpt>
<trkpt lat="51.551392" lon="03.786116"><ele>24.7</ele><time>2022-11-15T11:11:33Z</time><name>PT2825</name></trkpt>
<trkpt lat="51.551389" lon="03.786130"><ele>24.8</ele><time>2022-11-15T11:11:34Z</time><name>PT2826</name></trkpt>
<trkpt lat="51.551388" lon="03.786149"><ele>24.7</ele><time>2022-11-15T11:11:35Z</time><name>PT2827</name></trkpt>
<trkpt lat="51.551386" lon="03.786163"><ele>24.7</ele><time>2022-11-15T11:11:36Z</time><name>PT2828</name></trkpt>
<trkpt lat="51.551384" lon="03.786176"><ele>24.7</ele><time>2022-11-15T11:11:37Z</time><name>PT2829</name></trkpt>
<trkpt lat="51.551381" lon="03.786192"><ele>24.7</ele><time>2022-11-15T11:11:38Z</time><name>PT2830</name></trkpt>
<trkpt lat="51.551378" lon="03.786208"><ele>24.7</ele><time>2022-11-15T11:11:39Z</time><name>PT2831</name></trkpt>
<trkpt lat="51.551376" lon="03.786225"><ele>24.6</ele><time>2022-11-15T11:11:40Z</time><name>PT2832</name></trkpt>
<trkpt lat="51.551373" lon="03.786243"><ele>24.6</ele><time>2022-11-15T11:11:41Z</time><name>PT2833</name></trkpt>
<trkpt lat="51.551372" lon="03.786258"><ele>24.7</ele><time>2022-11-15T11:11:42Z</time><name>PT2834</name></trkpt>
<trkpt lat="51.551370" lon="03.786280"><ele>24.7</ele><time>2022-11-15T11:11:43Z</time><name>PT2835</name></trkpt>
<trkpt lat="51.551371" lon="03.786305"><ele>24.7</ele><time>2022-11-15T11:11:44Z</time><name>PT2836</name></trkpt>
<trkpt lat="51.551373" lon="03.786322"><ele>24.9</ele><time>2022-11-15T11:11:45Z</time><name>PT2837</name></trkpt>
<trkpt lat="51.551374" lon="03.786335"><ele>24.9</ele><time>2022-11-15T11:11:46Z</time><name>PT2838</name></trkpt>
<trkpt lat="51.551375" lon="03.786351"><ele>24.9</ele><time>2022-11-15T11:11:47Z</time><name>PT2839</name></trkpt>
<trkpt lat="51.551377" lon="03.786366"><ele>24.8</ele><time>2022-11-15T11:11:48Z</time><name>PT2840</name></trkpt>
<trkpt lat="51.551376" lon="03.786387"><ele>24.8</ele><time>2022-11-15T11:11:49Z</time><name>PT2841</name></trkpt>
<trkpt lat="51.551375" lon="03.786408"><ele>24.8</ele><time>2022-11-15T11:11:50Z</time><name>PT2842</name></trkpt>
<trkpt lat="51.551376" lon="03.786425"><ele>24.8</ele><time>2022-11-15T11:11:51Z</time><name>PT2843</name></trkpt>
<trkpt lat="51.551376" lon="03.786443"><ele>24.6</ele><time>2022-11-15T11:11:52Z</time><name>PT2844</name></trkpt>
<trkpt lat="51.551378" lon="03.786461"><ele>24.3</ele><time>2022-11-15T11:11:53Z</time><name>PT2845</name></trkpt>
<trkpt lat="51.551381" lon="03.786478"><ele>24.2</ele><time>2022-11-15T11:11:54Z</time><name>PT2846</name></trkpt>
<trkpt lat="51.551384" lon="03.786502"><ele>24</ele><time>2022-11-15T11:11:55Z</time><name>PT2847</name></trkpt>
<trkpt lat="51.551388" lon="03.786522"><ele>24</ele><time>2022-11-15T11:11:56Z</time><name>PT2848</name></trkpt>
<trkpt lat="51.551394" lon="03.786542"><ele>24.2</ele><time>2022-11-15T11:11:57Z</time><name>PT2849</name></trkpt>
<trkpt lat="51.551399" lon="03.786558"><ele>24.2</ele><time>2022-11-15T11:11:58Z</time><name>PT2850</name></trkpt>
<trkpt lat="51.551405" lon="03.786575"><ele>24.2</ele><time>2022-11-15T11:11:59Z</time><name>PT2851</name></trkpt>
<trkpt lat="51.551412" lon="03.786591"><ele>24.2</ele><time>2022-11-15T11:12:00Z</time><name>PT2852</name></trkpt>
<trkpt lat="51.551415" lon="03.786605"><ele>24.3</ele><time>2022-11-15T11:12:01Z</time><name>PT2853</name></trkpt>
<trkpt lat="51.551414" lon="03.786618"><ele>24.4</ele><time>2022-11-15T11:12:02Z</time><name>PT2854</name></trkpt>
<trkpt lat="51.551418" lon="03.786631"><ele>24.3</ele><time>2022-11-15T11:12:03Z</time><name>PT2855</name></trkpt>
<trkpt lat="51.551421" lon="03.786652"><ele>24.7</ele><time>2022-11-15T11:12:04Z</time><name>PT2856</name></trkpt>
<trkpt lat="51.551421" lon="03.786666"><ele>24.7</ele><time>2022-11-15T11:12:05Z</time><name>PT2857</name></trkpt>
<trkpt lat="51.551420" lon="03.786682"><ele>24.7</ele><time>2022-11-15T11:12:06Z</time><name>PT2858</name></trkpt>
<trkpt lat="51.551420" lon="03.786700"><ele>24.7</ele><time>2022-11-15T11:12:07Z</time><name>PT2859</name></trkpt>
<trkpt lat="51.551419" lon="03.786713"><ele>24.9</ele><time>2022-11-15T11:12:08Z</time><name>PT2860</name></trkpt>
<trkpt lat="51.551414" lon="03.786732"><ele>24.9</ele><time>2022-11-15T11:12:09Z</time><name>PT2861</name></trkpt>
<trkpt lat="51.551411" lon="03.786743"><ele>25</ele><time>2022-11-15T11:12:10Z</time><name>PT2862</name></trkpt>
<trkpt lat="51.551408" lon="03.786757"><ele>24.8</ele><time>2022-11-15T11:12:11Z</time><name>PT2863</name></trkpt>
<trkpt lat="51.551404" lon="03.786773"><ele>24.9</ele><time>2022-11-15T11:12:12Z</time><name>PT2864</name></trkpt>
<trkpt lat="51.551400" lon="03.786782"><ele>24.9</ele><time>2022-11-15T11:12:13Z</time><name>PT2865</name></trkpt>
<trkpt lat="51.551397" lon="03.786794"><ele>24.7</ele><time>2022-11-15T11:12:14Z</time><name>PT2866</name></trkpt>
<trkpt lat="51.551400" lon="03.786811"><ele>24.7</ele><time>2022-11-15T11:12:15Z</time><name>PT2867</name></trkpt>
<trkpt lat="51.551400" lon="03.786832"><ele>24.7</ele><time>2022-11-15T11:12:16Z</time><name>PT2868</name></trkpt>
<trkpt lat="51.551398" lon="03.786844"><ele>24.7</ele><time>2022-11-15T11:12:17Z</time><name>PT2869</name></trkpt>
<trkpt lat="51.551397" lon="03.786855"><ele>24.6</ele><time>2022-11-15T11:12:18Z</time><name>PT2870</name></trkpt>
<trkpt lat="51.551396" lon="03.786870"><ele>24.7</ele><time>2022-11-15T11:12:19Z</time><name>PT2871</name></trkpt>
<trkpt lat="51.551395" lon="03.786887"><ele>24.8</ele><time>2022-11-15T11:12:20Z</time><name>PT2872</name></trkpt>
<trkpt lat="51.551391" lon="03.786903"><ele>24.7</ele><time>2022-11-15T11:12:21Z</time><name>PT2873</name></trkpt>
<trkpt lat="51.551389" lon="03.786915"><ele>24.7</ele><time>2022-11-15T11:12:22Z</time><name>PT2874</name></trkpt>
<trkpt lat="51.551389" lon="03.786927"><ele>24.6</ele><time>2022-11-15T11:12:23Z</time><name>PT2875</name></trkpt>
<trkpt lat="51.551389" lon="03.786944"><ele>24.4</ele><time>2022-11-15T11:12:24Z</time><name>PT2876</name></trkpt>
<trkpt lat="51.551390" lon="03.786964"><ele>24.2</ele><time>2022-11-15T11:12:25Z</time><name>PT2877</name></trkpt>
<trkpt lat="51.551391" lon="03.786975"><ele>24.2</ele><time>2022-11-15T11:12:26Z</time><name>PT2878</name></trkpt>
<trkpt lat="51.551389" lon="03.786992"><ele>24.2</ele><time>2022-11-15T11:12:27Z</time><name>PT2879</name></trkpt>
<trkpt lat="51.551389" lon="03.787003"><ele>24.3</ele><time>2022-11-15T11:12:28Z</time><name>PT2880</name></trkpt>
<trkpt lat="51.551386" lon="03.787020"><ele>24.5</ele><time>2022-11-15T11:12:29Z</time><name>PT2881</name></trkpt>
<trkpt lat="51.551383" lon="03.787035"><ele>24.8</ele><time>2022-11-15T11:12:30Z</time><name>PT2882</name></trkpt>
<trkpt lat="51.551381" lon="03.787050"><ele>24.7</ele><time>2022-11-15T11:12:31Z</time><name>PT2883</name></trkpt>
<trkpt lat="51.551379" lon="03.787065"><ele>24.7</ele><time>2022-11-15T11:12:32Z</time><name>PT2884</name></trkpt>
<trkpt lat="51.551378" lon="03.787078"><ele>24.5</ele><time>2022-11-15T11:12:33Z</time><name>PT2885</name></trkpt>
<trkpt lat="51.551379" lon="03.787102"><ele>24.5</ele><time>2022-11-15T11:12:34Z</time><name>PT2886</name></trkpt>
<trkpt lat="51.551381" lon="03.787119"><ele>24.6</ele><time>2022-11-15T11:12:35Z</time><name>PT2887</name></trkpt>
<trkpt lat="51.551377" lon="03.787139"><ele>24.7</ele><time>2022-11-15T11:12:36Z</time><name>PT2888</name></trkpt>
<trkpt lat="51.551377" lon="03.787157"><ele>24.7</ele><time>2022-11-15T11:12:37Z</time><name>PT2889</name></trkpt>
<trkpt lat="51.551376" lon="03.787176"><ele>24.7</ele><time>2022-11-15T11:12:38Z</time><name>PT2890</name></trkpt>
<trkpt lat="51.551374" lon="03.787193"><ele>24.4</ele><time>2022-11-15T11:12:39Z</time><name>PT2891</name></trkpt>
<trkpt lat="51.551373" lon="03.787212"><ele>24.4</ele><time>2022-11-15T11:12:40Z</time><name>PT2892</name></trkpt>
<trkpt lat="51.551368" lon="03.787239"><ele>24.2</ele><time>2022-11-15T11:12:41Z</time><name>PT2893</name></trkpt>
<trkpt lat="51.551367" lon="03.787257"><ele>24.2</ele><time>2022-11-15T11:12:42Z</time><name>PT2894</name></trkpt>
<trkpt lat="51.551366" lon="03.787271"><ele>24.1</ele><time>2022-11-15T11:12:43Z</time><name>PT2895</name></trkpt>
<trkpt lat="51.551367" lon="03.787290"><ele>24.1</ele><time>2022-11-15T11:12:44Z</time><name>PT2896</name></trkpt>
<trkpt lat="51.551365" lon="03.787310"><ele>24.1</ele><time>2022-11-15T11:12:45Z</time><name>PT2897</name></trkpt>
<trkpt lat="51.551366" lon="03.787329"><ele>24.1</ele><time>2022-11-15T11:12:46Z</time><name>PT2898</name></trkpt>
<trkpt lat="51.551367" lon="03.787345"><ele>24.3</ele><time>2022-11-15T11:12:47Z</time><name>PT2899</name></trkpt>
<trkpt lat="51.551367" lon="03.787363"><ele>24.4</ele><time>2022-11-15T11:12:48Z</time><name>PT2900</name></trkpt>
<trkpt lat="51.551365" lon="03.787381"><ele>24.6</ele><time>2022-11-15T11:12:49Z</time><name>PT2901</name></trkpt>
<trkpt lat="51.551363" lon="03.787398"><ele>24.5</ele><time>2022-11-15T11:12:50Z</time><name>PT2902</name></trkpt>
<trkpt lat="51.551366" lon="03.787413"><ele>24.5</ele><time>2022-11-15T11:12:51Z</time><name>PT2903</name></trkpt>
<trkpt lat="51.551364" lon="03.787433"><ele>24.4</ele><time>2022-11-15T11:12:52Z</time><name>PT2904</name></trkpt>
<trkpt lat="51.551366" lon="03.787447"><ele>24.2</ele><time>2022-11-15T11:12:53Z</time><name>PT2905</name></trkpt>
<trkpt lat="51.551366" lon="03.787460"><ele>24.2</ele><time>2022-11-15T11:12:54Z</time><name>PT2906</name></trkpt>
<trkpt lat="51.551364" lon="03.787470"><ele>24.2</ele><time>2022-11-15T11:12:55Z</time><name>PT2907</name></trkpt>
<trkpt lat="51.551363" lon="03.787485"><ele>24.3</ele><time>2022-11-15T11:12:56Z</time><name>PT2908</name></trkpt>
<trkpt lat="51.551364" lon="03.787499"><ele>24.7</ele><time>2022-11-15T11:12:57Z</time><name>PT2909</name></trkpt>
<trkpt lat="51.551364" lon="03.787515"><ele>24.6</ele><time>2022-11-15T11:12:58Z</time><name>PT2910</name></trkpt>
<trkpt lat="51.551364" lon="03.787532"><ele>24.6</ele><time>2022-11-15T11:12:59Z</time><name>PT2911</name></trkpt>
<trkpt lat="51.551365" lon="03.787549"><ele>24.7</ele><time>2022-11-15T11:13:00Z</time><name>PT2912</name></trkpt>
<trkpt lat="51.551368" lon="03.787565"><ele>24.5</ele><time>2022-11-15T11:13:01Z</time><name>PT2913</name></trkpt>
<trkpt lat="51.551367" lon="03.787575"><ele>24.3</ele><time>2022-11-15T11:13:02Z</time><name>PT2914</name></trkpt>
<trkpt lat="51.551367" lon="03.787587"><ele>24.6</ele><time>2022-11-15T11:13:03Z</time><name>PT2915</name></trkpt>
<trkpt lat="51.551367" lon="03.787600"><ele>24.7</ele><time>2022-11-15T11:13:04Z</time><name>PT2916</name></trkpt>
<trkpt lat="51.551368" lon="03.787613"><ele>24.7</ele><time>2022-11-15T11:13:05Z</time><name>PT2917</name></trkpt>
<trkpt lat="51.551369" lon="03.787623"><ele>24.7</ele><time>2022-11-15T11:13:06Z</time><name>PT2918</name></trkpt>
<trkpt lat="51.551370" lon="03.787631"><ele>24.7</ele><time>2022-11-15T11:13:07Z</time><name>PT2919</name></trkpt>
<trkpt lat="51.551371" lon="03.787648"><ele>24.7</ele><time>2022-11-15T11:13:08Z</time><name>PT2920</name></trkpt>
<trkpt lat="51.551376" lon="03.787673"><ele>24.7</ele><time>2022-11-15T11:13:21Z</time><name>PT2921</name></trkpt>
<trkpt lat="51.551382" lon="03.787697"><ele>24.8</ele><time>2022-11-15T11:13:22Z</time><name>PT2922</name></trkpt>
<trkpt lat="51.551384" lon="03.787724"><ele>24.7</ele><time>2022-11-15T11:13:23Z</time><name>PT2923</name></trkpt>
<trkpt lat="51.551387" lon="03.787739"><ele>24.7</ele><time>2022-11-15T11:13:24Z</time><name>PT2924</name></trkpt>
<trkpt lat="51.551388" lon="03.787752"><ele>24.7</ele><time>2022-11-15T11:13:25Z</time><name>PT2925</name></trkpt>
<trkpt lat="51.551390" lon="03.787770"><ele>24.6</ele><time>2022-11-15T11:13:26Z</time><name>PT2926</name></trkpt>
<trkpt lat="51.551392" lon="03.787782"><ele>24.7</ele><time>2022-11-15T11:13:27Z</time><name>PT2927</name></trkpt>
<trkpt lat="51.551393" lon="03.787795"><ele>24.6</ele><time>2022-11-15T11:13:28Z</time><name>PT2928</name></trkpt>
<trkpt lat="51.551396" lon="03.787807"><ele>24.4</ele><time>2022-11-15T11:13:29Z</time><name>PT2929</name></trkpt>
<trkpt lat="51.551398" lon="03.787820"><ele>24.4</ele><time>2022-11-15T11:13:30Z</time><name>PT2930</name></trkpt>
<trkpt lat="51.551400" lon="03.787836"><ele>24.4</ele><time>2022-11-15T11:13:31Z</time><name>PT2931</name></trkpt>
<trkpt lat="51.551398" lon="03.787855"><ele>24.2</ele><time>2022-11-15T11:13:32Z</time><name>PT2932</name></trkpt>
<trkpt lat="51.551396" lon="03.787867"><ele>24.4</ele><time>2022-11-15T11:13:33Z</time><name>PT2933</name></trkpt>
<trkpt lat="51.551394" lon="03.787879"><ele>24.4</ele><time>2022-11-15T11:13:34Z</time><name>PT2934</name></trkpt>
<trkpt lat="51.551394" lon="03.787894"><ele>24.5</ele><time>2022-11-15T11:13:35Z</time><name>PT2935</name></trkpt>
<trkpt lat="51.551392" lon="03.787904"><ele>24.4</ele><time>2022-11-15T11:13:36Z</time><name>PT2936</name></trkpt>
<trkpt lat="51.551393" lon="03.787913"><ele>24.6</ele><time>2022-11-15T11:13:37Z</time><name>PT2937</name></trkpt>
<trkpt lat="51.551392" lon="03.787920"><ele>24.5</ele><time>2022-11-15T11:13:38Z</time><name>PT2938</name></trkpt>
<trkpt lat="51.551392" lon="03.787926"><ele>24.7</ele><time>2022-11-15T11:13:39Z</time><name>PT2939</name></trkpt>
<trkpt lat="51.551391" lon="03.787940"><ele>24.6</ele><time>2022-11-15T11:13:41Z</time><name>PT2940</name></trkpt>
<trkpt lat="51.551389" lon="03.787957"><ele>24.5</ele><time>2022-11-15T11:13:42Z</time><name>PT2941</name></trkpt>
<trkpt lat="51.551386" lon="03.787972"><ele>24.7</ele><time>2022-11-15T11:13:43Z</time><name>PT2942</name></trkpt>
<trkpt lat="51.551385" lon="03.787985"><ele>24.5</ele><time>2022-11-15T11:13:44Z</time><name>PT2943</name></trkpt>
<trkpt lat="51.551384" lon="03.787997"><ele>24.6</ele><time>2022-11-15T11:13:45Z</time><name>PT2944</name></trkpt>
<trkpt lat="51.551384" lon="03.788009"><ele>24.7</ele><time>2022-11-15T11:13:46Z</time><name>PT2945</name></trkpt>
<trkpt lat="51.551382" lon="03.788022"><ele>24.7</ele><time>2022-11-15T11:13:47Z</time><name>PT2946</name></trkpt>
<trkpt lat="51.551380" lon="03.788033"><ele>24.7</ele><time>2022-11-15T11:13:48Z</time><name>PT2947</name></trkpt>
<trkpt lat="51.551377" lon="03.788049"><ele>24.7</ele><time>2022-11-15T11:13:49Z</time><name>PT2948</name></trkpt>
<trkpt lat="51.551372" lon="03.788058"><ele>24.8</ele><time>2022-11-15T11:13:50Z</time><name>PT2949</name></trkpt>
<trkpt lat="51.551372" lon="03.788071"><ele>24.9</ele><time>2022-11-15T11:13:51Z</time><name>PT2950</name></trkpt>
<trkpt lat="51.551370" lon="03.788084"><ele>24.9</ele><time>2022-11-15T11:13:52Z</time><name>PT2951</name></trkpt>
<trkpt lat="51.551370" lon="03.788101"><ele>24.8</ele><time>2022-11-15T11:13:53Z</time><name>PT2952</name></trkpt>
<trkpt lat="51.551370" lon="03.788113"><ele>24.7</ele><time>2022-11-15T11:13:54Z</time><name>PT2953</name></trkpt>
<trkpt lat="51.551367" lon="03.788127"><ele>24.7</ele><time>2022-11-15T11:13:55Z</time><name>PT2954</name></trkpt>
<trkpt lat="51.551365" lon="03.788142"><ele>24.6</ele><time>2022-11-15T11:13:56Z</time><name>PT2955</name></trkpt>
<trkpt lat="51.551364" lon="03.788156"><ele>24.5</ele><time>2022-11-15T11:13:57Z</time><name>PT2956</name></trkpt>
<trkpt lat="51.551361" lon="03.788166"><ele>24.6</ele><time>2022-11-15T11:13:58Z</time><name>PT2957</name></trkpt>
<trkpt lat="51.551359" lon="03.788180"><ele>24.7</ele><time>2022-11-15T11:13:59Z</time><name>PT2958</name></trkpt>
<trkpt lat="51.551359" lon="03.788195"><ele>24.7</ele><time>2022-11-15T11:14:00Z</time><name>PT2959</name></trkpt>
<trkpt lat="51.551355" lon="03.788211"><ele>24.7</ele><time>2022-11-15T11:14:01Z</time><name>PT2960</name></trkpt>
<trkpt lat="51.551352" lon="03.788225"><ele>24.7</ele><time>2022-11-15T11:14:02Z</time><name>PT2961</name></trkpt>
<trkpt lat="51.551348" lon="03.788240"><ele>24.7</ele><time>2022-11-15T11:14:03Z</time><name>PT2962</name></trkpt>
<trkpt lat="51.551346" lon="03.788253"><ele>24.5</ele><time>2022-11-15T11:14:04Z</time><name>PT2963</name></trkpt>
<trkpt lat="51.551345" lon="03.788268"><ele>24.5</ele><time>2022-11-15T11:14:05Z</time><name>PT2964</name></trkpt>
<trkpt lat="51.551344" lon="03.788284"><ele>24.4</ele><time>2022-11-15T11:14:06Z</time><name>PT2965</name></trkpt>
<trkpt lat="51.551340" lon="03.788304"><ele>24.4</ele><time>2022-11-15T11:14:07Z</time><name>PT2966</name></trkpt>
<trkpt lat="51.551336" lon="03.788323"><ele>24.5</ele><time>2022-11-15T11:14:08Z</time><name>PT2967</name></trkpt>
<trkpt lat="51.551329" lon="03.788339"><ele>24.5</ele><time>2022-11-15T11:14:09Z</time><name>PT2968</name></trkpt>
<trkpt lat="51.551328" lon="03.788352"><ele>24.5</ele><time>2022-11-15T11:14:10Z</time><name>PT2969</name></trkpt>
<trkpt lat="51.551329" lon="03.788364"><ele>24.7</ele><time>2022-11-15T11:14:11Z</time><name>PT2970</name></trkpt>
<trkpt lat="51.551327" lon="03.788375"><ele>24.3</ele><time>2022-11-15T11:14:12Z</time><name>PT2971</name></trkpt>
<trkpt lat="51.551327" lon="03.788389"><ele>24.3</ele><time>2022-11-15T11:14:13Z</time><name>PT2972</name></trkpt>
<trkpt lat="51.551323" lon="03.788404"><ele>24.5</ele><time>2022-11-15T11:14:14Z</time><name>PT2973</name></trkpt>
<trkpt lat="51.551325" lon="03.788417"><ele>24.3</ele><time>2022-11-15T11:14:15Z</time><name>PT2974</name></trkpt>
<trkpt lat="51.551327" lon="03.788424"><ele>24</ele><time>2022-11-15T11:14:16Z</time><name>PT2975</name></trkpt>
<trkpt lat="51.551323" lon="03.788436"><ele>24</ele><time>2022-11-15T11:14:17Z</time><name>PT2976</name></trkpt>
<trkpt lat="51.551318" lon="03.788449"><ele>23.9</ele><time>2022-11-15T11:14:18Z</time><name>PT2977</name></trkpt>
<trkpt lat="51.551315" lon="03.788463"><ele>23.8</ele><time>2022-11-15T11:14:19Z</time><name>PT2978</name></trkpt>
<trkpt lat="51.551312" lon="03.788474"><ele>23.8</ele><time>2022-11-15T11:14:20Z</time><name>PT2979</name></trkpt>
<trkpt lat="51.551310" lon="03.788482"><ele>23.8</ele><time>2022-11-15T11:14:21Z</time><name>PT2980</name></trkpt>
<trkpt lat="51.551305" lon="03.788488"><ele>23.7</ele><time>2022-11-15T11:14:22Z</time><name>PT2981</name></trkpt>
<trkpt lat="51.551303" lon="03.788490"><ele>24.3</ele><time>2022-11-15T11:14:27Z</time><name>PT2982</name></trkpt>
<trkpt lat="51.551296" lon="03.788505"><ele>24.5</ele><time>2022-11-15T11:14:28Z</time><name>PT2983</name></trkpt>
<trkpt lat="51.551290" lon="03.788518"><ele>24.6</ele><time>2022-11-15T11:14:29Z</time><name>PT2984</name></trkpt>
<trkpt lat="51.551289" lon="03.788533"><ele>24.7</ele><time>2022-11-15T11:14:30Z</time><name>PT2985</name></trkpt>
<trkpt lat="51.551286" lon="03.788546"><ele>24.7</ele><time>2022-11-15T11:14:31Z</time><name>PT2986</name></trkpt>
<trkpt lat="51.551284" lon="03.788562"><ele>24.7</ele><time>2022-11-15T11:14:32Z</time><name>PT2987</name></trkpt>
<trkpt lat="51.551283" lon="03.788580"><ele>24.6</ele><time>2022-11-15T11:14:33Z</time><name>PT2988</name></trkpt>
<trkpt lat="51.551281" lon="03.788595"><ele>24.5</ele><time>2022-11-15T11:14:34Z</time><name>PT2989</name></trkpt>
<trkpt lat="51.551280" lon="03.788607"><ele>24.7</ele><time>2022-11-15T11:14:35Z</time><name>PT2990</name></trkpt>
<trkpt lat="51.551281" lon="03.788619"><ele>24.8</ele><time>2022-11-15T11:14:36Z</time><name>PT2991</name></trkpt>
<trkpt lat="51.551281" lon="03.788634"><ele>25</ele><time>2022-11-15T11:14:37Z</time><name>PT2992</name></trkpt>
<trkpt lat="51.551281" lon="03.788648"><ele>25.1</ele><time>2022-11-15T11:14:38Z</time><name>PT2993</name></trkpt>
<trkpt lat="51.551283" lon="03.788663"><ele>25</ele><time>2022-11-15T11:14:39Z</time><name>PT2994</name></trkpt>
<trkpt lat="51.551286" lon="03.788680"><ele>24.7</ele><time>2022-11-15T11:14:40Z</time><name>PT2995</name></trkpt>
<trkpt lat="51.551287" lon="03.788699"><ele>24.7</ele><time>2022-11-15T11:14:41Z</time><name>PT2996</name></trkpt>
<trkpt lat="51.551287" lon="03.788714"><ele>24.4</ele><time>2022-11-15T11:14:42Z</time><name>PT2997</name></trkpt>
<trkpt lat="51.551286" lon="03.788730"><ele>24.6</ele><time>2022-11-15T11:14:43Z</time><name>PT2998</name></trkpt>
<trkpt lat="51.551286" lon="03.788744"><ele>24.4</ele><time>2022-11-15T11:14:44Z</time><name>PT2999</name></trkpt>
<trkpt lat="51.551286" lon="03.788756"><ele>24.6</ele><time>2022-11-15T11:14:45Z</time><name>PT3000</name></trkpt>
<trkpt lat="51.551290" lon="03.788778"><ele>24.4</ele><time>2022-11-15T11:14:46Z</time><name>PT3001</name></trkpt>
<trkpt lat="51.551288" lon="03.788794"><ele>24.5</ele><time>2022-11-15T11:14:47Z</time><name>PT3002</name></trkpt>
<trkpt lat="51.551287" lon="03.788804"><ele>24.6</ele><time>2022-11-15T11:14:48Z</time><name>PT3003</name></trkpt>
<trkpt lat="51.551284" lon="03.788814"><ele>24.7</ele><time>2022-11-15T11:14:49Z</time><name>PT3004</name></trkpt>
<trkpt lat="51.551280" lon="03.788827"><ele>24.7</ele><time>2022-11-15T11:14:50Z</time><name>PT3005</name></trkpt>
<trkpt lat="51.551276" lon="03.788836"><ele>25</ele><time>2022-11-15T11:14:51Z</time><name>PT3006</name></trkpt>
<trkpt lat="51.551272" lon="03.788847"><ele>24.7</ele><time>2022-11-15T11:14:52Z</time><name>PT3007</name></trkpt>
<trkpt lat="51.551271" lon="03.788866"><ele>24.6</ele><time>2022-11-15T11:14:53Z</time><name>PT3008</name></trkpt>
<trkpt lat="51.551267" lon="03.788879"><ele>24.7</ele><time>2022-11-15T11:14:54Z</time><name>PT3009</name></trkpt>
<trkpt lat="51.551264" lon="03.788891"><ele>24.6</ele><time>2022-11-15T11:14:55Z</time><name>PT3010</name></trkpt>
<trkpt lat="51.551262" lon="03.788900"><ele>24.6</ele><time>2022-11-15T11:14:56Z</time><name>PT3011</name></trkpt>
<trkpt lat="51.551261" lon="03.788913"><ele>24.6</ele><time>2022-11-15T11:14:57Z</time><name>PT3012</name></trkpt>
<trkpt lat="51.551256" lon="03.788928"><ele>24.6</ele><time>2022-11-15T11:14:58Z</time><name>PT3013</name></trkpt>
<trkpt lat="51.551251" lon="03.788944"><ele>24.3</ele><time>2022-11-15T11:14:59Z</time><name>PT3014</name></trkpt>
<trkpt lat="51.551246" lon="03.788959"><ele>24.3</ele><time>2022-11-15T11:15:00Z</time><name>PT3015</name></trkpt>
<trkpt lat="51.551241" lon="03.788975"><ele>24.2</ele><time>2022-11-15T11:15:01Z</time><name>PT3016</name></trkpt>
<trkpt lat="51.551236" lon="03.788989"><ele>24.3</ele><time>2022-11-15T11:15:02Z</time><name>PT3017</name></trkpt>
<trkpt lat="51.551233" lon="03.788999"><ele>24.2</ele><time>2022-11-15T11:15:03Z</time><name>PT3018</name></trkpt>
<trkpt lat="51.551226" lon="03.789013"><ele>24.2</ele><time>2022-11-15T11:15:04Z</time><name>PT3019</name></trkpt>
<trkpt lat="51.551221" lon="03.789025"><ele>24.2</ele><time>2022-11-15T11:15:05Z</time><name>PT3020</name></trkpt>
<trkpt lat="51.551217" lon="03.789037"><ele>24.3</ele><time>2022-11-15T11:15:06Z</time><name>PT3021</name></trkpt>
<trkpt lat="51.551213" lon="03.789053"><ele>24.3</ele><time>2022-11-15T11:15:07Z</time><name>PT3022</name></trkpt>
<trkpt lat="51.551210" lon="03.789063"><ele>24.4</ele><time>2022-11-15T11:15:08Z</time><name>PT3023</name></trkpt>
<trkpt lat="51.551206" lon="03.789076"><ele>24.6</ele><time>2022-11-15T11:15:09Z</time><name>PT3024</name></trkpt>
<trkpt lat="51.551201" lon="03.789093"><ele>24.4</ele><time>2022-11-15T11:15:10Z</time><name>PT3025</name></trkpt>
<trkpt lat="51.551198" lon="03.789107"><ele>24.5</ele><time>2022-11-15T11:15:11Z</time><name>PT3026</name></trkpt>
<trkpt lat="51.551195" lon="03.789124"><ele>24.5</ele><time>2022-11-15T11:15:12Z</time><name>PT3027</name></trkpt>
<trkpt lat="51.551191" lon="03.789139"><ele>24.5</ele><time>2022-11-15T11:15:13Z</time><name>PT3028</name></trkpt>
<trkpt lat="51.551188" lon="03.789152"><ele>24.5</ele><time>2022-11-15T11:15:14Z</time><name>PT3029</name></trkpt>
<trkpt lat="51.551184" lon="03.789167"><ele>24.6</ele><time>2022-11-15T11:15:15Z</time><name>PT3030</name></trkpt>
<trkpt lat="51.551180" lon="03.789175"><ele>24.6</ele><time>2022-11-15T11:15:16Z</time><name>PT3031</name></trkpt>
<trkpt lat="51.551181" lon="03.789185"><ele>24.7</ele><time>2022-11-15T11:15:17Z</time><name>PT3032</name></trkpt>
<trkpt lat="51.551178" lon="03.789199"><ele>24.7</ele><time>2022-11-15T11:15:18Z</time><name>PT3033</name></trkpt>
<trkpt lat="51.551178" lon="03.789214"><ele>24.5</ele><time>2022-11-15T11:15:19Z</time><name>PT3034</name></trkpt>
<trkpt lat="51.551177" lon="03.789228"><ele>24.5</ele><time>2022-11-15T11:15:20Z</time><name>PT3035</name></trkpt>
<trkpt lat="51.551175" lon="03.789239"><ele>24.5</ele><time>2022-11-15T11:15:21Z</time><name>PT3036</name></trkpt>
<trkpt lat="51.551177" lon="03.789258"><ele>25.3</ele><time>2022-11-15T11:15:35Z</time><name>PT3037</name></trkpt>
<trkpt lat="51.551173" lon="03.789298"><ele>25.2</ele><time>2022-11-15T11:15:36Z</time><name>PT3038</name></trkpt>
<trkpt lat="51.551169" lon="03.789319"><ele>25.2</ele><time>2022-11-15T11:15:37Z</time><name>PT3039</name></trkpt>
<trkpt lat="51.551163" lon="03.789349"><ele>25.1</ele><time>2022-11-15T11:15:38Z</time><name>PT3040</name></trkpt>
<trkpt lat="51.551160" lon="03.789373"><ele>25.1</ele><time>2022-11-15T11:15:39Z</time><name>PT3041</name></trkpt>
<trkpt lat="51.551161" lon="03.789392"><ele>25</ele><time>2022-11-15T11:15:40Z</time><name>PT3042</name></trkpt>
<trkpt lat="51.551158" lon="03.789413"><ele>25</ele><time>2022-11-15T11:15:41Z</time><name>PT3043</name></trkpt>
<trkpt lat="51.551157" lon="03.789439"><ele>24.9</ele><time>2022-11-15T11:15:42Z</time><name>PT3044</name></trkpt>
<trkpt lat="51.551158" lon="03.789461"><ele>24.8</ele><time>2022-11-15T11:15:43Z</time><name>PT3045</name></trkpt>
<trkpt lat="51.551156" lon="03.789485"><ele>24.6</ele><time>2022-11-15T11:15:44Z</time><name>PT3046</name></trkpt>
<trkpt lat="51.551156" lon="03.789505"><ele>24.7</ele><time>2022-11-15T11:15:45Z</time><name>PT3047</name></trkpt>
<trkpt lat="51.551159" lon="03.789531"><ele>24.7</ele><time>2022-11-15T11:15:46Z</time><name>PT3048</name></trkpt>
<trkpt lat="51.551160" lon="03.789547"><ele>24.8</ele><time>2022-11-15T11:15:47Z</time><name>PT3049</name></trkpt>
<trkpt lat="51.551162" lon="03.789561"><ele>24.9</ele><time>2022-11-15T11:15:48Z</time><name>PT3050</name></trkpt>
<trkpt lat="51.551165" lon="03.789582"><ele>24.9</ele><time>2022-11-15T11:15:49Z</time><name>PT3051</name></trkpt>
<trkpt lat="51.551164" lon="03.789597"><ele>25</ele><time>2022-11-15T11:15:50Z</time><name>PT3052</name></trkpt>
<trkpt lat="51.551166" lon="03.789610"><ele>24.9</ele><time>2022-11-15T11:15:51Z</time><name>PT3053</name></trkpt>
<trkpt lat="51.551166" lon="03.789629"><ele>24.8</ele><time>2022-11-15T11:15:52Z</time><name>PT3054</name></trkpt>
<trkpt lat="51.551163" lon="03.789646"><ele>24.9</ele><time>2022-11-15T11:15:53Z</time><name>PT3055</name></trkpt>
<trkpt lat="51.551163" lon="03.789663"><ele>25</ele><time>2022-11-15T11:15:54Z</time><name>PT3056</name></trkpt>
<trkpt lat="51.551163" lon="03.789681"><ele>24.9</ele><time>2022-11-15T11:15:55Z</time><name>PT3057</name></trkpt>
<trkpt lat="51.551161" lon="03.789697"><ele>24.9</ele><time>2022-11-15T11:15:56Z</time><name>PT3058</name></trkpt>
<trkpt lat="51.551161" lon="03.789713"><ele>24.8</ele><time>2022-11-15T11:15:57Z</time><name>PT3059</name></trkpt>
<trkpt lat="51.551161" lon="03.789731"><ele>24.7</ele><time>2022-11-15T11:15:58Z</time><name>PT3060</name></trkpt>
<trkpt lat="51.551163" lon="03.789746"><ele>24.7</ele><time>2022-11-15T11:15:59Z</time><name>PT3061</name></trkpt>
<trkpt lat="51.551159" lon="03.789759"><ele>24.7</ele><time>2022-11-15T11:16:00Z</time><name>PT3062</name></trkpt>
<trkpt lat="51.551157" lon="03.789779"><ele>24.7</ele><time>2022-11-15T11:16:01Z</time><name>PT3063</name></trkpt>
<trkpt lat="51.551156" lon="03.789793"><ele>24.7</ele><time>2022-11-15T11:16:02Z</time><name>PT3064</name></trkpt>
<trkpt lat="51.551156" lon="03.789809"><ele>24.7</ele><time>2022-11-15T11:16:03Z</time><name>PT3065</name></trkpt>
<trkpt lat="51.551155" lon="03.789825"><ele>24.7</ele><time>2022-11-15T11:16:04Z</time><name>PT3066</name></trkpt>
<trkpt lat="51.551155" lon="03.789845"><ele>24.6</ele><time>2022-11-15T11:16:05Z</time><name>PT3067</name></trkpt>
<trkpt lat="51.551159" lon="03.789860"><ele>24.6</ele><time>2022-11-15T11:16:06Z</time><name>PT3068</name></trkpt>
<trkpt lat="51.551161" lon="03.789878"><ele>24.6</ele><time>2022-11-15T11:16:07Z</time><name>PT3069</name></trkpt>
<trkpt lat="51.551162" lon="03.789893"><ele>24.5</ele><time>2022-11-15T11:16:08Z</time><name>PT3070</name></trkpt>
<trkpt lat="51.551162" lon="03.789913"><ele>24.5</ele><time>2022-11-15T11:16:09Z</time><name>PT3071</name></trkpt>
<trkpt lat="51.551163" lon="03.789927"><ele>24.5</ele><time>2022-11-15T11:16:10Z</time><name>PT3072</name></trkpt>
<trkpt lat="51.551164" lon="03.789946"><ele>24.5</ele><time>2022-11-15T11:16:11Z</time><name>PT3073</name></trkpt>
<trkpt lat="51.551167" lon="03.789964"><ele>24.2</ele><time>2022-11-15T11:16:12Z</time><name>PT3074</name></trkpt>
<trkpt lat="51.551168" lon="03.789980"><ele>24.2</ele><time>2022-11-15T11:16:13Z</time><name>PT3075</name></trkpt>
<trkpt lat="51.551171" lon="03.789998"><ele>24.2</ele><time>2022-11-15T11:16:14Z</time><name>PT3076</name></trkpt>
<trkpt lat="51.551171" lon="03.790017"><ele>24.2</ele><time>2022-11-15T11:16:15Z</time><name>PT3077</name></trkpt>
<trkpt lat="51.551171" lon="03.790030"><ele>24.2</ele><time>2022-11-15T11:16:16Z</time><name>PT3078</name></trkpt>
<trkpt lat="51.551178" lon="03.790044"><ele>24.5</ele><time>2022-11-15T11:16:17Z</time><name>PT3079</name></trkpt>
<trkpt lat="51.551177" lon="03.790053"><ele>24.6</ele><time>2022-11-15T11:16:18Z</time><name>PT3080</name></trkpt>
<trkpt lat="51.551174" lon="03.790068"><ele>24.7</ele><time>2022-11-15T11:16:19Z</time><name>PT3081</name></trkpt>
<trkpt lat="51.551170" lon="03.790080"><ele>24.8</ele><time>2022-11-15T11:16:20Z</time><name>PT3082</name></trkpt>
<trkpt lat="51.551166" lon="03.790092"><ele>24.7</ele><time>2022-11-15T11:16:21Z</time><name>PT3083</name></trkpt>
<trkpt lat="51.551162" lon="03.790105"><ele>24.7</ele><time>2022-11-15T11:16:22Z</time><name>PT3084</name></trkpt>
<trkpt lat="51.551158" lon="03.790115"><ele>24.6</ele><time>2022-11-15T11:16:23Z</time><name>PT3085</name></trkpt>
<trkpt lat="51.551154" lon="03.790120"><ele>24.4</ele><time>2022-11-15T11:16:24Z</time><name>PT3086</name></trkpt>
<trkpt lat="51.551153" lon="03.790126"><ele>24.5</ele><time>2022-11-15T11:16:25Z</time><name>PT3087</name></trkpt>
<trkpt lat="51.551149" lon="03.790134"><ele>24.6</ele><time>2022-11-15T11:16:26Z</time><name>PT3088</name></trkpt>
<trkpt lat="51.551146" lon="03.790143"><ele>24.5</ele><time>2022-11-15T11:16:27Z</time><name>PT3089</name></trkpt>
<trkpt lat="51.551140" lon="03.790159"><ele>24.7</ele><time>2022-11-15T11:16:28Z</time><name>PT3090</name></trkpt>
<trkpt lat="51.551136" lon="03.790179"><ele>24.8</ele><time>2022-11-15T11:16:29Z</time><name>PT3091</name></trkpt>
<trkpt lat="51.551133" lon="03.790187"><ele>24.8</ele><time>2022-11-15T11:16:30Z</time><name>PT3092</name></trkpt>
<trkpt lat="51.551127" lon="03.790199"><ele>24.7</ele><time>2022-11-15T11:16:31Z</time><name>PT3093</name></trkpt>
<trkpt lat="51.551123" lon="03.790209"><ele>24.7</ele><time>2022-11-15T11:16:32Z</time><name>PT3094</name></trkpt>
<trkpt lat="51.551122" lon="03.790219"><ele>24.7</ele><time>2022-11-15T11:16:33Z</time><name>PT3095</name></trkpt>
<trkpt lat="51.551121" lon="03.790239"><ele>24.6</ele><time>2022-11-15T11:16:34Z</time><name>PT3096</name></trkpt>
<trkpt lat="51.551125" lon="03.790249"><ele>24.7</ele><time>2022-11-15T11:16:39Z</time><name>PT3097</name></trkpt>
<trkpt lat="51.551128" lon="03.790265"><ele>24.6</ele><time>2022-11-15T11:16:40Z</time><name>PT3098</name></trkpt>
<trkpt lat="51.551128" lon="03.790280"><ele>24.7</ele><time>2022-11-15T11:16:41Z</time><name>PT3099</name></trkpt>
<trkpt lat="51.551125" lon="03.790304"><ele>24.7</ele><time>2022-11-15T11:16:42Z</time><name>PT3100</name></trkpt>
<trkpt lat="51.551122" lon="03.790318"><ele>24.7</ele><time>2022-11-15T11:16:43Z</time><name>PT3101</name></trkpt>
<trkpt lat="51.551120" lon="03.790331"><ele>24.7</ele><time>2022-11-15T11:16:44Z</time><name>PT3102</name></trkpt>
<trkpt lat="51.551119" lon="03.790340"><ele>24.9</ele><time>2022-11-15T11:16:47Z</time><name>PT3103</name></trkpt>
<trkpt lat="51.551117" lon="03.790355"><ele>24.9</ele><time>2022-11-15T11:16:48Z</time><name>PT3104</name></trkpt>
<trkpt lat="51.551113" lon="03.790367"><ele>24.8</ele><time>2022-11-15T11:16:49Z</time><name>PT3105</name></trkpt>
<trkpt lat="51.551109" lon="03.790382"><ele>24.8</ele><time>2022-11-15T11:16:50Z</time><name>PT3106</name></trkpt>
<trkpt lat="51.551104" lon="03.790393"><ele>24.8</ele><time>2022-11-15T11:16:51Z</time><name>PT3107</name></trkpt>
<trkpt lat="51.551102" lon="03.790407"><ele>24.8</ele><time>2022-11-15T11:16:52Z</time><name>PT3108</name></trkpt>
<trkpt lat="51.551100" lon="03.790421"><ele>24.7</ele><time>2022-11-15T11:16:53Z</time><name>PT3109</name></trkpt>
<trkpt lat="51.551099" lon="03.790435"><ele>24.7</ele><time>2022-11-15T11:16:54Z</time><name>PT3110</name></trkpt>
<trkpt lat="51.551096" lon="03.790448"><ele>24.7</ele><time>2022-11-15T11:16:55Z</time><name>PT3111</name></trkpt>
<trkpt lat="51.551093" lon="03.790458"><ele>24.7</ele><time>2022-11-15T11:16:56Z</time><name>PT3112</name></trkpt>
<trkpt lat="51.551088" lon="03.790472"><ele>24.8</ele><time>2022-11-15T11:16:57Z</time><name>PT3113</name></trkpt>
<trkpt lat="51.551085" lon="03.790485"><ele>25.1</ele><time>2022-11-15T11:16:58Z</time><name>PT3114</name></trkpt>
<trkpt lat="51.551079" lon="03.790501"><ele>25.2</ele><time>2022-11-15T11:16:59Z</time><name>PT3115</name></trkpt>
<trkpt lat="51.551073" lon="03.790517"><ele>25.3</ele><time>2022-11-15T11:17:00Z</time><name>PT3116</name></trkpt>
<trkpt lat="51.551069" lon="03.790530"><ele>25.2</ele><time>2022-11-15T11:17:01Z</time><name>PT3117</name></trkpt>
<trkpt lat="51.551067" lon="03.790546"><ele>25.3</ele><time>2022-11-15T11:17:02Z</time><name>PT3118</name></trkpt>
<trkpt lat="51.551065" lon="03.790558"><ele>25.3</ele><time>2022-11-15T11:17:03Z</time><name>PT3119</name></trkpt>
<trkpt lat="51.551060" lon="03.790572"><ele>25.4</ele><time>2022-11-15T11:17:04Z</time><name>PT3120</name></trkpt>
<trkpt lat="51.551055" lon="03.790584"><ele>25.2</ele><time>2022-11-15T11:17:05Z</time><name>PT3121</name></trkpt>
<trkpt lat="51.551049" lon="03.790591"><ele>25.3</ele><time>2022-11-15T11:17:06Z</time><name>PT3122</name></trkpt>
<trkpt lat="51.551043" lon="03.790603"><ele>25.2</ele><time>2022-11-15T11:17:07Z</time><name>PT3123</name></trkpt>
<trkpt lat="51.551039" lon="03.790616"><ele>25</ele><time>2022-11-15T11:17:08Z</time><name>PT3124</name></trkpt>
<trkpt lat="51.551039" lon="03.790635"><ele>24.8</ele><time>2022-11-15T11:17:09Z</time><name>PT3125</name></trkpt>
<trkpt lat="51.551038" lon="03.790651"><ele>24.9</ele><time>2022-11-15T11:17:10Z</time><name>PT3126</name></trkpt>
<trkpt lat="51.551035" lon="03.790661"><ele>25</ele><time>2022-11-15T11:17:11Z</time><name>PT3127</name></trkpt>
<trkpt lat="51.551031" lon="03.790675"><ele>24.9</ele><time>2022-11-15T11:17:12Z</time><name>PT3128</name></trkpt>
<trkpt lat="51.551029" lon="03.790689"><ele>25.1</ele><time>2022-11-15T11:17:13Z</time><name>PT3129</name></trkpt>
<trkpt lat="51.551025" lon="03.790701"><ele>25</ele><time>2022-11-15T11:17:14Z</time><name>PT3130</name></trkpt>
<trkpt lat="51.551021" lon="03.790713"><ele>25.2</ele><time>2022-11-15T11:17:15Z</time><name>PT3131</name></trkpt>
<trkpt lat="51.551018" lon="03.790725"><ele>25.2</ele><time>2022-11-15T11:17:16Z</time><name>PT3132</name></trkpt>
<trkpt lat="51.551014" lon="03.790737"><ele>25.1</ele><time>2022-11-15T11:17:17Z</time><name>PT3133</name></trkpt>
<trkpt lat="51.551009" lon="03.790748"><ele>25.1</ele><time>2022-11-15T11:17:18Z</time><name>PT3134</name></trkpt>
<trkpt lat="51.551004" lon="03.790760"><ele>24.9</ele><time>2022-11-15T11:17:19Z</time><name>PT3135</name></trkpt>
<trkpt lat="51.551001" lon="03.790765"><ele>25</ele><time>2022-11-15T11:17:20Z</time><name>PT3136</name></trkpt>
<trkpt lat="51.550997" lon="03.790774"><ele>25.1</ele><time>2022-11-15T11:17:21Z</time><name>PT3137</name></trkpt>
<trkpt lat="51.550992" lon="03.790788"><ele>25.1</ele><time>2022-11-15T11:17:22Z</time><name>PT3138</name></trkpt>
<trkpt lat="51.550987" lon="03.790798"><ele>25.2</ele><time>2022-11-15T11:17:23Z</time><name>PT3139</name></trkpt>
<trkpt lat="51.550982" lon="03.790813"><ele>25</ele><time>2022-11-15T11:17:24Z</time><name>PT3140</name></trkpt>
<trkpt lat="51.550976" lon="03.790829"><ele>25.1</ele><time>2022-11-15T11:17:25Z</time><name>PT3141</name></trkpt>
<trkpt lat="51.550972" lon="03.790838"><ele>25</ele><time>2022-11-15T11:17:26Z</time><name>PT3142</name></trkpt>
<trkpt lat="51.550967" lon="03.790851"><ele>25.1</ele><time>2022-11-15T11:17:27Z</time><name>PT3143</name></trkpt>
<trkpt lat="51.550962" lon="03.790869"><ele>24.9</ele><time>2022-11-15T11:17:28Z</time><name>PT3144</name></trkpt>
<trkpt lat="51.550958" lon="03.790880"><ele>24.9</ele><time>2022-11-15T11:17:29Z</time><name>PT3145</name></trkpt>
<trkpt lat="51.550949" lon="03.790897"><ele>24.7</ele><time>2022-11-15T11:17:30Z</time><name>PT3146</name></trkpt>
<trkpt lat="51.550941" lon="03.790910"><ele>24.7</ele><time>2022-11-15T11:17:31Z</time><name>PT3147</name></trkpt>
<trkpt lat="51.550935" lon="03.790920"><ele>24.7</ele><time>2022-11-15T11:17:32Z</time><name>PT3148</name></trkpt>
<trkpt lat="51.550929" lon="03.790933"><ele>24.7</ele><time>2022-11-15T11:17:33Z</time><name>PT3149</name></trkpt>
<trkpt lat="51.550924" lon="03.790945"><ele>24.8</ele><time>2022-11-15T11:17:34Z</time><name>PT3150</name></trkpt>
<trkpt lat="51.550917" lon="03.790958"><ele>25</ele><time>2022-11-15T11:17:35Z</time><name>PT3151</name></trkpt>
<trkpt lat="51.550914" lon="03.790969"><ele>25</ele><time>2022-11-15T11:17:36Z</time><name>PT3152</name></trkpt>
<trkpt lat="51.550909" lon="03.790980"><ele>25</ele><time>2022-11-15T11:17:37Z</time><name>PT3153</name></trkpt>
<trkpt lat="51.550905" lon="03.790994"><ele>24.9</ele><time>2022-11-15T11:17:38Z</time><name>PT3154</name></trkpt>
<trkpt lat="51.550899" lon="03.791006"><ele>24.7</ele><time>2022-11-15T11:17:39Z</time><name>PT3155</name></trkpt>
<trkpt lat="51.550893" lon="03.791019"><ele>24.7</ele><time>2022-11-15T11:17:40Z</time><name>PT3156</name></trkpt>
<trkpt lat="51.550885" lon="03.791036"><ele>24.7</ele><time>2022-11-15T11:17:41Z</time><name>PT3157</name></trkpt>
<trkpt lat="51.550877" lon="03.791052"><ele>24.7</ele><time>2022-11-15T11:17:42Z</time><name>PT3158</name></trkpt>
<trkpt lat="51.550872" lon="03.791069"><ele>24.7</ele><time>2022-11-15T11:17:43Z</time><name>PT3159</name></trkpt>
<trkpt lat="51.550869" lon="03.791089"><ele>24.8</ele><time>2022-11-15T11:17:44Z</time><name>PT3160</name></trkpt>
<trkpt lat="51.550866" lon="03.791106"><ele>24.7</ele><time>2022-11-15T11:17:45Z</time><name>PT3161</name></trkpt>
<trkpt lat="51.550862" lon="03.791119"><ele>24.8</ele><time>2022-11-15T11:17:46Z</time><name>PT3162</name></trkpt>
<trkpt lat="51.550858" lon="03.791129"><ele>24.6</ele><time>2022-11-15T11:17:47Z</time><name>PT3163</name></trkpt>
<trkpt lat="51.550855" lon="03.791135"><ele>24.5</ele><time>2022-11-15T11:17:48Z</time><name>PT3164</name></trkpt>
<trkpt lat="51.550851" lon="03.791146"><ele>24.6</ele><time>2022-11-15T11:17:49Z</time><name>PT3165</name></trkpt>
<trkpt lat="51.550848" lon="03.791156"><ele>24.7</ele><time>2022-11-15T11:17:50Z</time><name>PT3166</name></trkpt>
<trkpt lat="51.550844" lon="03.791176"><ele>25</ele><time>2022-11-15T11:17:51Z</time><name>PT3167</name></trkpt>
<trkpt lat="51.550837" lon="03.791185"><ele>25.2</ele><time>2022-11-15T11:17:52Z</time><name>PT3168</name></trkpt>
<trkpt lat="51.550831" lon="03.791198"><ele>25.3</ele><time>2022-11-15T11:17:53Z</time><name>PT3169</name></trkpt>
<trkpt lat="51.550824" lon="03.791208"><ele>25.2</ele><time>2022-11-15T11:17:54Z</time><name>PT3170</name></trkpt>
<trkpt lat="51.550818" lon="03.791220"><ele>25.2</ele><time>2022-11-15T11:17:55Z</time><name>PT3171</name></trkpt>
<trkpt lat="51.550812" lon="03.791230"><ele>25.1</ele><time>2022-11-15T11:17:56Z</time><name>PT3172</name></trkpt>
<trkpt lat="51.550805" lon="03.791241"><ele>24.9</ele><time>2022-11-15T11:17:57Z</time><name>PT3173</name></trkpt>
<trkpt lat="51.550798" lon="03.791249"><ele>24.8</ele><time>2022-11-15T11:17:58Z</time><name>PT3174</name></trkpt>
<trkpt lat="51.550791" lon="03.791252"><ele>24.7</ele><time>2022-11-15T11:17:59Z</time><name>PT3175</name></trkpt>
<trkpt lat="51.550785" lon="03.791258"><ele>24.7</ele><time>2022-11-15T11:18:00Z</time><name>PT3176</name></trkpt>
<trkpt lat="51.550777" lon="03.791263"><ele>24.6</ele><time>2022-11-15T11:18:01Z</time><name>PT3177</name></trkpt>
<trkpt lat="51.550772" lon="03.791270"><ele>24.4</ele><time>2022-11-15T11:18:02Z</time><name>PT3178</name></trkpt>
<trkpt lat="51.550767" lon="03.791276"><ele>24.5</ele><time>2022-11-15T11:18:03Z</time><name>PT3179</name></trkpt>
<trkpt lat="51.550760" lon="03.791286"><ele>24.6</ele><time>2022-11-15T11:18:04Z</time><name>PT3180</name></trkpt>
<trkpt lat="51.550756" lon="03.791295"><ele>24.6</ele><time>2022-11-15T11:18:05Z</time><name>PT3181</name></trkpt>
<trkpt lat="51.550749" lon="03.791306"><ele>24.7</ele><time>2022-11-15T11:18:06Z</time><name>PT3182</name></trkpt>
<trkpt lat="51.550742" lon="03.791324"><ele>24.7</ele><time>2022-11-15T11:18:07Z</time><name>PT3183</name></trkpt>
<trkpt lat="51.550736" lon="03.791336"><ele>24.4</ele><time>2022-11-15T11:18:08Z</time><name>PT3184</name></trkpt>
<trkpt lat="51.550730" lon="03.791348"><ele>24.4</ele><time>2022-11-15T11:18:09Z</time><name>PT3185</name></trkpt>
<trkpt lat="51.550724" lon="03.791363"><ele>24.2</ele><time>2022-11-15T11:18:10Z</time><name>PT3186</name></trkpt>
<trkpt lat="51.550716" lon="03.791382"><ele>24.2</ele><time>2022-11-15T11:18:11Z</time><name>PT3187</name></trkpt>
<trkpt lat="51.550712" lon="03.791394"><ele>24.3</ele><time>2022-11-15T11:18:12Z</time><name>PT3188</name></trkpt>
<trkpt lat="51.550706" lon="03.791410"><ele>24.4</ele><time>2022-11-15T11:18:13Z</time><name>PT3189</name></trkpt>
<trkpt lat="51.550698" lon="03.791422"><ele>24.6</ele><time>2022-11-15T11:18:14Z</time><name>PT3190</name></trkpt>
<trkpt lat="51.550691" lon="03.791435"><ele>24.7</ele><time>2022-11-15T11:18:15Z</time><name>PT3191</name></trkpt>
<trkpt lat="51.550684" lon="03.791450"><ele>24.6</ele><time>2022-11-15T11:18:16Z</time><name>PT3192</name></trkpt>
<trkpt lat="51.550678" lon="03.791467"><ele>24.7</ele><time>2022-11-15T11:18:17Z</time><name>PT3193</name></trkpt>
<trkpt lat="51.550673" lon="03.791480"><ele>24.7</ele><time>2022-11-15T11:18:18Z</time><name>PT3194</name></trkpt>
<trkpt lat="51.550670" lon="03.791489"><ele>24.5</ele><time>2022-11-15T11:18:19Z</time><name>PT3195</name></trkpt>
<trkpt lat="51.550663" lon="03.791500"><ele>24.2</ele><time>2022-11-15T11:18:20Z</time><name>PT3196</name></trkpt>
<trkpt lat="51.550657" lon="03.791508"><ele>24.4</ele><time>2022-11-15T11:18:21Z</time><name>PT3197</name></trkpt>
<trkpt lat="51.550651" lon="03.791519"><ele>24.4</ele><time>2022-11-15T11:18:22Z</time><name>PT3198</name></trkpt>
<trkpt lat="51.550645" lon="03.791530"><ele>24.3</ele><time>2022-11-15T11:18:23Z</time><name>PT3199</name></trkpt>
<trkpt lat="51.550636" lon="03.791543"><ele>24.5</ele><time>2022-11-15T11:18:24Z</time><name>PT3200</name></trkpt>
<trkpt lat="51.550626" lon="03.791553"><ele>24.4</ele><time>2022-11-15T11:18:25Z</time><name>PT3201</name></trkpt>
<trkpt lat="51.550620" lon="03.791560"><ele>24.6</ele><time>2022-11-15T11:18:26Z</time><name>PT3202</name></trkpt>
<trkpt lat="51.550611" lon="03.791568"><ele>24.6</ele><time>2022-11-15T11:18:27Z</time><name>PT3203</name></trkpt>
<trkpt lat="51.550605" lon="03.791571"><ele>24.5</ele><time>2022-11-15T11:18:28Z</time><name>PT3204</name></trkpt>
<trkpt lat="51.550600" lon="03.791576"><ele>24.7</ele><time>2022-11-15T11:18:29Z</time><name>PT3205</name></trkpt>
<trkpt lat="51.550596" lon="03.791580"><ele>24.7</ele><time>2022-11-15T11:18:30Z</time><name>PT3206</name></trkpt>
<trkpt lat="51.550584" lon="03.791596"><ele>24.7</ele><time>2022-11-15T11:18:46Z</time><name>PT3207</name></trkpt>
<trkpt lat="51.550579" lon="03.791606"><ele>24.6</ele><time>2022-11-15T11:18:47Z</time><name>PT3208</name></trkpt>
<trkpt lat="51.550569" lon="03.791630"><ele>24.7</ele><time>2022-11-15T11:18:48Z</time><name>PT3209</name></trkpt>
<trkpt lat="51.550562" lon="03.791650"><ele>24.7</ele><time>2022-11-15T11:18:49Z</time><name>PT3210</name></trkpt>
<trkpt lat="51.550554" lon="03.791668"><ele>24.7</ele><time>2022-11-15T11:18:50Z</time><name>PT3211</name></trkpt>
<trkpt lat="51.550546" lon="03.791688"><ele>24.7</ele><time>2022-11-15T11:18:51Z</time><name>PT3212</name></trkpt>
<trkpt lat="51.550537" lon="03.791706"><ele>24.8</ele><time>2022-11-15T11:18:52Z</time><name>PT3213</name></trkpt>
<trkpt lat="51.550530" lon="03.791717"><ele>24.8</ele><time>2022-11-15T11:18:53Z</time><name>PT3214</name></trkpt>
<trkpt lat="51.550525" lon="03.791734"><ele>24.8</ele><time>2022-11-15T11:18:54Z</time><name>PT3215</name></trkpt>
<trkpt lat="51.550521" lon="03.791749"><ele>25.1</ele><time>2022-11-15T11:18:55Z</time><name>PT3216</name></trkpt>
<trkpt lat="51.550518" lon="03.791758"><ele>25</ele><time>2022-11-15T11:18:56Z</time><name>PT3217</name></trkpt>
<trkpt lat="51.550516" lon="03.791767"><ele>24.8</ele><time>2022-11-15T11:18:57Z</time><name>PT3218</name></trkpt>
<trkpt lat="51.550510" lon="03.791780"><ele>25</ele><time>2022-11-15T11:18:58Z</time><name>PT3219</name></trkpt>
<trkpt lat="51.550507" lon="03.791786"><ele>24.8</ele><time>2022-11-15T11:18:59Z</time><name>PT3220</name></trkpt>
<trkpt lat="51.550505" lon="03.791802"><ele>24.9</ele><time>2022-11-15T11:19:00Z</time><name>PT3221</name></trkpt>
<trkpt lat="51.550506" lon="03.791823"><ele>25</ele><time>2022-11-15T11:19:10Z</time><name>PT3222</name></trkpt>
<trkpt lat="51.550504" lon="03.791846"><ele>25.1</ele><time>2022-11-15T11:19:11Z</time><name>PT3223</name></trkpt>
<trkpt lat="51.550501" lon="03.791866"><ele>25.2</ele><time>2022-11-15T11:19:12Z</time><name>PT3224</name></trkpt>
<trkpt lat="51.550500" lon="03.791889"><ele>25.2</ele><time>2022-11-15T11:19:13Z</time><name>PT3225</name></trkpt>
<trkpt lat="51.550495" lon="03.791916"><ele>25.2</ele><time>2022-11-15T11:19:14Z</time><name>PT3226</name></trkpt>
<trkpt lat="51.550492" lon="03.791933"><ele>25.3</ele><time>2022-11-15T11:19:15Z</time><name>PT3227</name></trkpt>
<trkpt lat="51.550488" lon="03.791955"><ele>25.2</ele><time>2022-11-15T11:19:16Z</time><name>PT3228</name></trkpt>
<trkpt lat="51.550484" lon="03.791977"><ele>25.1</ele><time>2022-11-15T11:19:17Z</time><name>PT3229</name></trkpt>
<trkpt lat="51.550478" lon="03.791998"><ele>25</ele><time>2022-11-15T11:19:18Z</time><name>PT3230</name></trkpt>
<trkpt lat="51.550475" lon="03.792017"><ele>25</ele><time>2022-11-15T11:19:19Z</time><name>PT3231</name></trkpt>
<trkpt lat="51.550473" lon="03.792029"><ele>25.1</ele><time>2022-11-15T11:19:20Z</time><name>PT3232</name></trkpt>
<trkpt lat="51.550470" lon="03.792044"><ele>25.2</ele><time>2022-11-15T11:19:21Z</time><name>PT3233</name></trkpt>
<trkpt lat="51.550468" lon="03.792060"><ele>25.2</ele><time>2022-11-15T11:19:22Z</time><name>PT3234</name></trkpt>
<trkpt lat="51.550463" lon="03.792073"><ele>25</ele><time>2022-11-15T11:19:23Z</time><name>PT3235</name></trkpt>
<trkpt lat="51.550458" lon="03.792084"><ele>25</ele><time>2022-11-15T11:19:24Z</time><name>PT3236</name></trkpt>
<trkpt lat="51.550453" lon="03.792096"><ele>24.9</ele><time>2022-11-15T11:19:25Z</time><name>PT3237</name></trkpt>
<trkpt lat="51.550448" lon="03.792113"><ele>25</ele><time>2022-11-15T11:19:26Z</time><name>PT3238</name></trkpt>
<trkpt lat="51.550445" lon="03.792131"><ele>24.9</ele><time>2022-11-15T11:19:27Z</time><name>PT3239</name></trkpt>
<trkpt lat="51.550441" lon="03.792150"><ele>25.1</ele><time>2022-11-15T11:19:28Z</time><name>PT3240</name></trkpt>
<trkpt lat="51.550441" lon="03.792166"><ele>24.8</ele><time>2022-11-15T11:19:29Z</time><name>PT3241</name></trkpt>
<trkpt lat="51.550438" lon="03.792183"><ele>24.8</ele><time>2022-11-15T11:19:30Z</time><name>PT3242</name></trkpt>
<trkpt lat="51.550434" lon="03.792203"><ele>24.8</ele><time>2022-11-15T11:19:31Z</time><name>PT3243</name></trkpt>
<trkpt lat="51.550430" lon="03.792229"><ele>24.8</ele><time>2022-11-15T11:19:32Z</time><name>PT3244</name></trkpt>
<trkpt lat="51.550430" lon="03.792247"><ele>24.8</ele><time>2022-11-15T11:19:33Z</time><name>PT3245</name></trkpt>
<trkpt lat="51.550431" lon="03.792264"><ele>24.8</ele><time>2022-11-15T11:19:34Z</time><name>PT3246</name></trkpt>
<trkpt lat="51.550433" lon="03.792284"><ele>24.8</ele><time>2022-11-15T11:19:35Z</time><name>PT3247</name></trkpt>
<trkpt lat="51.550435" lon="03.792302"><ele>24.7</ele><time>2022-11-15T11:19:36Z</time><name>PT3248</name></trkpt>
<trkpt lat="51.550438" lon="03.792320"><ele>24.7</ele><time>2022-11-15T11:19:37Z</time><name>PT3249</name></trkpt>
<trkpt lat="51.550441" lon="03.792337"><ele>24.5</ele><time>2022-11-15T11:19:38Z</time><name>PT3250</name></trkpt>
<trkpt lat="51.550447" lon="03.792352"><ele>24.6</ele><time>2022-11-15T11:19:39Z</time><name>PT3251</name></trkpt>
<trkpt lat="51.550453" lon="03.792362"><ele>24.5</ele><time>2022-11-15T11:19:40Z</time><name>PT3252</name></trkpt>
<trkpt lat="51.550458" lon="03.792375"><ele>24.5</ele><time>2022-11-15T11:19:41Z</time><name>PT3253</name></trkpt>
<trkpt lat="51.550464" lon="03.792387"><ele>24.6</ele><time>2022-11-15T11:19:42Z</time><name>PT3254</name></trkpt>
<trkpt lat="51.550468" lon="03.792397"><ele>24.7</ele><time>2022-11-15T11:19:43Z</time><name>PT3255</name></trkpt>
<trkpt lat="51.550474" lon="03.792408"><ele>24.8</ele><time>2022-11-15T11:19:44Z</time><name>PT3256</name></trkpt>
<trkpt lat="51.550478" lon="03.792419"><ele>25</ele><time>2022-11-15T11:19:45Z</time><name>PT3257</name></trkpt>
<trkpt lat="51.550482" lon="03.792429"><ele>25.2</ele><time>2022-11-15T11:19:46Z</time><name>PT3258</name></trkpt>
<trkpt lat="51.550487" lon="03.792443"><ele>25.1</ele><time>2022-11-15T11:19:47Z</time><name>PT3259</name></trkpt>
<trkpt lat="51.550494" lon="03.792452"><ele>25</ele><time>2022-11-15T11:19:48Z</time><name>PT3260</name></trkpt>
<trkpt lat="51.550499" lon="03.792476"><ele>25.2</ele><time>2022-11-15T11:19:49Z</time><name>PT3261</name></trkpt>
<trkpt lat="51.550501" lon="03.792492"><ele>25.1</ele><time>2022-11-15T11:19:50Z</time><name>PT3262</name></trkpt>
<trkpt lat="51.550505" lon="03.792503"><ele>25.1</ele><time>2022-11-15T11:19:51Z</time><name>PT3263</name></trkpt>
<trkpt lat="51.550511" lon="03.792518"><ele>25.1</ele><time>2022-11-15T11:19:52Z</time><name>PT3264</name></trkpt>
<trkpt lat="51.550512" lon="03.792528"><ele>25.1</ele><time>2022-11-15T11:19:53Z</time><name>PT3265</name></trkpt>
<trkpt lat="51.550511" lon="03.792542"><ele>25.1</ele><time>2022-11-15T11:19:54Z</time><name>PT3266</name></trkpt>
<trkpt lat="51.550510" lon="03.792553"><ele>25.1</ele><time>2022-11-15T11:19:55Z</time><name>PT3267</name></trkpt>
<trkpt lat="51.550509" lon="03.792566"><ele>25.2</ele><time>2022-11-15T11:19:56Z</time><name>PT3268</name></trkpt>
<trkpt lat="51.550509" lon="03.792584"><ele>25.2</ele><time>2022-11-15T11:19:57Z</time><name>PT3269</name></trkpt>
<trkpt lat="51.550506" lon="03.792600"><ele>25.2</ele><time>2022-11-15T11:19:58Z</time><name>PT3270</name></trkpt>
<trkpt lat="51.550499" lon="03.792617"><ele>24.9</ele><time>2022-11-15T11:19:59Z</time><name>PT3271</name></trkpt>
<trkpt lat="51.550494" lon="03.792624"><ele>24.7</ele><time>2022-11-15T11:20:00Z</time><name>PT3272</name></trkpt>
<trkpt lat="51.550490" lon="03.792636"><ele>24.5</ele><time>2022-11-15T11:20:01Z</time><name>PT3273</name></trkpt>
<trkpt lat="51.550486" lon="03.792646"><ele>24.5</ele><time>2022-11-15T11:20:02Z</time><name>PT3274</name></trkpt>
<trkpt lat="51.550484" lon="03.792658"><ele>24.5</ele><time>2022-11-15T11:20:03Z</time><name>PT3275</name></trkpt>
<trkpt lat="51.550480" lon="03.792676"><ele>24.6</ele><time>2022-11-15T11:20:04Z</time><name>PT3276</name></trkpt>
<trkpt lat="51.550477" lon="03.792690"><ele>24.7</ele><time>2022-11-15T11:20:05Z</time><name>PT3277</name></trkpt>
<trkpt lat="51.550476" lon="03.792707"><ele>24.8</ele><time>2022-11-15T11:20:06Z</time><name>PT3278</name></trkpt>
<trkpt lat="51.550478" lon="03.792721"><ele>24.7</ele><time>2022-11-15T11:20:07Z</time><name>PT3279</name></trkpt>
<trkpt lat="51.550481" lon="03.792737"><ele>24.7</ele><time>2022-11-15T11:20:08Z</time><name>PT3280</name></trkpt>
<trkpt lat="51.550481" lon="03.792754"><ele>24.6</ele><time>2022-11-15T11:20:09Z</time><name>PT3281</name></trkpt>
<trkpt lat="51.550482" lon="03.792770"><ele>24.6</ele><time>2022-11-15T11:20:10Z</time><name>PT3282</name></trkpt>
<trkpt lat="51.550481" lon="03.792787"><ele>24.7</ele><time>2022-11-15T11:20:11Z</time><name>PT3283</name></trkpt>
<trkpt lat="51.550480" lon="03.792801"><ele>24.8</ele><time>2022-11-15T11:20:12Z</time><name>PT3284</name></trkpt>
<trkpt lat="51.550479" lon="03.792822"><ele>24.8</ele><time>2022-11-15T11:20:13Z</time><name>PT3285</name></trkpt>
<trkpt lat="51.550477" lon="03.792837"><ele>24.7</ele><time>2022-11-15T11:20:14Z</time><name>PT3286</name></trkpt>
<trkpt lat="51.550476" lon="03.792849"><ele>24.7</ele><time>2022-11-15T11:20:15Z</time><name>PT3287</name></trkpt>
<trkpt lat="51.550474" lon="03.792863"><ele>24.8</ele><time>2022-11-15T11:20:16Z</time><name>PT3288</name></trkpt>
<trkpt lat="51.550471" lon="03.792873"><ele>24.9</ele><time>2022-11-15T11:20:17Z</time><name>PT3289</name></trkpt>
<trkpt lat="51.550471" lon="03.792887"><ele>25.1</ele><time>2022-11-15T11:20:18Z</time><name>PT3290</name></trkpt>
<trkpt lat="51.550469" lon="03.792900"><ele>25.1</ele><time>2022-11-15T11:20:19Z</time><name>PT3291</name></trkpt>
<trkpt lat="51.550467" lon="03.792912"><ele>24.9</ele><time>2022-11-15T11:20:20Z</time><name>PT3292</name></trkpt>
<trkpt lat="51.550464" lon="03.792922"><ele>25</ele><time>2022-11-15T11:20:21Z</time><name>PT3293</name></trkpt>
<trkpt lat="51.550463" lon="03.792937"><ele>24.9</ele><time>2022-11-15T11:20:22Z</time><name>PT3294</name></trkpt>
<trkpt lat="51.550463" lon="03.792949"><ele>24.8</ele><time>2022-11-15T11:20:23Z</time><name>PT3295</name></trkpt>
<trkpt lat="51.550461" lon="03.792964"><ele>24.8</ele><time>2022-11-15T11:20:24Z</time><name>PT3296</name></trkpt>
<trkpt lat="51.550461" lon="03.792973"><ele>24.9</ele><time>2022-11-15T11:20:25Z</time><name>PT3297</name></trkpt>
<trkpt lat="51.550457" lon="03.792990"><ele>24.9</ele><time>2022-11-15T11:20:26Z</time><name>PT3298</name></trkpt>
<trkpt lat="51.550455" lon="03.793000"><ele>24.9</ele><time>2022-11-15T11:20:27Z</time><name>PT3299</name></trkpt>
<trkpt lat="51.550453" lon="03.793012"><ele>25</ele><time>2022-11-15T11:20:28Z</time><name>PT3300</name></trkpt>
<trkpt lat="51.550449" lon="03.793023"><ele>25.1</ele><time>2022-11-15T11:20:29Z</time><name>PT3301</name></trkpt>
<trkpt lat="51.550446" lon="03.793032"><ele>25.1</ele><time>2022-11-15T11:20:30Z</time><name>PT3302</name></trkpt>
<trkpt lat="51.550444" lon="03.793043"><ele>25.3</ele><time>2022-11-15T11:20:31Z</time><name>PT3303</name></trkpt>
<trkpt lat="51.550443" lon="03.793051"><ele>25.4</ele><time>2022-11-15T11:20:32Z</time><name>PT3304</name></trkpt>
<trkpt lat="51.550442" lon="03.793056"><ele>25.3</ele><time>2022-11-15T11:20:33Z</time><name>PT3305</name></trkpt>
<trkpt lat="51.550440" lon="03.793064"><ele>25.2</ele><time>2022-11-15T11:20:34Z</time><name>PT3306</name></trkpt>
<trkpt lat="51.550440" lon="03.793072"><ele>25.2</ele><time>2022-11-15T11:20:35Z</time><name>PT3307</name></trkpt>
<trkpt lat="51.550441" lon="03.793082"><ele>25</ele><time>2022-11-15T11:20:51Z</time><name>PT3308</name></trkpt>
<trkpt lat="51.550443" lon="03.793093"><ele>24.9</ele><time>2022-11-15T11:20:52Z</time><name>PT3309</name></trkpt>
<trkpt lat="51.550440" lon="03.793109"><ele>25</ele><time>2022-11-15T11:20:53Z</time><name>PT3310</name></trkpt>
<trkpt lat="51.550437" lon="03.793130"><ele>25</ele><time>2022-11-15T11:20:54Z</time><name>PT3311</name></trkpt>
<trkpt lat="51.550434" lon="03.793146"><ele>24.9</ele><time>2022-11-15T11:20:55Z</time><name>PT3312</name></trkpt>
<trkpt lat="51.550430" lon="03.793162"><ele>25.1</ele><time>2022-11-15T11:20:56Z</time><name>PT3313</name></trkpt>
<trkpt lat="51.550426" lon="03.793176"><ele>25</ele><time>2022-11-15T11:20:57Z</time><name>PT3314</name></trkpt>
<trkpt lat="51.550422" lon="03.793184"><ele>25.2</ele><time>2022-11-15T11:20:58Z</time><name>PT3315</name></trkpt>
<trkpt lat="51.550420" lon="03.793192"><ele>25.2</ele><time>2022-11-15T11:20:59Z</time><name>PT3316</name></trkpt>
<trkpt lat="51.550418" lon="03.793203"><ele>25</ele><time>2022-11-15T11:21:19Z</time><name>PT3317</name></trkpt>
<trkpt lat="51.550411" lon="03.793214"><ele>25.1</ele><time>2022-11-15T11:21:20Z</time><name>PT3318</name></trkpt>
<trkpt lat="51.550406" lon="03.793226"><ele>25.2</ele><time>2022-11-15T11:21:21Z</time><name>PT3319</name></trkpt>
<trkpt lat="51.550399" lon="03.793240"><ele>25.2</ele><time>2022-11-15T11:21:22Z</time><name>PT3320</name></trkpt>
<trkpt lat="51.550396" lon="03.793261"><ele>25.2</ele><time>2022-11-15T11:21:24Z</time><name>PT3321</name></trkpt>
<trkpt lat="51.550389" lon="03.793282"><ele>25.3</ele><time>2022-11-15T11:21:25Z</time><name>PT3322</name></trkpt>
<trkpt lat="51.550378" lon="03.793304"><ele>25.4</ele><time>2022-11-15T11:21:26Z</time><name>PT3323</name></trkpt>
<trkpt lat="51.550370" lon="03.793322"><ele>25.3</ele><time>2022-11-15T11:21:27Z</time><name>PT3324</name></trkpt>
<trkpt lat="51.550361" lon="03.793342"><ele>25.4</ele><time>2022-11-15T11:21:28Z</time><name>PT3325</name></trkpt>
<trkpt lat="51.550348" lon="03.793360"><ele>25.4</ele><time>2022-11-15T11:21:29Z</time><name>PT3326</name></trkpt>
<trkpt lat="51.550343" lon="03.793370"><ele>25.2</ele><time>2022-11-15T11:21:30Z</time><name>PT3327</name></trkpt>
<trkpt lat="51.550339" lon="03.793380"><ele>25.2</ele><time>2022-11-15T11:21:31Z</time><name>PT3328</name></trkpt>
<trkpt lat="51.550336" lon="03.793388"><ele>25.3</ele><time>2022-11-15T11:21:32Z</time><name>PT3329</name></trkpt>
<trkpt lat="51.550332" lon="03.793396"><ele>25.2</ele><time>2022-11-15T11:21:33Z</time><name>PT3330</name></trkpt>
<trkpt lat="51.550319" lon="03.793411"><ele>25.3</ele><time>2022-11-15T11:21:34Z</time><name>PT3331</name></trkpt>
<trkpt lat="51.550308" lon="03.793427"><ele>25.3</ele><time>2022-11-15T11:21:35Z</time><name>PT3332</name></trkpt>
<trkpt lat="51.550302" lon="03.793438"><ele>25.4</ele><time>2022-11-15T11:21:36Z</time><name>PT3333</name></trkpt>
<trkpt lat="51.550296" lon="03.793453"><ele>25.3</ele><time>2022-11-15T11:21:37Z</time><name>PT3334</name></trkpt>
<trkpt lat="51.550290" lon="03.793468"><ele>25.3</ele><time>2022-11-15T11:21:38Z</time><name>PT3335</name></trkpt>
<trkpt lat="51.550288" lon="03.793482"><ele>25.3</ele><time>2022-11-15T11:21:39Z</time><name>PT3336</name></trkpt>
<trkpt lat="51.550286" lon="03.793493"><ele>25.3</ele><time>2022-11-15T11:21:40Z</time><name>PT3337</name></trkpt>
<trkpt lat="51.550284" lon="03.793501"><ele>25.2</ele><time>2022-11-15T11:21:41Z</time><name>PT3338</name></trkpt>
<trkpt lat="51.550281" lon="03.793511"><ele>25.2</ele><time>2022-11-15T11:21:42Z</time><name>PT3339</name></trkpt>
<trkpt lat="51.550277" lon="03.793530"><ele>25.2</ele><time>2022-11-15T11:21:44Z</time><name>PT3340</name></trkpt>
<trkpt lat="51.550277" lon="03.793550"><ele>25.2</ele><time>2022-11-15T11:21:45Z</time><name>PT3341</name></trkpt>
<trkpt lat="51.550272" lon="03.793582"><ele>25</ele><time>2022-11-15T11:21:46Z</time><name>PT3342</name></trkpt>
<trkpt lat="51.550269" lon="03.793619"><ele>25</ele><time>2022-11-15T11:21:47Z</time><name>PT3343</name></trkpt>
<trkpt lat="51.550262" lon="03.793648"><ele>24.9</ele><time>2022-11-15T11:21:48Z</time><name>PT3344</name></trkpt>
<trkpt lat="51.550257" lon="03.793665"><ele>24.8</ele><time>2022-11-15T11:21:49Z</time><name>PT3345</name></trkpt>
<trkpt lat="51.550253" lon="03.793674"><ele>24.8</ele><time>2022-11-15T11:21:50Z</time><name>PT3346</name></trkpt>
<trkpt lat="51.550249" lon="03.793683"><ele>24.9</ele><time>2022-11-15T11:21:51Z</time><name>PT3347</name></trkpt>
<trkpt lat="51.550247" lon="03.793692"><ele>25</ele><time>2022-11-15T11:21:52Z</time><name>PT3348</name></trkpt>
<trkpt lat="51.550241" lon="03.793703"><ele>24.8</ele><time>2022-11-15T11:21:53Z</time><name>PT3349</name></trkpt>
<trkpt lat="51.550232" lon="03.793719"><ele>25.1</ele><time>2022-11-15T11:21:54Z</time><name>PT3350</name></trkpt>
<trkpt lat="51.550223" lon="03.793734"><ele>25</ele><time>2022-11-15T11:21:55Z</time><name>PT3351</name></trkpt>
<trkpt lat="51.550221" lon="03.793738"><ele>24.9</ele><time>2022-11-15T11:21:56Z</time><name>PT3352</name></trkpt>
<trkpt lat="51.550220" lon="03.793742"><ele>24.8</ele><time>2022-11-15T11:21:57Z</time><name>PT3353</name></trkpt>
<trkpt lat="51.550214" lon="03.793749"><ele>24.9</ele><time>2022-11-15T11:21:58Z</time><name>PT3354</name></trkpt>
<trkpt lat="51.550207" lon="03.793757"><ele>24.9</ele><time>2022-11-15T11:22:00Z</time><name>PT3355</name></trkpt>
<trkpt lat="51.550198" lon="03.793784"><ele>24.9</ele><time>2022-11-15T11:22:01Z</time><name>PT3356</name></trkpt>
<trkpt lat="51.550192" lon="03.793797"><ele>24.8</ele><time>2022-11-15T11:22:02Z</time><name>PT3357</name></trkpt>
<trkpt lat="51.550192" lon="03.793803"><ele>24.8</ele><time>2022-11-15T11:22:03Z</time><name>PT3358</name></trkpt>
<trkpt lat="51.550189" lon="03.793811"><ele>24.9</ele><time>2022-11-15T11:22:04Z</time><name>PT3359</name></trkpt>
<trkpt lat="51.550181" lon="03.793822"><ele>25</ele><time>2022-11-15T11:22:05Z</time><name>PT3360</name></trkpt>
<trkpt lat="51.550169" lon="03.793843"><ele>25.2</ele><time>2022-11-15T11:22:06Z</time><name>PT3361</name></trkpt>
<trkpt lat="51.550157" lon="03.793864"><ele>25.2</ele><time>2022-11-15T11:22:07Z</time><name>PT3362</name></trkpt>
<trkpt lat="51.550150" lon="03.793875"><ele>25.3</ele><time>2022-11-15T11:22:08Z</time><name>PT3363</name></trkpt>
<trkpt lat="51.550147" lon="03.793882"><ele>25.3</ele><time>2022-11-15T11:22:09Z</time><name>PT3364</name></trkpt>
<trkpt lat="51.550142" lon="03.793891"><ele>25.3</ele><time>2022-11-15T11:22:10Z</time><name>PT3365</name></trkpt>
<trkpt lat="51.550133" lon="03.793900"><ele>25.4</ele><time>2022-11-15T11:22:11Z</time><name>PT3366</name></trkpt>
<trkpt lat="51.550121" lon="03.793907"><ele>25.7</ele><time>2022-11-15T11:22:12Z</time><name>PT3367</name></trkpt>
<trkpt lat="51.550111" lon="03.793921"><ele>25.7</ele><time>2022-11-15T11:22:13Z</time><name>PT3368</name></trkpt>
<trkpt lat="51.550102" lon="03.793938"><ele>25.4</ele><time>2022-11-15T11:22:14Z</time><name>PT3369</name></trkpt>
<trkpt lat="51.550098" lon="03.793948"><ele>25.2</ele><time>2022-11-15T11:22:15Z</time><name>PT3370</name></trkpt>
<trkpt lat="51.550094" lon="03.793959"><ele>25.2</ele><time>2022-11-15T11:22:16Z</time><name>PT3371</name></trkpt>
<trkpt lat="51.550086" lon="03.793970"><ele>25</ele><time>2022-11-15T11:22:17Z</time><name>PT3372</name></trkpt>
<trkpt lat="51.550076" lon="03.793978"><ele>25.1</ele><time>2022-11-15T11:22:18Z</time><name>PT3373</name></trkpt>
<trkpt lat="51.550059" lon="03.794003"><ele>25.1</ele><time>2022-11-15T11:22:19Z</time><name>PT3374</name></trkpt>
<trkpt lat="51.550049" lon="03.794017"><ele>25.2</ele><time>2022-11-15T11:22:20Z</time><name>PT3375</name></trkpt>
<trkpt lat="51.550043" lon="03.794030"><ele>25.2</ele><time>2022-11-15T11:22:21Z</time><name>PT3376</name></trkpt>
<trkpt lat="51.550038" lon="03.794045"><ele>25.2</ele><time>2022-11-15T11:22:22Z</time><name>PT3377</name></trkpt>
<trkpt lat="51.550031" lon="03.794054"><ele>24.9</ele><time>2022-11-15T11:22:23Z</time><name>PT3378</name></trkpt>
<trkpt lat="51.550023" lon="03.794067"><ele>25</ele><time>2022-11-15T11:22:24Z</time><name>PT3379</name></trkpt>
<trkpt lat="51.550025" lon="03.794078"><ele>24.7</ele><time>2022-11-15T11:22:27Z</time><name>PT3380</name></trkpt>
<trkpt lat="51.550023" lon="03.794103"><ele>24.6</ele><time>2022-11-15T11:22:28Z</time><name>PT3381</name></trkpt>
<trkpt lat="51.550021" lon="03.794118"><ele>24.4</ele><time>2022-11-15T11:22:29Z</time><name>PT3382</name></trkpt>
<trkpt lat="51.550016" lon="03.794132"><ele>24.4</ele><time>2022-11-15T11:22:30Z</time><name>PT3383</name></trkpt>
<trkpt lat="51.550007" lon="03.794152"><ele>24.3</ele><time>2022-11-15T11:22:31Z</time><name>PT3384</name></trkpt>
<trkpt lat="51.550002" lon="03.794159"><ele>24.3</ele><time>2022-11-15T11:22:32Z</time><name>PT3385</name></trkpt>
<trkpt lat="51.549999" lon="03.794159"><ele>24.2</ele><time>2022-11-15T11:22:33Z</time><name>PT3386</name></trkpt>
<trkpt lat="51.549998" lon="03.794171"><ele>24.2</ele><time>2022-11-15T11:22:34Z</time><name>PT3387</name></trkpt>
<trkpt lat="51.549988" lon="03.794189"><ele>24.2</ele><time>2022-11-15T11:22:35Z</time><name>PT3388</name></trkpt>
<trkpt lat="51.549982" lon="03.794199"><ele>24.2</ele><time>2022-11-15T11:22:36Z</time><name>PT3389</name></trkpt>
<trkpt lat="51.549977" lon="03.794203"><ele>24.3</ele><time>2022-11-15T11:22:37Z</time><name>PT3390</name></trkpt>
<trkpt lat="51.549977" lon="03.794213"><ele>24.3</ele><time>2022-11-15T11:22:38Z</time><name>PT3391</name></trkpt>
<trkpt lat="51.549976" lon="03.794218"><ele>24.3</ele><time>2022-11-15T11:22:39Z</time><name>PT3392</name></trkpt>
<trkpt lat="51.549976" lon="03.794230"><ele>24.2</ele><time>2022-11-15T11:22:40Z</time><name>PT3393</name></trkpt>
<trkpt lat="51.549973" lon="03.794239"><ele>24.1</ele><time>2022-11-15T11:22:41Z</time><name>PT3394</name></trkpt>
<trkpt lat="51.549971" lon="03.794245"><ele>24.1</ele><time>2022-11-15T11:22:42Z</time><name>PT3395</name></trkpt>
<trkpt lat="51.549969" lon="03.794251"><ele>24.2</ele><time>2022-11-15T11:22:43Z</time><name>PT3396</name></trkpt>
<trkpt lat="51.549967" lon="03.794252"><ele>24.3</ele><time>2022-11-15T11:22:44Z</time><name>PT3397</name></trkpt>
<trkpt lat="51.549967" lon="03.794252"><ele>24.3</ele><time>2022-11-15T11:22:45Z</time><name>PT3398</name></trkpt>
<trkpt lat="51.549967" lon="03.794254"><ele>24.6</ele><time>2022-11-15T11:22:46Z</time><name>PT3399</name></trkpt>
<trkpt lat="51.549966" lon="03.794255"><ele>24.7</ele><time>2022-11-15T11:22:47Z</time><name>PT3400</name></trkpt>
<trkpt lat="51.549966" lon="03.794255"><ele>24.7</ele><time>2022-11-15T11:22:48Z</time><name>PT3401</name></trkpt>
<trkpt lat="51.549965" lon="03.794258"><ele>24.9</ele><time>2022-11-15T11:22:50Z</time><name>PT3402</name></trkpt>
<trkpt lat="51.549958" lon="03.794256"><ele>25</ele><time>2022-11-15T11:22:51Z</time><name>PT3403</name></trkpt>
<trkpt lat="51.549958" lon="03.794247"><ele>24.7</ele><time>2022-11-15T11:22:52Z</time><name>PT3404</name></trkpt>
<trkpt lat="51.549960" lon="03.794250"><ele>24.6</ele><time>2022-11-15T11:22:53Z</time><name>PT3405</name></trkpt>
<trkpt lat="51.549962" lon="03.794259"><ele>24.5</ele><time>2022-11-15T11:22:54Z</time><name>PT3406</name></trkpt>
<trkpt lat="51.549960" lon="03.794265"><ele>24.4</ele><time>2022-11-15T11:22:55Z</time><name>PT3407</name></trkpt>
<trkpt lat="51.549960" lon="03.794263"><ele>24.3</ele><time>2022-11-15T11:22:56Z</time><name>PT3408</name></trkpt>
<trkpt lat="51.549960" lon="03.794263"><ele>24.5</ele><time>2022-11-15T11:22:57Z</time><name>PT3409</name></trkpt>
<trkpt lat="51.549959" lon="03.794263"><ele>24.7</ele><time>2022-11-15T11:22:58Z</time><name>PT3410</name></trkpt>
<trkpt lat="51.549956" lon="03.794265"><ele>24.9</ele><time>2022-11-15T11:23:06Z</time><name>PT3411</name></trkpt>
<trkpt lat="51.549958" lon="03.794270"><ele>24.9</ele><time>2022-11-15T11:23:07Z</time><name>PT3412</name></trkpt>
<trkpt lat="51.549961" lon="03.794275"><ele>24.7</ele><time>2022-11-15T11:23:08Z</time><name>PT3413</name></trkpt>
<trkpt lat="51.549966" lon="03.794276"><ele>24.7</ele><time>2022-11-15T11:23:09Z</time><name>PT3414</name></trkpt>
<trkpt lat="51.549963" lon="03.794278"><ele>24.7</ele><time>2022-11-15T11:23:13Z</time><name>PT3415</name></trkpt>
<trkpt lat="51.549960" lon="03.794280"><ele>24.5</ele><time>2022-11-15T11:23:14Z</time><name>PT3416</name></trkpt>
<trkpt lat="51.549955" lon="03.794274"><ele>24.6</ele><time>2022-11-15T11:23:15Z</time><name>PT3417</name></trkpt>
<trkpt lat="51.549952" lon="03.794269"><ele>24.7</ele><time>2022-11-15T11:23:16Z</time><name>PT3418</name></trkpt>
<trkpt lat="51.549950" lon="03.794264"><ele>24.7</ele><time>2022-11-15T11:23:17Z</time><name>PT3419</name></trkpt>
<trkpt lat="51.549951" lon="03.794262"><ele>24.7</ele><time>2022-11-15T11:23:18Z</time><name>PT3420</name></trkpt>
<trkpt lat="51.549951" lon="03.794261"><ele>24.7</ele><time>2022-11-15T11:23:19Z</time><name>PT3421</name></trkpt>
<trkpt lat="51.549949" lon="03.794261"><ele>24.7</ele><time>2022-11-15T11:23:23Z</time><name>PT3422</name></trkpt>
<trkpt lat="51.549949" lon="03.794272"><ele>24.7</ele><time>2022-11-15T11:23:24Z</time><name>PT3423</name></trkpt>
<trkpt lat="51.549946" lon="03.794275"><ele>24.9</ele><time>2022-11-15T11:23:56Z</time><name>PT3424</name></trkpt>
<trkpt lat="51.549945" lon="03.794275"><ele>25.1</ele><time>2022-11-15T11:23:57Z</time><name>PT3425</name></trkpt>
<trkpt lat="51.549943" lon="03.794277"><ele>25.2</ele><time>2022-11-15T11:23:58Z</time><name>PT3426</name></trkpt>
<trkpt lat="51.549944" lon="03.794278"><ele>25.2</ele><time>2022-11-15T11:23:59Z</time><name>PT3427</name></trkpt>
<trkpt lat="51.549111" lon="03.801797"><ele>29.2</ele><time>2022-11-15T11:45:43Z</time><name>PT3428</name></trkpt>
<trkpt lat="51.549110" lon="03.801799"><ele>29.4</ele><time>2022-11-15T11:45:51Z</time><name>PT3429</name></trkpt>
<trkpt lat="51.549112" lon="03.801799"><ele>29.3</ele><time>2022-11-15T11:45:52Z</time><name>PT3430</name></trkpt>
<trkpt lat="51.549113" lon="03.801799"><ele>29.4</ele><time>2022-11-15T11:45:57Z</time><name>PT3431</name></trkpt>
<trkpt lat="51.549123" lon="03.801797"><ele>29.3</ele><time>2022-11-15T11:45:58Z</time><name>PT3432</name></trkpt>
<trkpt lat="51.549130" lon="03.801797"><ele>29.3</ele><time>2022-11-15T11:45:59Z</time><name>PT3433</name></trkpt>
<trkpt lat="51.549138" lon="03.801792"><ele>29.3</ele><time>2022-11-15T11:46:00Z</time><name>PT3434</name></trkpt>
<trkpt lat="51.549149" lon="03.801787"><ele>29.3</ele><time>2022-11-15T11:46:01Z</time><name>PT3435</name></trkpt>
<trkpt lat="51.549160" lon="03.801779"><ele>29.1</ele><time>2022-11-15T11:46:02Z</time><name>PT3436</name></trkpt>
<trkpt lat="51.549170" lon="03.801770"><ele>28.9</ele><time>2022-11-15T11:46:03Z</time><name>PT3437</name></trkpt>
<trkpt lat="51.549179" lon="03.801762"><ele>28.9</ele><time>2022-11-15T11:46:04Z</time><name>PT3438</name></trkpt>
<trkpt lat="51.549186" lon="03.801756"><ele>28.9</ele><time>2022-11-15T11:46:05Z</time><name>PT3439</name></trkpt>
<trkpt lat="51.549196" lon="03.801752"><ele>29.1</ele><time>2022-11-15T11:46:06Z</time><name>PT3440</name></trkpt>
<trkpt lat="51.549205" lon="03.801747"><ele>29.2</ele><time>2022-11-15T11:46:07Z</time><name>PT3441</name></trkpt>
<trkpt lat="51.549212" lon="03.801742"><ele>29.3</ele><time>2022-11-15T11:46:08Z</time><name>PT3442</name></trkpt>
<trkpt lat="51.549222" lon="03.801733"><ele>29.3</ele><time>2022-11-15T11:46:09Z</time><name>PT3443</name></trkpt>
<trkpt lat="51.549231" lon="03.801723"><ele>29.4</ele><time>2022-11-15T11:46:10Z</time><name>PT3444</name></trkpt>
<trkpt lat="51.549240" lon="03.801716"><ele>29.3</ele><time>2022-11-15T11:46:11Z</time><name>PT3445</name></trkpt>
<trkpt lat="51.549250" lon="03.801712"><ele>29.1</ele><time>2022-11-15T11:46:12Z</time><name>PT3446</name></trkpt>
<trkpt lat="51.549259" lon="03.801704"><ele>29</ele><time>2022-11-15T11:46:13Z</time><name>PT3447</name></trkpt>
<trkpt lat="51.549267" lon="03.801699"><ele>29.1</ele><time>2022-11-15T11:46:14Z</time><name>PT3448</name></trkpt>
<trkpt lat="51.549277" lon="03.801693"><ele>29</ele><time>2022-11-15T11:46:15Z</time><name>PT3449</name></trkpt>
<trkpt lat="51.549287" lon="03.801687"><ele>29.3</ele><time>2022-11-15T11:46:16Z</time><name>PT3450</name></trkpt>
<trkpt lat="51.549296" lon="03.801683"><ele>29.4</ele><time>2022-11-15T11:46:17Z</time><name>PT3451</name></trkpt>
<trkpt lat="51.549306" lon="03.801679"><ele>29.3</ele><time>2022-11-15T11:46:18Z</time><name>PT3452</name></trkpt>
<trkpt lat="51.549318" lon="03.801675"><ele>29.3</ele><time>2022-11-15T11:46:19Z</time><name>PT3453</name></trkpt>
<trkpt lat="51.549330" lon="03.801670"><ele>29.3</ele><time>2022-11-15T11:46:20Z</time><name>PT3454</name></trkpt>
<trkpt lat="51.549339" lon="03.801663"><ele>29.3</ele><time>2022-11-15T11:46:21Z</time><name>PT3455</name></trkpt>
<trkpt lat="51.549347" lon="03.801658"><ele>29.3</ele><time>2022-11-15T11:46:22Z</time><name>PT3456</name></trkpt>
<trkpt lat="51.549358" lon="03.801651"><ele>29.5</ele><time>2022-11-15T11:46:23Z</time><name>PT3457</name></trkpt>
<trkpt lat="51.549370" lon="03.801645"><ele>29.7</ele><time>2022-11-15T11:46:24Z</time><name>PT3458</name></trkpt>
<trkpt lat="51.549380" lon="03.801638"><ele>29.9</ele><time>2022-11-15T11:46:25Z</time><name>PT3459</name></trkpt>
<trkpt lat="51.549390" lon="03.801633"><ele>29.7</ele><time>2022-11-15T11:46:26Z</time><name>PT3460</name></trkpt>
<trkpt lat="51.549398" lon="03.801628"><ele>29.7</ele><time>2022-11-15T11:46:27Z</time><name>PT3461</name></trkpt>
<trkpt lat="51.549407" lon="03.801625"><ele>29.7</ele><time>2022-11-15T11:46:28Z</time><name>PT3462</name></trkpt>
<trkpt lat="51.549416" lon="03.801619"><ele>29.8</ele><time>2022-11-15T11:46:29Z</time><name>PT3463</name></trkpt>
<trkpt lat="51.549423" lon="03.801609"><ele>29.6</ele><time>2022-11-15T11:46:30Z</time><name>PT3464</name></trkpt>
<trkpt lat="51.549433" lon="03.801601"><ele>29.8</ele><time>2022-11-15T11:46:31Z</time><name>PT3465</name></trkpt>
<trkpt lat="51.549441" lon="03.801592"><ele>29.7</ele><time>2022-11-15T11:46:32Z</time><name>PT3466</name></trkpt>
<trkpt lat="51.549450" lon="03.801584"><ele>29.7</ele><time>2022-11-15T11:46:33Z</time><name>PT3467</name></trkpt>
<trkpt lat="51.549459" lon="03.801580"><ele>29.6</ele><time>2022-11-15T11:46:34Z</time><name>PT3468</name></trkpt>
<trkpt lat="51.549469" lon="03.801577"><ele>29.7</ele><time>2022-11-15T11:46:35Z</time><name>PT3469</name></trkpt>
<trkpt lat="51.549480" lon="03.801574"><ele>29.6</ele><time>2022-11-15T11:46:36Z</time><name>PT3470</name></trkpt>
<trkpt lat="51.549490" lon="03.801569"><ele>29.6</ele><time>2022-11-15T11:46:37Z</time><name>PT3471</name></trkpt>
<trkpt lat="51.549500" lon="03.801563"><ele>29.8</ele><time>2022-11-15T11:46:38Z</time><name>PT3472</name></trkpt>
<trkpt lat="51.549510" lon="03.801554"><ele>29.8</ele><time>2022-11-15T11:46:39Z</time><name>PT3473</name></trkpt>
<trkpt lat="51.549519" lon="03.801544"><ele>29.8</ele><time>2022-11-15T11:46:40Z</time><name>PT3474</name></trkpt>
<trkpt lat="51.549530" lon="03.801536"><ele>29.7</ele><time>2022-11-15T11:46:41Z</time><name>PT3475</name></trkpt>
<trkpt lat="51.549540" lon="03.801531"><ele>29.6</ele><time>2022-11-15T11:46:42Z</time><name>PT3476</name></trkpt>
<trkpt lat="51.549548" lon="03.801526"><ele>29.3</ele><time>2022-11-15T11:46:43Z</time><name>PT3477</name></trkpt>
<trkpt lat="51.549556" lon="03.801520"><ele>29.2</ele><time>2022-11-15T11:46:44Z</time><name>PT3478</name></trkpt>
<trkpt lat="51.549565" lon="03.801516"><ele>29.3</ele><time>2022-11-15T11:46:45Z</time><name>PT3479</name></trkpt>
<trkpt lat="51.549577" lon="03.801513"><ele>29.3</ele><time>2022-11-15T11:46:46Z</time><name>PT3480</name></trkpt>
<trkpt lat="51.549586" lon="03.801509"><ele>29.4</ele><time>2022-11-15T11:46:47Z</time><name>PT3481</name></trkpt>
<trkpt lat="51.549596" lon="03.801505"><ele>29.6</ele><time>2022-11-15T11:46:48Z</time><name>PT3482</name></trkpt>
<trkpt lat="51.549607" lon="03.801499"><ele>29.7</ele><time>2022-11-15T11:46:49Z</time><name>PT3483</name></trkpt>
<trkpt lat="51.549616" lon="03.801490"><ele>29.8</ele><time>2022-11-15T11:46:50Z</time><name>PT3484</name></trkpt>
<trkpt lat="51.549627" lon="03.801484"><ele>29.8</ele><time>2022-11-15T11:46:51Z</time><name>PT3485</name></trkpt>
<trkpt lat="51.549639" lon="03.801479"><ele>29.8</ele><time>2022-11-15T11:46:52Z</time><name>PT3486</name></trkpt>
<trkpt lat="51.549650" lon="03.801471"><ele>29.8</ele><time>2022-11-15T11:46:53Z</time><name>PT3487</name></trkpt>
<trkpt lat="51.549657" lon="03.801464"><ele>29.8</ele><time>2022-11-15T11:46:54Z</time><name>PT3488</name></trkpt>
<trkpt lat="51.549660" lon="03.801461"><ele>29.7</ele><time>2022-11-15T11:46:55Z</time><name>PT3489</name></trkpt>
<trkpt lat="51.549667" lon="03.801462"><ele>29.6</ele><time>2022-11-15T11:46:56Z</time><name>PT3490</name></trkpt>
<trkpt lat="51.549676" lon="03.801463"><ele>29.4</ele><time>2022-11-15T11:46:57Z</time><name>PT3491</name></trkpt>
<trkpt lat="51.549686" lon="03.801461"><ele>29.3</ele><time>2022-11-15T11:46:58Z</time><name>PT3492</name></trkpt>
<trkpt lat="51.549694" lon="03.801457"><ele>29.2</ele><time>2022-11-15T11:46:59Z</time><name>PT3493</name></trkpt>
<trkpt lat="51.549698" lon="03.801456"><ele>29.2</ele><time>2022-11-15T11:47:00Z</time><name>PT3494</name></trkpt>
<trkpt lat="51.549707" lon="03.801457"><ele>29.2</ele><time>2022-11-15T11:47:01Z</time><name>PT3495</name></trkpt>
<trkpt lat="51.549713" lon="03.801453"><ele>29.3</ele><time>2022-11-15T11:47:02Z</time><name>PT3496</name></trkpt>
<trkpt lat="51.549714" lon="03.801448"><ele>29.4</ele><time>2022-11-15T11:47:03Z</time><name>PT3497</name></trkpt>
<trkpt lat="51.549720" lon="03.801448"><ele>29.4</ele><time>2022-11-15T11:47:04Z</time><name>PT3498</name></trkpt>
<trkpt lat="51.549730" lon="03.801446"><ele>29.4</ele><time>2022-11-15T11:47:05Z</time><name>PT3499</name></trkpt>
<trkpt lat="51.549744" lon="03.801445"><ele>29.5</ele><time>2022-11-15T11:47:06Z</time><name>PT3500</name></trkpt>
<trkpt lat="51.549750" lon="03.801439"><ele>29.3</ele><time>2022-11-15T11:47:07Z</time><name>PT3501</name></trkpt>
<trkpt lat="51.549758" lon="03.801432"><ele>29.3</ele><time>2022-11-15T11:47:08Z</time><name>PT3502</name></trkpt>
<trkpt lat="51.549766" lon="03.801428"><ele>29.4</ele><time>2022-11-15T11:47:09Z</time><name>PT3503</name></trkpt>
<trkpt lat="51.549775" lon="03.801424"><ele>29.6</ele><time>2022-11-15T11:47:10Z</time><name>PT3504</name></trkpt>
<trkpt lat="51.549796" lon="03.801409"><ele>29.7</ele><time>2022-11-15T11:47:11Z</time><name>PT3505</name></trkpt>
<trkpt lat="51.549811" lon="03.801391"><ele>29.8</ele><time>2022-11-15T11:47:12Z</time><name>PT3506</name></trkpt>
<trkpt lat="51.549822" lon="03.801378"><ele>29.6</ele><time>2022-11-15T11:47:13Z</time><name>PT3507</name></trkpt>
<trkpt lat="51.549826" lon="03.801366"><ele>29.6</ele><time>2022-11-15T11:47:14Z</time><name>PT3508</name></trkpt>
<trkpt lat="51.549834" lon="03.801360"><ele>29.6</ele><time>2022-11-15T11:47:15Z</time><name>PT3509</name></trkpt>
<trkpt lat="51.549839" lon="03.801357"><ele>29.5</ele><time>2022-11-15T11:47:16Z</time><name>PT3510</name></trkpt>
<trkpt lat="51.549845" lon="03.801354"><ele>29.3</ele><time>2022-11-15T11:47:17Z</time><name>PT3511</name></trkpt>
<trkpt lat="51.549852" lon="03.801351"><ele>29.3</ele><time>2022-11-15T11:47:18Z</time><name>PT3512</name></trkpt>
<trkpt lat="51.549862" lon="03.801351"><ele>29.3</ele><time>2022-11-15T11:47:19Z</time><name>PT3513</name></trkpt>
<trkpt lat="51.549878" lon="03.801346"><ele>29.2</ele><time>2022-11-15T11:47:20Z</time><name>PT3514</name></trkpt>
<trkpt lat="51.549892" lon="03.801340"><ele>29.2</ele><time>2022-11-15T11:47:21Z</time><name>PT3515</name></trkpt>
<trkpt lat="51.549907" lon="03.801334"><ele>29.3</ele><time>2022-11-15T11:47:22Z</time><name>PT3516</name></trkpt>
<trkpt lat="51.549923" lon="03.801324"><ele>29.3</ele><time>2022-11-15T11:47:23Z</time><name>PT3517</name></trkpt>
<trkpt lat="51.549937" lon="03.801314"><ele>29.3</ele><time>2022-11-15T11:47:24Z</time><name>PT3518</name></trkpt>
<trkpt lat="51.549947" lon="03.801306"><ele>29.3</ele><time>2022-11-15T11:47:25Z</time><name>PT3519</name></trkpt>
<trkpt lat="51.549957" lon="03.801298"><ele>29.3</ele><time>2022-11-15T11:47:26Z</time><name>PT3520</name></trkpt>
<trkpt lat="51.549964" lon="03.801290"><ele>29.3</ele><time>2022-11-15T11:47:27Z</time><name>PT3521</name></trkpt>
<trkpt lat="51.549974" lon="03.801286"><ele>29.5</ele><time>2022-11-15T11:47:28Z</time><name>PT3522</name></trkpt>
<trkpt lat="51.549978" lon="03.801280"><ele>29.6</ele><time>2022-11-15T11:47:29Z</time><name>PT3523</name></trkpt>
<trkpt lat="51.549985" lon="03.801277"><ele>29.5</ele><time>2022-11-15T11:47:30Z</time><name>PT3524</name></trkpt>
<trkpt lat="51.549993" lon="03.801275"><ele>29.5</ele><time>2022-11-15T11:47:31Z</time><name>PT3525</name></trkpt>
<trkpt lat="51.550000" lon="03.801269"><ele>29.5</ele><time>2022-11-15T11:47:32Z</time><name>PT3526</name></trkpt>
<trkpt lat="51.550010" lon="03.801265"><ele>29.3</ele><time>2022-11-15T11:47:33Z</time><name>PT3527</name></trkpt>
<trkpt lat="51.550020" lon="03.801260"><ele>29.1</ele><time>2022-11-15T11:47:34Z</time><name>PT3528</name></trkpt>
<trkpt lat="51.550041" lon="03.801254"><ele>29.2</ele><time>2022-11-15T11:47:35Z</time><name>PT3529</name></trkpt>
<trkpt lat="51.550057" lon="03.801249"><ele>29.3</ele><time>2022-11-15T11:47:36Z</time><name>PT3530</name></trkpt>
<trkpt lat="51.550071" lon="03.801241"><ele>29.3</ele><time>2022-11-15T11:47:37Z</time><name>PT3531</name></trkpt>
<trkpt lat="51.550087" lon="03.801232"><ele>29.3</ele><time>2022-11-15T11:47:38Z</time><name>PT3532</name></trkpt>
<trkpt lat="51.550096" lon="03.801221"><ele>29.4</ele><time>2022-11-15T11:47:39Z</time><name>PT3533</name></trkpt>
<trkpt lat="51.550103" lon="03.801214"><ele>29.5</ele><time>2022-11-15T11:47:40Z</time><name>PT3534</name></trkpt>
<trkpt lat="51.550111" lon="03.801208"><ele>29.5</ele><time>2022-11-15T11:47:41Z</time><name>PT3535</name></trkpt>
<trkpt lat="51.550119" lon="03.801203"><ele>29.4</ele><time>2022-11-15T11:47:42Z</time><name>PT3536</name></trkpt>
<trkpt lat="51.550127" lon="03.801200"><ele>29.4</ele><time>2022-11-15T11:47:43Z</time><name>PT3537</name></trkpt>
<trkpt lat="51.550142" lon="03.801193"><ele>29.5</ele><time>2022-11-15T11:47:44Z</time><name>PT3538</name></trkpt>
<trkpt lat="51.550159" lon="03.801186"><ele>29.5</ele><time>2022-11-15T11:47:45Z</time><name>PT3539</name></trkpt>
<trkpt lat="51.550170" lon="03.801184"><ele>29.6</ele><time>2022-11-15T11:47:46Z</time><name>PT3540</name></trkpt>
<trkpt lat="51.550178" lon="03.801180"><ele>29.9</ele><time>2022-11-15T11:47:47Z</time><name>PT3541</name></trkpt>
<trkpt lat="51.550190" lon="03.801172"><ele>29.9</ele><time>2022-11-15T11:47:48Z</time><name>PT3542</name></trkpt>
<trkpt lat="51.550202" lon="03.801167"><ele>29.9</ele><time>2022-11-15T11:47:49Z</time><name>PT3543</name></trkpt>
<trkpt lat="51.550211" lon="03.801162"><ele>29.9</ele><time>2022-11-15T11:47:50Z</time><name>PT3544</name></trkpt>
<trkpt lat="51.550220" lon="03.801157"><ele>30</ele><time>2022-11-15T11:47:51Z</time><name>PT3545</name></trkpt>
<trkpt lat="51.550229" lon="03.801153"><ele>29.8</ele><time>2022-11-15T11:47:52Z</time><name>PT3546</name></trkpt>
<trkpt lat="51.550239" lon="03.801150"><ele>29.8</ele><time>2022-11-15T11:47:53Z</time><name>PT3547</name></trkpt>
<trkpt lat="51.550249" lon="03.801145"><ele>30</ele><time>2022-11-15T11:47:54Z</time><name>PT3548</name></trkpt>
<trkpt lat="51.550258" lon="03.801136"><ele>30</ele><time>2022-11-15T11:47:55Z</time><name>PT3549</name></trkpt>
<trkpt lat="51.550267" lon="03.801130"><ele>30.1</ele><time>2022-11-15T11:47:56Z</time><name>PT3550</name></trkpt>
<trkpt lat="51.550276" lon="03.801125"><ele>30.2</ele><time>2022-11-15T11:47:57Z</time><name>PT3551</name></trkpt>
<trkpt lat="51.550288" lon="03.801119"><ele>30.2</ele><time>2022-11-15T11:47:58Z</time><name>PT3552</name></trkpt>
<trkpt lat="51.550298" lon="03.801115"><ele>30</ele><time>2022-11-15T11:47:59Z</time><name>PT3553</name></trkpt>
<trkpt lat="51.550307" lon="03.801110"><ele>29.9</ele><time>2022-11-15T11:48:00Z</time><name>PT3554</name></trkpt>
<trkpt lat="51.550316" lon="03.801103"><ele>29.8</ele><time>2022-11-15T11:48:01Z</time><name>PT3555</name></trkpt>
<trkpt lat="51.550325" lon="03.801096"><ele>29.7</ele><time>2022-11-15T11:48:02Z</time><name>PT3556</name></trkpt>
<trkpt lat="51.550334" lon="03.801092"><ele>29.7</ele><time>2022-11-15T11:48:03Z</time><name>PT3557</name></trkpt>
<trkpt lat="51.550343" lon="03.801087"><ele>29.7</ele><time>2022-11-15T11:48:04Z</time><name>PT3558</name></trkpt>
<trkpt lat="51.550351" lon="03.801081"><ele>29.7</ele><time>2022-11-15T11:48:05Z</time><name>PT3559</name></trkpt>
<trkpt lat="51.550359" lon="03.801073"><ele>29.8</ele><time>2022-11-15T11:48:06Z</time><name>PT3560</name></trkpt>
<trkpt lat="51.550369" lon="03.801066"><ele>29.8</ele><time>2022-11-15T11:48:07Z</time><name>PT3561</name></trkpt>
<trkpt lat="51.550379" lon="03.801060"><ele>30</ele><time>2022-11-15T11:48:08Z</time><name>PT3562</name></trkpt>
<trkpt lat="51.550385" lon="03.801052"><ele>30</ele><time>2022-11-15T11:48:09Z</time><name>PT3563</name></trkpt>
<trkpt lat="51.550393" lon="03.801046"><ele>30</ele><time>2022-11-15T11:48:10Z</time><name>PT3564</name></trkpt>
<trkpt lat="51.550404" lon="03.801040"><ele>30</ele><time>2022-11-15T11:48:11Z</time><name>PT3565</name></trkpt>
<trkpt lat="51.550411" lon="03.801037"><ele>30.1</ele><time>2022-11-15T11:48:12Z</time><name>PT3566</name></trkpt>
<trkpt lat="51.550418" lon="03.801035"><ele>30</ele><time>2022-11-15T11:48:13Z</time><name>PT3567</name></trkpt>
<trkpt lat="51.550424" lon="03.801028"><ele>30.3</ele><time>2022-11-15T11:48:14Z</time><name>PT3568</name></trkpt>
<trkpt lat="51.550429" lon="03.801023"><ele>30.3</ele><time>2022-11-15T11:48:15Z</time><name>PT3569</name></trkpt>
<trkpt lat="51.550431" lon="03.801016"><ele>30.3</ele><time>2022-11-15T11:48:16Z</time><name>PT3570</name></trkpt>
<trkpt lat="51.550431" lon="03.801013"><ele>30.1</ele><time>2022-11-15T11:48:17Z</time><name>PT3571</name></trkpt>
<trkpt lat="51.550431" lon="03.801013"><ele>30.1</ele><time>2022-11-15T11:48:18Z</time><name>PT3572</name></trkpt>
<trkpt lat="51.550431" lon="03.801013"><ele>30</ele><time>2022-11-15T11:48:19Z</time><name>PT3573</name></trkpt>
<trkpt lat="51.550433" lon="03.801014"><ele>30.4</ele><time>2022-11-15T11:48:31Z</time><name>PT3574</name></trkpt>
<trkpt lat="51.550435" lon="03.801020"><ele>30.3</ele><time>2022-11-15T11:48:32Z</time><name>PT3575</name></trkpt>
<trkpt lat="51.550438" lon="03.801025"><ele>30.3</ele><time>2022-11-15T11:48:33Z</time><name>PT3576</name></trkpt>
<trkpt lat="51.550439" lon="03.801018"><ele>30.3</ele><time>2022-11-15T11:48:38Z</time><name>PT3577</name></trkpt>
<trkpt lat="51.550439" lon="03.801021"><ele>30.3</ele><time>2022-11-15T11:48:39Z</time><name>PT3578</name></trkpt>
<trkpt lat="51.550439" lon="03.801020"><ele>30.2</ele><time>2022-11-15T11:48:40Z</time><name>PT3579</name></trkpt>
<trkpt lat="51.550436" lon="03.801019"><ele>30.1</ele><time>2022-11-15T11:48:41Z</time><name>PT3580</name></trkpt>
<trkpt lat="51.550438" lon="03.801020"><ele>30.1</ele><time>2022-11-15T11:48:42Z</time><name>PT3581</name></trkpt>
<trkpt lat="51.550437" lon="03.801023"><ele>30.1</ele><time>2022-11-15T11:48:43Z</time><name>PT3582</name></trkpt>
<trkpt lat="51.550438" lon="03.801021"><ele>30.1</ele><time>2022-11-15T11:48:44Z</time><name>PT3583</name></trkpt>
<trkpt lat="51.550441" lon="03.801016"><ele>30.1</ele><time>2022-11-15T11:48:45Z</time><name>PT3584</name></trkpt>
<trkpt lat="51.550444" lon="03.801011"><ele>30.2</ele><time>2022-11-15T11:48:46Z</time><name>PT3585</name></trkpt>
<trkpt lat="51.550447" lon="03.801012"><ele>30.2</ele><time>2022-11-15T11:48:47Z</time><name>PT3586</name></trkpt>
<trkpt lat="51.550448" lon="03.801012"><ele>30.3</ele><time>2022-11-15T11:48:48Z</time><name>PT3587</name></trkpt>
<trkpt lat="51.550449" lon="03.801012"><ele>30.3</ele><time>2022-11-15T11:48:49Z</time><name>PT3588</name></trkpt>
<trkpt lat="51.550450" lon="03.801012"><ele>30.4</ele><time>2022-11-15T11:48:50Z</time><name>PT3589</name></trkpt>
<trkpt lat="51.550450" lon="03.801007"><ele>30.7</ele><time>2022-11-15T11:49:10Z</time><name>PT3590</name></trkpt>
<trkpt lat="51.550451" lon="03.801006"><ele>30.7</ele><time>2022-11-15T11:49:11Z</time><name>PT3591</name></trkpt>
<trkpt lat="51.550453" lon="03.801007"><ele>30.8</ele><time>2022-11-15T11:49:12Z</time><name>PT3592</name></trkpt>
<trkpt lat="51.550454" lon="03.801008"><ele>30.9</ele><time>2022-11-15T11:49:13Z</time><name>PT3593</name></trkpt>
<trkpt lat="51.550456" lon="03.801009"><ele>30.7</ele><time>2022-11-15T11:49:14Z</time><name>PT3594</name></trkpt>
<trkpt lat="51.550458" lon="03.801015"><ele>30.3</ele><time>2022-11-15T11:49:17Z</time><name>PT3595</name></trkpt>
<trkpt lat="51.550458" lon="03.801017"><ele>30.3</ele><time>2022-11-15T11:49:18Z</time><name>PT3596</name></trkpt>
<trkpt lat="51.550461" lon="03.801017"><ele>30.3</ele><time>2022-11-15T11:49:19Z</time><name>PT3597</name></trkpt>
<trkpt lat="51.550465" lon="03.801021"><ele>30.1</ele><time>2022-11-15T11:49:20Z</time><name>PT3598</name></trkpt>
<trkpt lat="51.550469" lon="03.801025"><ele>30.2</ele><time>2022-11-15T11:49:21Z</time><name>PT3599</name></trkpt>
<trkpt lat="51.550469" lon="03.801022"><ele>30.4</ele><time>2022-11-15T11:49:23Z</time><name>PT3600</name></trkpt>
<trkpt lat="51.550470" lon="03.801019"><ele>30.4</ele><time>2022-11-15T11:49:24Z</time><name>PT3601</name></trkpt>
<trkpt lat="51.550472" lon="03.801017"><ele>30.6</ele><time>2022-11-15T11:49:29Z</time><name>PT3602</name></trkpt>
<trkpt lat="51.550479" lon="03.801019"><ele>30.5</ele><time>2022-11-15T11:49:30Z</time><name>PT3603</name></trkpt>
<trkpt lat="51.550484" lon="03.801020"><ele>30.5</ele><time>2022-11-15T11:49:31Z</time><name>PT3604</name></trkpt>
<trkpt lat="51.550488" lon="03.801021"><ele>30.6</ele><time>2022-11-15T11:49:32Z</time><name>PT3605</name></trkpt>
<trkpt lat="51.550493" lon="03.801018"><ele>30.7</ele><time>2022-11-15T11:49:33Z</time><name>PT3606</name></trkpt>
<trkpt lat="51.550502" lon="03.801017"><ele>30.7</ele><time>2022-11-15T11:49:34Z</time><name>PT3607</name></trkpt>
<trkpt lat="51.550509" lon="03.801017"><ele>30.7</ele><time>2022-11-15T11:49:35Z</time><name>PT3608</name></trkpt>
<trkpt lat="51.550516" lon="03.801019"><ele>30.7</ele><time>2022-11-15T11:49:36Z</time><name>PT3609</name></trkpt>
<trkpt lat="51.550523" lon="03.801025"><ele>30.7</ele><time>2022-11-15T11:49:37Z</time><name>PT3610</name></trkpt>
<trkpt lat="51.550530" lon="03.801031"><ele>30.6</ele><time>2022-11-15T11:49:38Z</time><name>PT3611</name></trkpt>
<trkpt lat="51.550538" lon="03.801039"><ele>30.6</ele><time>2022-11-15T11:49:39Z</time><name>PT3612</name></trkpt>
<trkpt lat="51.550544" lon="03.801048"><ele>30.7</ele><time>2022-11-15T11:49:40Z</time><name>PT3613</name></trkpt>
<trkpt lat="51.550550" lon="03.801057"><ele>30.6</ele><time>2022-11-15T11:49:41Z</time><name>PT3614</name></trkpt>
<trkpt lat="51.550557" lon="03.801068"><ele>30.6</ele><time>2022-11-15T11:49:42Z</time><name>PT3615</name></trkpt>
<trkpt lat="51.550563" lon="03.801079"><ele>30.8</ele><time>2022-11-15T11:49:43Z</time><name>PT3616</name></trkpt>
<trkpt lat="51.550569" lon="03.801090"><ele>30.8</ele><time>2022-11-15T11:49:44Z</time><name>PT3617</name></trkpt>
<trkpt lat="51.550575" lon="03.801103"><ele>30.8</ele><time>2022-11-15T11:49:45Z</time><name>PT3618</name></trkpt>
<trkpt lat="51.550582" lon="03.801113"><ele>30.8</ele><time>2022-11-15T11:49:46Z</time><name>PT3619</name></trkpt>
<trkpt lat="51.550588" lon="03.801120"><ele>30.9</ele><time>2022-11-15T11:49:47Z</time><name>PT3620</name></trkpt>
<trkpt lat="51.550594" lon="03.801130"><ele>30.9</ele><time>2022-11-15T11:49:48Z</time><name>PT3621</name></trkpt>
<trkpt lat="51.550598" lon="03.801142"><ele>31.1</ele><time>2022-11-15T11:49:49Z</time><name>PT3622</name></trkpt>
<trkpt lat="51.550602" lon="03.801156"><ele>31.1</ele><time>2022-11-15T11:49:50Z</time><name>PT3623</name></trkpt>
<trkpt lat="51.550605" lon="03.801171"><ele>31.1</ele><time>2022-11-15T11:49:51Z</time><name>PT3624</name></trkpt>
<trkpt lat="51.550609" lon="03.801187"><ele>31.2</ele><time>2022-11-15T11:49:52Z</time><name>PT3625</name></trkpt>
<trkpt lat="51.550615" lon="03.801197"><ele>31.3</ele><time>2022-11-15T11:49:53Z</time><name>PT3626</name></trkpt>
<trkpt lat="51.550622" lon="03.801207"><ele>31.5</ele><time>2022-11-15T11:49:54Z</time><name>PT3627</name></trkpt>
<trkpt lat="51.550628" lon="03.801219"><ele>31.6</ele><time>2022-11-15T11:49:55Z</time><name>PT3628</name></trkpt>
<trkpt lat="51.550633" lon="03.801230"><ele>31.8</ele><time>2022-11-15T11:49:56Z</time><name>PT3629</name></trkpt>
<trkpt lat="51.550638" lon="03.801242"><ele>31.8</ele><time>2022-11-15T11:49:57Z</time><name>PT3630</name></trkpt>
<trkpt lat="51.550643" lon="03.801253"><ele>31.8</ele><time>2022-11-15T11:49:58Z</time><name>PT3631</name></trkpt>
<trkpt lat="51.550646" lon="03.801264"><ele>31.8</ele><time>2022-11-15T11:49:59Z</time><name>PT3632</name></trkpt>
<trkpt lat="51.550648" lon="03.801278"><ele>31.8</ele><time>2022-11-15T11:50:00Z</time><name>PT3633</name></trkpt>
<trkpt lat="51.550652" lon="03.801290"><ele>31.8</ele><time>2022-11-15T11:50:01Z</time><name>PT3634</name></trkpt>
<trkpt lat="51.550657" lon="03.801299"><ele>31.9</ele><time>2022-11-15T11:50:02Z</time><name>PT3635</name></trkpt>
<trkpt lat="51.550660" lon="03.801307"><ele>31.9</ele><time>2022-11-15T11:50:03Z</time><name>PT3636</name></trkpt>
<trkpt lat="51.550662" lon="03.801317"><ele>31.9</ele><time>2022-11-15T11:50:04Z</time><name>PT3637</name></trkpt>
<trkpt lat="51.550665" lon="03.801329"><ele>32.1</ele><time>2022-11-15T11:50:05Z</time><name>PT3638</name></trkpt>
<trkpt lat="51.550667" lon="03.801336"><ele>32</ele><time>2022-11-15T11:50:06Z</time><name>PT3639</name></trkpt>
<trkpt lat="51.550671" lon="03.801344"><ele>32.2</ele><time>2022-11-15T11:50:07Z</time><name>PT3640</name></trkpt>
<trkpt lat="51.550677" lon="03.801354"><ele>32.3</ele><time>2022-11-15T11:50:08Z</time><name>PT3641</name></trkpt>
<trkpt lat="51.550683" lon="03.801363"><ele>32.6</ele><time>2022-11-15T11:50:09Z</time><name>PT3642</name></trkpt>
<trkpt lat="51.550688" lon="03.801372"><ele>32.5</ele><time>2022-11-15T11:50:10Z</time><name>PT3643</name></trkpt>
<trkpt lat="51.550693" lon="03.801382"><ele>32.5</ele><time>2022-11-15T11:50:11Z</time><name>PT3644</name></trkpt>
<trkpt lat="51.550697" lon="03.801393"><ele>32.7</ele><time>2022-11-15T11:50:12Z</time><name>PT3645</name></trkpt>
<trkpt lat="51.550700" lon="03.801408"><ele>32.7</ele><time>2022-11-15T11:50:13Z</time><name>PT3646</name></trkpt>
<trkpt lat="51.550705" lon="03.801420"><ele>32.8</ele><time>2022-11-15T11:50:14Z</time><name>PT3647</name></trkpt>
<trkpt lat="51.550710" lon="03.801429"><ele>33.1</ele><time>2022-11-15T11:50:15Z</time><name>PT3648</name></trkpt>
<trkpt lat="51.550715" lon="03.801438"><ele>33.2</ele><time>2022-11-15T11:50:16Z</time><name>PT3649</name></trkpt>
<trkpt lat="51.550719" lon="03.801451"><ele>33.1</ele><time>2022-11-15T11:50:17Z</time><name>PT3650</name></trkpt>
<trkpt lat="51.550723" lon="03.801466"><ele>33.1</ele><time>2022-11-15T11:50:18Z</time><name>PT3651</name></trkpt>
<trkpt lat="51.550728" lon="03.801478"><ele>33.2</ele><time>2022-11-15T11:50:19Z</time><name>PT3652</name></trkpt>
<trkpt lat="51.550733" lon="03.801490"><ele>33.4</ele><time>2022-11-15T11:50:20Z</time><name>PT3653</name></trkpt>
<trkpt lat="51.550737" lon="03.801502"><ele>33.8</ele><time>2022-11-15T11:50:21Z</time><name>PT3654</name></trkpt>
<trkpt lat="51.550739" lon="03.801512"><ele>34</ele><time>2022-11-15T11:50:22Z</time><name>PT3655</name></trkpt>
<trkpt lat="51.550743" lon="03.801520"><ele>33.9</ele><time>2022-11-15T11:50:23Z</time><name>PT3656</name></trkpt>
<trkpt lat="51.550748" lon="03.801529"><ele>34</ele><time>2022-11-15T11:50:24Z</time><name>PT3657</name></trkpt>
<trkpt lat="51.550753" lon="03.801539"><ele>33.8</ele><time>2022-11-15T11:50:25Z</time><name>PT3658</name></trkpt>
<trkpt lat="51.550756" lon="03.801551"><ele>33.4</ele><time>2022-11-15T11:50:26Z</time><name>PT3659</name></trkpt>
<trkpt lat="51.550757" lon="03.801563"><ele>33.3</ele><time>2022-11-15T11:50:27Z</time><name>PT3660</name></trkpt>
<trkpt lat="51.550757" lon="03.801575"><ele>33.3</ele><time>2022-11-15T11:50:28Z</time><name>PT3661</name></trkpt>
<trkpt lat="51.550758" lon="03.801585"><ele>33.1</ele><time>2022-11-15T11:50:29Z</time><name>PT3662</name></trkpt>
<trkpt lat="51.550760" lon="03.801591"><ele>33</ele><time>2022-11-15T11:50:30Z</time><name>PT3663</name></trkpt>
<trkpt lat="51.550761" lon="03.801596"><ele>33</ele><time>2022-11-15T11:50:31Z</time><name>PT3664</name></trkpt>
<trkpt lat="51.550763" lon="03.801603"><ele>33.3</ele><time>2022-11-15T11:50:32Z</time><name>PT3665</name></trkpt>
<trkpt lat="51.550766" lon="03.801610"><ele>33.2</ele><time>2022-11-15T11:50:33Z</time><name>PT3666</name></trkpt>
<trkpt lat="51.550768" lon="03.801615"><ele>33.1</ele><time>2022-11-15T11:50:34Z</time><name>PT3667</name></trkpt>
<trkpt lat="51.550769" lon="03.801623"><ele>33.1</ele><time>2022-11-15T11:50:35Z</time><name>PT3668</name></trkpt>
<trkpt lat="51.550770" lon="03.801631"><ele>33</ele><time>2022-11-15T11:50:36Z</time><name>PT3669</name></trkpt>
<trkpt lat="51.550773" lon="03.801640"><ele>32.8</ele><time>2022-11-15T11:50:37Z</time><name>PT3670</name></trkpt>
<trkpt lat="51.550777" lon="03.801648"><ele>32.6</ele><time>2022-11-15T11:50:38Z</time><name>PT3671</name></trkpt>
<trkpt lat="51.550781" lon="03.801654"><ele>32.5</ele><time>2022-11-15T11:50:39Z</time><name>PT3672</name></trkpt>
<trkpt lat="51.550784" lon="03.801661"><ele>32.3</ele><time>2022-11-15T11:50:40Z</time><name>PT3673</name></trkpt>
<trkpt lat="51.550786" lon="03.801668"><ele>32.3</ele><time>2022-11-15T11:50:41Z</time><name>PT3674</name></trkpt>
<trkpt lat="51.550787" lon="03.801676"><ele>32.2</ele><time>2022-11-15T11:50:42Z</time><name>PT3675</name></trkpt>
<trkpt lat="51.550789" lon="03.801684"><ele>32.1</ele><time>2022-11-15T11:50:43Z</time><name>PT3676</name></trkpt>
<trkpt lat="51.550792" lon="03.801694"><ele>32</ele><time>2022-11-15T11:50:44Z</time><name>PT3677</name></trkpt>
<trkpt lat="51.550796" lon="03.801703"><ele>32</ele><time>2022-11-15T11:50:45Z</time><name>PT3678</name></trkpt>
<trkpt lat="51.550799" lon="03.801708"><ele>31.8</ele><time>2022-11-15T11:50:46Z</time><name>PT3679</name></trkpt>
<trkpt lat="51.550801" lon="03.801715"><ele>31.6</ele><time>2022-11-15T11:50:47Z</time><name>PT3680</name></trkpt>
<trkpt lat="51.550805" lon="03.801722"><ele>31.6</ele><time>2022-11-15T11:50:48Z</time><name>PT3681</name></trkpt>
<trkpt lat="51.550811" lon="03.801730"><ele>31.3</ele><time>2022-11-15T11:50:49Z</time><name>PT3682</name></trkpt>
<trkpt lat="51.550816" lon="03.801738"><ele>31.3</ele><time>2022-11-15T11:50:50Z</time><name>PT3683</name></trkpt>
<trkpt lat="51.550819" lon="03.801746"><ele>31.3</ele><time>2022-11-15T11:50:51Z</time><name>PT3684</name></trkpt>
<trkpt lat="51.550820" lon="03.801756"><ele>31.2</ele><time>2022-11-15T11:50:52Z</time><name>PT3685</name></trkpt>
<trkpt lat="51.550823" lon="03.801767"><ele>30.9</ele><time>2022-11-15T11:50:53Z</time><name>PT3686</name></trkpt>
<trkpt lat="51.550826" lon="03.801776"><ele>30.9</ele><time>2022-11-15T11:50:54Z</time><name>PT3687</name></trkpt>
<trkpt lat="51.550832" lon="03.801782"><ele>30.9</ele><time>2022-11-15T11:50:55Z</time><name>PT3688</name></trkpt>
<trkpt lat="51.550840" lon="03.801789"><ele>30.8</ele><time>2022-11-15T11:50:56Z</time><name>PT3689</name></trkpt>
<trkpt lat="51.550848" lon="03.801796"><ele>30.8</ele><time>2022-11-15T11:50:57Z</time><name>PT3690</name></trkpt>
<trkpt lat="51.550855" lon="03.801797"><ele>30.7</ele><time>2022-11-15T11:50:58Z</time><name>PT3691</name></trkpt>
<trkpt lat="51.550862" lon="03.801800"><ele>30.5</ele><time>2022-11-15T11:50:59Z</time><name>PT3692</name></trkpt>
<trkpt lat="51.550869" lon="03.801804"><ele>30.2</ele><time>2022-11-15T11:51:00Z</time><name>PT3693</name></trkpt>
<trkpt lat="51.550876" lon="03.801810"><ele>30.3</ele><time>2022-11-15T11:51:01Z</time><name>PT3694</name></trkpt>
<trkpt lat="51.550883" lon="03.801813"><ele>30.3</ele><time>2022-11-15T11:51:02Z</time><name>PT3695</name></trkpt>
<trkpt lat="51.550890" lon="03.801814"><ele>30.3</ele><time>2022-11-15T11:51:03Z</time><name>PT3696</name></trkpt>
<trkpt lat="51.550897" lon="03.801814"><ele>30.3</ele><time>2022-11-15T11:51:04Z</time><name>PT3697</name></trkpt>
<trkpt lat="51.550904" lon="03.801817"><ele>30.3</ele><time>2022-11-15T11:51:05Z</time><name>PT3698</name></trkpt>
<trkpt lat="51.550912" lon="03.801821"><ele>30.2</ele><time>2022-11-15T11:51:06Z</time><name>PT3699</name></trkpt>
<trkpt lat="51.550921" lon="03.801822"><ele>30</ele><time>2022-11-15T11:51:07Z</time><name>PT3700</name></trkpt>
<trkpt lat="51.550929" lon="03.801824"><ele>29.8</ele><time>2022-11-15T11:51:08Z</time><name>PT3701</name></trkpt>
<trkpt lat="51.550937" lon="03.801823"><ele>29.7</ele><time>2022-11-15T11:51:09Z</time><name>PT3702</name></trkpt>
<trkpt lat="51.550945" lon="03.801821"><ele>29.5</ele><time>2022-11-15T11:51:10Z</time><name>PT3703</name></trkpt>
<trkpt lat="51.550953" lon="03.801819"><ele>29.5</ele><time>2022-11-15T11:51:11Z</time><name>PT3704</name></trkpt>
<trkpt lat="51.550961" lon="03.801818"><ele>29.4</ele><time>2022-11-15T11:51:12Z</time><name>PT3705</name></trkpt>
<trkpt lat="51.550969" lon="03.801816"><ele>29.3</ele><time>2022-11-15T11:51:13Z</time><name>PT3706</name></trkpt>
<trkpt lat="51.550978" lon="03.801813"><ele>29.2</ele><time>2022-11-15T11:51:14Z</time><name>PT3707</name></trkpt>
<trkpt lat="51.550986" lon="03.801812"><ele>29.3</ele><time>2022-11-15T11:51:15Z</time><name>PT3708</name></trkpt>
<trkpt lat="51.550993" lon="03.801815"><ele>29.2</ele><time>2022-11-15T11:51:16Z</time><name>PT3709</name></trkpt>
<trkpt lat="51.550999" lon="03.801821"><ele>29.1</ele><time>2022-11-15T11:51:17Z</time><name>PT3710</name></trkpt>
<trkpt lat="51.551004" lon="03.801821"><ele>29.2</ele><time>2022-11-15T11:51:18Z</time><name>PT3711</name></trkpt>
<trkpt lat="51.551009" lon="03.801818"><ele>29.3</ele><time>2022-11-15T11:51:19Z</time><name>PT3712</name></trkpt>
<trkpt lat="51.551015" lon="03.801814"><ele>29.3</ele><time>2022-11-15T11:51:20Z</time><name>PT3713</name></trkpt>
<trkpt lat="51.551022" lon="03.801813"><ele>29.1</ele><time>2022-11-15T11:51:21Z</time><name>PT3714</name></trkpt>
<trkpt lat="51.551030" lon="03.801812"><ele>29.3</ele><time>2022-11-15T11:51:22Z</time><name>PT3715</name></trkpt>
<trkpt lat="51.551035" lon="03.801809"><ele>29.1</ele><time>2022-11-15T11:51:23Z</time><name>PT3716</name></trkpt>
<trkpt lat="51.551038" lon="03.801805"><ele>29</ele><time>2022-11-15T11:51:24Z</time><name>PT3717</name></trkpt>
<trkpt lat="51.551045" lon="03.801800"><ele>29</ele><time>2022-11-15T11:51:25Z</time><name>PT3718</name></trkpt>
<trkpt lat="51.551052" lon="03.801798"><ele>29.1</ele><time>2022-11-15T11:51:26Z</time><name>PT3719</name></trkpt>
<trkpt lat="51.551056" lon="03.801795"><ele>29</ele><time>2022-11-15T11:51:27Z</time><name>PT3720</name></trkpt>
<trkpt lat="51.551063" lon="03.801792"><ele>28.8</ele><time>2022-11-15T11:51:28Z</time><name>PT3721</name></trkpt>
<trkpt lat="51.551070" lon="03.801788"><ele>28.7</ele><time>2022-11-15T11:51:29Z</time><name>PT3722</name></trkpt>
<trkpt lat="51.551076" lon="03.801780"><ele>28.5</ele><time>2022-11-15T11:51:30Z</time><name>PT3723</name></trkpt>
<trkpt lat="51.551081" lon="03.801774"><ele>28.5</ele><time>2022-11-15T11:51:31Z</time><name>PT3724</name></trkpt>
<trkpt lat="51.551086" lon="03.801768"><ele>28.5</ele><time>2022-11-15T11:51:32Z</time><name>PT3725</name></trkpt>
<trkpt lat="51.551091" lon="03.801763"><ele>28.7</ele><time>2022-11-15T11:51:33Z</time><name>PT3726</name></trkpt>
<trkpt lat="51.551095" lon="03.801752"><ele>28.5</ele><time>2022-11-15T11:51:34Z</time><name>PT3727</name></trkpt>
<trkpt lat="51.551099" lon="03.801742"><ele>28.6</ele><time>2022-11-15T11:51:35Z</time><name>PT3728</name></trkpt>
<trkpt lat="51.551106" lon="03.801735"><ele>28.8</ele><time>2022-11-15T11:51:36Z</time><name>PT3729</name></trkpt>
<trkpt lat="51.551114" lon="03.801731"><ele>28.8</ele><time>2022-11-15T11:51:37Z</time><name>PT3730</name></trkpt>
<trkpt lat="51.551122" lon="03.801726"><ele>28.8</ele><time>2022-11-15T11:51:38Z</time><name>PT3731</name></trkpt>
<trkpt lat="51.551131" lon="03.801720"><ele>29</ele><time>2022-11-15T11:51:39Z</time><name>PT3732</name></trkpt>
<trkpt lat="51.551141" lon="03.801713"><ele>29</ele><time>2022-11-15T11:51:40Z</time><name>PT3733</name></trkpt>
<trkpt lat="51.551149" lon="03.801706"><ele>28.9</ele><time>2022-11-15T11:51:41Z</time><name>PT3734</name></trkpt>
<trkpt lat="51.551155" lon="03.801700"><ele>29</ele><time>2022-11-15T11:51:42Z</time><name>PT3735</name></trkpt>
<trkpt lat="51.551162" lon="03.801695"><ele>28.8</ele><time>2022-11-15T11:51:43Z</time><name>PT3736</name></trkpt>
<trkpt lat="51.551170" lon="03.801692"><ele>29</ele><time>2022-11-15T11:51:44Z</time><name>PT3737</name></trkpt>
<trkpt lat="51.551178" lon="03.801687"><ele>29.2</ele><time>2022-11-15T11:51:45Z</time><name>PT3738</name></trkpt>
<trkpt lat="51.551186" lon="03.801682"><ele>29.3</ele><time>2022-11-15T11:51:46Z</time><name>PT3739</name></trkpt>
<trkpt lat="51.551194" lon="03.801676"><ele>29.3</ele><time>2022-11-15T11:51:47Z</time><name>PT3740</name></trkpt>
<trkpt lat="51.551202" lon="03.801669"><ele>29.3</ele><time>2022-11-15T11:51:48Z</time><name>PT3741</name></trkpt>
<trkpt lat="51.551208" lon="03.801664"><ele>29.4</ele><time>2022-11-15T11:51:49Z</time><name>PT3742</name></trkpt>
<trkpt lat="51.551213" lon="03.801661"><ele>29.5</ele><time>2022-11-15T11:51:50Z</time><name>PT3743</name></trkpt>
<trkpt lat="51.551221" lon="03.801659"><ele>29.5</ele><time>2022-11-15T11:51:51Z</time><name>PT3744</name></trkpt>
<trkpt lat="51.551231" lon="03.801656"><ele>29.5</ele><time>2022-11-15T11:51:52Z</time><name>PT3745</name></trkpt>
<trkpt lat="51.551239" lon="03.801652"><ele>29.4</ele><time>2022-11-15T11:51:53Z</time><name>PT3746</name></trkpt>
<trkpt lat="51.551245" lon="03.801644"><ele>29.3</ele><time>2022-11-15T11:51:54Z</time><name>PT3747</name></trkpt>
<trkpt lat="51.551250" lon="03.801637"><ele>29</ele><time>2022-11-15T11:51:55Z</time><name>PT3748</name></trkpt>
<trkpt lat="51.551255" lon="03.801632"><ele>29.2</ele><time>2022-11-15T11:51:56Z</time><name>PT3749</name></trkpt>
<trkpt lat="51.551261" lon="03.801625"><ele>29.3</ele><time>2022-11-15T11:51:57Z</time><name>PT3750</name></trkpt>
<trkpt lat="51.551268" lon="03.801616"><ele>29.5</ele><time>2022-11-15T11:51:58Z</time><name>PT3751</name></trkpt>
<trkpt lat="51.551275" lon="03.801607"><ele>29.6</ele><time>2022-11-15T11:51:59Z</time><name>PT3752</name></trkpt>
<trkpt lat="51.551278" lon="03.801596"><ele>29.8</ele><time>2022-11-15T11:52:00Z</time><name>PT3753</name></trkpt>
<trkpt lat="51.551283" lon="03.801591"><ele>29.8</ele><time>2022-11-15T11:52:01Z</time><name>PT3754</name></trkpt>
<trkpt lat="51.551290" lon="03.801588"><ele>29.6</ele><time>2022-11-15T11:52:02Z</time><name>PT3755</name></trkpt>
<trkpt lat="51.551298" lon="03.801582"><ele>29.6</ele><time>2022-11-15T11:52:03Z</time><name>PT3756</name></trkpt>
<trkpt lat="51.551305" lon="03.801577"><ele>29.8</ele><time>2022-11-15T11:52:04Z</time><name>PT3757</name></trkpt>
<trkpt lat="51.551312" lon="03.801573"><ele>29.8</ele><time>2022-11-15T11:52:05Z</time><name>PT3758</name></trkpt>
<trkpt lat="51.551319" lon="03.801570"><ele>30.2</ele><time>2022-11-15T11:52:06Z</time><name>PT3759</name></trkpt>
<trkpt lat="51.551329" lon="03.801571"><ele>30.3</ele><time>2022-11-15T11:52:07Z</time><name>PT3760</name></trkpt>
<trkpt lat="51.551339" lon="03.801573"><ele>30.3</ele><time>2022-11-15T11:52:08Z</time><name>PT3761</name></trkpt>
<trkpt lat="51.551348" lon="03.801571"><ele>30</ele><time>2022-11-15T11:52:09Z</time><name>PT3762</name></trkpt>
<trkpt lat="51.551357" lon="03.801564"><ele>29.9</ele><time>2022-11-15T11:52:10Z</time><name>PT3763</name></trkpt>
<trkpt lat="51.551367" lon="03.801558"><ele>29.6</ele><time>2022-11-15T11:52:11Z</time><name>PT3764</name></trkpt>
<trkpt lat="51.551374" lon="03.801553"><ele>29.8</ele><time>2022-11-15T11:52:12Z</time><name>PT3765</name></trkpt>
<trkpt lat="51.551381" lon="03.801548"><ele>29.8</ele><time>2022-11-15T11:52:13Z</time><name>PT3766</name></trkpt>
<trkpt lat="51.551388" lon="03.801544"><ele>29.8</ele><time>2022-11-15T11:52:14Z</time><name>PT3767</name></trkpt>
<trkpt lat="51.551397" lon="03.801540"><ele>29.8</ele><time>2022-11-15T11:52:15Z</time><name>PT3768</name></trkpt>
<trkpt lat="51.551405" lon="03.801533"><ele>29.8</ele><time>2022-11-15T11:52:16Z</time><name>PT3769</name></trkpt>
<trkpt lat="51.551412" lon="03.801526"><ele>29.4</ele><time>2022-11-15T11:52:17Z</time><name>PT3770</name></trkpt>
<trkpt lat="51.551419" lon="03.801520"><ele>29.3</ele><time>2022-11-15T11:52:18Z</time><name>PT3771</name></trkpt>
<trkpt lat="51.551427" lon="03.801515"><ele>29.2</ele><time>2022-11-15T11:52:19Z</time><name>PT3772</name></trkpt>
<trkpt lat="51.551437" lon="03.801510"><ele>29.1</ele><time>2022-11-15T11:52:20Z</time><name>PT3773</name></trkpt>
<trkpt lat="51.551447" lon="03.801505"><ele>29.1</ele><time>2022-11-15T11:52:21Z</time><name>PT3774</name></trkpt>
<trkpt lat="51.551456" lon="03.801496"><ele>29.3</ele><time>2022-11-15T11:52:22Z</time><name>PT3775</name></trkpt>
<trkpt lat="51.551463" lon="03.801487"><ele>29.3</ele><time>2022-11-15T11:52:23Z</time><name>PT3776</name></trkpt>
<trkpt lat="51.551470" lon="03.801481"><ele>29.2</ele><time>2022-11-15T11:52:24Z</time><name>PT3777</name></trkpt>
<trkpt lat="51.551478" lon="03.801477"><ele>29.1</ele><time>2022-11-15T11:52:25Z</time><name>PT3778</name></trkpt>
<trkpt lat="51.551486" lon="03.801472"><ele>29</ele><time>2022-11-15T11:52:26Z</time><name>PT3779</name></trkpt>
<trkpt lat="51.551495" lon="03.801467"><ele>28.8</ele><time>2022-11-15T11:52:27Z</time><name>PT3780</name></trkpt>
<trkpt lat="51.551503" lon="03.801462"><ele>28.9</ele><time>2022-11-15T11:52:28Z</time><name>PT3781</name></trkpt>
<trkpt lat="51.551511" lon="03.801455"><ele>29</ele><time>2022-11-15T11:52:29Z</time><name>PT3782</name></trkpt>
<trkpt lat="51.551516" lon="03.801448"><ele>28.9</ele><time>2022-11-15T11:52:30Z</time><name>PT3783</name></trkpt>
<trkpt lat="51.551522" lon="03.801444"><ele>28.8</ele><time>2022-11-15T11:52:31Z</time><name>PT3784</name></trkpt>
<trkpt lat="51.551530" lon="03.801440"><ele>29.1</ele><time>2022-11-15T11:52:32Z</time><name>PT3785</name></trkpt>
<trkpt lat="51.551538" lon="03.801434"><ele>29.3</ele><time>2022-11-15T11:52:33Z</time><name>PT3786</name></trkpt>
<trkpt lat="51.551546" lon="03.801427"><ele>29.3</ele><time>2022-11-15T11:52:34Z</time><name>PT3787</name></trkpt>
<trkpt lat="51.551555" lon="03.801417"><ele>29.6</ele><time>2022-11-15T11:52:35Z</time><name>PT3788</name></trkpt>
<trkpt lat="51.551563" lon="03.801409"><ele>29.7</ele><time>2022-11-15T11:52:36Z</time><name>PT3789</name></trkpt>
<trkpt lat="51.551570" lon="03.801405"><ele>29.6</ele><time>2022-11-15T11:52:37Z</time><name>PT3790</name></trkpt>
<trkpt lat="51.551579" lon="03.801402"><ele>29.6</ele><time>2022-11-15T11:52:38Z</time><name>PT3791</name></trkpt>
<trkpt lat="51.551587" lon="03.801399"><ele>29.5</ele><time>2022-11-15T11:52:39Z</time><name>PT3792</name></trkpt>
<trkpt lat="51.551597" lon="03.801395"><ele>29.3</ele><time>2022-11-15T11:52:40Z</time><name>PT3793</name></trkpt>
<trkpt lat="51.551605" lon="03.801388"><ele>29.3</ele><time>2022-11-15T11:52:41Z</time><name>PT3794</name></trkpt>
<trkpt lat="51.551612" lon="03.801381"><ele>29</ele><time>2022-11-15T11:52:42Z</time><name>PT3795</name></trkpt>
<trkpt lat="51.551617" lon="03.801375"><ele>29</ele><time>2022-11-15T11:52:43Z</time><name>PT3796</name></trkpt>
<trkpt lat="51.551623" lon="03.801373"><ele>28.8</ele><time>2022-11-15T11:52:44Z</time><name>PT3797</name></trkpt>
<trkpt lat="51.551629" lon="03.801367"><ele>29</ele><time>2022-11-15T11:52:45Z</time><name>PT3798</name></trkpt>
<trkpt lat="51.551634" lon="03.801360"><ele>29.1</ele><time>2022-11-15T11:52:46Z</time><name>PT3799</name></trkpt>
<trkpt lat="51.551638" lon="03.801356"><ele>28.9</ele><time>2022-11-15T11:52:47Z</time><name>PT3800</name></trkpt>
<trkpt lat="51.551643" lon="03.801354"><ele>29</ele><time>2022-11-15T11:52:48Z</time><name>PT3801</name></trkpt>
<trkpt lat="51.551649" lon="03.801350"><ele>29</ele><time>2022-11-15T11:52:49Z</time><name>PT3802</name></trkpt>
<trkpt lat="51.551653" lon="03.801345"><ele>29</ele><time>2022-11-15T11:52:50Z</time><name>PT3803</name></trkpt>
<trkpt lat="51.551658" lon="03.801342"><ele>29.2</ele><time>2022-11-15T11:52:51Z</time><name>PT3804</name></trkpt>
<trkpt lat="51.551664" lon="03.801337"><ele>29.3</ele><time>2022-11-15T11:52:52Z</time><name>PT3805</name></trkpt>
<trkpt lat="51.551670" lon="03.801331"><ele>29.2</ele><time>2022-11-15T11:52:53Z</time><name>PT3806</name></trkpt>
<trkpt lat="51.551676" lon="03.801326"><ele>29.3</ele><time>2022-11-15T11:52:54Z</time><name>PT3807</name></trkpt>
<trkpt lat="51.551679" lon="03.801327"><ele>29.5</ele><time>2022-11-15T11:52:55Z</time><name>PT3808</name></trkpt>
<trkpt lat="51.551681" lon="03.801323"><ele>29.6</ele><time>2022-11-15T11:52:56Z</time><name>PT3809</name></trkpt>
<trkpt lat="51.551684" lon="03.801322"><ele>29.5</ele><time>2022-11-15T11:52:57Z</time><name>PT3810</name></trkpt>
<trkpt lat="51.551687" lon="03.801321"><ele>29.5</ele><time>2022-11-15T11:52:58Z</time><name>PT3811</name></trkpt>
<trkpt lat="51.551686" lon="03.801317"><ele>29.5</ele><time>2022-11-15T11:52:59Z</time><name>PT3812</name></trkpt>
<trkpt lat="51.551691" lon="03.801318"><ele>29.4</ele><time>2022-11-15T11:53:00Z</time><name>PT3813</name></trkpt>
<trkpt lat="51.551697" lon="03.801311"><ele>29.3</ele><time>2022-11-15T11:53:01Z</time><name>PT3814</name></trkpt>
<trkpt lat="51.551699" lon="03.801303"><ele>29.1</ele><time>2022-11-15T11:53:02Z</time><name>PT3815</name></trkpt>
<trkpt lat="51.551698" lon="03.801301"><ele>29.1</ele><time>2022-11-15T11:53:03Z</time><name>PT3816</name></trkpt>
<trkpt lat="51.551698" lon="03.801296"><ele>29.3</ele><time>2022-11-15T11:53:04Z</time><name>PT3817</name></trkpt>
<trkpt lat="51.551700" lon="03.801287"><ele>29.1</ele><time>2022-11-15T11:53:05Z</time><name>PT3818</name></trkpt>
<trkpt lat="51.551699" lon="03.801285"><ele>29.3</ele><time>2022-11-15T11:53:06Z</time><name>PT3819</name></trkpt>
<trkpt lat="51.551696" lon="03.801286"><ele>29.6</ele><time>2022-11-15T11:53:07Z</time><name>PT3820</name></trkpt>
<trkpt lat="51.551695" lon="03.801285"><ele>29.6</ele><time>2022-11-15T11:53:08Z</time><name>PT3821</name></trkpt>
<trkpt lat="51.551698" lon="03.801285"><ele>29.5</ele><time>2022-11-15T11:53:09Z</time><name>PT3822</name></trkpt>
<trkpt lat="51.551702" lon="03.801285"><ele>29.7</ele><time>2022-11-15T11:53:10Z</time><name>PT3823</name></trkpt>
<trkpt lat="51.551707" lon="03.801285"><ele>29.4</ele><time>2022-11-15T11:53:11Z</time><name>PT3824</name></trkpt>
<trkpt lat="51.551712" lon="03.801281"><ele>29.3</ele><time>2022-11-15T11:53:12Z</time><name>PT3825</name></trkpt>
<trkpt lat="51.551715" lon="03.801277"><ele>29.2</ele><time>2022-11-15T11:53:13Z</time><name>PT3826</name></trkpt>
<trkpt lat="51.551718" lon="03.801275"><ele>29.3</ele><time>2022-11-15T11:53:14Z</time><name>PT3827</name></trkpt>
<trkpt lat="51.551720" lon="03.801275"><ele>29.2</ele><time>2022-11-15T11:53:15Z</time><name>PT3828</name></trkpt>
<trkpt lat="51.551723" lon="03.801272"><ele>29.1</ele><time>2022-11-15T11:53:16Z</time><name>PT3829</name></trkpt>
<trkpt lat="51.551726" lon="03.801269"><ele>28.9</ele><time>2022-11-15T11:53:17Z</time><name>PT3830</name></trkpt>
<trkpt lat="51.551730" lon="03.801268"><ele>29</ele><time>2022-11-15T11:53:18Z</time><name>PT3831</name></trkpt>
<trkpt lat="51.551736" lon="03.801266"><ele>29</ele><time>2022-11-15T11:53:19Z</time><name>PT3832</name></trkpt>
<trkpt lat="51.551740" lon="03.801262"><ele>28.9</ele><time>2022-11-15T11:53:20Z</time><name>PT3833</name></trkpt>
<trkpt lat="51.551745" lon="03.801260"><ele>29</ele><time>2022-11-15T11:53:21Z</time><name>PT3834</name></trkpt>
<trkpt lat="51.551752" lon="03.801258"><ele>29.2</ele><time>2022-11-15T11:53:22Z</time><name>PT3835</name></trkpt>
<trkpt lat="51.551758" lon="03.801255"><ele>29.3</ele><time>2022-11-15T11:53:23Z</time><name>PT3836</name></trkpt>
<trkpt lat="51.551764" lon="03.801250"><ele>29.2</ele><time>2022-11-15T11:53:24Z</time><name>PT3837</name></trkpt>
<trkpt lat="51.551770" lon="03.801247"><ele>29.3</ele><time>2022-11-15T11:53:25Z</time><name>PT3838</name></trkpt>
<trkpt lat="51.551777" lon="03.801245"><ele>29.4</ele><time>2022-11-15T11:53:26Z</time><name>PT3839</name></trkpt>
<trkpt lat="51.551785" lon="03.801243"><ele>29.6</ele><time>2022-11-15T11:53:27Z</time><name>PT3840</name></trkpt>
<trkpt lat="51.551790" lon="03.801242"><ele>29.6</ele><time>2022-11-15T11:53:28Z</time><name>PT3841</name></trkpt>
<trkpt lat="51.551794" lon="03.801239"><ele>29.7</ele><time>2022-11-15T11:53:29Z</time><name>PT3842</name></trkpt>
<trkpt lat="51.551798" lon="03.801236"><ele>29.8</ele><time>2022-11-15T11:53:30Z</time><name>PT3843</name></trkpt>
<trkpt lat="51.551801" lon="03.801237"><ele>29.4</ele><time>2022-11-15T11:53:31Z</time><name>PT3844</name></trkpt>
<trkpt lat="51.551807" lon="03.801243"><ele>29.3</ele><time>2022-11-15T11:53:32Z</time><name>PT3845</name></trkpt>
<trkpt lat="51.551813" lon="03.801248"><ele>29.1</ele><time>2022-11-15T11:53:33Z</time><name>PT3846</name></trkpt>
<trkpt lat="51.551819" lon="03.801249"><ele>28.8</ele><time>2022-11-15T11:53:34Z</time><name>PT3847</name></trkpt>
<trkpt lat="51.551826" lon="03.801248"><ele>28.7</ele><time>2022-11-15T11:53:35Z</time><name>PT3848</name></trkpt>
<trkpt lat="51.551834" lon="03.801245"><ele>28.9</ele><time>2022-11-15T11:53:36Z</time><name>PT3849</name></trkpt>
<trkpt lat="51.551839" lon="03.801243"><ele>28.9</ele><time>2022-11-15T11:53:37Z</time><name>PT3850</name></trkpt>
<trkpt lat="51.551844" lon="03.801239"><ele>29.1</ele><time>2022-11-15T11:53:38Z</time><name>PT3851</name></trkpt>
<trkpt lat="51.551852" lon="03.801234"><ele>29.3</ele><time>2022-11-15T11:53:39Z</time><name>PT3852</name></trkpt>
<trkpt lat="51.551860" lon="03.801230"><ele>29.3</ele><time>2022-11-15T11:53:40Z</time><name>PT3853</name></trkpt>
<trkpt lat="51.551866" lon="03.801225"><ele>29.3</ele><time>2022-11-15T11:53:41Z</time><name>PT3854</name></trkpt>
<trkpt lat="51.551873" lon="03.801217"><ele>29.3</ele><time>2022-11-15T11:53:42Z</time><name>PT3855</name></trkpt>
<trkpt lat="51.551881" lon="03.801214"><ele>29.1</ele><time>2022-11-15T11:53:43Z</time><name>PT3856</name></trkpt>
<trkpt lat="51.551888" lon="03.801209"><ele>28.9</ele><time>2022-11-15T11:53:44Z</time><name>PT3857</name></trkpt>
<trkpt lat="51.551898" lon="03.801203"><ele>28.9</ele><time>2022-11-15T11:53:45Z</time><name>PT3858</name></trkpt>
<trkpt lat="51.551907" lon="03.801195"><ele>29</ele><time>2022-11-15T11:53:46Z</time><name>PT3859</name></trkpt>
<trkpt lat="51.551915" lon="03.801190"><ele>29</ele><time>2022-11-15T11:53:47Z</time><name>PT3860</name></trkpt>
<trkpt lat="51.551923" lon="03.801187"><ele>29.1</ele><time>2022-11-15T11:53:48Z</time><name>PT3861</name></trkpt>
<trkpt lat="51.551930" lon="03.801179"><ele>29.2</ele><time>2022-11-15T11:53:49Z</time><name>PT3862</name></trkpt>
<trkpt lat="51.551939" lon="03.801176"><ele>29.1</ele><time>2022-11-15T11:53:50Z</time><name>PT3863</name></trkpt>
<trkpt lat="51.551950" lon="03.801174"><ele>29</ele><time>2022-11-15T11:53:51Z</time><name>PT3864</name></trkpt>
<trkpt lat="51.551959" lon="03.801169"><ele>29</ele><time>2022-11-15T11:53:52Z</time><name>PT3865</name></trkpt>
<trkpt lat="51.551969" lon="03.801164"><ele>29</ele><time>2022-11-15T11:53:53Z</time><name>PT3866</name></trkpt>
<trkpt lat="51.551977" lon="03.801158"><ele>29</ele><time>2022-11-15T11:53:54Z</time><name>PT3867</name></trkpt>
<trkpt lat="51.551985" lon="03.801152"><ele>29</ele><time>2022-11-15T11:53:55Z</time><name>PT3868</name></trkpt>
<trkpt lat="51.551993" lon="03.801149"><ele>29.1</ele><time>2022-11-15T11:53:56Z</time><name>PT3869</name></trkpt>
<trkpt lat="51.551999" lon="03.801147"><ele>29.1</ele><time>2022-11-15T11:53:57Z</time><name>PT3870</name></trkpt>
<trkpt lat="51.552007" lon="03.801146"><ele>29.1</ele><time>2022-11-15T11:53:58Z</time><name>PT3871</name></trkpt>
<trkpt lat="51.552016" lon="03.801143"><ele>29.1</ele><time>2022-11-15T11:53:59Z</time><name>PT3872</name></trkpt>
<trkpt lat="51.552025" lon="03.801138"><ele>29.2</ele><time>2022-11-15T11:54:00Z</time><name>PT3873</name></trkpt>
<trkpt lat="51.552033" lon="03.801132"><ele>29.2</ele><time>2022-11-15T11:54:01Z</time><name>PT3874</name></trkpt>
<trkpt lat="51.552042" lon="03.801127"><ele>29.2</ele><time>2022-11-15T11:54:02Z</time><name>PT3875</name></trkpt>
<trkpt lat="51.552050" lon="03.801122"><ele>29.2</ele><time>2022-11-15T11:54:03Z</time><name>PT3876</name></trkpt>
<trkpt lat="51.552059" lon="03.801119"><ele>29.4</ele><time>2022-11-15T11:54:04Z</time><name>PT3877</name></trkpt>
<trkpt lat="51.552068" lon="03.801117"><ele>29.3</ele><time>2022-11-15T11:54:05Z</time><name>PT3878</name></trkpt>
<trkpt lat="51.552078" lon="03.801112"><ele>29.4</ele><time>2022-11-15T11:54:06Z</time><name>PT3879</name></trkpt>
<trkpt lat="51.552089" lon="03.801106"><ele>29.5</ele><time>2022-11-15T11:54:07Z</time><name>PT3880</name></trkpt>
<trkpt lat="51.552099" lon="03.801100"><ele>29.4</ele><time>2022-11-15T11:54:08Z</time><name>PT3881</name></trkpt>
<trkpt lat="51.552107" lon="03.801096"><ele>29.3</ele><time>2022-11-15T11:54:09Z</time><name>PT3882</name></trkpt>
<trkpt lat="51.552116" lon="03.801095"><ele>29.3</ele><time>2022-11-15T11:54:10Z</time><name>PT3883</name></trkpt>
<trkpt lat="51.552127" lon="03.801090"><ele>29.3</ele><time>2022-11-15T11:54:11Z</time><name>PT3884</name></trkpt>
<trkpt lat="51.552139" lon="03.801088"><ele>29.2</ele><time>2022-11-15T11:54:12Z</time><name>PT3885</name></trkpt>
<trkpt lat="51.552151" lon="03.801081"><ele>29.2</ele><time>2022-11-15T11:54:13Z</time><name>PT3886</name></trkpt>
<trkpt lat="51.552160" lon="03.801074"><ele>29.1</ele><time>2022-11-15T11:54:14Z</time><name>PT3887</name></trkpt>
<trkpt lat="51.552162" lon="03.801070"><ele>29.1</ele><time>2022-11-15T11:54:15Z</time><name>PT3888</name></trkpt>
<trkpt lat="51.552168" lon="03.801066"><ele>28.7</ele><time>2022-11-15T11:54:16Z</time><name>PT3889</name></trkpt>
<trkpt lat="51.552176" lon="03.801066"><ele>28.5</ele><time>2022-11-15T11:54:17Z</time><name>PT3890</name></trkpt>
<trkpt lat="51.552187" lon="03.801067"><ele>28.3</ele><time>2022-11-15T11:54:18Z</time><name>PT3891</name></trkpt>
<trkpt lat="51.552193" lon="03.801061"><ele>28.2</ele><time>2022-11-15T11:54:19Z</time><name>PT3892</name></trkpt>
<trkpt lat="51.552198" lon="03.801055"><ele>28.3</ele><time>2022-11-15T11:54:20Z</time><name>PT3893</name></trkpt>
<trkpt lat="51.552201" lon="03.801051"><ele>28.3</ele><time>2022-11-15T11:54:21Z</time><name>PT3894</name></trkpt>
<trkpt lat="51.552208" lon="03.801049"><ele>28.5</ele><time>2022-11-15T11:54:22Z</time><name>PT3895</name></trkpt>
<trkpt lat="51.552220" lon="03.801052"><ele>28.4</ele><time>2022-11-15T11:54:23Z</time><name>PT3896</name></trkpt>
<trkpt lat="51.552233" lon="03.801050"><ele>28.4</ele><time>2022-11-15T11:54:24Z</time><name>PT3897</name></trkpt>
<trkpt lat="51.552246" lon="03.801048"><ele>28.4</ele><time>2022-11-15T11:54:25Z</time><name>PT3898</name></trkpt>
<trkpt lat="51.552256" lon="03.801042"><ele>28.5</ele><time>2022-11-15T11:54:26Z</time><name>PT3899</name></trkpt>
<trkpt lat="51.552263" lon="03.801035"><ele>28.6</ele><time>2022-11-15T11:54:27Z</time><name>PT3900</name></trkpt>
<trkpt lat="51.552267" lon="03.801031"><ele>28.8</ele><time>2022-11-15T11:54:28Z</time><name>PT3901</name></trkpt>
<trkpt lat="51.552273" lon="03.801028"><ele>28.9</ele><time>2022-11-15T11:54:29Z</time><name>PT3902</name></trkpt>
<trkpt lat="51.552287" lon="03.801024"><ele>28.8</ele><time>2022-11-15T11:54:30Z</time><name>PT3903</name></trkpt>
<trkpt lat="51.552302" lon="03.801020"><ele>28.9</ele><time>2022-11-15T11:54:31Z</time><name>PT3904</name></trkpt>
<trkpt lat="51.552307" lon="03.801018"><ele>28.8</ele><time>2022-11-15T11:54:32Z</time><name>PT3905</name></trkpt>
<trkpt lat="51.552310" lon="03.801016"><ele>28.5</ele><time>2022-11-15T11:54:33Z</time><name>PT3906</name></trkpt>
<trkpt lat="51.552313" lon="03.801014"><ele>28.3</ele><time>2022-11-15T11:54:34Z</time><name>PT3907</name></trkpt>
<trkpt lat="51.552319" lon="03.801012"><ele>28.4</ele><time>2022-11-15T11:54:35Z</time><name>PT3908</name></trkpt>
<trkpt lat="51.552331" lon="03.801009"><ele>28.2</ele><time>2022-11-15T11:54:36Z</time><name>PT3909</name></trkpt>
<trkpt lat="51.552346" lon="03.801010"><ele>28.3</ele><time>2022-11-15T11:54:37Z</time><name>PT3910</name></trkpt>
<trkpt lat="51.552356" lon="03.801006"><ele>28.7</ele><time>2022-11-15T11:54:38Z</time><name>PT3911</name></trkpt>
<trkpt lat="51.552366" lon="03.801000"><ele>28.8</ele><time>2022-11-15T11:54:39Z</time><name>PT3912</name></trkpt>
<trkpt lat="51.552369" lon="03.800997"><ele>28.9</ele><time>2022-11-15T11:54:40Z</time><name>PT3913</name></trkpt>
<trkpt lat="51.552374" lon="03.800994"><ele>28.9</ele><time>2022-11-15T11:54:41Z</time><name>PT3914</name></trkpt>
<trkpt lat="51.552386" lon="03.800988"><ele>28.9</ele><time>2022-11-15T11:54:42Z</time><name>PT3915</name></trkpt>
<trkpt lat="51.552394" lon="03.800984"><ele>29</ele><time>2022-11-15T11:54:43Z</time><name>PT3916</name></trkpt>
<trkpt lat="51.552402" lon="03.800982"><ele>28.7</ele><time>2022-11-15T11:54:44Z</time><name>PT3917</name></trkpt>
<trkpt lat="51.552406" lon="03.800976"><ele>28.6</ele><time>2022-11-15T11:54:45Z</time><name>PT3918</name></trkpt>
<trkpt lat="51.552410" lon="03.800973"><ele>28.8</ele><time>2022-11-15T11:54:46Z</time><name>PT3919</name></trkpt>
<trkpt lat="51.552416" lon="03.800971"><ele>28.8</ele><time>2022-11-15T11:54:47Z</time><name>PT3920</name></trkpt>
<trkpt lat="51.552426" lon="03.800967"><ele>28.3</ele><time>2022-11-15T11:54:48Z</time><name>PT3921</name></trkpt>
<trkpt lat="51.552438" lon="03.800963"><ele>28.4</ele><time>2022-11-15T11:54:49Z</time><name>PT3922</name></trkpt>
<trkpt lat="51.552449" lon="03.800955"><ele>28.5</ele><time>2022-11-15T11:54:50Z</time><name>PT3923</name></trkpt>
<trkpt lat="51.552454" lon="03.800950"><ele>28.5</ele><time>2022-11-15T11:54:51Z</time><name>PT3924</name></trkpt>
<trkpt lat="51.552456" lon="03.800948"><ele>28.3</ele><time>2022-11-15T11:54:52Z</time><name>PT3925</name></trkpt>
<trkpt lat="51.552460" lon="03.800946"><ele>28.1</ele><time>2022-11-15T11:54:53Z</time><name>PT3926</name></trkpt>
<trkpt lat="51.552471" lon="03.800944"><ele>27.9</ele><time>2022-11-15T11:54:54Z</time><name>PT3927</name></trkpt>
<trkpt lat="51.552487" lon="03.800944"><ele>27.7</ele><time>2022-11-15T11:54:55Z</time><name>PT3928</name></trkpt>
<trkpt lat="51.552493" lon="03.800942"><ele>27.6</ele><time>2022-11-15T11:54:56Z</time><name>PT3929</name></trkpt>
<trkpt lat="51.552496" lon="03.800939"><ele>27.7</ele><time>2022-11-15T11:54:57Z</time><name>PT3930</name></trkpt>
<trkpt lat="51.552504" lon="03.800935"><ele>27.8</ele><time>2022-11-15T11:54:58Z</time><name>PT3931</name></trkpt>
<trkpt lat="51.552515" lon="03.800930"><ele>27.9</ele><time>2022-11-15T11:54:59Z</time><name>PT3932</name></trkpt>
<trkpt lat="51.552523" lon="03.800923"><ele>27.8</ele><time>2022-11-15T11:55:00Z</time><name>PT3933</name></trkpt>
<trkpt lat="51.552528" lon="03.800919"><ele>27.9</ele><time>2022-11-15T11:55:01Z</time><name>PT3934</name></trkpt>
<trkpt lat="51.552533" lon="03.800917"><ele>27.9</ele><time>2022-11-15T11:55:02Z</time><name>PT3935</name></trkpt>
<trkpt lat="51.552539" lon="03.800916"><ele>28</ele><time>2022-11-15T11:55:03Z</time><name>PT3936</name></trkpt>
<trkpt lat="51.552549" lon="03.800915"><ele>28</ele><time>2022-11-15T11:55:04Z</time><name>PT3937</name></trkpt>
<trkpt lat="51.552553" lon="03.800916"><ele>28</ele><time>2022-11-15T11:55:05Z</time><name>PT3938</name></trkpt>
<trkpt lat="51.552552" lon="03.800914"><ele>27.9</ele><time>2022-11-15T11:55:06Z</time><name>PT3939</name></trkpt>
<trkpt lat="51.552554" lon="03.800913"><ele>27.7</ele><time>2022-11-15T11:55:07Z</time><name>PT3940</name></trkpt>
<trkpt lat="51.552556" lon="03.800912"><ele>27.5</ele><time>2022-11-15T11:55:08Z</time><name>PT3941</name></trkpt>
<trkpt lat="51.552560" lon="03.800912"><ele>27.3</ele><time>2022-11-15T11:55:09Z</time><name>PT3942</name></trkpt>
<trkpt lat="51.552559" lon="03.800908"><ele>27.6</ele><time>2022-11-15T11:55:11Z</time><name>PT3943</name></trkpt>
<trkpt lat="51.552563" lon="03.800906"><ele>27.9</ele><time>2022-11-15T11:55:12Z</time><name>PT3944</name></trkpt>
<trkpt lat="51.552573" lon="03.800905"><ele>28</ele><time>2022-11-15T11:55:13Z</time><name>PT3945</name></trkpt>
<trkpt lat="51.552579" lon="03.800901"><ele>28.4</ele><time>2022-11-15T11:55:14Z</time><name>PT3946</name></trkpt>
<trkpt lat="51.552584" lon="03.800898"><ele>28.5</ele><time>2022-11-15T11:55:15Z</time><name>PT3947</name></trkpt>
<trkpt lat="51.552591" lon="03.800896"><ele>28.8</ele><time>2022-11-15T11:55:16Z</time><name>PT3948</name></trkpt>
<trkpt lat="51.552600" lon="03.800896"><ele>28.8</ele><time>2022-11-15T11:55:17Z</time><name>PT3949</name></trkpt>
<trkpt lat="51.552615" lon="03.800896"><ele>28.7</ele><time>2022-11-15T11:55:18Z</time><name>PT3950</name></trkpt>
<trkpt lat="51.552629" lon="03.800896"><ele>28.8</ele><time>2022-11-15T11:55:19Z</time><name>PT3951</name></trkpt>
<trkpt lat="51.552638" lon="03.800891"><ele>28.8</ele><time>2022-11-15T11:55:20Z</time><name>PT3952</name></trkpt>
<trkpt lat="51.552645" lon="03.800887"><ele>28.9</ele><time>2022-11-15T11:55:21Z</time><name>PT3953</name></trkpt>
<trkpt lat="51.552652" lon="03.800883"><ele>28.9</ele><time>2022-11-15T11:55:22Z</time><name>PT3954</name></trkpt>
<trkpt lat="51.552659" lon="03.800882"><ele>29.1</ele><time>2022-11-15T11:55:23Z</time><name>PT3955</name></trkpt>
<trkpt lat="51.552669" lon="03.800882"><ele>29.1</ele><time>2022-11-15T11:55:24Z</time><name>PT3956</name></trkpt>
<trkpt lat="51.552681" lon="03.800879"><ele>28.9</ele><time>2022-11-15T11:55:25Z</time><name>PT3957</name></trkpt>
<trkpt lat="51.552691" lon="03.800873"><ele>28.7</ele><time>2022-11-15T11:55:26Z</time><name>PT3958</name></trkpt>
<trkpt lat="51.552698" lon="03.800868"><ele>28.7</ele><time>2022-11-15T11:55:27Z</time><name>PT3959</name></trkpt>
<trkpt lat="51.552703" lon="03.800865"><ele>28.5</ele><time>2022-11-15T11:55:28Z</time><name>PT3960</name></trkpt>
<trkpt lat="51.552708" lon="03.800862"><ele>28.4</ele><time>2022-11-15T11:55:29Z</time><name>PT3961</name></trkpt>
<trkpt lat="51.552716" lon="03.800863"><ele>28.3</ele><time>2022-11-15T11:55:30Z</time><name>PT3962</name></trkpt>
<trkpt lat="51.552727" lon="03.800862"><ele>28.5</ele><time>2022-11-15T11:55:31Z</time><name>PT3963</name></trkpt>
<trkpt lat="51.552740" lon="03.800860"><ele>28.5</ele><time>2022-11-15T11:55:32Z</time><name>PT3964</name></trkpt>
<trkpt lat="51.552750" lon="03.800855"><ele>28.3</ele><time>2022-11-15T11:55:33Z</time><name>PT3965</name></trkpt>
<trkpt lat="51.552755" lon="03.800851"><ele>28.4</ele><time>2022-11-15T11:55:34Z</time><name>PT3966</name></trkpt>
<trkpt lat="51.552760" lon="03.800846"><ele>28.4</ele><time>2022-11-15T11:55:35Z</time><name>PT3967</name></trkpt>
<trkpt lat="51.552766" lon="03.800843"><ele>28.2</ele><time>2022-11-15T11:55:36Z</time><name>PT3968</name></trkpt>
<trkpt lat="51.552773" lon="03.800841"><ele>28.2</ele><time>2022-11-15T11:55:37Z</time><name>PT3969</name></trkpt>
<trkpt lat="51.552781" lon="03.800838"><ele>28</ele><time>2022-11-15T11:55:38Z</time><name>PT3970</name></trkpt>
<trkpt lat="51.552791" lon="03.800838"><ele>27.7</ele><time>2022-11-15T11:55:39Z</time><name>PT3971</name></trkpt>
<trkpt lat="51.552800" lon="03.800835"><ele>27.6</ele><time>2022-11-15T11:55:40Z</time><name>PT3972</name></trkpt>
<trkpt lat="51.552805" lon="03.800833"><ele>27.7</ele><time>2022-11-15T11:55:41Z</time><name>PT3973</name></trkpt>
<trkpt lat="51.552815" lon="03.800832"><ele>27.7</ele><time>2022-11-15T11:55:42Z</time><name>PT3974</name></trkpt>
<trkpt lat="51.552825" lon="03.800828"><ele>27.6</ele><time>2022-11-15T11:55:43Z</time><name>PT3975</name></trkpt>
<trkpt lat="51.552832" lon="03.800826"><ele>27.6</ele><time>2022-11-15T11:55:44Z</time><name>PT3976</name></trkpt>
<trkpt lat="51.552835" lon="03.800818"><ele>27.9</ele><time>2022-11-15T11:55:45Z</time><name>PT3977</name></trkpt>
<trkpt lat="51.552841" lon="03.800823"><ele>28.1</ele><time>2022-11-15T11:55:46Z</time><name>PT3978</name></trkpt>
<trkpt lat="51.552848" lon="03.800824"><ele>28.2</ele><time>2022-11-15T11:55:47Z</time><name>PT3979</name></trkpt>
<trkpt lat="51.552856" lon="03.800823"><ele>28.5</ele><time>2022-11-15T11:55:48Z</time><name>PT3980</name></trkpt>
<trkpt lat="51.552861" lon="03.800823"><ele>28.8</ele><time>2022-11-15T11:55:49Z</time><name>PT3981</name></trkpt>
<trkpt lat="51.552864" lon="03.800823"><ele>28.4</ele><time>2022-11-15T11:55:50Z</time><name>PT3982</name></trkpt>
<trkpt lat="51.552870" lon="03.800824"><ele>28.1</ele><time>2022-11-15T11:55:51Z</time><name>PT3983</name></trkpt>
<trkpt lat="51.552876" lon="03.800822"><ele>27.8</ele><time>2022-11-15T11:55:52Z</time><name>PT3984</name></trkpt>
<trkpt lat="51.552882" lon="03.800819"><ele>27.4</ele><time>2022-11-15T11:55:53Z</time><name>PT3985</name></trkpt>
<trkpt lat="51.552888" lon="03.800815"><ele>27.2</ele><time>2022-11-15T11:55:54Z</time><name>PT3986</name></trkpt>
<trkpt lat="51.552894" lon="03.800808"><ele>27.5</ele><time>2022-11-15T11:55:55Z</time><name>PT3987</name></trkpt>
<trkpt lat="51.552902" lon="03.800803"><ele>27.7</ele><time>2022-11-15T11:55:56Z</time><name>PT3988</name></trkpt>
<trkpt lat="51.552914" lon="03.800802"><ele>27.9</ele><time>2022-11-15T11:55:57Z</time><name>PT3989</name></trkpt>
<trkpt lat="51.552926" lon="03.800798"><ele>28.1</ele><time>2022-11-15T11:55:58Z</time><name>PT3990</name></trkpt>
<trkpt lat="51.552934" lon="03.800795"><ele>28.2</ele><time>2022-11-15T11:55:59Z</time><name>PT3991</name></trkpt>
<trkpt lat="51.552939" lon="03.800790"><ele>28.1</ele><time>2022-11-15T11:56:00Z</time><name>PT3992</name></trkpt>
<trkpt lat="51.552947" lon="03.800787"><ele>28</ele><time>2022-11-15T11:56:01Z</time><name>PT3993</name></trkpt>
<trkpt lat="51.552960" lon="03.800787"><ele>28.3</ele><time>2022-11-15T11:56:02Z</time><name>PT3994</name></trkpt>
<trkpt lat="51.552973" lon="03.800786"><ele>28.3</ele><time>2022-11-15T11:56:03Z</time><name>PT3995</name></trkpt>
<trkpt lat="51.552978" lon="03.800785"><ele>28.3</ele><time>2022-11-15T11:56:04Z</time><name>PT3996</name></trkpt>
<trkpt lat="51.552985" lon="03.800785"><ele>28.6</ele><time>2022-11-15T11:56:05Z</time><name>PT3997</name></trkpt>
<trkpt lat="51.552997" lon="03.800784"><ele>28.8</ele><time>2022-11-15T11:56:06Z</time><name>PT3998</name></trkpt>
<trkpt lat="51.553007" lon="03.800779"><ele>29</ele><time>2022-11-15T11:56:06Z</time><name>PT3999</name></trkpt>
<trkpt lat="51.553011" lon="03.800775"><ele>29.1</ele><time>2022-11-15T11:56:08Z</time><name>PT4000</name></trkpt>
<trkpt lat="51.553016" lon="03.800769"><ele>29.1</ele><time>2022-11-15T11:56:09Z</time><name>PT4001</name></trkpt>
<trkpt lat="51.553030" lon="03.800769"><ele>28.8</ele><time>2022-11-15T11:56:10Z</time><name>PT4002</name></trkpt>
<trkpt lat="51.553045" lon="03.800771"><ele>28.7</ele><time>2022-11-15T11:56:11Z</time><name>PT4003</name></trkpt>
<trkpt lat="51.553052" lon="03.800771"><ele>28.3</ele><time>2022-11-15T11:56:12Z</time><name>PT4004</name></trkpt>
<trkpt lat="51.553054" lon="03.800768"><ele>28.1</ele><time>2022-11-15T11:56:13Z</time><name>PT4005</name></trkpt>
<trkpt lat="51.553057" lon="03.800764"><ele>28.2</ele><time>2022-11-15T11:56:14Z</time><name>PT4006</name></trkpt>
<trkpt lat="51.553067" lon="03.800758"><ele>28.2</ele><time>2022-11-15T11:56:15Z</time><name>PT4007</name></trkpt>
<trkpt lat="51.553080" lon="03.800754"><ele>28.3</ele><time>2022-11-15T11:56:16Z</time><name>PT4008</name></trkpt>
<trkpt lat="51.553087" lon="03.800751"><ele>28.5</ele><time>2022-11-15T11:56:17Z</time><name>PT4009</name></trkpt>
<trkpt lat="51.553089" lon="03.800749"><ele>28.7</ele><time>2022-11-15T11:56:18Z</time><name>PT4010</name></trkpt>
<trkpt lat="51.553098" lon="03.800751"><ele>28.7</ele><time>2022-11-15T11:56:19Z</time><name>PT4011</name></trkpt>
<trkpt lat="51.553114" lon="03.800752"><ele>28.6</ele><time>2022-11-15T11:56:20Z</time><name>PT4012</name></trkpt>
<trkpt lat="51.553129" lon="03.800753"><ele>28.4</ele><time>2022-11-15T11:56:21Z</time><name>PT4013</name></trkpt>
<trkpt lat="51.553139" lon="03.800748"><ele>28.3</ele><time>2022-11-15T11:56:22Z</time><name>PT4014</name></trkpt>
<trkpt lat="51.553142" lon="03.800742"><ele>28.2</ele><time>2022-11-15T11:56:23Z</time><name>PT4015</name></trkpt>
<trkpt lat="51.553144" lon="03.800737"><ele>28</ele><time>2022-11-15T11:56:23Z</time><name>PT4016</name></trkpt>
<trkpt lat="51.553153" lon="03.800736"><ele>27.7</ele><time>2022-11-15T11:56:25Z</time><name>PT4017</name></trkpt>
<trkpt lat="51.553167" lon="03.800737"><ele>27.7</ele><time>2022-11-15T11:56:26Z</time><name>PT4018</name></trkpt>
<trkpt lat="51.553180" lon="03.800731"><ele>27.4</ele><time>2022-11-15T11:56:27Z</time><name>PT4019</name></trkpt>
<trkpt lat="51.553187" lon="03.800725"><ele>27.4</ele><time>2022-11-15T11:56:28Z</time><name>PT4020</name></trkpt>
<trkpt lat="51.553193" lon="03.800720"><ele>27.5</ele><time>2022-11-15T11:56:29Z</time><name>PT4021</name></trkpt>
<trkpt lat="51.553200" lon="03.800715"><ele>27.7</ele><time>2022-11-15T11:56:30Z</time><name>PT4022</name></trkpt>
<trkpt lat="51.553211" lon="03.800713"><ele>27.8</ele><time>2022-11-15T11:56:31Z</time><name>PT4023</name></trkpt>
<trkpt lat="51.553220" lon="03.800709"><ele>28.1</ele><time>2022-11-15T11:56:32Z</time><name>PT4024</name></trkpt>
<trkpt lat="51.553224" lon="03.800703"><ele>28.3</ele><time>2022-11-15T11:56:33Z</time><name>PT4025</name></trkpt>
<trkpt lat="51.553227" lon="03.800698"><ele>28.3</ele><time>2022-11-15T11:56:34Z</time><name>PT4026</name></trkpt>
<trkpt lat="51.553236" lon="03.800695"><ele>28.6</ele><time>2022-11-15T11:56:35Z</time><name>PT4027</name></trkpt>
<trkpt lat="51.553249" lon="03.800690"><ele>28.6</ele><time>2022-11-15T11:56:36Z</time><name>PT4028</name></trkpt>
<trkpt lat="51.553264" lon="03.800686"><ele>28.8</ele><time>2022-11-15T11:56:37Z</time><name>PT4029</name></trkpt>
<trkpt lat="51.553275" lon="03.800684"><ele>28.9</ele><time>2022-11-15T11:56:38Z</time><name>PT4030</name></trkpt>
<trkpt lat="51.553279" lon="03.800683"><ele>28.8</ele><time>2022-11-15T11:56:39Z</time><name>PT4031</name></trkpt>
<trkpt lat="51.553281" lon="03.800681"><ele>28.7</ele><time>2022-11-15T11:56:40Z</time><name>PT4032</name></trkpt>
<trkpt lat="51.553288" lon="03.800674"><ele>28.3</ele><time>2022-11-15T11:56:41Z</time><name>PT4033</name></trkpt>
<trkpt lat="51.553300" lon="03.800671"><ele>27.9</ele><time>2022-11-15T11:56:42Z</time><name>PT4034</name></trkpt>
<trkpt lat="51.553307" lon="03.800667"><ele>27.8</ele><time>2022-11-15T11:56:43Z</time><name>PT4035</name></trkpt>
<trkpt lat="51.553311" lon="03.800663"><ele>27.7</ele><time>2022-11-15T11:56:44Z</time><name>PT4036</name></trkpt>
<trkpt lat="51.553315" lon="03.800661"><ele>27.6</ele><time>2022-11-15T11:56:45Z</time><name>PT4037</name></trkpt>
<trkpt lat="51.553319" lon="03.800658"><ele>27.9</ele><time>2022-11-15T11:56:46Z</time><name>PT4038</name></trkpt>
<trkpt lat="51.553327" lon="03.800656"><ele>28.6</ele><time>2022-11-15T11:56:47Z</time><name>PT4039</name></trkpt>
<trkpt lat="51.553338" lon="03.800653"><ele>28.7</ele><time>2022-11-15T11:56:48Z</time><name>PT4040</name></trkpt>
<trkpt lat="51.553346" lon="03.800646"><ele>28.7</ele><time>2022-11-15T11:56:49Z</time><name>PT4041</name></trkpt>
<trkpt lat="51.553348" lon="03.800644"><ele>28.8</ele><time>2022-11-15T11:56:50Z</time><name>PT4042</name></trkpt>
<trkpt lat="51.553356" lon="03.800644"><ele>28.7</ele><time>2022-11-15T11:56:51Z</time><name>PT4043</name></trkpt>
<trkpt lat="51.553365" lon="03.800640"><ele>28.4</ele><time>2022-11-15T11:56:52Z</time><name>PT4044</name></trkpt>
<trkpt lat="51.553368" lon="03.800637"><ele>28.3</ele><time>2022-11-15T11:56:53Z</time><name>PT4045</name></trkpt>
<trkpt lat="51.553374" lon="03.800634"><ele>28.3</ele><time>2022-11-15T11:56:54Z</time><name>PT4046</name></trkpt>
<trkpt lat="51.553384" lon="03.800623"><ele>28.3</ele><time>2022-11-15T11:56:55Z</time><name>PT4047</name></trkpt>
<trkpt lat="51.553388" lon="03.800619"><ele>28.3</ele><time>2022-11-15T11:56:56Z</time><name>PT4048</name></trkpt>
<trkpt lat="51.553393" lon="03.800618"><ele>28.4</ele><time>2022-11-15T11:56:57Z</time><name>PT4049</name></trkpt>
<trkpt lat="51.553402" lon="03.800610"><ele>28.6</ele><time>2022-11-15T11:56:58Z</time><name>PT4050</name></trkpt>
<trkpt lat="51.553408" lon="03.800607"><ele>28.8</ele><time>2022-11-15T11:56:59Z</time><name>PT4051</name></trkpt>
<trkpt lat="51.553410" lon="03.800601"><ele>29.2</ele><time>2022-11-15T11:57:00Z</time><name>PT4052</name></trkpt>
<trkpt lat="51.553416" lon="03.800603"><ele>29.4</ele><time>2022-11-15T11:57:01Z</time><name>PT4053</name></trkpt>
<trkpt lat="51.553424" lon="03.800604"><ele>29.5</ele><time>2022-11-15T11:57:02Z</time><name>PT4054</name></trkpt>
<trkpt lat="51.553429" lon="03.800603"><ele>29.6</ele><time>2022-11-15T11:57:03Z</time><name>PT4055</name></trkpt>
<trkpt lat="51.553433" lon="03.800600"><ele>29.5</ele><time>2022-11-15T11:57:04Z</time><name>PT4056</name></trkpt>
<trkpt lat="51.553437" lon="03.800599"><ele>29.7</ele><time>2022-11-15T11:57:05Z</time><name>PT4057</name></trkpt>
<trkpt lat="51.553448" lon="03.800603"><ele>29.6</ele><time>2022-11-15T11:57:06Z</time><name>PT4058</name></trkpt>
<trkpt lat="51.553460" lon="03.800598"><ele>29.3</ele><time>2022-11-15T11:57:07Z</time><name>PT4059</name></trkpt>
<trkpt lat="51.553468" lon="03.800591"><ele>29.1</ele><time>2022-11-15T11:57:08Z</time><name>PT4060</name></trkpt>
<trkpt lat="51.553470" lon="03.800589"><ele>28.8</ele><time>2022-11-15T11:57:09Z</time><name>PT4061</name></trkpt>
<trkpt lat="51.553472" lon="03.800587"><ele>28.6</ele><time>2022-11-15T11:57:10Z</time><name>PT4062</name></trkpt>
<trkpt lat="51.553480" lon="03.800587"><ele>28.5</ele><time>2022-11-15T11:57:11Z</time><name>PT4063</name></trkpt>
<trkpt lat="51.553493" lon="03.800583"><ele>28.8</ele><time>2022-11-15T11:57:12Z</time><name>PT4064</name></trkpt>
<trkpt lat="51.553505" lon="03.800577"><ele>28.9</ele><time>2022-11-15T11:57:13Z</time><name>PT4065</name></trkpt>
<trkpt lat="51.553512" lon="03.800573"><ele>29.1</ele><time>2022-11-15T11:57:14Z</time><name>PT4066</name></trkpt>
<trkpt lat="51.553515" lon="03.800569"><ele>29.2</ele><time>2022-11-15T11:57:15Z</time><name>PT4067</name></trkpt>
<trkpt lat="51.553519" lon="03.800566"><ele>29.4</ele><time>2022-11-15T11:57:16Z</time><name>PT4068</name></trkpt>
<trkpt lat="51.553528" lon="03.800565"><ele>29.4</ele><time>2022-11-15T11:57:17Z</time><name>PT4069</name></trkpt>
<trkpt lat="51.553541" lon="03.800564"><ele>28.9</ele><time>2022-11-15T11:57:18Z</time><name>PT4070</name></trkpt>
<trkpt lat="51.553553" lon="03.800561"><ele>28.9</ele><time>2022-11-15T11:57:19Z</time><name>PT4071</name></trkpt>
<trkpt lat="51.553563" lon="03.800560"><ele>28.8</ele><time>2022-11-15T11:57:20Z</time><name>PT4072</name></trkpt>
<trkpt lat="51.553569" lon="03.800559"><ele>28.8</ele><time>2022-11-15T11:57:21Z</time><name>PT4073</name></trkpt>
<trkpt lat="51.553574" lon="03.800556"><ele>28.8</ele><time>2022-11-15T11:57:22Z</time><name>PT4074</name></trkpt>
<trkpt lat="51.553583" lon="03.800552"><ele>28.8</ele><time>2022-11-15T11:57:23Z</time><name>PT4075</name></trkpt>
<trkpt lat="51.553595" lon="03.800547"><ele>28.8</ele><time>2022-11-15T11:57:24Z</time><name>PT4076</name></trkpt>
<trkpt lat="51.553604" lon="03.800543"><ele>28.6</ele><time>2022-11-15T11:57:25Z</time><name>PT4077</name></trkpt>
<trkpt lat="51.553605" lon="03.800536"><ele>28.4</ele><time>2022-11-15T11:57:26Z</time><name>PT4078</name></trkpt>
<trkpt lat="51.553610" lon="03.800530"><ele>28.5</ele><time>2022-11-15T11:57:27Z</time><name>PT4079</name></trkpt>
<trkpt lat="51.553622" lon="03.800529"><ele>28.8</ele><time>2022-11-15T11:57:28Z</time><name>PT4080</name></trkpt>
<trkpt lat="51.553633" lon="03.800527"><ele>28.8</ele><time>2022-11-15T11:57:29Z</time><name>PT4081</name></trkpt>
<trkpt lat="51.553640" lon="03.800522"><ele>29</ele><time>2022-11-15T11:57:30Z</time><name>PT4082</name></trkpt>
<trkpt lat="51.553649" lon="03.800519"><ele>29.3</ele><time>2022-11-15T11:57:31Z</time><name>PT4083</name></trkpt>
<trkpt lat="51.553654" lon="03.800515"><ele>29.4</ele><time>2022-11-15T11:57:32Z</time><name>PT4084</name></trkpt>
<trkpt lat="51.553668" lon="03.800511"><ele>29.4</ele><time>2022-11-15T11:57:33Z</time><name>PT4085</name></trkpt>
<trkpt lat="51.553684" lon="03.800508"><ele>29.6</ele><time>2022-11-15T11:57:34Z</time><name>PT4086</name></trkpt>
<trkpt lat="51.553698" lon="03.800502"><ele>29.4</ele><time>2022-11-15T11:57:35Z</time><name>PT4087</name></trkpt>
<trkpt lat="51.553707" lon="03.800499"><ele>29.4</ele><time>2022-11-15T11:57:36Z</time><name>PT4088</name></trkpt>
<trkpt lat="51.553711" lon="03.800496"><ele>29.3</ele><time>2022-11-15T11:57:37Z</time><name>PT4089</name></trkpt>
<trkpt lat="51.553713" lon="03.800492"><ele>29.2</ele><time>2022-11-15T11:57:38Z</time><name>PT4090</name></trkpt>
<trkpt lat="51.553728" lon="03.800491"><ele>29.3</ele><time>2022-11-15T11:57:39Z</time><name>PT4091</name></trkpt>
<trkpt lat="51.553738" lon="03.800488"><ele>29.5</ele><time>2022-11-15T11:57:40Z</time><name>PT4092</name></trkpt>
<trkpt lat="51.553739" lon="03.800479"><ele>29.4</ele><time>2022-11-15T11:57:41Z</time><name>PT4093</name></trkpt>
<trkpt lat="51.553738" lon="03.800473"><ele>29.5</ele><time>2022-11-15T11:57:42Z</time><name>PT4094</name></trkpt>
<trkpt lat="51.553742" lon="03.800470"><ele>29.7</ele><time>2022-11-15T11:57:43Z</time><name>PT4095</name></trkpt>
<trkpt lat="51.553751" lon="03.800467"><ele>29.5</ele><time>2022-11-15T11:57:44Z</time><name>PT4096</name></trkpt>
<trkpt lat="51.553766" lon="03.800464"><ele>29.3</ele><time>2022-11-15T11:57:45Z</time><name>PT4097</name></trkpt>
<trkpt lat="51.553776" lon="03.800458"><ele>29.1</ele><time>2022-11-15T11:57:46Z</time><name>PT4098</name></trkpt>
<trkpt lat="51.553781" lon="03.800456"><ele>29</ele><time>2022-11-15T11:57:47Z</time><name>PT4099</name></trkpt>
<trkpt lat="51.553785" lon="03.800455"><ele>29</ele><time>2022-11-15T11:57:48Z</time><name>PT4100</name></trkpt>
<trkpt lat="51.553793" lon="03.800455"><ele>29</ele><time>2022-11-15T11:57:49Z</time><name>PT4101</name></trkpt>
<trkpt lat="51.553804" lon="03.800455"><ele>29.2</ele><time>2022-11-15T11:57:50Z</time><name>PT4102</name></trkpt>
<trkpt lat="51.553816" lon="03.800451"><ele>29.3</ele><time>2022-11-15T11:57:51Z</time><name>PT4103</name></trkpt>
<trkpt lat="51.553823" lon="03.800444"><ele>29.3</ele><time>2022-11-15T11:57:52Z</time><name>PT4104</name></trkpt>
<trkpt lat="51.553825" lon="03.800439"><ele>29.2</ele><time>2022-11-15T11:57:53Z</time><name>PT4105</name></trkpt>
<trkpt lat="51.553830" lon="03.800439"><ele>29.2</ele><time>2022-11-15T11:57:54Z</time><name>PT4106</name></trkpt>
<trkpt lat="51.553840" lon="03.800437"><ele>29</ele><time>2022-11-15T11:57:55Z</time><name>PT4107</name></trkpt>
<trkpt lat="51.553853" lon="03.800434"><ele>29</ele><time>2022-11-15T11:57:56Z</time><name>PT4108</name></trkpt>
<trkpt lat="51.553862" lon="03.800433"><ele>28.9</ele><time>2022-11-15T11:57:57Z</time><name>PT4109</name></trkpt>
<trkpt lat="51.553864" lon="03.800430"><ele>28.8</ele><time>2022-11-15T11:57:58Z</time><name>PT4110</name></trkpt>
<trkpt lat="51.553872" lon="03.800427"><ele>28.9</ele><time>2022-11-15T11:57:59Z</time><name>PT4111</name></trkpt>
<trkpt lat="51.553885" lon="03.800423"><ele>29</ele><time>2022-11-15T11:58:00Z</time><name>PT4112</name></trkpt>
<trkpt lat="51.553895" lon="03.800416"><ele>29</ele><time>2022-11-15T11:58:01Z</time><name>PT4113</name></trkpt>
<trkpt lat="51.553900" lon="03.800417"><ele>29.3</ele><time>2022-11-15T11:58:02Z</time><name>PT4114</name></trkpt>
<trkpt lat="51.553903" lon="03.800418"><ele>29.3</ele><time>2022-11-15T11:58:03Z</time><name>PT4115</name></trkpt>
<trkpt lat="51.553908" lon="03.800417"><ele>29.2</ele><time>2022-11-15T11:58:04Z</time><name>PT4116</name></trkpt>
<trkpt lat="51.553918" lon="03.800413"><ele>28.8</ele><time>2022-11-15T11:58:05Z</time><name>PT4117</name></trkpt>
<trkpt lat="51.553928" lon="03.800407"><ele>28.7</ele><time>2022-11-15T11:58:06Z</time><name>PT4118</name></trkpt>
<trkpt lat="51.553932" lon="03.800404"><ele>28.6</ele><time>2022-11-15T11:58:07Z</time><name>PT4119</name></trkpt>
<trkpt lat="51.553941" lon="03.800402"><ele>28.4</ele><time>2022-11-15T11:58:08Z</time><name>PT4120</name></trkpt>
<trkpt lat="51.553954" lon="03.800402"><ele>28.5</ele><time>2022-11-15T11:58:09Z</time><name>PT4121</name></trkpt>
<trkpt lat="51.553961" lon="03.800402"><ele>28.4</ele><time>2022-11-15T11:58:10Z</time><name>PT4122</name></trkpt>
<trkpt lat="51.553964" lon="03.800400"><ele>28.3</ele><time>2022-11-15T11:58:11Z</time><name>PT4123</name></trkpt>
<trkpt lat="51.553973" lon="03.800395"><ele>28.2</ele><time>2022-11-15T11:58:12Z</time><name>PT4124</name></trkpt>
<trkpt lat="51.553981" lon="03.800392"><ele>28.2</ele><time>2022-11-15T11:58:13Z</time><name>PT4125</name></trkpt>
<trkpt lat="51.553985" lon="03.800391"><ele>28.1</ele><time>2022-11-15T11:58:14Z</time><name>PT4126</name></trkpt>
<trkpt lat="51.553990" lon="03.800388"><ele>28.2</ele><time>2022-11-15T11:58:15Z</time><name>PT4127</name></trkpt>
<trkpt lat="51.554002" lon="03.800384"><ele>28.3</ele><time>2022-11-15T11:58:16Z</time><name>PT4128</name></trkpt>
<trkpt lat="51.554014" lon="03.800380"><ele>28.5</ele><time>2022-11-15T11:58:17Z</time><name>PT4129</name></trkpt>
<trkpt lat="51.554021" lon="03.800376"><ele>28.8</ele><time>2022-11-15T11:58:18Z</time><name>PT4130</name></trkpt>
<trkpt lat="51.554023" lon="03.800373"><ele>29.2</ele><time>2022-11-15T11:58:19Z</time><name>PT4131</name></trkpt>
<trkpt lat="51.554032" lon="03.800377"><ele>29.3</ele><time>2022-11-15T11:58:20Z</time><name>PT4132</name></trkpt>
<trkpt lat="51.554046" lon="03.800382"><ele>29.5</ele><time>2022-11-15T11:58:21Z</time><name>PT4133</name></trkpt>
<trkpt lat="51.554053" lon="03.800380"><ele>29.7</ele><time>2022-11-15T11:58:22Z</time><name>PT4134</name></trkpt>
<trkpt lat="51.554058" lon="03.800378"><ele>29.9</ele><time>2022-11-15T11:58:23Z</time><name>PT4135</name></trkpt>
<trkpt lat="51.554067" lon="03.800377"><ele>29.9</ele><time>2022-11-15T11:58:24Z</time><name>PT4136</name></trkpt>
<trkpt lat="51.554080" lon="03.800377"><ele>29.8</ele><time>2022-11-15T11:58:25Z</time><name>PT4137</name></trkpt>
<trkpt lat="51.554090" lon="03.800378"><ele>29.6</ele><time>2022-11-15T11:58:26Z</time><name>PT4138</name></trkpt>
<trkpt lat="51.554093" lon="03.800374"><ele>29.8</ele><time>2022-11-15T11:58:27Z</time><name>PT4139</name></trkpt>
<trkpt lat="51.554100" lon="03.800374"><ele>29.9</ele><time>2022-11-15T11:58:28Z</time><name>PT4140</name></trkpt>
<trkpt lat="51.554112" lon="03.800379"><ele>30.2</ele><time>2022-11-15T11:58:29Z</time><name>PT4141</name></trkpt>
<trkpt lat="51.554121" lon="03.800383"><ele>30.3</ele><time>2022-11-15T11:58:30Z</time><name>PT4142</name></trkpt>
<trkpt lat="51.554127" lon="03.800385"><ele>30.3</ele><time>2022-11-15T11:58:31Z</time><name>PT4143</name></trkpt>
<trkpt lat="51.554133" lon="03.800388"><ele>30.5</ele><time>2022-11-15T11:58:32Z</time><name>PT4144</name></trkpt>
<trkpt lat="51.554144" lon="03.800393"><ele>30.7</ele><time>2022-11-15T11:58:33Z</time><name>PT4145</name></trkpt>
<trkpt lat="51.554154" lon="03.800405"><ele>30.8</ele><time>2022-11-15T11:58:34Z</time><name>PT4146</name></trkpt>
<trkpt lat="51.554163" lon="03.800418"><ele>30.9</ele><time>2022-11-15T11:58:35Z</time><name>PT4147</name></trkpt>
<trkpt lat="51.554169" lon="03.800425"><ele>30.7</ele><time>2022-11-15T11:58:36Z</time><name>PT4148</name></trkpt>
<trkpt lat="51.554169" lon="03.800427"><ele>30.4</ele><time>2022-11-15T11:58:37Z</time><name>PT4149</name></trkpt>
<trkpt lat="51.554173" lon="03.800435"><ele>29.9</ele><time>2022-11-15T11:58:38Z</time><name>PT4150</name></trkpt>
<trkpt lat="51.554177" lon="03.800443"><ele>29.8</ele><time>2022-11-15T11:58:39Z</time><name>PT4151</name></trkpt>
<trkpt lat="51.554180" lon="03.800449"><ele>29.8</ele><time>2022-11-15T11:58:40Z</time><name>PT4152</name></trkpt>
<trkpt lat="51.554181" lon="03.800462"><ele>30</ele><time>2022-11-15T11:58:41Z</time><name>PT4153</name></trkpt>
<trkpt lat="51.554185" lon="03.800478"><ele>30.1</ele><time>2022-11-15T11:58:42Z</time><name>PT4154</name></trkpt>
<trkpt lat="51.554187" lon="03.800483"><ele>30.3</ele><time>2022-11-15T11:58:43Z</time><name>PT4155</name></trkpt>
<trkpt lat="51.554188" lon="03.800491"><ele>30.2</ele><time>2022-11-15T11:58:44Z</time><name>PT4156</name></trkpt>
<trkpt lat="51.554193" lon="03.800510"><ele>30</ele><time>2022-11-15T11:58:45Z</time><name>PT4157</name></trkpt>
<trkpt lat="51.554199" lon="03.800531"><ele>29.8</ele><time>2022-11-15T11:58:46Z</time><name>PT4158</name></trkpt>
<trkpt lat="51.554202" lon="03.800545"><ele>29.8</ele><time>2022-11-15T11:58:47Z</time><name>PT4159</name></trkpt>
<trkpt lat="51.554204" lon="03.800548"><ele>29.8</ele><time>2022-11-15T11:58:48Z</time><name>PT4160</name></trkpt>
<trkpt lat="51.554207" lon="03.800553"><ele>29.8</ele><time>2022-11-15T11:58:49Z</time><name>PT4161</name></trkpt>
<trkpt lat="51.554210" lon="03.800568"><ele>29.9</ele><time>2022-11-15T11:58:50Z</time><name>PT4162</name></trkpt>
<trkpt lat="51.554213" lon="03.800587"><ele>30.1</ele><time>2022-11-15T11:58:51Z</time><name>PT4163</name></trkpt>
<trkpt lat="51.554218" lon="03.800600"><ele>29.9</ele><time>2022-11-15T11:58:52Z</time><name>PT4164</name></trkpt>
<trkpt lat="51.554222" lon="03.800606"><ele>29.8</ele><time>2022-11-15T11:58:53Z</time><name>PT4165</name></trkpt>
<trkpt lat="51.554226" lon="03.800613"><ele>29.9</ele><time>2022-11-15T11:58:54Z</time><name>PT4166</name></trkpt>
<trkpt lat="51.554228" lon="03.800628"><ele>29.8</ele><time>2022-11-15T11:58:55Z</time><name>PT4167</name></trkpt>
<trkpt lat="51.554231" lon="03.800647"><ele>29.5</ele><time>2022-11-15T11:58:56Z</time><name>PT4168</name></trkpt>
<trkpt lat="51.554234" lon="03.800666"><ele>29.3</ele><time>2022-11-15T11:58:57Z</time><name>PT4169</name></trkpt>
<trkpt lat="51.554238" lon="03.800679"><ele>29</ele><time>2022-11-15T11:58:58Z</time><name>PT4170</name></trkpt>
<trkpt lat="51.554242" lon="03.800687"><ele>29</ele><time>2022-11-15T11:58:59Z</time><name>PT4171</name></trkpt>
<trkpt lat="51.554246" lon="03.800697"><ele>29.1</ele><time>2022-11-15T11:59:00Z</time><name>PT4172</name></trkpt>
<trkpt lat="51.554245" lon="03.800712"><ele>29.1</ele><time>2022-11-15T11:59:01Z</time><name>PT4173</name></trkpt>
<trkpt lat="51.554248" lon="03.800730"><ele>29.2</ele><time>2022-11-15T11:59:02Z</time><name>PT4174</name></trkpt>
<trkpt lat="51.554252" lon="03.800747"><ele>29.1</ele><time>2022-11-15T11:59:03Z</time><name>PT4175</name></trkpt>
<trkpt lat="51.554257" lon="03.800758"><ele>29</ele><time>2022-11-15T11:59:03Z</time><name>PT4176</name></trkpt>
<trkpt lat="51.554261" lon="03.800765"><ele>29</ele><time>2022-11-15T11:59:05Z</time><name>PT4177</name></trkpt>
<trkpt lat="51.554264" lon="03.800774"><ele>29.2</ele><time>2022-11-15T11:59:06Z</time><name>PT4178</name></trkpt>
<trkpt lat="51.554268" lon="03.800787"><ele>29.3</ele><time>2022-11-15T11:59:07Z</time><name>PT4179</name></trkpt>
<trkpt lat="51.554274" lon="03.800809"><ele>29.4</ele><time>2022-11-15T11:59:08Z</time><name>PT4180</name></trkpt>
<trkpt lat="51.554283" lon="03.800831"><ele>29.7</ele><time>2022-11-15T11:59:08Z</time><name>PT4181</name></trkpt>
<trkpt lat="51.554290" lon="03.800849"><ele>29.7</ele><time>2022-11-15T11:59:10Z</time><name>PT4182</name></trkpt>
<trkpt lat="51.554293" lon="03.800860"><ele>29.8</ele><time>2022-11-15T11:59:11Z</time><name>PT4183</name></trkpt>
<trkpt lat="51.554297" lon="03.800868"><ele>29.9</ele><time>2022-11-15T11:59:12Z</time><name>PT4184</name></trkpt>
<trkpt lat="51.554300" lon="03.800877"><ele>29.8</ele><time>2022-11-15T11:59:13Z</time><name>PT4185</name></trkpt>
<trkpt lat="51.554302" lon="03.800895"><ele>29.8</ele><time>2022-11-15T11:59:14Z</time><name>PT4186</name></trkpt>
<trkpt lat="51.554302" lon="03.800919"><ele>29.8</ele><time>2022-11-15T11:59:15Z</time><name>PT4187</name></trkpt>
<trkpt lat="51.554305" lon="03.800940"><ele>29.8</ele><time>2022-11-15T11:59:16Z</time><name>PT4188</name></trkpt>
<trkpt lat="51.554307" lon="03.800948"><ele>29.8</ele><time>2022-11-15T11:59:16Z</time><name>PT4189</name></trkpt>
<trkpt lat="51.554309" lon="03.800949"><ele>29.8</ele><time>2022-11-15T11:59:18Z</time><name>PT4190</name></trkpt>
<trkpt lat="51.554312" lon="03.800955"><ele>29.8</ele><time>2022-11-15T11:59:19Z</time><name>PT4191</name></trkpt>
<trkpt lat="51.554318" lon="03.800971"><ele>29.8</ele><time>2022-11-15T11:59:20Z</time><name>PT4192</name></trkpt>
<trkpt lat="51.554321" lon="03.800981"><ele>30</ele><time>2022-11-15T11:59:21Z</time><name>PT4193</name></trkpt>
<trkpt lat="51.554319" lon="03.800984"><ele>29.9</ele><time>2022-11-15T11:59:22Z</time><name>PT4194</name></trkpt>
<trkpt lat="51.554319" lon="03.800989"><ele>29.9</ele><time>2022-11-15T11:59:23Z</time><name>PT4195</name></trkpt>
<trkpt lat="51.554323" lon="03.801000"><ele>30</ele><time>2022-11-15T11:59:24Z</time><name>PT4196</name></trkpt>
<trkpt lat="51.554324" lon="03.801007"><ele>29.9</ele><time>2022-11-15T11:59:24Z</time><name>PT4197</name></trkpt>
<trkpt lat="51.554327" lon="03.801018"><ele>29.8</ele><time>2022-11-15T11:59:26Z</time><name>PT4198</name></trkpt>
<trkpt lat="51.554330" lon="03.801035"><ele>29.7</ele><time>2022-11-15T11:59:26Z</time><name>PT4199</name></trkpt>
<trkpt lat="51.554332" lon="03.801045"><ele>29.5</ele><time>2022-11-15T11:59:28Z</time><name>PT4200</name></trkpt>
<trkpt lat="51.554333" lon="03.801048"><ele>29.5</ele><time>2022-11-15T11:59:29Z</time><name>PT4201</name></trkpt>
<trkpt lat="51.554334" lon="03.801056"><ele>29.7</ele><time>2022-11-15T11:59:30Z</time><name>PT4202</name></trkpt>
<trkpt lat="51.554331" lon="03.801067"><ele>29.6</ele><time>2022-11-15T11:59:31Z</time><name>PT4203</name></trkpt>
<trkpt lat="51.554332" lon="03.801074"><ele>29.6</ele><time>2022-11-15T11:59:32Z</time><name>PT4204</name></trkpt>
<trkpt lat="51.554333" lon="03.801078"><ele>29.7</ele><time>2022-11-15T11:59:33Z</time><name>PT4205</name></trkpt>
<trkpt lat="51.554334" lon="03.801087"><ele>29.6</ele><time>2022-11-15T11:59:34Z</time><name>PT4206</name></trkpt>
<trkpt lat="51.554337" lon="03.801101"><ele>29.8</ele><time>2022-11-15T11:59:35Z</time><name>PT4207</name></trkpt>
<trkpt lat="51.554340" lon="03.801109"><ele>29.8</ele><time>2022-11-15T11:59:36Z</time><name>PT4208</name></trkpt>
<trkpt lat="51.554343" lon="03.801116"><ele>29.7</ele><time>2022-11-15T11:59:37Z</time><name>PT4209</name></trkpt>
<trkpt lat="51.554349" lon="03.801131"><ele>29.7</ele><time>2022-11-15T11:59:38Z</time><name>PT4210</name></trkpt>
<trkpt lat="51.554357" lon="03.801145"><ele>29.8</ele><time>2022-11-15T11:59:39Z</time><name>PT4211</name></trkpt>
<trkpt lat="51.554360" lon="03.801154"><ele>29.5</ele><time>2022-11-15T11:59:40Z</time><name>PT4212</name></trkpt>
<trkpt lat="51.554362" lon="03.801159"><ele>29.5</ele><time>2022-11-15T11:59:41Z</time><name>PT4213</name></trkpt>
<trkpt lat="51.554365" lon="03.801177"><ele>29.4</ele><time>2022-11-15T11:59:42Z</time><name>PT4214</name></trkpt>
<trkpt lat="51.554370" lon="03.801191"><ele>29.4</ele><time>2022-11-15T11:59:42Z</time><name>PT4215</name></trkpt>
<trkpt lat="51.554376" lon="03.801198"><ele>29.3</ele><time>2022-11-15T11:59:44Z</time><name>PT4216</name></trkpt>
<trkpt lat="51.554380" lon="03.801203"><ele>29.2</ele><time>2022-11-15T11:59:45Z</time><name>PT4217</name></trkpt>
<trkpt lat="51.554385" lon="03.801216"><ele>29.2</ele><time>2022-11-15T11:59:46Z</time><name>PT4218</name></trkpt>
<trkpt lat="51.554392" lon="03.801229"><ele>29.3</ele><time>2022-11-15T11:59:47Z</time><name>PT4219</name></trkpt>
<trkpt lat="51.554398" lon="03.801235"><ele>29.4</ele><time>2022-11-15T11:59:48Z</time><name>PT4220</name></trkpt>
<trkpt lat="51.554402" lon="03.801240"><ele>29.3</ele><time>2022-11-15T11:59:49Z</time><name>PT4221</name></trkpt>
<trkpt lat="51.554408" lon="03.801244"><ele>29.5</ele><time>2022-11-15T11:59:50Z</time><name>PT4222</name></trkpt>
<trkpt lat="51.554417" lon="03.801259"><ele>29.5</ele><time>2022-11-15T11:59:51Z</time><name>PT4223</name></trkpt>
<trkpt lat="51.554427" lon="03.801275"><ele>29.5</ele><time>2022-11-15T11:59:52Z</time><name>PT4224</name></trkpt>
<trkpt lat="51.554436" lon="03.801285"><ele>29.4</ele><time>2022-11-15T11:59:53Z</time><name>PT4225</name></trkpt>
<trkpt lat="51.554441" lon="03.801292"><ele>29.7</ele><time>2022-11-15T11:59:54Z</time><name>PT4226</name></trkpt>
<trkpt lat="51.554446" lon="03.801299"><ele>29.7</ele><time>2022-11-15T11:59:55Z</time><name>PT4227</name></trkpt>
<trkpt lat="51.554453" lon="03.801308"><ele>29.8</ele><time>2022-11-15T11:59:55Z</time><name>PT4228</name></trkpt>
<trkpt lat="51.554460" lon="03.801316"><ele>29.8</ele><time>2022-11-15T11:59:57Z</time><name>PT4229</name></trkpt>
<trkpt lat="51.554461" lon="03.801321"><ele>29.8</ele><time>2022-11-15T11:59:58Z</time><name>PT4230</name></trkpt>
<trkpt lat="51.554461" lon="03.801325"><ele>29.8</ele><time>2022-11-15T11:59:59Z</time><name>PT4231</name></trkpt>
<trkpt lat="51.554470" lon="03.801327"><ele>29.8</ele><time>2022-11-15T12:00:00Z</time><name>PT4232</name></trkpt>
<trkpt lat="51.554481" lon="03.801332"><ele>29.8</ele><time>2022-11-15T12:00:01Z</time><name>PT4233</name></trkpt>
<trkpt lat="51.554484" lon="03.801336"><ele>29.9</ele><time>2022-11-15T12:00:02Z</time><name>PT4234</name></trkpt>
<trkpt lat="51.554488" lon="03.801342"><ele>30</ele><time>2022-11-15T12:00:03Z</time><name>PT4235</name></trkpt>
<trkpt lat="51.554491" lon="03.801341"><ele>30.2</ele><time>2022-11-15T12:00:04Z</time><name>PT4236</name></trkpt>
<trkpt lat="51.554492" lon="03.801341"><ele>30.2</ele><time>2022-11-15T12:00:05Z</time><name>PT4237</name></trkpt>
<trkpt lat="51.554495" lon="03.801340"><ele>29.8</ele><time>2022-11-15T12:00:06Z</time><name>PT4238</name></trkpt>
<trkpt lat="51.554494" lon="03.801340"><ele>29.5</ele><time>2022-11-15T12:00:07Z</time><name>PT4239</name></trkpt>
<trkpt lat="51.554494" lon="03.801341"><ele>28.8</ele><time>2022-11-15T12:00:08Z</time><name>PT4240</name></trkpt>
<trkpt lat="51.554496" lon="03.801338"><ele>28.6</ele><time>2022-11-15T12:00:09Z</time><name>PT4241</name></trkpt>
<trkpt lat="51.554499" lon="03.801338"><ele>28.8</ele><time>2022-11-15T12:00:10Z</time><name>PT4242</name></trkpt>
<trkpt lat="51.554500" lon="03.801337"><ele>29.3</ele><time>2022-11-15T12:00:11Z</time><name>PT4243</name></trkpt>
<trkpt lat="51.554505" lon="03.801336"><ele>29.8</ele><time>2022-11-15T12:00:12Z</time><name>PT4244</name></trkpt>
<trkpt lat="51.554509" lon="03.801337"><ele>29.9</ele><time>2022-11-15T12:00:12Z</time><name>PT4245</name></trkpt>
<trkpt lat="51.554513" lon="03.801334"><ele>29.8</ele><time>2022-11-15T12:00:14Z</time><name>PT4246</name></trkpt>
<trkpt lat="51.554518" lon="03.801332"><ele>29.5</ele><time>2022-11-15T12:00:15Z</time><name>PT4247</name></trkpt>
<trkpt lat="51.554528" lon="03.801328"><ele>29.5</ele><time>2022-11-15T12:00:15Z</time><name>PT4248</name></trkpt>
<trkpt lat="51.554538" lon="03.801325"><ele>29.4</ele><time>2022-11-15T12:00:17Z</time><name>PT4249</name></trkpt>
<trkpt lat="51.554540" lon="03.801326"><ele>29.3</ele><time>2022-11-15T12:00:17Z</time><name>PT4250</name></trkpt>
<trkpt lat="51.554542" lon="03.801323"><ele>29.3</ele><time>2022-11-15T12:00:19Z</time><name>PT4251</name></trkpt>
<trkpt lat="51.554548" lon="03.801319"><ele>29.3</ele><time>2022-11-15T12:00:20Z</time><name>PT4252</name></trkpt>
<trkpt lat="51.554553" lon="03.801318"><ele>29.3</ele><time>2022-11-15T12:00:21Z</time><name>PT4253</name></trkpt>
<trkpt lat="51.554560" lon="03.801314"><ele>29.4</ele><time>2022-11-15T12:00:22Z</time><name>PT4254</name></trkpt>
<trkpt lat="51.554572" lon="03.801316"><ele>29.8</ele><time>2022-11-15T12:00:22Z</time><name>PT4255</name></trkpt>
<trkpt lat="51.554583" lon="03.801320"><ele>30.2</ele><time>2022-11-15T12:00:24Z</time><name>PT4256</name></trkpt>
<trkpt lat="51.554593" lon="03.801323"><ele>30.4</ele><time>2022-11-15T12:00:25Z</time><name>PT4257</name></trkpt>
<trkpt lat="51.554603" lon="03.801324"><ele>30.4</ele><time>2022-11-15T12:00:26Z</time><name>PT4258</name></trkpt>
<trkpt lat="51.554612" lon="03.801324"><ele>30.6</ele><time>2022-11-15T12:00:27Z</time><name>PT4259</name></trkpt>
<trkpt lat="51.554620" lon="03.801325"><ele>30.5</ele><time>2022-11-15T12:00:28Z</time><name>PT4260</name></trkpt>
<trkpt lat="51.554628" lon="03.801327"><ele>30.6</ele><time>2022-11-15T12:00:29Z</time><name>PT4261</name></trkpt>
<trkpt lat="51.554639" lon="03.801333"><ele>30.4</ele><time>2022-11-15T12:00:30Z</time><name>PT4262</name></trkpt>
<trkpt lat="51.554649" lon="03.801338"><ele>30.5</ele><time>2022-11-15T12:00:31Z</time><name>PT4263</name></trkpt>
<trkpt lat="51.554658" lon="03.801343"><ele>30.3</ele><time>2022-11-15T12:00:32Z</time><name>PT4264</name></trkpt>
<trkpt lat="51.554668" lon="03.801345"><ele>30.3</ele><time>2022-11-15T12:00:33Z</time><name>PT4265</name></trkpt>
<trkpt lat="51.554676" lon="03.801349"><ele>30.5</ele><time>2022-11-15T12:00:34Z</time><name>PT4266</name></trkpt>
<trkpt lat="51.554684" lon="03.801352"><ele>30.7</ele><time>2022-11-15T12:00:35Z</time><name>PT4267</name></trkpt>
<trkpt lat="51.554692" lon="03.801353"><ele>30.8</ele><time>2022-11-15T12:00:36Z</time><name>PT4268</name></trkpt>
<trkpt lat="51.554701" lon="03.801355"><ele>31.2</ele><time>2022-11-15T12:00:36Z</time><name>PT4269</name></trkpt>
<trkpt lat="51.554710" lon="03.801359"><ele>31.3</ele><time>2022-11-15T12:00:38Z</time><name>PT4270</name></trkpt>
<trkpt lat="51.554717" lon="03.801362"><ele>31.5</ele><time>2022-11-15T12:00:39Z</time><name>PT4271</name></trkpt>
<trkpt lat="51.554725" lon="03.801365"><ele>31.6</ele><time>2022-11-15T12:00:40Z</time><name>PT4272</name></trkpt>
<trkpt lat="51.554731" lon="03.801365"><ele>31.6</ele><time>2022-11-15T12:00:41Z</time><name>PT4273</name></trkpt>
<trkpt lat="51.554736" lon="03.801367"><ele>31.4</ele><time>2022-11-15T12:00:42Z</time><name>PT4274</name></trkpt>
<trkpt lat="51.554742" lon="03.801374"><ele>31.6</ele><time>2022-11-15T12:00:42Z</time><name>PT4275</name></trkpt>
<trkpt lat="51.554747" lon="03.801375"><ele>31.6</ele><time>2022-11-15T12:00:44Z</time><name>PT4276</name></trkpt>
<trkpt lat="51.554758" lon="03.801378"><ele>31.6</ele><time>2022-11-15T12:00:45Z</time><name>PT4277</name></trkpt>
<trkpt lat="51.554767" lon="03.801379"><ele>31.9</ele><time>2022-11-15T12:00:46Z</time><name>PT4278</name></trkpt>
<trkpt lat="51.554778" lon="03.801381"><ele>31.9</ele><time>2022-11-15T12:00:47Z</time><name>PT4279</name></trkpt>
<trkpt lat="51.554787" lon="03.801379"><ele>31.7</ele><time>2022-11-15T12:00:48Z</time><name>PT4280</name></trkpt>
<trkpt lat="51.554797" lon="03.801378"><ele>31.4</ele><time>2022-11-15T12:00:48Z</time><name>PT4281</name></trkpt>
<trkpt lat="51.554805" lon="03.801379"><ele>31.4</ele><time>2022-11-15T12:00:50Z</time><name>PT4282</name></trkpt>
<trkpt lat="51.554818" lon="03.801382"><ele>31.1</ele><time>2022-11-15T12:00:50Z</time><name>PT4283</name></trkpt>
<trkpt lat="51.554829" lon="03.801387"><ele>31.2</ele><time>2022-11-15T12:00:52Z</time><name>PT4284</name></trkpt>
<trkpt lat="51.554837" lon="03.801390"><ele>31.3</ele><time>2022-11-15T12:00:53Z</time><name>PT4285</name></trkpt>
<trkpt lat="51.554847" lon="03.801392"><ele>31.5</ele><time>2022-11-15T12:00:54Z</time><name>PT4286</name></trkpt>
<trkpt lat="51.554858" lon="03.801394"><ele>31.3</ele><time>2022-11-15T12:00:55Z</time><name>PT4287</name></trkpt>
<trkpt lat="51.554868" lon="03.801397"><ele>31.3</ele><time>2022-11-15T12:00:56Z</time><name>PT4288</name></trkpt>
<trkpt lat="51.554881" lon="03.801401"><ele>31.2</ele><time>2022-11-15T12:00:56Z</time><name>PT4289</name></trkpt>
<trkpt lat="51.554892" lon="03.801404"><ele>30.9</ele><time>2022-11-15T12:00:58Z</time><name>PT4290</name></trkpt>
<trkpt lat="51.554898" lon="03.801411"><ele>30.8</ele><time>2022-11-15T12:00:59Z</time><name>PT4291</name></trkpt>
<trkpt lat="51.554906" lon="03.801415"><ele>30.8</ele><time>2022-11-15T12:01:00Z</time><name>PT4292</name></trkpt>
<trkpt lat="51.554915" lon="03.801418"><ele>30.8</ele><time>2022-11-15T12:01:01Z</time><name>PT4293</name></trkpt>
<trkpt lat="51.554923" lon="03.801419"><ele>30.9</ele><time>2022-11-15T12:01:02Z</time><name>PT4294</name></trkpt>
<trkpt lat="51.554930" lon="03.801420"><ele>31</ele><time>2022-11-15T12:01:03Z</time><name>PT4295</name></trkpt>
<trkpt lat="51.554936" lon="03.801423"><ele>31.2</ele><time>2022-11-15T12:01:03Z</time><name>PT4296</name></trkpt>
<trkpt lat="51.554943" lon="03.801427"><ele>31.3</ele><time>2022-11-15T12:01:05Z</time><name>PT4297</name></trkpt>
<trkpt lat="51.554952" lon="03.801431"><ele>31.2</ele><time>2022-11-15T12:01:05Z</time><name>PT4298</name></trkpt>
<trkpt lat="51.554963" lon="03.801436"><ele>31.3</ele><time>2022-11-15T12:01:07Z</time><name>PT4299</name></trkpt>
<trkpt lat="51.554973" lon="03.801437"><ele>31.3</ele><time>2022-11-15T12:01:07Z</time><name>PT4300</name></trkpt>
<trkpt lat="51.554984" lon="03.801439"><ele>31.3</ele><time>2022-11-15T12:01:09Z</time><name>PT4301</name></trkpt>
<trkpt lat="51.554994" lon="03.801441"><ele>31.3</ele><time>2022-11-15T12:01:10Z</time><name>PT4302</name></trkpt>
<trkpt lat="51.555003" lon="03.801441"><ele>31.3</ele><time>2022-11-15T12:01:11Z</time><name>PT4303</name></trkpt>
<trkpt lat="51.555010" lon="03.801446"><ele>31.3</ele><time>2022-11-15T12:01:12Z</time><name>PT4304</name></trkpt>
<trkpt lat="51.555016" lon="03.801447"><ele>31.3</ele><time>2022-11-15T12:01:13Z</time><name>PT4305</name></trkpt>
<trkpt lat="51.555022" lon="03.801447"><ele>3.1</ele><time>2022-11-15T12:01:14Z</time><name>PT4306</name></trkpt>
<trkpt lat="51.555031" lon="03.801446"><ele>3</ele><time>2022-11-15T12:01:14Z</time><name>PT4307</name></trkpt>
<trkpt lat="51.555038" lon="03.801448"><ele>3.2</ele><time>2022-11-15T12:01:16Z</time><name>PT4308</name></trkpt>
<trkpt lat="51.555044" lon="03.801451"><ele>3.1</ele><time>2022-11-15T12:01:17Z</time><name>PT4309</name></trkpt>
<trkpt lat="51.555051" lon="03.801451"><ele>3.2</ele><time>2022-11-15T12:01:18Z</time><name>PT4310</name></trkpt>
<trkpt lat="51.555060" lon="03.801452"><ele>3.1</ele><time>2022-11-15T12:01:19Z</time><name>PT4311</name></trkpt>
<trkpt lat="51.555070" lon="03.801458"><ele>2.9</ele><time>2022-11-15T12:01:20Z</time><name>PT4312</name></trkpt>
<trkpt lat="51.555083" lon="03.801461"><ele>3</ele><time>2022-11-15T12:01:21Z</time><name>PT4313</name></trkpt>
<trkpt lat="51.555092" lon="03.801463"><ele>2.9</ele><time>2022-11-15T12:01:22Z</time><name>PT4314</name></trkpt>
<trkpt lat="51.555102" lon="03.801463"><ele>2.9</ele><time>2022-11-15T12:01:22Z</time><name>PT4315</name></trkpt>
<trkpt lat="51.555110" lon="03.801460"><ele>2.9</ele><time>2022-11-15T12:01:24Z</time><name>PT4316</name></trkpt>
<trkpt lat="51.555121" lon="03.801461"><ele>2.9</ele><time>2022-11-15T12:01:25Z</time><name>PT4317</name></trkpt>
<trkpt lat="51.555131" lon="03.801462"><ele>3</ele><time>2022-11-15T12:01:26Z</time><name>PT4318</name></trkpt>
<trkpt lat="51.555142" lon="03.801465"><ele>3</ele><time>2022-11-15T12:01:26Z</time><name>PT4319</name></trkpt>
<trkpt lat="51.555151" lon="03.801466"><ele>3.2</ele><time>2022-11-15T12:01:28Z</time><name>PT4320</name></trkpt>
<trkpt lat="51.555163" lon="03.801468"><ele>3.2</ele><time>2022-11-15T12:01:29Z</time><name>PT4321</name></trkpt>
<trkpt lat="51.555173" lon="03.801470"><ele>3.2</ele><time>2022-11-15T12:01:30Z</time><name>PT4322</name></trkpt>
<trkpt lat="51.555184" lon="03.801473"><ele>3.2</ele><time>2022-11-15T12:01:31Z</time><name>PT4323</name></trkpt>
<trkpt lat="51.555193" lon="03.801477"><ele>3.3</ele><time>2022-11-15T12:01:32Z</time><name>PT4324</name></trkpt>
<trkpt lat="51.555204" lon="03.801477"><ele>3.5</ele><time>2022-11-15T12:01:33Z</time><name>PT4325</name></trkpt>
<trkpt lat="51.555216" lon="03.801479"><ele>3.8</ele><time>2022-11-15T12:01:34Z</time><name>PT4326</name></trkpt>
<trkpt lat="51.555228" lon="03.801484"><ele>4</ele><time>2022-11-15T12:01:35Z</time><name>PT4327</name></trkpt>
<trkpt lat="51.555239" lon="03.801489"><ele>4</ele><time>2022-11-15T12:01:36Z</time><name>PT4328</name></trkpt>
<trkpt lat="51.555250" lon="03.801491"><ele>4.1</ele><time>2022-11-15T12:01:37Z</time><name>PT4329</name></trkpt>
<trkpt lat="51.555258" lon="03.801492"><ele>3.9</ele><time>2022-11-15T12:01:37Z</time><name>PT4330</name></trkpt>
<trkpt lat="51.555265" lon="03.801491"><ele>3.9</ele><time>2022-11-15T12:01:39Z</time><name>PT4331</name></trkpt>
<trkpt lat="51.555272" lon="03.801496"><ele>3.9</ele><time>2022-11-15T12:01:40Z</time><name>PT4332</name></trkpt>
<trkpt lat="51.555278" lon="03.801501"><ele>4.2</ele><time>2022-11-15T12:01:41Z</time><name>PT4333</name></trkpt>
<trkpt lat="51.555282" lon="03.801504"><ele>4.2</ele><time>2022-11-15T12:01:41Z</time><name>PT4334</name></trkpt>
<trkpt lat="51.555288" lon="03.801506"><ele>4.5</ele><time>2022-11-15T12:01:43Z</time><name>PT4335</name></trkpt>
<trkpt lat="51.555295" lon="03.801509"><ele>4.6</ele><time>2022-11-15T12:01:43Z</time><name>PT4336</name></trkpt>
<trkpt lat="51.555304" lon="03.801517"><ele>4.7</ele><time>2022-11-15T12:01:45Z</time><name>PT4337</name></trkpt>
<trkpt lat="51.555314" lon="03.801524"><ele>4.9</ele><time>2022-11-15T12:01:45Z</time><name>PT4338</name></trkpt>
<trkpt lat="51.555323" lon="03.801531"><ele>4.8</ele><time>2022-11-15T12:01:47Z</time><name>PT4339</name></trkpt>
<trkpt lat="51.555332" lon="03.801535"><ele>4.7</ele><time>2022-11-15T12:01:48Z</time><name>PT4340</name></trkpt>
<trkpt lat="51.555339" lon="03.801543"><ele>4.8</ele><time>2022-11-15T12:01:49Z</time><name>PT4341</name></trkpt>
<trkpt lat="51.555344" lon="03.801551"><ele>4.8</ele><time>2022-11-15T12:01:50Z</time><name>PT4342</name></trkpt>
<trkpt lat="51.555349" lon="03.801557"><ele>4.9</ele><time>2022-11-15T12:01:51Z</time><name>PT4343</name></trkpt>
<trkpt lat="51.555354" lon="03.801562"><ele>5.1</ele><time>2022-11-15T12:01:52Z</time><name>PT4344</name></trkpt>
<trkpt lat="51.555361" lon="03.801569"><ele>5.3</ele><time>2022-11-15T12:01:53Z</time><name>PT4345</name></trkpt>
<trkpt lat="51.555365" lon="03.801579"><ele>5.6</ele><time>2022-11-15T12:01:54Z</time><name>PT4346</name></trkpt>
<trkpt lat="51.555367" lon="03.801589"><ele>5.8</ele><time>2022-11-15T12:01:55Z</time><name>PT4347</name></trkpt>
<trkpt lat="51.555368" lon="03.801599"><ele>5.9</ele><time>2022-11-15T12:01:56Z</time><name>PT4348</name></trkpt>
<trkpt lat="51.555369" lon="03.801605"><ele>6.1</ele><time>2022-11-15T12:01:56Z</time><name>PT4349</name></trkpt>
<trkpt lat="51.555369" lon="03.801607"><ele>6.1</ele><time>2022-11-15T12:01:58Z</time><name>PT4350</name></trkpt>
<trkpt lat="51.555370" lon="03.801610"><ele>6</ele><time>2022-11-15T12:01:58Z</time><name>PT4351</name></trkpt>
<trkpt lat="51.555371" lon="03.801614"><ele>5.4</ele><time>2022-11-15T12:02:04Z</time><name>PT4352</name></trkpt>
<trkpt lat="51.555372" lon="03.801623"><ele>5.4</ele><time>2022-11-15T12:02:06Z</time><name>PT4353</name></trkpt>
<trkpt lat="51.555374" lon="03.801632"><ele>5.5</ele><time>2022-11-15T12:02:06Z</time><name>PT4354</name></trkpt>
<trkpt lat="51.555381" lon="03.801643"><ele>5.7</ele><time>2022-11-15T12:02:09Z</time><name>PT4355</name></trkpt>
<trkpt lat="51.555383" lon="03.801653"><ele>5.8</ele><time>2022-11-15T12:02:09Z</time><name>PT4356</name></trkpt>
<trkpt lat="51.555383" lon="03.801658"><ele>6.1</ele><time>2022-11-15T12:02:11Z</time><name>PT4357</name></trkpt>
<trkpt lat="51.555386" lon="03.801661"><ele>5.6</ele><time>2022-11-15T12:02:21Z</time><name>PT4358</name></trkpt>
<trkpt lat="51.555387" lon="03.801666"><ele>5.5</ele><time>2022-11-15T12:02:22Z</time><name>PT4359</name></trkpt>
<trkpt lat="51.555384" lon="03.801670"><ele>5.5</ele><time>2022-11-15T12:02:22Z</time><name>PT4360</name></trkpt>
<trkpt lat="51.555378" lon="03.801678"><ele>5.4</ele><time>2022-11-15T12:02:24Z</time><name>PT4361</name></trkpt>
<trkpt lat="51.555371" lon="03.801685"><ele>5.2</ele><time>2022-11-15T12:02:24Z</time><name>PT4362</name></trkpt>
<trkpt lat="51.555365" lon="03.801692"><ele>5</ele><time>2022-11-15T12:02:26Z</time><name>PT4363</name></trkpt>
<trkpt lat="51.555360" lon="03.801697"><ele>4.9</ele><time>2022-11-15T12:02:27Z</time><name>PT4364</name></trkpt>
<trkpt lat="51.555354" lon="03.801708"><ele>4.9</ele><time>2022-11-15T12:02:28Z</time><name>PT4365</name></trkpt>
<trkpt lat="51.555350" lon="03.801716"><ele>5.1</ele><time>2022-11-15T12:02:29Z</time><name>PT4366</name></trkpt>
<trkpt lat="51.555344" lon="03.801730"><ele>5.3</ele><time>2022-11-15T12:02:30Z</time><name>PT4367</name></trkpt>
<trkpt lat="51.555338" lon="03.801741"><ele>5.4</ele><time>2022-11-15T12:02:30Z</time><name>PT4368</name></trkpt>
<trkpt lat="51.555333" lon="03.801754"><ele>5.4</ele><time>2022-11-15T12:02:32Z</time><name>PT4369</name></trkpt>
<trkpt lat="51.555330" lon="03.801767"><ele>5.3</ele><time>2022-11-15T12:02:32Z</time><name>PT4370</name></trkpt>
<trkpt lat="51.555325" lon="03.801772"><ele>5.2</ele><time>2022-11-15T12:02:34Z</time><name>PT4371</name></trkpt>
<trkpt lat="51.555321" lon="03.801781"><ele>5</ele><time>2022-11-15T12:02:34Z</time><name>PT4372</name></trkpt>
<trkpt lat="51.555318" lon="03.801791"><ele>5.1</ele><time>2022-11-15T12:02:36Z</time><name>PT4373</name></trkpt>
<trkpt lat="51.555314" lon="03.801798"><ele>4.9</ele><time>2022-11-15T12:02:36Z</time><name>PT4374</name></trkpt>
<trkpt lat="51.555310" lon="03.801806"><ele>4.8</ele><time>2022-11-15T12:02:38Z</time><name>PT4375</name></trkpt>
<trkpt lat="51.555306" lon="03.801808"><ele>4.9</ele><time>2022-11-15T12:02:39Z</time><name>PT4376</name></trkpt>
<trkpt lat="51.555305" lon="03.801806"><ele>4.8</ele><time>2022-11-15T12:02:40Z</time><name>PT4377</name></trkpt>
<trkpt lat="51.555304" lon="03.801805"><ele>4.7</ele><time>2022-11-15T12:02:41Z</time><name>PT4378</name></trkpt>
<trkpt lat="51.555302" lon="03.801804"><ele>4.5</ele><time>2022-11-15T12:02:42Z</time><name>PT4379</name></trkpt>
<trkpt lat="51.555301" lon="03.801805"><ele>4.9</ele><time>2022-11-15T12:02:45Z</time><name>PT4380</name></trkpt>
<trkpt lat="51.555299" lon="03.801808"><ele>5.3</ele><time>2022-11-15T12:02:46Z</time><name>PT4381</name></trkpt>
<trkpt lat="51.555297" lon="03.801814"><ele>5.5</ele><time>2022-11-15T12:02:46Z</time><name>PT4382</name></trkpt>
<trkpt lat="51.555296" lon="03.801812"><ele>5.6</ele><time>2022-11-15T12:02:48Z</time><name>PT4383</name></trkpt>
<trkpt lat="51.555289" lon="03.801818"><ele>5.7</ele><time>2022-11-15T12:02:48Z</time><name>PT4384</name></trkpt>
<trkpt lat="51.555290" lon="03.801825"><ele>5.6</ele><time>2022-11-15T12:02:50Z</time><name>PT4385</name></trkpt>
<trkpt lat="51.555289" lon="03.801829"><ele>5.2</ele><time>2022-11-15T12:02:57Z</time><name>PT4386</name></trkpt>
<trkpt lat="51.555285" lon="03.801833"><ele>4.9</ele><time>2022-11-15T12:02:58Z</time><name>PT4387</name></trkpt>
<trkpt lat="51.555284" lon="03.801839"><ele>5</ele><time>2022-11-15T12:02:58Z</time><name>PT4388</name></trkpt>
<trkpt lat="51.555283" lon="03.801842"><ele>5.3</ele><time>2022-11-15T12:03:00Z</time><name>PT4389</name></trkpt>
<trkpt lat="51.555282" lon="03.801841"><ele>5.1</ele><time>2022-11-15T12:03:01Z</time><name>PT4390</name></trkpt>
<trkpt lat="51.555281" lon="03.801841"><ele>5.1</ele><time>2022-11-15T12:03:02Z</time><name>PT4391</name></trkpt>
<trkpt lat="51.555280" lon="03.801846"><ele>5.2</ele><time>2022-11-15T12:03:03Z</time><name>PT4392</name></trkpt>
<trkpt lat="51.555282" lon="03.801843"><ele>5.2</ele><time>2022-11-15T12:03:03Z</time><name>PT4393</name></trkpt>
<trkpt lat="51.555281" lon="03.801842"><ele>5.4</ele><time>2022-11-15T12:03:05Z</time><name>PT4394</name></trkpt>
<trkpt lat="51.555280" lon="03.801839"><ele>5.7</ele><time>2022-11-15T12:03:07Z</time><name>PT4395</name></trkpt>
<trkpt lat="51.555283" lon="03.801838"><ele>5.5</ele><time>2022-11-15T12:03:08Z</time><name>PT4396</name></trkpt>
<trkpt lat="51.555279" lon="03.801835"><ele>5.6</ele><time>2022-11-15T12:03:09Z</time><name>PT4397</name></trkpt>
<trkpt lat="51.555275" lon="03.801832"><ele>5.7</ele><time>2022-11-15T12:03:10Z</time><name>PT4398</name></trkpt>
<trkpt lat="51.555273" lon="03.801836"><ele>5.6</ele><time>2022-11-15T12:03:11Z</time><name>PT4399</name></trkpt>
<trkpt lat="51.555273" lon="03.801835"><ele>5.5</ele><time>2022-11-15T12:03:12Z</time><name>PT4400</name></trkpt>
<trkpt lat="51.555276" lon="03.801837"><ele>5.4</ele><time>2022-11-15T12:03:13Z</time><name>PT4401</name></trkpt>
<trkpt lat="51.555277" lon="03.801842"><ele>5.3</ele><time>2022-11-15T12:03:14Z</time><name>PT4402</name></trkpt>
<trkpt lat="51.555275" lon="03.801850"><ele>5</ele><time>2022-11-15T12:03:15Z</time><name>PT4403</name></trkpt>
<trkpt lat="51.555274" lon="03.801854"><ele>4.9</ele><time>2022-11-15T12:03:16Z</time><name>PT4404</name></trkpt>
<trkpt lat="51.555274" lon="03.801859"><ele>4.9</ele><time>2022-11-15T12:03:17Z</time><name>PT4405</name></trkpt>
<trkpt lat="51.555274" lon="03.801854"><ele>4.9</ele><time>2022-11-15T12:03:18Z</time><name>PT4406</name></trkpt>
<trkpt lat="51.555273" lon="03.801863"><ele>4.9</ele><time>2022-11-15T12:03:19Z</time><name>PT4407</name></trkpt>
<trkpt lat="51.555274" lon="03.801857"><ele>4.9</ele><time>2022-11-15T12:03:20Z</time><name>PT4408</name></trkpt>
<trkpt lat="51.555272" lon="03.801849"><ele>4.9</ele><time>2022-11-15T12:03:21Z</time><name>PT4409</name></trkpt>
<trkpt lat="51.555270" lon="03.801840"><ele>4.9</ele><time>2022-11-15T12:03:22Z</time><name>PT4410</name></trkpt>
<trkpt lat="51.555269" lon="03.801834"><ele>4.9</ele><time>2022-11-15T12:03:23Z</time><name>PT4411</name></trkpt>
<trkpt lat="51.555267" lon="03.801830"><ele>4.9</ele><time>2022-11-15T12:03:24Z</time><name>PT4412</name></trkpt>
<trkpt lat="51.555265" lon="03.801830"><ele>4.9</ele><time>2022-11-15T12:03:25Z</time><name>PT4413</name></trkpt>
<trkpt lat="51.555268" lon="03.801830"><ele>5</ele><time>2022-11-15T12:03:25Z</time><name>PT4414</name></trkpt>
<trkpt lat="51.555311" lon="03.801812"><ele>8</ele><time>2022-11-15T12:28:42Z</time><name>PT4415</name></trkpt>
<trkpt lat="51.555309" lon="03.801811"><ele>7.9</ele><time>2022-11-15T12:28:44Z</time><name>PT4416</name></trkpt>
<trkpt lat="51.555310" lon="03.801812"><ele>8</ele><time>2022-11-15T12:28:44Z</time><name>PT4417</name></trkpt>
<trkpt lat="51.555315" lon="03.801812"><ele>7.9</ele><time>2022-11-15T12:28:48Z</time><name>PT4418</name></trkpt>
<trkpt lat="51.555318" lon="03.801821"><ele>8</ele><time>2022-11-15T12:28:49Z</time><name>PT4419</name></trkpt>
<trkpt lat="51.555316" lon="03.801838"><ele>7.8</ele><time>2022-11-15T12:28:50Z</time><name>PT4420</name></trkpt>
<trkpt lat="51.555318" lon="03.801856"><ele>7.9</ele><time>2022-11-15T12:28:51Z</time><name>PT4421</name></trkpt>
<trkpt lat="51.555317" lon="03.801870"><ele>8</ele><time>2022-11-15T12:28:52Z</time><name>PT4422</name></trkpt>
<trkpt lat="51.555314" lon="03.801886"><ele>7.8</ele><time>2022-11-15T12:28:53Z</time><name>PT4423</name></trkpt>
<trkpt lat="51.555317" lon="03.801897"><ele>7.6</ele><time>2022-11-15T12:28:54Z</time><name>PT4424</name></trkpt>
<trkpt lat="51.555317" lon="03.801909"><ele>7.5</ele><time>2022-11-15T12:28:55Z</time><name>PT4425</name></trkpt>
<trkpt lat="51.555315" lon="03.801920"><ele>7.5</ele><time>2022-11-15T12:28:56Z</time><name>PT4426</name></trkpt>
<trkpt lat="51.555314" lon="03.801930"><ele>7.7</ele><time>2022-11-15T12:28:57Z</time><name>PT4427</name></trkpt>
<trkpt lat="51.555314" lon="03.801948"><ele>8</ele><time>2022-11-15T12:28:58Z</time><name>PT4428</name></trkpt>
<trkpt lat="51.555316" lon="03.801970"><ele>8.1</ele><time>2022-11-15T12:28:59Z</time><name>PT4429</name></trkpt>
<trkpt lat="51.555313" lon="03.801988"><ele>8</ele><time>2022-11-15T12:29:00Z</time><name>PT4430</name></trkpt>
<trkpt lat="51.555304" lon="03.802005"><ele>8</ele><time>2022-11-15T12:29:01Z</time><name>PT4431</name></trkpt>
<trkpt lat="51.555291" lon="03.802025"><ele>8</ele><time>2022-11-15T12:29:02Z</time><name>PT4432</name></trkpt>
<trkpt lat="51.555284" lon="03.802040"><ele>7.9</ele><time>2022-11-15T12:29:03Z</time><name>PT4433</name></trkpt>
<trkpt lat="51.555275" lon="03.802049"><ele>7.6</ele><time>2022-11-15T12:29:04Z</time><name>PT4434</name></trkpt>
<trkpt lat="51.555274" lon="03.802057"><ele>7.4</ele><time>2022-11-15T12:29:05Z</time><name>PT4435</name></trkpt>
<trkpt lat="51.555274" lon="03.802069"><ele>7</ele><time>2022-11-15T12:29:06Z</time><name>PT4436</name></trkpt>
<trkpt lat="51.555273" lon="03.802079"><ele>6.9</ele><time>2022-11-15T12:29:07Z</time><name>PT4437</name></trkpt>
<trkpt lat="51.555267" lon="03.802093"><ele>6.7</ele><time>2022-11-15T12:29:08Z</time><name>PT4438</name></trkpt>
<trkpt lat="51.555260" lon="03.802113"><ele>6.9</ele><time>2022-11-15T12:29:09Z</time><name>PT4439</name></trkpt>
<trkpt lat="51.555256" lon="03.802131"><ele>7.1</ele><time>2022-11-15T12:29:10Z</time><name>PT4440</name></trkpt>
<trkpt lat="51.555253" lon="03.802148"><ele>7.1</ele><time>2022-11-15T12:29:11Z</time><name>PT4441</name></trkpt>
<trkpt lat="51.555252" lon="03.802159"><ele>7.2</ele><time>2022-11-15T12:29:12Z</time><name>PT4442</name></trkpt>
<trkpt lat="51.555249" lon="03.802167"><ele>7.4</ele><time>2022-11-15T12:29:13Z</time><name>PT4443</name></trkpt>
<trkpt lat="51.555245" lon="03.802174"><ele>7.4</ele><time>2022-11-15T12:29:14Z</time><name>PT4444</name></trkpt>
<trkpt lat="51.555240" lon="03.802185"><ele>7.5</ele><time>2022-11-15T12:29:15Z</time><name>PT4445</name></trkpt>
<trkpt lat="51.555237" lon="03.802194"><ele>7.5</ele><time>2022-11-15T12:29:16Z</time><name>PT4446</name></trkpt>
<trkpt lat="51.555234" lon="03.802204"><ele>7.6</ele><time>2022-11-15T12:29:16Z</time><name>PT4447</name></trkpt>
<trkpt lat="51.555226" lon="03.802222"><ele>7.6</ele><time>2022-11-15T12:29:18Z</time><name>PT4448</name></trkpt>
<trkpt lat="51.555221" lon="03.802246"><ele>7.5</ele><time>2022-11-15T12:29:18Z</time><name>PT4449</name></trkpt>
<trkpt lat="51.555216" lon="03.802269"><ele>7.5</ele><time>2022-11-15T12:29:20Z</time><name>PT4450</name></trkpt>
<trkpt lat="51.555212" lon="03.802285"><ele>7.5</ele><time>2022-11-15T12:29:20Z</time><name>PT4451</name></trkpt>
<trkpt lat="51.555211" lon="03.802298"><ele>7.3</ele><time>2022-11-15T12:29:22Z</time><name>PT4452</name></trkpt>
<trkpt lat="51.555210" lon="03.802302"><ele>7.1</ele><time>2022-11-15T12:29:22Z</time><name>PT4453</name></trkpt>
<trkpt lat="51.555207" lon="03.802308"><ele>7.3</ele><time>2022-11-15T12:29:24Z</time><name>PT4454</name></trkpt>
<trkpt lat="51.555203" lon="03.802320"><ele>7.3</ele><time>2022-11-15T12:29:25Z</time><name>PT4455</name></trkpt>
<trkpt lat="51.555199" lon="03.802332"><ele>7.3</ele><time>2022-11-15T12:29:25Z</time><name>PT4456</name></trkpt>
<trkpt lat="51.555195" lon="03.802348"><ele>7.5</ele><time>2022-11-15T12:29:27Z</time><name>PT4457</name></trkpt>
<trkpt lat="51.555190" lon="03.802374"><ele>7.6</ele><time>2022-11-15T12:29:27Z</time><name>PT4458</name></trkpt>
<trkpt lat="51.555197" lon="03.802408"><ele>7.7</ele><time>2022-11-15T12:29:29Z</time><name>PT4459</name></trkpt>
<trkpt lat="51.555198" lon="03.802426"><ele>7.8</ele><time>2022-11-15T12:29:29Z</time><name>PT4460</name></trkpt>
<trkpt lat="51.555194" lon="03.802441"><ele>7.9</ele><time>2022-11-15T12:29:31Z</time><name>PT4461</name></trkpt>
<trkpt lat="51.555192" lon="03.802455"><ele>7.9</ele><time>2022-11-15T12:29:31Z</time><name>PT4462</name></trkpt>
<trkpt lat="51.555195" lon="03.802472"><ele>7.9</ele><time>2022-11-15T12:29:33Z</time><name>PT4463</name></trkpt>
<trkpt lat="51.555197" lon="03.802486"><ele>7.8</ele><time>2022-11-15T12:29:33Z</time><name>PT4464</name></trkpt>
<trkpt lat="51.555198" lon="03.802498"><ele>7.6</ele><time>2022-11-15T12:29:35Z</time><name>PT4465</name></trkpt>
<trkpt lat="51.555200" lon="03.802503"><ele>7.6</ele><time>2022-11-15T12:29:35Z</time><name>PT4466</name></trkpt>
<trkpt lat="51.555199" lon="03.802508"><ele>7.8</ele><time>2022-11-15T12:29:37Z</time><name>PT4467</name></trkpt>
<trkpt lat="51.555200" lon="03.802513"><ele>7.9</ele><time>2022-11-15T12:29:37Z</time><name>PT4468</name></trkpt>
<trkpt lat="51.555199" lon="03.802525"><ele>8</ele><time>2022-11-15T12:29:39Z</time><name>PT4469</name></trkpt>
<trkpt lat="51.555198" lon="03.802542"><ele>8</ele><time>2022-11-15T12:29:39Z</time><name>PT4470</name></trkpt>
<trkpt lat="51.555194" lon="03.802567"><ele>8</ele><time>2022-11-15T12:29:41Z</time><name>PT4471</name></trkpt>
<trkpt lat="51.555192" lon="03.802598"><ele>8</ele><time>2022-11-15T12:29:42Z</time><name>PT4472</name></trkpt>
<trkpt lat="51.555191" lon="03.802632"><ele>7.9</ele><time>2022-11-15T12:29:43Z</time><name>PT4473</name></trkpt>
<trkpt lat="51.555191" lon="03.802668"><ele>7.7</ele><time>2022-11-15T12:29:43Z</time><name>PT4474</name></trkpt>
<trkpt lat="51.555190" lon="03.802700"><ele>7.6</ele><time>2022-11-15T12:29:45Z</time><name>PT4475</name></trkpt>
<trkpt lat="51.555187" lon="03.802724"><ele>7.5</ele><time>2022-11-15T12:29:45Z</time><name>PT4476</name></trkpt>
<trkpt lat="51.555187" lon="03.802741"><ele>7.5</ele><time>2022-11-15T12:29:47Z</time><name>PT4477</name></trkpt>
<trkpt lat="51.555188" lon="03.802758"><ele>7.6</ele><time>2022-11-15T12:29:48Z</time><name>PT4478</name></trkpt>
<trkpt lat="51.555190" lon="03.802776"><ele>7.5</ele><time>2022-11-15T12:29:49Z</time><name>PT4479</name></trkpt>
<trkpt lat="51.555192" lon="03.802790"><ele>7.6</ele><time>2022-11-15T12:29:49Z</time><name>PT4480</name></trkpt>
<trkpt lat="51.555192" lon="03.802797"><ele>7.5</ele><time>2022-11-15T12:29:51Z</time><name>PT4481</name></trkpt>
<trkpt lat="51.555193" lon="03.802800"><ele>7.5</ele><time>2022-11-15T12:29:51Z</time><name>PT4482</name></trkpt>
<trkpt lat="51.555194" lon="03.802804"><ele>7.6</ele><time>2022-11-15T12:29:53Z</time><name>PT4483</name></trkpt>
<trkpt lat="51.555193" lon="03.802809"><ele>7.7</ele><time>2022-11-15T12:29:53Z</time><name>PT4484</name></trkpt>
<trkpt lat="51.555188" lon="03.802819"><ele>7.8</ele><time>2022-11-15T12:29:55Z</time><name>PT4485</name></trkpt>
<trkpt lat="51.555186" lon="03.802838"><ele>8</ele><time>2022-11-15T12:29:55Z</time><name>PT4486</name></trkpt>
<trkpt lat="51.555182" lon="03.802862"><ele>7.8</ele><time>2022-11-15T12:29:57Z</time><name>PT4487</name></trkpt>
<trkpt lat="51.555177" lon="03.802890"><ele>7.9</ele><time>2022-11-15T12:29:57Z</time><name>PT4488</name></trkpt>
<trkpt lat="51.555176" lon="03.802920"><ele>7.7</ele><time>2022-11-15T12:29:59Z</time><name>PT4489</name></trkpt>
<trkpt lat="51.555177" lon="03.802946"><ele>7.7</ele><time>2022-11-15T12:29:59Z</time><name>PT4490</name></trkpt>
<trkpt lat="51.555177" lon="03.802969"><ele>7.7</ele><time>2022-11-15T12:30:01Z</time><name>PT4491</name></trkpt>
<trkpt lat="51.555175" lon="03.802985"><ele>7.9</ele><time>2022-11-15T12:30:01Z</time><name>PT4492</name></trkpt>
<trkpt lat="51.555176" lon="03.802998"><ele>8</ele><time>2022-11-15T12:30:03Z</time><name>PT4493</name></trkpt>
<trkpt lat="51.555176" lon="03.803007"><ele>7.9</ele><time>2022-11-15T12:30:03Z</time><name>PT4494</name></trkpt>
<trkpt lat="51.555173" lon="03.803012"><ele>8</ele><time>2022-11-15T12:30:05Z</time><name>PT4495</name></trkpt>
<trkpt lat="51.555172" lon="03.803014"><ele>7.9</ele><time>2022-11-15T12:30:05Z</time><name>PT4496</name></trkpt>
<trkpt lat="51.555166" lon="03.803025"><ele>7.9</ele><time>2022-11-15T12:30:07Z</time><name>PT4497</name></trkpt>
<trkpt lat="51.555171" lon="03.803031"><ele>8</ele><time>2022-11-15T12:30:07Z</time><name>PT4498</name></trkpt>
<trkpt lat="51.555173" lon="03.803038"><ele>8</ele><time>2022-11-15T12:30:09Z</time><name>PT4499</name></trkpt>
<trkpt lat="51.555170" lon="03.803048"><ele>8</ele><time>2022-11-15T12:30:09Z</time><name>PT4500</name></trkpt>
<trkpt lat="51.555165" lon="03.803064"><ele>8</ele><time>2022-11-15T12:30:11Z</time><name>PT4501</name></trkpt>
<trkpt lat="51.555161" lon="03.803086"><ele>8</ele><time>2022-11-15T12:30:12Z</time><name>PT4502</name></trkpt>
<trkpt lat="51.555158" lon="03.803111"><ele>7.9</ele><time>2022-11-15T12:30:13Z</time><name>PT4503</name></trkpt>
<trkpt lat="51.555156" lon="03.803138"><ele>8</ele><time>2022-11-15T12:30:13Z</time><name>PT4504</name></trkpt>
<trkpt lat="51.555156" lon="03.803167"><ele>8.1</ele><time>2022-11-15T12:30:15Z</time><name>PT4505</name></trkpt>
<trkpt lat="51.555157" lon="03.803190"><ele>8.1</ele><time>2022-11-15T12:30:16Z</time><name>PT4506</name></trkpt>
<trkpt lat="51.555158" lon="03.803205"><ele>8.2</ele><time>2022-11-15T12:30:17Z</time><name>PT4507</name></trkpt>
<trkpt lat="51.555157" lon="03.803214"><ele>8.5</ele><time>2022-11-15T12:30:18Z</time><name>PT4508</name></trkpt>
<trkpt lat="51.555157" lon="03.803217"><ele>8.5</ele><time>2022-11-15T12:30:19Z</time><name>PT4509</name></trkpt>
<trkpt lat="51.555155" lon="03.803226"><ele>8.3</ele><time>2022-11-15T12:30:20Z</time><name>PT4510</name></trkpt>
<trkpt lat="51.555153" lon="03.803233"><ele>8.4</ele><time>2022-11-15T12:30:21Z</time><name>PT4511</name></trkpt>
<trkpt lat="51.555151" lon="03.803246"><ele>8.2</ele><time>2022-11-15T12:30:22Z</time><name>PT4512</name></trkpt>
<trkpt lat="51.555147" lon="03.803265"><ele>8.1</ele><time>2022-11-15T12:30:23Z</time><name>PT4513</name></trkpt>
<trkpt lat="51.555144" lon="03.803288"><ele>8.4</ele><time>2022-11-15T12:30:24Z</time><name>PT4514</name></trkpt>
<trkpt lat="51.555143" lon="03.803315"><ele>8.5</ele><time>2022-11-15T12:30:25Z</time><name>PT4515</name></trkpt>
<trkpt lat="51.555144" lon="03.803341"><ele>8.6</ele><time>2022-11-15T12:30:26Z</time><name>PT4516</name></trkpt>
<trkpt lat="51.555144" lon="03.803360"><ele>8.8</ele><time>2022-11-15T12:30:27Z</time><name>PT4517</name></trkpt>
<trkpt lat="51.555143" lon="03.803375"><ele>9</ele><time>2022-11-15T12:30:28Z</time><name>PT4518</name></trkpt>
<trkpt lat="51.555147" lon="03.803389"><ele>9</ele><time>2022-11-15T12:30:29Z</time><name>PT4519</name></trkpt>
<trkpt lat="51.555149" lon="03.803396"><ele>9.1</ele><time>2022-11-15T12:30:30Z</time><name>PT4520</name></trkpt>
<trkpt lat="51.555148" lon="03.803403"><ele>9.3</ele><time>2022-11-15T12:30:31Z</time><name>PT4521</name></trkpt>
<trkpt lat="51.555147" lon="03.803408"><ele>9.4</ele><time>2022-11-15T12:30:32Z</time><name>PT4522</name></trkpt>
<trkpt lat="51.555146" lon="03.803416"><ele>9.4</ele><time>2022-11-15T12:30:33Z</time><name>PT4523</name></trkpt>
<trkpt lat="51.555142" lon="03.803430"><ele>9</ele><time>2022-11-15T12:30:36Z</time><name>PT4524</name></trkpt>
<trkpt lat="51.555138" lon="03.803462"><ele>8.6</ele><time>2022-11-15T12:30:37Z</time><name>PT4525</name></trkpt>
<trkpt lat="51.555135" lon="03.803495"><ele>8.5</ele><time>2022-11-15T12:30:38Z</time><name>PT4526</name></trkpt>
<trkpt lat="51.555133" lon="03.803519"><ele>8.3</ele><time>2022-11-15T12:30:39Z</time><name>PT4527</name></trkpt>
<trkpt lat="51.555132" lon="03.803533"><ele>8</ele><time>2022-11-15T12:30:40Z</time><name>PT4528</name></trkpt>
<trkpt lat="51.555132" lon="03.803545"><ele>8</ele><time>2022-11-15T12:30:41Z</time><name>PT4529</name></trkpt>
<trkpt lat="51.555133" lon="03.803554"><ele>7.8</ele><time>2022-11-15T12:30:42Z</time><name>PT4530</name></trkpt>
<trkpt lat="51.555133" lon="03.803565"><ele>7.6</ele><time>2022-11-15T12:30:43Z</time><name>PT4531</name></trkpt>
<trkpt lat="51.555128" lon="03.803580"><ele>7.5</ele><time>2022-11-15T12:30:44Z</time><name>PT4532</name></trkpt>
<trkpt lat="51.555128" lon="03.803604"><ele>7.3</ele><time>2022-11-15T12:30:45Z</time><name>PT4533</name></trkpt>
<trkpt lat="51.555133" lon="03.803630"><ele>7</ele><time>2022-11-15T12:30:46Z</time><name>PT4534</name></trkpt>
<trkpt lat="51.555141" lon="03.803650"><ele>7</ele><time>2022-11-15T12:30:47Z</time><name>PT4535</name></trkpt>
<trkpt lat="51.555145" lon="03.803657"><ele>7</ele><time>2022-11-15T12:30:48Z</time><name>PT4536</name></trkpt>
<trkpt lat="51.555145" lon="03.803658"><ele>7</ele><time>2022-11-15T12:30:48Z</time><name>PT4537</name></trkpt>
<trkpt lat="51.555144" lon="03.803664"><ele>7</ele><time>2022-11-15T12:30:50Z</time><name>PT4538</name></trkpt>
<trkpt lat="51.555144" lon="03.803675"><ele>7</ele><time>2022-11-15T12:30:50Z</time><name>PT4539</name></trkpt>
<trkpt lat="51.555149" lon="03.803695"><ele>7</ele><time>2022-11-15T12:30:52Z</time><name>PT4540</name></trkpt>
<trkpt lat="51.555158" lon="03.803719"><ele>7</ele><time>2022-11-15T12:30:52Z</time><name>PT4541</name></trkpt>
<trkpt lat="51.555165" lon="03.803741"><ele>7.1</ele><time>2022-11-15T12:30:54Z</time><name>PT4542</name></trkpt>
<trkpt lat="51.555171" lon="03.803757"><ele>7</ele><time>2022-11-15T12:30:54Z</time><name>PT4543</name></trkpt>
<trkpt lat="51.555172" lon="03.803761"><ele>7.1</ele><time>2022-11-15T12:30:56Z</time><name>PT4544</name></trkpt>
<trkpt lat="51.555171" lon="03.803765"><ele>7.1</ele><time>2022-11-15T12:30:56Z</time><name>PT4545</name></trkpt>
<trkpt lat="51.555172" lon="03.803777"><ele>7.5</ele><time>2022-11-15T12:30:58Z</time><name>PT4546</name></trkpt>
<trkpt lat="51.555177" lon="03.803796"><ele>7.5</ele><time>2022-11-15T12:30:59Z</time><name>PT4547</name></trkpt>
<trkpt lat="51.555180" lon="03.803812"><ele>7.6</ele><time>2022-11-15T12:30:59Z</time><name>PT4548</name></trkpt>
<trkpt lat="51.555183" lon="03.803824"><ele>7.9</ele><time>2022-11-15T12:31:01Z</time><name>PT4549</name></trkpt>
<trkpt lat="51.555183" lon="03.803832"><ele>8</ele><time>2022-11-15T12:31:01Z</time><name>PT4550</name></trkpt>
<trkpt lat="51.555180" lon="03.803838"><ele>8</ele><time>2022-11-15T12:31:03Z</time><name>PT4551</name></trkpt>
<trkpt lat="51.555178" lon="03.803839"><ele>8</ele><time>2022-11-15T12:31:03Z</time><name>PT4552</name></trkpt>
<trkpt lat="51.555179" lon="03.803841"><ele>8</ele><time>2022-11-15T12:31:05Z</time><name>PT4553</name></trkpt>
<trkpt lat="51.555176" lon="03.803848"><ele>7.9</ele><time>2022-11-15T12:31:06Z</time><name>PT4554</name></trkpt>
<trkpt lat="51.555174" lon="03.803859"><ele>7.6</ele><time>2022-11-15T12:31:07Z</time><name>PT4555</name></trkpt>
<trkpt lat="51.555172" lon="03.803876"><ele>7.4</ele><time>2022-11-15T12:31:08Z</time><name>PT4556</name></trkpt>
<trkpt lat="51.555166" lon="03.803909"><ele>7</ele><time>2022-11-15T12:31:09Z</time><name>PT4557</name></trkpt>
<trkpt lat="51.555163" lon="03.803934"><ele>6.8</ele><time>2022-11-15T12:31:09Z</time><name>PT4558</name></trkpt>
<trkpt lat="51.555163" lon="03.803951"><ele>6.5</ele><time>2022-11-15T12:31:11Z</time><name>PT4559</name></trkpt>
<trkpt lat="51.555169" lon="03.803961"><ele>6.5</ele><time>2022-11-15T12:31:12Z</time><name>PT4560</name></trkpt>
<trkpt lat="51.555171" lon="03.803966"><ele>6.6</ele><time>2022-11-15T12:31:13Z</time><name>PT4561</name></trkpt>
<trkpt lat="51.555170" lon="03.803976"><ele>6.7</ele><time>2022-11-15T12:31:14Z</time><name>PT4562</name></trkpt>
<trkpt lat="51.555166" lon="03.803987"><ele>6.7</ele><time>2022-11-15T12:31:15Z</time><name>PT4563</name></trkpt>
<trkpt lat="51.555164" lon="03.803992"><ele>7</ele><time>2022-11-15T12:31:16Z</time><name>PT4564</name></trkpt>
<trkpt lat="51.555165" lon="03.804000"><ele>7.2</ele><time>2022-11-15T12:31:17Z</time><name>PT4565</name></trkpt>
<trkpt lat="51.555165" lon="03.804021"><ele>7.5</ele><time>2022-11-15T12:31:18Z</time><name>PT4566</name></trkpt>
<trkpt lat="51.555167" lon="03.804041"><ele>7.9</ele><time>2022-11-15T12:31:19Z</time><name>PT4567</name></trkpt>
<trkpt lat="51.555168" lon="03.804061"><ele>8.1</ele><time>2022-11-15T12:31:19Z</time><name>PT4568</name></trkpt>
<trkpt lat="51.555171" lon="03.804080"><ele>8.4</ele><time>2022-11-15T12:31:21Z</time><name>PT4569</name></trkpt>
<trkpt lat="51.555174" lon="03.804099"><ele>8.3</ele><time>2022-11-15T12:31:22Z</time><name>PT4570</name></trkpt>
<trkpt lat="51.555177" lon="03.804119"><ele>8.1</ele><time>2022-11-15T12:31:23Z</time><name>PT4571</name></trkpt>
<trkpt lat="51.555180" lon="03.804137"><ele>8.2</ele><time>2022-11-15T12:31:23Z</time><name>PT4572</name></trkpt>
<trkpt lat="51.555181" lon="03.804154"><ele>8.4</ele><time>2022-11-15T12:31:25Z</time><name>PT4573</name></trkpt>
<trkpt lat="51.555182" lon="03.804170"><ele>8.3</ele><time>2022-11-15T12:31:25Z</time><name>PT4574</name></trkpt>
<trkpt lat="51.555186" lon="03.804191"><ele>8.5</ele><time>2022-11-15T12:31:27Z</time><name>PT4575</name></trkpt>
<trkpt lat="51.555191" lon="03.804200"><ele>8.5</ele><time>2022-11-15T12:31:27Z</time><name>PT4576</name></trkpt>
<trkpt lat="51.555190" lon="03.804207"><ele>8.3</ele><time>2022-11-15T12:31:29Z</time><name>PT4577</name></trkpt>
<trkpt lat="51.555188" lon="03.804219"><ele>8.1</ele><time>2022-11-15T12:31:29Z</time><name>PT4578</name></trkpt>
<trkpt lat="51.555186" lon="03.804239"><ele>8.1</ele><time>2022-11-15T12:31:31Z</time><name>PT4579</name></trkpt>
<trkpt lat="51.555185" lon="03.804263"><ele>8</ele><time>2022-11-15T12:31:31Z</time><name>PT4580</name></trkpt>
<trkpt lat="51.555183" lon="03.804289"><ele>8</ele><time>2022-11-15T12:31:33Z</time><name>PT4581</name></trkpt>
<trkpt lat="51.555182" lon="03.804319"><ele>8</ele><time>2022-11-15T12:31:33Z</time><name>PT4582</name></trkpt>
<trkpt lat="51.555180" lon="03.804347"><ele>8</ele><time>2022-11-15T12:31:35Z</time><name>PT4583</name></trkpt>
<trkpt lat="51.555181" lon="03.804366"><ele>8</ele><time>2022-11-15T12:31:35Z</time><name>PT4584</name></trkpt>
<trkpt lat="51.555185" lon="03.804383"><ele>8.1</ele><time>2022-11-15T12:31:37Z</time><name>PT4585</name></trkpt>
<trkpt lat="51.555186" lon="03.804396"><ele>8.2</ele><time>2022-11-15T12:31:37Z</time><name>PT4586</name></trkpt>
<trkpt lat="51.555186" lon="03.804406"><ele>8.2</ele><time>2022-11-15T12:31:39Z</time><name>PT4587</name></trkpt>
<trkpt lat="51.555185" lon="03.804416"><ele>8.1</ele><time>2022-11-15T12:31:39Z</time><name>PT4588</name></trkpt>
<trkpt lat="51.555184" lon="03.804430"><ele>8.3</ele><time>2022-11-15T12:31:41Z</time><name>PT4589</name></trkpt>
<trkpt lat="51.555186" lon="03.804450"><ele>8.2</ele><time>2022-11-15T12:31:41Z</time><name>PT4590</name></trkpt>
<trkpt lat="51.555186" lon="03.804466"><ele>8.1</ele><time>2022-11-15T12:31:43Z</time><name>PT4591</name></trkpt>
<trkpt lat="51.555182" lon="03.804481"><ele>8.2</ele><time>2022-11-15T12:31:43Z</time><name>PT4592</name></trkpt>
<trkpt lat="51.555178" lon="03.804503"><ele>8.2</ele><time>2022-11-15T12:31:45Z</time><name>PT4593</name></trkpt>
<trkpt lat="51.555176" lon="03.804528"><ele>8.1</ele><time>2022-11-15T12:31:45Z</time><name>PT4594</name></trkpt>
<trkpt lat="51.555175" lon="03.804556"><ele>8.1</ele><time>2022-11-15T12:31:47Z</time><name>PT4595</name></trkpt>
<trkpt lat="51.555176" lon="03.804583"><ele>8.1</ele><time>2022-11-15T12:31:47Z</time><name>PT4596</name></trkpt>
<trkpt lat="51.555174" lon="03.804603"><ele>8.2</ele><time>2022-11-15T12:31:49Z</time><name>PT4597</name></trkpt>
<trkpt lat="51.555172" lon="03.804615"><ele>8.2</ele><time>2022-11-15T12:31:50Z</time><name>PT4598</name></trkpt>
<trkpt lat="51.555168" lon="03.804616"><ele>8.3</ele><time>2022-11-15T12:31:51Z</time><name>PT4599</name></trkpt>
<trkpt lat="51.555162" lon="03.804621"><ele>8.4</ele><time>2022-11-15T12:31:51Z</time><name>PT4600</name></trkpt>
<trkpt lat="51.555154" lon="03.804637"><ele>8.5</ele><time>2022-11-15T12:31:53Z</time><name>PT4601</name></trkpt>
<trkpt lat="51.555147" lon="03.804660"><ele>8.5</ele><time>2022-11-15T12:31:53Z</time><name>PT4602</name></trkpt>
<trkpt lat="51.555143" lon="03.804684"><ele>8.5</ele><time>2022-11-15T12:31:55Z</time><name>PT4603</name></trkpt>
<trkpt lat="51.555138" lon="03.804702"><ele>8.5</ele><time>2022-11-15T12:31:55Z</time><name>PT4604</name></trkpt>
<trkpt lat="51.555135" lon="03.804715"><ele>8.6</ele><time>2022-11-15T12:31:57Z</time><name>PT4605</name></trkpt>
<trkpt lat="51.555135" lon="03.804724"><ele>8.5</ele><time>2022-11-15T12:31:57Z</time><name>PT4606</name></trkpt>
<trkpt lat="51.555133" lon="03.804735"><ele>8.9</ele><time>2022-11-15T12:31:59Z</time><name>PT4607</name></trkpt>
<trkpt lat="51.555133" lon="03.804744"><ele>9</ele><time>2022-11-15T12:32:00Z</time><name>PT4608</name></trkpt>
<trkpt lat="51.555130" lon="03.804754"><ele>9.2</ele><time>2022-11-15T12:32:01Z</time><name>PT4609</name></trkpt>
<trkpt lat="51.555125" lon="03.804764"><ele>9.3</ele><time>2022-11-15T12:32:02Z</time><name>PT4610</name></trkpt>
<trkpt lat="51.555119" lon="03.804779"><ele>9.3</ele><time>2022-11-15T12:32:03Z</time><name>PT4611</name></trkpt>
<trkpt lat="51.555115" lon="03.804796"><ele>9.2</ele><time>2022-11-15T12:32:03Z</time><name>PT4612</name></trkpt>
<trkpt lat="51.555112" lon="03.804816"><ele>9.1</ele><time>2022-11-15T12:32:05Z</time><name>PT4613</name></trkpt>
<trkpt lat="51.555115" lon="03.804841"><ele>9</ele><time>2022-11-15T12:32:05Z</time><name>PT4614</name></trkpt>
<trkpt lat="51.555117" lon="03.804862"><ele>9.1</ele><time>2022-11-15T12:32:07Z</time><name>PT4615</name></trkpt>
<trkpt lat="51.555117" lon="03.804877"><ele>9.2</ele><time>2022-11-15T12:32:07Z</time><name>PT4616</name></trkpt>
<trkpt lat="51.555118" lon="03.804892"><ele>9.4</ele><time>2022-11-15T12:32:09Z</time><name>PT4617</name></trkpt>
<trkpt lat="51.555118" lon="03.804905"><ele>9.5</ele><time>2022-11-15T12:32:09Z</time><name>PT4618</name></trkpt>
<trkpt lat="51.555117" lon="03.804917"><ele>9.7</ele><time>2022-11-15T12:32:11Z</time><name>PT4619</name></trkpt>
<trkpt lat="51.555116" lon="03.804930"><ele>9.7</ele><time>2022-11-15T12:32:11Z</time><name>PT4620</name></trkpt>
<trkpt lat="51.555114" lon="03.804945"><ele>9.8</ele><time>2022-11-15T12:32:13Z</time><name>PT4621</name></trkpt>
<trkpt lat="51.555113" lon="03.804962"><ele>9.9</ele><time>2022-11-15T12:32:13Z</time><name>PT4622</name></trkpt>
<trkpt lat="51.555113" lon="03.804987"><ele>9.7</ele><time>2022-11-15T12:32:15Z</time><name>PT4623</name></trkpt>
<trkpt lat="51.555113" lon="03.805015"><ele>9.6</ele><time>2022-11-15T12:32:16Z</time><name>PT4624</name></trkpt>
<trkpt lat="51.555110" lon="03.805042"><ele>9.7</ele><time>2022-11-15T12:32:17Z</time><name>PT4625</name></trkpt>
<trkpt lat="51.555110" lon="03.805059"><ele>9.7</ele><time>2022-11-15T12:32:18Z</time><name>PT4626</name></trkpt>
<trkpt lat="51.555111" lon="03.805073"><ele>9.8</ele><time>2022-11-15T12:32:19Z</time><name>PT4627</name></trkpt>
<trkpt lat="51.555112" lon="03.805086"><ele>9.8</ele><time>2022-11-15T12:32:20Z</time><name>PT4628</name></trkpt>
<trkpt lat="51.555112" lon="03.805101"><ele>9.8</ele><time>2022-11-15T12:32:20Z</time><name>PT4629</name></trkpt>
<trkpt lat="51.555113" lon="03.805117"><ele>9.6</ele><time>2022-11-15T12:32:22Z</time><name>PT4630</name></trkpt>
<trkpt lat="51.555110" lon="03.805130"><ele>9.7</ele><time>2022-11-15T12:32:23Z</time><name>PT4631</name></trkpt>
<trkpt lat="51.555109" lon="03.805148"><ele>9.7</ele><time>2022-11-15T12:32:24Z</time><name>PT4632</name></trkpt>
<trkpt lat="51.555106" lon="03.805169"><ele>9.7</ele><time>2022-11-15T12:32:25Z</time><name>PT4633</name></trkpt>
<trkpt lat="51.555105" lon="03.805193"><ele>9.8</ele><time>2022-11-15T12:32:26Z</time><name>PT4634</name></trkpt>
<trkpt lat="51.555104" lon="03.805216"><ele>9.8</ele><time>2022-11-15T12:32:27Z</time><name>PT4635</name></trkpt>
<trkpt lat="51.555104" lon="03.805239"><ele>9.5</ele><time>2022-11-15T12:32:28Z</time><name>PT4636</name></trkpt>
<trkpt lat="51.555103" lon="03.805259"><ele>9.5</ele><time>2022-11-15T12:32:29Z</time><name>PT4637</name></trkpt>
<trkpt lat="51.555104" lon="03.805275"><ele>9.5</ele><time>2022-11-15T12:32:30Z</time><name>PT4638</name></trkpt>
<trkpt lat="51.555106" lon="03.805291"><ele>9.5</ele><time>2022-11-15T12:32:31Z</time><name>PT4639</name></trkpt>
<trkpt lat="51.555108" lon="03.805302"><ele>9.5</ele><time>2022-11-15T12:32:32Z</time><name>PT4640</name></trkpt>
<trkpt lat="51.555107" lon="03.805315"><ele>9.6</ele><time>2022-11-15T12:32:33Z</time><name>PT4641</name></trkpt>
<trkpt lat="51.555105" lon="03.805329"><ele>9.6</ele><time>2022-11-15T12:32:34Z</time><name>PT4642</name></trkpt>
<trkpt lat="51.555104" lon="03.805345"><ele>9.6</ele><time>2022-11-15T12:32:35Z</time><name>PT4643</name></trkpt>
<trkpt lat="51.555104" lon="03.805367"><ele>9.7</ele><time>2022-11-15T12:32:36Z</time><name>PT4644</name></trkpt>
<trkpt lat="51.555105" lon="03.805392"><ele>9.9</ele><time>2022-11-15T12:32:37Z</time><name>PT4645</name></trkpt>
<trkpt lat="51.555110" lon="03.805421"><ele>9.8</ele><time>2022-11-15T12:32:38Z</time><name>PT4646</name></trkpt>
<trkpt lat="51.555111" lon="03.805448"><ele>9.7</ele><time>2022-11-15T12:32:39Z</time><name>PT4647</name></trkpt>
<trkpt lat="51.555113" lon="03.805467"><ele>9.6</ele><time>2022-11-15T12:32:40Z</time><name>PT4648</name></trkpt>
<trkpt lat="51.555115" lon="03.805484"><ele>9.4</ele><time>2022-11-15T12:32:41Z</time><name>PT4649</name></trkpt>
<trkpt lat="51.555115" lon="03.805500"><ele>9.3</ele><time>2022-11-15T12:32:42Z</time><name>PT4650</name></trkpt>
<trkpt lat="51.555115" lon="03.805513"><ele>9.3</ele><time>2022-11-15T12:32:43Z</time><name>PT4651</name></trkpt>
<trkpt lat="51.555114" lon="03.805524"><ele>9.4</ele><time>2022-11-15T12:32:43Z</time><name>PT4652</name></trkpt>
<trkpt lat="51.555113" lon="03.805536"><ele>9.5</ele><time>2022-11-15T12:32:45Z</time><name>PT4653</name></trkpt>
<trkpt lat="51.555111" lon="03.805550"><ele>9.5</ele><time>2022-11-15T12:32:45Z</time><name>PT4654</name></trkpt>
<trkpt lat="51.555110" lon="03.805565"><ele>9.3</ele><time>2022-11-15T12:32:47Z</time><name>PT4655</name></trkpt>
<trkpt lat="51.555108" lon="03.805584"><ele>9.3</ele><time>2022-11-15T12:32:47Z</time><name>PT4656</name></trkpt>
<trkpt lat="51.555107" lon="03.805606"><ele>9.3</ele><time>2022-11-15T12:32:49Z</time><name>PT4657</name></trkpt>
<trkpt lat="51.555106" lon="03.805631"><ele>9.3</ele><time>2022-11-15T12:32:49Z</time><name>PT4658</name></trkpt>
<trkpt lat="51.555104" lon="03.805650"><ele>9.5</ele><time>2022-11-15T12:32:51Z</time><name>PT4659</name></trkpt>
<trkpt lat="51.555104" lon="03.805665"><ele>9.5</ele><time>2022-11-15T12:32:51Z</time><name>PT4660</name></trkpt>
<trkpt lat="51.555106" lon="03.805676"><ele>9.6</ele><time>2022-11-15T12:32:53Z</time><name>PT4661</name></trkpt>
<trkpt lat="51.555105" lon="03.805687"><ele>9.5</ele><time>2022-11-15T12:32:53Z</time><name>PT4662</name></trkpt>
<trkpt lat="51.555103" lon="03.805700"><ele>9.4</ele><time>2022-11-15T12:32:55Z</time><name>PT4663</name></trkpt>
<trkpt lat="51.555102" lon="03.805714"><ele>9.4</ele><time>2022-11-15T12:32:55Z</time><name>PT4664</name></trkpt>
<trkpt lat="51.555102" lon="03.805728"><ele>9.4</ele><time>2022-11-15T12:32:57Z</time><name>PT4665</name></trkpt>
<trkpt lat="51.555103" lon="03.805749"><ele>9.5</ele><time>2022-11-15T12:32:57Z</time><name>PT4666</name></trkpt>
<trkpt lat="51.555098" lon="03.805775"><ele>9.6</ele><time>2022-11-15T12:32:59Z</time><name>PT4667</name></trkpt>
<trkpt lat="51.555096" lon="03.805803"><ele>9.8</ele><time>2022-11-15T12:32:59Z</time><name>PT4668</name></trkpt>
<trkpt lat="51.555095" lon="03.805829"><ele>9.8</ele><time>2022-11-15T12:33:01Z</time><name>PT4669</name></trkpt>
<trkpt lat="51.555098" lon="03.805846"><ele>9.9</ele><time>2022-11-15T12:33:01Z</time><name>PT4670</name></trkpt>
<trkpt lat="51.555099" lon="03.805857"><ele>9.7</ele><time>2022-11-15T12:33:03Z</time><name>PT4671</name></trkpt>
<trkpt lat="51.555103" lon="03.805870"><ele>9.8</ele><time>2022-11-15T12:33:03Z</time><name>PT4672</name></trkpt>
<trkpt lat="51.555106" lon="03.805883"><ele>9.9</ele><time>2022-11-15T12:33:05Z</time><name>PT4673</name></trkpt>
<trkpt lat="51.555108" lon="03.805893"><ele>9.8</ele><time>2022-11-15T12:33:05Z</time><name>PT4674</name></trkpt>
<trkpt lat="51.555109" lon="03.805900"><ele>9.9</ele><time>2022-11-15T12:33:07Z</time><name>PT4675</name></trkpt>
<trkpt lat="51.555110" lon="03.805909"><ele>9.9</ele><time>2022-11-15T12:33:07Z</time><name>PT4676</name></trkpt>
<trkpt lat="51.555109" lon="03.805923"><ele>10</ele><time>2022-11-15T12:33:09Z</time><name>PT4677</name></trkpt>
<trkpt lat="51.555108" lon="03.805940"><ele>9.9</ele><time>2022-11-15T12:33:09Z</time><name>PT4678</name></trkpt>
<trkpt lat="51.555106" lon="03.805961"><ele>9.7</ele><time>2022-11-15T12:33:11Z</time><name>PT4679</name></trkpt>
<trkpt lat="51.555105" lon="03.805987"><ele>9.5</ele><time>2022-11-15T12:33:12Z</time><name>PT4680</name></trkpt>
<trkpt lat="51.555102" lon="03.806014"><ele>9.5</ele><time>2022-11-15T12:33:13Z</time><name>PT4681</name></trkpt>
<trkpt lat="51.555105" lon="03.806038"><ele>9.5</ele><time>2022-11-15T12:33:13Z</time><name>PT4682</name></trkpt>
<trkpt lat="51.555110" lon="03.806060"><ele>9.5</ele><time>2022-11-15T12:33:15Z</time><name>PT4683</name></trkpt>
<trkpt lat="51.555112" lon="03.806081"><ele>9.6</ele><time>2022-11-15T12:33:15Z</time><name>PT4684</name></trkpt>
<trkpt lat="51.555114" lon="03.806100"><ele>9.7</ele><time>2022-11-15T12:33:17Z</time><name>PT4685</name></trkpt>
<trkpt lat="51.555115" lon="03.806118"><ele>9.7</ele><time>2022-11-15T12:33:17Z</time><name>PT4686</name></trkpt>
<trkpt lat="51.555112" lon="03.806131"><ele>9.7</ele><time>2022-11-15T12:33:19Z</time><name>PT4687</name></trkpt>
<trkpt lat="51.555106" lon="03.806149"><ele>9.7</ele><time>2022-11-15T12:33:19Z</time><name>PT4688</name></trkpt>
<trkpt lat="51.555104" lon="03.806167"><ele>9.5</ele><time>2022-11-15T12:33:21Z</time><name>PT4689</name></trkpt>
<trkpt lat="51.555105" lon="03.806184"><ele>9.5</ele><time>2022-11-15T12:33:21Z</time><name>PT4690</name></trkpt>
<trkpt lat="51.555106" lon="03.806201"><ele>9.5</ele><time>2022-11-15T12:33:23Z</time><name>PT4691</name></trkpt>
<trkpt lat="51.555108" lon="03.806216"><ele>9.6</ele><time>2022-11-15T12:33:23Z</time><name>PT4692</name></trkpt>
<trkpt lat="51.555106" lon="03.806232"><ele>9.8</ele><time>2022-11-15T12:33:25Z</time><name>PT4693</name></trkpt>
<trkpt lat="51.555105" lon="03.806249"><ele>9.9</ele><time>2022-11-15T12:33:25Z</time><name>PT4694</name></trkpt>
<trkpt lat="51.555104" lon="03.806266"><ele>9.9</ele><time>2022-11-15T12:33:27Z</time><name>PT4695</name></trkpt>
<trkpt lat="51.555102" lon="03.806283"><ele>9.9</ele><time>2022-11-15T12:33:27Z</time><name>PT4696</name></trkpt>
<trkpt lat="51.555102" lon="03.806299"><ele>9.8</ele><time>2022-11-15T12:33:29Z</time><name>PT4697</name></trkpt>
<trkpt lat="51.555103" lon="03.806315"><ele>9.8</ele><time>2022-11-15T12:33:29Z</time><name>PT4698</name></trkpt>
<trkpt lat="51.555105" lon="03.806331"><ele>9.9</ele><time>2022-11-15T12:33:31Z</time><name>PT4699</name></trkpt>
<trkpt lat="51.555106" lon="03.806348"><ele>10</ele><time>2022-11-15T12:33:31Z</time><name>PT4700</name></trkpt>
<trkpt lat="51.555108" lon="03.806356"><ele>10</ele><time>2022-11-15T12:33:33Z</time><name>PT4701</name></trkpt>
<trkpt lat="51.555108" lon="03.806365"><ele>10</ele><time>2022-11-15T12:33:33Z</time><name>PT4702</name></trkpt>
<trkpt lat="51.555109" lon="03.806375"><ele>10</ele><time>2022-11-15T12:33:35Z</time><name>PT4703</name></trkpt>
<trkpt lat="51.555111" lon="03.806382"><ele>10</ele><time>2022-11-15T12:33:35Z</time><name>PT4704</name></trkpt>
<trkpt lat="51.555113" lon="03.806392"><ele>10</ele><time>2022-11-15T12:33:37Z</time><name>PT4705</name></trkpt>
<trkpt lat="51.555115" lon="03.806404"><ele>10.1</ele><time>2022-11-15T12:33:37Z</time><name>PT4706</name></trkpt>
<trkpt lat="51.555117" lon="03.806411"><ele>10.1</ele><time>2022-11-15T12:33:39Z</time><name>PT4707</name></trkpt>
<trkpt lat="51.555115" lon="03.806415"><ele>10.1</ele><time>2022-11-15T12:33:39Z</time><name>PT4708</name></trkpt>
<trkpt lat="51.555112" lon="03.806416"><ele>10</ele><time>2022-11-15T12:33:41Z</time><name>PT4709</name></trkpt>
<trkpt lat="51.555112" lon="03.806416"><ele>10</ele><time>2022-11-15T12:33:41Z</time><name>PT4710</name></trkpt>
<trkpt lat="51.555112" lon="03.806427"><ele>10.1</ele><time>2022-11-15T12:33:45Z</time><name>PT4711</name></trkpt>
<trkpt lat="51.555115" lon="03.806440"><ele>10.1</ele><time>2022-11-15T12:33:45Z</time><name>PT4712</name></trkpt>
<trkpt lat="51.555114" lon="03.806462"><ele>10</ele><time>2022-11-15T12:33:47Z</time><name>PT4713</name></trkpt>
<trkpt lat="51.555112" lon="03.806494"><ele>10</ele><time>2022-11-15T12:33:47Z</time><name>PT4714</name></trkpt>
<trkpt lat="51.555111" lon="03.806528"><ele>9.7</ele><time>2022-11-15T12:33:49Z</time><name>PT4715</name></trkpt>
<trkpt lat="51.555112" lon="03.806553"><ele>9.8</ele><time>2022-11-15T12:33:49Z</time><name>PT4716</name></trkpt>
<trkpt lat="51.555113" lon="03.806577"><ele>10</ele><time>2022-11-15T12:33:51Z</time><name>PT4717</name></trkpt>
<trkpt lat="51.555112" lon="03.806595"><ele>10</ele><time>2022-11-15T12:33:51Z</time><name>PT4718</name></trkpt>
<trkpt lat="51.555111" lon="03.806611"><ele>10</ele><time>2022-11-15T12:33:53Z</time><name>PT4719</name></trkpt>
<trkpt lat="51.555110" lon="03.806624"><ele>10.3</ele><time>2022-11-15T12:33:53Z</time><name>PT4720</name></trkpt>
<trkpt lat="51.555112" lon="03.806637"><ele>10.4</ele><time>2022-11-15T12:33:55Z</time><name>PT4721</name></trkpt>
<trkpt lat="51.555110" lon="03.806650"><ele>10.4</ele><time>2022-11-15T12:33:55Z</time><name>PT4722</name></trkpt>
<trkpt lat="51.555109" lon="03.806665"><ele>10.5</ele><time>2022-11-15T12:33:57Z</time><name>PT4723</name></trkpt>
<trkpt lat="51.555107" lon="03.806684"><ele>10.4</ele><time>2022-11-15T12:33:57Z</time><name>PT4724</name></trkpt>
<trkpt lat="51.555103" lon="03.806705"><ele>10.4</ele><time>2022-11-15T12:33:59Z</time><name>PT4725</name></trkpt>
<trkpt lat="51.555102" lon="03.806729"><ele>10.6</ele><time>2022-11-15T12:34:00Z</time><name>PT4726</name></trkpt>
<trkpt lat="51.555103" lon="03.806755"><ele>10.5</ele><time>2022-11-15T12:34:00Z</time><name>PT4727</name></trkpt>
<trkpt lat="51.555107" lon="03.806782"><ele>10.5</ele><time>2022-11-15T12:34:02Z</time><name>PT4728</name></trkpt>
<trkpt lat="51.555107" lon="03.806801"><ele>10.5</ele><time>2022-11-15T12:34:02Z</time><name>PT4729</name></trkpt>
<trkpt lat="51.555106" lon="03.806816"><ele>10.3</ele><time>2022-11-15T12:34:04Z</time><name>PT4730</name></trkpt>
<trkpt lat="51.555106" lon="03.806827"><ele>10.2</ele><time>2022-11-15T12:34:04Z</time><name>PT4731</name></trkpt>
<trkpt lat="51.555109" lon="03.806835"><ele>10</ele><time>2022-11-15T12:34:06Z</time><name>PT4732</name></trkpt>
<trkpt lat="51.555109" lon="03.806846"><ele>10</ele><time>2022-11-15T12:34:06Z</time><name>PT4733</name></trkpt>
<trkpt lat="51.555109" lon="03.806860"><ele>10.1</ele><time>2022-11-15T12:34:08Z</time><name>PT4734</name></trkpt>
<trkpt lat="51.555108" lon="03.806874"><ele>10.1</ele><time>2022-11-15T12:34:08Z</time><name>PT4735</name></trkpt>
<trkpt lat="51.555107" lon="03.806894"><ele>10.3</ele><time>2022-11-15T12:34:10Z</time><name>PT4736</name></trkpt>
<trkpt lat="51.555108" lon="03.806918"><ele>10.3</ele><time>2022-11-15T12:34:10Z</time><name>PT4737</name></trkpt>
<trkpt lat="51.555108" lon="03.806944"><ele>10.5</ele><time>2022-11-15T12:34:12Z</time><name>PT4738</name></trkpt>
<trkpt lat="51.555103" lon="03.806964"><ele>10.5</ele><time>2022-11-15T12:34:12Z</time><name>PT4739</name></trkpt>
<trkpt lat="51.555102" lon="03.806983"><ele>10.5</ele><time>2022-11-15T12:34:14Z</time><name>PT4740</name></trkpt>
<trkpt lat="51.555100" lon="03.807001"><ele>10.6</ele><time>2022-11-15T12:34:14Z</time><name>PT4741</name></trkpt>
<trkpt lat="51.555100" lon="03.807015"><ele>10.7</ele><time>2022-11-15T12:34:16Z</time><name>PT4742</name></trkpt>
<trkpt lat="51.555099" lon="03.807029"><ele>10.7</ele><time>2022-11-15T12:34:16Z</time><name>PT4743</name></trkpt>
<trkpt lat="51.555098" lon="03.807043"><ele>11</ele><time>2022-11-15T12:34:18Z</time><name>PT4744</name></trkpt>
<trkpt lat="51.555096" lon="03.807056"><ele>11</ele><time>2022-11-15T12:34:18Z</time><name>PT4745</name></trkpt>
<trkpt lat="51.555094" lon="03.807071"><ele>11.1</ele><time>2022-11-15T12:34:20Z</time><name>PT4746</name></trkpt>
<trkpt lat="51.555094" lon="03.807084"><ele>11</ele><time>2022-11-15T12:34:20Z</time><name>PT4747</name></trkpt>
<trkpt lat="51.555094" lon="03.807099"><ele>11</ele><time>2022-11-15T12:34:22Z</time><name>PT4748</name></trkpt>
<trkpt lat="51.555092" lon="03.807119"><ele>10.8</ele><time>2022-11-15T12:34:22Z</time><name>PT4749</name></trkpt>
<trkpt lat="51.555090" lon="03.807143"><ele>10.9</ele><time>2022-11-15T12:34:24Z</time><name>PT4750</name></trkpt>
<trkpt lat="51.555089" lon="03.807167"><ele>10.6</ele><time>2022-11-15T12:34:24Z</time><name>PT4751</name></trkpt>
<trkpt lat="51.555087" lon="03.807191"><ele>11</ele><time>2022-11-15T12:34:26Z</time><name>PT4752</name></trkpt>
<trkpt lat="51.555088" lon="03.807214"><ele>11.3</ele><time>2022-11-15T12:34:26Z</time><name>PT4753</name></trkpt>
<trkpt lat="51.555091" lon="03.807234"><ele>11.8</ele><time>2022-11-15T12:34:28Z</time><name>PT4754</name></trkpt>
<trkpt lat="51.555092" lon="03.807247"><ele>11.7</ele><time>2022-11-15T12:34:28Z</time><name>PT4755</name></trkpt>
<trkpt lat="51.555092" lon="03.807256"><ele>11.9</ele><time>2022-11-15T12:34:30Z</time><name>PT4756</name></trkpt>
<trkpt lat="51.555089" lon="03.807269"><ele>11.8</ele><time>2022-11-15T12:34:30Z</time><name>PT4757</name></trkpt>
<trkpt lat="51.555086" lon="03.807282"><ele>11.4</ele><time>2022-11-15T12:34:32Z</time><name>PT4758</name></trkpt>
<trkpt lat="51.555085" lon="03.807301"><ele>11</ele><time>2022-11-15T12:34:32Z</time><name>PT4759</name></trkpt>
<trkpt lat="51.555082" lon="03.807321"><ele>11</ele><time>2022-11-15T12:34:34Z</time><name>PT4760</name></trkpt>
<trkpt lat="51.555081" lon="03.807340"><ele>10.8</ele><time>2022-11-15T12:34:34Z</time><name>PT4761</name></trkpt>
<trkpt lat="51.555080" lon="03.807357"><ele>10.6</ele><time>2022-11-15T12:34:36Z</time><name>PT4762</name></trkpt>
<trkpt lat="51.555079" lon="03.807371"><ele>10.6</ele><time>2022-11-15T12:34:36Z</time><name>PT4763</name></trkpt>
<trkpt lat="51.555080" lon="03.807394"><ele>10.8</ele><time>2022-11-15T12:34:38Z</time><name>PT4764</name></trkpt>
<trkpt lat="51.555080" lon="03.807420"><ele>10.8</ele><time>2022-11-15T12:34:38Z</time><name>PT4765</name></trkpt>
<trkpt lat="51.555075" lon="03.807439"><ele>10.7</ele><time>2022-11-15T12:34:40Z</time><name>PT4766</name></trkpt>
<trkpt lat="51.555072" lon="03.807450"><ele>10.6</ele><time>2022-11-15T12:34:40Z</time><name>PT4767</name></trkpt>
<trkpt lat="51.555072" lon="03.807456"><ele>10.5</ele><time>2022-11-15T12:34:42Z</time><name>PT4768</name></trkpt>
<trkpt lat="51.555070" lon="03.807461"><ele>10.6</ele><time>2022-11-15T12:34:42Z</time><name>PT4769</name></trkpt>
<trkpt lat="51.555068" lon="03.807468"><ele>10.5</ele><time>2022-11-15T12:34:44Z</time><name>PT4770</name></trkpt>
<trkpt lat="51.555067" lon="03.807469"><ele>10.5</ele><time>2022-11-15T12:34:44Z</time><name>PT4771</name></trkpt>
<trkpt lat="51.555067" lon="03.807471"><ele>10.4</ele><time>2022-11-15T12:34:46Z</time><name>PT4772</name></trkpt>
<trkpt lat="51.555068" lon="03.807472"><ele>10.3</ele><time>2022-11-15T12:34:46Z</time><name>PT4773</name></trkpt>
<trkpt lat="51.555072" lon="03.807479"><ele>9.9</ele><time>2022-11-15T12:34:48Z</time><name>PT4774</name></trkpt>
<trkpt lat="51.555073" lon="03.807490"><ele>10</ele><time>2022-11-15T12:34:48Z</time><name>PT4775</name></trkpt>
<trkpt lat="51.555073" lon="03.807501"><ele>10.1</ele><time>2022-11-15T12:34:50Z</time><name>PT4776</name></trkpt>
<trkpt lat="51.555068" lon="03.807511"><ele>10.2</ele><time>2022-11-15T12:34:51Z</time><name>PT4777</name></trkpt>
<trkpt lat="51.555067" lon="03.807523"><ele>10.2</ele><time>2022-11-15T12:34:52Z</time><name>PT4778</name></trkpt>
<trkpt lat="51.555063" lon="03.807541"><ele>10.4</ele><time>2022-11-15T12:34:53Z</time><name>PT4779</name></trkpt>
<trkpt lat="51.555061" lon="03.807565"><ele>10.1</ele><time>2022-11-15T12:34:54Z</time><name>PT4780</name></trkpt>
<trkpt lat="51.555061" lon="03.807595"><ele>10</ele><time>2022-11-15T12:34:54Z</time><name>PT4781</name></trkpt>
<trkpt lat="51.555060" lon="03.807621"><ele>10</ele><time>2022-11-15T12:34:56Z</time><name>PT4782</name></trkpt>
<trkpt lat="51.555060" lon="03.807644"><ele>9.9</ele><time>2022-11-15T12:34:56Z</time><name>PT4783</name></trkpt>
<trkpt lat="51.555062" lon="03.807663"><ele>10</ele><time>2022-11-15T12:34:58Z</time><name>PT4784</name></trkpt>
<trkpt lat="51.555064" lon="03.807678"><ele>10.3</ele><time>2022-11-15T12:34:58Z</time><name>PT4785</name></trkpt>
<trkpt lat="51.555066" lon="03.807692"><ele>10.5</ele><time>2022-11-15T12:35:00Z</time><name>PT4786</name></trkpt>
<trkpt lat="51.555068" lon="03.807702"><ele>10.6</ele><time>2022-11-15T12:35:01Z</time><name>PT4787</name></trkpt>
<trkpt lat="51.555068" lon="03.807710"><ele>10.8</ele><time>2022-11-15T12:35:02Z</time><name>PT4788</name></trkpt>
<trkpt lat="51.555064" lon="03.807726"><ele>10.9</ele><time>2022-11-15T12:35:02Z</time><name>PT4789</name></trkpt>
<trkpt lat="51.555061" lon="03.807750"><ele>11</ele><time>2022-11-15T12:35:04Z</time><name>PT4790</name></trkpt>
<trkpt lat="51.555059" lon="03.807776"><ele>10.9</ele><time>2022-11-15T12:35:04Z</time><name>PT4791</name></trkpt>
<trkpt lat="51.555060" lon="03.807798"><ele>10.8</ele><time>2022-11-15T12:35:06Z</time><name>PT4792</name></trkpt>
<trkpt lat="51.555059" lon="03.807814"><ele>11</ele><time>2022-11-15T12:35:06Z</time><name>PT4793</name></trkpt>
<trkpt lat="51.555059" lon="03.807824"><ele>11</ele><time>2022-11-15T12:35:08Z</time><name>PT4794</name></trkpt>
<trkpt lat="51.555061" lon="03.807832"><ele>10.8</ele><time>2022-11-15T12:35:08Z</time><name>PT4795</name></trkpt>
<trkpt lat="51.555060" lon="03.807839"><ele>10.7</ele><time>2022-11-15T12:35:10Z</time><name>PT4796</name></trkpt>
<trkpt lat="51.555060" lon="03.807848"><ele>10.5</ele><time>2022-11-15T12:35:10Z</time><name>PT4797</name></trkpt>
<trkpt lat="51.555061" lon="03.807858"><ele>10.3</ele><time>2022-11-15T12:35:12Z</time><name>PT4798</name></trkpt>
<trkpt lat="51.555061" lon="03.807869"><ele>10.5</ele><time>2022-11-15T12:35:13Z</time><name>PT4799</name></trkpt>
<trkpt lat="51.555058" lon="03.807880"><ele>10.8</ele><time>2022-11-15T12:35:14Z</time><name>PT4800</name></trkpt>
<trkpt lat="51.555056" lon="03.807895"><ele>10.8</ele><time>2022-11-15T12:35:14Z</time><name>PT4801</name></trkpt>
<trkpt lat="51.555050" lon="03.807912"><ele>11</ele><time>2022-11-15T12:35:16Z</time><name>PT4802</name></trkpt>
<trkpt lat="51.555046" lon="03.807933"><ele>11.3</ele><time>2022-11-15T12:35:16Z</time><name>PT4803</name></trkpt>
<trkpt lat="51.555043" lon="03.807956"><ele>11</ele><time>2022-11-15T12:35:18Z</time><name>PT4804</name></trkpt>
<trkpt lat="51.555044" lon="03.807979"><ele>11</ele><time>2022-11-15T12:35:19Z</time><name>PT4805</name></trkpt>
<trkpt lat="51.555043" lon="03.808003"><ele>11.3</ele><time>2022-11-15T12:35:20Z</time><name>PT4806</name></trkpt>
<trkpt lat="51.555044" lon="03.808023"><ele>11.4</ele><time>2022-11-15T12:35:21Z</time><name>PT4807</name></trkpt>
<trkpt lat="51.555044" lon="03.808037"><ele>11.5</ele><time>2022-11-15T12:35:22Z</time><name>PT4808</name></trkpt>
<trkpt lat="51.555043" lon="03.808048"><ele>11.9</ele><time>2022-11-15T12:35:23Z</time><name>PT4809</name></trkpt>
<trkpt lat="51.555043" lon="03.808058"><ele>12</ele><time>2022-11-15T12:35:24Z</time><name>PT4810</name></trkpt>
<trkpt lat="51.555043" lon="03.808067"><ele>11.9</ele><time>2022-11-15T12:35:25Z</time><name>PT4811</name></trkpt>
<trkpt lat="51.555043" lon="03.808079"><ele>11.7</ele><time>2022-11-15T12:35:26Z</time><name>PT4812</name></trkpt>
<trkpt lat="51.555042" lon="03.808095"><ele>11.5</ele><time>2022-11-15T12:35:27Z</time><name>PT4813</name></trkpt>
<trkpt lat="51.555040" lon="03.808115"><ele>11.4</ele><time>2022-11-15T12:35:28Z</time><name>PT4814</name></trkpt>
<trkpt lat="51.555041" lon="03.808137"><ele>11.3</ele><time>2022-11-15T12:35:29Z</time><name>PT4815</name></trkpt>
<trkpt lat="51.555044" lon="03.808162"><ele>11.5</ele><time>2022-11-15T12:35:30Z</time><name>PT4816</name></trkpt>
<trkpt lat="51.555044" lon="03.808187"><ele>11.7</ele><time>2022-11-15T12:35:31Z</time><name>PT4817</name></trkpt>
<trkpt lat="51.555044" lon="03.808204"><ele>11.9</ele><time>2022-11-15T12:35:32Z</time><name>PT4818</name></trkpt>
<trkpt lat="51.555043" lon="03.808214"><ele>11.8</ele><time>2022-11-15T12:35:33Z</time><name>PT4819</name></trkpt>
<trkpt lat="51.555042" lon="03.808219"><ele>11.6</ele><time>2022-11-15T12:35:34Z</time><name>PT4820</name></trkpt>
<trkpt lat="51.555041" lon="03.808223"><ele>11.5</ele><time>2022-11-15T12:35:34Z</time><name>PT4821</name></trkpt>
<trkpt lat="51.555038" lon="03.808236"><ele>11</ele><time>2022-11-15T12:35:36Z</time><name>PT4822</name></trkpt>
<trkpt lat="51.555037" lon="03.808256"><ele>10.9</ele><time>2022-11-15T12:35:36Z</time><name>PT4823</name></trkpt>
<trkpt lat="51.555036" lon="03.808279"><ele>10.8</ele><time>2022-11-15T12:35:38Z</time><name>PT4824</name></trkpt>
<trkpt lat="51.555035" lon="03.808296"><ele>10.7</ele><time>2022-11-15T12:35:38Z</time><name>PT4825</name></trkpt>
<trkpt lat="51.555032" lon="03.808298"><ele>10.4</ele><time>2022-11-15T12:35:40Z</time><name>PT4826</name></trkpt>
<trkpt lat="51.555031" lon="03.808296"><ele>10.2</ele><time>2022-11-15T12:35:40Z</time><name>PT4827</name></trkpt>
<trkpt lat="51.555033" lon="03.808295"><ele>10.2</ele><time>2022-11-15T12:35:42Z</time><name>PT4828</name></trkpt>
<trkpt lat="51.555034" lon="03.808294"><ele>10.1</ele><time>2022-11-15T12:35:42Z</time><name>PT4829</name></trkpt>
<trkpt lat="51.555028" lon="03.808295"><ele>10.1</ele><time>2022-11-15T12:35:48Z</time><name>PT4830</name></trkpt>
<trkpt lat="51.555025" lon="03.808314"><ele>10.4</ele><time>2022-11-15T12:35:50Z</time><name>PT4831</name></trkpt>
<trkpt lat="51.555025" lon="03.808340"><ele>10.5</ele><time>2022-11-15T12:35:50Z</time><name>PT4832</name></trkpt>
<trkpt lat="51.555025" lon="03.808369"><ele>10.4</ele><time>2022-11-15T12:35:52Z</time><name>PT4833</name></trkpt>
<trkpt lat="51.555023" lon="03.808394"><ele>10.4</ele><time>2022-11-15T12:35:52Z</time><name>PT4834</name></trkpt>
<trkpt lat="51.555023" lon="03.808411"><ele>10.3</ele><time>2022-11-15T12:35:54Z</time><name>PT4835</name></trkpt>
<trkpt lat="51.555023" lon="03.808423"><ele>10.4</ele><time>2022-11-15T12:35:54Z</time><name>PT4836</name></trkpt>
<trkpt lat="51.555024" lon="03.808430"><ele>10.6</ele><time>2022-11-15T12:35:56Z</time><name>PT4837</name></trkpt>
<trkpt lat="51.555022" lon="03.808438"><ele>10.6</ele><time>2022-11-15T12:35:56Z</time><name>PT4838</name></trkpt>
<trkpt lat="51.555021" lon="03.808449"><ele>10.6</ele><time>2022-11-15T12:35:58Z</time><name>PT4839</name></trkpt>
<trkpt lat="51.555020" lon="03.808466"><ele>10.7</ele><time>2022-11-15T12:35:58Z</time><name>PT4840</name></trkpt>
<trkpt lat="51.555020" lon="03.808488"><ele>10.8</ele><time>2022-11-15T12:36:00Z</time><name>PT4841</name></trkpt>
<trkpt lat="51.555018" lon="03.808516"><ele>10.8</ele><time>2022-11-15T12:36:00Z</time><name>PT4842</name></trkpt>
<trkpt lat="51.555017" lon="03.808544"><ele>10.9</ele><time>2022-11-15T12:36:02Z</time><name>PT4843</name></trkpt>
<trkpt lat="51.555017" lon="03.808571"><ele>11</ele><time>2022-11-15T12:36:02Z</time><name>PT4844</name></trkpt>
<trkpt lat="51.555018" lon="03.808593"><ele>10.9</ele><time>2022-11-15T12:36:04Z</time><name>PT4845</name></trkpt>
<trkpt lat="51.555021" lon="03.808607"><ele>10.9</ele><time>2022-11-15T12:36:04Z</time><name>PT4846</name></trkpt>
<trkpt lat="51.555023" lon="03.808618"><ele>10.9</ele><time>2022-11-15T12:36:06Z</time><name>PT4847</name></trkpt>
<trkpt lat="51.555027" lon="03.808629"><ele>10.8</ele><time>2022-11-15T12:36:06Z</time><name>PT4848</name></trkpt>
<trkpt lat="51.555027" lon="03.808639"><ele>10.8</ele><time>2022-11-15T12:36:08Z</time><name>PT4849</name></trkpt>
<trkpt lat="51.555024" lon="03.808649"><ele>10.7</ele><time>2022-11-15T12:36:08Z</time><name>PT4850</name></trkpt>
<trkpt lat="51.555025" lon="03.808666"><ele>10.6</ele><time>2022-11-15T12:36:10Z</time><name>PT4851</name></trkpt>
<trkpt lat="51.555022" lon="03.808689"><ele>10.5</ele><time>2022-11-15T12:36:10Z</time><name>PT4852</name></trkpt>
<trkpt lat="51.555021" lon="03.808716"><ele>10.5</ele><time>2022-11-15T12:36:12Z</time><name>PT4853</name></trkpt>
<trkpt lat="51.555021" lon="03.808742"><ele>10.5</ele><time>2022-11-15T12:36:12Z</time><name>PT4854</name></trkpt>
<trkpt lat="51.555022" lon="03.808761"><ele>10.6</ele><time>2022-11-15T12:36:14Z</time><name>PT4855</name></trkpt>
<trkpt lat="51.555023" lon="03.808773"><ele>10.5</ele><time>2022-11-15T12:36:14Z</time><name>PT4856</name></trkpt>
<trkpt lat="51.555024" lon="03.808783"><ele>10.5</ele><time>2022-11-15T12:36:16Z</time><name>PT4857</name></trkpt>
<trkpt lat="51.555024" lon="03.808795"><ele>10.3</ele><time>2022-11-15T12:36:16Z</time><name>PT4858</name></trkpt>
<trkpt lat="51.555028" lon="03.808806"><ele>10.2</ele><time>2022-11-15T12:36:18Z</time><name>PT4859</name></trkpt>
<trkpt lat="51.555029" lon="03.808819"><ele>10</ele><time>2022-11-15T12:36:18Z</time><name>PT4860</name></trkpt>
<trkpt lat="51.555028" lon="03.808836"><ele>10.2</ele><time>2022-11-15T12:36:20Z</time><name>PT4861</name></trkpt>
<trkpt lat="51.555025" lon="03.808858"><ele>10.5</ele><time>2022-11-15T12:36:20Z</time><name>PT4862</name></trkpt>
<trkpt lat="51.555022" lon="03.808888"><ele>10.8</ele><time>2022-11-15T12:36:22Z</time><name>PT4863</name></trkpt>
<trkpt lat="51.555017" lon="03.808909"><ele>10.9</ele><time>2022-11-15T12:36:22Z</time><name>PT4864</name></trkpt>
<trkpt lat="51.555014" lon="03.808920"><ele>11</ele><time>2022-11-15T12:36:24Z</time><name>PT4865</name></trkpt>
<trkpt lat="51.555012" lon="03.808931"><ele>11</ele><time>2022-11-15T12:36:24Z</time><name>PT4866</name></trkpt>
<trkpt lat="51.555014" lon="03.808944"><ele>10.9</ele><time>2022-11-15T12:36:26Z</time><name>PT4867</name></trkpt>
<trkpt lat="51.555014" lon="03.808961"><ele>10.6</ele><time>2022-11-15T12:36:26Z</time><name>PT4868</name></trkpt>
<trkpt lat="51.555017" lon="03.808978"><ele>10.5</ele><time>2022-11-15T12:36:28Z</time><name>PT4869</name></trkpt>
<trkpt lat="51.555023" lon="03.808984"><ele>10.5</ele><time>2022-11-15T12:36:28Z</time><name>PT4870</name></trkpt>
<trkpt lat="51.555025" lon="03.808990"><ele>10.4</ele><time>2022-11-15T12:36:30Z</time><name>PT4871</name></trkpt>
<trkpt lat="51.555025" lon="03.809002"><ele>10.5</ele><time>2022-11-15T12:36:31Z</time><name>PT4872</name></trkpt>
<trkpt lat="51.555026" lon="03.809019"><ele>10.6</ele><time>2022-11-15T12:36:32Z</time><name>PT4873</name></trkpt>
<trkpt lat="51.555028" lon="03.809044"><ele>10.6</ele><time>2022-11-15T12:36:33Z</time><name>PT4874</name></trkpt>
<trkpt lat="51.555029" lon="03.809072"><ele>10.8</ele><time>2022-11-15T12:36:34Z</time><name>PT4875</name></trkpt>
<trkpt lat="51.555028" lon="03.809099"><ele>10.8</ele><time>2022-11-15T12:36:35Z</time><name>PT4876</name></trkpt>
<trkpt lat="51.555026" lon="03.809123"><ele>10.8</ele><time>2022-11-15T12:36:36Z</time><name>PT4877</name></trkpt>
<trkpt lat="51.555025" lon="03.809140"><ele>10.7</ele><time>2022-11-15T12:36:37Z</time><name>PT4878</name></trkpt>
<trkpt lat="51.555026" lon="03.809154"><ele>10.7</ele><time>2022-11-15T12:36:38Z</time><name>PT4879</name></trkpt>
<trkpt lat="51.555026" lon="03.809166"><ele>10.5</ele><time>2022-11-15T12:36:39Z</time><name>PT4880</name></trkpt>
<trkpt lat="51.555026" lon="03.809180"><ele>10.5</ele><time>2022-11-15T12:36:40Z</time><name>PT4881</name></trkpt>
<trkpt lat="51.555024" lon="03.809194"><ele>10.5</ele><time>2022-11-15T12:36:41Z</time><name>PT4882</name></trkpt>
<trkpt lat="51.555023" lon="03.809208"><ele>10.5</ele><time>2022-11-15T12:36:42Z</time><name>PT4883</name></trkpt>
<trkpt lat="51.555023" lon="03.809223"><ele>10.7</ele><time>2022-11-15T12:36:43Z</time><name>PT4884</name></trkpt>
<trkpt lat="51.555020" lon="03.809244"><ele>10.8</ele><time>2022-11-15T12:36:44Z</time><name>PT4885</name></trkpt>
<trkpt lat="51.555017" lon="03.809268"><ele>10.9</ele><time>2022-11-15T12:36:45Z</time><name>PT4886</name></trkpt>
<trkpt lat="51.555017" lon="03.809289"><ele>11</ele><time>2022-11-15T12:36:46Z</time><name>PT4887</name></trkpt>
<trkpt lat="51.555018" lon="03.809309"><ele>11</ele><time>2022-11-15T12:36:47Z</time><name>PT4888</name></trkpt>
<trkpt lat="51.555020" lon="03.809326"><ele>11</ele><time>2022-11-15T12:36:48Z</time><name>PT4889</name></trkpt>
<trkpt lat="51.555022" lon="03.809342"><ele>11</ele><time>2022-11-15T12:36:49Z</time><name>PT4890</name></trkpt>
<trkpt lat="51.555025" lon="03.809355"><ele>11</ele><time>2022-11-15T12:36:50Z</time><name>PT4891</name></trkpt>
<trkpt lat="51.555027" lon="03.809367"><ele>10.9</ele><time>2022-11-15T12:36:51Z</time><name>PT4892</name></trkpt>
<trkpt lat="51.555029" lon="03.809379"><ele>10.9</ele><time>2022-11-15T12:36:52Z</time><name>PT4893</name></trkpt>
<trkpt lat="51.555028" lon="03.809392"><ele>11</ele><time>2022-11-15T12:36:53Z</time><name>PT4894</name></trkpt>
<trkpt lat="51.555027" lon="03.809405"><ele>10.8</ele><time>2022-11-15T12:36:54Z</time><name>PT4895</name></trkpt>
<trkpt lat="51.555025" lon="03.809421"><ele>10.9</ele><time>2022-11-15T12:36:54Z</time><name>PT4896</name></trkpt>
<trkpt lat="51.555022" lon="03.809440"><ele>11.1</ele><time>2022-11-15T12:36:56Z</time><name>PT4897</name></trkpt>
<trkpt lat="51.555021" lon="03.809455"><ele>11.1</ele><time>2022-11-15T12:36:56Z</time><name>PT4898</name></trkpt>
<trkpt lat="51.555022" lon="03.809467"><ele>11.2</ele><time>2022-11-15T12:36:58Z</time><name>PT4899</name></trkpt>
<trkpt lat="51.555023" lon="03.809477"><ele>11.3</ele><time>2022-11-15T12:36:58Z</time><name>PT4900</name></trkpt>
<trkpt lat="51.555020" lon="03.809490"><ele>11.5</ele><time>2022-11-15T12:37:00Z</time><name>PT4901</name></trkpt>
<trkpt lat="51.555016" lon="03.809509"><ele>11.4</ele><time>2022-11-15T12:37:00Z</time><name>PT4902</name></trkpt>
<trkpt lat="51.555016" lon="03.809526"><ele>11.3</ele><time>2022-11-15T12:37:02Z</time><name>PT4903</name></trkpt>
<trkpt lat="51.555019" lon="03.809539"><ele>11.3</ele><time>2022-11-15T12:37:02Z</time><name>PT4904</name></trkpt>
<trkpt lat="51.555021" lon="03.809546"><ele>11</ele><time>2022-11-15T12:37:04Z</time><name>PT4905</name></trkpt>
<trkpt lat="51.555022" lon="03.809555"><ele>11</ele><time>2022-11-15T12:37:04Z</time><name>PT4906</name></trkpt>
<trkpt lat="51.555024" lon="03.809570"><ele>10.8</ele><time>2022-11-15T12:37:06Z</time><name>PT4907</name></trkpt>
<trkpt lat="51.555029" lon="03.809589"><ele>10.7</ele><time>2022-11-15T12:37:06Z</time><name>PT4908</name></trkpt>
<trkpt lat="51.555034" lon="03.809604"><ele>10.7</ele><time>2022-11-15T12:37:08Z</time><name>PT4909</name></trkpt>
<trkpt lat="51.555039" lon="03.809616"><ele>10.7</ele><time>2022-11-15T12:37:08Z</time><name>PT4910</name></trkpt>
<trkpt lat="51.555044" lon="03.809624"><ele>10.9</ele><time>2022-11-15T12:37:10Z</time><name>PT4911</name></trkpt>
<trkpt lat="51.555048" lon="03.809633"><ele>10.8</ele><time>2022-11-15T12:37:10Z</time><name>PT4912</name></trkpt>
<trkpt lat="51.555052" lon="03.809647"><ele>10.7</ele><time>2022-11-15T12:37:12Z</time><name>PT4913</name></trkpt>
<trkpt lat="51.555058" lon="03.809663"><ele>10.8</ele><time>2022-11-15T12:37:12Z</time><name>PT4914</name></trkpt>
<trkpt lat="51.555065" lon="03.809674"><ele>10.6</ele><time>2022-11-15T12:37:14Z</time><name>PT4915</name></trkpt>
<trkpt lat="51.555070" lon="03.809682"><ele>10.5</ele><time>2022-11-15T12:37:15Z</time><name>PT4916</name></trkpt>
<trkpt lat="51.555071" lon="03.809685"><ele>10.6</ele><time>2022-11-15T12:37:16Z</time><name>PT4917</name></trkpt>
<trkpt lat="51.555073" lon="03.809691"><ele>10.8</ele><time>2022-11-15T12:37:16Z</time><name>PT4918</name></trkpt>
<trkpt lat="51.555072" lon="03.809693"><ele>11</ele><time>2022-11-15T12:37:18Z</time><name>PT4919</name></trkpt>
<trkpt lat="51.555071" lon="03.809694"><ele>11.2</ele><time>2022-11-15T12:37:19Z</time><name>PT4920</name></trkpt>
<trkpt lat="51.555072" lon="03.809694"><ele>11.5</ele><time>2022-11-15T12:37:20Z</time><name>PT4921</name></trkpt>
<trkpt lat="51.555073" lon="03.809697"><ele>11.4</ele><time>2022-11-15T12:37:22Z</time><name>PT4922</name></trkpt>
<trkpt lat="51.555073" lon="03.809696"><ele>11.1</ele><time>2022-11-15T12:37:23Z</time><name>PT4923</name></trkpt>
<trkpt lat="51.555074" lon="03.809700"><ele>11.2</ele><time>2022-11-15T12:37:24Z</time><name>PT4924</name></trkpt>
<trkpt lat="51.555074" lon="03.809702"><ele>11.2</ele><time>2022-11-15T12:37:25Z</time><name>PT4925</name></trkpt>
<trkpt lat="51.555072" lon="03.809701"><ele>11.3</ele><time>2022-11-15T12:37:28Z</time><name>PT4926</name></trkpt>
<trkpt lat="51.555072" lon="03.809703"><ele>11.2</ele><time>2022-11-15T12:37:29Z</time><name>PT4927</name></trkpt>
<trkpt lat="51.555074" lon="03.809708"><ele>10.8</ele><time>2022-11-15T12:37:30Z</time><name>PT4928</name></trkpt>
<trkpt lat="51.555082" lon="03.809708"><ele>10.8</ele><time>2022-11-15T12:37:31Z</time><name>PT4929</name></trkpt>
<trkpt lat="51.555091" lon="03.809715"><ele>10.5</ele><time>2022-11-15T12:37:32Z</time><name>PT4930</name></trkpt>
<trkpt lat="51.555098" lon="03.809717"><ele>10.6</ele><time>2022-11-15T12:37:33Z</time><name>PT4931</name></trkpt>
<trkpt lat="51.555104" lon="03.809718"><ele>10.7</ele><time>2022-11-15T12:37:34Z</time><name>PT4932</name></trkpt>
<trkpt lat="51.555113" lon="03.809721"><ele>10.8</ele><time>2022-11-15T12:37:35Z</time><name>PT4933</name></trkpt>
<trkpt lat="51.555123" lon="03.809731"><ele>10.8</ele><time>2022-11-15T12:37:36Z</time><name>PT4934</name></trkpt>
<trkpt lat="51.555134" lon="03.809741"><ele>10.8</ele><time>2022-11-15T12:37:37Z</time><name>PT4935</name></trkpt>
<trkpt lat="51.555146" lon="03.809750"><ele>10.8</ele><time>2022-11-15T12:37:38Z</time><name>PT4936</name></trkpt>
<trkpt lat="51.555154" lon="03.809758"><ele>10.7</ele><time>2022-11-15T12:37:39Z</time><name>PT4937</name></trkpt>
<trkpt lat="51.555161" lon="03.809765"><ele>10.5</ele><time>2022-11-15T12:37:40Z</time><name>PT4938</name></trkpt>
<trkpt lat="51.555165" lon="03.809770"><ele>10.5</ele><time>2022-11-15T12:37:40Z</time><name>PT4939</name></trkpt>
<trkpt lat="51.555167" lon="03.809776"><ele>10.5</ele><time>2022-11-15T12:37:42Z</time><name>PT4940</name></trkpt>
<trkpt lat="51.555168" lon="03.809788"><ele>10.5</ele><time>2022-11-15T12:37:42Z</time><name>PT4941</name></trkpt>
<trkpt lat="51.555171" lon="03.809805"><ele>10.6</ele><time>2022-11-15T12:37:44Z</time><name>PT4942</name></trkpt>
<trkpt lat="51.555175" lon="03.809824"><ele>10.5</ele><time>2022-11-15T12:37:44Z</time><name>PT4943</name></trkpt>
<trkpt lat="51.555178" lon="03.809840"><ele>10.5</ele><time>2022-11-15T12:37:46Z</time><name>PT4944</name></trkpt>
<trkpt lat="51.555180" lon="03.809849"><ele>10.5</ele><time>2022-11-15T12:37:46Z</time><name>PT4945</name></trkpt>
<trkpt lat="51.555183" lon="03.809858"><ele>10.5</ele><time>2022-11-15T12:37:48Z</time><name>PT4946</name></trkpt>
<trkpt lat="51.555184" lon="03.809867"><ele>10.5</ele><time>2022-11-15T12:37:48Z</time><name>PT4947</name></trkpt>
<trkpt lat="51.555183" lon="03.809880"><ele>10.6</ele><time>2022-11-15T12:37:50Z</time><name>PT4948</name></trkpt>
<trkpt lat="51.555185" lon="03.809898"><ele>10.5</ele><time>2022-11-15T12:37:50Z</time><name>PT4949</name></trkpt>
<trkpt lat="51.555188" lon="03.809916"><ele>10.3</ele><time>2022-11-15T12:37:52Z</time><name>PT4950</name></trkpt>
<trkpt lat="51.555190" lon="03.809930"><ele>10.3</ele><time>2022-11-15T12:37:52Z</time><name>PT4951</name></trkpt>
<trkpt lat="51.555192" lon="03.809943"><ele>10.3</ele><time>2022-11-15T12:37:54Z</time><name>PT4952</name></trkpt>
<trkpt lat="51.555192" lon="03.809953"><ele>10.3</ele><time>2022-11-15T12:37:54Z</time><name>PT4953</name></trkpt>
<trkpt lat="51.555190" lon="03.809964"><ele>10</ele><time>2022-11-15T12:37:56Z</time><name>PT4954</name></trkpt>
<trkpt lat="51.555190" lon="03.809976"><ele>9.9</ele><time>2022-11-15T12:37:56Z</time><name>PT4955</name></trkpt>
<trkpt lat="51.555190" lon="03.809993"><ele>9.9</ele><time>2022-11-15T12:37:58Z</time><name>PT4956</name></trkpt>
<trkpt lat="51.555192" lon="03.810015"><ele>9.9</ele><time>2022-11-15T12:37:58Z</time><name>PT4957</name></trkpt>
<trkpt lat="51.555193" lon="03.810038"><ele>9.5</ele><time>2022-11-15T12:38:00Z</time><name>PT4958</name></trkpt>
<trkpt lat="51.555195" lon="03.810056"><ele>9.6</ele><time>2022-11-15T12:38:00Z</time><name>PT4959</name></trkpt>
<trkpt lat="51.555198" lon="03.810071"><ele>9.5</ele><time>2022-11-15T12:38:02Z</time><name>PT4960</name></trkpt>
<trkpt lat="51.555199" lon="03.810086"><ele>9.3</ele><time>2022-11-15T12:38:02Z</time><name>PT4961</name></trkpt>
<trkpt lat="51.555198" lon="03.810101"><ele>9.1</ele><time>2022-11-15T12:38:04Z</time><name>PT4962</name></trkpt>
<trkpt lat="51.555196" lon="03.810116"><ele>9.3</ele><time>2022-11-15T12:38:04Z</time><name>PT4963</name></trkpt>
<trkpt lat="51.555195" lon="03.810134"><ele>9.1</ele><time>2022-11-15T12:38:06Z</time><name>PT4964</name></trkpt>
<trkpt lat="51.555196" lon="03.810156"><ele>9.2</ele><time>2022-11-15T12:38:06Z</time><name>PT4965</name></trkpt>
<trkpt lat="51.555199" lon="03.810179"><ele>9.2</ele><time>2022-11-15T12:38:08Z</time><name>PT4966</name></trkpt>
<trkpt lat="51.555202" lon="03.810198"><ele>9.2</ele><time>2022-11-15T12:38:08Z</time><name>PT4967</name></trkpt>
<trkpt lat="51.555203" lon="03.810213"><ele>9</ele><time>2022-11-15T12:38:10Z</time><name>PT4968</name></trkpt>
<trkpt lat="51.555204" lon="03.810226"><ele>9</ele><time>2022-11-15T12:38:10Z</time><name>PT4969</name></trkpt>
<trkpt lat="51.555205" lon="03.810238"><ele>8.8</ele><time>2022-11-15T12:38:12Z</time><name>PT4970</name></trkpt>
<trkpt lat="51.555207" lon="03.810249"><ele>8.8</ele><time>2022-11-15T12:38:12Z</time><name>PT4971</name></trkpt>
<trkpt lat="51.555208" lon="03.810258"><ele>8.6</ele><time>2022-11-15T12:38:14Z</time><name>PT4972</name></trkpt>
<trkpt lat="51.555207" lon="03.810269"><ele>8.5</ele><time>2022-11-15T12:38:14Z</time><name>PT4973</name></trkpt>
<trkpt lat="51.555206" lon="03.810281"><ele>8.3</ele><time>2022-11-15T12:38:16Z</time><name>PT4974</name></trkpt>
<trkpt lat="51.555207" lon="03.810300"><ele>8.2</ele><time>2022-11-15T12:38:16Z</time><name>PT4975</name></trkpt>
<trkpt lat="51.555208" lon="03.810321"><ele>8</ele><time>2022-11-15T12:38:18Z</time><name>PT4976</name></trkpt>
<trkpt lat="51.555211" lon="03.810349"><ele>8</ele><time>2022-11-15T12:38:18Z</time><name>PT4977</name></trkpt>
<trkpt lat="51.555210" lon="03.810373"><ele>8</ele><time>2022-11-15T12:38:20Z</time><name>PT4978</name></trkpt>
<trkpt lat="51.555210" lon="03.810391"><ele>8</ele><time>2022-11-15T12:38:20Z</time><name>PT4979</name></trkpt>
<trkpt lat="51.555209" lon="03.810408"><ele>8</ele><time>2022-11-15T12:38:22Z</time><name>PT4980</name></trkpt>
<trkpt lat="51.555209" lon="03.810429"><ele>8</ele><time>2022-11-15T12:38:22Z</time><name>PT4981</name></trkpt>
<trkpt lat="51.555212" lon="03.810448"><ele>8</ele><time>2022-11-15T12:38:24Z</time><name>PT4982</name></trkpt>
<trkpt lat="51.555214" lon="03.810462"><ele>8</ele><time>2022-11-15T12:38:24Z</time><name>PT4983</name></trkpt>
<trkpt lat="51.555211" lon="03.810473"><ele>8.2</ele><time>2022-11-15T12:38:26Z</time><name>PT4984</name></trkpt>
<trkpt lat="51.555210" lon="03.810478"><ele>8</ele><time>2022-11-15T12:38:27Z</time><name>PT4985</name></trkpt>
<trkpt lat="51.555208" lon="03.810481"><ele>7.9</ele><time>2022-11-15T12:38:28Z</time><name>PT4986</name></trkpt>
<trkpt lat="51.555208" lon="03.810490"><ele>7.9</ele><time>2022-11-15T12:38:29Z</time><name>PT4987</name></trkpt>
<trkpt lat="51.555206" lon="03.810506"><ele>7.8</ele><time>2022-11-15T12:38:30Z</time><name>PT4988</name></trkpt>
<trkpt lat="51.555207" lon="03.810531"><ele>7.6</ele><time>2022-11-15T12:38:30Z</time><name>PT4989</name></trkpt>
<trkpt lat="51.555207" lon="03.810559"><ele>7.5</ele><time>2022-11-15T12:38:32Z</time><name>PT4990</name></trkpt>
<trkpt lat="51.555206" lon="03.810589"><ele>7.5</ele><time>2022-11-15T12:38:32Z</time><name>PT4991</name></trkpt>
<trkpt lat="51.555205" lon="03.810618"><ele>7.6</ele><time>2022-11-15T12:38:34Z</time><name>PT4992</name></trkpt>
<trkpt lat="51.555209" lon="03.810648"><ele>7.6</ele><time>2022-11-15T12:38:34Z</time><name>PT4993</name></trkpt>
<trkpt lat="51.555213" lon="03.810671"><ele>7.7</ele><time>2022-11-15T12:38:36Z</time><name>PT4994</name></trkpt>
<trkpt lat="51.555218" lon="03.810687"><ele>7.7</ele><time>2022-11-15T12:38:37Z</time><name>PT4995</name></trkpt>
<trkpt lat="51.555220" lon="03.810696"><ele>7.8</ele><time>2022-11-15T12:38:38Z</time><name>PT4996</name></trkpt>
<trkpt lat="51.555221" lon="03.810701"><ele>7.7</ele><time>2022-11-15T12:38:39Z</time><name>PT4997</name></trkpt>
<trkpt lat="51.555223" lon="03.810705"><ele>7.6</ele><time>2022-11-15T12:38:40Z</time><name>PT4998</name></trkpt>
<trkpt lat="51.555222" lon="03.810717"><ele>7.5</ele><time>2022-11-15T12:38:40Z</time><name>PT4999</name></trkpt>
<trkpt lat="51.555219" lon="03.810737"><ele>7.5</ele><time>2022-11-15T12:38:42Z</time><name>PT5000</name></trkpt>
<trkpt lat="51.555218" lon="03.810767"><ele>7.5</ele><time>2022-11-15T12:38:42Z</time><name>PT5001</name></trkpt>
<trkpt lat="51.555222" lon="03.810803"><ele>7.5</ele><time>2022-11-15T12:38:44Z</time><name>PT5002</name></trkpt>
<trkpt lat="51.555226" lon="03.810838"><ele>7.3</ele><time>2022-11-15T12:38:45Z</time><name>PT5003</name></trkpt>
<trkpt lat="51.555232" lon="03.810870"><ele>7.6</ele><time>2022-11-15T12:38:46Z</time><name>PT5004</name></trkpt>
<trkpt lat="51.555235" lon="03.810890"><ele>7.6</ele><time>2022-11-15T12:38:47Z</time><name>PT5005</name></trkpt>
<trkpt lat="51.555236" lon="03.810905"><ele>7.7</ele><time>2022-11-15T12:38:48Z</time><name>PT5006</name></trkpt>
<trkpt lat="51.555236" lon="03.810921"><ele>7.8</ele><time>2022-11-15T12:38:49Z</time><name>PT5007</name></trkpt>
<trkpt lat="51.555238" lon="03.810935"><ele>8</ele><time>2022-11-15T12:38:50Z</time><name>PT5008</name></trkpt>
<trkpt lat="51.555241" lon="03.810949"><ele>7.9</ele><time>2022-11-15T12:38:51Z</time><name>PT5009</name></trkpt>
<trkpt lat="51.555242" lon="03.810964"><ele>7.9</ele><time>2022-11-15T12:38:52Z</time><name>PT5010</name></trkpt>
<trkpt lat="51.555244" lon="03.810979"><ele>7.9</ele><time>2022-11-15T12:38:53Z</time><name>PT5011</name></trkpt>
<trkpt lat="51.555245" lon="03.810998"><ele>7.8</ele><time>2022-11-15T12:38:54Z</time><name>PT5012</name></trkpt>
<trkpt lat="51.555244" lon="03.811015"><ele>7.8</ele><time>2022-11-15T12:38:55Z</time><name>PT5013</name></trkpt>
<trkpt lat="51.555239" lon="03.811036"><ele>8</ele><time>2022-11-15T12:38:56Z</time><name>PT5014</name></trkpt>
<trkpt lat="51.555236" lon="03.811064"><ele>8.1</ele><time>2022-11-15T12:38:57Z</time><name>PT5015</name></trkpt>
<trkpt lat="51.555233" lon="03.811094"><ele>8.3</ele><time>2022-11-15T12:38:58Z</time><name>PT5016</name></trkpt>
<trkpt lat="51.555232" lon="03.811123"><ele>8.3</ele><time>2022-11-15T12:38:59Z</time><name>PT5017</name></trkpt>
<trkpt lat="51.555233" lon="03.811147"><ele>8.3</ele><time>2022-11-15T12:39:00Z</time><name>PT5018</name></trkpt>
<trkpt lat="51.555236" lon="03.811160"><ele>8.3</ele><time>2022-11-15T12:39:01Z</time><name>PT5019</name></trkpt>
<trkpt lat="51.555235" lon="03.811168"><ele>8.2</ele><time>2022-11-15T12:39:02Z</time><name>PT5020</name></trkpt>
<trkpt lat="51.555235" lon="03.811170"><ele>8</ele><time>2022-11-15T12:39:03Z</time><name>PT5021</name></trkpt>
<trkpt lat="51.555236" lon="03.811173"><ele>7.9</ele><time>2022-11-15T12:39:04Z</time><name>PT5022</name></trkpt>
<trkpt lat="51.555236" lon="03.811181"><ele>7.9</ele><time>2022-11-15T12:39:05Z</time><name>PT5023</name></trkpt>
<trkpt lat="51.555233" lon="03.811197"><ele>7.7</ele><time>2022-11-15T12:39:06Z</time><name>PT5024</name></trkpt>
<trkpt lat="51.555231" lon="03.811221"><ele>7.7</ele><time>2022-11-15T12:39:07Z</time><name>PT5025</name></trkpt>
<trkpt lat="51.555227" lon="03.811251"><ele>7.6</ele><time>2022-11-15T12:39:08Z</time><name>PT5026</name></trkpt>
<trkpt lat="51.555228" lon="03.811274"><ele>7.5</ele><time>2022-11-15T12:39:09Z</time><name>PT5027</name></trkpt>
<trkpt lat="51.555230" lon="03.811287"><ele>7.4</ele><time>2022-11-15T12:39:10Z</time><name>PT5028</name></trkpt>
<trkpt lat="51.555231" lon="03.811294"><ele>7.3</ele><time>2022-11-15T12:39:10Z</time><name>PT5029</name></trkpt>
<trkpt lat="51.555232" lon="03.811298"><ele>7.1</ele><time>2022-11-15T12:39:12Z</time><name>PT5030</name></trkpt>
<trkpt lat="51.555232" lon="03.811307"><ele>7.2</ele><time>2022-11-15T12:39:12Z</time><name>PT5031</name></trkpt>
<trkpt lat="51.555231" lon="03.811318"><ele>7.3</ele><time>2022-11-15T12:39:14Z</time><name>PT5032</name></trkpt>
<trkpt lat="51.555232" lon="03.811341"><ele>7.4</ele><time>2022-11-15T12:39:14Z</time><name>PT5033</name></trkpt>
<trkpt lat="51.555234" lon="03.811371"><ele>7.2</ele><time>2022-11-15T12:39:16Z</time><name>PT5034</name></trkpt>
<trkpt lat="51.555233" lon="03.811401"><ele>7.3</ele><time>2022-11-15T12:39:16Z</time><name>PT5035</name></trkpt>
<trkpt lat="51.555232" lon="03.811429"><ele>7.3</ele><time>2022-11-15T12:39:18Z</time><name>PT5036</name></trkpt>
<trkpt lat="51.555234" lon="03.811451"><ele>7.5</ele><time>2022-11-15T12:39:18Z</time><name>PT5037</name></trkpt>
<trkpt lat="51.555236" lon="03.811464"><ele>7.3</ele><time>2022-11-15T12:39:20Z</time><name>PT5038</name></trkpt>
<trkpt lat="51.555238" lon="03.811470"><ele>7.3</ele><time>2022-11-15T12:39:20Z</time><name>PT5039</name></trkpt>
<trkpt lat="51.555240" lon="03.811475"><ele>7.2</ele><time>2022-11-15T12:39:22Z</time><name>PT5040</name></trkpt>
<trkpt lat="51.555239" lon="03.811485"><ele>7.1</ele><time>2022-11-15T12:39:22Z</time><name>PT5041</name></trkpt>
<trkpt lat="51.555237" lon="03.811500"><ele>7.3</ele><time>2022-11-15T12:39:24Z</time><name>PT5042</name></trkpt>
<trkpt lat="51.555236" lon="03.811522"><ele>7.3</ele><time>2022-11-15T12:39:24Z</time><name>PT5043</name></trkpt>
<trkpt lat="51.555236" lon="03.811553"><ele>7.5</ele><time>2022-11-15T12:39:26Z</time><name>PT5044</name></trkpt>
<trkpt lat="51.555236" lon="03.811581"><ele>7.6</ele><time>2022-11-15T12:39:26Z</time><name>PT5045</name></trkpt>
<trkpt lat="51.555238" lon="03.811602"><ele>7.7</ele><time>2022-11-15T12:39:28Z</time><name>PT5046</name></trkpt>
<trkpt lat="51.555241" lon="03.811613"><ele>7.6</ele><time>2022-11-15T12:39:28Z</time><name>PT5047</name></trkpt>
<trkpt lat="51.555245" lon="03.811616"><ele>7.6</ele><time>2022-11-15T12:39:30Z</time><name>PT5048</name></trkpt>
<trkpt lat="51.555246" lon="03.811619"><ele>7.6</ele><time>2022-11-15T12:39:30Z</time><name>PT5049</name></trkpt>
<trkpt lat="51.555246" lon="03.811629"><ele>7.5</ele><time>2022-11-15T12:39:32Z</time><name>PT5050</name></trkpt>
<trkpt lat="51.555245" lon="03.811648"><ele>7.5</ele><time>2022-11-15T12:39:32Z</time><name>PT5051</name></trkpt>
<trkpt lat="51.555244" lon="03.811675"><ele>7.5</ele><time>2022-11-15T12:39:34Z</time><name>PT5052</name></trkpt>
<trkpt lat="51.555245" lon="03.811703"><ele>7.5</ele><time>2022-11-15T12:39:34Z</time><name>PT5053</name></trkpt>
<trkpt lat="51.555246" lon="03.811728"><ele>7.6</ele><time>2022-11-15T12:39:36Z</time><name>PT5054</name></trkpt>
<trkpt lat="51.555249" lon="03.811745"><ele>7.6</ele><time>2022-11-15T12:39:36Z</time><name>PT5055</name></trkpt>
<trkpt lat="51.555248" lon="03.811754"><ele>7.6</ele><time>2022-11-15T12:39:38Z</time><name>PT5056</name></trkpt>
<trkpt lat="51.555246" lon="03.811759"><ele>7.7</ele><time>2022-11-15T12:39:38Z</time><name>PT5057</name></trkpt>
<trkpt lat="51.555246" lon="03.811764"><ele>7.9</ele><time>2022-11-15T12:39:40Z</time><name>PT5058</name></trkpt>
<trkpt lat="51.555245" lon="03.811771"><ele>7.8</ele><time>2022-11-15T12:39:40Z</time><name>PT5059</name></trkpt>
<trkpt lat="51.555244" lon="03.811784"><ele>7.8</ele><time>2022-11-15T12:39:42Z</time><name>PT5060</name></trkpt>
<trkpt lat="51.555242" lon="03.811803"><ele>7.9</ele><time>2022-11-15T12:39:42Z</time><name>PT5061</name></trkpt>
<trkpt lat="51.555245" lon="03.811831"><ele>8</ele><time>2022-11-15T12:39:44Z</time><name>PT5062</name></trkpt>
<trkpt lat="51.555247" lon="03.811859"><ele>8</ele><time>2022-11-15T12:39:44Z</time><name>PT5063</name></trkpt>
<trkpt lat="51.555248" lon="03.811883"><ele>7.8</ele><time>2022-11-15T12:39:46Z</time><name>PT5064</name></trkpt>
<trkpt lat="51.555249" lon="03.811895"><ele>7.9</ele><time>2022-11-15T12:39:46Z</time><name>PT5065</name></trkpt>
<trkpt lat="51.555249" lon="03.811900"><ele>7.7</ele><time>2022-11-15T12:39:48Z</time><name>PT5066</name></trkpt>
<trkpt lat="51.555250" lon="03.811901"><ele>7.6</ele><time>2022-11-15T12:39:48Z</time><name>PT5067</name></trkpt>
<trkpt lat="51.555251" lon="03.811899"><ele>7.7</ele><time>2022-11-15T12:39:50Z</time><name>PT5068</name></trkpt>
<trkpt lat="51.555252" lon="03.811905"><ele>7.9</ele><time>2022-11-15T12:39:50Z</time><name>PT5069</name></trkpt>
<trkpt lat="51.555249" lon="03.811899"><ele>7.9</ele><time>2022-11-15T12:39:52Z</time><name>PT5070</name></trkpt>
<trkpt lat="51.555248" lon="03.811895"><ele>7.9</ele><time>2022-11-15T12:39:52Z</time><name>PT5071</name></trkpt>
<trkpt lat="51.555249" lon="03.811893"><ele>7.8</ele><time>2022-11-15T12:39:54Z</time><name>PT5072</name></trkpt>
<trkpt lat="51.555248" lon="03.811900"><ele>7.9</ele><time>2022-11-15T12:39:54Z</time><name>PT5073</name></trkpt>
<trkpt lat="51.555245" lon="03.811919"><ele>7.7</ele><time>2022-11-15T12:39:56Z</time><name>PT5074</name></trkpt>
<trkpt lat="51.555244" lon="03.811949"><ele>7.8</ele><time>2022-11-15T12:39:56Z</time><name>PT5075</name></trkpt>
<trkpt lat="51.555244" lon="03.811984"><ele>7.8</ele><time>2022-11-15T12:39:58Z</time><name>PT5076</name></trkpt>
<trkpt lat="51.555245" lon="03.812012"><ele>7.9</ele><time>2022-11-15T12:39:58Z</time><name>PT5077</name></trkpt>
<trkpt lat="51.555247" lon="03.812028"><ele>7.9</ele><time>2022-11-15T12:40:00Z</time><name>PT5078</name></trkpt>
<trkpt lat="51.555249" lon="03.812033"><ele>7.8</ele><time>2022-11-15T12:40:00Z</time><name>PT5079</name></trkpt>
<trkpt lat="51.555249" lon="03.812045"><ele>7.5</ele><time>2022-11-15T12:40:02Z</time><name>PT5080</name></trkpt>
<trkpt lat="51.555252" lon="03.812053"><ele>7.5</ele><time>2022-11-15T12:40:02Z</time><name>PT5081</name></trkpt>
<trkpt lat="51.555250" lon="03.812067"><ele>7.4</ele><time>2022-11-15T12:40:04Z</time><name>PT5082</name></trkpt>
<trkpt lat="51.555247" lon="03.812091"><ele>7.4</ele><time>2022-11-15T12:40:04Z</time><name>PT5083</name></trkpt>
<trkpt lat="51.555247" lon="03.812121"><ele>7.5</ele><time>2022-11-15T12:40:06Z</time><name>PT5084</name></trkpt>
<trkpt lat="51.555250" lon="03.812149"><ele>7.6</ele><time>2022-11-15T12:40:06Z</time><name>PT5085</name></trkpt>
<trkpt lat="51.555251" lon="03.812168"><ele>7.9</ele><time>2022-11-15T12:40:08Z</time><name>PT5086</name></trkpt>
<trkpt lat="51.555252" lon="03.812176"><ele>7.9</ele><time>2022-11-15T12:40:08Z</time><name>PT5087</name></trkpt>
<trkpt lat="51.555251" lon="03.812180"><ele>8</ele><time>2022-11-15T12:40:10Z</time><name>PT5088</name></trkpt>
<trkpt lat="51.555251" lon="03.812188"><ele>8</ele><time>2022-11-15T12:40:10Z</time><name>PT5089</name></trkpt>
<trkpt lat="51.555251" lon="03.812203"><ele>8.2</ele><time>2022-11-15T12:40:12Z</time><name>PT5090</name></trkpt>
<trkpt lat="51.555253" lon="03.812216"><ele>8</ele><time>2022-11-15T12:40:13Z</time><name>PT5091</name></trkpt>
<trkpt lat="51.555252" lon="03.812224"><ele>8.3</ele><time>2022-11-15T12:40:14Z</time><name>PT5092</name></trkpt>
<trkpt lat="51.555253" lon="03.812239"><ele>8.3</ele><time>2022-11-15T12:40:15Z</time><name>PT5093</name></trkpt>
<trkpt lat="51.555254" lon="03.812250"><ele>8.2</ele><time>2022-11-15T12:40:16Z</time><name>PT5094</name></trkpt>
<trkpt lat="51.555254" lon="03.812260"><ele>8</ele><time>2022-11-15T12:40:16Z</time><name>PT5095</name></trkpt>
<trkpt lat="51.555252" lon="03.812271"><ele>8</ele><time>2022-11-15T12:40:18Z</time><name>PT5096</name></trkpt>
<trkpt lat="51.555249" lon="03.812290"><ele>8</ele><time>2022-11-15T12:40:19Z</time><name>PT5097</name></trkpt>
<trkpt lat="51.555246" lon="03.812316"><ele>7.9</ele><time>2022-11-15T12:40:20Z</time><name>PT5098</name></trkpt>
<trkpt lat="51.555244" lon="03.812341"><ele>7.9</ele><time>2022-11-15T12:40:21Z</time><name>PT5099</name></trkpt>
<trkpt lat="51.555242" lon="03.812365"><ele>8</ele><time>2022-11-15T12:40:22Z</time><name>PT5100</name></trkpt>
<trkpt lat="51.555243" lon="03.812384"><ele>8.1</ele><time>2022-11-15T12:40:23Z</time><name>PT5101</name></trkpt>
<trkpt lat="51.555243" lon="03.812395"><ele>8</ele><time>2022-11-15T12:40:24Z</time><name>PT5102</name></trkpt>
<trkpt lat="51.555244" lon="03.812400"><ele>8</ele><time>2022-11-15T12:40:25Z</time><name>PT5103</name></trkpt>
<trkpt lat="51.555245" lon="03.812399"><ele>7.9</ele><time>2022-11-15T12:40:26Z</time><name>PT5104</name></trkpt>
<trkpt lat="51.555245" lon="03.812394"><ele>7.7</ele><time>2022-11-15T12:40:27Z</time><name>PT5105</name></trkpt>
<trkpt lat="51.555245" lon="03.812396"><ele>7.6</ele><time>2022-11-15T12:40:28Z</time><name>PT5106</name></trkpt>
<trkpt lat="51.555246" lon="03.812408"><ele>7.6</ele><time>2022-11-15T12:40:29Z</time><name>PT5107</name></trkpt>
<trkpt lat="51.555247" lon="03.812422"><ele>7.5</ele><time>2022-11-15T12:40:30Z</time><name>PT5108</name></trkpt>
<trkpt lat="51.555247" lon="03.812435"><ele>7.3</ele><time>2022-11-15T12:40:31Z</time><name>PT5109</name></trkpt>
<trkpt lat="51.555246" lon="03.812450"><ele>7.5</ele><time>2022-11-15T12:40:32Z</time><name>PT5110</name></trkpt>
<trkpt lat="51.555246" lon="03.812465"><ele>7.5</ele><time>2022-11-15T12:40:33Z</time><name>PT5111</name></trkpt>
<trkpt lat="51.555247" lon="03.812480"><ele>7.5</ele><time>2022-11-15T12:40:34Z</time><name>PT5112</name></trkpt>
<trkpt lat="51.555249" lon="03.812498"><ele>7.9</ele><time>2022-11-15T12:40:35Z</time><name>PT5113</name></trkpt>
<trkpt lat="51.555247" lon="03.812517"><ele>8</ele><time>2022-11-15T12:40:36Z</time><name>PT5114</name></trkpt>
<trkpt lat="51.555246" lon="03.812535"><ele>8.1</ele><time>2022-11-15T12:40:37Z</time><name>PT5115</name></trkpt>
<trkpt lat="51.555246" lon="03.812553"><ele>8.1</ele><time>2022-11-15T12:40:38Z</time><name>PT5116</name></trkpt>
<trkpt lat="51.555246" lon="03.812572"><ele>8.1</ele><time>2022-11-15T12:40:38Z</time><name>PT5117</name></trkpt>
<trkpt lat="51.555246" lon="03.812592"><ele>8</ele><time>2022-11-15T12:40:40Z</time><name>PT5118</name></trkpt>
<trkpt lat="51.555247" lon="03.812611"><ele>8</ele><time>2022-11-15T12:40:40Z</time><name>PT5119</name></trkpt>
<trkpt lat="51.555249" lon="03.812626"><ele>7.8</ele><time>2022-11-15T12:40:42Z</time><name>PT5120</name></trkpt>
<trkpt lat="51.555251" lon="03.812632"><ele>7.9</ele><time>2022-11-15T12:40:42Z</time><name>PT5121</name></trkpt>
<trkpt lat="51.555252" lon="03.812636"><ele>7.7</ele><time>2022-11-15T12:40:44Z</time><name>PT5122</name></trkpt>
<trkpt lat="51.555253" lon="03.812646"><ele>7.9</ele><time>2022-11-15T12:40:44Z</time><name>PT5123</name></trkpt>
<trkpt lat="51.555252" lon="03.812664"><ele>7.8</ele><time>2022-11-15T12:40:46Z</time><name>PT5124</name></trkpt>
<trkpt lat="51.555254" lon="03.812681"><ele>8</ele><time>2022-11-15T12:40:46Z</time><name>PT5125</name></trkpt>
<trkpt lat="51.555257" lon="03.812700"><ele>8</ele><time>2022-11-15T12:40:48Z</time><name>PT5126</name></trkpt>
<trkpt lat="51.555258" lon="03.812721"><ele>8.1</ele><time>2022-11-15T12:40:48Z</time><name>PT5127</name></trkpt>
<trkpt lat="51.555257" lon="03.812750"><ele>8</ele><time>2022-11-15T12:40:50Z</time><name>PT5128</name></trkpt>
<trkpt lat="51.555257" lon="03.812782"><ele>7.9</ele><time>2022-11-15T12:40:50Z</time><name>PT5129</name></trkpt>
<trkpt lat="51.555261" lon="03.812810"><ele>7.8</ele><time>2022-11-15T12:40:52Z</time><name>PT5130</name></trkpt>
<trkpt lat="51.555261" lon="03.812833"><ele>7.9</ele><time>2022-11-15T12:40:52Z</time><name>PT5131</name></trkpt>
<trkpt lat="51.555263" lon="03.812850"><ele>7.9</ele><time>2022-11-15T12:40:54Z</time><name>PT5132</name></trkpt>
<trkpt lat="51.555265" lon="03.812860"><ele>7.8</ele><time>2022-11-15T12:40:54Z</time><name>PT5133</name></trkpt>
<trkpt lat="51.555266" lon="03.812863"><ele>8</ele><time>2022-11-15T12:40:56Z</time><name>PT5134</name></trkpt>
<trkpt lat="51.555269" lon="03.812875"><ele>7.8</ele><time>2022-11-15T12:40:58Z</time><name>PT5135</name></trkpt>
<trkpt lat="51.555268" lon="03.812884"><ele>7.8</ele><time>2022-11-15T12:40:58Z</time><name>PT5136</name></trkpt>
<trkpt lat="51.555266" lon="03.812898"><ele>7.7</ele><time>2022-11-15T12:41:00Z</time><name>PT5137</name></trkpt>
<trkpt lat="51.555265" lon="03.812918"><ele>7.6</ele><time>2022-11-15T12:41:00Z</time><name>PT5138</name></trkpt>
<trkpt lat="51.555264" lon="03.812945"><ele>7.5</ele><time>2022-11-15T12:41:02Z</time><name>PT5139</name></trkpt>
<trkpt lat="51.555266" lon="03.813002"><ele>7.7</ele><time>2022-11-15T12:41:04Z</time><name>PT5140</name></trkpt>
<trkpt lat="51.555272" lon="03.813025"><ele>7.5</ele><time>2022-11-15T12:41:04Z</time><name>PT5141</name></trkpt>
<trkpt lat="51.555277" lon="03.813048"><ele>7.6</ele><time>2022-11-15T12:41:06Z</time><name>PT5142</name></trkpt>
<trkpt lat="51.555278" lon="03.813071"><ele>7.6</ele><time>2022-11-15T12:41:06Z</time><name>PT5143</name></trkpt>
<trkpt lat="51.555279" lon="03.813087"><ele>7.7</ele><time>2022-11-15T12:41:08Z</time><name>PT5144</name></trkpt>
<trkpt lat="51.555280" lon="03.813098"><ele>7.5</ele><time>2022-11-15T12:41:08Z</time><name>PT5145</name></trkpt>
<trkpt lat="51.555284" lon="03.813105"><ele>7.8</ele><time>2022-11-15T12:41:10Z</time><name>PT5146</name></trkpt>
<trkpt lat="51.555284" lon="03.813122"><ele>7.8</ele><time>2022-11-15T12:41:10Z</time><name>PT5147</name></trkpt>
<trkpt lat="51.555284" lon="03.813140"><ele>8</ele><time>2022-11-15T12:41:12Z</time><name>PT5148</name></trkpt>
<trkpt lat="51.555285" lon="03.813158"><ele>8</ele><time>2022-11-15T12:41:12Z</time><name>PT5149</name></trkpt>
<trkpt lat="51.555286" lon="03.813173"><ele>8</ele><time>2022-11-15T12:41:14Z</time><name>PT5150</name></trkpt>
<trkpt lat="51.555283" lon="03.813193"><ele>8.1</ele><time>2022-11-15T12:41:14Z</time><name>PT5151</name></trkpt>
<trkpt lat="51.555280" lon="03.813217"><ele>8</ele><time>2022-11-15T12:41:16Z</time><name>PT5152</name></trkpt>
<trkpt lat="51.555277" lon="03.813248"><ele>7.9</ele><time>2022-11-15T12:41:17Z</time><name>PT5153</name></trkpt>
<trkpt lat="51.555274" lon="03.813285"><ele>7.8</ele><time>2022-11-15T12:41:18Z</time><name>PT5154</name></trkpt>
<trkpt lat="51.555275" lon="03.813317"><ele>7.7</ele><time>2022-11-15T12:41:18Z</time><name>PT5155</name></trkpt>
<trkpt lat="51.555278" lon="03.813347"><ele>7.7</ele><time>2022-11-15T12:41:20Z</time><name>PT5156</name></trkpt>
<trkpt lat="51.555280" lon="03.813371"><ele>7.7</ele><time>2022-11-15T12:41:20Z</time><name>PT5157</name></trkpt>
<trkpt lat="51.555280" lon="03.813386"><ele>7.7</ele><time>2022-11-15T12:41:22Z</time><name>PT5158</name></trkpt>
<trkpt lat="51.555281" lon="03.813401"><ele>7.5</ele><time>2022-11-15T12:41:22Z</time><name>PT5159</name></trkpt>
<trkpt lat="51.555285" lon="03.813405"><ele>7.6</ele><time>2022-11-15T12:41:24Z</time><name>PT5160</name></trkpt>
<trkpt lat="51.555286" lon="03.813405"><ele>7.6</ele><time>2022-11-15T12:41:24Z</time><name>PT5161</name></trkpt>
<trkpt lat="51.555287" lon="03.813411"><ele>7.9</ele><time>2022-11-15T12:41:26Z</time><name>PT5162</name></trkpt>
<trkpt lat="51.555286" lon="03.813418"><ele>7.7</ele><time>2022-11-15T12:41:27Z</time><name>PT5163</name></trkpt>
<trkpt lat="51.555285" lon="03.813440"><ele>7.9</ele><time>2022-11-15T12:41:28Z</time><name>PT5164</name></trkpt>
<trkpt lat="51.555284" lon="03.813460"><ele>7.8</ele><time>2022-11-15T12:41:29Z</time><name>PT5165</name></trkpt>
<trkpt lat="51.555284" lon="03.813477"><ele>7.9</ele><time>2022-11-15T12:41:30Z</time><name>PT5166</name></trkpt>
<trkpt lat="51.555283" lon="03.813493"><ele>8</ele><time>2022-11-15T12:41:30Z</time><name>PT5167</name></trkpt>
<trkpt lat="51.555284" lon="03.813509"><ele>8.3</ele><time>2022-11-15T12:41:32Z</time><name>PT5168</name></trkpt>
<trkpt lat="51.555284" lon="03.813528"><ele>8.5</ele><time>2022-11-15T12:41:32Z</time><name>PT5169</name></trkpt>
<trkpt lat="51.555284" lon="03.813546"><ele>8.3</ele><time>2022-11-15T12:41:34Z</time><name>PT5170</name></trkpt>
<trkpt lat="51.555283" lon="03.813564"><ele>8.4</ele><time>2022-11-15T12:41:34Z</time><name>PT5171</name></trkpt>
<trkpt lat="51.555284" lon="03.813580"><ele>8.2</ele><time>2022-11-15T12:41:36Z</time><name>PT5172</name></trkpt>
<trkpt lat="51.555286" lon="03.813586"><ele>8.2</ele><time>2022-11-15T12:41:36Z</time><name>PT5173</name></trkpt>
<trkpt lat="51.555286" lon="03.813588"><ele>8.2</ele><time>2022-11-15T12:41:38Z</time><name>PT5174</name></trkpt>
<trkpt lat="51.555286" lon="03.813592"><ele>8.2</ele><time>2022-11-15T12:41:38Z</time><name>PT5175</name></trkpt>
<trkpt lat="51.555287" lon="03.813603"><ele>8.1</ele><time>2022-11-15T12:41:40Z</time><name>PT5176</name></trkpt>
<trkpt lat="51.555284" lon="03.813622"><ele>8.1</ele><time>2022-11-15T12:41:41Z</time><name>PT5177</name></trkpt>
<trkpt lat="51.555283" lon="03.813650"><ele>8.1</ele><time>2022-11-15T12:41:42Z</time><name>PT5178</name></trkpt>
<trkpt lat="51.555281" lon="03.813683"><ele>8</ele><time>2022-11-15T12:41:43Z</time><name>PT5179</name></trkpt>
<trkpt lat="51.555282" lon="03.813716"><ele>7.9</ele><time>2022-11-15T12:41:44Z</time><name>PT5180</name></trkpt>
<trkpt lat="51.555284" lon="03.813743"><ele>8</ele><time>2022-11-15T12:41:44Z</time><name>PT5181</name></trkpt>
<trkpt lat="51.555287" lon="03.813771"><ele>8.2</ele><time>2022-11-15T12:41:46Z</time><name>PT5182</name></trkpt>
<trkpt lat="51.555289" lon="03.813796"><ele>8.1</ele><time>2022-11-15T12:41:47Z</time><name>PT5183</name></trkpt>
<trkpt lat="51.555290" lon="03.813815"><ele>8</ele><time>2022-11-15T12:41:48Z</time><name>PT5184</name></trkpt>
<trkpt lat="51.555291" lon="03.813826"><ele>8</ele><time>2022-11-15T12:41:49Z</time><name>PT5185</name></trkpt>
<trkpt lat="51.555289" lon="03.813830"><ele>8</ele><time>2022-11-15T12:41:50Z</time><name>PT5186</name></trkpt>
<trkpt lat="51.555289" lon="03.813832"><ele>7.9</ele><time>2022-11-15T12:41:51Z</time><name>PT5187</name></trkpt>
<trkpt lat="51.555289" lon="03.813838"><ele>7.9</ele><time>2022-11-15T12:41:52Z</time><name>PT5188</name></trkpt>
<trkpt lat="51.555287" lon="03.813851"><ele>8</ele><time>2022-11-15T12:41:53Z</time><name>PT5189</name></trkpt>
<trkpt lat="51.555284" lon="03.813874"><ele>7.9</ele><time>2022-11-15T12:41:54Z</time><name>PT5190</name></trkpt>
<trkpt lat="51.555288" lon="03.813906"><ele>7.9</ele><time>2022-11-15T12:41:55Z</time><name>PT5191</name></trkpt>
<trkpt lat="51.555289" lon="03.813934"><ele>7.8</ele><time>2022-11-15T12:41:56Z</time><name>PT5192</name></trkpt>
<trkpt lat="51.555291" lon="03.813951"><ele>7.8</ele><time>2022-11-15T12:41:56Z</time><name>PT5193</name></trkpt>
<trkpt lat="51.555293" lon="03.813962"><ele>7.8</ele><time>2022-11-15T12:41:58Z</time><name>PT5194</name></trkpt>
<trkpt lat="51.555291" lon="03.813971"><ele>7.9</ele><time>2022-11-15T12:41:58Z</time><name>PT5195</name></trkpt>
<trkpt lat="51.555290" lon="03.813973"><ele>7.8</ele><time>2022-11-15T12:42:00Z</time><name>PT5196</name></trkpt>
<trkpt lat="51.555296" lon="03.813977"><ele>7.6</ele><time>2022-11-15T12:42:00Z</time><name>PT5197</name></trkpt>
<trkpt lat="51.555297" lon="03.813984"><ele>7.8</ele><time>2022-11-15T12:42:02Z</time><name>PT5198</name></trkpt>
<trkpt lat="51.555293" lon="03.813999"><ele>7.9</ele><time>2022-11-15T12:42:02Z</time><name>PT5199</name></trkpt>
<trkpt lat="51.555297" lon="03.814029"><ele>7.9</ele><time>2022-11-15T12:42:04Z</time><name>PT5200</name></trkpt>
<trkpt lat="51.555304" lon="03.814058"><ele>8</ele><time>2022-11-15T12:42:04Z</time><name>PT5201</name></trkpt>
<trkpt lat="51.555309" lon="03.814080"><ele>8</ele><time>2022-11-15T12:42:06Z</time><name>PT5202</name></trkpt>
<trkpt lat="51.555310" lon="03.814098"><ele>8</ele><time>2022-11-15T12:42:06Z</time><name>PT5203</name></trkpt>
<trkpt lat="51.555309" lon="03.814114"><ele>8</ele><time>2022-11-15T12:42:08Z</time><name>PT5204</name></trkpt>
<trkpt lat="51.555307" lon="03.814128"><ele>8</ele><time>2022-11-15T12:42:08Z</time><name>PT5205</name></trkpt>
<trkpt lat="51.555308" lon="03.814144"><ele>8</ele><time>2022-11-15T12:42:10Z</time><name>PT5206</name></trkpt>
<trkpt lat="51.555310" lon="03.814168"><ele>8</ele><time>2022-11-15T12:42:10Z</time><name>PT5207</name></trkpt>
<trkpt lat="51.555312" lon="03.814201"><ele>8</ele><time>2022-11-15T12:42:12Z</time><name>PT5208</name></trkpt>
<trkpt lat="51.555314" lon="03.814234"><ele>8</ele><time>2022-11-15T12:42:12Z</time><name>PT5209</name></trkpt>
<trkpt lat="51.555313" lon="03.814265"><ele>8</ele><time>2022-11-15T12:42:14Z</time><name>PT5210</name></trkpt>
<trkpt lat="51.555311" lon="03.814284"><ele>8</ele><time>2022-11-15T12:42:14Z</time><name>PT5211</name></trkpt>
<trkpt lat="51.555310" lon="03.814298"><ele>8</ele><time>2022-11-15T12:42:16Z</time><name>PT5212</name></trkpt>
<trkpt lat="51.555310" lon="03.814311"><ele>8</ele><time>2022-11-15T12:42:17Z</time><name>PT5213</name></trkpt>
<trkpt lat="51.555308" lon="03.814327"><ele>8</ele><time>2022-11-15T12:42:18Z</time><name>PT5214</name></trkpt>
<trkpt lat="51.555305" lon="03.814343"><ele>7.9</ele><time>2022-11-15T12:42:19Z</time><name>PT5215</name></trkpt>
<trkpt lat="51.555303" lon="03.814361"><ele>7.8</ele><time>2022-11-15T12:42:20Z</time><name>PT5216</name></trkpt>
<trkpt lat="51.555302" lon="03.814377"><ele>7.8</ele><time>2022-11-15T12:42:21Z</time><name>PT5217</name></trkpt>
<trkpt lat="51.555302" lon="03.814392"><ele>8</ele><time>2022-11-15T12:42:22Z</time><name>PT5218</name></trkpt>
<trkpt lat="51.555301" lon="03.814404"><ele>8</ele><time>2022-11-15T12:42:23Z</time><name>PT5219</name></trkpt>
<trkpt lat="51.555302" lon="03.814411"><ele>8.1</ele><time>2022-11-15T12:42:24Z</time><name>PT5220</name></trkpt>
<trkpt lat="51.555302" lon="03.814418"><ele>8.3</ele><time>2022-11-15T12:42:25Z</time><name>PT5221</name></trkpt>
<trkpt lat="51.555302" lon="03.814430"><ele>8.2</ele><time>2022-11-15T12:42:26Z</time><name>PT5222</name></trkpt>
<trkpt lat="51.555300" lon="03.814448"><ele>8.2</ele><time>2022-11-15T12:42:26Z</time><name>PT5223</name></trkpt>
<trkpt lat="51.555298" lon="03.814474"><ele>8.2</ele><time>2022-11-15T12:42:28Z</time><name>PT5224</name></trkpt>
<trkpt lat="51.555298" lon="03.814504"><ele>8</ele><time>2022-11-15T12:42:28Z</time><name>PT5225</name></trkpt>
<trkpt lat="51.555297" lon="03.814524"><ele>8.1</ele><time>2022-11-15T12:42:30Z</time><name>PT5226</name></trkpt>
<trkpt lat="51.555298" lon="03.814540"><ele>8</ele><time>2022-11-15T12:42:30Z</time><name>PT5227</name></trkpt>
<trkpt lat="51.555295" lon="03.814556"><ele>8</ele><time>2022-11-15T12:42:32Z</time><name>PT5228</name></trkpt>
<trkpt lat="51.555293" lon="03.814573"><ele>8</ele><time>2022-11-15T12:42:32Z</time><name>PT5229</name></trkpt>
<trkpt lat="51.555294" lon="03.814588"><ele>8.3</ele><time>2022-11-15T12:42:34Z</time><name>PT5230</name></trkpt>
<trkpt lat="51.555296" lon="03.814591"><ele>8.2</ele><time>2022-11-15T12:42:34Z</time><name>PT5231</name></trkpt>
<trkpt lat="51.555297" lon="03.814591"><ele>8.2</ele><time>2022-11-15T12:42:36Z</time><name>PT5232</name></trkpt>
<trkpt lat="51.555294" lon="03.814607"><ele>8.2</ele><time>2022-11-15T12:42:36Z</time><name>PT5233</name></trkpt>
<trkpt lat="51.555292" lon="03.814625"><ele>8.1</ele><time>2022-11-15T12:42:38Z</time><name>PT5234</name></trkpt>
<trkpt lat="51.555290" lon="03.814642"><ele>8.1</ele><time>2022-11-15T12:42:38Z</time><name>PT5235</name></trkpt>
<trkpt lat="51.555291" lon="03.814659"><ele>8.1</ele><time>2022-11-15T12:42:40Z</time><name>PT5236</name></trkpt>
<trkpt lat="51.555291" lon="03.814677"><ele>8.2</ele><time>2022-11-15T12:42:41Z</time><name>PT5237</name></trkpt>
<trkpt lat="51.555290" lon="03.814695"><ele>8.3</ele><time>2022-11-15T12:42:42Z</time><name>PT5238</name></trkpt>
<trkpt lat="51.555290" lon="03.814711"><ele>8.3</ele><time>2022-11-15T12:42:43Z</time><name>PT5239</name></trkpt>
<trkpt lat="51.555291" lon="03.814728"><ele>8.2</ele><time>2022-11-15T12:42:44Z</time><name>PT5240</name></trkpt>
<trkpt lat="51.555293" lon="03.814738"><ele>8.1</ele><time>2022-11-15T12:42:44Z</time><name>PT5241</name></trkpt>
<trkpt lat="51.555295" lon="03.814747"><ele>8.2</ele><time>2022-11-15T12:42:46Z</time><name>PT5242</name></trkpt>
<trkpt lat="51.555296" lon="03.814754"><ele>8</ele><time>2022-11-15T12:42:47Z</time><name>PT5243</name></trkpt>
<trkpt lat="51.555297" lon="03.814756"><ele>8</ele><time>2022-11-15T12:42:48Z</time><name>PT5244</name></trkpt>
<trkpt lat="51.555296" lon="03.814765"><ele>8</ele><time>2022-11-15T12:42:49Z</time><name>PT5245</name></trkpt>
<trkpt lat="51.555295" lon="03.814787"><ele>8</ele><time>2022-11-15T12:42:50Z</time><name>PT5246</name></trkpt>
<trkpt lat="51.555297" lon="03.814813"><ele>8</ele><time>2022-11-15T12:42:51Z</time><name>PT5247</name></trkpt>
<trkpt lat="51.555300" lon="03.814830"><ele>8.1</ele><time>2022-11-15T12:42:52Z</time><name>PT5248</name></trkpt>
<trkpt lat="51.555303" lon="03.814839"><ele>8.1</ele><time>2022-11-15T12:42:53Z</time><name>PT5249</name></trkpt>
<trkpt lat="51.555306" lon="03.814843"><ele>8.4</ele><time>2022-11-15T12:42:54Z</time><name>PT5250</name></trkpt>
<trkpt lat="51.555310" lon="03.814848"><ele>8.2</ele><time>2022-11-15T12:42:55Z</time><name>PT5251</name></trkpt>
<trkpt lat="51.555307" lon="03.814853"><ele>8.1</ele><time>2022-11-15T12:42:56Z</time><name>PT5252</name></trkpt>
<trkpt lat="51.555303" lon="03.814871"><ele>8.1</ele><time>2022-11-15T12:42:57Z</time><name>PT5253</name></trkpt>
<trkpt lat="51.555301" lon="03.814901"><ele>7.9</ele><time>2022-11-15T12:42:58Z</time><name>PT5254</name></trkpt>
<trkpt lat="51.555300" lon="03.814933"><ele>7.8</ele><time>2022-11-15T12:42:58Z</time><name>PT5255</name></trkpt>
<trkpt lat="51.555300" lon="03.814958"><ele>8</ele><time>2022-11-15T12:43:00Z</time><name>PT5256</name></trkpt>
<trkpt lat="51.555300" lon="03.814972"><ele>8</ele><time>2022-11-15T12:43:00Z</time><name>PT5257</name></trkpt>
<trkpt lat="51.555302" lon="03.814976"><ele>8.1</ele><time>2022-11-15T12:43:02Z</time><name>PT5258</name></trkpt>
<trkpt lat="51.555303" lon="03.814981"><ele>8.2</ele><time>2022-11-15T12:43:02Z</time><name>PT5259</name></trkpt>
<trkpt lat="51.555301" lon="03.814991"><ele>8.2</ele><time>2022-11-15T12:43:04Z</time><name>PT5260</name></trkpt>
<trkpt lat="51.555300" lon="03.815005"><ele>8</ele><time>2022-11-15T12:43:04Z</time><name>PT5261</name></trkpt>
<trkpt lat="51.555299" lon="03.815031"><ele>8.2</ele><time>2022-11-15T12:43:06Z</time><name>PT5262</name></trkpt>
<trkpt lat="51.555298" lon="03.815059"><ele>8.1</ele><time>2022-11-15T12:43:06Z</time><name>PT5263</name></trkpt>
<trkpt lat="51.555298" lon="03.815081"><ele>8.1</ele><time>2022-11-15T12:43:08Z</time><name>PT5264</name></trkpt>
<trkpt lat="51.555300" lon="03.815096"><ele>8</ele><time>2022-11-15T12:43:08Z</time><name>PT5265</name></trkpt>
<trkpt lat="51.555298" lon="03.815113"><ele>8.1</ele><time>2022-11-15T12:43:10Z</time><name>PT5266</name></trkpt>
<trkpt lat="51.555298" lon="03.815128"><ele>8.1</ele><time>2022-11-15T12:43:10Z</time><name>PT5267</name></trkpt>
<trkpt lat="51.555297" lon="03.815145"><ele>8.4</ele><time>2022-11-15T12:43:12Z</time><name>PT5268</name></trkpt>
<trkpt lat="51.555296" lon="03.815163"><ele>8.4</ele><time>2022-11-15T12:43:12Z</time><name>PT5269</name></trkpt>
<trkpt lat="51.555296" lon="03.815180"><ele>8.7</ele><time>2022-11-15T12:43:14Z</time><name>PT5270</name></trkpt>
<trkpt lat="51.555297" lon="03.815196"><ele>8.7</ele><time>2022-11-15T12:43:14Z</time><name>PT5271</name></trkpt>
<trkpt lat="51.555299" lon="03.815213"><ele>8.7</ele><time>2022-11-15T12:43:16Z</time><name>PT5272</name></trkpt>
<trkpt lat="51.555299" lon="03.815230"><ele>8.6</ele><time>2022-11-15T12:43:16Z</time><name>PT5273</name></trkpt>
<trkpt lat="51.555300" lon="03.815246"><ele>8.5</ele><time>2022-11-15T12:43:18Z</time><name>PT5274</name></trkpt>
<trkpt lat="51.555298" lon="03.815260"><ele>8.5</ele><time>2022-11-15T12:43:18Z</time><name>PT5275</name></trkpt>
<trkpt lat="51.555295" lon="03.815275"><ele>8.6</ele><time>2022-11-15T12:43:20Z</time><name>PT5276</name></trkpt>
<trkpt lat="51.555295" lon="03.815295"><ele>8.8</ele><time>2022-11-15T12:43:20Z</time><name>PT5277</name></trkpt>
<trkpt lat="51.555295" lon="03.815311"><ele>8.8</ele><time>2022-11-15T12:43:22Z</time><name>PT5278</name></trkpt>
<trkpt lat="51.555295" lon="03.815326"><ele>9</ele><time>2022-11-15T12:43:22Z</time><name>PT5279</name></trkpt>
<trkpt lat="51.555295" lon="03.815340"><ele>8.7</ele><time>2022-11-15T12:43:24Z</time><name>PT5280</name></trkpt>
<trkpt lat="51.555294" lon="03.815352"><ele>8.6</ele><time>2022-11-15T12:43:24Z</time><name>PT5281</name></trkpt>
<trkpt lat="51.555292" lon="03.815364"><ele>8.6</ele><time>2022-11-15T12:43:26Z</time><name>PT5282</name></trkpt>
<trkpt lat="51.555290" lon="03.815380"><ele>8.6</ele><time>2022-11-15T12:43:26Z</time><name>PT5283</name></trkpt>
<trkpt lat="51.555289" lon="03.815396"><ele>8.3</ele><time>2022-11-15T12:43:28Z</time><name>PT5284</name></trkpt>
<trkpt lat="51.555288" lon="03.815412"><ele>8.5</ele><time>2022-11-15T12:43:28Z</time><name>PT5285</name></trkpt>
<trkpt lat="51.555289" lon="03.815427"><ele>8.4</ele><time>2022-11-15T12:43:30Z</time><name>PT5286</name></trkpt>
<trkpt lat="51.555291" lon="03.815441"><ele>8.3</ele><time>2022-11-15T12:43:30Z</time><name>PT5287</name></trkpt>
<trkpt lat="51.555292" lon="03.815455"><ele>8.3</ele><time>2022-11-15T12:43:32Z</time><name>PT5288</name></trkpt>
<trkpt lat="51.555292" lon="03.815468"><ele>8.5</ele><time>2022-11-15T12:43:32Z</time><name>PT5289</name></trkpt>
<trkpt lat="51.555291" lon="03.815480"><ele>8.5</ele><time>2022-11-15T12:43:34Z</time><name>PT5290</name></trkpt>
<trkpt lat="51.555290" lon="03.815495"><ele>8.5</ele><time>2022-11-15T12:43:34Z</time><name>PT5291</name></trkpt>
<trkpt lat="51.555290" lon="03.815511"><ele>8.3</ele><time>2022-11-15T12:43:36Z</time><name>PT5292</name></trkpt>
<trkpt lat="51.555289" lon="03.815525"><ele>8.3</ele><time>2022-11-15T12:43:36Z</time><name>PT5293</name></trkpt>
<trkpt lat="51.555287" lon="03.815538"><ele>8.2</ele><time>2022-11-15T12:43:38Z</time><name>PT5294</name></trkpt>
<trkpt lat="51.555289" lon="03.815554"><ele>8</ele><time>2022-11-15T12:43:38Z</time><name>PT5295</name></trkpt>
<trkpt lat="51.555289" lon="03.815569"><ele>8</ele><time>2022-11-15T12:43:40Z</time><name>PT5296</name></trkpt>
<trkpt lat="51.555286" lon="03.815582"><ele>8.1</ele><time>2022-11-15T12:43:40Z</time><name>PT5297</name></trkpt>
<trkpt lat="51.555284" lon="03.815594"><ele>8.1</ele><time>2022-11-15T12:43:42Z</time><name>PT5298</name></trkpt>
<trkpt lat="51.555283" lon="03.815611"><ele>8.1</ele><time>2022-11-15T12:43:42Z</time><name>PT5299</name></trkpt>
<trkpt lat="51.555284" lon="03.815627"><ele>8.1</ele><time>2022-11-15T12:43:44Z</time><name>PT5300</name></trkpt>
<trkpt lat="51.555285" lon="03.815643"><ele>8</ele><time>2022-11-15T12:43:44Z</time><name>PT5301</name></trkpt>
<trkpt lat="51.555285" lon="03.815661"><ele>8</ele><time>2022-11-15T12:43:46Z</time><name>PT5302</name></trkpt>
<trkpt lat="51.555286" lon="03.815679"><ele>8</ele><time>2022-11-15T12:43:46Z</time><name>PT5303</name></trkpt>
<trkpt lat="51.555287" lon="03.815697"><ele>7.9</ele><time>2022-11-15T12:43:48Z</time><name>PT5304</name></trkpt>
<trkpt lat="51.555287" lon="03.815718"><ele>8</ele><time>2022-11-15T12:43:48Z</time><name>PT5305</name></trkpt>
<trkpt lat="51.555286" lon="03.815736"><ele>7.9</ele><time>2022-11-15T12:43:50Z</time><name>PT5306</name></trkpt>
<trkpt lat="51.555285" lon="03.815752"><ele>8.1</ele><time>2022-11-15T12:43:50Z</time><name>PT5307</name></trkpt>
<trkpt lat="51.555285" lon="03.815770"><ele>8.1</ele><time>2022-11-15T12:43:52Z</time><name>PT5308</name></trkpt>
<trkpt lat="51.555285" lon="03.815787"><ele>8.2</ele><time>2022-11-15T12:43:53Z</time><name>PT5309</name></trkpt>
<trkpt lat="51.555287" lon="03.815802"><ele>8.2</ele><time>2022-11-15T12:43:54Z</time><name>PT5310</name></trkpt>
<trkpt lat="51.555289" lon="03.815818"><ele>8.4</ele><time>2022-11-15T12:43:54Z</time><name>PT5311</name></trkpt>
<trkpt lat="51.555292" lon="03.815834"><ele>8.4</ele><time>2022-11-15T12:43:56Z</time><name>PT5312</name></trkpt>
<trkpt lat="51.555293" lon="03.815849"><ele>8.2</ele><time>2022-11-15T12:43:56Z</time><name>PT5313</name></trkpt>
<trkpt lat="51.555293" lon="03.815863"><ele>8.2</ele><time>2022-11-15T12:43:58Z</time><name>PT5314</name></trkpt>
<trkpt lat="51.555294" lon="03.815878"><ele>8.2</ele><time>2022-11-15T12:43:58Z</time><name>PT5315</name></trkpt>
<trkpt lat="51.555294" lon="03.815895"><ele>8</ele><time>2022-11-15T12:44:00Z</time><name>PT5316</name></trkpt>
<trkpt lat="51.555296" lon="03.815912"><ele>8</ele><time>2022-11-15T12:44:00Z</time><name>PT5317</name></trkpt>
<trkpt lat="51.555297" lon="03.815927"><ele>8</ele><time>2022-11-15T12:44:02Z</time><name>PT5318</name></trkpt>
<trkpt lat="51.555297" lon="03.815934"><ele>8.1</ele><time>2022-11-15T12:44:02Z</time><name>PT5319</name></trkpt>
<trkpt lat="51.555297" lon="03.815937"><ele>8.1</ele><time>2022-11-15T12:44:04Z</time><name>PT5320</name></trkpt>
<trkpt lat="51.555296" lon="03.815945"><ele>8.1</ele><time>2022-11-15T12:44:04Z</time><name>PT5321</name></trkpt>
<trkpt lat="51.555295" lon="03.815959"><ele>8</ele><time>2022-11-15T12:44:06Z</time><name>PT5322</name></trkpt>
<trkpt lat="51.555297" lon="03.815975"><ele>8</ele><time>2022-11-15T12:44:06Z</time><name>PT5323</name></trkpt>
<trkpt lat="51.555297" lon="03.815990"><ele>8</ele><time>2022-11-15T12:44:08Z</time><name>PT5324</name></trkpt>
<trkpt lat="51.555297" lon="03.816004"><ele>7.9</ele><time>2022-11-15T12:44:08Z</time><name>PT5325</name></trkpt>
<trkpt lat="51.555298" lon="03.816020"><ele>7.8</ele><time>2022-11-15T12:44:10Z</time><name>PT5326</name></trkpt>
<trkpt lat="51.555298" lon="03.816037"><ele>8</ele><time>2022-11-15T12:44:10Z</time><name>PT5327</name></trkpt>
<trkpt lat="51.555299" lon="03.816053"><ele>8.1</ele><time>2022-11-15T12:44:12Z</time><name>PT5328</name></trkpt>
<trkpt lat="51.555303" lon="03.816069"><ele>8.4</ele><time>2022-11-15T12:44:13Z</time><name>PT5329</name></trkpt>
<trkpt lat="51.555305" lon="03.816085"><ele>8.6</ele><time>2022-11-15T12:44:14Z</time><name>PT5330</name></trkpt>
<trkpt lat="51.555305" lon="03.816102"><ele>8.6</ele><time>2022-11-15T12:44:15Z</time><name>PT5331</name></trkpt>
<trkpt lat="51.555302" lon="03.816115"><ele>8.6</ele><time>2022-11-15T12:44:16Z</time><name>PT5332</name></trkpt>
<trkpt lat="51.555298" lon="03.816134"><ele>8.5</ele><time>2022-11-15T12:44:17Z</time><name>PT5333</name></trkpt>
<trkpt lat="51.555299" lon="03.816149"><ele>8.5</ele><time>2022-11-15T12:44:18Z</time><name>PT5334</name></trkpt>
<trkpt lat="51.555299" lon="03.816166"><ele>8.3</ele><time>2022-11-15T12:44:19Z</time><name>PT5335</name></trkpt>
<trkpt lat="51.555299" lon="03.816184"><ele>8.2</ele><time>2022-11-15T12:44:20Z</time><name>PT5336</name></trkpt>
<trkpt lat="51.555300" lon="03.816202"><ele>8.1</ele><time>2022-11-15T12:44:21Z</time><name>PT5337</name></trkpt>
<trkpt lat="51.555301" lon="03.816221"><ele>8.2</ele><time>2022-11-15T12:44:22Z</time><name>PT5338</name></trkpt>
<trkpt lat="51.555302" lon="03.816239"><ele>8.1</ele><time>2022-11-15T12:44:22Z</time><name>PT5339</name></trkpt>
<trkpt lat="51.555304" lon="03.816256"><ele>8.2</ele><time>2022-11-15T12:44:24Z</time><name>PT5340</name></trkpt>
<trkpt lat="51.555304" lon="03.816272"><ele>8.5</ele><time>2022-11-15T12:44:25Z</time><name>PT5341</name></trkpt>
<trkpt lat="51.555305" lon="03.816289"><ele>8.5</ele><time>2022-11-15T12:44:26Z</time><name>PT5342</name></trkpt>
<trkpt lat="51.555306" lon="03.816307"><ele>8.5</ele><time>2022-11-15T12:44:27Z</time><name>PT5343</name></trkpt>
<trkpt lat="51.555307" lon="03.816327"><ele>8.6</ele><time>2022-11-15T12:44:28Z</time><name>PT5344</name></trkpt>
<trkpt lat="51.555309" lon="03.816343"><ele>8.6</ele><time>2022-11-15T12:44:29Z</time><name>PT5345</name></trkpt>
<trkpt lat="51.555310" lon="03.816361"><ele>8.6</ele><time>2022-11-15T12:44:30Z</time><name>PT5346</name></trkpt>
<trkpt lat="51.555310" lon="03.816377"><ele>8.5</ele><time>2022-11-15T12:44:31Z</time><name>PT5347</name></trkpt>
<trkpt lat="51.555307" lon="03.816394"><ele>8.5</ele><time>2022-11-15T12:44:32Z</time><name>PT5348</name></trkpt>
<trkpt lat="51.555308" lon="03.816410"><ele>8.4</ele><time>2022-11-15T12:44:32Z</time><name>PT5349</name></trkpt>
<trkpt lat="51.555308" lon="03.816426"><ele>8.5</ele><time>2022-11-15T12:44:34Z</time><name>PT5350</name></trkpt>
<trkpt lat="51.555310" lon="03.816440"><ele>8.3</ele><time>2022-11-15T12:44:34Z</time><name>PT5351</name></trkpt>
<trkpt lat="51.555311" lon="03.816454"><ele>8.4</ele><time>2022-11-15T12:44:36Z</time><name>PT5352</name></trkpt>
<trkpt lat="51.555311" lon="03.816470"><ele>8.3</ele><time>2022-11-15T12:44:36Z</time><name>PT5353</name></trkpt>
<trkpt lat="51.555312" lon="03.816484"><ele>8.1</ele><time>2022-11-15T12:44:38Z</time><name>PT5354</name></trkpt>
<trkpt lat="51.555314" lon="03.816503"><ele>8</ele><time>2022-11-15T12:44:38Z</time><name>PT5355</name></trkpt>
<trkpt lat="51.555315" lon="03.816520"><ele>8</ele><time>2022-11-15T12:44:40Z</time><name>PT5356</name></trkpt>
<trkpt lat="51.555317" lon="03.816536"><ele>8</ele><time>2022-11-15T12:44:40Z</time><name>PT5357</name></trkpt>
<trkpt lat="51.555316" lon="03.816555"><ele>8.2</ele><time>2022-11-15T12:44:42Z</time><name>PT5358</name></trkpt>
<trkpt lat="51.555316" lon="03.816574"><ele>8.5</ele><time>2022-11-15T12:44:42Z</time><name>PT5359</name></trkpt>
<trkpt lat="51.555317" lon="03.816591"><ele>8.4</ele><time>2022-11-15T12:44:44Z</time><name>PT5360</name></trkpt>
<trkpt lat="51.555317" lon="03.816612"><ele>8.5</ele><time>2022-11-15T12:44:44Z</time><name>PT5361</name></trkpt>
<trkpt lat="51.555318" lon="03.816633"><ele>8.5</ele><time>2022-11-15T12:44:46Z</time><name>PT5362</name></trkpt>
<trkpt lat="51.555321" lon="03.816651"><ele>8.5</ele><time>2022-11-15T12:44:46Z</time><name>PT5363</name></trkpt>
<trkpt lat="51.555324" lon="03.816669"><ele>8.3</ele><time>2022-11-15T12:44:48Z</time><name>PT5364</name></trkpt>
<trkpt lat="51.555326" lon="03.816688"><ele>8.3</ele><time>2022-11-15T12:44:48Z</time><name>PT5365</name></trkpt>
<trkpt lat="51.555327" lon="03.816706"><ele>8.3</ele><time>2022-11-15T12:44:50Z</time><name>PT5366</name></trkpt>
<trkpt lat="51.555328" lon="03.816724"><ele>8.2</ele><time>2022-11-15T12:44:50Z</time><name>PT5367</name></trkpt>
<trkpt lat="51.555329" lon="03.816742"><ele>8.4</ele><time>2022-11-15T12:44:52Z</time><name>PT5368</name></trkpt>
<trkpt lat="51.555330" lon="03.816760"><ele>8.3</ele><time>2022-11-15T12:44:52Z</time><name>PT5369</name></trkpt>
<trkpt lat="51.555330" lon="03.816779"><ele>8.3</ele><time>2022-11-15T12:44:54Z</time><name>PT5370</name></trkpt>
<trkpt lat="51.555331" lon="03.816797"><ele>8.2</ele><time>2022-11-15T12:44:54Z</time><name>PT5371</name></trkpt>
<trkpt lat="51.555332" lon="03.816815"><ele>8.4</ele><time>2022-11-15T12:44:56Z</time><name>PT5372</name></trkpt>
<trkpt lat="51.555334" lon="03.816832"><ele>8.2</ele><time>2022-11-15T12:44:56Z</time><name>PT5373</name></trkpt>
<trkpt lat="51.555337" lon="03.816850"><ele>8.2</ele><time>2022-11-15T12:44:58Z</time><name>PT5374</name></trkpt>
<trkpt lat="51.555339" lon="03.816869"><ele>8.4</ele><time>2022-11-15T12:44:58Z</time><name>PT5375</name></trkpt>
<trkpt lat="51.555340" lon="03.816884"><ele>8.5</ele><time>2022-11-15T12:45:00Z</time><name>PT5376</name></trkpt>
<trkpt lat="51.555342" lon="03.816900"><ele>8.5</ele><time>2022-11-15T12:45:00Z</time><name>PT5377</name></trkpt>
<trkpt lat="51.555342" lon="03.816916"><ele>8.7</ele><time>2022-11-15T12:45:02Z</time><name>PT5378</name></trkpt>
<trkpt lat="51.555342" lon="03.816933"><ele>8.9</ele><time>2022-11-15T12:45:02Z</time><name>PT5379</name></trkpt>
<trkpt lat="51.555343" lon="03.816948"><ele>8.8</ele><time>2022-11-15T12:45:04Z</time><name>PT5380</name></trkpt>
<trkpt lat="51.555345" lon="03.816965"><ele>8.8</ele><time>2022-11-15T12:45:04Z</time><name>PT5381</name></trkpt>
<trkpt lat="51.555346" lon="03.816981"><ele>8.7</ele><time>2022-11-15T12:45:06Z</time><name>PT5382</name></trkpt>
<trkpt lat="51.555350" lon="03.816998"><ele>8.8</ele><time>2022-11-15T12:45:06Z</time><name>PT5383</name></trkpt>
<trkpt lat="51.555351" lon="03.817013"><ele>8.7</ele><time>2022-11-15T12:45:08Z</time><name>PT5384</name></trkpt>
<trkpt lat="51.555353" lon="03.817027"><ele>8.7</ele><time>2022-11-15T12:45:08Z</time><name>PT5385</name></trkpt>
<trkpt lat="51.555354" lon="03.817042"><ele>8.7</ele><time>2022-11-15T12:45:10Z</time><name>PT5386</name></trkpt>
<trkpt lat="51.555354" lon="03.817058"><ele>8.5</ele><time>2022-11-15T12:45:10Z</time><name>PT5387</name></trkpt>
<trkpt lat="51.555355" lon="03.817076"><ele>8.5</ele><time>2022-11-15T12:45:12Z</time><name>PT5388</name></trkpt>
<trkpt lat="51.555356" lon="03.817092"><ele>8.4</ele><time>2022-11-15T12:45:12Z</time><name>PT5389</name></trkpt>
<trkpt lat="51.555357" lon="03.817109"><ele>8.3</ele><time>2022-11-15T12:45:14Z</time><name>PT5390</name></trkpt>
<trkpt lat="51.555359" lon="03.817128"><ele>8.4</ele><time>2022-11-15T12:45:14Z</time><name>PT5391</name></trkpt>
<trkpt lat="51.555361" lon="03.817147"><ele>8.4</ele><time>2022-11-15T12:45:16Z</time><name>PT5392</name></trkpt>
<trkpt lat="51.555363" lon="03.817164"><ele>8.5</ele><time>2022-11-15T12:45:16Z</time><name>PT5393</name></trkpt>
<trkpt lat="51.555365" lon="03.817181"><ele>8.5</ele><time>2022-11-15T12:45:18Z</time><name>PT5394</name></trkpt>
<trkpt lat="51.555366" lon="03.817198"><ele>8.5</ele><time>2022-11-15T12:45:18Z</time><name>PT5395</name></trkpt>
<trkpt lat="51.555368" lon="03.817216"><ele>8.5</ele><time>2022-11-15T12:45:20Z</time><name>PT5396</name></trkpt>
<trkpt lat="51.555369" lon="03.817234"><ele>8.4</ele><time>2022-11-15T12:45:20Z</time><name>PT5397</name></trkpt>
<trkpt lat="51.555371" lon="03.817253"><ele>8.3</ele><time>2022-11-15T12:45:22Z</time><name>PT5398</name></trkpt>
<trkpt lat="51.555372" lon="03.817270"><ele>8.2</ele><time>2022-11-15T12:45:22Z</time><name>PT5399</name></trkpt>
<trkpt lat="51.555372" lon="03.817287"><ele>8.4</ele><time>2022-11-15T12:45:24Z</time><name>PT5400</name></trkpt>
<trkpt lat="51.555374" lon="03.817304"><ele>8.4</ele><time>2022-11-15T12:45:24Z</time><name>PT5401</name></trkpt>
<trkpt lat="51.555376" lon="03.817320"><ele>8.4</ele><time>2022-11-15T12:45:26Z</time><name>PT5402</name></trkpt>
<trkpt lat="51.555378" lon="03.817336"><ele>8.3</ele><time>2022-11-15T12:45:26Z</time><name>PT5403</name></trkpt>
<trkpt lat="51.555380" lon="03.817350"><ele>8.3</ele><time>2022-11-15T12:45:28Z</time><name>PT5404</name></trkpt>
<trkpt lat="51.555381" lon="03.817365"><ele>8.3</ele><time>2022-11-15T12:45:28Z</time><name>PT5405</name></trkpt>
<trkpt lat="51.555382" lon="03.817379"><ele>8.1</ele><time>2022-11-15T12:45:30Z</time><name>PT5406</name></trkpt>
<trkpt lat="51.555384" lon="03.817397"><ele>8.2</ele><time>2022-11-15T12:45:30Z</time><name>PT5407</name></trkpt>
<trkpt lat="51.555386" lon="03.817415"><ele>8.2</ele><time>2022-11-15T12:45:32Z</time><name>PT5408</name></trkpt>
<trkpt lat="51.555388" lon="03.817430"><ele>8.2</ele><time>2022-11-15T12:45:32Z</time><name>PT5409</name></trkpt>
<trkpt lat="51.555392" lon="03.817439"><ele>8.4</ele><time>2022-11-15T12:45:34Z</time><name>PT5410</name></trkpt>
<trkpt lat="51.555395" lon="03.817445"><ele>8.6</ele><time>2022-11-15T12:45:34Z</time><name>PT5411</name></trkpt>
<trkpt lat="51.555398" lon="03.817458"><ele>8.7</ele><time>2022-11-15T12:45:36Z</time><name>PT5412</name></trkpt>
<trkpt lat="51.555403" lon="03.817471"><ele>8.8</ele><time>2022-11-15T12:45:36Z</time><name>PT5413</name></trkpt>
<trkpt lat="51.555410" lon="03.817483"><ele>8.8</ele><time>2022-11-15T12:45:38Z</time><name>PT5414</name></trkpt>
<trkpt lat="51.555417" lon="03.817497"><ele>8.6</ele><time>2022-11-15T12:45:38Z</time><name>PT5415</name></trkpt>
<trkpt lat="51.555426" lon="03.817508"><ele>8.6</ele><time>2022-11-15T12:45:40Z</time><name>PT5416</name></trkpt>
<trkpt lat="51.555437" lon="03.817512"><ele>8.5</ele><time>2022-11-15T12:45:40Z</time><name>PT5417</name></trkpt>
<trkpt lat="51.555446" lon="03.817515"><ele>8.5</ele><time>2022-11-15T12:45:42Z</time><name>PT5418</name></trkpt>
<trkpt lat="51.555455" lon="03.817520"><ele>8.4</ele><time>2022-11-15T12:45:42Z</time><name>PT5419</name></trkpt>
<trkpt lat="51.555462" lon="03.817525"><ele>8.5</ele><time>2022-11-15T12:45:44Z</time><name>PT5420</name></trkpt>
<trkpt lat="51.555468" lon="03.817526"><ele>8.5</ele><time>2022-11-15T12:45:44Z</time><name>PT5421</name></trkpt>
<trkpt lat="51.555473" lon="03.817525"><ele>8.5</ele><time>2022-11-15T12:45:46Z</time><name>PT5422</name></trkpt>
<trkpt lat="51.555477" lon="03.817525"><ele>8.4</ele><time>2022-11-15T12:45:47Z</time><name>PT5423</name></trkpt>
<trkpt lat="51.555481" lon="03.817527"><ele>8.6</ele><time>2022-11-15T12:45:52Z</time><name>PT5424</name></trkpt>
<trkpt lat="51.555482" lon="03.817524"><ele>8.5</ele><time>2022-11-15T12:45:53Z</time><name>PT5425</name></trkpt>
<trkpt lat="51.555481" lon="03.817523"><ele>8.7</ele><time>2022-11-15T12:45:54Z</time><name>PT5426</name></trkpt>
<trkpt lat="51.555480" lon="03.817524"><ele>8.6</ele><time>2022-11-15T12:45:54Z</time><name>PT5427</name></trkpt>
<trkpt lat="51.555484" lon="03.817528"><ele>8.8</ele><time>2022-11-15T12:45:57Z</time><name>PT5428</name></trkpt>
<trkpt lat="51.555496" lon="03.817531"><ele>8.8</ele><time>2022-11-15T12:45:58Z</time><name>PT5429</name></trkpt>
<trkpt lat="51.555506" lon="03.817531"><ele>8.8</ele><time>2022-11-15T12:45:59Z</time><name>PT5430</name></trkpt>
<trkpt lat="51.555514" lon="03.817531"><ele>8.5</ele><time>2022-11-15T12:46:00Z</time><name>PT5431</name></trkpt>
<trkpt lat="51.555522" lon="03.817532"><ele>8.5</ele><time>2022-11-15T12:46:00Z</time><name>PT5432</name></trkpt>
<trkpt lat="51.555533" lon="03.817529"><ele>8.5</ele><time>2022-11-15T12:46:02Z</time><name>PT5433</name></trkpt>
<trkpt lat="51.555544" lon="03.817525"><ele>8.4</ele><time>2022-11-15T12:46:03Z</time><name>PT5434</name></trkpt>
<trkpt lat="51.555554" lon="03.817520"><ele>8.2</ele><time>2022-11-15T12:46:04Z</time><name>PT5435</name></trkpt>
<trkpt lat="51.555565" lon="03.817516"><ele>8.4</ele><time>2022-11-15T12:46:05Z</time><name>PT5436</name></trkpt>
<trkpt lat="51.555576" lon="03.817512"><ele>8.4</ele><time>2022-11-15T12:46:06Z</time><name>PT5437</name></trkpt>
<trkpt lat="51.555588" lon="03.817511"><ele>8.5</ele><time>2022-11-15T12:46:06Z</time><name>PT5438</name></trkpt>
<trkpt lat="51.555600" lon="03.817510"><ele>8.4</ele><time>2022-11-15T12:46:08Z</time><name>PT5439</name></trkpt>
<trkpt lat="51.555609" lon="03.817509"><ele>8.4</ele><time>2022-11-15T12:46:08Z</time><name>PT5440</name></trkpt>
<trkpt lat="51.555619" lon="03.817511"><ele>8.4</ele><time>2022-11-15T12:46:10Z</time><name>PT5441</name></trkpt>
<trkpt lat="51.555629" lon="03.817516"><ele>8.1</ele><time>2022-11-15T12:46:10Z</time><name>PT5442</name></trkpt>
<trkpt lat="51.555639" lon="03.817518"><ele>8.1</ele><time>2022-11-15T12:46:12Z</time><name>PT5443</name></trkpt>
<trkpt lat="51.555648" lon="03.817518"><ele>8</ele><time>2022-11-15T12:46:12Z</time><name>PT5444</name></trkpt>
<trkpt lat="51.555656" lon="03.817517"><ele>8</ele><time>2022-11-15T12:46:14Z</time><name>PT5445</name></trkpt>
<trkpt lat="51.555665" lon="03.817517"><ele>8</ele><time>2022-11-15T12:46:14Z</time><name>PT5446</name></trkpt>
<trkpt lat="51.555674" lon="03.817515"><ele>8.1</ele><time>2022-11-15T12:46:16Z</time><name>PT5447</name></trkpt>
<trkpt lat="51.555683" lon="03.817514"><ele>8.2</ele><time>2022-11-15T12:46:16Z</time><name>PT5448</name></trkpt>
<trkpt lat="51.555692" lon="03.817512"><ele>8.3</ele><time>2022-11-15T12:46:18Z</time><name>PT5449</name></trkpt>
<trkpt lat="51.555698" lon="03.817513"><ele>8.4</ele><time>2022-11-15T12:46:19Z</time><name>PT5450</name></trkpt>
<trkpt lat="51.555706" lon="03.817519"><ele>8.3</ele><time>2022-11-15T12:46:20Z</time><name>PT5451</name></trkpt>
<trkpt lat="51.555715" lon="03.817526"><ele>8.2</ele><time>2022-11-15T12:46:20Z</time><name>PT5452</name></trkpt>
<trkpt lat="51.555722" lon="03.817531"><ele>8.1</ele><time>2022-11-15T12:46:22Z</time><name>PT5453</name></trkpt>
<trkpt lat="51.555730" lon="03.817534"><ele>8.1</ele><time>2022-11-15T12:46:22Z</time><name>PT5454</name></trkpt>
<trkpt lat="51.555737" lon="03.817537"><ele>8.1</ele><time>2022-11-15T12:46:24Z</time><name>PT5455</name></trkpt>
<trkpt lat="51.555745" lon="03.817541"><ele>8.3</ele><time>2022-11-15T12:46:25Z</time><name>PT5456</name></trkpt>
<trkpt lat="51.555752" lon="03.817542"><ele>8.4</ele><time>2022-11-15T12:46:26Z</time><name>PT5457</name></trkpt>
<trkpt lat="51.555759" lon="03.817542"><ele>8.5</ele><time>2022-11-15T12:46:26Z</time><name>PT5458</name></trkpt>
<trkpt lat="51.555765" lon="03.817541"><ele>8.6</ele><time>2022-11-15T12:46:28Z</time><name>PT5459</name></trkpt>
<trkpt lat="51.555770" lon="03.817541"><ele>8.9</ele><time>2022-11-15T12:46:28Z</time><name>PT5460</name></trkpt>
<trkpt lat="51.555775" lon="03.817541"><ele>9</ele><time>2022-11-15T12:46:30Z</time><name>PT5461</name></trkpt>
<trkpt lat="51.555776" lon="03.817543"><ele>8.8</ele><time>2022-11-15T12:46:30Z</time><name>PT5462</name></trkpt>
<trkpt lat="51.555777" lon="03.817544"><ele>8.8</ele><time>2022-11-15T12:46:32Z</time><name>PT5463</name></trkpt>
<trkpt lat="51.555778" lon="03.817544"><ele>8.7</ele><time>2022-11-15T12:46:32Z</time><name>PT5464</name></trkpt>
<trkpt lat="51.555782" lon="03.817541"><ele>8.8</ele><time>2022-11-15T12:46:40Z</time><name>PT5465</name></trkpt>
<trkpt lat="51.555789" lon="03.817536"><ele>8.8</ele><time>2022-11-15T12:46:42Z</time><name>PT5466</name></trkpt>
<trkpt lat="51.555796" lon="03.817528"><ele>8.9</ele><time>2022-11-15T12:46:42Z</time><name>PT5467</name></trkpt>
<trkpt lat="51.555804" lon="03.817521"><ele>8.9</ele><time>2022-11-15T12:46:44Z</time><name>PT5468</name></trkpt>
<trkpt lat="51.555811" lon="03.817514"><ele>8.8</ele><time>2022-11-15T12:46:44Z</time><name>PT5469</name></trkpt>
<trkpt lat="51.555819" lon="03.817506"><ele>8.6</ele><time>2022-11-15T12:46:46Z</time><name>PT5470</name></trkpt>
<trkpt lat="51.555827" lon="03.817500"><ele>8.6</ele><time>2022-11-15T12:46:46Z</time><name>PT5471</name></trkpt>
<trkpt lat="51.555836" lon="03.817494"><ele>8.7</ele><time>2022-11-15T12:46:48Z</time><name>PT5472</name></trkpt>
<trkpt lat="51.555845" lon="03.817491"><ele>8.6</ele><time>2022-11-15T12:46:48Z</time><name>PT5473</name></trkpt>
<trkpt lat="51.555856" lon="03.817489"><ele>8.7</ele><time>2022-11-15T12:46:50Z</time><name>PT5474</name></trkpt>
<trkpt lat="51.555865" lon="03.817486"><ele>8.8</ele><time>2022-11-15T12:46:50Z</time><name>PT5475</name></trkpt>
<trkpt lat="51.555875" lon="03.817484"><ele>8.7</ele><time>2022-11-15T12:46:52Z</time><name>PT5476</name></trkpt>
<trkpt lat="51.555884" lon="03.817481"><ele>8.7</ele><time>2022-11-15T12:46:52Z</time><name>PT5477</name></trkpt>
<trkpt lat="51.555894" lon="03.817476"><ele>8.8</ele><time>2022-11-15T12:46:54Z</time><name>PT5478</name></trkpt>
<trkpt lat="51.555903" lon="03.817472"><ele>8.9</ele><time>2022-11-15T12:46:54Z</time><name>PT5479</name></trkpt>
<trkpt lat="51.555912" lon="03.817470"><ele>8.6</ele><time>2022-11-15T12:46:56Z</time><name>PT5480</name></trkpt>
<trkpt lat="51.555922" lon="03.817469"><ele>8.6</ele><time>2022-11-15T12:46:57Z</time><name>PT5481</name></trkpt>
<trkpt lat="51.555932" lon="03.817469"><ele>8.4</ele><time>2022-11-15T12:46:58Z</time><name>PT5482</name></trkpt>
<trkpt lat="51.555941" lon="03.817466"><ele>8.2</ele><time>2022-11-15T12:46:58Z</time><name>PT5483</name></trkpt>
<trkpt lat="51.555951" lon="03.817463"><ele>8</ele><time>2022-11-15T12:47:00Z</time><name>PT5484</name></trkpt>
<trkpt lat="51.555960" lon="03.817458"><ele>8.2</ele><time>2022-11-15T12:47:00Z</time><name>PT5485</name></trkpt>
<trkpt lat="51.555970" lon="03.817455"><ele>8.2</ele><time>2022-11-15T12:47:02Z</time><name>PT5486</name></trkpt>
<trkpt lat="51.555979" lon="03.817452"><ele>8.3</ele><time>2022-11-15T12:47:02Z</time><name>PT5487</name></trkpt>
<trkpt lat="51.555989" lon="03.817451"><ele>8.3</ele><time>2022-11-15T12:47:04Z</time><name>PT5488</name></trkpt>
<trkpt lat="51.555998" lon="03.817450"><ele>8.4</ele><time>2022-11-15T12:47:04Z</time><name>PT5489</name></trkpt>
<trkpt lat="51.556008" lon="03.817452"><ele>8.3</ele><time>2022-11-15T12:47:06Z</time><name>PT5490</name></trkpt>
<trkpt lat="51.556018" lon="03.817451"><ele>8.5</ele><time>2022-11-15T12:47:07Z</time><name>PT5491</name></trkpt>
<trkpt lat="51.556027" lon="03.817448"><ele>8.5</ele><time>2022-11-15T12:47:08Z</time><name>PT5492</name></trkpt>
<trkpt lat="51.556037" lon="03.817447"><ele>8.6</ele><time>2022-11-15T12:47:09Z</time><name>PT5493</name></trkpt>
<trkpt lat="51.556048" lon="03.817445"><ele>8.8</ele><time>2022-11-15T12:47:10Z</time><name>PT5494</name></trkpt>
<trkpt lat="51.556058" lon="03.817443"><ele>9</ele><time>2022-11-15T12:47:11Z</time><name>PT5495</name></trkpt>
<trkpt lat="51.556069" lon="03.817441"><ele>8.8</ele><time>2022-11-15T12:47:12Z</time><name>PT5496</name></trkpt>
<trkpt lat="51.556078" lon="03.817437"><ele>8.8</ele><time>2022-11-15T12:47:13Z</time><name>PT5497</name></trkpt>
<trkpt lat="51.556087" lon="03.817430"><ele>8.5</ele><time>2022-11-15T12:47:14Z</time><name>PT5498</name></trkpt>
<trkpt lat="51.556098" lon="03.817426"><ele>8.5</ele><time>2022-11-15T12:47:14Z</time><name>PT5499</name></trkpt>
<trkpt lat="51.556108" lon="03.817426"><ele>8.2</ele><time>2022-11-15T12:47:16Z</time><name>PT5500</name></trkpt>
<trkpt lat="51.556118" lon="03.817427"><ele>8.2</ele><time>2022-11-15T12:47:16Z</time><name>PT5501</name></trkpt>
<trkpt lat="51.556130" lon="03.817431"><ele>8.2</ele><time>2022-11-15T12:47:18Z</time><name>PT5502</name></trkpt>
<trkpt lat="51.556141" lon="03.817437"><ele>8.2</ele><time>2022-11-15T12:47:18Z</time><name>PT5503</name></trkpt>
<trkpt lat="51.556150" lon="03.817440"><ele>8.3</ele><time>2022-11-15T12:47:20Z</time><name>PT5504</name></trkpt>
<trkpt lat="51.556160" lon="03.817442"><ele>8.5</ele><time>2022-11-15T12:47:20Z</time><name>PT5505</name></trkpt>
<trkpt lat="51.556170" lon="03.817446"><ele>8.5</ele><time>2022-11-15T12:47:22Z</time><name>PT5506</name></trkpt>
<trkpt lat="51.556178" lon="03.817452"><ele>8.6</ele><time>2022-11-15T12:47:22Z</time><name>PT5507</name></trkpt>
<trkpt lat="51.556183" lon="03.817462"><ele>8.6</ele><time>2022-11-15T12:47:24Z</time><name>PT5508</name></trkpt>
<trkpt lat="51.556188" lon="03.817470"><ele>8.5</ele><time>2022-11-15T12:47:24Z</time><name>PT5509</name></trkpt>
<trkpt lat="51.556193" lon="03.817473"><ele>8.5</ele><time>2022-11-15T12:47:26Z</time><name>PT5510</name></trkpt>
<trkpt lat="51.556199" lon="03.817472"><ele>8.4</ele><time>2022-11-15T12:47:26Z</time><name>PT5511</name></trkpt>
<trkpt lat="51.556208" lon="03.817471"><ele>8.4</ele><time>2022-11-15T12:47:28Z</time><name>PT5512</name></trkpt>
<trkpt lat="51.556218" lon="03.817468"><ele>8.4</ele><time>2022-11-15T12:47:28Z</time><name>PT5513</name></trkpt>
<trkpt lat="51.556224" lon="03.817468"><ele>8.3</ele><time>2022-11-15T12:47:30Z</time><name>PT5514</name></trkpt>
<trkpt lat="51.556231" lon="03.817469"><ele>8.2</ele><time>2022-11-15T12:47:30Z</time><name>PT5515</name></trkpt>
<trkpt lat="51.556238" lon="03.817470"><ele>8.2</ele><time>2022-11-15T12:47:32Z</time><name>PT5516</name></trkpt>
<trkpt lat="51.556246" lon="03.817467"><ele>8.1</ele><time>2022-11-15T12:47:32Z</time><name>PT5517</name></trkpt>
<trkpt lat="51.556253" lon="03.817468"><ele>8.1</ele><time>2022-11-15T12:47:34Z</time><name>PT5518</name></trkpt>
<trkpt lat="51.556262" lon="03.817468"><ele>8</ele><time>2022-11-15T12:47:34Z</time><name>PT5519</name></trkpt>
<trkpt lat="51.556271" lon="03.817467"><ele>8</ele><time>2022-11-15T12:47:36Z</time><name>PT5520</name></trkpt>
<trkpt lat="51.556278" lon="03.817464"><ele>8</ele><time>2022-11-15T12:47:36Z</time><name>PT5521</name></trkpt>
<trkpt lat="51.556287" lon="03.817461"><ele>8.1</ele><time>2022-11-15T12:47:38Z</time><name>PT5522</name></trkpt>
<trkpt lat="51.556296" lon="03.817453"><ele>8.3</ele><time>2022-11-15T12:47:38Z</time><name>PT5523</name></trkpt>
<trkpt lat="51.556304" lon="03.817448"><ele>8.6</ele><time>2022-11-15T12:47:40Z</time><name>PT5524</name></trkpt>
<trkpt lat="51.556313" lon="03.817444"><ele>8.7</ele><time>2022-11-15T12:47:40Z</time><name>PT5525</name></trkpt>
<trkpt lat="51.556323" lon="03.817443"><ele>8.7</ele><time>2022-11-15T12:47:42Z</time><name>PT5526</name></trkpt>
<trkpt lat="51.556333" lon="03.817441"><ele>8.6</ele><time>2022-11-15T12:47:42Z</time><name>PT5527</name></trkpt>
<trkpt lat="51.556342" lon="03.817439"><ele>8.6</ele><time>2022-11-15T12:47:44Z</time><name>PT5528</name></trkpt>
<trkpt lat="51.556352" lon="03.817436"><ele>8.4</ele><time>2022-11-15T12:47:44Z</time><name>PT5529</name></trkpt>
<trkpt lat="51.556361" lon="03.817434"><ele>8.5</ele><time>2022-11-15T12:47:46Z</time><name>PT5530</name></trkpt>
<trkpt lat="51.556370" lon="03.817434"><ele>8.5</ele><time>2022-11-15T12:47:46Z</time><name>PT5531</name></trkpt>
<trkpt lat="51.556379" lon="03.817428"><ele>8.5</ele><time>2022-11-15T12:47:48Z</time><name>PT5532</name></trkpt>
<trkpt lat="51.556386" lon="03.817422"><ele>8.3</ele><time>2022-11-15T12:47:48Z</time><name>PT5533</name></trkpt>
<trkpt lat="51.556395" lon="03.817418"><ele>8.5</ele><time>2022-11-15T12:47:50Z</time><name>PT5534</name></trkpt>
<trkpt lat="51.556402" lon="03.817424"><ele>8.3</ele><time>2022-11-15T12:47:50Z</time><name>PT5535</name></trkpt>
<trkpt lat="51.556412" lon="03.817428"><ele>8.4</ele><time>2022-11-15T12:47:52Z</time><name>PT5536</name></trkpt>
<trkpt lat="51.556422" lon="03.817428"><ele>8.4</ele><time>2022-11-15T12:47:52Z</time><name>PT5537</name></trkpt>
<trkpt lat="51.556429" lon="03.817428"><ele>8.5</ele><time>2022-11-15T12:47:54Z</time><name>PT5538</name></trkpt>
<trkpt lat="51.556438" lon="03.817428"><ele>8.5</ele><time>2022-11-15T12:47:54Z</time><name>PT5539</name></trkpt>
<trkpt lat="51.556447" lon="03.817426"><ele>8.7</ele><time>2022-11-15T12:47:56Z</time><name>PT5540</name></trkpt>
<trkpt lat="51.556456" lon="03.817424"><ele>8.6</ele><time>2022-11-15T12:47:56Z</time><name>PT5541</name></trkpt>
<trkpt lat="51.556464" lon="03.817419"><ele>8.5</ele><time>2022-11-15T12:47:58Z</time><name>PT5542</name></trkpt>
<trkpt lat="51.556474" lon="03.817412"><ele>8.6</ele><time>2022-11-15T12:47:58Z</time><name>PT5543</name></trkpt>
<trkpt lat="51.556483" lon="03.817410"><ele>8.5</ele><time>2022-11-15T12:48:00Z</time><name>PT5544</name></trkpt>
<trkpt lat="51.556491" lon="03.817409"><ele>8.5</ele><time>2022-11-15T12:48:00Z</time><name>PT5545</name></trkpt>
<trkpt lat="51.556501" lon="03.817408"><ele>8.5</ele><time>2022-11-15T12:48:02Z</time><name>PT5546</name></trkpt>
<trkpt lat="51.556511" lon="03.817408"><ele>8.5</ele><time>2022-11-15T12:48:02Z</time><name>PT5547</name></trkpt>
<trkpt lat="51.556518" lon="03.817404"><ele>8.4</ele><time>2022-11-15T12:48:04Z</time><name>PT5548</name></trkpt>
<trkpt lat="51.556528" lon="03.817403"><ele>8.2</ele><time>2022-11-15T12:48:04Z</time><name>PT5549</name></trkpt>
<trkpt lat="51.556537" lon="03.817399"><ele>8.1</ele><time>2022-11-15T12:48:06Z</time><name>PT5550</name></trkpt>
<trkpt lat="51.556545" lon="03.817395"><ele>8</ele><time>2022-11-15T12:48:06Z</time><name>PT5551</name></trkpt>
<trkpt lat="51.556552" lon="03.817391"><ele>8.1</ele><time>2022-11-15T12:48:08Z</time><name>PT5552</name></trkpt>
<trkpt lat="51.556559" lon="03.817392"><ele>8.2</ele><time>2022-11-15T12:48:08Z</time><name>PT5553</name></trkpt>
<trkpt lat="51.556569" lon="03.817392"><ele>8.5</ele><time>2022-11-15T12:48:10Z</time><name>PT5554</name></trkpt>
<trkpt lat="51.556580" lon="03.817391"><ele>8.3</ele><time>2022-11-15T12:48:10Z</time><name>PT5555</name></trkpt>
<trkpt lat="51.556590" lon="03.817388"><ele>8.2</ele><time>2022-11-15T12:48:12Z</time><name>PT5556</name></trkpt>
<trkpt lat="51.556598" lon="03.817386"><ele>8.1</ele><time>2022-11-15T12:48:12Z</time><name>PT5557</name></trkpt>
<trkpt lat="51.556604" lon="03.817381"><ele>8.1</ele><time>2022-11-15T12:48:14Z</time><name>PT5558</name></trkpt>
<trkpt lat="51.556610" lon="03.817377"><ele>8.2</ele><time>2022-11-15T12:48:14Z</time><name>PT5559</name></trkpt>
<trkpt lat="51.556618" lon="03.817370"><ele>8.4</ele><time>2022-11-15T12:48:16Z</time><name>PT5560</name></trkpt>
<trkpt lat="51.556626" lon="03.817362"><ele>8.4</ele><time>2022-11-15T12:48:16Z</time><name>PT5561</name></trkpt>
<trkpt lat="51.556634" lon="03.817351"><ele>8.4</ele><time>2022-11-15T12:48:18Z</time><name>PT5562</name></trkpt>
<trkpt lat="51.556641" lon="03.817340"><ele>8.2</ele><time>2022-11-15T12:48:18Z</time><name>PT5563</name></trkpt>
<trkpt lat="51.556647" lon="03.817331"><ele>8</ele><time>2022-11-15T12:48:20Z</time><name>PT5564</name></trkpt>
<trkpt lat="51.556652" lon="03.817323"><ele>7.9</ele><time>2022-11-15T12:48:20Z</time><name>PT5565</name></trkpt>
<trkpt lat="51.556657" lon="03.817315"><ele>7.8</ele><time>2022-11-15T12:48:22Z</time><name>PT5566</name></trkpt>
<trkpt lat="51.556664" lon="03.817311"><ele>7.8</ele><time>2022-11-15T12:48:22Z</time><name>PT5567</name></trkpt>
<trkpt lat="51.556670" lon="03.817308"><ele>7.8</ele><time>2022-11-15T12:48:24Z</time><name>PT5568</name></trkpt>
<trkpt lat="51.556676" lon="03.817304"><ele>8</ele><time>2022-11-15T12:48:24Z</time><name>PT5569</name></trkpt>
<trkpt lat="51.556682" lon="03.817297"><ele>8</ele><time>2022-11-15T12:48:26Z</time><name>PT5570</name></trkpt>
<trkpt lat="51.556688" lon="03.817293"><ele>8.1</ele><time>2022-11-15T12:48:26Z</time><name>PT5571</name></trkpt>
<trkpt lat="51.556701" lon="03.817290"><ele>8.2</ele><time>2022-11-15T12:48:28Z</time><name>PT5572</name></trkpt>
<trkpt lat="51.556709" lon="03.817287"><ele>8.4</ele><time>2022-11-15T12:48:28Z</time><name>PT5573</name></trkpt>
<trkpt lat="51.556715" lon="03.817285"><ele>8.5</ele><time>2022-11-15T12:48:30Z</time><name>PT5574</name></trkpt>
<trkpt lat="51.556724" lon="03.817281"><ele>8.5</ele><time>2022-11-15T12:48:30Z</time><name>PT5575</name></trkpt>
<trkpt lat="51.556731" lon="03.817277"><ele>8.6</ele><time>2022-11-15T12:48:32Z</time><name>PT5576</name></trkpt>
<trkpt lat="51.556741" lon="03.817271"><ele>8.8</ele><time>2022-11-15T12:48:32Z</time><name>PT5577</name></trkpt>
<trkpt lat="51.556749" lon="03.817267"><ele>8.7</ele><time>2022-11-15T12:48:34Z</time><name>PT5578</name></trkpt>
<trkpt lat="51.556758" lon="03.817265"><ele>8.6</ele><time>2022-11-15T12:48:34Z</time><name>PT5579</name></trkpt>
<trkpt lat="51.556767" lon="03.817261"><ele>8.8</ele><time>2022-11-15T12:48:36Z</time><name>PT5580</name></trkpt>
<trkpt lat="51.556776" lon="03.817256"><ele>8.8</ele><time>2022-11-15T12:48:36Z</time><name>PT5581</name></trkpt>
<trkpt lat="51.556785" lon="03.817253"><ele>8.6</ele><time>2022-11-15T12:48:38Z</time><name>PT5582</name></trkpt>
<trkpt lat="51.556794" lon="03.817252"><ele>8.5</ele><time>2022-11-15T12:48:38Z</time><name>PT5583</name></trkpt>
<trkpt lat="51.556803" lon="03.817249"><ele>8.5</ele><time>2022-11-15T12:48:40Z</time><name>PT5584</name></trkpt>
<trkpt lat="51.556812" lon="03.817246"><ele>8.4</ele><time>2022-11-15T12:48:40Z</time><name>PT5585</name></trkpt>
<trkpt lat="51.556819" lon="03.817244"><ele>8.2</ele><time>2022-11-15T12:48:42Z</time><name>PT5586</name></trkpt>
<trkpt lat="51.556825" lon="03.817240"><ele>8.2</ele><time>2022-11-15T12:48:43Z</time><name>PT5587</name></trkpt>
<trkpt lat="51.556832" lon="03.817236"><ele>8.2</ele><time>2022-11-15T12:48:44Z</time><name>PT5588</name></trkpt>
<trkpt lat="51.556839" lon="03.817232"><ele>8.2</ele><time>2022-11-15T12:48:45Z</time><name>PT5589</name></trkpt>
<trkpt lat="51.556846" lon="03.817231"><ele>8.2</ele><time>2022-11-15T12:48:46Z</time><name>PT5590</name></trkpt>
<trkpt lat="51.556851" lon="03.817232"><ele>8.2</ele><time>2022-11-15T12:48:47Z</time><name>PT5591</name></trkpt>
<trkpt lat="51.556856" lon="03.817233"><ele>8.1</ele><time>2022-11-15T12:48:48Z</time><name>PT5592</name></trkpt>
<trkpt lat="51.556860" lon="03.817228"><ele>8</ele><time>2022-11-15T12:48:49Z</time><name>PT5593</name></trkpt>
<trkpt lat="51.556863" lon="03.817220"><ele>8</ele><time>2022-11-15T12:48:50Z</time><name>PT5594</name></trkpt>
<trkpt lat="51.556867" lon="03.817221"><ele>8</ele><time>2022-11-15T12:48:51Z</time><name>PT5595</name></trkpt>
<trkpt lat="51.556872" lon="03.817221"><ele>8.2</ele><time>2022-11-15T12:48:52Z</time><name>PT5596</name></trkpt>
<trkpt lat="51.556877" lon="03.817221"><ele>8.2</ele><time>2022-11-15T12:48:53Z</time><name>PT5597</name></trkpt>
<trkpt lat="51.556880" lon="03.817219"><ele>8.5</ele><time>2022-11-15T12:48:54Z</time><name>PT5598</name></trkpt>
<trkpt lat="51.556887" lon="03.817216"><ele>8.7</ele><time>2022-11-15T12:48:55Z</time><name>PT5599</name></trkpt>
<trkpt lat="51.556890" lon="03.817216"><ele>8.6</ele><time>2022-11-15T12:48:56Z</time><name>PT5600</name></trkpt>
<trkpt lat="51.556895" lon="03.817215"><ele>8.5</ele><time>2022-11-15T12:48:57Z</time><name>PT5601</name></trkpt>
<trkpt lat="51.556901" lon="03.817213"><ele>8.6</ele><time>2022-11-15T12:48:58Z</time><name>PT5602</name></trkpt>
<trkpt lat="51.556911" lon="03.817212"><ele>8.5</ele><time>2022-11-15T12:48:59Z</time><name>PT5603</name></trkpt>
<trkpt lat="51.556920" lon="03.817211"><ele>8.5</ele><time>2022-11-15T12:49:00Z</time><name>PT5604</name></trkpt>
<trkpt lat="51.556929" lon="03.817210"><ele>8.6</ele><time>2022-11-15T12:49:01Z</time><name>PT5605</name></trkpt>
<trkpt lat="51.556935" lon="03.817206"><ele>8.7</ele><time>2022-11-15T12:49:02Z</time><name>PT5606</name></trkpt>
<trkpt lat="51.556946" lon="03.817203"><ele>8.5</ele><time>2022-11-15T12:49:03Z</time><name>PT5607</name></trkpt>
<trkpt lat="51.556955" lon="03.817200"><ele>8.5</ele><time>2022-11-15T12:49:04Z</time><name>PT5608</name></trkpt>
<trkpt lat="51.556970" lon="03.817199"><ele>8.5</ele><time>2022-11-15T12:49:04Z</time><name>PT5609</name></trkpt>
<trkpt lat="51.556985" lon="03.817196"><ele>8.5</ele><time>2022-11-15T12:49:06Z</time><name>PT5610</name></trkpt>
<trkpt lat="51.557000" lon="03.817190"><ele>8.6</ele><time>2022-11-15T12:49:06Z</time><name>PT5611</name></trkpt>
<trkpt lat="51.557008" lon="03.817186"><ele>8.5</ele><time>2022-11-15T12:49:08Z</time><name>PT5612</name></trkpt>
<trkpt lat="51.557020" lon="03.817183"><ele>8.5</ele><time>2022-11-15T12:49:08Z</time><name>PT5613</name></trkpt>
<trkpt lat="51.557029" lon="03.817181"><ele>8.7</ele><time>2022-11-15T12:49:10Z</time><name>PT5614</name></trkpt>
<trkpt lat="51.557039" lon="03.817176"><ele>8.6</ele><time>2022-11-15T12:49:10Z</time><name>PT5615</name></trkpt>
<trkpt lat="51.557045" lon="03.817172"><ele>8.6</ele><time>2022-11-15T12:49:12Z</time><name>PT5616</name></trkpt>
<trkpt lat="51.557053" lon="03.817166"><ele>8.7</ele><time>2022-11-15T12:49:12Z</time><name>PT5617</name></trkpt>
<trkpt lat="51.557060" lon="03.817159"><ele>8.7</ele><time>2022-11-15T12:49:14Z</time><name>PT5618</name></trkpt>
<trkpt lat="51.557066" lon="03.817154"><ele>8.7</ele><time>2022-11-15T12:49:14Z</time><name>PT5619</name></trkpt>
<trkpt lat="51.557076" lon="03.817149"><ele>8.8</ele><time>2022-11-15T12:49:16Z</time><name>PT5620</name></trkpt>
<trkpt lat="51.557087" lon="03.817146"><ele>8.9</ele><time>2022-11-15T12:49:16Z</time><name>PT5621</name></trkpt>
<trkpt lat="51.557100" lon="03.817145"><ele>8.8</ele><time>2022-11-15T12:49:18Z</time><name>PT5622</name></trkpt>
<trkpt lat="51.557113" lon="03.817145"><ele>8.9</ele><time>2022-11-15T12:49:18Z</time><name>PT5623</name></trkpt>
<trkpt lat="51.557123" lon="03.817144"><ele>8.9</ele><time>2022-11-15T12:49:20Z</time><name>PT5624</name></trkpt>
<trkpt lat="51.557134" lon="03.817143"><ele>8.7</ele><time>2022-11-15T12:49:20Z</time><name>PT5625</name></trkpt>
<trkpt lat="51.557144" lon="03.817139"><ele>8.6</ele><time>2022-11-15T12:49:22Z</time><name>PT5626</name></trkpt>
<trkpt lat="51.557155" lon="03.817138"><ele>8.5</ele><time>2022-11-15T12:49:22Z</time><name>PT5627</name></trkpt>
<trkpt lat="51.557165" lon="03.817137"><ele>8.6</ele><time>2022-11-15T12:49:24Z</time><name>PT5628</name></trkpt>
<trkpt lat="51.557175" lon="03.817134"><ele>8.5</ele><time>2022-11-15T12:49:24Z</time><name>PT5629</name></trkpt>
<trkpt lat="51.557186" lon="03.817133"><ele>8.8</ele><time>2022-11-15T12:49:26Z</time><name>PT5630</name></trkpt>
<trkpt lat="51.557198" lon="03.817132"><ele>8.8</ele><time>2022-11-15T12:49:26Z</time><name>PT5631</name></trkpt>
<trkpt lat="51.557208" lon="03.817131"><ele>9</ele><time>2022-11-15T12:49:28Z</time><name>PT5632</name></trkpt>
<trkpt lat="51.557219" lon="03.817128"><ele>8.9</ele><time>2022-11-15T12:49:28Z</time><name>PT5633</name></trkpt>
<trkpt lat="51.557232" lon="03.817126"><ele>9</ele><time>2022-11-15T12:49:30Z</time><name>PT5634</name></trkpt>
<trkpt lat="51.557247" lon="03.817122"><ele>9</ele><time>2022-11-15T12:49:30Z</time><name>PT5635</name></trkpt>
<trkpt lat="51.557258" lon="03.817116"><ele>8.9</ele><time>2022-11-15T12:49:32Z</time><name>PT5636</name></trkpt>
<trkpt lat="51.557266" lon="03.817112"><ele>9</ele><time>2022-11-15T12:49:32Z</time><name>PT5637</name></trkpt>
<trkpt lat="51.557277" lon="03.817111"><ele>9</ele><time>2022-11-15T12:49:34Z</time><name>PT5638</name></trkpt>
<trkpt lat="51.557289" lon="03.817109"><ele>8.9</ele><time>2022-11-15T12:49:34Z</time><name>PT5639</name></trkpt>
<trkpt lat="51.557301" lon="03.817107"><ele>9</ele><time>2022-11-15T12:49:36Z</time><name>PT5640</name></trkpt>
<trkpt lat="51.557312" lon="03.817104"><ele>8.9</ele><time>2022-11-15T12:49:36Z</time><name>PT5641</name></trkpt>
<trkpt lat="51.557323" lon="03.817103"><ele>8.8</ele><time>2022-11-15T12:49:38Z</time><name>PT5642</name></trkpt>
<trkpt lat="51.557335" lon="03.817101"><ele>8.7</ele><time>2022-11-15T12:49:38Z</time><name>PT5643</name></trkpt>
<trkpt lat="51.557346" lon="03.817097"><ele>9</ele><time>2022-11-15T12:49:40Z</time><name>PT5644</name></trkpt>
<trkpt lat="51.557359" lon="03.817092"><ele>9</ele><time>2022-11-15T12:49:40Z</time><name>PT5645</name></trkpt>
<trkpt lat="51.557371" lon="03.817089"><ele>9.1</ele><time>2022-11-15T12:49:42Z</time><name>PT5646</name></trkpt>
<trkpt lat="51.557381" lon="03.817087"><ele>9.1</ele><time>2022-11-15T12:49:42Z</time><name>PT5647</name></trkpt>
<trkpt lat="51.557389" lon="03.817083"><ele>9</ele><time>2022-11-15T12:49:44Z</time><name>PT5648</name></trkpt>
<trkpt lat="51.557398" lon="03.817079"><ele>8.9</ele><time>2022-11-15T12:49:44Z</time><name>PT5649</name></trkpt>
<trkpt lat="51.557407" lon="03.817071"><ele>8.8</ele><time>2022-11-15T12:49:46Z</time><name>PT5650</name></trkpt>
<trkpt lat="51.557416" lon="03.817063"><ele>8.8</ele><time>2022-11-15T12:49:46Z</time><name>PT5651</name></trkpt>
<trkpt lat="51.557427" lon="03.817058"><ele>8.9</ele><time>2022-11-15T12:49:48Z</time><name>PT5652</name></trkpt>
<trkpt lat="51.557438" lon="03.817056"><ele>8.9</ele><time>2022-11-15T12:49:48Z</time><name>PT5653</name></trkpt>
<trkpt lat="51.557449" lon="03.817057"><ele>9</ele><time>2022-11-15T12:49:50Z</time><name>PT5654</name></trkpt>
<trkpt lat="51.557460" lon="03.817058"><ele>9</ele><time>2022-11-15T12:49:50Z</time><name>PT5655</name></trkpt>
<trkpt lat="51.557471" lon="03.817056"><ele>9</ele><time>2022-11-15T12:49:52Z</time><name>PT5656</name></trkpt>
<trkpt lat="51.557481" lon="03.817052"><ele>9</ele><time>2022-11-15T12:49:52Z</time><name>PT5657</name></trkpt>
<trkpt lat="51.557491" lon="03.817047"><ele>9.1</ele><time>2022-11-15T12:49:54Z</time><name>PT5658</name></trkpt>
<trkpt lat="51.557502" lon="03.817044"><ele>9.1</ele><time>2022-11-15T12:49:54Z</time><name>PT5659</name></trkpt>
<trkpt lat="51.557512" lon="03.817043"><ele>9.1</ele><time>2022-11-15T12:49:56Z</time><name>PT5660</name></trkpt>
<trkpt lat="51.557523" lon="03.817044"><ele>9.2</ele><time>2022-11-15T12:49:56Z</time><name>PT5661</name></trkpt>
<trkpt lat="51.557531" lon="03.817041"><ele>9.1</ele><time>2022-11-15T12:49:58Z</time><name>PT5662</name></trkpt>
<trkpt lat="51.557541" lon="03.817039"><ele>9</ele><time>2022-11-15T12:49:58Z</time><name>PT5663</name></trkpt>
<trkpt lat="51.557550" lon="03.817037"><ele>9</ele><time>2022-11-15T12:50:00Z</time><name>PT5664</name></trkpt>
<trkpt lat="51.557558" lon="03.817033"><ele>9</ele><time>2022-11-15T12:50:00Z</time><name>PT5665</name></trkpt>
<trkpt lat="51.557560" lon="03.817030"><ele>8.8</ele><time>2022-11-15T12:50:02Z</time><name>PT5666</name></trkpt>
<trkpt lat="51.557564" lon="03.817025"><ele>8.9</ele><time>2022-11-15T12:50:02Z</time><name>PT5667</name></trkpt>
<trkpt lat="51.557572" lon="03.817022"><ele>8.8</ele><time>2022-11-15T12:50:04Z</time><name>PT5668</name></trkpt>
<trkpt lat="51.557583" lon="03.817019"><ele>8.8</ele><time>2022-11-15T12:50:04Z</time><name>PT5669</name></trkpt>
<trkpt lat="51.557593" lon="03.817016"><ele>8.7</ele><time>2022-11-15T12:50:06Z</time><name>PT5670</name></trkpt>
<trkpt lat="51.557602" lon="03.817014"><ele>8.6</ele><time>2022-11-15T12:50:06Z</time><name>PT5671</name></trkpt>
<trkpt lat="51.557611" lon="03.817011"><ele>8.5</ele><time>2022-11-15T12:50:08Z</time><name>PT5672</name></trkpt>
<trkpt lat="51.557620" lon="03.817008"><ele>8.5</ele><time>2022-11-15T12:50:08Z</time><name>PT5673</name></trkpt>
<trkpt lat="51.557629" lon="03.817003"><ele>8.6</ele><time>2022-11-15T12:50:10Z</time><name>PT5674</name></trkpt>
<trkpt lat="51.557637" lon="03.816998"><ele>8.8</ele><time>2022-11-15T12:50:10Z</time><name>PT5675</name></trkpt>
<trkpt lat="51.557645" lon="03.816997"><ele>8.9</ele><time>2022-11-15T12:50:12Z</time><name>PT5676</name></trkpt>
<trkpt lat="51.557654" lon="03.816996"><ele>9</ele><time>2022-11-15T12:50:12Z</time><name>PT5677</name></trkpt>
<trkpt lat="51.557662" lon="03.816996"><ele>9</ele><time>2022-11-15T12:50:14Z</time><name>PT5678</name></trkpt>
<trkpt lat="51.557669" lon="03.816995"><ele>8.9</ele><time>2022-11-15T12:50:14Z</time><name>PT5679</name></trkpt>
<trkpt lat="51.557677" lon="03.816992"><ele>8.9</ele><time>2022-11-15T12:50:16Z</time><name>PT5680</name></trkpt>
<trkpt lat="51.557686" lon="03.816990"><ele>8.8</ele><time>2022-11-15T12:50:16Z</time><name>PT5681</name></trkpt>
<trkpt lat="51.557696" lon="03.816987"><ele>8.9</ele><time>2022-11-15T12:50:18Z</time><name>PT5682</name></trkpt>
<trkpt lat="51.557708" lon="03.816983"><ele>8.8</ele><time>2022-11-15T12:50:19Z</time><name>PT5683</name></trkpt>
<trkpt lat="51.557718" lon="03.816979"><ele>8.9</ele><time>2022-11-15T12:50:20Z</time><name>PT5684</name></trkpt>
<trkpt lat="51.557728" lon="03.816975"><ele>9</ele><time>2022-11-15T12:50:20Z</time><name>PT5685</name></trkpt>
<trkpt lat="51.557740" lon="03.816972"><ele>8.8</ele><time>2022-11-15T12:50:22Z</time><name>PT5686</name></trkpt>
<trkpt lat="51.557751" lon="03.816970"><ele>8.8</ele><time>2022-11-15T12:50:23Z</time><name>PT5687</name></trkpt>
<trkpt lat="51.557763" lon="03.816969"><ele>8.9</ele><time>2022-11-15T12:50:24Z</time><name>PT5688</name></trkpt>
<trkpt lat="51.557772" lon="03.816966"><ele>8.8</ele><time>2022-11-15T12:50:25Z</time><name>PT5689</name></trkpt>
<trkpt lat="51.557782" lon="03.816961"><ele>8.7</ele><time>2022-11-15T12:50:26Z</time><name>PT5690</name></trkpt>
<trkpt lat="51.557792" lon="03.816958"><ele>8.8</ele><time>2022-11-15T12:50:26Z</time><name>PT5691</name></trkpt>
<trkpt lat="51.557801" lon="03.816954"><ele>8.8</ele><time>2022-11-15T12:50:28Z</time><name>PT5692</name></trkpt>
<trkpt lat="51.557813" lon="03.816954"><ele>8.7</ele><time>2022-11-15T12:50:29Z</time><name>PT5693</name></trkpt>
<trkpt lat="51.557822" lon="03.816952"><ele>8.8</ele><time>2022-11-15T12:50:30Z</time><name>PT5694</name></trkpt>
<trkpt lat="51.557831" lon="03.816950"><ele>8.8</ele><time>2022-11-15T12:50:31Z</time><name>PT5695</name></trkpt>
<trkpt lat="51.557841" lon="03.816947"><ele>8.9</ele><time>2022-11-15T12:50:32Z</time><name>PT5696</name></trkpt>
<trkpt lat="51.557850" lon="03.816941"><ele>8.9</ele><time>2022-11-15T12:50:33Z</time><name>PT5697</name></trkpt>
<trkpt lat="51.557861" lon="03.816939"><ele>8.8</ele><time>2022-11-15T12:50:34Z</time><name>PT5698</name></trkpt>
<trkpt lat="51.557869" lon="03.816933"><ele>8.8</ele><time>2022-11-15T12:50:34Z</time><name>PT5699</name></trkpt>
<trkpt lat="51.557875" lon="03.816928"><ele>8.9</ele><time>2022-11-15T12:50:36Z</time><name>PT5700</name></trkpt>
<trkpt lat="51.557883" lon="03.816927"><ele>8.8</ele><time>2022-11-15T12:50:36Z</time><name>PT5701</name></trkpt>
<trkpt lat="51.557890" lon="03.816929"><ele>9</ele><time>2022-11-15T12:50:38Z</time><name>PT5702</name></trkpt>
<trkpt lat="51.557898" lon="03.816929"><ele>9.1</ele><time>2022-11-15T12:50:38Z</time><name>PT5703</name></trkpt>
<trkpt lat="51.557907" lon="03.816930"><ele>9</ele><time>2022-11-15T12:50:40Z</time><name>PT5704</name></trkpt>
<trkpt lat="51.557915" lon="03.816931"><ele>9</ele><time>2022-11-15T12:50:40Z</time><name>PT5705</name></trkpt>
<trkpt lat="51.557924" lon="03.816932"><ele>8.8</ele><time>2022-11-15T12:50:42Z</time><name>PT5706</name></trkpt>
<trkpt lat="51.557932" lon="03.816928"><ele>8.8</ele><time>2022-11-15T12:50:42Z</time><name>PT5707</name></trkpt>
<trkpt lat="51.557941" lon="03.816926"><ele>8.7</ele><time>2022-11-15T12:50:44Z</time><name>PT5708</name></trkpt>
<trkpt lat="51.557950" lon="03.816922"><ele>9</ele><time>2022-11-15T12:50:44Z</time><name>PT5709</name></trkpt>
<trkpt lat="51.557959" lon="03.816913"><ele>9.1</ele><time>2022-11-15T12:50:46Z</time><name>PT5710</name></trkpt>
<trkpt lat="51.557972" lon="03.816910"><ele>9.1</ele><time>2022-11-15T12:50:46Z</time><name>PT5711</name></trkpt>
<trkpt lat="51.557982" lon="03.816910"><ele>9.1</ele><time>2022-11-15T12:50:48Z</time><name>PT5712</name></trkpt>
<trkpt lat="51.557992" lon="03.816911"><ele>9.1</ele><time>2022-11-15T12:50:48Z</time><name>PT5713</name></trkpt>
<trkpt lat="51.558001" lon="03.816910"><ele>9.1</ele><time>2022-11-15T12:50:50Z</time><name>PT5714</name></trkpt>
<trkpt lat="51.558010" lon="03.816908"><ele>9</ele><time>2022-11-15T12:50:50Z</time><name>PT5715</name></trkpt>
<trkpt lat="51.558019" lon="03.816906"><ele>9</ele><time>2022-11-15T12:50:52Z</time><name>PT5716</name></trkpt>
<trkpt lat="51.558028" lon="03.816903"><ele>9.1</ele><time>2022-11-15T12:50:52Z</time><name>PT5717</name></trkpt>
<trkpt lat="51.558035" lon="03.816901"><ele>9.1</ele><time>2022-11-15T12:50:54Z</time><name>PT5718</name></trkpt>
<trkpt lat="51.558043" lon="03.816899"><ele>9</ele><time>2022-11-15T12:50:54Z</time><name>PT5719</name></trkpt>
<trkpt lat="51.558051" lon="03.816899"><ele>9.2</ele><time>2022-11-15T12:50:56Z</time><name>PT5720</name></trkpt>
<trkpt lat="51.558062" lon="03.816899"><ele>9.2</ele><time>2022-11-15T12:50:56Z</time><name>PT5721</name></trkpt>
<trkpt lat="51.558070" lon="03.816898"><ele>9.2</ele><time>2022-11-15T12:50:58Z</time><name>PT5722</name></trkpt>
<trkpt lat="51.558076" lon="03.816896"><ele>9.1</ele><time>2022-11-15T12:50:58Z</time><name>PT5723</name></trkpt>
<trkpt lat="51.558084" lon="03.816894"><ele>9.2</ele><time>2022-11-15T12:51:00Z</time><name>PT5724</name></trkpt>
<trkpt lat="51.558094" lon="03.816892"><ele>9.3</ele><time>2022-11-15T12:51:00Z</time><name>PT5725</name></trkpt>
<trkpt lat="51.558103" lon="03.816890"><ele>9.3</ele><time>2022-11-15T12:51:02Z</time><name>PT5726</name></trkpt>
<trkpt lat="51.558112" lon="03.816889"><ele>9.5</ele><time>2022-11-15T12:51:02Z</time><name>PT5727</name></trkpt>
<trkpt lat="51.558122" lon="03.816887"><ele>9.5</ele><time>2022-11-15T12:51:04Z</time><name>PT5728</name></trkpt>
<trkpt lat="51.558130" lon="03.816885"><ele>9.5</ele><time>2022-11-15T12:51:04Z</time><name>PT5729</name></trkpt>
<trkpt lat="51.558142" lon="03.816882"><ele>9.5</ele><time>2022-11-15T12:51:06Z</time><name>PT5730</name></trkpt>
<trkpt lat="51.558152" lon="03.816881"><ele>9.6</ele><time>2022-11-15T12:51:06Z</time><name>PT5731</name></trkpt>
<trkpt lat="51.558162" lon="03.816875"><ele>9.5</ele><time>2022-11-15T12:51:08Z</time><name>PT5732</name></trkpt>
<trkpt lat="51.558172" lon="03.816869"><ele>9.5</ele><time>2022-11-15T12:51:08Z</time><name>PT5733</name></trkpt>
<trkpt lat="51.558182" lon="03.816869"><ele>9.5</ele><time>2022-11-15T12:51:10Z</time><name>PT5734</name></trkpt>
<trkpt lat="51.558190" lon="03.816871"><ele>9.3</ele><time>2022-11-15T12:51:10Z</time><name>PT5735</name></trkpt>
<trkpt lat="51.558200" lon="03.816869"><ele>9.2</ele><time>2022-11-15T12:51:12Z</time><name>PT5736</name></trkpt>
<trkpt lat="51.558208" lon="03.816870"><ele>9.2</ele><time>2022-11-15T12:51:12Z</time><name>PT5737</name></trkpt>
<trkpt lat="51.558215" lon="03.816878"><ele>9.2</ele><time>2022-11-15T12:51:14Z</time><name>PT5738</name></trkpt>
<trkpt lat="51.558219" lon="03.816886"><ele>9.3</ele><time>2022-11-15T12:51:14Z</time><name>PT5739</name></trkpt>
<trkpt lat="51.558226" lon="03.816897"><ele>9.4</ele><time>2022-11-15T12:51:16Z</time><name>PT5740</name></trkpt>
<trkpt lat="51.558231" lon="03.816909"><ele>9.5</ele><time>2022-11-15T12:51:16Z</time><name>PT5741</name></trkpt>
<trkpt lat="51.558237" lon="03.816922"><ele>9.4</ele><time>2022-11-15T12:51:18Z</time><name>PT5742</name></trkpt>
<trkpt lat="51.558243" lon="03.816936"><ele>9.5</ele><time>2022-11-15T12:51:18Z</time><name>PT5743</name></trkpt>
<trkpt lat="51.558247" lon="03.816951"><ele>9.2</ele><time>2022-11-15T12:51:20Z</time><name>PT5744</name></trkpt>
<trkpt lat="51.558251" lon="03.816961"><ele>9.5</ele><time>2022-11-15T12:51:20Z</time><name>PT5745</name></trkpt>
<trkpt lat="51.558255" lon="03.816975"><ele>9.5</ele><time>2022-11-15T12:51:22Z</time><name>PT5746</name></trkpt>
<trkpt lat="51.558258" lon="03.816991"><ele>9.8</ele><time>2022-11-15T12:51:22Z</time><name>PT5747</name></trkpt>
<trkpt lat="51.558260" lon="03.817008"><ele>10</ele><time>2022-11-15T12:51:24Z</time><name>PT5748</name></trkpt>
<trkpt lat="51.558264" lon="03.817023"><ele>10</ele><time>2022-11-15T12:51:24Z</time><name>PT5749</name></trkpt>
<trkpt lat="51.558266" lon="03.817037"><ele>10</ele><time>2022-11-15T12:51:26Z</time><name>PT5750</name></trkpt>
<trkpt lat="51.558269" lon="03.817052"><ele>10</ele><time>2022-11-15T12:51:26Z</time><name>PT5751</name></trkpt>
<trkpt lat="51.558272" lon="03.817068"><ele>9.7</ele><time>2022-11-15T12:51:28Z</time><name>PT5752</name></trkpt>
<trkpt lat="51.558275" lon="03.817084"><ele>9.8</ele><time>2022-11-15T12:51:28Z</time><name>PT5753</name></trkpt>
<trkpt lat="51.558277" lon="03.817101"><ele>9.7</ele><time>2022-11-15T12:51:30Z</time><name>PT5754</name></trkpt>
<trkpt lat="51.558279" lon="03.817120"><ele>9.9</ele><time>2022-11-15T12:51:30Z</time><name>PT5755</name></trkpt>
<trkpt lat="51.558280" lon="03.817138"><ele>10</ele><time>2022-11-15T12:51:32Z</time><name>PT5756</name></trkpt>
<trkpt lat="51.558283" lon="03.817154"><ele>10</ele><time>2022-11-15T12:51:32Z</time><name>PT5757</name></trkpt>
<trkpt lat="51.558285" lon="03.817170"><ele>10</ele><time>2022-11-15T12:51:34Z</time><name>PT5758</name></trkpt>
<trkpt lat="51.558286" lon="03.817185"><ele>10</ele><time>2022-11-15T12:51:34Z</time><name>PT5759</name></trkpt>
<trkpt lat="51.558285" lon="03.817201"><ele>10</ele><time>2022-11-15T12:51:36Z</time><name>PT5760</name></trkpt>
<trkpt lat="51.558285" lon="03.817218"><ele>10</ele><time>2022-11-15T12:51:36Z</time><name>PT5761</name></trkpt>
<trkpt lat="51.558288" lon="03.817236"><ele>10</ele><time>2022-11-15T12:51:38Z</time><name>PT5762</name></trkpt>
<trkpt lat="51.558292" lon="03.817254"><ele>10.1</ele><time>2022-11-15T12:51:38Z</time><name>PT5763</name></trkpt>
<trkpt lat="51.558296" lon="03.817272"><ele>10</ele><time>2022-11-15T12:51:40Z</time><name>PT5764</name></trkpt>
<trkpt lat="51.558300" lon="03.817289"><ele>10</ele><time>2022-11-15T12:51:40Z</time><name>PT5765</name></trkpt>
<trkpt lat="51.558301" lon="03.817306"><ele>10</ele><time>2022-11-15T12:51:42Z</time><name>PT5766</name></trkpt>
<trkpt lat="51.558301" lon="03.817324"><ele>10</ele><time>2022-11-15T12:51:42Z</time><name>PT5767</name></trkpt>
<trkpt lat="51.558302" lon="03.817340"><ele>9.6</ele><time>2022-11-15T12:51:44Z</time><name>PT5768</name></trkpt>
<trkpt lat="51.558303" lon="03.817355"><ele>9.5</ele><time>2022-11-15T12:51:44Z</time><name>PT5769</name></trkpt>
<trkpt lat="51.558304" lon="03.817371"><ele>9.7</ele><time>2022-11-15T12:51:46Z</time><name>PT5770</name></trkpt>
<trkpt lat="51.558306" lon="03.817387"><ele>9.6</ele><time>2022-11-15T12:51:46Z</time><name>PT5771</name></trkpt>
<trkpt lat="51.558309" lon="03.817403"><ele>9.7</ele><time>2022-11-15T12:51:48Z</time><name>PT5772</name></trkpt>
<trkpt lat="51.558312" lon="03.817420"><ele>9.9</ele><time>2022-11-15T12:51:48Z</time><name>PT5773</name></trkpt>
<trkpt lat="51.558314" lon="03.817437"><ele>10</ele><time>2022-11-15T12:51:50Z</time><name>PT5774</name></trkpt>
<trkpt lat="51.558316" lon="03.817456"><ele>10</ele><time>2022-11-15T12:51:51Z</time><name>PT5775</name></trkpt>
<trkpt lat="51.558316" lon="03.817474"><ele>10</ele><time>2022-11-15T12:51:52Z</time><name>PT5776</name></trkpt>
<trkpt lat="51.558318" lon="03.817490"><ele>9.8</ele><time>2022-11-15T12:51:52Z</time><name>PT5777</name></trkpt>
<trkpt lat="51.558320" lon="03.817507"><ele>9.7</ele><time>2022-11-15T12:51:54Z</time><name>PT5778</name></trkpt>
<trkpt lat="51.558322" lon="03.817524"><ele>9.7</ele><time>2022-11-15T12:51:54Z</time><name>PT5779</name></trkpt>
<trkpt lat="51.558325" lon="03.817541"><ele>9.6</ele><time>2022-11-15T12:51:56Z</time><name>PT5780</name></trkpt>
<trkpt lat="51.558328" lon="03.817558"><ele>9.6</ele><time>2022-11-15T12:51:57Z</time><name>PT5781</name></trkpt>
<trkpt lat="51.558331" lon="03.817575"><ele>9.7</ele><time>2022-11-15T12:51:58Z</time><name>PT5782</name></trkpt>
<trkpt lat="51.558333" lon="03.817592"><ele>9.8</ele><time>2022-11-15T12:51:58Z</time><name>PT5783</name></trkpt>
<trkpt lat="51.558335" lon="03.817609"><ele>9.8</ele><time>2022-11-15T12:52:00Z</time><name>PT5784</name></trkpt>
<trkpt lat="51.558335" lon="03.817626"><ele>9.7</ele><time>2022-11-15T12:52:00Z</time><name>PT5785</name></trkpt>
<trkpt lat="51.558337" lon="03.817640"><ele>9.8</ele><time>2022-11-15T12:52:02Z</time><name>PT5786</name></trkpt>
<trkpt lat="51.558339" lon="03.817656"><ele>9.9</ele><time>2022-11-15T12:52:02Z</time><name>PT5787</name></trkpt>
<trkpt lat="51.558342" lon="03.817671"><ele>9.9</ele><time>2022-11-15T12:52:04Z</time><name>PT5788</name></trkpt>
<trkpt lat="51.558345" lon="03.817688"><ele>9.9</ele><time>2022-11-15T12:52:04Z</time><name>PT5789</name></trkpt>
<trkpt lat="51.558347" lon="03.817705"><ele>10</ele><time>2022-11-15T12:52:06Z</time><name>PT5790</name></trkpt>
<trkpt lat="51.558348" lon="03.817721"><ele>10</ele><time>2022-11-15T12:52:06Z</time><name>PT5791</name></trkpt>
<trkpt lat="51.558349" lon="03.817737"><ele>10</ele><time>2022-11-15T12:52:08Z</time><name>PT5792</name></trkpt>
<trkpt lat="51.558350" lon="03.817755"><ele>10</ele><time>2022-11-15T12:52:08Z</time><name>PT5793</name></trkpt>
<trkpt lat="51.558352" lon="03.817771"><ele>10</ele><time>2022-11-15T12:52:10Z</time><name>PT5794</name></trkpt>
<trkpt lat="51.558354" lon="03.817787"><ele>10</ele><time>2022-11-15T12:52:10Z</time><name>PT5795</name></trkpt>
<trkpt lat="51.558357" lon="03.817803"><ele>9.8</ele><time>2022-11-15T12:52:12Z</time><name>PT5796</name></trkpt>
<trkpt lat="51.558359" lon="03.817818"><ele>9.7</ele><time>2022-11-15T12:52:12Z</time><name>PT5797</name></trkpt>
<trkpt lat="51.558362" lon="03.817831"><ele>9.5</ele><time>2022-11-15T12:52:14Z</time><name>PT5798</name></trkpt>
<trkpt lat="51.558367" lon="03.817835"><ele>9.3</ele><time>2022-11-15T12:52:14Z</time><name>PT5799</name></trkpt>
<trkpt lat="51.558371" lon="03.817843"><ele>9.4</ele><time>2022-11-15T12:52:16Z</time><name>PT5800</name></trkpt>
<trkpt lat="51.558371" lon="03.817856"><ele>9.5</ele><time>2022-11-15T12:52:17Z</time><name>PT5801</name></trkpt>
<trkpt lat="51.558372" lon="03.817881"><ele>9.7</ele><time>2022-11-15T12:52:18Z</time><name>PT5802</name></trkpt>
<trkpt lat="51.558372" lon="03.817908"><ele>9.7</ele><time>2022-11-15T12:52:18Z</time><name>PT5803</name></trkpt>
<trkpt lat="51.558374" lon="03.817934"><ele>9.9</ele><time>2022-11-15T12:52:20Z</time><name>PT5804</name></trkpt>
<trkpt lat="51.558376" lon="03.817954"><ele>9.5</ele><time>2022-11-15T12:52:20Z</time><name>PT5805</name></trkpt>
<trkpt lat="51.558378" lon="03.817971"><ele>9.3</ele><time>2022-11-15T12:52:22Z</time><name>PT5806</name></trkpt>
<trkpt lat="51.558380" lon="03.817987"><ele>9</ele><time>2022-11-15T12:52:22Z</time><name>PT5807</name></trkpt>
<trkpt lat="51.558383" lon="03.818002"><ele>9</ele><time>2022-11-15T12:52:24Z</time><name>PT5808</name></trkpt>
<trkpt lat="51.558386" lon="03.818017"><ele>8.9</ele><time>2022-11-15T12:52:24Z</time><name>PT5809</name></trkpt>
<trkpt lat="51.558386" lon="03.818031"><ele>9.2</ele><time>2022-11-15T12:52:26Z</time><name>PT5810</name></trkpt>
<trkpt lat="51.558387" lon="03.818047"><ele>9.4</ele><time>2022-11-15T12:52:26Z</time><name>PT5811</name></trkpt>
<trkpt lat="51.558389" lon="03.818063"><ele>9.6</ele><time>2022-11-15T12:52:28Z</time><name>PT5812</name></trkpt>
<trkpt lat="51.558392" lon="03.818080"><ele>9.5</ele><time>2022-11-15T12:52:28Z</time><name>PT5813</name></trkpt>
<trkpt lat="51.558395" lon="03.818095"><ele>9.7</ele><time>2022-11-15T12:52:30Z</time><name>PT5814</name></trkpt>
<trkpt lat="51.558397" lon="03.818106"><ele>9.7</ele><time>2022-11-15T12:52:30Z</time><name>PT5815</name></trkpt>
<trkpt lat="51.558398" lon="03.818116"><ele>9.7</ele><time>2022-11-15T12:52:32Z</time><name>PT5816</name></trkpt>
<trkpt lat="51.558398" lon="03.818125"><ele>9.7</ele><time>2022-11-15T12:52:32Z</time><name>PT5817</name></trkpt>
<trkpt lat="51.558398" lon="03.818138"><ele>9.8</ele><time>2022-11-15T12:52:34Z</time><name>PT5818</name></trkpt>
<trkpt lat="51.558398" lon="03.818155"><ele>10</ele><time>2022-11-15T12:52:34Z</time><name>PT5819</name></trkpt>
<trkpt lat="51.558399" lon="03.818175"><ele>9.7</ele><time>2022-11-15T12:52:36Z</time><name>PT5820</name></trkpt>
<trkpt lat="51.558401" lon="03.818198"><ele>9.6</ele><time>2022-11-15T12:52:36Z</time><name>PT5821</name></trkpt>
<trkpt lat="51.558403" lon="03.818218"><ele>9.3</ele><time>2022-11-15T12:52:38Z</time><name>PT5822</name></trkpt>
<trkpt lat="51.558406" lon="03.818240"><ele>9</ele><time>2022-11-15T12:52:38Z</time><name>PT5823</name></trkpt>
<trkpt lat="51.558409" lon="03.818259"><ele>8.7</ele><time>2022-11-15T12:52:40Z</time><name>PT5824</name></trkpt>
<trkpt lat="51.558411" lon="03.818274"><ele>8.7</ele><time>2022-11-15T12:52:40Z</time><name>PT5825</name></trkpt>
<trkpt lat="51.558412" lon="03.818287"><ele>8.8</ele><time>2022-11-15T12:52:42Z</time><name>PT5826</name></trkpt>
<trkpt lat="51.558412" lon="03.818295"><ele>9</ele><time>2022-11-15T12:52:42Z</time><name>PT5827</name></trkpt>
<trkpt lat="51.558412" lon="03.818303"><ele>9.3</ele><time>2022-11-15T12:52:44Z</time><name>PT5828</name></trkpt>
<trkpt lat="51.558414" lon="03.818317"><ele>9.4</ele><time>2022-11-15T12:52:44Z</time><name>PT5829</name></trkpt>
<trkpt lat="51.558415" lon="03.818335"><ele>9.4</ele><time>2022-11-15T12:52:46Z</time><name>PT5830</name></trkpt>
<trkpt lat="51.558416" lon="03.818359"><ele>9.5</ele><time>2022-11-15T12:52:46Z</time><name>PT5831</name></trkpt>
<trkpt lat="51.558417" lon="03.818382"><ele>9.3</ele><time>2022-11-15T12:52:48Z</time><name>PT5832</name></trkpt>
<trkpt lat="51.558420" lon="03.818402"><ele>9.3</ele><time>2022-11-15T12:52:48Z</time><name>PT5833</name></trkpt>
<trkpt lat="51.558423" lon="03.818421"><ele>9.2</ele><time>2022-11-15T12:52:50Z</time><name>PT5834</name></trkpt>
<trkpt lat="51.558424" lon="03.818435"><ele>9.5</ele><time>2022-11-15T12:52:50Z</time><name>PT5835</name></trkpt>
<trkpt lat="51.558426" lon="03.818443"><ele>9.5</ele><time>2022-11-15T12:52:52Z</time><name>PT5836</name></trkpt>
<trkpt lat="51.558428" lon="03.818448"><ele>9.5</ele><time>2022-11-15T12:52:52Z</time><name>PT5837</name></trkpt>
<trkpt lat="51.558428" lon="03.818460"><ele>9.3</ele><time>2022-11-15T12:52:54Z</time><name>PT5838</name></trkpt>
<trkpt lat="51.558428" lon="03.818477"><ele>9.3</ele><time>2022-11-15T12:52:55Z</time><name>PT5839</name></trkpt>
<trkpt lat="51.558429" lon="03.818500"><ele>9</ele><time>2022-11-15T12:52:56Z</time><name>PT5840</name></trkpt>
<trkpt lat="51.558430" lon="03.818520"><ele>9</ele><time>2022-11-15T12:52:56Z</time><name>PT5841</name></trkpt>
<trkpt lat="51.558432" lon="03.818542"><ele>9</ele><time>2022-11-15T12:52:58Z</time><name>PT5842</name></trkpt>
<trkpt lat="51.558436" lon="03.818559"><ele>9.1</ele><time>2022-11-15T12:52:58Z</time><name>PT5843</name></trkpt>
<trkpt lat="51.558438" lon="03.818573"><ele>9.2</ele><time>2022-11-15T12:53:00Z</time><name>PT5844</name></trkpt>
<trkpt lat="51.558441" lon="03.818587"><ele>9.2</ele><time>2022-11-15T12:53:00Z</time><name>PT5845</name></trkpt>
<trkpt lat="51.558441" lon="03.818603"><ele>9.3</ele><time>2022-11-15T12:53:02Z</time><name>PT5846</name></trkpt>
<trkpt lat="51.558441" lon="03.818618"><ele>9.2</ele><time>2022-11-15T12:53:02Z</time><name>PT5847</name></trkpt>
<trkpt lat="51.558441" lon="03.818636"><ele>9.3</ele><time>2022-11-15T12:53:04Z</time><name>PT5848</name></trkpt>
<trkpt lat="51.558443" lon="03.818656"><ele>9.3</ele><time>2022-11-15T12:53:04Z</time><name>PT5849</name></trkpt>
<trkpt lat="51.558445" lon="03.818678"><ele>9.4</ele><time>2022-11-15T12:53:06Z</time><name>PT5850</name></trkpt>
<trkpt lat="51.558447" lon="03.818694"><ele>9.4</ele><time>2022-11-15T12:53:06Z</time><name>PT5851</name></trkpt>
<trkpt lat="51.558450" lon="03.818707"><ele>9.5</ele><time>2022-11-15T12:53:08Z</time><name>PT5852</name></trkpt>
<trkpt lat="51.558452" lon="03.818722"><ele>9.4</ele><time>2022-11-15T12:53:08Z</time><name>PT5853</name></trkpt>
<trkpt lat="51.558453" lon="03.818738"><ele>9.5</ele><time>2022-11-15T12:53:10Z</time><name>PT5854</name></trkpt>
<trkpt lat="51.558451" lon="03.818752"><ele>9.6</ele><time>2022-11-15T12:53:10Z</time><name>PT5855</name></trkpt>
<trkpt lat="51.558452" lon="03.818771"><ele>9.5</ele><time>2022-11-15T12:53:12Z</time><name>PT5856</name></trkpt>
<trkpt lat="51.558455" lon="03.818796"><ele>9.5</ele><time>2022-11-15T12:53:12Z</time><name>PT5857</name></trkpt>
<trkpt lat="51.558455" lon="03.818824"><ele>9.6</ele><time>2022-11-15T12:53:14Z</time><name>PT5858</name></trkpt>
<trkpt lat="51.558457" lon="03.818852"><ele>9.5</ele><time>2022-11-15T12:53:14Z</time><name>PT5859</name></trkpt>
<trkpt lat="51.558458" lon="03.818873"><ele>9.6</ele><time>2022-11-15T12:53:16Z</time><name>PT5860</name></trkpt>
<trkpt lat="51.558459" lon="03.818881"><ele>9.9</ele><time>2022-11-15T12:53:16Z</time><name>PT5861</name></trkpt>
<trkpt lat="51.558460" lon="03.818885"><ele>9.8</ele><time>2022-11-15T12:53:18Z</time><name>PT5862</name></trkpt>
<trkpt lat="51.558461" lon="03.818890"><ele>9.9</ele><time>2022-11-15T12:53:18Z</time><name>PT5863</name></trkpt>
<trkpt lat="51.558459" lon="03.818898"><ele>9.8</ele><time>2022-11-15T12:53:20Z</time><name>PT5864</name></trkpt>
<trkpt lat="51.558460" lon="03.818913"><ele>9.8</ele><time>2022-11-15T12:53:20Z</time><name>PT5865</name></trkpt>
<trkpt lat="51.558466" lon="03.818940"><ele>9.7</ele><time>2022-11-15T12:53:22Z</time><name>PT5866</name></trkpt>
<trkpt lat="51.558467" lon="03.818968"><ele>9.8</ele><time>2022-11-15T12:53:22Z</time><name>PT5867</name></trkpt>
<trkpt lat="51.558468" lon="03.818995"><ele>9.8</ele><time>2022-11-15T12:53:24Z</time><name>PT5868</name></trkpt>
<trkpt lat="51.558471" lon="03.819011"><ele>9.8</ele><time>2022-11-15T12:53:24Z</time><name>PT5869</name></trkpt>
<trkpt lat="51.558474" lon="03.819023"><ele>9.8</ele><time>2022-11-15T12:53:26Z</time><name>PT5870</name></trkpt>
<trkpt lat="51.558474" lon="03.819034"><ele>9.8</ele><time>2022-11-15T12:53:26Z</time><name>PT5871</name></trkpt>
<trkpt lat="51.558475" lon="03.819047"><ele>9.8</ele><time>2022-11-15T12:53:28Z</time><name>PT5872</name></trkpt>
<trkpt lat="51.558477" lon="03.819064"><ele>10</ele><time>2022-11-15T12:53:28Z</time><name>PT5873</name></trkpt>
<trkpt lat="51.558478" lon="03.819087"><ele>9.9</ele><time>2022-11-15T12:53:30Z</time><name>PT5874</name></trkpt>
<trkpt lat="51.558482" lon="03.819120"><ele>10</ele><time>2022-11-15T12:53:30Z</time><name>PT5875</name></trkpt>
<trkpt lat="51.558490" lon="03.819149"><ele>10</ele><time>2022-11-15T12:53:32Z</time><name>PT5876</name></trkpt>
<trkpt lat="51.558496" lon="03.819169"><ele>10</ele><time>2022-11-15T12:53:32Z</time><name>PT5877</name></trkpt>
<trkpt lat="51.558498" lon="03.819178"><ele>10</ele><time>2022-11-15T12:53:34Z</time><name>PT5878</name></trkpt>
<trkpt lat="51.558498" lon="03.819182"><ele>10</ele><time>2022-11-15T12:53:34Z</time><name>PT5879</name></trkpt>
<trkpt lat="51.558500" lon="03.819186"><ele>10.1</ele><time>2022-11-15T12:53:36Z</time><name>PT5880</name></trkpt>
<trkpt lat="51.558501" lon="03.819197"><ele>10.2</ele><time>2022-11-15T12:53:37Z</time><name>PT5881</name></trkpt>
<trkpt lat="51.558501" lon="03.819215"><ele>10.1</ele><time>2022-11-15T12:53:38Z</time><name>PT5882</name></trkpt>
<trkpt lat="51.558503" lon="03.819242"><ele>10</ele><time>2022-11-15T12:53:39Z</time><name>PT5883</name></trkpt>
<trkpt lat="51.558501" lon="03.819269"><ele>10</ele><time>2022-11-15T12:53:40Z</time><name>PT5884</name></trkpt>
<trkpt lat="51.558501" lon="03.819293"><ele>9.8</ele><time>2022-11-15T12:53:40Z</time><name>PT5885</name></trkpt>
<trkpt lat="51.558502" lon="03.819308"><ele>9.7</ele><time>2022-11-15T12:53:42Z</time><name>PT5886</name></trkpt>
<trkpt lat="51.558503" lon="03.819312"><ele>9.9</ele><time>2022-11-15T12:53:43Z</time><name>PT5887</name></trkpt>
<trkpt lat="51.558504" lon="03.819314"><ele>9.8</ele><time>2022-11-15T12:53:44Z</time><name>PT5888</name></trkpt>
<trkpt lat="51.558505" lon="03.819321"><ele>9.8</ele><time>2022-11-15T12:53:45Z</time><name>PT5889</name></trkpt>
<trkpt lat="51.558504" lon="03.819334"><ele>9.7</ele><time>2022-11-15T12:53:46Z</time><name>PT5890</name></trkpt>
<trkpt lat="51.558505" lon="03.819359"><ele>9.8</ele><time>2022-11-15T12:53:47Z</time><name>PT5891</name></trkpt>
<trkpt lat="51.558507" lon="03.819392"><ele>9.6</ele><time>2022-11-15T12:53:48Z</time><name>PT5892</name></trkpt>
<trkpt lat="51.558511" lon="03.819422"><ele>9.9</ele><time>2022-11-15T12:53:49Z</time><name>PT5893</name></trkpt>
<trkpt lat="51.558513" lon="03.819446"><ele>9.9</ele><time>2022-11-15T12:53:50Z</time><name>PT5894</name></trkpt>
<trkpt lat="51.558515" lon="03.819463"><ele>9.8</ele><time>2022-11-15T12:53:51Z</time><name>PT5895</name></trkpt>
<trkpt lat="51.558516" lon="03.819478"><ele>9.9</ele><time>2022-11-15T12:53:52Z</time><name>PT5896</name></trkpt>
<trkpt lat="51.558521" lon="03.819484"><ele>10</ele><time>2022-11-15T12:53:52Z</time><name>PT5897</name></trkpt>
<trkpt lat="51.558522" lon="03.819492"><ele>9.9</ele><time>2022-11-15T12:53:54Z</time><name>PT5898</name></trkpt>
<trkpt lat="51.558523" lon="03.819509"><ele>10</ele><time>2022-11-15T12:53:54Z</time><name>PT5899</name></trkpt>
<trkpt lat="51.558525" lon="03.819535"><ele>10.1</ele><time>2022-11-15T12:53:56Z</time><name>PT5900</name></trkpt>
<trkpt lat="51.558527" lon="03.819564"><ele>10.2</ele><time>2022-11-15T12:53:56Z</time><name>PT5901</name></trkpt>
<trkpt lat="51.558531" lon="03.819591"><ele>10</ele><time>2022-11-15T12:53:58Z</time><name>PT5902</name></trkpt>
<trkpt lat="51.558533" lon="03.819606"><ele>10</ele><time>2022-11-15T12:53:58Z</time><name>PT5903</name></trkpt>
<trkpt lat="51.558535" lon="03.819614"><ele>9.8</ele><time>2022-11-15T12:54:00Z</time><name>PT5904</name></trkpt>
<trkpt lat="51.558538" lon="03.819621"><ele>9.6</ele><time>2022-11-15T12:54:00Z</time><name>PT5905</name></trkpt>
<trkpt lat="51.558537" lon="03.819628"><ele>9.5</ele><time>2022-11-15T12:54:02Z</time><name>PT5906</name></trkpt>
<trkpt lat="51.558535" lon="03.819638"><ele>9.6</ele><time>2022-11-15T12:54:02Z</time><name>PT5907</name></trkpt>
<trkpt lat="51.558536" lon="03.819660"><ele>9.8</ele><time>2022-11-15T12:54:04Z</time><name>PT5908</name></trkpt>
<trkpt lat="51.558538" lon="03.819691"><ele>9.9</ele><time>2022-11-15T12:54:04Z</time><name>PT5909</name></trkpt>
<trkpt lat="51.558541" lon="03.819719"><ele>10</ele><time>2022-11-15T12:54:06Z</time><name>PT5910</name></trkpt>
<trkpt lat="51.558543" lon="03.819737"><ele>10.2</ele><time>2022-11-15T12:54:06Z</time><name>PT5911</name></trkpt>
<trkpt lat="51.558543" lon="03.819748"><ele>10.3</ele><time>2022-11-15T12:54:08Z</time><name>PT5912</name></trkpt>
<trkpt lat="51.558544" lon="03.819753"><ele>10.4</ele><time>2022-11-15T12:54:08Z</time><name>PT5913</name></trkpt>
<trkpt lat="51.558546" lon="03.819761"><ele>10.4</ele><time>2022-11-15T12:54:10Z</time><name>PT5914</name></trkpt>
<trkpt lat="51.558547" lon="03.819776"><ele>10.3</ele><time>2022-11-15T12:54:10Z</time><name>PT5915</name></trkpt>
<trkpt lat="51.558548" lon="03.819802"><ele>10.2</ele><time>2022-11-15T12:54:12Z</time><name>PT5916</name></trkpt>
<trkpt lat="51.558550" lon="03.819834"><ele>10</ele><time>2022-11-15T12:54:12Z</time><name>PT5917</name></trkpt>
<trkpt lat="51.558551" lon="03.819862"><ele>10</ele><time>2022-11-15T12:54:14Z</time><name>PT5918</name></trkpt>
<trkpt lat="51.558556" lon="03.819885"><ele>9.8</ele><time>2022-11-15T12:54:14Z</time><name>PT5919</name></trkpt>
<trkpt lat="51.558561" lon="03.819901"><ele>9.8</ele><time>2022-11-15T12:54:16Z</time><name>PT5920</name></trkpt>
<trkpt lat="51.558563" lon="03.819910"><ele>9.8</ele><time>2022-11-15T12:54:16Z</time><name>PT5921</name></trkpt>
<trkpt lat="51.558565" lon="03.819916"><ele>9.7</ele><time>2022-11-15T12:54:18Z</time><name>PT5922</name></trkpt>
<trkpt lat="51.558565" lon="03.819920"><ele>9.7</ele><time>2022-11-15T12:54:18Z</time><name>PT5923</name></trkpt>
<trkpt lat="51.558565" lon="03.819932"><ele>9.7</ele><time>2022-11-15T12:54:20Z</time><name>PT5924</name></trkpt>
<trkpt lat="51.558565" lon="03.819955"><ele>9.7</ele><time>2022-11-15T12:54:20Z</time><name>PT5925</name></trkpt>
<trkpt lat="51.558565" lon="03.819978"><ele>9.7</ele><time>2022-11-15T12:54:22Z</time><name>PT5926</name></trkpt>
<trkpt lat="51.558569" lon="03.820002"><ele>9.9</ele><time>2022-11-15T12:54:22Z</time><name>PT5927</name></trkpt>
<trkpt lat="51.558572" lon="03.820023"><ele>9.7</ele><time>2022-11-15T12:54:24Z</time><name>PT5928</name></trkpt>
<trkpt lat="51.558572" lon="03.820035"><ele>9.7</ele><time>2022-11-15T12:54:24Z</time><name>PT5929</name></trkpt>
<trkpt lat="51.558575" lon="03.820039"><ele>10</ele><time>2022-11-15T12:54:26Z</time><name>PT5930</name></trkpt>
<trkpt lat="51.558576" lon="03.820040"><ele>10.1</ele><time>2022-11-15T12:54:26Z</time><name>PT5931</name></trkpt>
<trkpt lat="51.558577" lon="03.820052"><ele>10</ele><time>2022-11-15T12:54:28Z</time><name>PT5932</name></trkpt>
<trkpt lat="51.558578" lon="03.820076"><ele>10.1</ele><time>2022-11-15T12:54:28Z</time><name>PT5933</name></trkpt>
<trkpt lat="51.558581" lon="03.820106"><ele>10.1</ele><time>2022-11-15T12:54:30Z</time><name>PT5934</name></trkpt>
<trkpt lat="51.558583" lon="03.820134"><ele>9.9</ele><time>2022-11-15T12:54:30Z</time><name>PT5935</name></trkpt>
<trkpt lat="51.558586" lon="03.820153"><ele>9.7</ele><time>2022-11-15T12:54:32Z</time><name>PT5936</name></trkpt>
<trkpt lat="51.558588" lon="03.820164"><ele>9.8</ele><time>2022-11-15T12:54:32Z</time><name>PT5937</name></trkpt>
<trkpt lat="51.558588" lon="03.820170"><ele>9.7</ele><time>2022-11-15T12:54:34Z</time><name>PT5938</name></trkpt>
<trkpt lat="51.558589" lon="03.820178"><ele>9.8</ele><time>2022-11-15T12:54:34Z</time><name>PT5939</name></trkpt>
<trkpt lat="51.558588" lon="03.820190"><ele>10</ele><time>2022-11-15T12:54:36Z</time><name>PT5940</name></trkpt>
<trkpt lat="51.558589" lon="03.820209"><ele>10.2</ele><time>2022-11-15T12:54:36Z</time><name>PT5941</name></trkpt>
<trkpt lat="51.558589" lon="03.820236"><ele>10.2</ele><time>2022-11-15T12:54:38Z</time><name>PT5942</name></trkpt>
<trkpt lat="51.558590" lon="03.820263"><ele>10.3</ele><time>2022-11-15T12:54:38Z</time><name>PT5943</name></trkpt>
<trkpt lat="51.558593" lon="03.820281"><ele>10.4</ele><time>2022-11-15T12:54:40Z</time><name>PT5944</name></trkpt>
<trkpt lat="51.558594" lon="03.820288"><ele>10.4</ele><time>2022-11-15T12:54:40Z</time><name>PT5945</name></trkpt>
<trkpt lat="51.558596" lon="03.820290"><ele>10.3</ele><time>2022-11-15T12:54:42Z</time><name>PT5946</name></trkpt>
<trkpt lat="51.558597" lon="03.820297"><ele>10.4</ele><time>2022-11-15T12:54:42Z</time><name>PT5947</name></trkpt>
<trkpt lat="51.558597" lon="03.820316"><ele>10.3</ele><time>2022-11-15T12:54:44Z</time><name>PT5948</name></trkpt>
<trkpt lat="51.558597" lon="03.820344"><ele>10.4</ele><time>2022-11-15T12:54:44Z</time><name>PT5949</name></trkpt>
<trkpt lat="51.558598" lon="03.820365"><ele>10.5</ele><time>2022-11-15T12:54:46Z</time><name>PT5950</name></trkpt>
<trkpt lat="51.558599" lon="03.820383"><ele>10.5</ele><time>2022-11-15T12:54:46Z</time><name>PT5951</name></trkpt>
<trkpt lat="51.558603" lon="03.820401"><ele>10.5</ele><time>2022-11-15T12:54:48Z</time><name>PT5952</name></trkpt>
<trkpt lat="51.558608" lon="03.820421"><ele>10.5</ele><time>2022-11-15T12:54:48Z</time><name>PT5953</name></trkpt>
<trkpt lat="51.558611" lon="03.820435"><ele>10.5</ele><time>2022-11-15T12:54:50Z</time><name>PT5954</name></trkpt>
<trkpt lat="51.558611" lon="03.820443"><ele>10.3</ele><time>2022-11-15T12:54:50Z</time><name>PT5955</name></trkpt>
<trkpt lat="51.558611" lon="03.820445"><ele>10.2</ele><time>2022-11-15T12:54:52Z</time><name>PT5956</name></trkpt>
<trkpt lat="51.558612" lon="03.820455"><ele>10</ele><time>2022-11-15T12:54:52Z</time><name>PT5957</name></trkpt>
<trkpt lat="51.558614" lon="03.820471"><ele>10</ele><time>2022-11-15T12:54:54Z</time><name>PT5958</name></trkpt>
<trkpt lat="51.558618" lon="03.820499"><ele>10</ele><time>2022-11-15T12:54:55Z</time><name>PT5959</name></trkpt>
<trkpt lat="51.558620" lon="03.820528"><ele>10.1</ele><time>2022-11-15T12:54:56Z</time><name>PT5960</name></trkpt>
<trkpt lat="51.558624" lon="03.820553"><ele>10</ele><time>2022-11-15T12:54:57Z</time><name>PT5961</name></trkpt>
<trkpt lat="51.558628" lon="03.820570"><ele>10</ele><time>2022-11-15T12:54:58Z</time><name>PT5962</name></trkpt>
<trkpt lat="51.558631" lon="03.820582"><ele>10.1</ele><time>2022-11-15T12:54:59Z</time><name>PT5963</name></trkpt>
<trkpt lat="51.558631" lon="03.820586"><ele>10.1</ele><time>2022-11-15T12:55:00Z</time><name>PT5964</name></trkpt>
<trkpt lat="51.558632" lon="03.820589"><ele>10.3</ele><time>2022-11-15T12:55:01Z</time><name>PT5965</name></trkpt>
<trkpt lat="51.558632" lon="03.820601"><ele>10.5</ele><time>2022-11-15T12:55:02Z</time><name>PT5966</name></trkpt>
<trkpt lat="51.558634" lon="03.820625"><ele>10.5</ele><time>2022-11-15T12:55:03Z</time><name>PT5967</name></trkpt>
<trkpt lat="51.558638" lon="03.820655"><ele>10.6</ele><time>2022-11-15T12:55:04Z</time><name>PT5968</name></trkpt>
<trkpt lat="51.558642" lon="03.820679"><ele>10.7</ele><time>2022-11-15T12:55:05Z</time><name>PT5969</name></trkpt>
<trkpt lat="51.558645" lon="03.820692"><ele>10.6</ele><time>2022-11-15T12:55:06Z</time><name>PT5970</name></trkpt>
<trkpt lat="51.558646" lon="03.820699"><ele>10.5</ele><time>2022-11-15T12:55:07Z</time><name>PT5971</name></trkpt>
<trkpt lat="51.558647" lon="03.820704"><ele>10.5</ele><time>2022-11-15T12:55:08Z</time><name>PT5972</name></trkpt>
<trkpt lat="51.558648" lon="03.820710"><ele>10.5</ele><time>2022-11-15T12:55:09Z</time><name>PT5973</name></trkpt>
<trkpt lat="51.558649" lon="03.820728"><ele>10.5</ele><time>2022-11-15T12:55:10Z</time><name>PT5974</name></trkpt>
<trkpt lat="51.558650" lon="03.820752"><ele>10.5</ele><time>2022-11-15T12:55:11Z</time><name>PT5975</name></trkpt>
<trkpt lat="51.558649" lon="03.820782"><ele>10.6</ele><time>2022-11-15T12:55:12Z</time><name>PT5976</name></trkpt>
<trkpt lat="51.558651" lon="03.820806"><ele>10.5</ele><time>2022-11-15T12:55:13Z</time><name>PT5977</name></trkpt>
<trkpt lat="51.558655" lon="03.820824"><ele>10.5</ele><time>2022-11-15T12:55:14Z</time><name>PT5978</name></trkpt>
<trkpt lat="51.558658" lon="03.820839"><ele>10.5</ele><time>2022-11-15T12:55:15Z</time><name>PT5979</name></trkpt>
<trkpt lat="51.558662" lon="03.820851"><ele>10.6</ele><time>2022-11-15T12:55:16Z</time><name>PT5980</name></trkpt>
<trkpt lat="51.558664" lon="03.820861"><ele>10.5</ele><time>2022-11-15T12:55:17Z</time><name>PT5981</name></trkpt>
<trkpt lat="51.558664" lon="03.820873"><ele>10.5</ele><time>2022-11-15T12:55:17Z</time><name>PT5982</name></trkpt>
<trkpt lat="51.558666" lon="03.820890"><ele>10.4</ele><time>2022-11-15T12:55:19Z</time><name>PT5983</name></trkpt>
<trkpt lat="51.558669" lon="03.820918"><ele>10.3</ele><time>2022-11-15T12:55:19Z</time><name>PT5984</name></trkpt>
<trkpt lat="51.558673" lon="03.820949"><ele>10.3</ele><time>2022-11-15T12:55:21Z</time><name>PT5985</name></trkpt>
<trkpt lat="51.558676" lon="03.820980"><ele>10.3</ele><time>2022-11-15T12:55:21Z</time><name>PT5986</name></trkpt>
<trkpt lat="51.558678" lon="03.821009"><ele>10.5</ele><time>2022-11-15T12:55:23Z</time><name>PT5987</name></trkpt>
<trkpt lat="51.558680" lon="03.821029"><ele>10.6</ele><time>2022-11-15T12:55:23Z</time><name>PT5988</name></trkpt>
<trkpt lat="51.558682" lon="03.821040"><ele>10.9</ele><time>2022-11-15T12:55:25Z</time><name>PT5989</name></trkpt>
<trkpt lat="51.558684" lon="03.821046"><ele>11</ele><time>2022-11-15T12:55:25Z</time><name>PT5990</name></trkpt>
<trkpt lat="51.558688" lon="03.821051"><ele>11</ele><time>2022-11-15T12:55:27Z</time><name>PT5991</name></trkpt>
<trkpt lat="51.558689" lon="03.821068"><ele>10.9</ele><time>2022-11-15T12:55:27Z</time><name>PT5992</name></trkpt>
<trkpt lat="51.558694" lon="03.821096"><ele>11</ele><time>2022-11-15T12:55:29Z</time><name>PT5993</name></trkpt>
<trkpt lat="51.558695" lon="03.821120"><ele>11</ele><time>2022-11-15T12:55:29Z</time><name>PT5994</name></trkpt>
<trkpt lat="51.558697" lon="03.821134"><ele>11</ele><time>2022-11-15T12:55:31Z</time><name>PT5995</name></trkpt>
<trkpt lat="51.558698" lon="03.821143"><ele>11</ele><time>2022-11-15T12:55:31Z</time><name>PT5996</name></trkpt>
<trkpt lat="51.558701" lon="03.821147"><ele>10.9</ele><time>2022-11-15T12:55:33Z</time><name>PT5997</name></trkpt>
<trkpt lat="51.558702" lon="03.821149"><ele>11</ele><time>2022-11-15T12:55:33Z</time><name>PT5998</name></trkpt>
<trkpt lat="51.558703" lon="03.821152"><ele>11.2</ele><time>2022-11-15T12:55:35Z</time><name>PT5999</name></trkpt>
<trkpt lat="51.558700" lon="03.821161"><ele>11.4</ele><time>2022-11-15T12:55:35Z</time><name>PT6000</name></trkpt>
<trkpt lat="51.558700" lon="03.821184"><ele>11.8</ele><time>2022-11-15T12:55:37Z</time><name>PT6001</name></trkpt>
<trkpt lat="51.558701" lon="03.821214"><ele>11.9</ele><time>2022-11-15T12:55:37Z</time><name>PT6002</name></trkpt>
<trkpt lat="51.558702" lon="03.821244"><ele>12.2</ele><time>2022-11-15T12:55:39Z</time><name>PT6003</name></trkpt>
<trkpt lat="51.558704" lon="03.821266"><ele>12.1</ele><time>2022-11-15T12:55:39Z</time><name>PT6004</name></trkpt>
<trkpt lat="51.558707" lon="03.821281"><ele>11.9</ele><time>2022-11-15T12:55:41Z</time><name>PT6005</name></trkpt>
<trkpt lat="51.558709" lon="03.821288"><ele>11.9</ele><time>2022-11-15T12:55:41Z</time><name>PT6006</name></trkpt>
<trkpt lat="51.558710" lon="03.821289"><ele>11.6</ele><time>2022-11-15T12:55:43Z</time><name>PT6007</name></trkpt>
<trkpt lat="51.558709" lon="03.821291"><ele>11.5</ele><time>2022-11-15T12:55:43Z</time><name>PT6008</name></trkpt>
<trkpt lat="51.558710" lon="03.821297"><ele>11.4</ele><time>2022-11-15T12:55:45Z</time><name>PT6009</name></trkpt>
<trkpt lat="51.558710" lon="03.821309"><ele>11.4</ele><time>2022-11-15T12:55:45Z</time><name>PT6010</name></trkpt>
<trkpt lat="51.558707" lon="03.821331"><ele>11.4</ele><time>2022-11-15T12:55:47Z</time><name>PT6011</name></trkpt>
<trkpt lat="51.558707" lon="03.821361"><ele>11.5</ele><time>2022-11-15T12:55:47Z</time><name>PT6012</name></trkpt>
<trkpt lat="51.558709" lon="03.821392"><ele>11.5</ele><time>2022-11-15T12:55:49Z</time><name>PT6013</name></trkpt>
<trkpt lat="51.558714" lon="03.821417"><ele>11.5</ele><time>2022-11-15T12:55:49Z</time><name>PT6014</name></trkpt>
<trkpt lat="51.558718" lon="03.821439"><ele>11.4</ele><time>2022-11-15T12:55:51Z</time><name>PT6015</name></trkpt>
<trkpt lat="51.558720" lon="03.821452"><ele>11.3</ele><time>2022-11-15T12:55:51Z</time><name>PT6016</name></trkpt>
<trkpt lat="51.558721" lon="03.821457"><ele>11.2</ele><time>2022-11-15T12:55:53Z</time><name>PT6017</name></trkpt>
<trkpt lat="51.558721" lon="03.821460"><ele>11.3</ele><time>2022-11-15T12:55:53Z</time><name>PT6018</name></trkpt>
<trkpt lat="51.558721" lon="03.821470"><ele>11.1</ele><time>2022-11-15T12:55:55Z</time><name>PT6019</name></trkpt>
<trkpt lat="51.558721" lon="03.821492"><ele>11.3</ele><time>2022-11-15T12:55:56Z</time><name>PT6020</name></trkpt>
<trkpt lat="51.558722" lon="03.821518"><ele>11.4</ele><time>2022-11-15T12:55:56Z</time><name>PT6021</name></trkpt>
<trkpt lat="51.558725" lon="03.821546"><ele>11.5</ele><time>2022-11-15T12:55:58Z</time><name>PT6022</name></trkpt>
<trkpt lat="51.558729" lon="03.821575"><ele>11.5</ele><time>2022-11-15T12:55:58Z</time><name>PT6023</name></trkpt>
<trkpt lat="51.558734" lon="03.821600"><ele>11.6</ele><time>2022-11-15T12:56:00Z</time><name>PT6024</name></trkpt>
<trkpt lat="51.558739" lon="03.821619"><ele>11.5</ele><time>2022-11-15T12:56:00Z</time><name>PT6025</name></trkpt>
<trkpt lat="51.558742" lon="03.821631"><ele>11.5</ele><time>2022-11-15T12:56:02Z</time><name>PT6026</name></trkpt>
<trkpt lat="51.558743" lon="03.821633"><ele>11.6</ele><time>2022-11-15T12:56:02Z</time><name>PT6027</name></trkpt>
<trkpt lat="51.558747" lon="03.821633"><ele>11.8</ele><time>2022-11-15T12:56:04Z</time><name>PT6028</name></trkpt>
<trkpt lat="51.558748" lon="03.821641"><ele>11.9</ele><time>2022-11-15T12:56:04Z</time><name>PT6029</name></trkpt>
<trkpt lat="51.558748" lon="03.821662"><ele>12.2</ele><time>2022-11-15T12:56:06Z</time><name>PT6030</name></trkpt>
<trkpt lat="51.558750" lon="03.821690"><ele>12.3</ele><time>2022-11-15T12:56:06Z</time><name>PT6031</name></trkpt>
<trkpt lat="51.558752" lon="03.821720"><ele>12.6</ele><time>2022-11-15T12:56:08Z</time><name>PT6032</name></trkpt>
<trkpt lat="51.558755" lon="03.821743"><ele>12.6</ele><time>2022-11-15T12:56:08Z</time><name>PT6033</name></trkpt>
<trkpt lat="51.558757" lon="03.821755"><ele>12.8</ele><time>2022-11-15T12:56:10Z</time><name>PT6034</name></trkpt>
<trkpt lat="51.558760" lon="03.821758"><ele>12.9</ele><time>2022-11-15T12:56:10Z</time><name>PT6035</name></trkpt>
<trkpt lat="51.558763" lon="03.821759"><ele>13.3</ele><time>2022-11-15T12:56:12Z</time><name>PT6036</name></trkpt>
<trkpt lat="51.558764" lon="03.821768"><ele>13.3</ele><time>2022-11-15T12:56:12Z</time><name>PT6037</name></trkpt>
<trkpt lat="51.558764" lon="03.821786"><ele>13.3</ele><time>2022-11-15T12:56:14Z</time><name>PT6038</name></trkpt>
<trkpt lat="51.558769" lon="03.821812"><ele>13.4</ele><time>2022-11-15T12:56:14Z</time><name>PT6039</name></trkpt>
<trkpt lat="51.558776" lon="03.821842"><ele>13.4</ele><time>2022-11-15T12:56:16Z</time><name>PT6040</name></trkpt>
<trkpt lat="51.558780" lon="03.821865"><ele>13.3</ele><time>2022-11-15T12:56:16Z</time><name>PT6041</name></trkpt>
<trkpt lat="51.558782" lon="03.821876"><ele>13.3</ele><time>2022-11-15T12:56:18Z</time><name>PT6042</name></trkpt>
<trkpt lat="51.558785" lon="03.821880"><ele>13.4</ele><time>2022-11-15T12:56:18Z</time><name>PT6043</name></trkpt>
<trkpt lat="51.558786" lon="03.821890"><ele>13.5</ele><time>2022-11-15T12:56:20Z</time><name>PT6044</name></trkpt>
<trkpt lat="51.558786" lon="03.821903"><ele>13.4</ele><time>2022-11-15T12:56:21Z</time><name>PT6045</name></trkpt>
<trkpt lat="51.558788" lon="03.821918"><ele>13.6</ele><time>2022-11-15T12:56:22Z</time><name>PT6046</name></trkpt>
<trkpt lat="51.558790" lon="03.821925"><ele>13.8</ele><time>2022-11-15T12:56:22Z</time><name>PT6047</name></trkpt>
<trkpt lat="51.558790" lon="03.821935"><ele>13.8</ele><time>2022-11-15T12:56:24Z</time><name>PT6048</name></trkpt>
<trkpt lat="51.558791" lon="03.821944"><ele>13.8</ele><time>2022-11-15T12:56:24Z</time><name>PT6049</name></trkpt>
<trkpt lat="51.558791" lon="03.821953"><ele>13.7</ele><time>2022-11-15T12:56:26Z</time><name>PT6050</name></trkpt>
<trkpt lat="51.558792" lon="03.821969"><ele>13.6</ele><time>2022-11-15T12:56:26Z</time><name>PT6051</name></trkpt>
<trkpt lat="51.558796" lon="03.821994"><ele>13.4</ele><time>2022-11-15T12:56:28Z</time><name>PT6052</name></trkpt>
<trkpt lat="51.558796" lon="03.822010"><ele>13.4</ele><time>2022-11-15T12:56:28Z</time><name>PT6053</name></trkpt>
<trkpt lat="51.558799" lon="03.822012"><ele>13.3</ele><time>2022-11-15T12:56:30Z</time><name>PT6054</name></trkpt>
<trkpt lat="51.558800" lon="03.822015"><ele>13.5</ele><time>2022-11-15T12:56:31Z</time><name>PT6055</name></trkpt>
<trkpt lat="51.558801" lon="03.822028"><ele>13.7</ele><time>2022-11-15T12:56:32Z</time><name>PT6056</name></trkpt>
<trkpt lat="51.558804" lon="03.822053"><ele>13.6</ele><time>2022-11-15T12:56:33Z</time><name>PT6057</name></trkpt>
<trkpt lat="51.558809" lon="03.822078"><ele>13.7</ele><time>2022-11-15T12:56:34Z</time><name>PT6058</name></trkpt>
<trkpt lat="51.558815" lon="03.822096"><ele>13.9</ele><time>2022-11-15T12:56:34Z</time><name>PT6059</name></trkpt>
<trkpt lat="51.558820" lon="03.822106"><ele>13.7</ele><time>2022-11-15T12:56:36Z</time><name>PT6060</name></trkpt>
<trkpt lat="51.558825" lon="03.822110"><ele>13.4</ele><time>2022-11-15T12:56:36Z</time><name>PT6061</name></trkpt>
<trkpt lat="51.558829" lon="03.822110"><ele>13.2</ele><time>2022-11-15T12:56:38Z</time><name>PT6062</name></trkpt>
<trkpt lat="51.558837" lon="03.822109"><ele>12.9</ele><time>2022-11-15T12:56:38Z</time><name>PT6063</name></trkpt>
<trkpt lat="51.558845" lon="03.822108"><ele>12.2</ele><time>2022-11-15T12:56:40Z</time><name>PT6064</name></trkpt>
<trkpt lat="51.558849" lon="03.822106"><ele>11.8</ele><time>2022-11-15T12:56:40Z</time><name>PT6065</name></trkpt>
<trkpt lat="51.558849" lon="03.822104"><ele>11.4</ele><time>2022-11-15T12:56:42Z</time><name>PT6066</name></trkpt>
<trkpt lat="51.558853" lon="03.822103"><ele>11.4</ele><time>2022-11-15T12:56:43Z</time><name>PT6067</name></trkpt>
<trkpt lat="51.558859" lon="03.822102"><ele>11.7</ele><time>2022-11-15T12:56:44Z</time><name>PT6068</name></trkpt>
<trkpt lat="51.558863" lon="03.822100"><ele>12.1</ele><time>2022-11-15T12:56:44Z</time><name>PT6069</name></trkpt>
<trkpt lat="51.558866" lon="03.822099"><ele>12.4</ele><time>2022-11-15T12:56:46Z</time><name>PT6070</name></trkpt>
<trkpt lat="51.558870" lon="03.822099"><ele>12.7</ele><time>2022-11-15T12:56:46Z</time><name>PT6071</name></trkpt>
<trkpt lat="51.558876" lon="03.822103"><ele>13.1</ele><time>2022-11-15T12:56:48Z</time><name>PT6072</name></trkpt>
<trkpt lat="51.558887" lon="03.822106"><ele>13.4</ele><time>2022-11-15T12:56:49Z</time><name>PT6073</name></trkpt>
<trkpt lat="51.558902" lon="03.822107"><ele>13.9</ele><time>2022-11-15T12:56:50Z</time><name>PT6074</name></trkpt>
<trkpt lat="51.558918" lon="03.822106"><ele>13.8</ele><time>2022-11-15T12:56:51Z</time><name>PT6075</name></trkpt>
<trkpt lat="51.558935" lon="03.822106"><ele>13.9</ele><time>2022-11-15T12:56:52Z</time><name>PT6076</name></trkpt>
<trkpt lat="51.558949" lon="03.822104"><ele>13.6</ele><time>2022-11-15T12:56:53Z</time><name>PT6077</name></trkpt>
<trkpt lat="51.558957" lon="03.822102"><ele>13.1</ele><time>2022-11-15T12:56:54Z</time><name>PT6078</name></trkpt>
<trkpt lat="51.558959" lon="03.822100"><ele>12.6</ele><time>2022-11-15T12:56:55Z</time><name>PT6079</name></trkpt>
<trkpt lat="51.558961" lon="03.822099"><ele>12.7</ele><time>2022-11-15T12:56:56Z</time><name>PT6080</name></trkpt>
<trkpt lat="51.558965" lon="03.822096"><ele>12.6</ele><time>2022-11-15T12:56:57Z</time><name>PT6081</name></trkpt>
<trkpt lat="51.558975" lon="03.822097"><ele>12.8</ele><time>2022-11-15T12:56:58Z</time><name>PT6082</name></trkpt>
<trkpt lat="51.558989" lon="03.822101"><ele>13.1</ele><time>2022-11-15T12:56:59Z</time><name>PT6083</name></trkpt>
<trkpt lat="51.559003" lon="03.822104"><ele>13.3</ele><time>2022-11-15T12:57:00Z</time><name>PT6084</name></trkpt>
<trkpt lat="51.559018" lon="03.822105"><ele>13.5</ele><time>2022-11-15T12:57:01Z</time><name>PT6085</name></trkpt>
<trkpt lat="51.559033" lon="03.822100"><ele>13.4</ele><time>2022-11-15T12:57:02Z</time><name>PT6086</name></trkpt>
<trkpt lat="51.559040" lon="03.822095"><ele>13.4</ele><time>2022-11-15T12:57:03Z</time><name>PT6087</name></trkpt>
<trkpt lat="51.559043" lon="03.822092"><ele>13.1</ele><time>2022-11-15T12:57:04Z</time><name>PT6088</name></trkpt>
<trkpt lat="51.559046" lon="03.822090"><ele>12.9</ele><time>2022-11-15T12:57:05Z</time><name>PT6089</name></trkpt>
<trkpt lat="51.559056" lon="03.822090"><ele>12.6</ele><time>2022-11-15T12:57:06Z</time><name>PT6090</name></trkpt>
<trkpt lat="51.559071" lon="03.822089"><ele>12.6</ele><time>2022-11-15T12:57:07Z</time><name>PT6091</name></trkpt>
<trkpt lat="51.559089" lon="03.822090"><ele>12.6</ele><time>2022-11-15T12:57:08Z</time><name>PT6092</name></trkpt>
<trkpt lat="51.559109" lon="03.822089"><ele>12.6</ele><time>2022-11-15T12:57:08Z</time><name>PT6093</name></trkpt>
<trkpt lat="51.559128" lon="03.822087"><ele>12.2</ele><time>2022-11-15T12:57:10Z</time><name>PT6094</name></trkpt>
<trkpt lat="51.559146" lon="03.822081"><ele>12.1</ele><time>2022-11-15T12:57:10Z</time><name>PT6095</name></trkpt>
<trkpt lat="51.559159" lon="03.822078"><ele>12</ele><time>2022-11-15T12:57:12Z</time><name>PT6096</name></trkpt>
<trkpt lat="51.559165" lon="03.822076"><ele>11.7</ele><time>2022-11-15T12:57:12Z</time><name>PT6097</name></trkpt>
<trkpt lat="51.559167" lon="03.822074"><ele>11.7</ele><time>2022-11-15T12:57:14Z</time><name>PT6098</name></trkpt>
<trkpt lat="51.559170" lon="03.822070"><ele>11.7</ele><time>2022-11-15T12:57:14Z</time><name>PT6099</name></trkpt>
<trkpt lat="51.559174" lon="03.822069"><ele>11.7</ele><time>2022-11-15T12:57:16Z</time><name>PT6100</name></trkpt>
<trkpt lat="51.559181" lon="03.822068"><ele>11.9</ele><time>2022-11-15T12:57:16Z</time><name>PT6101</name></trkpt>
<trkpt lat="51.559195" lon="03.822069"><ele>11.7</ele><time>2022-11-15T12:57:18Z</time><name>PT6102</name></trkpt>
<trkpt lat="51.559215" lon="03.822064"><ele>11.8</ele><time>2022-11-15T12:57:18Z</time><name>PT6103</name></trkpt>
<trkpt lat="51.559236" lon="03.822062"><ele>11.5</ele><time>2022-11-15T12:57:20Z</time><name>PT6104</name></trkpt>
<trkpt lat="51.559256" lon="03.822060"><ele>11.4</ele><time>2022-11-15T12:57:20Z</time><name>PT6105</name></trkpt>
<trkpt lat="51.559272" lon="03.822057"><ele>11.2</ele><time>2022-11-15T12:57:22Z</time><name>PT6106</name></trkpt>
<trkpt lat="51.559280" lon="03.822056"><ele>11.2</ele><time>2022-11-15T12:57:22Z</time><name>PT6107</name></trkpt>
<trkpt lat="51.559282" lon="03.822053"><ele>11.1</ele><time>2022-11-15T12:57:24Z</time><name>PT6108</name></trkpt>
<trkpt lat="51.559283" lon="03.822053"><ele>11.5</ele><time>2022-11-15T12:57:24Z</time><name>PT6109</name></trkpt>
<trkpt lat="51.559287" lon="03.822054"><ele>11.6</ele><time>2022-11-15T12:57:26Z</time><name>PT6110</name></trkpt>
<trkpt lat="51.559295" lon="03.822054"><ele>11.6</ele><time>2022-11-15T12:57:26Z</time><name>PT6111</name></trkpt>
<trkpt lat="51.559309" lon="03.822056"><ele>11.8</ele><time>2022-11-15T12:57:28Z</time><name>PT6112</name></trkpt>
<trkpt lat="51.559333" lon="03.822060"><ele>12</ele><time>2022-11-15T12:57:28Z</time><name>PT6113</name></trkpt>
<trkpt lat="51.559355" lon="03.822064"><ele>11.9</ele><time>2022-11-15T12:57:30Z</time><name>PT6114</name></trkpt>
<trkpt lat="51.559376" lon="03.822067"><ele>11.9</ele><time>2022-11-15T12:57:30Z</time><name>PT6115</name></trkpt>
<trkpt lat="51.559392" lon="03.822068"><ele>12</ele><time>2022-11-15T12:57:32Z</time><name>PT6116</name></trkpt>
<trkpt lat="51.559405" lon="03.822069"><ele>12.1</ele><time>2022-11-15T12:57:32Z</time><name>PT6117</name></trkpt>
<trkpt lat="51.559415" lon="03.822070"><ele>11.8</ele><time>2022-11-15T12:57:34Z</time><name>PT6118</name></trkpt>
<trkpt lat="51.559421" lon="03.822075"><ele>11.8</ele><time>2022-11-15T12:57:34Z</time><name>PT6119</name></trkpt>
<trkpt lat="51.559423" lon="03.822076"><ele>11.9</ele><time>2022-11-15T12:57:36Z</time><name>PT6120</name></trkpt>
<trkpt lat="51.559422" lon="03.822079"><ele>11.7</ele><time>2022-11-15T12:57:36Z</time><name>PT6121</name></trkpt>
<trkpt lat="51.559424" lon="03.822081"><ele>11.6</ele><time>2022-11-15T12:57:38Z</time><name>PT6122</name></trkpt>
<trkpt lat="51.559428" lon="03.822083"><ele>11.5</ele><time>2022-11-15T12:57:38Z</time><name>PT6123</name></trkpt>
<trkpt lat="51.559437" lon="03.822085"><ele>11.4</ele><time>2022-11-15T12:57:40Z</time><name>PT6124</name></trkpt>
<trkpt lat="51.559450" lon="03.822091"><ele>11.1</ele><time>2022-11-15T12:57:40Z</time><name>PT6125</name></trkpt>
<trkpt lat="51.559466" lon="03.822096"><ele>11.1</ele><time>2022-11-15T12:57:42Z</time><name>PT6126</name></trkpt>
<trkpt lat="51.559486" lon="03.822102"><ele>11</ele><time>2022-11-15T12:57:42Z</time><name>PT6127</name></trkpt>
<trkpt lat="51.559509" lon="03.822111"><ele>11.1</ele><time>2022-11-15T12:57:44Z</time><name>PT6128</name></trkpt>
<trkpt lat="51.559530" lon="03.822116"><ele>11.2</ele><time>2022-11-15T12:57:44Z</time><name>PT6129</name></trkpt>
<trkpt lat="51.559546" lon="03.822115"><ele>11.4</ele><time>2022-11-15T12:57:46Z</time><name>PT6130</name></trkpt>
<trkpt lat="51.559559" lon="03.822114"><ele>11.3</ele><time>2022-11-15T12:57:46Z</time><name>PT6131</name></trkpt>
<trkpt lat="51.559568" lon="03.822113"><ele>11.5</ele><time>2022-11-15T12:57:48Z</time><name>PT6132</name></trkpt>
<trkpt lat="51.559571" lon="03.822110"><ele>11.3</ele><time>2022-11-15T12:57:48Z</time><name>PT6133</name></trkpt>
<trkpt lat="51.559573" lon="03.822111"><ele>11.3</ele><time>2022-11-15T12:57:50Z</time><name>PT6134</name></trkpt>
<trkpt lat="51.559576" lon="03.822113"><ele>11.1</ele><time>2022-11-15T12:57:50Z</time><name>PT6135</name></trkpt>
<trkpt lat="51.559579" lon="03.822115"><ele>11.1</ele><time>2022-11-15T12:57:52Z</time><name>PT6136</name></trkpt>
<trkpt lat="51.559581" lon="03.822116"><ele>11</ele><time>2022-11-15T12:57:52Z</time><name>PT6137</name></trkpt>
<trkpt lat="51.559589" lon="03.822119"><ele>10.9</ele><time>2022-11-15T12:57:54Z</time><name>PT6138</name></trkpt>
<trkpt lat="51.559605" lon="03.822124"><ele>10.8</ele><time>2022-11-15T12:57:54Z</time><name>PT6139</name></trkpt>
<trkpt lat="51.559627" lon="03.822134"><ele>10.9</ele><time>2022-11-15T12:57:56Z</time><name>PT6140</name></trkpt>
<trkpt lat="51.559648" lon="03.822142"><ele>10.9</ele><time>2022-11-15T12:57:56Z</time><name>PT6141</name></trkpt>
<trkpt lat="51.559669" lon="03.822148"><ele>10.8</ele><time>2022-11-15T12:57:58Z</time><name>PT6142</name></trkpt>
<trkpt lat="51.559688" lon="03.822152"><ele>11</ele><time>2022-11-15T12:57:58Z</time><name>PT6143</name></trkpt>
<trkpt lat="51.559703" lon="03.822153"><ele>10.8</ele><time>2022-11-15T12:58:00Z</time><name>PT6144</name></trkpt>
<trkpt lat="51.559715" lon="03.822155"><ele>10.8</ele><time>2022-11-15T12:58:01Z</time><name>PT6145</name></trkpt>
<trkpt lat="51.559722" lon="03.822155"><ele>10.8</ele><time>2022-11-15T12:58:02Z</time><name>PT6146</name></trkpt>
<trkpt lat="51.559725" lon="03.822154"><ele>10.5</ele><time>2022-11-15T12:58:02Z</time><name>PT6147</name></trkpt>
<trkpt lat="51.559727" lon="03.822154"><ele>10.5</ele><time>2022-11-15T12:58:04Z</time><name>PT6148</name></trkpt>
<trkpt lat="51.559729" lon="03.822154"><ele>10.5</ele><time>2022-11-15T12:58:04Z</time><name>PT6149</name></trkpt>
<trkpt lat="51.559731" lon="03.822156"><ele>10.5</ele><time>2022-11-15T12:58:08Z</time><name>PT6150</name></trkpt>
<trkpt lat="51.559740" lon="03.822162"><ele>10.3</ele><time>2022-11-15T12:58:09Z</time><name>PT6151</name></trkpt>
<trkpt lat="51.559756" lon="03.822167"><ele>10</ele><time>2022-11-15T12:58:10Z</time><name>PT6152</name></trkpt>
<trkpt lat="51.559774" lon="03.822172"><ele>10</ele><time>2022-11-15T12:58:11Z</time><name>PT6153</name></trkpt>
<trkpt lat="51.559798" lon="03.822186"><ele>10</ele><time>2022-11-15T12:58:12Z</time><name>PT6154</name></trkpt>
<trkpt lat="51.559820" lon="03.822196"><ele>10</ele><time>2022-11-15T12:58:13Z</time><name>PT6155</name></trkpt>
<trkpt lat="51.559839" lon="03.822202"><ele>10.1</ele><time>2022-11-15T12:58:14Z</time><name>PT6156</name></trkpt>
<trkpt lat="51.559857" lon="03.822205"><ele>10.4</ele><time>2022-11-15T12:58:15Z</time><name>PT6157</name></trkpt>
<trkpt lat="51.559872" lon="03.822207"><ele>10.3</ele><time>2022-11-15T12:58:16Z</time><name>PT6158</name></trkpt>
<trkpt lat="51.559883" lon="03.822206"><ele>10.1</ele><time>2022-11-15T12:58:17Z</time><name>PT6159</name></trkpt>
<trkpt lat="51.559892" lon="03.822206"><ele>10.1</ele><time>2022-11-15T12:58:18Z</time><name>PT6160</name></trkpt>
<trkpt lat="51.559898" lon="03.822206"><ele>10</ele><time>2022-11-15T12:58:19Z</time><name>PT6161</name></trkpt>
<trkpt lat="51.559902" lon="03.822205"><ele>9.9</ele><time>2022-11-15T12:58:20Z</time><name>PT6162</name></trkpt>
<trkpt lat="51.559904" lon="03.822204"><ele>10</ele><time>2022-11-15T12:58:21Z</time><name>PT6163</name></trkpt>
<trkpt lat="51.559906" lon="03.822208"><ele>10.1</ele><time>2022-11-15T12:58:22Z</time><name>PT6164</name></trkpt>
<trkpt lat="51.559910" lon="03.822210"><ele>10.1</ele><time>2022-11-15T12:58:23Z</time><name>PT6165</name></trkpt>
<trkpt lat="51.559919" lon="03.822212"><ele>10.2</ele><time>2022-11-15T12:58:24Z</time><name>PT6166</name></trkpt>
<trkpt lat="51.559932" lon="03.822215"><ele>10.3</ele><time>2022-11-15T12:58:25Z</time><name>PT6167</name></trkpt>
<trkpt lat="51.559947" lon="03.822215"><ele>10.2</ele><time>2022-11-15T12:58:26Z</time><name>PT6168</name></trkpt>
<trkpt lat="51.559966" lon="03.822223"><ele>10.3</ele><time>2022-11-15T12:58:26Z</time><name>PT6169</name></trkpt>
<trkpt lat="51.559989" lon="03.822230"><ele>10.2</ele><time>2022-11-15T12:58:28Z</time><name>PT6170</name></trkpt>
<trkpt lat="51.560011" lon="03.822232"><ele>10.2</ele><time>2022-11-15T12:58:28Z</time><name>PT6171</name></trkpt>
<trkpt lat="51.560027" lon="03.822231"><ele>10.4</ele><time>2022-11-15T12:58:30Z</time><name>PT6172</name></trkpt>
<trkpt lat="51.560036" lon="03.822227"><ele>10.5</ele><time>2022-11-15T12:58:30Z</time><name>PT6173</name></trkpt>
<trkpt lat="51.560041" lon="03.822225"><ele>10.8</ele><time>2022-11-15T12:58:32Z</time><name>PT6174</name></trkpt>
<trkpt lat="51.560044" lon="03.822224"><ele>10.8</ele><time>2022-11-15T12:58:32Z</time><name>PT6175</name></trkpt>
<trkpt lat="51.560048" lon="03.822224"><ele>10.9</ele><time>2022-11-15T12:58:34Z</time><name>PT6176</name></trkpt>
<trkpt lat="51.560056" lon="03.822228"><ele>10.8</ele><time>2022-11-15T12:58:34Z</time><name>PT6177</name></trkpt>
<trkpt lat="51.560069" lon="03.822233"><ele>10.7</ele><time>2022-11-15T12:58:36Z</time><name>PT6178</name></trkpt>
<trkpt lat="51.560085" lon="03.822241"><ele>10.5</ele><time>2022-11-15T12:58:36Z</time><name>PT6179</name></trkpt>
<trkpt lat="51.560105" lon="03.822247"><ele>10.5</ele><time>2022-11-15T12:58:38Z</time><name>PT6180</name></trkpt>
<trkpt lat="51.560123" lon="03.822254"><ele>10.7</ele><time>2022-11-15T12:58:38Z</time><name>PT6181</name></trkpt>
<trkpt lat="51.560141" lon="03.822258"><ele>10.7</ele><time>2022-11-15T12:58:40Z</time><name>PT6182</name></trkpt>
<trkpt lat="51.560153" lon="03.822259"><ele>10.7</ele><time>2022-11-15T12:58:40Z</time><name>PT6183</name></trkpt>
<trkpt lat="51.560162" lon="03.822258"><ele>10.7</ele><time>2022-11-15T12:58:42Z</time><name>PT6184</name></trkpt>
<trkpt lat="51.560167" lon="03.822256"><ele>10.7</ele><time>2022-11-15T12:58:42Z</time><name>PT6185</name></trkpt>
<trkpt lat="51.560170" lon="03.822256"><ele>10.6</ele><time>2022-11-15T12:58:44Z</time><name>PT6186</name></trkpt>
<trkpt lat="51.560175" lon="03.822258"><ele>10.5</ele><time>2022-11-15T12:58:44Z</time><name>PT6187</name></trkpt>
<trkpt lat="51.560188" lon="03.822263"><ele>10.5</ele><time>2022-11-15T12:58:46Z</time><name>PT6188</name></trkpt>
<trkpt lat="51.560205" lon="03.822272"><ele>10.5</ele><time>2022-11-15T12:58:46Z</time><name>PT6189</name></trkpt>
<trkpt lat="51.560226" lon="03.822278"><ele>10.3</ele><time>2022-11-15T12:58:48Z</time><name>PT6190</name></trkpt>
<trkpt lat="51.560244" lon="03.822286"><ele>10.2</ele><time>2022-11-15T12:58:48Z</time><name>PT6191</name></trkpt>
<trkpt lat="51.560257" lon="03.822290"><ele>10.1</ele><time>2022-11-15T12:58:50Z</time><name>PT6192</name></trkpt>
<trkpt lat="51.560269" lon="03.822292"><ele>10.4</ele><time>2022-11-15T12:58:50Z</time><name>PT6193</name></trkpt>
<trkpt lat="51.560277" lon="03.822294"><ele>10.3</ele><time>2022-11-15T12:58:52Z</time><name>PT6194</name></trkpt>
<trkpt lat="51.560286" lon="03.822296"><ele>10.5</ele><time>2022-11-15T12:58:52Z</time><name>PT6195</name></trkpt>
<trkpt lat="51.560297" lon="03.822296"><ele>10.6</ele><time>2022-11-15T12:58:54Z</time><name>PT6196</name></trkpt>
<trkpt lat="51.560307" lon="03.822299"><ele>10.7</ele><time>2022-11-15T12:58:54Z</time><name>PT6197</name></trkpt>
<trkpt lat="51.560316" lon="03.822304"><ele>10.7</ele><time>2022-11-15T12:58:56Z</time><name>PT6198</name></trkpt>
<trkpt lat="51.560325" lon="03.822304"><ele>10.8</ele><time>2022-11-15T12:58:56Z</time><name>PT6199</name></trkpt>
<trkpt lat="51.560336" lon="03.822306"><ele>10.7</ele><time>2022-11-15T12:58:58Z</time><name>PT6200</name></trkpt>
<trkpt lat="51.560347" lon="03.822306"><ele>10.6</ele><time>2022-11-15T12:58:58Z</time><name>PT6201</name></trkpt>
<trkpt lat="51.560357" lon="03.822307"><ele>10.5</ele><time>2022-11-15T12:59:00Z</time><name>PT6202</name></trkpt>
<trkpt lat="51.560366" lon="03.822310"><ele>10.5</ele><time>2022-11-15T12:59:00Z</time><name>PT6203</name></trkpt>
<trkpt lat="51.560375" lon="03.822312"><ele>10.5</ele><time>2022-11-15T12:59:02Z</time><name>PT6204</name></trkpt>
<trkpt lat="51.560385" lon="03.822315"><ele>10.5</ele><time>2022-11-15T12:59:02Z</time><name>PT6205</name></trkpt>
<trkpt lat="51.560394" lon="03.822317"><ele>10.8</ele><time>2022-11-15T12:59:04Z</time><name>PT6206</name></trkpt>
<trkpt lat="51.560404" lon="03.822321"><ele>10.8</ele><time>2022-11-15T12:59:05Z</time><name>PT6207</name></trkpt>
<trkpt lat="51.560413" lon="03.822324"><ele>11</ele><time>2022-11-15T12:59:06Z</time><name>PT6208</name></trkpt>
<trkpt lat="51.560424" lon="03.822326"><ele>11</ele><time>2022-11-15T12:59:07Z</time><name>PT6209</name></trkpt>
<trkpt lat="51.560435" lon="03.822328"><ele>11</ele><time>2022-11-15T12:59:08Z</time><name>PT6210</name></trkpt>
<trkpt lat="51.560445" lon="03.822330"><ele>10.9</ele><time>2022-11-15T12:59:09Z</time><name>PT6211</name></trkpt>
<trkpt lat="51.560455" lon="03.822331"><ele>10.9</ele><time>2022-11-15T12:59:10Z</time><name>PT6212</name></trkpt>
<trkpt lat="51.560466" lon="03.822334"><ele>10.8</ele><time>2022-11-15T12:59:11Z</time><name>PT6213</name></trkpt>
<trkpt lat="51.560477" lon="03.822338"><ele>10.7</ele><time>2022-11-15T12:59:12Z</time><name>PT6214</name></trkpt>
<trkpt lat="51.560488" lon="03.822341"><ele>10.6</ele><time>2022-11-15T12:59:13Z</time><name>PT6215</name></trkpt>
<trkpt lat="51.560498" lon="03.822345"><ele>10.7</ele><time>2022-11-15T12:59:14Z</time><name>PT6216</name></trkpt>
<trkpt lat="51.560508" lon="03.822349"><ele>10.6</ele><time>2022-11-15T12:59:15Z</time><name>PT6217</name></trkpt>
<trkpt lat="51.560516" lon="03.822354"><ele>10.8</ele><time>2022-11-15T12:59:16Z</time><name>PT6218</name></trkpt>
<trkpt lat="51.560526" lon="03.822358"><ele>10.8</ele><time>2022-11-15T12:59:17Z</time><name>PT6219</name></trkpt>
<trkpt lat="51.560536" lon="03.822362"><ele>10.8</ele><time>2022-11-15T12:59:18Z</time><name>PT6220</name></trkpt>
<trkpt lat="51.560546" lon="03.822363"><ele>10.7</ele><time>2022-11-15T12:59:19Z</time><name>PT6221</name></trkpt>
<trkpt lat="51.560556" lon="03.822363"><ele>10.8</ele><time>2022-11-15T12:59:20Z</time><name>PT6222</name></trkpt>
<trkpt lat="51.560566" lon="03.822364"><ele>10.6</ele><time>2022-11-15T12:59:20Z</time><name>PT6223</name></trkpt>
<trkpt lat="51.560574" lon="03.822366"><ele>10.5</ele><time>2022-11-15T12:59:22Z</time><name>PT6224</name></trkpt>
<trkpt lat="51.560584" lon="03.822369"><ele>10.6</ele><time>2022-11-15T12:59:22Z</time><name>PT6225</name></trkpt>
<trkpt lat="51.560593" lon="03.822373"><ele>10.6</ele><time>2022-11-15T12:59:24Z</time><name>PT6226</name></trkpt>
<trkpt lat="51.560602" lon="03.822377"><ele>10.5</ele><time>2022-11-15T12:59:24Z</time><name>PT6227</name></trkpt>
<trkpt lat="51.560611" lon="03.822382"><ele>10.8</ele><time>2022-11-15T12:59:26Z</time><name>PT6228</name></trkpt>
<trkpt lat="51.560620" lon="03.822385"><ele>10.8</ele><time>2022-11-15T12:59:26Z</time><name>PT6229</name></trkpt>
<trkpt lat="51.560630" lon="03.822387"><ele>11</ele><time>2022-11-15T12:59:28Z</time><name>PT6230</name></trkpt>
<trkpt lat="51.560638" lon="03.822387"><ele>11</ele><time>2022-11-15T12:59:28Z</time><name>PT6231</name></trkpt>
<trkpt lat="51.560647" lon="03.822391"><ele>11</ele><time>2022-11-15T12:59:30Z</time><name>PT6232</name></trkpt>
<trkpt lat="51.560656" lon="03.822396"><ele>11</ele><time>2022-11-15T12:59:30Z</time><name>PT6233</name></trkpt>
<trkpt lat="51.560666" lon="03.822400"><ele>11</ele><time>2022-11-15T12:59:32Z</time><name>PT6234</name></trkpt>
<trkpt lat="51.560676" lon="03.822403"><ele>10.8</ele><time>2022-11-15T12:59:32Z</time><name>PT6235</name></trkpt>
<trkpt lat="51.560685" lon="03.822404"><ele>10.6</ele><time>2022-11-15T12:59:34Z</time><name>PT6236</name></trkpt>
<trkpt lat="51.560696" lon="03.822404"><ele>10.4</ele><time>2022-11-15T12:59:34Z</time><name>PT6237</name></trkpt>
<trkpt lat="51.560706" lon="03.822404"><ele>10.4</ele><time>2022-11-15T12:59:36Z</time><name>PT6238</name></trkpt>
<trkpt lat="51.560714" lon="03.822404"><ele>10.4</ele><time>2022-11-15T12:59:36Z</time><name>PT6239</name></trkpt>
<trkpt lat="51.560723" lon="03.822409"><ele>10.6</ele><time>2022-11-15T12:59:38Z</time><name>PT6240</name></trkpt>
<trkpt lat="51.560733" lon="03.822416"><ele>10.8</ele><time>2022-11-15T12:59:38Z</time><name>PT6241</name></trkpt>
<trkpt lat="51.560743" lon="03.822418"><ele>11</ele><time>2022-11-15T12:59:40Z</time><name>PT6242</name></trkpt>
<trkpt lat="51.560752" lon="03.822421"><ele>11</ele><time>2022-11-15T12:59:40Z</time><name>PT6243</name></trkpt>
<trkpt lat="51.560761" lon="03.822422"><ele>11.2</ele><time>2022-11-15T12:59:42Z</time><name>PT6244</name></trkpt>
<trkpt lat="51.560770" lon="03.822424"><ele>11</ele><time>2022-11-15T12:59:42Z</time><name>PT6245</name></trkpt>
<trkpt lat="51.560779" lon="03.822425"><ele>11</ele><time>2022-11-15T12:59:44Z</time><name>PT6246</name></trkpt>
<trkpt lat="51.560787" lon="03.822428"><ele>11</ele><time>2022-11-15T12:59:44Z</time><name>PT6247</name></trkpt>
<trkpt lat="51.560794" lon="03.822432"><ele>10.8</ele><time>2022-11-15T12:59:46Z</time><name>PT6248</name></trkpt>
<trkpt lat="51.560803" lon="03.822436"><ele>10.9</ele><time>2022-11-15T12:59:46Z</time><name>PT6249</name></trkpt>
<trkpt lat="51.560812" lon="03.822440"><ele>11</ele><time>2022-11-15T12:59:48Z</time><name>PT6250</name></trkpt>
<trkpt lat="51.560822" lon="03.822443"><ele>11</ele><time>2022-11-15T12:59:48Z</time><name>PT6251</name></trkpt>
<trkpt lat="51.560833" lon="03.822444"><ele>11.1</ele><time>2022-11-15T12:59:50Z</time><name>PT6252</name></trkpt>
<trkpt lat="51.560843" lon="03.822446"><ele>11.2</ele><time>2022-11-15T12:59:50Z</time><name>PT6253</name></trkpt>
<trkpt lat="51.560853" lon="03.822447"><ele>11.2</ele><time>2022-11-15T12:59:52Z</time><name>PT6254</name></trkpt>
<trkpt lat="51.560863" lon="03.822447"><ele>11.1</ele><time>2022-11-15T12:59:52Z</time><name>PT6255</name></trkpt>
<trkpt lat="51.560871" lon="03.822449"><ele>11.3</ele><time>2022-11-15T12:59:54Z</time><name>PT6256</name></trkpt>
<trkpt lat="51.560879" lon="03.822453"><ele>11.2</ele><time>2022-11-15T12:59:54Z</time><name>PT6257</name></trkpt>
<trkpt lat="51.560887" lon="03.822457"><ele>11.2</ele><time>2022-11-15T12:59:56Z</time><name>PT6258</name></trkpt>
<trkpt lat="51.560897" lon="03.822462"><ele>11.1</ele><time>2022-11-15T12:59:56Z</time><name>PT6259</name></trkpt>
<trkpt lat="51.560906" lon="03.822467"><ele>11.1</ele><time>2022-11-15T12:59:58Z</time><name>PT6260</name></trkpt>
<trkpt lat="51.560916" lon="03.822469"><ele>11</ele><time>2022-11-15T12:59:58Z</time><name>PT6261</name></trkpt>
<trkpt lat="51.560926" lon="03.822470"><ele>11</ele><time>2022-11-15T13:00:00Z</time><name>PT6262</name></trkpt>
<trkpt lat="51.560936" lon="03.822473"><ele>10.9</ele><time>2022-11-15T13:00:00Z</time><name>PT6263</name></trkpt>
<trkpt lat="51.560947" lon="03.822475"><ele>10.6</ele><time>2022-11-15T13:00:02Z</time><name>PT6264</name></trkpt>
<trkpt lat="51.560956" lon="03.822474"><ele>10.7</ele><time>2022-11-15T13:00:02Z</time><name>PT6265</name></trkpt>
<trkpt lat="51.560965" lon="03.822476"><ele>10.7</ele><time>2022-11-15T13:00:04Z</time><name>PT6266</name></trkpt>
<trkpt lat="51.560972" lon="03.822479"><ele>10.6</ele><time>2022-11-15T13:00:04Z</time><name>PT6267</name></trkpt>
<trkpt lat="51.560982" lon="03.822483"><ele>10.8</ele><time>2022-11-15T13:00:06Z</time><name>PT6268</name></trkpt>
<trkpt lat="51.560992" lon="03.822487"><ele>10.8</ele><time>2022-11-15T13:00:06Z</time><name>PT6269</name></trkpt>
<trkpt lat="51.561003" lon="03.822489"><ele>11</ele><time>2022-11-15T13:00:08Z</time><name>PT6270</name></trkpt>
<trkpt lat="51.561011" lon="03.822493"><ele>11</ele><time>2022-11-15T13:00:08Z</time><name>PT6271</name></trkpt>
<trkpt lat="51.561020" lon="03.822499"><ele>11.1</ele><time>2022-11-15T13:00:10Z</time><name>PT6272</name></trkpt>
<trkpt lat="51.561028" lon="03.822502"><ele>11.2</ele><time>2022-11-15T13:00:10Z</time><name>PT6273</name></trkpt>
<trkpt lat="51.561037" lon="03.822503"><ele>11.4</ele><time>2022-11-15T13:00:12Z</time><name>PT6274</name></trkpt>
<trkpt lat="51.561047" lon="03.822506"><ele>11.5</ele><time>2022-11-15T13:00:12Z</time><name>PT6275</name></trkpt>
<trkpt lat="51.561057" lon="03.822508"><ele>11.5</ele><time>2022-11-15T13:00:14Z</time><name>PT6276</name></trkpt>
<trkpt lat="51.561067" lon="03.822512"><ele>11.2</ele><time>2022-11-15T13:00:14Z</time><name>PT6277</name></trkpt>
<trkpt lat="51.561078" lon="03.822516"><ele>11.2</ele><time>2022-11-15T13:00:16Z</time><name>PT6278</name></trkpt>
<trkpt lat="51.561090" lon="03.822516"><ele>11</ele><time>2022-11-15T13:00:16Z</time><name>PT6279</name></trkpt>
<trkpt lat="51.561101" lon="03.822517"><ele>11</ele><time>2022-11-15T13:00:18Z</time><name>PT6280</name></trkpt>
<trkpt lat="51.561112" lon="03.822518"><ele>11</ele><time>2022-11-15T13:00:19Z</time><name>PT6281</name></trkpt>
<trkpt lat="51.561122" lon="03.822518"><ele>11</ele><time>2022-11-15T13:00:20Z</time><name>PT6282</name></trkpt>
<trkpt lat="51.561133" lon="03.822517"><ele>11.1</ele><time>2022-11-15T13:00:20Z</time><name>PT6283</name></trkpt>
<trkpt lat="51.561142" lon="03.822516"><ele>11.1</ele><time>2022-11-15T13:00:22Z</time><name>PT6284</name></trkpt>
<trkpt lat="51.561148" lon="03.822518"><ele>11</ele><time>2022-11-15T13:00:23Z</time><name>PT6285</name></trkpt>
<trkpt lat="51.561148" lon="03.822522"><ele>10.9</ele><time>2022-11-15T13:00:24Z</time><name>PT6286</name></trkpt>
<trkpt lat="51.561149" lon="03.822521"><ele>10.9</ele><time>2022-11-15T13:00:24Z</time><name>PT6287</name></trkpt>
<trkpt lat="51.561156" lon="03.822523"><ele>10.6</ele><time>2022-11-15T13:00:26Z</time><name>PT6288</name></trkpt>
<trkpt lat="51.561165" lon="03.822525"><ele>10.5</ele><time>2022-11-15T13:00:26Z</time><name>PT6289</name></trkpt>
<trkpt lat="51.561175" lon="03.822530"><ele>10.5</ele><time>2022-11-15T13:00:28Z</time><name>PT6290</name></trkpt>
<trkpt lat="51.561187" lon="03.822532"><ele>10.6</ele><time>2022-11-15T13:00:28Z</time><name>PT6291</name></trkpt>
<trkpt lat="51.561199" lon="03.822532"><ele>10.7</ele><time>2022-11-15T13:00:30Z</time><name>PT6292</name></trkpt>
<trkpt lat="51.561209" lon="03.822532"><ele>10.8</ele><time>2022-11-15T13:00:30Z</time><name>PT6293</name></trkpt>
<trkpt lat="51.561219" lon="03.822533"><ele>11</ele><time>2022-11-15T13:00:32Z</time><name>PT6294</name></trkpt>
<trkpt lat="51.561231" lon="03.822537"><ele>11</ele><time>2022-11-15T13:00:32Z</time><name>PT6295</name></trkpt>
<trkpt lat="51.561242" lon="03.822542"><ele>11</ele><time>2022-11-15T13:00:34Z</time><name>PT6296</name></trkpt>
<trkpt lat="51.561253" lon="03.822546"><ele>11</ele><time>2022-11-15T13:00:34Z</time><name>PT6297</name></trkpt>
<trkpt lat="51.561264" lon="03.822549"><ele>11</ele><time>2022-11-15T13:00:36Z</time><name>PT6298</name></trkpt>
<trkpt lat="51.561275" lon="03.822551"><ele>11</ele><time>2022-11-15T13:00:36Z</time><name>PT6299</name></trkpt>
<trkpt lat="51.561286" lon="03.822553"><ele>10.9</ele><time>2022-11-15T13:00:38Z</time><name>PT6300</name></trkpt>
<trkpt lat="51.561297" lon="03.822555"><ele>11</ele><time>2022-11-15T13:00:39Z</time><name>PT6301</name></trkpt>
<trkpt lat="51.561307" lon="03.822555"><ele>11</ele><time>2022-11-15T13:00:40Z</time><name>PT6302</name></trkpt>
<trkpt lat="51.561316" lon="03.822559"><ele>10.9</ele><time>2022-11-15T13:00:41Z</time><name>PT6303</name></trkpt>
<trkpt lat="51.561328" lon="03.822565"><ele>10.9</ele><time>2022-11-15T13:00:42Z</time><name>PT6304</name></trkpt>
<trkpt lat="51.561339" lon="03.822571"><ele>10.9</ele><time>2022-11-15T13:00:43Z</time><name>PT6305</name></trkpt>
<trkpt lat="51.561349" lon="03.822574"><ele>11</ele><time>2022-11-15T13:00:44Z</time><name>PT6306</name></trkpt>
<trkpt lat="51.561359" lon="03.822575"><ele>11</ele><time>2022-11-15T13:00:45Z</time><name>PT6307</name></trkpt>
<trkpt lat="51.561369" lon="03.822574"><ele>11</ele><time>2022-11-15T13:00:46Z</time><name>PT6308</name></trkpt>
<trkpt lat="51.561380" lon="03.822576"><ele>10.8</ele><time>2022-11-15T13:00:47Z</time><name>PT6309</name></trkpt>
<trkpt lat="51.561391" lon="03.822578"><ele>10.9</ele><time>2022-11-15T13:00:48Z</time><name>PT6310</name></trkpt>
<trkpt lat="51.561401" lon="03.822581"><ele>10.8</ele><time>2022-11-15T13:00:49Z</time><name>PT6311</name></trkpt>
<trkpt lat="51.561410" lon="03.822584"><ele>10.6</ele><time>2022-11-15T13:00:50Z</time><name>PT6312</name></trkpt>
<trkpt lat="51.561420" lon="03.822587"><ele>10.7</ele><time>2022-11-15T13:00:50Z</time><name>PT6313</name></trkpt>
<trkpt lat="51.561431" lon="03.822590"><ele>10.7</ele><time>2022-11-15T13:00:52Z</time><name>PT6314</name></trkpt>
<trkpt lat="51.561442" lon="03.822593"><ele>10.5</ele><time>2022-11-15T13:00:52Z</time><name>PT6315</name></trkpt>
<trkpt lat="51.561453" lon="03.822595"><ele>10.3</ele><time>2022-11-15T13:00:54Z</time><name>PT6316</name></trkpt>
<trkpt lat="51.561464" lon="03.822597"><ele>10.3</ele><time>2022-11-15T13:00:55Z</time><name>PT6317</name></trkpt>
<trkpt lat="51.561472" lon="03.822599"><ele>10.3</ele><time>2022-11-15T13:00:56Z</time><name>PT6318</name></trkpt>
<trkpt lat="51.561481" lon="03.822601"><ele>10.5</ele><time>2022-11-15T13:00:56Z</time><name>PT6319</name></trkpt>
<trkpt lat="51.561492" lon="03.822605"><ele>10.5</ele><time>2022-11-15T13:00:58Z</time><name>PT6320</name></trkpt>
<trkpt lat="51.561503" lon="03.822609"><ele>10.9</ele><time>2022-11-15T13:00:58Z</time><name>PT6321</name></trkpt>
<trkpt lat="51.561513" lon="03.822610"><ele>11</ele><time>2022-11-15T13:01:00Z</time><name>PT6322</name></trkpt>
<trkpt lat="51.561523" lon="03.822611"><ele>10.9</ele><time>2022-11-15T13:01:00Z</time><name>PT6323</name></trkpt>
<trkpt lat="51.561533" lon="03.822612"><ele>10.9</ele><time>2022-11-15T13:01:02Z</time><name>PT6324</name></trkpt>
<trkpt lat="51.561544" lon="03.822614"><ele>10.9</ele><time>2022-11-15T13:01:02Z</time><name>PT6325</name></trkpt>
<trkpt lat="51.561553" lon="03.822616"><ele>11</ele><time>2022-11-15T13:01:04Z</time><name>PT6326</name></trkpt>
<trkpt lat="51.561564" lon="03.822619"><ele>10.9</ele><time>2022-11-15T13:01:04Z</time><name>PT6327</name></trkpt>
<trkpt lat="51.561575" lon="03.822622"><ele>10.9</ele><time>2022-11-15T13:01:06Z</time><name>PT6328</name></trkpt>
<trkpt lat="51.561585" lon="03.822624"><ele>10.9</ele><time>2022-11-15T13:01:06Z</time><name>PT6329</name></trkpt>
<trkpt lat="51.561595" lon="03.822627"><ele>10.9</ele><time>2022-11-15T13:01:08Z</time><name>PT6330</name></trkpt>
<trkpt lat="51.561606" lon="03.822629"><ele>11</ele><time>2022-11-15T13:01:08Z</time><name>PT6331</name></trkpt>
<trkpt lat="51.561617" lon="03.822630"><ele>11.2</ele><time>2022-11-15T13:01:10Z</time><name>PT6332</name></trkpt>
<trkpt lat="51.561626" lon="03.822632"><ele>11.4</ele><time>2022-11-15T13:01:10Z</time><name>PT6333</name></trkpt>
<trkpt lat="51.561637" lon="03.822634"><ele>11.4</ele><time>2022-11-15T13:01:12Z</time><name>PT6334</name></trkpt>
<trkpt lat="51.561648" lon="03.822637"><ele>11.4</ele><time>2022-11-15T13:01:12Z</time><name>PT6335</name></trkpt>
<trkpt lat="51.561659" lon="03.822641"><ele>11.3</ele><time>2022-11-15T13:01:14Z</time><name>PT6336</name></trkpt>
<trkpt lat="51.561670" lon="03.822645"><ele>11.4</ele><time>2022-11-15T13:01:14Z</time><name>PT6337</name></trkpt>
<trkpt lat="51.561681" lon="03.822648"><ele>11.5</ele><time>2022-11-15T13:01:16Z</time><name>PT6338</name></trkpt>
<trkpt lat="51.561693" lon="03.822650"><ele>11.5</ele><time>2022-11-15T13:01:16Z</time><name>PT6339</name></trkpt>
<trkpt lat="51.561704" lon="03.822650"><ele>11.6</ele><time>2022-11-15T13:01:18Z</time><name>PT6340</name></trkpt>
<trkpt lat="51.561714" lon="03.822651"><ele>11.5</ele><time>2022-11-15T13:01:18Z</time><name>PT6341</name></trkpt>
<trkpt lat="51.561724" lon="03.822655"><ele>11.3</ele><time>2022-11-15T13:01:20Z</time><name>PT6342</name></trkpt>
<trkpt lat="51.561736" lon="03.822660"><ele>11.1</ele><time>2022-11-15T13:01:20Z</time><name>PT6343</name></trkpt>
<trkpt lat="51.561746" lon="03.822663"><ele>11.1</ele><time>2022-11-15T13:01:22Z</time><name>PT6344</name></trkpt>
<trkpt lat="51.561756" lon="03.822665"><ele>11</ele><time>2022-11-15T13:01:22Z</time><name>PT6345</name></trkpt>
<trkpt lat="51.561767" lon="03.822666"><ele>11</ele><time>2022-11-15T13:01:24Z</time><name>PT6346</name></trkpt>
<trkpt lat="51.561780" lon="03.822668"><ele>10.8</ele><time>2022-11-15T13:01:24Z</time><name>PT6347</name></trkpt>
<trkpt lat="51.561790" lon="03.822670"><ele>10.8</ele><time>2022-11-15T13:01:26Z</time><name>PT6348</name></trkpt>
<trkpt lat="51.561799" lon="03.822673"><ele>10.6</ele><time>2022-11-15T13:01:26Z</time><name>PT6349</name></trkpt>
<trkpt lat="51.561810" lon="03.822676"><ele>10.7</ele><time>2022-11-15T13:01:28Z</time><name>PT6350</name></trkpt>
<trkpt lat="51.561819" lon="03.822678"><ele>10.9</ele><time>2022-11-15T13:01:28Z</time><name>PT6351</name></trkpt>
<trkpt lat="51.561829" lon="03.822684"><ele>11.1</ele><time>2022-11-15T13:01:30Z</time><name>PT6352</name></trkpt>
<trkpt lat="51.561839" lon="03.822686"><ele>11</ele><time>2022-11-15T13:01:31Z</time><name>PT6353</name></trkpt>
<trkpt lat="51.561850" lon="03.822687"><ele>11.3</ele><time>2022-11-15T13:01:32Z</time><name>PT6354</name></trkpt>
<trkpt lat="51.561860" lon="03.822688"><ele>11.2</ele><time>2022-11-15T13:01:32Z</time><name>PT6355</name></trkpt>
<trkpt lat="51.561869" lon="03.822690"><ele>11</ele><time>2022-11-15T13:01:34Z</time><name>PT6356</name></trkpt>
<trkpt lat="51.561879" lon="03.822693"><ele>11</ele><time>2022-11-15T13:01:34Z</time><name>PT6357</name></trkpt>
<trkpt lat="51.561890" lon="03.822697"><ele>11.1</ele><time>2022-11-15T13:01:36Z</time><name>PT6358</name></trkpt>
<trkpt lat="51.561901" lon="03.822698"><ele>11</ele><time>2022-11-15T13:01:36Z</time><name>PT6359</name></trkpt>
<trkpt lat="51.561911" lon="03.822699"><ele>11</ele><time>2022-11-15T13:01:38Z</time><name>PT6360</name></trkpt>
<trkpt lat="51.561922" lon="03.822700"><ele>11</ele><time>2022-11-15T13:01:38Z</time><name>PT6361</name></trkpt>
<trkpt lat="51.561934" lon="03.822701"><ele>11.1</ele><time>2022-11-15T13:01:40Z</time><name>PT6362</name></trkpt>
<trkpt lat="51.561944" lon="03.822703"><ele>11.1</ele><time>2022-11-15T13:01:40Z</time><name>PT6363</name></trkpt>
<trkpt lat="51.561953" lon="03.822706"><ele>11.2</ele><time>2022-11-15T13:01:42Z</time><name>PT6364</name></trkpt>
<trkpt lat="51.561963" lon="03.822709"><ele>11.2</ele><time>2022-11-15T13:01:42Z</time><name>PT6365</name></trkpt>
<trkpt lat="51.561974" lon="03.822711"><ele>11.1</ele><time>2022-11-15T13:01:44Z</time><name>PT6366</name></trkpt>
<trkpt lat="51.561984" lon="03.822715"><ele>11</ele><time>2022-11-15T13:01:44Z</time><name>PT6367</name></trkpt>
<trkpt lat="51.561994" lon="03.822717"><ele>11</ele><time>2022-11-15T13:01:46Z</time><name>PT6368</name></trkpt>
<trkpt lat="51.562006" lon="03.822719"><ele>10.9</ele><time>2022-11-15T13:01:46Z</time><name>PT6369</name></trkpt>
<trkpt lat="51.562016" lon="03.822721"><ele>11</ele><time>2022-11-15T13:01:48Z</time><name>PT6370</name></trkpt>
<trkpt lat="51.562026" lon="03.822722"><ele>11.2</ele><time>2022-11-15T13:01:49Z</time><name>PT6371</name></trkpt>
<trkpt lat="51.562036" lon="03.822725"><ele>11.3</ele><time>2022-11-15T13:01:50Z</time><name>PT6372</name></trkpt>
<trkpt lat="51.562047" lon="03.822729"><ele>11.3</ele><time>2022-11-15T13:01:51Z</time><name>PT6373</name></trkpt>
<trkpt lat="51.562057" lon="03.822730"><ele>11.1</ele><time>2022-11-15T13:01:52Z</time><name>PT6374</name></trkpt>
<trkpt lat="51.562068" lon="03.822735"><ele>11</ele><time>2022-11-15T13:01:53Z</time><name>PT6375</name></trkpt>
<trkpt lat="51.562079" lon="03.822738"><ele>10.8</ele><time>2022-11-15T13:01:54Z</time><name>PT6376</name></trkpt>
<trkpt lat="51.562089" lon="03.822740"><ele>10.6</ele><time>2022-11-15T13:01:55Z</time><name>PT6377</name></trkpt>
<trkpt lat="51.562098" lon="03.822742"><ele>10.7</ele><time>2022-11-15T13:01:56Z</time><name>PT6378</name></trkpt>
<trkpt lat="51.562107" lon="03.822745"><ele>10.6</ele><time>2022-11-15T13:01:57Z</time><name>PT6379</name></trkpt>
<trkpt lat="51.562117" lon="03.822749"><ele>10.5</ele><time>2022-11-15T13:01:58Z</time><name>PT6380</name></trkpt>
<trkpt lat="51.562126" lon="03.822752"><ele>10.5</ele><time>2022-11-15T13:01:58Z</time><name>PT6381</name></trkpt>
<trkpt lat="51.562136" lon="03.822755"><ele>10.5</ele><time>2022-11-15T13:02:00Z</time><name>PT6382</name></trkpt>
<trkpt lat="51.562146" lon="03.822757"><ele>10.6</ele><time>2022-11-15T13:02:00Z</time><name>PT6383</name></trkpt>
<trkpt lat="51.562157" lon="03.822756"><ele>10.7</ele><time>2022-11-15T13:02:02Z</time><name>PT6384</name></trkpt>
<trkpt lat="51.562168" lon="03.822757"><ele>10.8</ele><time>2022-11-15T13:02:02Z</time><name>PT6385</name></trkpt>
<trkpt lat="51.562178" lon="03.822757"><ele>10.7</ele><time>2022-11-15T13:02:04Z</time><name>PT6386</name></trkpt>
<trkpt lat="51.562187" lon="03.822760"><ele>10.7</ele><time>2022-11-15T13:02:04Z</time><name>PT6387</name></trkpt>
<trkpt lat="51.562198" lon="03.822763"><ele>10.8</ele><time>2022-11-15T13:02:06Z</time><name>PT6388</name></trkpt>
<trkpt lat="51.562208" lon="03.822765"><ele>10.8</ele><time>2022-11-15T13:02:06Z</time><name>PT6389</name></trkpt>
<trkpt lat="51.562218" lon="03.822769"><ele>10.8</ele><time>2022-11-15T13:02:08Z</time><name>PT6390</name></trkpt>
<trkpt lat="51.562228" lon="03.822772"><ele>10.8</ele><time>2022-11-15T13:02:08Z</time><name>PT6391</name></trkpt>
<trkpt lat="51.562239" lon="03.822772"><ele>10.8</ele><time>2022-11-15T13:02:10Z</time><name>PT6392</name></trkpt>
<trkpt lat="51.562248" lon="03.822774"><ele>10.8</ele><time>2022-11-15T13:02:10Z</time><name>PT6393</name></trkpt>
<trkpt lat="51.562258" lon="03.822780"><ele>11</ele><time>2022-11-15T13:02:12Z</time><name>PT6394</name></trkpt>
<trkpt lat="51.562267" lon="03.822785"><ele>11</ele><time>2022-11-15T13:02:12Z</time><name>PT6395</name></trkpt>
<trkpt lat="51.562276" lon="03.822788"><ele>11</ele><time>2022-11-15T13:02:14Z</time><name>PT6396</name></trkpt>
<trkpt lat="51.562286" lon="03.822790"><ele>10.9</ele><time>2022-11-15T13:02:14Z</time><name>PT6397</name></trkpt>
<trkpt lat="51.562297" lon="03.822792"><ele>10.8</ele><time>2022-11-15T13:02:16Z</time><name>PT6398</name></trkpt>
<trkpt lat="51.562308" lon="03.822793"><ele>10.6</ele><time>2022-11-15T13:02:16Z</time><name>PT6399</name></trkpt>
<trkpt lat="51.562318" lon="03.822796"><ele>10.6</ele><time>2022-11-15T13:02:18Z</time><name>PT6400</name></trkpt>
<trkpt lat="51.562328" lon="03.822800"><ele>10.8</ele><time>2022-11-15T13:02:18Z</time><name>PT6401</name></trkpt>
<trkpt lat="51.562339" lon="03.822805"><ele>10.9</ele><time>2022-11-15T13:02:20Z</time><name>PT6402</name></trkpt>
<trkpt lat="51.562349" lon="03.822810"><ele>10.9</ele><time>2022-11-15T13:02:20Z</time><name>PT6403</name></trkpt>
<trkpt lat="51.562359" lon="03.822811"><ele>11</ele><time>2022-11-15T13:02:22Z</time><name>PT6404</name></trkpt>
<trkpt lat="51.562370" lon="03.822813"><ele>11</ele><time>2022-11-15T13:02:22Z</time><name>PT6405</name></trkpt>
<trkpt lat="51.562380" lon="03.822813"><ele>11</ele><time>2022-11-15T13:02:24Z</time><name>PT6406</name></trkpt>
<trkpt lat="51.562389" lon="03.822814"><ele>11</ele><time>2022-11-15T13:02:24Z</time><name>PT6407</name></trkpt>
<trkpt lat="51.562399" lon="03.822816"><ele>11</ele><time>2022-11-15T13:02:26Z</time><name>PT6408</name></trkpt>
<trkpt lat="51.562410" lon="03.822819"><ele>11</ele><time>2022-11-15T13:02:26Z</time><name>PT6409</name></trkpt>
<trkpt lat="51.562420" lon="03.822823"><ele>10.8</ele><time>2022-11-15T13:02:28Z</time><name>PT6410</name></trkpt>
<trkpt lat="51.562429" lon="03.822826"><ele>11</ele><time>2022-11-15T13:02:28Z</time><name>PT6411</name></trkpt>
<trkpt lat="51.562438" lon="03.822828"><ele>11</ele><time>2022-11-15T13:02:30Z</time><name>PT6412</name></trkpt>
<trkpt lat="51.562448" lon="03.822831"><ele>11.1</ele><time>2022-11-15T13:02:30Z</time><name>PT6413</name></trkpt>
<trkpt lat="51.562459" lon="03.822833"><ele>11.2</ele><time>2022-11-15T13:02:32Z</time><name>PT6414</name></trkpt>
<trkpt lat="51.562468" lon="03.822837"><ele>11.3</ele><time>2022-11-15T13:02:32Z</time><name>PT6415</name></trkpt>
<trkpt lat="51.562477" lon="03.822839"><ele>11.1</ele><time>2022-11-15T13:02:34Z</time><name>PT6416</name></trkpt>
<trkpt lat="51.562485" lon="03.822842"><ele>11</ele><time>2022-11-15T13:02:34Z</time><name>PT6417</name></trkpt>
<trkpt lat="51.562495" lon="03.822844"><ele>11</ele><time>2022-11-15T13:02:36Z</time><name>PT6418</name></trkpt>
<trkpt lat="51.562505" lon="03.822846"><ele>10.9</ele><time>2022-11-15T13:02:36Z</time><name>PT6419</name></trkpt>
<trkpt lat="51.562515" lon="03.822849"><ele>10.9</ele><time>2022-11-15T13:02:38Z</time><name>PT6420</name></trkpt>
<trkpt lat="51.562525" lon="03.822851"><ele>11</ele><time>2022-11-15T13:02:38Z</time><name>PT6421</name></trkpt>
<trkpt lat="51.562534" lon="03.822854"><ele>10.9</ele><time>2022-11-15T13:02:40Z</time><name>PT6422</name></trkpt>
<trkpt lat="51.562544" lon="03.822857"><ele>11</ele><time>2022-11-15T13:02:40Z</time><name>PT6423</name></trkpt>
<trkpt lat="51.562554" lon="03.822858"><ele>11</ele><time>2022-11-15T13:02:42Z</time><name>PT6424</name></trkpt>
<trkpt lat="51.562563" lon="03.822858"><ele>11</ele><time>2022-11-15T13:02:43Z</time><name>PT6425</name></trkpt>
<trkpt lat="51.562574" lon="03.822859"><ele>11</ele><time>2022-11-15T13:02:44Z</time><name>PT6426</name></trkpt>
<trkpt lat="51.562584" lon="03.822859"><ele>11</ele><time>2022-11-15T13:02:44Z</time><name>PT6427</name></trkpt>
<trkpt lat="51.562594" lon="03.822862"><ele>11</ele><time>2022-11-15T13:02:46Z</time><name>PT6428</name></trkpt>
<trkpt lat="51.562603" lon="03.822867"><ele>11.2</ele><time>2022-11-15T13:02:47Z</time><name>PT6429</name></trkpt>
<trkpt lat="51.562613" lon="03.822871"><ele>11.3</ele><time>2022-11-15T13:02:48Z</time><name>PT6430</name></trkpt>
<trkpt lat="51.562621" lon="03.822874"><ele>11.3</ele><time>2022-11-15T13:02:49Z</time><name>PT6431</name></trkpt>
<trkpt lat="51.562631" lon="03.822875"><ele>11.2</ele><time>2022-11-15T13:02:49Z</time><name>PT6432</name></trkpt>
<trkpt lat="51.562640" lon="03.822877"><ele>11.1</ele><time>2022-11-15T13:02:51Z</time><name>PT6433</name></trkpt>
<trkpt lat="51.562651" lon="03.822880"><ele>11</ele><time>2022-11-15T13:02:52Z</time><name>PT6434</name></trkpt>
<trkpt lat="51.562661" lon="03.822885"><ele>11</ele><time>2022-11-15T13:02:53Z</time><name>PT6435</name></trkpt>
<trkpt lat="51.562671" lon="03.822886"><ele>11.2</ele><time>2022-11-15T13:02:53Z</time><name>PT6436</name></trkpt>
<trkpt lat="51.562681" lon="03.822888"><ele>11.4</ele><time>2022-11-15T13:02:55Z</time><name>PT6437</name></trkpt>
<trkpt lat="51.562691" lon="03.822890"><ele>11.4</ele><time>2022-11-15T13:02:56Z</time><name>PT6438</name></trkpt>
<trkpt lat="51.562702" lon="03.822891"><ele>11.5</ele><time>2022-11-15T13:02:57Z</time><name>PT6439</name></trkpt>
<trkpt lat="51.562712" lon="03.822892"><ele>11.6</ele><time>2022-11-15T13:02:57Z</time><name>PT6440</name></trkpt>
<trkpt lat="51.562723" lon="03.822894"><ele>11.7</ele><time>2022-11-15T13:02:59Z</time><name>PT6441</name></trkpt>
<trkpt lat="51.562733" lon="03.822898"><ele>11.7</ele><time>2022-11-15T13:02:59Z</time><name>PT6442</name></trkpt>
<trkpt lat="51.562743" lon="03.822903"><ele>11.8</ele><time>2022-11-15T13:03:01Z</time><name>PT6443</name></trkpt>
<trkpt lat="51.562754" lon="03.822907"><ele>11.8</ele><time>2022-11-15T13:03:01Z</time><name>PT6444</name></trkpt>
<trkpt lat="51.562764" lon="03.822909"><ele>11.8</ele><time>2022-11-15T13:03:03Z</time><name>PT6445</name></trkpt>
<trkpt lat="51.562774" lon="03.822909"><ele>11.9</ele><time>2022-11-15T13:03:03Z</time><name>PT6446</name></trkpt>
<trkpt lat="51.562783" lon="03.822912"><ele>12.1</ele><time>2022-11-15T13:03:05Z</time><name>PT6447</name></trkpt>
<trkpt lat="51.562793" lon="03.822914"><ele>12.1</ele><time>2022-11-15T13:03:05Z</time><name>PT6448</name></trkpt>
<trkpt lat="51.562802" lon="03.822918"><ele>12</ele><time>2022-11-15T13:03:07Z</time><name>PT6449</name></trkpt>
<trkpt lat="51.562812" lon="03.822923"><ele>12.1</ele><time>2022-11-15T13:03:07Z</time><name>PT6450</name></trkpt>
<trkpt lat="51.562821" lon="03.822926"><ele>12.1</ele><time>2022-11-15T13:03:09Z</time><name>PT6451</name></trkpt>
<trkpt lat="51.562831" lon="03.822929"><ele>12.1</ele><time>2022-11-15T13:03:09Z</time><name>PT6452</name></trkpt>
<trkpt lat="51.562842" lon="03.822929"><ele>12.3</ele><time>2022-11-15T13:03:11Z</time><name>PT6453</name></trkpt>
<trkpt lat="51.562853" lon="03.822931"><ele>12.4</ele><time>2022-11-15T13:03:11Z</time><name>PT6454</name></trkpt>
<trkpt lat="51.562863" lon="03.822930"><ele>12.4</ele><time>2022-11-15T13:03:13Z</time><name>PT6455</name></trkpt>
<trkpt lat="51.562873" lon="03.822933"><ele>12.4</ele><time>2022-11-15T13:03:13Z</time><name>PT6456</name></trkpt>
<trkpt lat="51.562884" lon="03.822936"><ele>12.5</ele><time>2022-11-15T13:03:15Z</time><name>PT6457</name></trkpt>
<trkpt lat="51.562894" lon="03.822939"><ele>12.5</ele><time>2022-11-15T13:03:15Z</time><name>PT6458</name></trkpt>
<trkpt lat="51.562904" lon="03.822942"><ele>12.5</ele><time>2022-11-15T13:03:17Z</time><name>PT6459</name></trkpt>
<trkpt lat="51.562914" lon="03.822944"><ele>12.6</ele><time>2022-11-15T13:03:17Z</time><name>PT6460</name></trkpt>
<trkpt lat="51.562924" lon="03.822946"><ele>12.8</ele><time>2022-11-15T13:03:19Z</time><name>PT6461</name></trkpt>
<trkpt lat="51.562933" lon="03.822946"><ele>12.8</ele><time>2022-11-15T13:03:19Z</time><name>PT6462</name></trkpt>
<trkpt lat="51.562943" lon="03.822948"><ele>12.9</ele><time>2022-11-15T13:03:21Z</time><name>PT6463</name></trkpt>
<trkpt lat="51.562952" lon="03.822952"><ele>13</ele><time>2022-11-15T13:03:21Z</time><name>PT6464</name></trkpt>
<trkpt lat="51.562961" lon="03.822953"><ele>12.8</ele><time>2022-11-15T13:03:23Z</time><name>PT6465</name></trkpt>
<trkpt lat="51.562970" lon="03.822956"><ele>12.7</ele><time>2022-11-15T13:03:24Z</time><name>PT6466</name></trkpt>
<trkpt lat="51.562980" lon="03.822959"><ele>12.8</ele><time>2022-11-15T13:03:25Z</time><name>PT6467</name></trkpt>
<trkpt lat="51.562989" lon="03.822962"><ele>12.9</ele><time>2022-11-15T13:03:25Z</time><name>PT6468</name></trkpt>
<trkpt lat="51.562998" lon="03.822964"><ele>13</ele><time>2022-11-15T13:03:27Z</time><name>PT6469</name></trkpt>
<trkpt lat="51.563007" lon="03.822968"><ele>13.1</ele><time>2022-11-15T13:03:27Z</time><name>PT6470</name></trkpt>
<trkpt lat="51.563017" lon="03.822971"><ele>13</ele><time>2022-11-15T13:03:29Z</time><name>PT6471</name></trkpt>
<trkpt lat="51.563026" lon="03.822973"><ele>13.1</ele><time>2022-11-15T13:03:29Z</time><name>PT6472</name></trkpt>
<trkpt lat="51.563035" lon="03.822974"><ele>13.1</ele><time>2022-11-15T13:03:31Z</time><name>PT6473</name></trkpt>
<trkpt lat="51.563045" lon="03.822975"><ele>13.3</ele><time>2022-11-15T13:03:31Z</time><name>PT6474</name></trkpt>
<trkpt lat="51.563054" lon="03.822976"><ele>13.4</ele><time>2022-11-15T13:03:33Z</time><name>PT6475</name></trkpt>
<trkpt lat="51.563065" lon="03.822978"><ele>13.5</ele><time>2022-11-15T13:03:33Z</time><name>PT6476</name></trkpt>
<trkpt lat="51.563075" lon="03.822981"><ele>13.3</ele><time>2022-11-15T13:03:35Z</time><name>PT6477</name></trkpt>
<trkpt lat="51.563086" lon="03.822984"><ele>13.2</ele><time>2022-11-15T13:03:35Z</time><name>PT6478</name></trkpt>
<trkpt lat="51.563095" lon="03.822987"><ele>13.4</ele><time>2022-11-15T13:03:37Z</time><name>PT6479</name></trkpt>
<trkpt lat="51.563104" lon="03.822991"><ele>13.3</ele><time>2022-11-15T13:03:37Z</time><name>PT6480</name></trkpt>
<trkpt lat="51.563114" lon="03.822994"><ele>13.5</ele><time>2022-11-15T13:03:39Z</time><name>PT6481</name></trkpt>
<trkpt lat="51.563125" lon="03.822996"><ele>13.6</ele><time>2022-11-15T13:03:39Z</time><name>PT6482</name></trkpt>
<trkpt lat="51.563135" lon="03.822998"><ele>13.6</ele><time>2022-11-15T13:03:41Z</time><name>PT6483</name></trkpt>
<trkpt lat="51.563144" lon="03.823000"><ele>13.6</ele><time>2022-11-15T13:03:41Z</time><name>PT6484</name></trkpt>
<trkpt lat="51.563153" lon="03.823001"><ele>13.8</ele><time>2022-11-15T13:03:43Z</time><name>PT6485</name></trkpt>
<trkpt lat="51.563162" lon="03.823001"><ele>14</ele><time>2022-11-15T13:03:43Z</time><name>PT6486</name></trkpt>
<trkpt lat="51.563171" lon="03.822997"><ele>14.1</ele><time>2022-11-15T13:03:45Z</time><name>PT6487</name></trkpt>
<trkpt lat="51.563179" lon="03.822991"><ele>14.2</ele><time>2022-11-15T13:03:45Z</time><name>PT6488</name></trkpt>
<trkpt lat="51.563188" lon="03.822985"><ele>14.1</ele><time>2022-11-15T13:03:47Z</time><name>PT6489</name></trkpt>
<trkpt lat="51.563196" lon="03.822979"><ele>14.3</ele><time>2022-11-15T13:03:47Z</time><name>PT6490</name></trkpt>
<trkpt lat="51.563203" lon="03.822969"><ele>14.4</ele><time>2022-11-15T13:03:49Z</time><name>PT6491</name></trkpt>
<trkpt lat="51.563208" lon="03.822957"><ele>14.4</ele><time>2022-11-15T13:03:49Z</time><name>PT6492</name></trkpt>
<trkpt lat="51.563213" lon="03.822948"><ele>14.5</ele><time>2022-11-15T13:03:51Z</time><name>PT6493</name></trkpt>
<trkpt lat="51.563220" lon="03.822938"><ele>14.5</ele><time>2022-11-15T13:03:51Z</time><name>PT6494</name></trkpt>
<trkpt lat="51.563225" lon="03.822931"><ele>14.3</ele><time>2022-11-15T13:03:53Z</time><name>PT6495</name></trkpt>
<trkpt lat="51.563230" lon="03.822917"><ele>14.1</ele><time>2022-11-15T13:03:53Z</time><name>PT6496</name></trkpt>
<trkpt lat="51.563234" lon="03.822906"><ele>13.9</ele><time>2022-11-15T13:03:55Z</time><name>PT6497</name></trkpt>
<trkpt lat="51.563236" lon="03.822905"><ele>13.7</ele><time>2022-11-15T13:03:55Z</time><name>PT6498</name></trkpt>
<trkpt lat="51.563238" lon="03.822900"><ele>13.4</ele><time>2022-11-15T13:03:57Z</time><name>PT6499</name></trkpt>
<trkpt lat="51.563241" lon="03.822888"><ele>13.3</ele><time>2022-11-15T13:03:57Z</time><name>PT6500</name></trkpt>
<trkpt lat="51.563244" lon="03.822874"><ele>13.6</ele><time>2022-11-15T13:03:59Z</time><name>PT6501</name></trkpt>
<trkpt lat="51.563246" lon="03.822859"><ele>13.8</ele><time>2022-11-15T13:03:59Z</time><name>PT6502</name></trkpt>
<trkpt lat="51.563245" lon="03.822844"><ele>13.7</ele><time>2022-11-15T13:04:01Z</time><name>PT6503</name></trkpt>
<trkpt lat="51.563245" lon="03.822828"><ele>13.9</ele><time>2022-11-15T13:04:01Z</time><name>PT6504</name></trkpt>
<trkpt lat="51.563244" lon="03.822814"><ele>13.8</ele><time>2022-11-15T13:04:03Z</time><name>PT6505</name></trkpt>
<trkpt lat="51.563244" lon="03.822797"><ele>13.7</ele><time>2022-11-15T13:04:03Z</time><name>PT6506</name></trkpt>
<trkpt lat="51.563244" lon="03.822781"><ele>13.6</ele><time>2022-11-15T13:04:05Z</time><name>PT6507</name></trkpt>
<trkpt lat="51.563245" lon="03.822767"><ele>13.6</ele><time>2022-11-15T13:04:05Z</time><name>PT6508</name></trkpt>
<trkpt lat="51.563247" lon="03.822750"><ele>13.6</ele><time>2022-11-15T13:04:07Z</time><name>PT6509</name></trkpt>
<trkpt lat="51.563247" lon="03.822736"><ele>13.6</ele><time>2022-11-15T13:04:07Z</time><name>PT6510</name></trkpt>
<trkpt lat="51.563248" lon="03.822720"><ele>13.7</ele><time>2022-11-15T13:04:09Z</time><name>PT6511</name></trkpt>
<trkpt lat="51.563248" lon="03.822704"><ele>13.6</ele><time>2022-11-15T13:04:09Z</time><name>PT6512</name></trkpt>
<trkpt lat="51.563248" lon="03.822686"><ele>13.6</ele><time>2022-11-15T13:04:11Z</time><name>PT6513</name></trkpt>
<trkpt lat="51.563249" lon="03.822670"><ele>13.6</ele><time>2022-11-15T13:04:11Z</time><name>PT6514</name></trkpt>
<trkpt lat="51.563249" lon="03.822654"><ele>13.6</ele><time>2022-11-15T13:04:13Z</time><name>PT6515</name></trkpt>
<trkpt lat="51.563250" lon="03.822640"><ele>13.7</ele><time>2022-11-15T13:04:13Z</time><name>PT6516</name></trkpt>
<trkpt lat="51.563253" lon="03.822625"><ele>13.8</ele><time>2022-11-15T13:04:15Z</time><name>PT6517</name></trkpt>
<trkpt lat="51.563255" lon="03.822606"><ele>13.9</ele><time>2022-11-15T13:04:15Z</time><name>PT6518</name></trkpt>
<trkpt lat="51.563256" lon="03.822589"><ele>14.1</ele><time>2022-11-15T13:04:17Z</time><name>PT6519</name></trkpt>
<trkpt lat="51.563257" lon="03.822573"><ele>14.2</ele><time>2022-11-15T13:04:17Z</time><name>PT6520</name></trkpt>
<trkpt lat="51.563258" lon="03.822559"><ele>14.2</ele><time>2022-11-15T13:04:19Z</time><name>PT6521</name></trkpt>
<trkpt lat="51.563258" lon="03.822543"><ele>14.2</ele><time>2022-11-15T13:04:19Z</time><name>PT6522</name></trkpt>
<trkpt lat="51.563258" lon="03.822525"><ele>14.2</ele><time>2022-11-15T13:04:21Z</time><name>PT6523</name></trkpt>
<trkpt lat="51.563257" lon="03.822507"><ele>14.2</ele><time>2022-11-15T13:04:21Z</time><name>PT6524</name></trkpt>
<trkpt lat="51.563257" lon="03.822492"><ele>14.3</ele><time>2022-11-15T13:04:23Z</time><name>PT6525</name></trkpt>
<trkpt lat="51.563257" lon="03.822476"><ele>14.3</ele><time>2022-11-15T13:04:23Z</time><name>PT6526</name></trkpt>
<trkpt lat="51.563259" lon="03.822461"><ele>14.3</ele><time>2022-11-15T13:04:25Z</time><name>PT6527</name></trkpt>
<trkpt lat="51.563261" lon="03.822448"><ele>14.4</ele><time>2022-11-15T13:04:26Z</time><name>PT6528</name></trkpt>
<trkpt lat="51.563262" lon="03.822436"><ele>14.3</ele><time>2022-11-15T13:04:27Z</time><name>PT6529</name></trkpt>
<trkpt lat="51.563263" lon="03.822421"><ele>14.1</ele><time>2022-11-15T13:04:27Z</time><name>PT6530</name></trkpt>
<trkpt lat="51.563263" lon="03.822405"><ele>14.1</ele><time>2022-11-15T13:04:29Z</time><name>PT6531</name></trkpt>
<trkpt lat="51.563264" lon="03.822393"><ele>14.3</ele><time>2022-11-15T13:04:29Z</time><name>PT6532</name></trkpt>
<trkpt lat="51.563265" lon="03.822380"><ele>14.2</ele><time>2022-11-15T13:04:31Z</time><name>PT6533</name></trkpt>
<trkpt lat="51.563267" lon="03.822365"><ele>14.3</ele><time>2022-11-15T13:04:31Z</time><name>PT6534</name></trkpt>
<trkpt lat="51.563269" lon="03.822352"><ele>14.6</ele><time>2022-11-15T13:04:33Z</time><name>PT6535</name></trkpt>
<trkpt lat="51.563270" lon="03.822332"><ele>14.9</ele><time>2022-11-15T13:04:33Z</time><name>PT6536</name></trkpt>
<trkpt lat="51.563271" lon="03.822305"><ele>14.8</ele><time>2022-11-15T13:04:35Z</time><name>PT6537</name></trkpt>
<trkpt lat="51.563271" lon="03.822283"><ele>14.6</ele><time>2022-11-15T13:04:35Z</time><name>PT6538</name></trkpt>
<trkpt lat="51.563273" lon="03.822261"><ele>14.6</ele><time>2022-11-15T13:04:37Z</time><name>PT6539</name></trkpt>
<trkpt lat="51.563272" lon="03.822242"><ele>14.4</ele><time>2022-11-15T13:04:37Z</time><name>PT6540</name></trkpt>
<trkpt lat="51.563273" lon="03.822222"><ele>14.3</ele><time>2022-11-15T13:04:39Z</time><name>PT6541</name></trkpt>
<trkpt lat="51.563272" lon="03.822202"><ele>14.5</ele><time>2022-11-15T13:04:39Z</time><name>PT6542</name></trkpt>
<trkpt lat="51.563270" lon="03.822182"><ele>14.7</ele><time>2022-11-15T13:04:41Z</time><name>PT6543</name></trkpt>
<trkpt lat="51.563270" lon="03.822166"><ele>15</ele><time>2022-11-15T13:04:41Z</time><name>PT6544</name></trkpt>
<trkpt lat="51.563271" lon="03.822149"><ele>15.2</ele><time>2022-11-15T13:04:43Z</time><name>PT6545</name></trkpt>
<trkpt lat="51.563270" lon="03.822132"><ele>15.4</ele><time>2022-11-15T13:04:43Z</time><name>PT6546</name></trkpt>
<trkpt lat="51.563271" lon="03.822114"><ele>15.5</ele><time>2022-11-15T13:04:45Z</time><name>PT6547</name></trkpt>
<trkpt lat="51.563274" lon="03.822099"><ele>15.5</ele><time>2022-11-15T13:04:45Z</time><name>PT6548</name></trkpt>
<trkpt lat="51.563276" lon="03.822085"><ele>15.6</ele><time>2022-11-15T13:04:47Z</time><name>PT6549</name></trkpt>
<trkpt lat="51.563276" lon="03.822068"><ele>15.7</ele><time>2022-11-15T13:04:47Z</time><name>PT6550</name></trkpt>
<trkpt lat="51.563277" lon="03.822052"><ele>15.8</ele><time>2022-11-15T13:04:49Z</time><name>PT6551</name></trkpt>
<trkpt lat="51.563276" lon="03.822035"><ele>15.6</ele><time>2022-11-15T13:04:49Z</time><name>PT6552</name></trkpt>
<trkpt lat="51.563275" lon="03.822015"><ele>15.7</ele><time>2022-11-15T13:04:51Z</time><name>PT6553</name></trkpt>
<trkpt lat="51.563275" lon="03.821997"><ele>15.6</ele><time>2022-11-15T13:04:51Z</time><name>PT6554</name></trkpt>
<trkpt lat="51.563275" lon="03.821979"><ele>15.6</ele><time>2022-11-15T13:04:53Z</time><name>PT6555</name></trkpt>
<trkpt lat="51.563276" lon="03.821961"><ele>15.4</ele><time>2022-11-15T13:04:54Z</time><name>PT6556</name></trkpt>
<trkpt lat="51.563276" lon="03.821944"><ele>15.2</ele><time>2022-11-15T13:04:55Z</time><name>PT6557</name></trkpt>
<trkpt lat="51.563277" lon="03.821928"><ele>15.1</ele><time>2022-11-15T13:04:55Z</time><name>PT6558</name></trkpt>
<trkpt lat="51.563277" lon="03.821911"><ele>14.9</ele><time>2022-11-15T13:04:57Z</time><name>PT6559</name></trkpt>
<trkpt lat="51.563279" lon="03.821895"><ele>14.9</ele><time>2022-11-15T13:04:57Z</time><name>PT6560</name></trkpt>
<trkpt lat="51.563279" lon="03.821877"><ele>15.1</ele><time>2022-11-15T13:04:59Z</time><name>PT6561</name></trkpt>
<trkpt lat="51.563280" lon="03.821858"><ele>15.1</ele><time>2022-11-15T13:04:59Z</time><name>PT6562</name></trkpt>
<trkpt lat="51.563281" lon="03.821840"><ele>15.2</ele><time>2022-11-15T13:05:01Z</time><name>PT6563</name></trkpt>
<trkpt lat="51.563283" lon="03.821828"><ele>15.3</ele><time>2022-11-15T13:05:01Z</time><name>PT6564</name></trkpt>
<trkpt lat="51.563283" lon="03.821820"><ele>15</ele><time>2022-11-15T13:05:03Z</time><name>PT6565</name></trkpt>
<trkpt lat="51.563284" lon="03.821805"><ele>14.9</ele><time>2022-11-15T13:05:03Z</time><name>PT6566</name></trkpt>
<trkpt lat="51.563287" lon="03.821786"><ele>14.6</ele><time>2022-11-15T13:05:05Z</time><name>PT6567</name></trkpt>
<trkpt lat="51.563289" lon="03.821763"><ele>14.6</ele><time>2022-11-15T13:05:05Z</time><name>PT6568</name></trkpt>
<trkpt lat="51.563289" lon="03.821740"><ele>14.7</ele><time>2022-11-15T13:05:07Z</time><name>PT6569</name></trkpt>
<trkpt lat="51.563286" lon="03.821721"><ele>14.8</ele><time>2022-11-15T13:05:07Z</time><name>PT6570</name></trkpt>
<trkpt lat="51.563284" lon="03.821707"><ele>14.7</ele><time>2022-11-15T13:05:09Z</time><name>PT6571</name></trkpt>
<trkpt lat="51.563285" lon="03.821695"><ele>14.7</ele><time>2022-11-15T13:05:09Z</time><name>PT6572</name></trkpt>
<trkpt lat="51.563289" lon="03.821682"><ele>14.6</ele><time>2022-11-15T13:05:11Z</time><name>PT6573</name></trkpt>
<trkpt lat="51.563293" lon="03.821669"><ele>14.6</ele><time>2022-11-15T13:05:11Z</time><name>PT6574</name></trkpt>
<trkpt lat="51.563295" lon="03.821648"><ele>14.5</ele><time>2022-11-15T13:05:13Z</time><name>PT6575</name></trkpt>
<trkpt lat="51.563297" lon="03.821623"><ele>14.4</ele><time>2022-11-15T13:05:13Z</time><name>PT6576</name></trkpt>
<trkpt lat="51.563299" lon="03.821594"><ele>14.4</ele><time>2022-11-15T13:05:15Z</time><name>PT6577</name></trkpt>
<trkpt lat="51.563296" lon="03.821570"><ele>14.4</ele><time>2022-11-15T13:05:15Z</time><name>PT6578</name></trkpt>
<trkpt lat="51.563295" lon="03.821553"><ele>14</ele><time>2022-11-15T13:05:17Z</time><name>PT6579</name></trkpt>
<trkpt lat="51.563294" lon="03.821541"><ele>13.9</ele><time>2022-11-15T13:05:17Z</time><name>PT6580</name></trkpt>
<trkpt lat="51.563293" lon="03.821533"><ele>14.1</ele><time>2022-11-15T13:05:19Z</time><name>PT6581</name></trkpt>
<trkpt lat="51.563296" lon="03.821521"><ele>14.1</ele><time>2022-11-15T13:05:19Z</time><name>PT6582</name></trkpt>
<trkpt lat="51.563298" lon="03.821506"><ele>14.2</ele><time>2022-11-15T13:05:21Z</time><name>PT6583</name></trkpt>
<trkpt lat="51.563299" lon="03.821479"><ele>14.6</ele><time>2022-11-15T13:05:21Z</time><name>PT6584</name></trkpt>
<trkpt lat="51.563298" lon="03.821442"><ele>14.4</ele><time>2022-11-15T13:05:23Z</time><name>PT6585</name></trkpt>
<trkpt lat="51.563296" lon="03.821416"><ele>14.2</ele><time>2022-11-15T13:05:23Z</time><name>PT6586</name></trkpt>
<trkpt lat="51.563295" lon="03.821398"><ele>14.1</ele><time>2022-11-15T13:05:25Z</time><name>PT6587</name></trkpt>
<trkpt lat="51.563294" lon="03.821383"><ele>14.1</ele><time>2022-11-15T13:05:25Z</time><name>PT6588</name></trkpt>
<trkpt lat="51.563295" lon="03.821374"><ele>13.9</ele><time>2022-11-15T13:05:27Z</time><name>PT6589</name></trkpt>
<trkpt lat="51.563296" lon="03.821366"><ele>14.1</ele><time>2022-11-15T13:05:27Z</time><name>PT6590</name></trkpt>
<trkpt lat="51.563297" lon="03.821352"><ele>14.1</ele><time>2022-11-15T13:05:29Z</time><name>PT6591</name></trkpt>
<trkpt lat="51.563297" lon="03.821324"><ele>14.3</ele><time>2022-11-15T13:05:29Z</time><name>PT6592</name></trkpt>
<trkpt lat="51.563294" lon="03.821292"><ele>14.2</ele><time>2022-11-15T13:05:31Z</time><name>PT6593</name></trkpt>
<trkpt lat="51.563289" lon="03.821269"><ele>14.3</ele><time>2022-11-15T13:05:31Z</time><name>PT6594</name></trkpt>
<trkpt lat="51.563286" lon="03.821253"><ele>14.2</ele><time>2022-11-15T13:05:33Z</time><name>PT6595</name></trkpt>
<trkpt lat="51.563286" lon="03.821242"><ele>14.3</ele><time>2022-11-15T13:05:33Z</time><name>PT6596</name></trkpt>
<trkpt lat="51.563289" lon="03.821229"><ele>14.1</ele><time>2022-11-15T13:05:35Z</time><name>PT6597</name></trkpt>
<trkpt lat="51.563290" lon="03.821212"><ele>14.2</ele><time>2022-11-15T13:05:35Z</time><name>PT6598</name></trkpt>
<trkpt lat="51.563292" lon="03.821189"><ele>14.3</ele><time>2022-11-15T13:05:37Z</time><name>PT6599</name></trkpt>
<trkpt lat="51.563292" lon="03.821166"><ele>14.4</ele><time>2022-11-15T13:05:37Z</time><name>PT6600</name></trkpt>
<trkpt lat="51.563292" lon="03.821146"><ele>14.3</ele><time>2022-11-15T13:05:39Z</time><name>PT6601</name></trkpt>
<trkpt lat="51.563292" lon="03.821137"><ele>14.4</ele><time>2022-11-15T13:05:39Z</time><name>PT6602</name></trkpt>
<trkpt lat="51.563294" lon="03.821131"><ele>14.2</ele><time>2022-11-15T13:05:41Z</time><name>PT6603</name></trkpt>
<trkpt lat="51.563294" lon="03.821123"><ele>14.3</ele><time>2022-11-15T13:05:41Z</time><name>PT6604</name></trkpt>
<trkpt lat="51.563297" lon="03.821107"><ele>14.5</ele><time>2022-11-15T13:05:43Z</time><name>PT6605</name></trkpt>
<trkpt lat="51.563300" lon="03.821087"><ele>14.4</ele><time>2022-11-15T13:05:43Z</time><name>PT6606</name></trkpt>
<trkpt lat="51.563300" lon="03.821062"><ele>14.4</ele><time>2022-11-15T13:05:45Z</time><name>PT6607</name></trkpt>
<trkpt lat="51.563299" lon="03.821037"><ele>14.6</ele><time>2022-11-15T13:05:45Z</time><name>PT6608</name></trkpt>
<trkpt lat="51.563299" lon="03.821018"><ele>14.5</ele><time>2022-11-15T13:05:47Z</time><name>PT6609</name></trkpt>
<trkpt lat="51.563300" lon="03.821006"><ele>14.6</ele><time>2022-11-15T13:05:47Z</time><name>PT6610</name></trkpt>
<trkpt lat="51.563299" lon="03.820999"><ele>14.4</ele><time>2022-11-15T13:05:49Z</time><name>PT6611</name></trkpt>
<trkpt lat="51.563298" lon="03.820989"><ele>14.5</ele><time>2022-11-15T13:05:49Z</time><name>PT6612</name></trkpt>
<trkpt lat="51.563300" lon="03.820976"><ele>14.6</ele><time>2022-11-15T13:05:51Z</time><name>PT6613</name></trkpt>
<trkpt lat="51.563302" lon="03.820959"><ele>14.4</ele><time>2022-11-15T13:05:51Z</time><name>PT6614</name></trkpt>
<trkpt lat="51.563307" lon="03.820933"><ele>14.6</ele><time>2022-11-15T13:05:53Z</time><name>PT6615</name></trkpt>
<trkpt lat="51.563310" lon="03.820906"><ele>14.7</ele><time>2022-11-15T13:05:53Z</time><name>PT6616</name></trkpt>
<trkpt lat="51.563311" lon="03.820889"><ele>14.7</ele><time>2022-11-15T13:05:55Z</time><name>PT6617</name></trkpt>
<trkpt lat="51.563310" lon="03.820876"><ele>14.6</ele><time>2022-11-15T13:05:55Z</time><name>PT6618</name></trkpt>
<trkpt lat="51.563310" lon="03.820864"><ele>14.8</ele><time>2022-11-15T13:05:57Z</time><name>PT6619</name></trkpt>
<trkpt lat="51.563311" lon="03.820852"><ele>14.7</ele><time>2022-11-15T13:05:57Z</time><name>PT6620</name></trkpt>
<trkpt lat="51.563314" lon="03.820842"><ele>14.6</ele><time>2022-11-15T13:05:59Z</time><name>PT6621</name></trkpt>
<trkpt lat="51.563317" lon="03.820830"><ele>14.6</ele><time>2022-11-15T13:06:00Z</time><name>PT6622</name></trkpt>
<trkpt lat="51.563320" lon="03.820810"><ele>14.6</ele><time>2022-11-15T13:06:01Z</time><name>PT6623</name></trkpt>
<trkpt lat="51.563319" lon="03.820784"><ele>14.6</ele><time>2022-11-15T13:06:02Z</time><name>PT6624</name></trkpt>
<trkpt lat="51.563322" lon="03.820757"><ele>14.6</ele><time>2022-11-15T13:06:03Z</time><name>PT6625</name></trkpt>
<trkpt lat="51.563324" lon="03.820739"><ele>14.4</ele><time>2022-11-15T13:06:03Z</time><name>PT6626</name></trkpt>
<trkpt lat="51.563324" lon="03.820730"><ele>14.4</ele><time>2022-11-15T13:06:05Z</time><name>PT6627</name></trkpt>
<trkpt lat="51.563324" lon="03.820726"><ele>14.5</ele><time>2022-11-15T13:06:05Z</time><name>PT6628</name></trkpt>
<trkpt lat="51.563324" lon="03.820720"><ele>14.5</ele><time>2022-11-15T13:06:07Z</time><name>PT6629</name></trkpt>
<trkpt lat="51.563329" lon="03.820704"><ele>14.3</ele><time>2022-11-15T13:06:07Z</time><name>PT6630</name></trkpt>
<trkpt lat="51.563337" lon="03.820674"><ele>14.5</ele><time>2022-11-15T13:06:09Z</time><name>PT6631</name></trkpt>
<trkpt lat="51.563339" lon="03.820652"><ele>14.5</ele><time>2022-11-15T13:06:10Z</time><name>PT6632</name></trkpt>
<trkpt lat="51.563341" lon="03.820635"><ele>14.4</ele><time>2022-11-15T13:06:11Z</time><name>PT6633</name></trkpt>
<trkpt lat="51.563342" lon="03.820617"><ele>14.6</ele><time>2022-11-15T13:06:11Z</time><name>PT6634</name></trkpt>
<trkpt lat="51.563342" lon="03.820600"><ele>14.9</ele><time>2022-11-15T13:06:13Z</time><name>PT6635</name></trkpt>
<trkpt lat="51.563342" lon="03.820592"><ele>15.1</ele><time>2022-11-15T13:06:14Z</time><name>PT6636</name></trkpt>
<trkpt lat="51.563346" lon="03.820582"><ele>15</ele><time>2022-11-15T13:06:15Z</time><name>PT6637</name></trkpt>
<trkpt lat="51.563349" lon="03.820565"><ele>14.9</ele><time>2022-11-15T13:06:16Z</time><name>PT6638</name></trkpt>
<trkpt lat="51.563349" lon="03.820545"><ele>14.8</ele><time>2022-11-15T13:06:17Z</time><name>PT6639</name></trkpt>
<trkpt lat="51.563349" lon="03.820518"><ele>14.6</ele><time>2022-11-15T13:06:18Z</time><name>PT6640</name></trkpt>
<trkpt lat="51.563349" lon="03.820493"><ele>14.6</ele><time>2022-11-15T13:06:19Z</time><name>PT6641</name></trkpt>
<trkpt lat="51.563349" lon="03.820474"><ele>14.7</ele><time>2022-11-15T13:06:20Z</time><name>PT6642</name></trkpt>
<trkpt lat="51.563345" lon="03.820462"><ele>14.9</ele><time>2022-11-15T13:06:21Z</time><name>PT6643</name></trkpt>
<trkpt lat="51.563344" lon="03.820452"><ele>14.8</ele><time>2022-11-15T13:06:22Z</time><name>PT6644</name></trkpt>
<trkpt lat="51.563345" lon="03.820439"><ele>14.9</ele><time>2022-11-15T13:06:23Z</time><name>PT6645</name></trkpt>
<trkpt lat="51.563346" lon="03.820425"><ele>14.9</ele><time>2022-11-15T13:06:23Z</time><name>PT6646</name></trkpt>
<trkpt lat="51.563349" lon="03.820406"><ele>14.9</ele><time>2022-11-15T13:06:25Z</time><name>PT6647</name></trkpt>
<trkpt lat="51.563350" lon="03.820378"><ele>14.8</ele><time>2022-11-15T13:06:25Z</time><name>PT6648</name></trkpt>
<trkpt lat="51.563347" lon="03.820352"><ele>14.8</ele><time>2022-11-15T13:06:27Z</time><name>PT6649</name></trkpt>
<trkpt lat="51.563343" lon="03.820331"><ele>14.8</ele><time>2022-11-15T13:06:27Z</time><name>PT6650</name></trkpt>
<trkpt lat="51.563343" lon="03.820323"><ele>14.6</ele><time>2022-11-15T13:06:29Z</time><name>PT6651</name></trkpt>
<trkpt lat="51.563346" lon="03.820314"><ele>14.4</ele><time>2022-11-15T13:06:29Z</time><name>PT6652</name></trkpt>
<trkpt lat="51.563345" lon="03.820300"><ele>14.1</ele><time>2022-11-15T13:06:31Z</time><name>PT6653</name></trkpt>
<trkpt lat="51.563348" lon="03.820284"><ele>14.1</ele><time>2022-11-15T13:06:31Z</time><name>PT6654</name></trkpt>
<trkpt lat="51.563351" lon="03.820260"><ele>14.1</ele><time>2022-11-15T13:06:33Z</time><name>PT6655</name></trkpt>
<trkpt lat="51.563352" lon="03.820233"><ele>14.1</ele><time>2022-11-15T13:06:33Z</time><name>PT6656</name></trkpt>
<trkpt lat="51.563354" lon="03.820216"><ele>14.2</ele><time>2022-11-15T13:06:35Z</time><name>PT6657</name></trkpt>
<trkpt lat="51.563355" lon="03.820206"><ele>14.3</ele><time>2022-11-15T13:06:35Z</time><name>PT6658</name></trkpt>
<trkpt lat="51.563356" lon="03.820197"><ele>14.4</ele><time>2022-11-15T13:06:37Z</time><name>PT6659</name></trkpt>
<trkpt lat="51.563357" lon="03.820187"><ele>14.6</ele><time>2022-11-15T13:06:37Z</time><name>PT6660</name></trkpt>
<trkpt lat="51.563357" lon="03.820174"><ele>14.6</ele><time>2022-11-15T13:06:39Z</time><name>PT6661</name></trkpt>
<trkpt lat="51.563356" lon="03.820157"><ele>14.6</ele><time>2022-11-15T13:06:39Z</time><name>PT6662</name></trkpt>
<trkpt lat="51.563359" lon="03.820137"><ele>14.6</ele><time>2022-11-15T13:06:41Z</time><name>PT6663</name></trkpt>
<trkpt lat="51.563361" lon="03.820114"><ele>14.6</ele><time>2022-11-15T13:06:41Z</time><name>PT6664</name></trkpt>
<trkpt lat="51.563359" lon="03.820094"><ele>14.5</ele><time>2022-11-15T13:06:43Z</time><name>PT6665</name></trkpt>
<trkpt lat="51.563361" lon="03.820081"><ele>14.5</ele><time>2022-11-15T13:06:43Z</time><name>PT6666</name></trkpt>
<trkpt lat="51.563364" lon="03.820068"><ele>14.4</ele><time>2022-11-15T13:06:45Z</time><name>PT6667</name></trkpt>
<trkpt lat="51.563365" lon="03.820059"><ele>14.4</ele><time>2022-11-15T13:06:45Z</time><name>PT6668</name></trkpt>
<trkpt lat="51.563369" lon="03.820042"><ele>14.6</ele><time>2022-11-15T13:06:47Z</time><name>PT6669</name></trkpt>
<trkpt lat="51.563373" lon="03.820023"><ele>14.6</ele><time>2022-11-15T13:06:47Z</time><name>PT6670</name></trkpt>
<trkpt lat="51.563377" lon="03.820002"><ele>14.6</ele><time>2022-11-15T13:06:49Z</time><name>PT6671</name></trkpt>
<trkpt lat="51.563379" lon="03.819983"><ele>14.6</ele><time>2022-11-15T13:06:49Z</time><name>PT6672</name></trkpt>
<trkpt lat="51.563381" lon="03.819971"><ele>14.7</ele><time>2022-11-15T13:06:51Z</time><name>PT6673</name></trkpt>
<trkpt lat="51.563385" lon="03.819967"><ele>14.6</ele><time>2022-11-15T13:06:51Z</time><name>PT6674</name></trkpt>
<trkpt lat="51.563387" lon="03.819962"><ele>14.6</ele><time>2022-11-15T13:06:53Z</time><name>PT6675</name></trkpt>
<trkpt lat="51.563390" lon="03.819953"><ele>14.5</ele><time>2022-11-15T13:06:53Z</time><name>PT6676</name></trkpt>
<trkpt lat="51.563393" lon="03.819933"><ele>14.5</ele><time>2022-11-15T13:06:55Z</time><name>PT6677</name></trkpt>
<trkpt lat="51.563393" lon="03.819907"><ele>14.5</ele><time>2022-11-15T13:06:55Z</time><name>PT6678</name></trkpt>
<trkpt lat="51.563393" lon="03.819884"><ele>14.4</ele><time>2022-11-15T13:06:57Z</time><name>PT6679</name></trkpt>
<trkpt lat="51.563394" lon="03.819868"><ele>14.4</ele><time>2022-11-15T13:06:57Z</time><name>PT6680</name></trkpt>
<trkpt lat="51.563394" lon="03.819856"><ele>14.3</ele><time>2022-11-15T13:06:59Z</time><name>PT6681</name></trkpt>
<trkpt lat="51.563397" lon="03.819843"><ele>14.4</ele><time>2022-11-15T13:06:59Z</time><name>PT6682</name></trkpt>
<trkpt lat="51.563402" lon="03.819832"><ele>14.3</ele><time>2022-11-15T13:07:01Z</time><name>PT6683</name></trkpt>
<trkpt lat="51.563405" lon="03.819818"><ele>14.2</ele><time>2022-11-15T13:07:01Z</time><name>PT6684</name></trkpt>
<trkpt lat="51.563409" lon="03.819800"><ele>14.1</ele><time>2022-11-15T13:07:03Z</time><name>PT6685</name></trkpt>
<trkpt lat="51.563412" lon="03.819779"><ele>14.1</ele><time>2022-11-15T13:07:03Z</time><name>PT6686</name></trkpt>
<trkpt lat="51.563411" lon="03.819757"><ele>13.9</ele><time>2022-11-15T13:07:05Z</time><name>PT6687</name></trkpt>
<trkpt lat="51.563411" lon="03.819740"><ele>13.9</ele><time>2022-11-15T13:07:05Z</time><name>PT6688</name></trkpt>
<trkpt lat="51.563413" lon="03.819725"><ele>13.9</ele><time>2022-11-15T13:07:07Z</time><name>PT6689</name></trkpt>
<trkpt lat="51.563415" lon="03.819713"><ele>14.1</ele><time>2022-11-15T13:07:07Z</time><name>PT6690</name></trkpt>
<trkpt lat="51.563419" lon="03.819701"><ele>14.1</ele><time>2022-11-15T13:07:09Z</time><name>PT6691</name></trkpt>
<trkpt lat="51.563423" lon="03.819689"><ele>14.1</ele><time>2022-11-15T13:07:09Z</time><name>PT6692</name></trkpt>
<trkpt lat="51.563429" lon="03.819672"><ele>14.1</ele><time>2022-11-15T13:07:11Z</time><name>PT6693</name></trkpt>
<trkpt lat="51.563434" lon="03.819651"><ele>13.9</ele><time>2022-11-15T13:07:12Z</time><name>PT6694</name></trkpt>
<trkpt lat="51.563439" lon="03.819628"><ele>13.7</ele><time>2022-11-15T13:07:13Z</time><name>PT6695</name></trkpt>
<trkpt lat="51.563442" lon="03.819606"><ele>13.6</ele><time>2022-11-15T13:07:14Z</time><name>PT6696</name></trkpt>
<trkpt lat="51.563444" lon="03.819590"><ele>13.6</ele><time>2022-11-15T13:07:15Z</time><name>PT6697</name></trkpt>
<trkpt lat="51.563444" lon="03.819578"><ele>13.3</ele><time>2022-11-15T13:07:16Z</time><name>PT6698</name></trkpt>
<trkpt lat="51.563445" lon="03.819568"><ele>13.2</ele><time>2022-11-15T13:07:17Z</time><name>PT6699</name></trkpt>
<trkpt lat="51.563447" lon="03.819558"><ele>13.2</ele><time>2022-11-15T13:07:18Z</time><name>PT6700</name></trkpt>
<trkpt lat="51.563450" lon="03.819544"><ele>13.1</ele><time>2022-11-15T13:07:19Z</time><name>PT6701</name></trkpt>
<trkpt lat="51.563453" lon="03.819527"><ele>13.1</ele><time>2022-11-15T13:07:19Z</time><name>PT6702</name></trkpt>
<trkpt lat="51.563455" lon="03.819505"><ele>13.2</ele><time>2022-11-15T13:07:21Z</time><name>PT6703</name></trkpt>
<trkpt lat="51.563456" lon="03.819482"><ele>13.3</ele><time>2022-11-15T13:07:21Z</time><name>PT6704</name></trkpt>
<trkpt lat="51.563455" lon="03.819459"><ele>13.3</ele><time>2022-11-15T13:07:23Z</time><name>PT6705</name></trkpt>
<trkpt lat="51.563454" lon="03.819441"><ele>13.3</ele><time>2022-11-15T13:07:23Z</time><name>PT6706</name></trkpt>
<trkpt lat="51.563454" lon="03.819430"><ele>13.1</ele><time>2022-11-15T13:07:25Z</time><name>PT6707</name></trkpt>
<trkpt lat="51.563455" lon="03.819421"><ele>13.2</ele><time>2022-11-15T13:07:25Z</time><name>PT6708</name></trkpt>
<trkpt lat="51.563458" lon="03.819411"><ele>13.1</ele><time>2022-11-15T13:07:27Z</time><name>PT6709</name></trkpt>
<trkpt lat="51.563465" lon="03.819396"><ele>13.1</ele><time>2022-11-15T13:07:27Z</time><name>PT6710</name></trkpt>
<trkpt lat="51.563471" lon="03.819374"><ele>13.1</ele><time>2022-11-15T13:07:29Z</time><name>PT6711</name></trkpt>
<trkpt lat="51.563480" lon="03.819352"><ele>13.3</ele><time>2022-11-15T13:07:29Z</time><name>PT6712</name></trkpt>
<trkpt lat="51.563486" lon="03.819333"><ele>13.1</ele><time>2022-11-15T13:07:31Z</time><name>PT6713</name></trkpt>
<trkpt lat="51.563488" lon="03.819321"><ele>13.1</ele><time>2022-11-15T13:07:31Z</time><name>PT6714</name></trkpt>
<trkpt lat="51.563491" lon="03.819313"><ele>13</ele><time>2022-11-15T13:07:33Z</time><name>PT6715</name></trkpt>
<trkpt lat="51.563497" lon="03.819308"><ele>13</ele><time>2022-11-15T13:07:33Z</time><name>PT6716</name></trkpt>
<trkpt lat="51.563508" lon="03.819303"><ele>12.7</ele><time>2022-11-15T13:07:35Z</time><name>PT6717</name></trkpt>
<trkpt lat="51.563520" lon="03.819298"><ele>12.9</ele><time>2022-11-15T13:07:35Z</time><name>PT6718</name></trkpt>
<trkpt lat="51.563535" lon="03.819290"><ele>13</ele><time>2022-11-15T13:07:37Z</time><name>PT6719</name></trkpt>
<trkpt lat="51.563549" lon="03.819282"><ele>13.2</ele><time>2022-11-15T13:07:37Z</time><name>PT6720</name></trkpt>
<trkpt lat="51.563559" lon="03.819277"><ele>13.1</ele><time>2022-11-15T13:07:39Z</time><name>PT6721</name></trkpt>
<trkpt lat="51.563566" lon="03.819275"><ele>13.1</ele><time>2022-11-15T13:07:39Z</time><name>PT6722</name></trkpt>
<trkpt lat="51.563573" lon="03.819275"><ele>13.2</ele><time>2022-11-15T13:07:41Z</time><name>PT6723</name></trkpt>
<trkpt lat="51.563582" lon="03.819276"><ele>13.1</ele><time>2022-11-15T13:07:41Z</time><name>PT6724</name></trkpt>
<trkpt lat="51.563593" lon="03.819280"><ele>13.1</ele><time>2022-11-15T13:07:43Z</time><name>PT6725</name></trkpt>
<trkpt lat="51.563602" lon="03.819283"><ele>13.2</ele><time>2022-11-15T13:07:43Z</time><name>PT6726</name></trkpt>
<trkpt lat="51.563611" lon="03.819281"><ele>13.3</ele><time>2022-11-15T13:07:45Z</time><name>PT6727</name></trkpt>
<trkpt lat="51.563618" lon="03.819283"><ele>13.2</ele><time>2022-11-15T13:07:45Z</time><name>PT6728</name></trkpt>
<trkpt lat="51.563626" lon="03.819285"><ele>13.2</ele><time>2022-11-15T13:07:47Z</time><name>PT6729</name></trkpt>
<trkpt lat="51.563634" lon="03.819291"><ele>13.1</ele><time>2022-11-15T13:07:47Z</time><name>PT6730</name></trkpt>
<trkpt lat="51.563639" lon="03.819297"><ele>13.1</ele><time>2022-11-15T13:07:49Z</time><name>PT6731</name></trkpt>
<trkpt lat="51.563644" lon="03.819301"><ele>13.1</ele><time>2022-11-15T13:07:49Z</time><name>PT6732</name></trkpt>
<trkpt lat="51.563650" lon="03.819307"><ele>13.1</ele><time>2022-11-15T13:07:51Z</time><name>PT6733</name></trkpt>
<trkpt lat="51.563657" lon="03.819312"><ele>12.9</ele><time>2022-11-15T13:07:51Z</time><name>PT6734</name></trkpt>
<trkpt lat="51.563672" lon="03.819318"><ele>13</ele><time>2022-11-15T13:07:53Z</time><name>PT6735</name></trkpt>
<trkpt lat="51.563687" lon="03.819324"><ele>12.9</ele><time>2022-11-15T13:07:53Z</time><name>PT6736</name></trkpt>
<trkpt lat="51.563705" lon="03.819333"><ele>12.9</ele><time>2022-11-15T13:07:55Z</time><name>PT6737</name></trkpt>
<trkpt lat="51.563724" lon="03.819341"><ele>12.8</ele><time>2022-11-15T13:07:55Z</time><name>PT6738</name></trkpt>
<trkpt lat="51.563739" lon="03.819352"><ele>12.8</ele><time>2022-11-15T13:07:57Z</time><name>PT6739</name></trkpt>
<trkpt lat="51.563748" lon="03.819355"><ele>12.7</ele><time>2022-11-15T13:07:57Z</time><name>PT6740</name></trkpt>
<trkpt lat="51.563756" lon="03.819359"><ele>12.7</ele><time>2022-11-15T13:07:59Z</time><name>PT6741</name></trkpt>
<trkpt lat="51.563759" lon="03.819359"><ele>12.6</ele><time>2022-11-15T13:07:59Z</time><name>PT6742</name></trkpt>
<trkpt lat="51.563760" lon="03.819364"><ele>12.5</ele><time>2022-11-15T13:08:01Z</time><name>PT6743</name></trkpt>
<trkpt lat="51.563766" lon="03.819372"><ele>12.6</ele><time>2022-11-15T13:08:01Z</time><name>PT6744</name></trkpt>
<trkpt lat="51.563775" lon="03.819382"><ele>12.5</ele><time>2022-11-15T13:08:03Z</time><name>PT6745</name></trkpt>
<trkpt lat="51.563789" lon="03.819389"><ele>12.5</ele><time>2022-11-15T13:08:03Z</time><name>PT6746</name></trkpt>
<trkpt lat="51.563804" lon="03.819393"><ele>12.4</ele><time>2022-11-15T13:08:05Z</time><name>PT6747</name></trkpt>
<trkpt lat="51.563817" lon="03.819395"><ele>12.3</ele><time>2022-11-15T13:08:05Z</time><name>PT6748</name></trkpt>
<trkpt lat="51.563830" lon="03.819400"><ele>12.3</ele><time>2022-11-15T13:08:07Z</time><name>PT6749</name></trkpt>
<trkpt lat="51.563841" lon="03.819404"><ele>12.2</ele><time>2022-11-15T13:08:07Z</time><name>PT6750</name></trkpt>
<trkpt lat="51.563848" lon="03.819407"><ele>12.2</ele><time>2022-11-15T13:08:09Z</time><name>PT6751</name></trkpt>
<trkpt lat="51.563853" lon="03.819409"><ele>12.2</ele><time>2022-11-15T13:08:09Z</time><name>PT6752</name></trkpt>
<trkpt lat="51.563858" lon="03.819414"><ele>12.5</ele><time>2022-11-15T13:08:11Z</time><name>PT6753</name></trkpt>
<trkpt lat="51.563864" lon="03.819420"><ele>12.6</ele><time>2022-11-15T13:08:11Z</time><name>PT6754</name></trkpt>
<trkpt lat="51.563868" lon="03.819426"><ele>12.6</ele><time>2022-11-15T13:08:13Z</time><name>PT6755</name></trkpt>
<trkpt lat="51.563885" lon="03.819438"><ele>12.7</ele><time>2022-11-15T13:08:13Z</time><name>PT6756</name></trkpt>
<trkpt lat="51.563898" lon="03.819446"><ele>12.7</ele><time>2022-11-15T13:08:15Z</time><name>PT6757</name></trkpt>
<trkpt lat="51.563907" lon="03.819452"><ele>12.5</ele><time>2022-11-15T13:08:15Z</time><name>PT6758</name></trkpt>
<trkpt lat="51.563913" lon="03.819454"><ele>12.6</ele><time>2022-11-15T13:08:17Z</time><name>PT6759</name></trkpt>
<trkpt lat="51.563919" lon="03.819456"><ele>12.6</ele><time>2022-11-15T13:08:17Z</time><name>PT6760</name></trkpt>
<trkpt lat="51.563928" lon="03.819460"><ele>12.6</ele><time>2022-11-15T13:08:19Z</time><name>PT6761</name></trkpt>
<trkpt lat="51.563934" lon="03.819462"><ele>12.6</ele><time>2022-11-15T13:08:19Z</time><name>PT6762</name></trkpt>
<trkpt lat="51.563942" lon="03.819470"><ele>12.7</ele><time>2022-11-15T13:08:21Z</time><name>PT6763</name></trkpt>
<trkpt lat="51.563951" lon="03.819483"><ele>12.6</ele><time>2022-11-15T13:08:21Z</time><name>PT6764</name></trkpt>
<trkpt lat="51.563965" lon="03.819493"><ele>12.6</ele><time>2022-11-15T13:08:23Z</time><name>PT6765</name></trkpt>
<trkpt lat="51.563978" lon="03.819503"><ele>12.7</ele><time>2022-11-15T13:08:24Z</time><name>PT6766</name></trkpt>
<trkpt lat="51.563994" lon="03.819508"><ele>12.6</ele><time>2022-11-15T13:08:25Z</time><name>PT6767</name></trkpt>
<trkpt lat="51.564009" lon="03.819510"><ele>12.7</ele><time>2022-11-15T13:08:26Z</time><name>PT6768</name></trkpt>
<trkpt lat="51.564024" lon="03.819512"><ele>12.9</ele><time>2022-11-15T13:08:27Z</time><name>PT6769</name></trkpt>
<trkpt lat="51.564033" lon="03.819511"><ele>13</ele><time>2022-11-15T13:08:27Z</time><name>PT6770</name></trkpt>
<trkpt lat="51.564041" lon="03.819516"><ele>13.2</ele><time>2022-11-15T13:08:29Z</time><name>PT6771</name></trkpt>
<trkpt lat="51.564049" lon="03.819523"><ele>13.3</ele><time>2022-11-15T13:08:30Z</time><name>PT6772</name></trkpt>
<trkpt lat="51.564056" lon="03.819525"><ele>13.1</ele><time>2022-11-15T13:08:31Z</time><name>PT6773</name></trkpt>
<trkpt lat="51.564063" lon="03.819528"><ele>13.2</ele><time>2022-11-15T13:08:32Z</time><name>PT6774</name></trkpt>
<trkpt lat="51.564076" lon="03.819527"><ele>13.2</ele><time>2022-11-15T13:08:33Z</time><name>PT6775</name></trkpt>
<trkpt lat="51.564088" lon="03.819529"><ele>13.1</ele><time>2022-11-15T13:08:33Z</time><name>PT6776</name></trkpt>
<trkpt lat="51.564097" lon="03.819530"><ele>13.1</ele><time>2022-11-15T13:08:35Z</time><name>PT6777</name></trkpt>
<trkpt lat="51.564107" lon="03.819533"><ele>13.2</ele><time>2022-11-15T13:08:35Z</time><name>PT6778</name></trkpt>
<trkpt lat="51.564117" lon="03.819539"><ele>13.2</ele><time>2022-11-15T13:08:37Z</time><name>PT6779</name></trkpt>
<trkpt lat="51.564129" lon="03.819547"><ele>13.2</ele><time>2022-11-15T13:08:37Z</time><name>PT6780</name></trkpt>
<trkpt lat="51.564139" lon="03.819555"><ele>13.2</ele><time>2022-11-15T13:08:39Z</time><name>PT6781</name></trkpt>
<trkpt lat="51.564150" lon="03.819560"><ele>13.2</ele><time>2022-11-15T13:08:39Z</time><name>PT6782</name></trkpt>
<trkpt lat="51.564161" lon="03.819563"><ele>13.1</ele><time>2022-11-15T13:08:41Z</time><name>PT6783</name></trkpt>
<trkpt lat="51.564172" lon="03.819568"><ele>13</ele><time>2022-11-15T13:08:41Z</time><name>PT6784</name></trkpt>
<trkpt lat="51.564184" lon="03.819577"><ele>12.9</ele><time>2022-11-15T13:08:43Z</time><name>PT6785</name></trkpt>
<trkpt lat="51.564197" lon="03.819583"><ele>12.8</ele><time>2022-11-15T13:08:43Z</time><name>PT6786</name></trkpt>
<trkpt lat="51.564209" lon="03.819588"><ele>13</ele><time>2022-11-15T13:08:45Z</time><name>PT6787</name></trkpt>
<trkpt lat="51.564220" lon="03.819595"><ele>13.2</ele><time>2022-11-15T13:08:45Z</time><name>PT6788</name></trkpt>
<trkpt lat="51.564233" lon="03.819600"><ele>13.3</ele><time>2022-11-15T13:08:47Z</time><name>PT6789</name></trkpt>
<trkpt lat="51.564244" lon="03.819606"><ele>13.2</ele><time>2022-11-15T13:08:47Z</time><name>PT6790</name></trkpt>
<trkpt lat="51.564255" lon="03.819611"><ele>13.3</ele><time>2022-11-15T13:08:49Z</time><name>PT6791</name></trkpt>
<trkpt lat="51.564266" lon="03.819619"><ele>13.4</ele><time>2022-11-15T13:08:49Z</time><name>PT6792</name></trkpt>
<trkpt lat="51.564277" lon="03.819625"><ele>13.4</ele><time>2022-11-15T13:08:51Z</time><name>PT6793</name></trkpt>
<trkpt lat="51.564287" lon="03.819629"><ele>13.4</ele><time>2022-11-15T13:08:52Z</time><name>PT6794</name></trkpt>
<trkpt lat="51.564298" lon="03.819634"><ele>13.3</ele><time>2022-11-15T13:08:53Z</time><name>PT6795</name></trkpt>
<trkpt lat="51.564309" lon="03.819640"><ele>13.3</ele><time>2022-11-15T13:08:53Z</time><name>PT6796</name></trkpt>
<trkpt lat="51.564320" lon="03.819644"><ele>13.2</ele><time>2022-11-15T13:08:55Z</time><name>PT6797</name></trkpt>
<trkpt lat="51.564332" lon="03.819648"><ele>13.1</ele><time>2022-11-15T13:08:55Z</time><name>PT6798</name></trkpt>
<trkpt lat="51.564342" lon="03.819652"><ele>13.1</ele><time>2022-11-15T13:08:57Z</time><name>PT6799</name></trkpt>
<trkpt lat="51.564354" lon="03.819654"><ele>13.3</ele><time>2022-11-15T13:08:58Z</time><name>PT6800</name></trkpt>
<trkpt lat="51.564365" lon="03.819653"><ele>13.3</ele><time>2022-11-15T13:08:59Z</time><name>PT6801</name></trkpt>
<trkpt lat="51.564374" lon="03.819657"><ele>13.3</ele><time>2022-11-15T13:08:59Z</time><name>PT6802</name></trkpt>
<trkpt lat="51.564385" lon="03.819663"><ele>13.3</ele><time>2022-11-15T13:09:01Z</time><name>PT6803</name></trkpt>
<trkpt lat="51.564395" lon="03.819670"><ele>13.1</ele><time>2022-11-15T13:09:01Z</time><name>PT6804</name></trkpt>
<trkpt lat="51.564405" lon="03.819676"><ele>13</ele><time>2022-11-15T13:09:03Z</time><name>PT6805</name></trkpt>
<trkpt lat="51.564416" lon="03.819683"><ele>12.9</ele><time>2022-11-15T13:09:03Z</time><name>PT6806</name></trkpt>
<trkpt lat="51.564426" lon="03.819688"><ele>12.6</ele><time>2022-11-15T13:09:05Z</time><name>PT6807</name></trkpt>
<trkpt lat="51.564438" lon="03.819692"><ele>12.7</ele><time>2022-11-15T13:09:05Z</time><name>PT6808</name></trkpt>
<trkpt lat="51.564449" lon="03.819694"><ele>12.9</ele><time>2022-11-15T13:09:07Z</time><name>PT6809</name></trkpt>
<trkpt lat="51.564460" lon="03.819698"><ele>12.9</ele><time>2022-11-15T13:09:07Z</time><name>PT6810</name></trkpt>
<trkpt lat="51.564472" lon="03.819701"><ele>13</ele><time>2022-11-15T13:09:09Z</time><name>PT6811</name></trkpt>
<trkpt lat="51.564483" lon="03.819704"><ele>13.1</ele><time>2022-11-15T13:09:09Z</time><name>PT6812</name></trkpt>
<trkpt lat="51.564493" lon="03.819709"><ele>13.1</ele><time>2022-11-15T13:09:11Z</time><name>PT6813</name></trkpt>
<trkpt lat="51.564504" lon="03.819716"><ele>13</ele><time>2022-11-15T13:09:11Z</time><name>PT6814</name></trkpt>
<trkpt lat="51.564515" lon="03.819723"><ele>12.9</ele><time>2022-11-15T13:09:13Z</time><name>PT6815</name></trkpt>
<trkpt lat="51.564526" lon="03.819728"><ele>12.9</ele><time>2022-11-15T13:09:13Z</time><name>PT6816</name></trkpt>
<trkpt lat="51.564537" lon="03.819731"><ele>12.9</ele><time>2022-11-15T13:09:15Z</time><name>PT6817</name></trkpt>
<trkpt lat="51.564548" lon="03.819736"><ele>13</ele><time>2022-11-15T13:09:15Z</time><name>PT6818</name></trkpt>
<trkpt lat="51.564560" lon="03.819738"><ele>13.2</ele><time>2022-11-15T13:09:17Z</time><name>PT6819</name></trkpt>
<trkpt lat="51.564571" lon="03.819741"><ele>13.2</ele><time>2022-11-15T13:09:17Z</time><name>PT6820</name></trkpt>
<trkpt lat="51.564581" lon="03.819744"><ele>13.2</ele><time>2022-11-15T13:09:19Z</time><name>PT6821</name></trkpt>
<trkpt lat="51.564591" lon="03.819751"><ele>13.4</ele><time>2022-11-15T13:09:19Z</time><name>PT6822</name></trkpt>
<trkpt lat="51.564600" lon="03.819759"><ele>13.5</ele><time>2022-11-15T13:09:21Z</time><name>PT6823</name></trkpt>
<trkpt lat="51.564610" lon="03.819765"><ele>13.3</ele><time>2022-11-15T13:09:21Z</time><name>PT6824</name></trkpt>
<trkpt lat="51.564622" lon="03.819770"><ele>13.4</ele><time>2022-11-15T13:09:23Z</time><name>PT6825</name></trkpt>
<trkpt lat="51.564633" lon="03.819774"><ele>13.5</ele><time>2022-11-15T13:09:23Z</time><name>PT6826</name></trkpt>
<trkpt lat="51.564644" lon="03.819778"><ele>13.5</ele><time>2022-11-15T13:09:25Z</time><name>PT6827</name></trkpt>
<trkpt lat="51.564654" lon="03.819782"><ele>13.5</ele><time>2022-11-15T13:09:25Z</time><name>PT6828</name></trkpt>
<trkpt lat="51.564665" lon="03.819786"><ele>13.4</ele><time>2022-11-15T13:09:27Z</time><name>PT6829</name></trkpt>
<trkpt lat="51.564675" lon="03.819792"><ele>13.3</ele><time>2022-11-15T13:09:27Z</time><name>PT6830</name></trkpt>
<trkpt lat="51.564685" lon="03.819796"><ele>13.1</ele><time>2022-11-15T13:09:29Z</time><name>PT6831</name></trkpt>
<trkpt lat="51.564695" lon="03.819802"><ele>12.9</ele><time>2022-11-15T13:09:29Z</time><name>PT6832</name></trkpt>
<trkpt lat="51.564705" lon="03.819809"><ele>12.8</ele><time>2022-11-15T13:09:31Z</time><name>PT6833</name></trkpt>
<trkpt lat="51.564715" lon="03.819815"><ele>12.8</ele><time>2022-11-15T13:09:31Z</time><name>PT6834</name></trkpt>
<trkpt lat="51.564726" lon="03.819820"><ele>12.7</ele><time>2022-11-15T13:09:33Z</time><name>PT6835</name></trkpt>
<trkpt lat="51.564737" lon="03.819826"><ele>12.8</ele><time>2022-11-15T13:09:33Z</time><name>PT6836</name></trkpt>
<trkpt lat="51.564747" lon="03.819831"><ele>13</ele><time>2022-11-15T13:09:35Z</time><name>PT6837</name></trkpt>
<trkpt lat="51.564758" lon="03.819836"><ele>13.1</ele><time>2022-11-15T13:09:35Z</time><name>PT6838</name></trkpt>
<trkpt lat="51.564768" lon="03.819839"><ele>13.2</ele><time>2022-11-15T13:09:37Z</time><name>PT6839</name></trkpt>
<trkpt lat="51.564772" lon="03.819845"><ele>13.2</ele><time>2022-11-15T13:09:37Z</time><name>PT6840</name></trkpt>
<trkpt lat="51.564773" lon="03.819848"><ele>13.3</ele><time>2022-11-15T13:09:39Z</time><name>PT6841</name></trkpt>
<trkpt lat="51.564778" lon="03.819849"><ele>13.1</ele><time>2022-11-15T13:09:39Z</time><name>PT6842</name></trkpt>
<trkpt lat="51.564787" lon="03.819853"><ele>13.1</ele><time>2022-11-15T13:09:41Z</time><name>PT6843</name></trkpt>
<trkpt lat="51.564797" lon="03.819858"><ele>13.1</ele><time>2022-11-15T13:09:41Z</time><name>PT6844</name></trkpt>
<trkpt lat="51.564808" lon="03.819862"><ele>13.2</ele><time>2022-11-15T13:09:43Z</time><name>PT6845</name></trkpt>
<trkpt lat="51.564820" lon="03.819866"><ele>13.1</ele><time>2022-11-15T13:09:43Z</time><name>PT6846</name></trkpt>
<trkpt lat="51.564830" lon="03.819870"><ele>13.3</ele><time>2022-11-15T13:09:45Z</time><name>PT6847</name></trkpt>
<trkpt lat="51.564840" lon="03.819876"><ele>13.3</ele><time>2022-11-15T13:09:45Z</time><name>PT6848</name></trkpt>
<trkpt lat="51.564851" lon="03.819883"><ele>13.3</ele><time>2022-11-15T13:09:47Z</time><name>PT6849</name></trkpt>
<trkpt lat="51.564861" lon="03.819888"><ele>13.5</ele><time>2022-11-15T13:09:47Z</time><name>PT6850</name></trkpt>
<trkpt lat="51.564872" lon="03.819892"><ele>13.5</ele><time>2022-11-15T13:09:49Z</time><name>PT6851</name></trkpt>
<trkpt lat="51.564882" lon="03.819895"><ele>13.6</ele><time>2022-11-15T13:09:49Z</time><name>PT6852</name></trkpt>
<trkpt lat="51.564893" lon="03.819898"><ele>13.7</ele><time>2022-11-15T13:09:51Z</time><name>PT6853</name></trkpt>
<trkpt lat="51.564904" lon="03.819903"><ele>13.6</ele><time>2022-11-15T13:09:51Z</time><name>PT6854</name></trkpt>
<trkpt lat="51.564915" lon="03.819908"><ele>13.6</ele><time>2022-11-15T13:09:53Z</time><name>PT6855</name></trkpt>
<trkpt lat="51.564926" lon="03.819913"><ele>13.6</ele><time>2022-11-15T13:09:53Z</time><name>PT6856</name></trkpt>
<trkpt lat="51.564936" lon="03.819919"><ele>13.5</ele><time>2022-11-15T13:09:55Z</time><name>PT6857</name></trkpt>
<trkpt lat="51.564947" lon="03.819926"><ele>13.4</ele><time>2022-11-15T13:09:55Z</time><name>PT6858</name></trkpt>
<trkpt lat="51.564958" lon="03.819932"><ele>13.4</ele><time>2022-11-15T13:09:57Z</time><name>PT6859</name></trkpt>
<trkpt lat="51.564968" lon="03.819941"><ele>13.2</ele><time>2022-11-15T13:09:57Z</time><name>PT6860</name></trkpt>
<trkpt lat="51.564981" lon="03.819948"><ele>13.4</ele><time>2022-11-15T13:09:59Z</time><name>PT6861</name></trkpt>
<trkpt lat="51.564992" lon="03.819953"><ele>13.3</ele><time>2022-11-15T13:09:59Z</time><name>PT6862</name></trkpt>
<trkpt lat="51.565002" lon="03.819958"><ele>13.4</ele><time>2022-11-15T13:10:01Z</time><name>PT6863</name></trkpt>
<trkpt lat="51.565013" lon="03.819962"><ele>13.4</ele><time>2022-11-15T13:10:01Z</time><name>PT6864</name></trkpt>
<trkpt lat="51.565024" lon="03.819965"><ele>13.4</ele><time>2022-11-15T13:10:03Z</time><name>PT6865</name></trkpt>
<trkpt lat="51.565035" lon="03.819969"><ele>13.5</ele><time>2022-11-15T13:10:03Z</time><name>PT6866</name></trkpt>
<trkpt lat="51.565046" lon="03.819973"><ele>13.5</ele><time>2022-11-15T13:10:05Z</time><name>PT6867</name></trkpt>
<trkpt lat="51.565058" lon="03.819977"><ele>13.4</ele><time>2022-11-15T13:10:05Z</time><name>PT6868</name></trkpt>
<trkpt lat="51.565067" lon="03.819982"><ele>13.3</ele><time>2022-11-15T13:10:07Z</time><name>PT6869</name></trkpt>
<trkpt lat="51.565076" lon="03.819988"><ele>13.3</ele><time>2022-11-15T13:10:07Z</time><name>PT6870</name></trkpt>
<trkpt lat="51.565086" lon="03.819995"><ele>13.2</ele><time>2022-11-15T13:10:09Z</time><name>PT6871</name></trkpt>
<trkpt lat="51.565096" lon="03.820002"><ele>13.2</ele><time>2022-11-15T13:10:09Z</time><name>PT6872</name></trkpt>
<trkpt lat="51.565107" lon="03.820010"><ele>13.4</ele><time>2022-11-15T13:10:11Z</time><name>PT6873</name></trkpt>
<trkpt lat="51.565118" lon="03.820016"><ele>13.5</ele><time>2022-11-15T13:10:11Z</time><name>PT6874</name></trkpt>
<trkpt lat="51.565129" lon="03.820021"><ele>13.4</ele><time>2022-11-15T13:10:13Z</time><name>PT6875</name></trkpt>
<trkpt lat="51.565139" lon="03.820025"><ele>13.4</ele><time>2022-11-15T13:10:13Z</time><name>PT6876</name></trkpt>
<trkpt lat="51.565149" lon="03.820029"><ele>13.4</ele><time>2022-11-15T13:10:15Z</time><name>PT6877</name></trkpt>
<trkpt lat="51.565161" lon="03.820032"><ele>13.4</ele><time>2022-11-15T13:10:15Z</time><name>PT6878</name></trkpt>
<trkpt lat="51.565173" lon="03.820036"><ele>13.6</ele><time>2022-11-15T13:10:17Z</time><name>PT6879</name></trkpt>
<trkpt lat="51.565183" lon="03.820039"><ele>13.7</ele><time>2022-11-15T13:10:17Z</time><name>PT6880</name></trkpt>
<trkpt lat="51.565195" lon="03.820043"><ele>13.7</ele><time>2022-11-15T13:10:19Z</time><name>PT6881</name></trkpt>
<trkpt lat="51.565205" lon="03.820048"><ele>13.8</ele><time>2022-11-15T13:10:19Z</time><name>PT6882</name></trkpt>
<trkpt lat="51.565216" lon="03.820054"><ele>13.7</ele><time>2022-11-15T13:10:21Z</time><name>PT6883</name></trkpt>
<trkpt lat="51.565227" lon="03.820060"><ele>13.6</ele><time>2022-11-15T13:10:21Z</time><name>PT6884</name></trkpt>
<trkpt lat="51.565238" lon="03.820067"><ele>13.5</ele><time>2022-11-15T13:10:23Z</time><name>PT6885</name></trkpt>
<trkpt lat="51.565249" lon="03.820074"><ele>13.5</ele><time>2022-11-15T13:10:23Z</time><name>PT6886</name></trkpt>
<trkpt lat="51.565260" lon="03.820081"><ele>13.2</ele><time>2022-11-15T13:10:25Z</time><name>PT6887</name></trkpt>
<trkpt lat="51.565270" lon="03.820088"><ele>13.1</ele><time>2022-11-15T13:10:25Z</time><name>PT6888</name></trkpt>
<trkpt lat="51.565281" lon="03.820093"><ele>13.1</ele><time>2022-11-15T13:10:27Z</time><name>PT6889</name></trkpt>
<trkpt lat="51.565292" lon="03.820098"><ele>13.1</ele><time>2022-11-15T13:10:27Z</time><name>PT6890</name></trkpt>
<trkpt lat="51.565303" lon="03.820102"><ele>13.1</ele><time>2022-11-15T13:10:29Z</time><name>PT6891</name></trkpt>
<trkpt lat="51.565314" lon="03.820106"><ele>13.1</ele><time>2022-11-15T13:10:29Z</time><name>PT6892</name></trkpt>
<trkpt lat="51.565326" lon="03.820110"><ele>13.1</ele><time>2022-11-15T13:10:31Z</time><name>PT6893</name></trkpt>
<trkpt lat="51.565337" lon="03.820113"><ele>13.1</ele><time>2022-11-15T13:10:31Z</time><name>PT6894</name></trkpt>
<trkpt lat="51.565348" lon="03.820117"><ele>13.2</ele><time>2022-11-15T13:10:33Z</time><name>PT6895</name></trkpt>
<trkpt lat="51.565359" lon="03.820124"><ele>13.4</ele><time>2022-11-15T13:10:33Z</time><name>PT6896</name></trkpt>
<trkpt lat="51.565365" lon="03.820130"><ele>13.6</ele><time>2022-11-15T13:10:35Z</time><name>PT6897</name></trkpt>
<trkpt lat="51.565376" lon="03.820133"><ele>13.7</ele><time>2022-11-15T13:10:35Z</time><name>PT6898</name></trkpt>
<trkpt lat="51.565386" lon="03.820139"><ele>13.6</ele><time>2022-11-15T13:10:37Z</time><name>PT6899</name></trkpt>
<trkpt lat="51.565398" lon="03.820146"><ele>13.6</ele><time>2022-11-15T13:10:37Z</time><name>PT6900</name></trkpt>
<trkpt lat="51.565410" lon="03.820153"><ele>13.5</ele><time>2022-11-15T13:10:39Z</time><name>PT6901</name></trkpt>
<trkpt lat="51.565420" lon="03.820158"><ele>13.5</ele><time>2022-11-15T13:10:39Z</time><name>PT6902</name></trkpt>
<trkpt lat="51.565429" lon="03.820164"><ele>13.4</ele><time>2022-11-15T13:10:41Z</time><name>PT6903</name></trkpt>
<trkpt lat="51.565439" lon="03.820169"><ele>13.6</ele><time>2022-11-15T13:10:41Z</time><name>PT6904</name></trkpt>
<trkpt lat="51.565449" lon="03.820176"><ele>13.6</ele><time>2022-11-15T13:10:43Z</time><name>PT6905</name></trkpt>
<trkpt lat="51.565460" lon="03.820181"><ele>13.6</ele><time>2022-11-15T13:10:43Z</time><name>PT6906</name></trkpt>
<trkpt lat="51.565470" lon="03.820184"><ele>13.4</ele><time>2022-11-15T13:10:45Z</time><name>PT6907</name></trkpt>
<trkpt lat="51.565481" lon="03.820184"><ele>13.4</ele><time>2022-11-15T13:10:45Z</time><name>PT6908</name></trkpt>
<trkpt lat="51.565490" lon="03.820182"><ele>13.4</ele><time>2022-11-15T13:10:47Z</time><name>PT6909</name></trkpt>
<trkpt lat="51.565498" lon="03.820184"><ele>13.4</ele><time>2022-11-15T13:10:47Z</time><name>PT6910</name></trkpt>
<trkpt lat="51.565502" lon="03.820189"><ele>13.5</ele><time>2022-11-15T13:10:49Z</time><name>PT6911</name></trkpt>
<trkpt lat="51.565509" lon="03.820193"><ele>13.5</ele><time>2022-11-15T13:10:49Z</time><name>PT6912</name></trkpt>
<trkpt lat="51.565519" lon="03.820199"><ele>13.4</ele><time>2022-11-15T13:10:51Z</time><name>PT6913</name></trkpt>
<trkpt lat="51.565529" lon="03.820208"><ele>13.3</ele><time>2022-11-15T13:10:51Z</time><name>PT6914</name></trkpt>
<trkpt lat="51.565541" lon="03.820218"><ele>13.1</ele><time>2022-11-15T13:10:53Z</time><name>PT6915</name></trkpt>
<trkpt lat="51.565554" lon="03.820226"><ele>13</ele><time>2022-11-15T13:10:53Z</time><name>PT6916</name></trkpt>
<trkpt lat="51.565571" lon="03.820236"><ele>13.1</ele><time>2022-11-15T13:10:55Z</time><name>PT6917</name></trkpt>
<trkpt lat="51.565584" lon="03.820244"><ele>13.2</ele><time>2022-11-15T13:10:55Z</time><name>PT6918</name></trkpt>
<trkpt lat="51.565597" lon="03.820251"><ele>13.1</ele><time>2022-11-15T13:10:57Z</time><name>PT6919</name></trkpt>
<trkpt lat="51.565610" lon="03.820255"><ele>13.4</ele><time>2022-11-15T13:10:57Z</time><name>PT6920</name></trkpt>
<trkpt lat="51.565620" lon="03.820257"><ele>13.3</ele><time>2022-11-15T13:10:59Z</time><name>PT6921</name></trkpt>
<trkpt lat="51.565627" lon="03.820261"><ele>13.2</ele><time>2022-11-15T13:11:00Z</time><name>PT6922</name></trkpt>
<trkpt lat="51.565633" lon="03.820265"><ele>13.1</ele><time>2022-11-15T13:11:01Z</time><name>PT6923</name></trkpt>
<trkpt lat="51.565639" lon="03.820268"><ele>13.1</ele><time>2022-11-15T13:11:02Z</time><name>PT6924</name></trkpt>
<trkpt lat="51.565648" lon="03.820273"><ele>13.1</ele><time>2022-11-15T13:11:03Z</time><name>PT6925</name></trkpt>
<trkpt lat="51.565656" lon="03.820278"><ele>13.3</ele><time>2022-11-15T13:11:04Z</time><name>PT6926</name></trkpt>
<trkpt lat="51.565666" lon="03.820284"><ele>13.3</ele><time>2022-11-15T13:11:05Z</time><name>PT6927</name></trkpt>
<trkpt lat="51.565675" lon="03.820292"><ele>13.2</ele><time>2022-11-15T13:11:06Z</time><name>PT6928</name></trkpt>
<trkpt lat="51.565685" lon="03.820298"><ele>13.2</ele><time>2022-11-15T13:11:07Z</time><name>PT6929</name></trkpt>
<trkpt lat="51.565699" lon="03.820305"><ele>13.1</ele><time>2022-11-15T13:11:08Z</time><name>PT6930</name></trkpt>
<trkpt lat="51.565713" lon="03.820314"><ele>13.1</ele><time>2022-11-15T13:11:09Z</time><name>PT6931</name></trkpt>
<trkpt lat="51.565727" lon="03.820323"><ele>13.1</ele><time>2022-11-15T13:11:10Z</time><name>PT6932</name></trkpt>
<trkpt lat="51.565742" lon="03.820330"><ele>13.3</ele><time>2022-11-15T13:11:11Z</time><name>PT6933</name></trkpt>
<trkpt lat="51.565756" lon="03.820335"><ele>13.3</ele><time>2022-11-15T13:11:12Z</time><name>PT6934</name></trkpt>
<trkpt lat="51.565768" lon="03.820337"><ele>13.2</ele><time>2022-11-15T13:11:13Z</time><name>PT6935</name></trkpt>
<trkpt lat="51.565778" lon="03.820339"><ele>13.4</ele><time>2022-11-15T13:11:13Z</time><name>PT6936</name></trkpt>
<trkpt lat="51.565789" lon="03.820341"><ele>13.3</ele><time>2022-11-15T13:11:15Z</time><name>PT6937</name></trkpt>
<trkpt lat="51.565799" lon="03.820343"><ele>13.2</ele><time>2022-11-15T13:11:15Z</time><name>PT6938</name></trkpt>
<trkpt lat="51.565808" lon="03.820344"><ele>13.2</ele><time>2022-11-15T13:11:17Z</time><name>PT6939</name></trkpt>
<trkpt lat="51.565815" lon="03.820345"><ele>13.2</ele><time>2022-11-15T13:11:17Z</time><name>PT6940</name></trkpt>
<trkpt lat="51.565822" lon="03.820348"><ele>13.1</ele><time>2022-11-15T13:11:19Z</time><name>PT6941</name></trkpt>
<trkpt lat="51.565830" lon="03.820353"><ele>13.1</ele><time>2022-11-15T13:11:19Z</time><name>PT6942</name></trkpt>
<trkpt lat="51.565840" lon="03.820359"><ele>13.1</ele><time>2022-11-15T13:11:21Z</time><name>PT6943</name></trkpt>
<trkpt lat="51.565852" lon="03.820369"><ele>13.1</ele><time>2022-11-15T13:11:21Z</time><name>PT6944</name></trkpt>
<trkpt lat="51.565858" lon="03.820382"><ele>13.1</ele><time>2022-11-15T13:11:23Z</time><name>PT6945</name></trkpt>
<trkpt lat="51.565863" lon="03.820390"><ele>13</ele><time>2022-11-15T13:11:23Z</time><name>PT6946</name></trkpt>
<trkpt lat="51.565869" lon="03.820397"><ele>12.9</ele><time>2022-11-15T13:11:25Z</time><name>PT6947</name></trkpt>
<trkpt lat="51.565874" lon="03.820403"><ele>12.9</ele><time>2022-11-15T13:11:25Z</time><name>PT6948</name></trkpt>
<trkpt lat="51.565881" lon="03.820408"><ele>12.7</ele><time>2022-11-15T13:11:27Z</time><name>PT6949</name></trkpt>
<trkpt lat="51.565892" lon="03.820413"><ele>12.6</ele><time>2022-11-15T13:11:27Z</time><name>PT6950</name></trkpt>
<trkpt lat="51.565908" lon="03.820417"><ele>12.7</ele><time>2022-11-15T13:11:29Z</time><name>PT6951</name></trkpt>
<trkpt lat="51.565929" lon="03.820422"><ele>12.6</ele><time>2022-11-15T13:11:30Z</time><name>PT6952</name></trkpt>
<trkpt lat="51.565947" lon="03.820428"><ele>12.5</ele><time>2022-11-15T13:11:30Z</time><name>PT6953</name></trkpt>
<trkpt lat="51.565960" lon="03.820435"><ele>12.5</ele><time>2022-11-15T13:11:32Z</time><name>PT6954</name></trkpt>
<trkpt lat="51.565966" lon="03.820443"><ele>12.6</ele><time>2022-11-15T13:11:32Z</time><name>PT6955</name></trkpt>
<trkpt lat="51.565970" lon="03.820447"><ele>12.6</ele><time>2022-11-15T13:11:34Z</time><name>PT6956</name></trkpt>
<trkpt lat="51.565978" lon="03.820452"><ele>12.8</ele><time>2022-11-15T13:11:34Z</time><name>PT6957</name></trkpt>
<trkpt lat="51.565990" lon="03.820456"><ele>12.9</ele><time>2022-11-15T13:11:36Z</time><name>PT6958</name></trkpt>
<trkpt lat="51.566007" lon="03.820460"><ele>12.8</ele><time>2022-11-15T13:11:36Z</time><name>PT6959</name></trkpt>
<trkpt lat="51.566028" lon="03.820466"><ele>12.7</ele><time>2022-11-15T13:11:38Z</time><name>PT6960</name></trkpt>
<trkpt lat="51.566047" lon="03.820473"><ele>12.6</ele><time>2022-11-15T13:11:38Z</time><name>PT6961</name></trkpt>
<trkpt lat="51.566063" lon="03.820479"><ele>12.6</ele><time>2022-11-15T13:11:40Z</time><name>PT6962</name></trkpt>
<trkpt lat="51.566074" lon="03.820485"><ele>12.5</ele><time>2022-11-15T13:11:40Z</time><name>PT6963</name></trkpt>
<trkpt lat="51.566080" lon="03.820489"><ele>12.6</ele><time>2022-11-15T13:11:42Z</time><name>PT6964</name></trkpt>
<trkpt lat="51.566083" lon="03.820491"><ele>12.6</ele><time>2022-11-15T13:11:42Z</time><name>PT6965</name></trkpt>
<trkpt lat="51.566091" lon="03.820491"><ele>12.6</ele><time>2022-11-15T13:11:44Z</time><name>PT6966</name></trkpt>
<trkpt lat="51.566099" lon="03.820496"><ele>12.6</ele><time>2022-11-15T13:11:44Z</time><name>PT6967</name></trkpt>
<trkpt lat="51.566114" lon="03.820504"><ele>12.6</ele><time>2022-11-15T13:11:46Z</time><name>PT6968</name></trkpt>
<trkpt lat="51.566132" lon="03.820511"><ele>12.7</ele><time>2022-11-15T13:11:47Z</time><name>PT6969</name></trkpt>
<trkpt lat="51.566147" lon="03.820517"><ele>12.7</ele><time>2022-11-15T13:11:48Z</time><name>PT6970</name></trkpt>
<trkpt lat="51.566158" lon="03.820523"><ele>12.7</ele><time>2022-11-15T13:11:49Z</time><name>PT6971</name></trkpt>
<trkpt lat="51.566163" lon="03.820531"><ele>12.7</ele><time>2022-11-15T13:11:50Z</time><name>PT6972</name></trkpt>
<trkpt lat="51.566167" lon="03.820534"><ele>12.5</ele><time>2022-11-15T13:11:51Z</time><name>PT6973</name></trkpt>
<trkpt lat="51.566177" lon="03.820536"><ele>12.2</ele><time>2022-11-15T13:11:52Z</time><name>PT6974</name></trkpt>
<trkpt lat="51.566193" lon="03.820544"><ele>11.9</ele><time>2022-11-15T13:11:53Z</time><name>PT6975</name></trkpt>
<trkpt lat="51.566211" lon="03.820554"><ele>11.7</ele><time>2022-11-15T13:11:54Z</time><name>PT6976</name></trkpt>
<trkpt lat="51.566225" lon="03.820562"><ele>11.5</ele><time>2022-11-15T13:11:55Z</time><name>PT6977</name></trkpt>
<trkpt lat="51.566235" lon="03.820567"><ele>11.3</ele><time>2022-11-15T13:11:56Z</time><name>PT6978</name></trkpt>
<trkpt lat="51.566241" lon="03.820571"><ele>11.2</ele><time>2022-11-15T13:11:57Z</time><name>PT6979</name></trkpt>
<trkpt lat="51.566247" lon="03.820573"><ele>11.5</ele><time>2022-11-15T13:11:58Z</time><name>PT6980</name></trkpt>
<trkpt lat="51.566256" lon="03.820574"><ele>11.6</ele><time>2022-11-15T13:11:59Z</time><name>PT6981</name></trkpt>
<trkpt lat="51.566268" lon="03.820576"><ele>11.9</ele><time>2022-11-15T13:12:00Z</time><name>PT6982</name></trkpt>
<trkpt lat="51.566281" lon="03.820580"><ele>12.3</ele><time>2022-11-15T13:12:00Z</time><name>PT6983</name></trkpt>
<trkpt lat="51.566291" lon="03.820583"><ele>12.6</ele><time>2022-11-15T13:12:02Z</time><name>PT6984</name></trkpt>
<trkpt lat="51.566299" lon="03.820589"><ele>12.5</ele><time>2022-11-15T13:12:02Z</time><name>PT6985</name></trkpt>
<trkpt lat="51.566305" lon="03.820592"><ele>12.5</ele><time>2022-11-15T13:12:04Z</time><name>PT6986</name></trkpt>
<trkpt lat="51.566311" lon="03.820594"><ele>12.5</ele><time>2022-11-15T13:12:04Z</time><name>PT6987</name></trkpt>
<trkpt lat="51.566319" lon="03.820599"><ele>12.6</ele><time>2022-11-15T13:12:06Z</time><name>PT6988</name></trkpt>
<trkpt lat="51.566329" lon="03.820603"><ele>12.6</ele><time>2022-11-15T13:12:06Z</time><name>PT6989</name></trkpt>
<trkpt lat="51.566341" lon="03.820608"><ele>12.7</ele><time>2022-11-15T13:12:08Z</time><name>PT6990</name></trkpt>
<trkpt lat="51.566353" lon="03.820614"><ele>12.7</ele><time>2022-11-15T13:12:08Z</time><name>PT6991</name></trkpt>
<trkpt lat="51.566365" lon="03.820619"><ele>12.8</ele><time>2022-11-15T13:12:10Z</time><name>PT6992</name></trkpt>
<trkpt lat="51.566374" lon="03.820623"><ele>12.9</ele><time>2022-11-15T13:12:10Z</time><name>PT6993</name></trkpt>
<trkpt lat="51.566385" lon="03.820628"><ele>13</ele><time>2022-11-15T13:12:12Z</time><name>PT6994</name></trkpt>
<trkpt lat="51.566395" lon="03.820634"><ele>12.9</ele><time>2022-11-15T13:12:12Z</time><name>PT6995</name></trkpt>
<trkpt lat="51.566405" lon="03.820636"><ele>13</ele><time>2022-11-15T13:12:14Z</time><name>PT6996</name></trkpt>
<trkpt lat="51.566413" lon="03.820638"><ele>13</ele><time>2022-11-15T13:12:14Z</time><name>PT6997</name></trkpt>
<trkpt lat="51.566421" lon="03.820642"><ele>13</ele><time>2022-11-15T13:12:16Z</time><name>PT6998</name></trkpt>
<trkpt lat="51.566431" lon="03.820646"><ele>13</ele><time>2022-11-15T13:12:16Z</time><name>PT6999</name></trkpt>
<trkpt lat="51.566442" lon="03.820650"><ele>13.1</ele><time>2022-11-15T13:12:18Z</time><name>PT7000</name></trkpt>
<trkpt lat="51.566453" lon="03.820655"><ele>13.1</ele><time>2022-11-15T13:12:18Z</time><name>PT7001</name></trkpt>
<trkpt lat="51.566462" lon="03.820660"><ele>13.1</ele><time>2022-11-15T13:12:20Z</time><name>PT7002</name></trkpt>
<trkpt lat="51.566471" lon="03.820665"><ele>13</ele><time>2022-11-15T13:12:20Z</time><name>PT7003</name></trkpt>
<trkpt lat="51.566480" lon="03.820670"><ele>12.6</ele><time>2022-11-15T13:12:22Z</time><name>PT7004</name></trkpt>
<trkpt lat="51.566489" lon="03.820673"><ele>12.6</ele><time>2022-11-15T13:12:22Z</time><name>PT7005</name></trkpt>
<trkpt lat="51.566499" lon="03.820676"><ele>12.6</ele><time>2022-11-15T13:12:24Z</time><name>PT7006</name></trkpt>
<trkpt lat="51.566514" lon="03.820681"><ele>12.6</ele><time>2022-11-15T13:12:24Z</time><name>PT7007</name></trkpt>
<trkpt lat="51.566525" lon="03.820686"><ele>13</ele><time>2022-11-15T13:12:26Z</time><name>PT7008</name></trkpt>
<trkpt lat="51.566536" lon="03.820691"><ele>13.1</ele><time>2022-11-15T13:12:26Z</time><name>PT7009</name></trkpt>
<trkpt lat="51.566546" lon="03.820698"><ele>13.3</ele><time>2022-11-15T13:12:28Z</time><name>PT7010</name></trkpt>
<trkpt lat="51.566557" lon="03.820704"><ele>13.4</ele><time>2022-11-15T13:12:28Z</time><name>PT7011</name></trkpt>
<trkpt lat="51.566567" lon="03.820709"><ele>13.5</ele><time>2022-11-15T13:12:30Z</time><name>PT7012</name></trkpt>
<trkpt lat="51.566579" lon="03.820712"><ele>13.6</ele><time>2022-11-15T13:12:30Z</time><name>PT7013</name></trkpt>
<trkpt lat="51.566590" lon="03.820715"><ele>13.6</ele><time>2022-11-15T13:12:32Z</time><name>PT7014</name></trkpt>
<trkpt lat="51.566600" lon="03.820720"><ele>13.6</ele><time>2022-11-15T13:12:32Z</time><name>PT7015</name></trkpt>
<trkpt lat="51.566610" lon="03.820725"><ele>13.6</ele><time>2022-11-15T13:12:34Z</time><name>PT7016</name></trkpt>
<trkpt lat="51.566621" lon="03.820730"><ele>13.5</ele><time>2022-11-15T13:12:34Z</time><name>PT7017</name></trkpt>
<trkpt lat="51.566630" lon="03.820734"><ele>13.6</ele><time>2022-11-15T13:12:36Z</time><name>PT7018</name></trkpt>
<trkpt lat="51.566642" lon="03.820737"><ele>13.8</ele><time>2022-11-15T13:12:36Z</time><name>PT7019</name></trkpt>
<trkpt lat="51.566658" lon="03.820742"><ele>13.8</ele><time>2022-11-15T13:12:38Z</time><name>PT7020</name></trkpt>
<trkpt lat="51.566675" lon="03.820745"><ele>13.8</ele><time>2022-11-15T13:12:38Z</time><name>PT7021</name></trkpt>
<trkpt lat="51.566687" lon="03.820748"><ele>13.9</ele><time>2022-11-15T13:12:40Z</time><name>PT7022</name></trkpt>
<trkpt lat="51.566697" lon="03.820751"><ele>13.9</ele><time>2022-11-15T13:12:40Z</time><name>PT7023</name></trkpt>
<trkpt lat="51.566706" lon="03.820755"><ele>13.9</ele><time>2022-11-15T13:12:42Z</time><name>PT7024</name></trkpt>
<trkpt lat="51.566717" lon="03.820761"><ele>14.2</ele><time>2022-11-15T13:12:42Z</time><name>PT7025</name></trkpt>
<trkpt lat="51.566727" lon="03.820768"><ele>14.6</ele><time>2022-11-15T13:12:44Z</time><name>PT7026</name></trkpt>
<trkpt lat="51.566737" lon="03.820774"><ele>14.5</ele><time>2022-11-15T13:12:44Z</time><name>PT7027</name></trkpt>
<trkpt lat="51.566749" lon="03.820779"><ele>14.5</ele><time>2022-11-15T13:12:46Z</time><name>PT7028</name></trkpt>
<trkpt lat="51.566762" lon="03.820784"><ele>14.1</ele><time>2022-11-15T13:12:46Z</time><name>PT7029</name></trkpt>
<trkpt lat="51.566770" lon="03.820788"><ele>13.7</ele><time>2022-11-15T13:12:48Z</time><name>PT7030</name></trkpt>
<trkpt lat="51.566777" lon="03.820790"><ele>13.4</ele><time>2022-11-15T13:12:48Z</time><name>PT7031</name></trkpt>
<trkpt lat="51.566786" lon="03.820794"><ele>13.2</ele><time>2022-11-15T13:12:50Z</time><name>PT7032</name></trkpt>
<trkpt lat="51.566792" lon="03.820795"><ele>13.1</ele><time>2022-11-15T13:12:50Z</time><name>PT7033</name></trkpt>
<trkpt lat="51.566800" lon="03.820801"><ele>13.1</ele><time>2022-11-15T13:12:52Z</time><name>PT7034</name></trkpt>
<trkpt lat="51.566814" lon="03.820812"><ele>13.2</ele><time>2022-11-15T13:12:52Z</time><name>PT7035</name></trkpt>
<trkpt lat="51.566825" lon="03.820821"><ele>13.1</ele><time>2022-11-15T13:12:54Z</time><name>PT7036</name></trkpt>
<trkpt lat="51.566838" lon="03.820829"><ele>13.1</ele><time>2022-11-15T13:12:54Z</time><name>PT7037</name></trkpt>
<trkpt lat="51.566849" lon="03.820833"><ele>13.1</ele><time>2022-11-15T13:12:56Z</time><name>PT7038</name></trkpt>
<trkpt lat="51.566857" lon="03.820834"><ele>13.1</ele><time>2022-11-15T13:12:56Z</time><name>PT7039</name></trkpt>
<trkpt lat="51.566864" lon="03.820840"><ele>13.4</ele><time>2022-11-15T13:12:58Z</time><name>PT7040</name></trkpt>
<trkpt lat="51.566872" lon="03.820846"><ele>13.6</ele><time>2022-11-15T13:12:59Z</time><name>PT7041</name></trkpt>
<trkpt lat="51.566881" lon="03.820853"><ele>13.5</ele><time>2022-11-15T13:13:00Z</time><name>PT7042</name></trkpt>
<trkpt lat="51.566891" lon="03.820859"><ele>13.6</ele><time>2022-11-15T13:13:01Z</time><name>PT7043</name></trkpt>
<trkpt lat="51.566900" lon="03.820864"><ele>13.6</ele><time>2022-11-15T13:13:02Z</time><name>PT7044</name></trkpt>
<trkpt lat="51.566911" lon="03.820869"><ele>13.6</ele><time>2022-11-15T13:13:03Z</time><name>PT7045</name></trkpt>
<trkpt lat="51.566920" lon="03.820872"><ele>13.5</ele><time>2022-11-15T13:13:04Z</time><name>PT7046</name></trkpt>
<trkpt lat="51.566929" lon="03.820876"><ele>13.5</ele><time>2022-11-15T13:13:05Z</time><name>PT7047</name></trkpt>
<trkpt lat="51.566940" lon="03.820880"><ele>13.6</ele><time>2022-11-15T13:13:06Z</time><name>PT7048</name></trkpt>
<trkpt lat="51.566950" lon="03.820885"><ele>13.6</ele><time>2022-11-15T13:13:07Z</time><name>PT7049</name></trkpt>
<trkpt lat="51.566959" lon="03.820890"><ele>13.7</ele><time>2022-11-15T13:13:08Z</time><name>PT7050</name></trkpt>
<trkpt lat="51.566968" lon="03.820895"><ele>13.8</ele><time>2022-11-15T13:13:08Z</time><name>PT7051</name></trkpt>
<trkpt lat="51.566978" lon="03.820900"><ele>13.8</ele><time>2022-11-15T13:13:10Z</time><name>PT7052</name></trkpt>
<trkpt lat="51.566988" lon="03.820904"><ele>13.6</ele><time>2022-11-15T13:13:10Z</time><name>PT7053</name></trkpt>
<trkpt lat="51.566997" lon="03.820906"><ele>13.6</ele><time>2022-11-15T13:13:12Z</time><name>PT7054</name></trkpt>
<trkpt lat="51.567006" lon="03.820910"><ele>13.5</ele><time>2022-11-15T13:13:12Z</time><name>PT7055</name></trkpt>
<trkpt lat="51.567015" lon="03.820918"><ele>13.4</ele><time>2022-11-15T13:13:14Z</time><name>PT7056</name></trkpt>
<trkpt lat="51.567024" lon="03.820924"><ele>13.4</ele><time>2022-11-15T13:13:14Z</time><name>PT7057</name></trkpt>
<trkpt lat="51.567031" lon="03.820929"><ele>13.7</ele><time>2022-11-15T13:13:16Z</time><name>PT7058</name></trkpt>
<trkpt lat="51.567041" lon="03.820933"><ele>13.7</ele><time>2022-11-15T13:13:16Z</time><name>PT7059</name></trkpt>
<trkpt lat="51.567051" lon="03.820936"><ele>13.8</ele><time>2022-11-15T13:13:18Z</time><name>PT7060</name></trkpt>
<trkpt lat="51.567061" lon="03.820940"><ele>13.9</ele><time>2022-11-15T13:13:18Z</time><name>PT7061</name></trkpt>
<trkpt lat="51.567071" lon="03.820944"><ele>13.8</ele><time>2022-11-15T13:13:20Z</time><name>PT7062</name></trkpt>
<trkpt lat="51.567081" lon="03.820950"><ele>13.6</ele><time>2022-11-15T13:13:20Z</time><name>PT7063</name></trkpt>
<trkpt lat="51.567090" lon="03.820956"><ele>13.6</ele><time>2022-11-15T13:13:22Z</time><name>PT7064</name></trkpt>
<trkpt lat="51.567100" lon="03.820962"><ele>13.4</ele><time>2022-11-15T13:13:22Z</time><name>PT7065</name></trkpt>
<trkpt lat="51.567109" lon="03.820966"><ele>13.4</ele><time>2022-11-15T13:13:24Z</time><name>PT7066</name></trkpt>
<trkpt lat="51.567119" lon="03.820970"><ele>13.2</ele><time>2022-11-15T13:13:24Z</time><name>PT7067</name></trkpt>
<trkpt lat="51.567127" lon="03.820974"><ele>13.2</ele><time>2022-11-15T13:13:26Z</time><name>PT7068</name></trkpt>
<trkpt lat="51.567136" lon="03.820978"><ele>13.2</ele><time>2022-11-15T13:13:26Z</time><name>PT7069</name></trkpt>
<trkpt lat="51.567145" lon="03.820982"><ele>13.4</ele><time>2022-11-15T13:13:28Z</time><name>PT7070</name></trkpt>
<trkpt lat="51.567154" lon="03.820987"><ele>13.3</ele><time>2022-11-15T13:13:28Z</time><name>PT7071</name></trkpt>
<trkpt lat="51.567165" lon="03.820993"><ele>13.4</ele><time>2022-11-15T13:13:30Z</time><name>PT7072</name></trkpt>
<trkpt lat="51.567174" lon="03.820998"><ele>13.3</ele><time>2022-11-15T13:13:30Z</time><name>PT7073</name></trkpt>
<trkpt lat="51.567184" lon="03.821001"><ele>13.6</ele><time>2022-11-15T13:13:32Z</time><name>PT7074</name></trkpt>
<trkpt lat="51.567193" lon="03.821003"><ele>13.6</ele><time>2022-11-15T13:13:32Z</time><name>PT7075</name></trkpt>
<trkpt lat="51.567202" lon="03.821006"><ele>13.9</ele><time>2022-11-15T13:13:34Z</time><name>PT7076</name></trkpt>
<trkpt lat="51.567211" lon="03.821009"><ele>13.9</ele><time>2022-11-15T13:13:34Z</time><name>PT7077</name></trkpt>
<trkpt lat="51.567222" lon="03.821015"><ele>13.9</ele><time>2022-11-15T13:13:36Z</time><name>PT7078</name></trkpt>
<trkpt lat="51.567236" lon="03.821028"><ele>13.6</ele><time>2022-11-15T13:13:36Z</time><name>PT7079</name></trkpt>
<trkpt lat="51.567252" lon="03.821038"><ele>13.3</ele><time>2022-11-15T13:13:38Z</time><name>PT7080</name></trkpt>
<trkpt lat="51.567265" lon="03.821041"><ele>13.1</ele><time>2022-11-15T13:13:38Z</time><name>PT7081</name></trkpt>
<trkpt lat="51.567275" lon="03.821043"><ele>12.9</ele><time>2022-11-15T13:13:40Z</time><name>PT7082</name></trkpt>
<trkpt lat="51.567283" lon="03.821046"><ele>13</ele><time>2022-11-15T13:13:40Z</time><name>PT7083</name></trkpt>
<trkpt lat="51.567291" lon="03.821052"><ele>13</ele><time>2022-11-15T13:13:42Z</time><name>PT7084</name></trkpt>
<trkpt lat="51.567300" lon="03.821060"><ele>13</ele><time>2022-11-15T13:13:42Z</time><name>PT7085</name></trkpt>
<trkpt lat="51.567313" lon="03.821071"><ele>12.8</ele><time>2022-11-15T13:13:44Z</time><name>PT7086</name></trkpt>
<trkpt lat="51.567328" lon="03.821082"><ele>12.7</ele><time>2022-11-15T13:13:44Z</time><name>PT7087</name></trkpt>
<trkpt lat="51.567342" lon="03.821088"><ele>12.6</ele><time>2022-11-15T13:13:46Z</time><name>PT7088</name></trkpt>
<trkpt lat="51.567352" lon="03.821090"><ele>12.6</ele><time>2022-11-15T13:13:46Z</time><name>PT7089</name></trkpt>
<trkpt lat="51.567361" lon="03.821091"><ele>12.4</ele><time>2022-11-15T13:13:48Z</time><name>PT7090</name></trkpt>
<trkpt lat="51.567368" lon="03.821093"><ele>12.6</ele><time>2022-11-15T13:13:48Z</time><name>PT7091</name></trkpt>
<trkpt lat="51.567377" lon="03.821099"><ele>12.6</ele><time>2022-11-15T13:13:50Z</time><name>PT7092</name></trkpt>
<trkpt lat="51.567388" lon="03.821107"><ele>12.9</ele><time>2022-11-15T13:13:50Z</time><name>PT7093</name></trkpt>
<trkpt lat="51.567402" lon="03.821118"><ele>13.1</ele><time>2022-11-15T13:13:52Z</time><name>PT7094</name></trkpt>
<trkpt lat="51.567416" lon="03.821127"><ele>13.4</ele><time>2022-11-15T13:13:52Z</time><name>PT7095</name></trkpt>
<trkpt lat="51.567427" lon="03.821131"><ele>13.5</ele><time>2022-11-15T13:13:54Z</time><name>PT7096</name></trkpt>
<trkpt lat="51.567435" lon="03.821133"><ele>13.6</ele><time>2022-11-15T13:13:54Z</time><name>PT7097</name></trkpt>
<trkpt lat="51.567442" lon="03.821133"><ele>13.5</ele><time>2022-11-15T13:13:56Z</time><name>PT7098</name></trkpt>
<trkpt lat="51.567452" lon="03.821136"><ele>13.2</ele><time>2022-11-15T13:13:56Z</time><name>PT7099</name></trkpt>
<trkpt lat="51.567461" lon="03.821142"><ele>13</ele><time>2022-11-15T13:13:58Z</time><name>PT7100</name></trkpt>
<trkpt lat="51.567472" lon="03.821151"><ele>12.9</ele><time>2022-11-15T13:13:59Z</time><name>PT7101</name></trkpt>
<trkpt lat="51.567485" lon="03.821159"><ele>12.8</ele><time>2022-11-15T13:14:00Z</time><name>PT7102</name></trkpt>
<trkpt lat="51.567499" lon="03.821166"><ele>12.8</ele><time>2022-11-15T13:14:00Z</time><name>PT7103</name></trkpt>
<trkpt lat="51.567513" lon="03.821176"><ele>12.9</ele><time>2022-11-15T13:14:02Z</time><name>PT7104</name></trkpt>
<trkpt lat="51.567522" lon="03.821179"><ele>13.1</ele><time>2022-11-15T13:14:02Z</time><name>PT7105</name></trkpt>
<trkpt lat="51.567529" lon="03.821179"><ele>13.4</ele><time>2022-11-15T13:14:04Z</time><name>PT7106</name></trkpt>
<trkpt lat="51.567534" lon="03.821178"><ele>13.6</ele><time>2022-11-15T13:14:04Z</time><name>PT7107</name></trkpt>
<trkpt lat="51.567541" lon="03.821183"><ele>13.6</ele><time>2022-11-15T13:14:06Z</time><name>PT7108</name></trkpt>
<trkpt lat="51.567554" lon="03.821194"><ele>13.6</ele><time>2022-11-15T13:14:06Z</time><name>PT7109</name></trkpt>
<trkpt lat="51.567565" lon="03.821199"><ele>13.6</ele><time>2022-11-15T13:14:08Z</time><name>PT7110</name></trkpt>
<trkpt lat="51.567576" lon="03.821201"><ele>13.6</ele><time>2022-11-15T13:14:08Z</time><name>PT7111</name></trkpt>
<trkpt lat="51.567585" lon="03.821202"><ele>13.4</ele><time>2022-11-15T13:14:10Z</time><name>PT7112</name></trkpt>
<trkpt lat="51.567594" lon="03.821206"><ele>13.7</ele><time>2022-11-15T13:14:10Z</time><name>PT7113</name></trkpt>
<trkpt lat="51.567602" lon="03.821210"><ele>13.9</ele><time>2022-11-15T13:14:12Z</time><name>PT7114</name></trkpt>
<trkpt lat="51.567611" lon="03.821215"><ele>14</ele><time>2022-11-15T13:14:12Z</time><name>PT7115</name></trkpt>
<trkpt lat="51.567619" lon="03.821221"><ele>13.8</ele><time>2022-11-15T13:14:14Z</time><name>PT7116</name></trkpt>
<trkpt lat="51.567628" lon="03.821226"><ele>14</ele><time>2022-11-15T13:14:14Z</time><name>PT7117</name></trkpt>
<trkpt lat="51.567638" lon="03.821230"><ele>14</ele><time>2022-11-15T13:14:16Z</time><name>PT7118</name></trkpt>
<trkpt lat="51.567649" lon="03.821236"><ele>13.9</ele><time>2022-11-15T13:14:16Z</time><name>PT7119</name></trkpt>
<trkpt lat="51.567660" lon="03.821240"><ele>14.1</ele><time>2022-11-15T13:14:18Z</time><name>PT7120</name></trkpt>
<trkpt lat="51.567671" lon="03.821243"><ele>14.1</ele><time>2022-11-15T13:14:18Z</time><name>PT7121</name></trkpt>
<trkpt lat="51.567680" lon="03.821245"><ele>14.1</ele><time>2022-11-15T13:14:20Z</time><name>PT7122</name></trkpt>
<trkpt lat="51.567690" lon="03.821247"><ele>13.9</ele><time>2022-11-15T13:14:20Z</time><name>PT7123</name></trkpt>
<trkpt lat="51.567700" lon="03.821251"><ele>13.9</ele><time>2022-11-15T13:14:22Z</time><name>PT7124</name></trkpt>
<trkpt lat="51.567709" lon="03.821256"><ele>13.7</ele><time>2022-11-15T13:14:22Z</time><name>PT7125</name></trkpt>
<trkpt lat="51.567719" lon="03.821261"><ele>13.7</ele><time>2022-11-15T13:14:24Z</time><name>PT7126</name></trkpt>
<trkpt lat="51.567733" lon="03.821266"><ele>13.6</ele><time>2022-11-15T13:14:24Z</time><name>PT7127</name></trkpt>
<trkpt lat="51.567750" lon="03.821275"><ele>13.5</ele><time>2022-11-15T13:14:26Z</time><name>PT7128</name></trkpt>
<trkpt lat="51.567766" lon="03.821282"><ele>13.4</ele><time>2022-11-15T13:14:26Z</time><name>PT7129</name></trkpt>
<trkpt lat="51.567778" lon="03.821285"><ele>13.2</ele><time>2022-11-15T13:14:28Z</time><name>PT7130</name></trkpt>
<trkpt lat="51.567784" lon="03.821285"><ele>13.2</ele><time>2022-11-15T13:14:28Z</time><name>PT7131</name></trkpt>
<trkpt lat="51.567789" lon="03.821285"><ele>13.4</ele><time>2022-11-15T13:14:30Z</time><name>PT7132</name></trkpt>
<trkpt lat="51.567795" lon="03.821288"><ele>13.3</ele><time>2022-11-15T13:14:30Z</time><name>PT7133</name></trkpt>
<trkpt lat="51.567803" lon="03.821295"><ele>13.5</ele><time>2022-11-15T13:14:32Z</time><name>PT7134</name></trkpt>
<trkpt lat="51.567816" lon="03.821302"><ele>13.6</ele><time>2022-11-15T13:14:32Z</time><name>PT7135</name></trkpt>
<trkpt lat="51.567833" lon="03.821304"><ele>14</ele><time>2022-11-15T13:14:34Z</time><name>PT7136</name></trkpt>
<trkpt lat="51.567843" lon="03.821304"><ele>13.9</ele><time>2022-11-15T13:14:34Z</time><name>PT7137</name></trkpt>
<trkpt lat="51.567847" lon="03.821303"><ele>14</ele><time>2022-11-15T13:14:36Z</time><name>PT7138</name></trkpt>
<trkpt lat="51.567851" lon="03.821303"><ele>14.1</ele><time>2022-11-15T13:14:36Z</time><name>PT7139</name></trkpt>
<trkpt lat="51.567857" lon="03.821306"><ele>14.1</ele><time>2022-11-15T13:14:38Z</time><name>PT7140</name></trkpt>
<trkpt lat="51.567867" lon="03.821315"><ele>13.9</ele><time>2022-11-15T13:14:38Z</time><name>PT7141</name></trkpt>
<trkpt lat="51.567879" lon="03.821327"><ele>14.1</ele><time>2022-11-15T13:14:40Z</time><name>PT7142</name></trkpt>
<trkpt lat="51.567894" lon="03.821338"><ele>14.1</ele><time>2022-11-15T13:14:40Z</time><name>PT7143</name></trkpt>
<trkpt lat="51.567907" lon="03.821345"><ele>14</ele><time>2022-11-15T13:14:42Z</time><name>PT7144</name></trkpt>
<trkpt lat="51.567916" lon="03.821349"><ele>13.9</ele><time>2022-11-15T13:14:42Z</time><name>PT7145</name></trkpt>
<trkpt lat="51.567924" lon="03.821352"><ele>14</ele><time>2022-11-15T13:14:44Z</time><name>PT7146</name></trkpt>
<trkpt lat="51.567931" lon="03.821355"><ele>14</ele><time>2022-11-15T13:14:44Z</time><name>PT7147</name></trkpt>
<trkpt lat="51.567938" lon="03.821355"><ele>14.3</ele><time>2022-11-15T13:14:46Z</time><name>PT7148</name></trkpt>
<trkpt lat="51.567946" lon="03.821357"><ele>14.4</ele><time>2022-11-15T13:14:47Z</time><name>PT7149</name></trkpt>
<trkpt lat="51.567957" lon="03.821364"><ele>14.4</ele><time>2022-11-15T13:14:48Z</time><name>PT7150</name></trkpt>
<trkpt lat="51.567961" lon="03.821372"><ele>14.4</ele><time>2022-11-15T13:14:48Z</time><name>PT7151</name></trkpt>
<trkpt lat="51.567965" lon="03.821375"><ele>14.6</ele><time>2022-11-15T13:14:50Z</time><name>PT7152</name></trkpt>
<trkpt lat="51.567969" lon="03.821372"><ele>14.6</ele><time>2022-11-15T13:14:50Z</time><name>PT7153</name></trkpt>
<trkpt lat="51.567972" lon="03.821378"><ele>14.3</ele><time>2022-11-15T13:14:52Z</time><name>PT7154</name></trkpt>
<trkpt lat="51.567980" lon="03.821384"><ele>14.3</ele><time>2022-11-15T13:14:52Z</time><name>PT7155</name></trkpt>
<trkpt lat="51.567994" lon="03.821389"><ele>14.3</ele><time>2022-11-15T13:14:54Z</time><name>PT7156</name></trkpt>
<trkpt lat="51.568010" lon="03.821395"><ele>14.1</ele><time>2022-11-15T13:14:54Z</time><name>PT7157</name></trkpt>
<trkpt lat="51.568026" lon="03.821399"><ele>14</ele><time>2022-11-15T13:14:56Z</time><name>PT7158</name></trkpt>
<trkpt lat="51.568038" lon="03.821403"><ele>13.9</ele><time>2022-11-15T13:14:57Z</time><name>PT7159</name></trkpt>
<trkpt lat="51.568046" lon="03.821405"><ele>13.7</ele><time>2022-11-15T13:14:58Z</time><name>PT7160</name></trkpt>
<trkpt lat="51.568053" lon="03.821407"><ele>13.6</ele><time>2022-11-15T13:14:59Z</time><name>PT7161</name></trkpt>
<trkpt lat="51.568060" lon="03.821412"><ele>14</ele><time>2022-11-15T13:15:00Z</time><name>PT7162</name></trkpt>
<trkpt lat="51.568070" lon="03.821418"><ele>14.1</ele><time>2022-11-15T13:15:00Z</time><name>PT7163</name></trkpt>
<trkpt lat="51.568079" lon="03.821423"><ele>14.5</ele><time>2022-11-15T13:15:02Z</time><name>PT7164</name></trkpt>
<trkpt lat="51.568089" lon="03.821428"><ele>14.4</ele><time>2022-11-15T13:15:03Z</time><name>PT7165</name></trkpt>
<trkpt lat="51.568099" lon="03.821430"><ele>14.3</ele><time>2022-11-15T13:15:04Z</time><name>PT7166</name></trkpt>
<trkpt lat="51.568112" lon="03.821434"><ele>14.1</ele><time>2022-11-15T13:15:05Z</time><name>PT7167</name></trkpt>
<trkpt lat="51.568123" lon="03.821434"><ele>14</ele><time>2022-11-15T13:15:06Z</time><name>PT7168</name></trkpt>
<trkpt lat="51.568132" lon="03.821437"><ele>13.8</ele><time>2022-11-15T13:15:07Z</time><name>PT7169</name></trkpt>
<trkpt lat="51.568141" lon="03.821443"><ele>14.1</ele><time>2022-11-15T13:15:08Z</time><name>PT7170</name></trkpt>
<trkpt lat="51.568150" lon="03.821450"><ele>14.2</ele><time>2022-11-15T13:15:09Z</time><name>PT7171</name></trkpt>
<trkpt lat="51.568161" lon="03.821457"><ele>14.3</ele><time>2022-11-15T13:15:10Z</time><name>PT7172</name></trkpt>
<trkpt lat="51.568171" lon="03.821462"><ele>14.1</ele><time>2022-11-15T13:15:10Z</time><name>PT7173</name></trkpt>
<trkpt lat="51.568181" lon="03.821466"><ele>14.5</ele><time>2022-11-15T13:15:12Z</time><name>PT7174</name></trkpt>
<trkpt lat="51.568190" lon="03.821471"><ele>14.6</ele><time>2022-11-15T13:15:12Z</time><name>PT7175</name></trkpt>
<trkpt lat="51.568201" lon="03.821476"><ele>14.7</ele><time>2022-11-15T13:15:14Z</time><name>PT7176</name></trkpt>
<trkpt lat="51.568211" lon="03.821481"><ele>14.8</ele><time>2022-11-15T13:15:14Z</time><name>PT7177</name></trkpt>
<trkpt lat="51.568222" lon="03.821486"><ele>15.1</ele><time>2022-11-15T13:15:16Z</time><name>PT7178</name></trkpt>
<trkpt lat="51.568232" lon="03.821490"><ele>14.9</ele><time>2022-11-15T13:15:16Z</time><name>PT7179</name></trkpt>
<trkpt lat="51.568242" lon="03.821495"><ele>14.9</ele><time>2022-11-15T13:15:18Z</time><name>PT7180</name></trkpt>
<trkpt lat="51.568252" lon="03.821502"><ele>14.9</ele><time>2022-11-15T13:15:18Z</time><name>PT7181</name></trkpt>
<trkpt lat="51.568262" lon="03.821510"><ele>14.8</ele><time>2022-11-15T13:15:20Z</time><name>PT7182</name></trkpt>
<trkpt lat="51.568272" lon="03.821518"><ele>14.6</ele><time>2022-11-15T13:15:20Z</time><name>PT7183</name></trkpt>
<trkpt lat="51.568282" lon="03.821522"><ele>14.6</ele><time>2022-11-15T13:15:22Z</time><name>PT7184</name></trkpt>
<trkpt lat="51.568292" lon="03.821522"><ele>14.5</ele><time>2022-11-15T13:15:22Z</time><name>PT7185</name></trkpt>
<trkpt lat="51.568302" lon="03.821524"><ele>14.2</ele><time>2022-11-15T13:15:24Z</time><name>PT7186</name></trkpt>
<trkpt lat="51.568311" lon="03.821529"><ele>14.2</ele><time>2022-11-15T13:15:24Z</time><name>PT7187</name></trkpt>
<trkpt lat="51.568319" lon="03.821534"><ele>14.1</ele><time>2022-11-15T13:15:26Z</time><name>PT7188</name></trkpt>
<trkpt lat="51.568329" lon="03.821540"><ele>14.1</ele><time>2022-11-15T13:15:26Z</time><name>PT7189</name></trkpt>
<trkpt lat="51.568338" lon="03.821546"><ele>14.2</ele><time>2022-11-15T13:15:28Z</time><name>PT7190</name></trkpt>
<trkpt lat="51.568347" lon="03.821552"><ele>14.3</ele><time>2022-11-15T13:15:28Z</time><name>PT7191</name></trkpt>
<trkpt lat="51.568356" lon="03.821558"><ele>14.2</ele><time>2022-11-15T13:15:30Z</time><name>PT7192</name></trkpt>
<trkpt lat="51.568366" lon="03.821563"><ele>14.4</ele><time>2022-11-15T13:15:31Z</time><name>PT7193</name></trkpt>
<trkpt lat="51.568376" lon="03.821567"><ele>14.5</ele><time>2022-11-15T13:15:32Z</time><name>PT7194</name></trkpt>
<trkpt lat="51.568387" lon="03.821571"><ele>14.5</ele><time>2022-11-15T13:15:32Z</time><name>PT7195</name></trkpt>
<trkpt lat="51.568395" lon="03.821575"><ele>14.6</ele><time>2022-11-15T13:15:34Z</time><name>PT7196</name></trkpt>
<trkpt lat="51.568404" lon="03.821580"><ele>14.6</ele><time>2022-11-15T13:15:34Z</time><name>PT7197</name></trkpt>
<trkpt lat="51.568413" lon="03.821585"><ele>14.5</ele><time>2022-11-15T13:15:36Z</time><name>PT7198</name></trkpt>
<trkpt lat="51.568423" lon="03.821588"><ele>14.5</ele><time>2022-11-15T13:15:37Z</time><name>PT7199</name></trkpt>
<trkpt lat="51.568433" lon="03.821592"><ele>14.5</ele><time>2022-11-15T13:15:38Z</time><name>PT7200</name></trkpt>
<trkpt lat="51.568444" lon="03.821599"><ele>14.5</ele><time>2022-11-15T13:15:38Z</time><name>PT7201</name></trkpt>
<trkpt lat="51.568454" lon="03.821603"><ele>14.3</ele><time>2022-11-15T13:15:40Z</time><name>PT7202</name></trkpt>
<trkpt lat="51.568464" lon="03.821605"><ele>14.3</ele><time>2022-11-15T13:15:40Z</time><name>PT7203</name></trkpt>
<trkpt lat="51.568473" lon="03.821609"><ele>14.3</ele><time>2022-11-15T13:15:42Z</time><name>PT7204</name></trkpt>
<trkpt lat="51.568482" lon="03.821615"><ele>14.2</ele><time>2022-11-15T13:15:42Z</time><name>PT7205</name></trkpt>
<trkpt lat="51.568491" lon="03.821621"><ele>14.2</ele><time>2022-11-15T13:15:44Z</time><name>PT7206</name></trkpt>
<trkpt lat="51.568500" lon="03.821626"><ele>14.1</ele><time>2022-11-15T13:15:44Z</time><name>PT7207</name></trkpt>
<trkpt lat="51.568509" lon="03.821629"><ele>14.3</ele><time>2022-11-15T13:15:46Z</time><name>PT7208</name></trkpt>
<trkpt lat="51.568514" lon="03.821637"><ele>14.3</ele><time>2022-11-15T13:15:46Z</time><name>PT7209</name></trkpt>
<trkpt lat="51.568517" lon="03.821639"><ele>14.1</ele><time>2022-11-15T13:15:48Z</time><name>PT7210</name></trkpt>
<trkpt lat="51.568522" lon="03.821641"><ele>14.1</ele><time>2022-11-15T13:15:48Z</time><name>PT7211</name></trkpt>
<trkpt lat="51.568529" lon="03.821644"><ele>14.1</ele><time>2022-11-15T13:15:50Z</time><name>PT7212</name></trkpt>
<trkpt lat="51.568537" lon="03.821646"><ele>14</ele><time>2022-11-15T13:15:50Z</time><name>PT7213</name></trkpt>
<trkpt lat="51.568544" lon="03.821645"><ele>14.1</ele><time>2022-11-15T13:15:52Z</time><name>PT7214</name></trkpt>
<trkpt lat="51.568550" lon="03.821646"><ele>14.2</ele><time>2022-11-15T13:15:52Z</time><name>PT7215</name></trkpt>
<trkpt lat="51.568554" lon="03.821647"><ele>14.2</ele><time>2022-11-15T13:15:54Z</time><name>PT7216</name></trkpt>
<trkpt lat="51.568553" lon="03.821646"><ele>14.3</ele><time>2022-11-15T13:15:54Z</time><name>PT7217</name></trkpt>
<trkpt lat="51.568553" lon="03.821646"><ele>14.1</ele><time>2022-11-15T13:15:56Z</time><name>PT7218</name></trkpt>
<trkpt lat="51.568553" lon="03.821646"><ele>14.1</ele><time>2022-11-15T13:15:56Z</time><name>PT7219</name></trkpt>
<trkpt lat="51.568554" lon="03.821646"><ele>14</ele><time>2022-11-15T13:15:58Z</time><name>PT7220</name></trkpt>
<trkpt lat="51.568557" lon="03.821644"><ele>13.8</ele><time>2022-11-15T13:16:10Z</time><name>PT7221</name></trkpt>
<trkpt lat="51.568556" lon="03.821646"><ele>14</ele><time>2022-11-15T13:16:10Z</time><name>PT7222</name></trkpt>
<trkpt lat="51.568556" lon="03.821648"><ele>14</ele><time>2022-11-15T13:16:12Z</time><name>PT7223</name></trkpt>
<trkpt lat="51.568555" lon="03.821649"><ele>14.1</ele><time>2022-11-15T13:16:12Z</time><name>PT7224</name></trkpt>
<trkpt lat="51.568554" lon="03.821647"><ele>14.2</ele><time>2022-11-15T13:17:00Z</time><name>PT7225</name></trkpt>
<trkpt lat="51.568553" lon="03.821648"><ele>14</ele><time>2022-11-15T13:17:02Z</time><name>PT7226</name></trkpt>
<trkpt lat="51.568556" lon="03.821656"><ele>14.1</ele><time>2022-11-15T13:17:18Z</time><name>PT7227</name></trkpt>
<trkpt lat="51.568560" lon="03.821664"><ele>14.4</ele><time>2022-11-15T13:17:18Z</time><name>PT7228</name></trkpt>
<trkpt lat="51.568568" lon="03.821667"><ele>14.5</ele><time>2022-11-15T13:17:20Z</time><name>PT7229</name></trkpt>
<trkpt lat="51.568575" lon="03.821668"><ele>14.6</ele><time>2022-11-15T13:17:20Z</time><name>PT7230</name></trkpt>
<trkpt lat="51.568583" lon="03.821671"><ele>14.6</ele><time>2022-11-15T13:17:22Z</time><name>PT7231</name></trkpt>
<trkpt lat="51.568591" lon="03.821676"><ele>14.4</ele><time>2022-11-15T13:17:22Z</time><name>PT7232</name></trkpt>
<trkpt lat="51.568598" lon="03.821680"><ele>14.3</ele><time>2022-11-15T13:17:24Z</time><name>PT7233</name></trkpt>
<trkpt lat="51.568606" lon="03.821683"><ele>14.3</ele><time>2022-11-15T13:17:25Z</time><name>PT7234</name></trkpt>
<trkpt lat="51.568615" lon="03.821686"><ele>14.4</ele><time>2022-11-15T13:17:26Z</time><name>PT7235</name></trkpt>
<trkpt lat="51.568623" lon="03.821690"><ele>14.4</ele><time>2022-11-15T13:17:27Z</time><name>PT7236</name></trkpt>
<trkpt lat="51.568632" lon="03.821696"><ele>14.6</ele><time>2022-11-15T13:17:28Z</time><name>PT7237</name></trkpt>
<trkpt lat="51.568640" lon="03.821701"><ele>14.6</ele><time>2022-11-15T13:17:29Z</time><name>PT7238</name></trkpt>
<trkpt lat="51.568648" lon="03.821705"><ele>14.5</ele><time>2022-11-15T13:17:30Z</time><name>PT7239</name></trkpt>
<trkpt lat="51.568656" lon="03.821706"><ele>14.6</ele><time>2022-11-15T13:17:30Z</time><name>PT7240</name></trkpt>
<trkpt lat="51.568664" lon="03.821710"><ele>14.7</ele><time>2022-11-15T13:17:32Z</time><name>PT7241</name></trkpt>
<trkpt lat="51.568672" lon="03.821716"><ele>14.7</ele><time>2022-11-15T13:17:32Z</time><name>PT7242</name></trkpt>
<trkpt lat="51.568682" lon="03.821721"><ele>14.8</ele><time>2022-11-15T13:17:34Z</time><name>PT7243</name></trkpt>
<trkpt lat="51.568691" lon="03.821725"><ele>14.9</ele><time>2022-11-15T13:17:34Z</time><name>PT7244</name></trkpt>
<trkpt lat="51.568700" lon="03.821728"><ele>14.9</ele><time>2022-11-15T13:17:36Z</time><name>PT7245</name></trkpt>
<trkpt lat="51.568710" lon="03.821733"><ele>14.9</ele><time>2022-11-15T13:17:36Z</time><name>PT7246</name></trkpt>
<trkpt lat="51.568719" lon="03.821737"><ele>14.6</ele><time>2022-11-15T13:17:38Z</time><name>PT7247</name></trkpt>
<trkpt lat="51.568728" lon="03.821742"><ele>14.6</ele><time>2022-11-15T13:17:38Z</time><name>PT7248</name></trkpt>
<trkpt lat="51.568737" lon="03.821747"><ele>14.7</ele><time>2022-11-15T13:17:40Z</time><name>PT7249</name></trkpt>
<trkpt lat="51.568745" lon="03.821751"><ele>14.7</ele><time>2022-11-15T13:17:40Z</time><name>PT7250</name></trkpt>
<trkpt lat="51.568754" lon="03.821753"><ele>14.9</ele><time>2022-11-15T13:17:42Z</time><name>PT7251</name></trkpt>
<trkpt lat="51.568763" lon="03.821756"><ele>15</ele><time>2022-11-15T13:17:42Z</time><name>PT7252</name></trkpt>
<trkpt lat="51.568772" lon="03.821758"><ele>15.1</ele><time>2022-11-15T13:17:44Z</time><name>PT7253</name></trkpt>
<trkpt lat="51.568781" lon="03.821762"><ele>15</ele><time>2022-11-15T13:17:44Z</time><name>PT7254</name></trkpt>
<trkpt lat="51.568790" lon="03.821769"><ele>15</ele><time>2022-11-15T13:17:46Z</time><name>PT7255</name></trkpt>
<trkpt lat="51.568799" lon="03.821776"><ele>14.8</ele><time>2022-11-15T13:17:46Z</time><name>PT7256</name></trkpt>
<trkpt lat="51.568807" lon="03.821779"><ele>14.7</ele><time>2022-11-15T13:17:48Z</time><name>PT7257</name></trkpt>
<trkpt lat="51.568816" lon="03.821781"><ele>14.6</ele><time>2022-11-15T13:17:48Z</time><name>PT7258</name></trkpt>
<trkpt lat="51.568825" lon="03.821784"><ele>14.5</ele><time>2022-11-15T13:17:50Z</time><name>PT7259</name></trkpt>
<trkpt lat="51.568833" lon="03.821787"><ele>14.6</ele><time>2022-11-15T13:17:50Z</time><name>PT7260</name></trkpt>
<trkpt lat="51.568841" lon="03.821792"><ele>14.5</ele><time>2022-11-15T13:17:52Z</time><name>PT7261</name></trkpt>
<trkpt lat="51.568850" lon="03.821797"><ele>14.6</ele><time>2022-11-15T13:17:52Z</time><name>PT7262</name></trkpt>
<trkpt lat="51.568859" lon="03.821799"><ele>14.5</ele><time>2022-11-15T13:17:54Z</time><name>PT7263</name></trkpt>
<trkpt lat="51.568868" lon="03.821802"><ele>14.6</ele><time>2022-11-15T13:17:54Z</time><name>PT7264</name></trkpt>
<trkpt lat="51.568876" lon="03.821806"><ele>14.5</ele><time>2022-11-15T13:17:56Z</time><name>PT7265</name></trkpt>
<trkpt lat="51.568884" lon="03.821811"><ele>14.6</ele><time>2022-11-15T13:17:56Z</time><name>PT7266</name></trkpt>
<trkpt lat="51.568892" lon="03.821817"><ele>14.6</ele><time>2022-11-15T13:17:58Z</time><name>PT7267</name></trkpt>
<trkpt lat="51.568902" lon="03.821823"><ele>14.6</ele><time>2022-11-15T13:17:58Z</time><name>PT7268</name></trkpt>
<trkpt lat="51.568912" lon="03.821824"><ele>14.9</ele><time>2022-11-15T13:18:00Z</time><name>PT7269</name></trkpt>
<trkpt lat="51.568922" lon="03.821828"><ele>14.8</ele><time>2022-11-15T13:18:00Z</time><name>PT7270</name></trkpt>
<trkpt lat="51.568931" lon="03.821832"><ele>14.7</ele><time>2022-11-15T13:18:02Z</time><name>PT7271</name></trkpt>
<trkpt lat="51.568939" lon="03.821835"><ele>14.7</ele><time>2022-11-15T13:18:02Z</time><name>PT7272</name></trkpt>
<trkpt lat="51.568946" lon="03.821838"><ele>14.8</ele><time>2022-11-15T13:18:04Z</time><name>PT7273</name></trkpt>
<trkpt lat="51.568956" lon="03.821842"><ele>14.7</ele><time>2022-11-15T13:18:05Z</time><name>PT7274</name></trkpt>
<trkpt lat="51.568963" lon="03.821848"><ele>14.6</ele><time>2022-11-15T13:18:06Z</time><name>PT7275</name></trkpt>
<trkpt lat="51.568971" lon="03.821854"><ele>14.8</ele><time>2022-11-15T13:18:07Z</time><name>PT7276</name></trkpt>
<trkpt lat="51.568981" lon="03.821856"><ele>14.8</ele><time>2022-11-15T13:18:08Z</time><name>PT7277</name></trkpt>
<trkpt lat="51.568993" lon="03.821857"><ele>14.9</ele><time>2022-11-15T13:18:09Z</time><name>PT7278</name></trkpt>
<trkpt lat="51.569004" lon="03.821861"><ele>14.9</ele><time>2022-11-15T13:18:10Z</time><name>PT7279</name></trkpt>
<trkpt lat="51.569013" lon="03.821866"><ele>14.9</ele><time>2022-11-15T13:18:11Z</time><name>PT7280</name></trkpt>
<trkpt lat="51.569025" lon="03.821871"><ele>14.9</ele><time>2022-11-15T13:18:12Z</time><name>PT7281</name></trkpt>
<trkpt lat="51.569035" lon="03.821878"><ele>14.7</ele><time>2022-11-15T13:18:13Z</time><name>PT7282</name></trkpt>
<trkpt lat="51.569045" lon="03.821882"><ele>14.6</ele><time>2022-11-15T13:18:14Z</time><name>PT7283</name></trkpt>
<trkpt lat="51.569055" lon="03.821887"><ele>14.6</ele><time>2022-11-15T13:18:14Z</time><name>PT7284</name></trkpt>
<trkpt lat="51.569065" lon="03.821891"><ele>14.6</ele><time>2022-11-15T13:18:16Z</time><name>PT7285</name></trkpt>
<trkpt lat="51.569077" lon="03.821896"><ele>14.7</ele><time>2022-11-15T13:18:16Z</time><name>PT7286</name></trkpt>
<trkpt lat="51.569088" lon="03.821901"><ele>14.8</ele><time>2022-11-15T13:18:18Z</time><name>PT7287</name></trkpt>
<trkpt lat="51.569098" lon="03.821904"><ele>14.9</ele><time>2022-11-15T13:18:18Z</time><name>PT7288</name></trkpt>
<trkpt lat="51.569109" lon="03.821910"><ele>15.1</ele><time>2022-11-15T13:18:20Z</time><name>PT7289</name></trkpt>
<trkpt lat="51.569118" lon="03.821915"><ele>14.9</ele><time>2022-11-15T13:18:20Z</time><name>PT7290</name></trkpt>
<trkpt lat="51.569126" lon="03.821920"><ele>15</ele><time>2022-11-15T13:18:22Z</time><name>PT7291</name></trkpt>
<trkpt lat="51.569136" lon="03.821926"><ele>15</ele><time>2022-11-15T13:18:22Z</time><name>PT7292</name></trkpt>
<trkpt lat="51.569146" lon="03.821933"><ele>15</ele><time>2022-11-15T13:18:24Z</time><name>PT7293</name></trkpt>
<trkpt lat="51.569157" lon="03.821940"><ele>15</ele><time>2022-11-15T13:18:24Z</time><name>PT7294</name></trkpt>
<trkpt lat="51.569168" lon="03.821947"><ele>15.2</ele><time>2022-11-15T13:18:26Z</time><name>PT7295</name></trkpt>
<trkpt lat="51.569178" lon="03.821954"><ele>15.1</ele><time>2022-11-15T13:18:26Z</time><name>PT7296</name></trkpt>
<trkpt lat="51.569187" lon="03.821959"><ele>15.1</ele><time>2022-11-15T13:18:28Z</time><name>PT7297</name></trkpt>
<trkpt lat="51.569197" lon="03.821962"><ele>15.1</ele><time>2022-11-15T13:18:28Z</time><name>PT7298</name></trkpt>
<trkpt lat="51.569207" lon="03.821963"><ele>15.1</ele><time>2022-11-15T13:18:30Z</time><name>PT7299</name></trkpt>
<trkpt lat="51.569217" lon="03.821967"><ele>15</ele><time>2022-11-15T13:18:30Z</time><name>PT7300</name></trkpt>
<trkpt lat="51.569226" lon="03.821970"><ele>15</ele><time>2022-11-15T13:18:32Z</time><name>PT7301</name></trkpt>
<trkpt lat="51.569236" lon="03.821975"><ele>15.1</ele><time>2022-11-15T13:18:32Z</time><name>PT7302</name></trkpt>
<trkpt lat="51.569245" lon="03.821981"><ele>15.1</ele><time>2022-11-15T13:18:34Z</time><name>PT7303</name></trkpt>
<trkpt lat="51.569255" lon="03.821989"><ele>15.2</ele><time>2022-11-15T13:18:34Z</time><name>PT7304</name></trkpt>
<trkpt lat="51.569266" lon="03.821996"><ele>15.5</ele><time>2022-11-15T13:18:36Z</time><name>PT7305</name></trkpt>
<trkpt lat="51.569276" lon="03.822001"><ele>15.6</ele><time>2022-11-15T13:18:36Z</time><name>PT7306</name></trkpt>
<trkpt lat="51.569287" lon="03.822007"><ele>15.5</ele><time>2022-11-15T13:18:38Z</time><name>PT7307</name></trkpt>
<trkpt lat="51.569297" lon="03.822013"><ele>15.6</ele><time>2022-11-15T13:18:38Z</time><name>PT7308</name></trkpt>
<trkpt lat="51.569306" lon="03.822018"><ele>15.6</ele><time>2022-11-15T13:18:40Z</time><name>PT7309</name></trkpt>
<trkpt lat="51.569317" lon="03.822021"><ele>15.5</ele><time>2022-11-15T13:18:40Z</time><name>PT7310</name></trkpt>
<trkpt lat="51.569328" lon="03.822025"><ele>15.3</ele><time>2022-11-15T13:18:42Z</time><name>PT7311</name></trkpt>
<trkpt lat="51.569338" lon="03.822029"><ele>15.3</ele><time>2022-11-15T13:18:42Z</time><name>PT7312</name></trkpt>
<trkpt lat="51.569349" lon="03.822033"><ele>15.2</ele><time>2022-11-15T13:18:44Z</time><name>PT7313</name></trkpt>
<trkpt lat="51.569360" lon="03.822036"><ele>15.1</ele><time>2022-11-15T13:18:44Z</time><name>PT7314</name></trkpt>
<trkpt lat="51.569368" lon="03.822040"><ele>15.1</ele><time>2022-11-15T13:18:46Z</time><name>PT7315</name></trkpt>
<trkpt lat="51.569375" lon="03.822045"><ele>15.1</ele><time>2022-11-15T13:18:46Z</time><name>PT7316</name></trkpt>
<trkpt lat="51.569384" lon="03.822053"><ele>15</ele><time>2022-11-15T13:18:48Z</time><name>PT7317</name></trkpt>
<trkpt lat="51.569395" lon="03.822061"><ele>15</ele><time>2022-11-15T13:18:48Z</time><name>PT7318</name></trkpt>
<trkpt lat="51.569405" lon="03.822068"><ele>15</ele><time>2022-11-15T13:18:50Z</time><name>PT7319</name></trkpt>
<trkpt lat="51.569415" lon="03.822073"><ele>15</ele><time>2022-11-15T13:18:50Z</time><name>PT7320</name></trkpt>
<trkpt lat="51.569426" lon="03.822077"><ele>15.1</ele><time>2022-11-15T13:18:52Z</time><name>PT7321</name></trkpt>
<trkpt lat="51.569438" lon="03.822082"><ele>15.1</ele><time>2022-11-15T13:18:52Z</time><name>PT7322</name></trkpt>
<trkpt lat="51.569448" lon="03.822085"><ele>15.1</ele><time>2022-11-15T13:18:54Z</time><name>PT7323</name></trkpt>
<trkpt lat="51.569458" lon="03.822088"><ele>15.2</ele><time>2022-11-15T13:18:54Z</time><name>PT7324</name></trkpt>
<trkpt lat="51.569468" lon="03.822091"><ele>15.3</ele><time>2022-11-15T13:18:56Z</time><name>PT7325</name></trkpt>
<trkpt lat="51.569478" lon="03.822097"><ele>15.2</ele><time>2022-11-15T13:18:56Z</time><name>PT7326</name></trkpt>
<trkpt lat="51.569488" lon="03.822102"><ele>15.3</ele><time>2022-11-15T13:18:58Z</time><name>PT7327</name></trkpt>
<trkpt lat="51.569497" lon="03.822110"><ele>15.2</ele><time>2022-11-15T13:18:58Z</time><name>PT7328</name></trkpt>
<trkpt lat="51.569507" lon="03.822118"><ele>15.1</ele><time>2022-11-15T13:19:00Z</time><name>PT7329</name></trkpt>
<trkpt lat="51.569517" lon="03.822124"><ele>15.2</ele><time>2022-11-15T13:19:01Z</time><name>PT7330</name></trkpt>
<trkpt lat="51.569528" lon="03.822129"><ele>15.3</ele><time>2022-11-15T13:19:02Z</time><name>PT7331</name></trkpt>
<trkpt lat="51.569539" lon="03.822136"><ele>15.3</ele><time>2022-11-15T13:19:03Z</time><name>PT7332</name></trkpt>
<trkpt lat="51.569550" lon="03.822141"><ele>15.3</ele><time>2022-11-15T13:19:04Z</time><name>PT7333</name></trkpt>
<trkpt lat="51.569561" lon="03.822145"><ele>15.3</ele><time>2022-11-15T13:19:05Z</time><name>PT7334</name></trkpt>
<trkpt lat="51.569571" lon="03.822149"><ele>15.2</ele><time>2022-11-15T13:19:06Z</time><name>PT7335</name></trkpt>
<trkpt lat="51.569581" lon="03.822152"><ele>15</ele><time>2022-11-15T13:19:06Z</time><name>PT7336</name></trkpt>
<trkpt lat="51.569591" lon="03.822157"><ele>15</ele><time>2022-11-15T13:19:08Z</time><name>PT7337</name></trkpt>
<trkpt lat="51.569602" lon="03.822163"><ele>15.1</ele><time>2022-11-15T13:19:08Z</time><name>PT7338</name></trkpt>
<trkpt lat="51.569612" lon="03.822170"><ele>15.2</ele><time>2022-11-15T13:19:10Z</time><name>PT7339</name></trkpt>
<trkpt lat="51.569623" lon="03.822177"><ele>15.3</ele><time>2022-11-15T13:19:10Z</time><name>PT7340</name></trkpt>
<trkpt lat="51.569634" lon="03.822184"><ele>15.7</ele><time>2022-11-15T13:19:12Z</time><name>PT7341</name></trkpt>
<trkpt lat="51.569644" lon="03.822189"><ele>15.8</ele><time>2022-11-15T13:19:12Z</time><name>PT7342</name></trkpt>
<trkpt lat="51.569654" lon="03.822193"><ele>15.7</ele><time>2022-11-15T13:19:14Z</time><name>PT7343</name></trkpt>
<trkpt lat="51.569664" lon="03.822197"><ele>15.6</ele><time>2022-11-15T13:19:14Z</time><name>PT7344</name></trkpt>
<trkpt lat="51.569676" lon="03.822198"><ele>15.2</ele><time>2022-11-15T13:19:16Z</time><name>PT7345</name></trkpt>
<trkpt lat="51.569687" lon="03.822202"><ele>15.1</ele><time>2022-11-15T13:19:16Z</time><name>PT7346</name></trkpt>
<trkpt lat="51.569698" lon="03.822208"><ele>15.1</ele><time>2022-11-15T13:19:18Z</time><name>PT7347</name></trkpt>
<trkpt lat="51.569709" lon="03.822212"><ele>15</ele><time>2022-11-15T13:19:18Z</time><name>PT7348</name></trkpt>
<trkpt lat="51.569719" lon="03.822216"><ele>15</ele><time>2022-11-15T13:19:20Z</time><name>PT7349</name></trkpt>
<trkpt lat="51.569728" lon="03.822222"><ele>15.1</ele><time>2022-11-15T13:19:20Z</time><name>PT7350</name></trkpt>
<trkpt lat="51.569738" lon="03.822229"><ele>15.1</ele><time>2022-11-15T13:19:22Z</time><name>PT7351</name></trkpt>
<trkpt lat="51.569749" lon="03.822237"><ele>15.1</ele><time>2022-11-15T13:19:22Z</time><name>PT7352</name></trkpt>
<trkpt lat="51.569760" lon="03.822243"><ele>15.2</ele><time>2022-11-15T13:19:24Z</time><name>PT7353</name></trkpt>
<trkpt lat="51.569771" lon="03.822247"><ele>15.1</ele><time>2022-11-15T13:19:24Z</time><name>PT7354</name></trkpt>
<trkpt lat="51.569781" lon="03.822251"><ele>15.1</ele><time>2022-11-15T13:19:26Z</time><name>PT7355</name></trkpt>
<trkpt lat="51.569791" lon="03.822256"><ele>15.1</ele><time>2022-11-15T13:19:26Z</time><name>PT7356</name></trkpt>
<trkpt lat="51.569801" lon="03.822259"><ele>15.1</ele><time>2022-11-15T13:19:28Z</time><name>PT7357</name></trkpt>
<trkpt lat="51.569811" lon="03.822262"><ele>15.1</ele><time>2022-11-15T13:19:28Z</time><name>PT7358</name></trkpt>
<trkpt lat="51.569821" lon="03.822267"><ele>15.1</ele><time>2022-11-15T13:19:30Z</time><name>PT7359</name></trkpt>
<trkpt lat="51.569832" lon="03.822273"><ele>15.1</ele><time>2022-11-15T13:19:30Z</time><name>PT7360</name></trkpt>
<trkpt lat="51.569842" lon="03.822278"><ele>15.3</ele><time>2022-11-15T13:19:32Z</time><name>PT7361</name></trkpt>
<trkpt lat="51.569849" lon="03.822283"><ele>15.3</ele><time>2022-11-15T13:19:32Z</time><name>PT7362</name></trkpt>
<trkpt lat="51.569858" lon="03.822290"><ele>15.3</ele><time>2022-11-15T13:19:34Z</time><name>PT7363</name></trkpt>
<trkpt lat="51.569869" lon="03.822296"><ele>15.3</ele><time>2022-11-15T13:19:34Z</time><name>PT7364</name></trkpt>
<trkpt lat="51.569878" lon="03.822302"><ele>15.3</ele><time>2022-11-15T13:19:36Z</time><name>PT7365</name></trkpt>
<trkpt lat="51.569889" lon="03.822308"><ele>15.1</ele><time>2022-11-15T13:19:36Z</time><name>PT7366</name></trkpt>
<trkpt lat="51.569900" lon="03.822315"><ele>15.1</ele><time>2022-11-15T13:19:38Z</time><name>PT7367</name></trkpt>
<trkpt lat="51.569910" lon="03.822319"><ele>15.1</ele><time>2022-11-15T13:19:38Z</time><name>PT7368</name></trkpt>
<trkpt lat="51.569921" lon="03.822323"><ele>15.2</ele><time>2022-11-15T13:19:40Z</time><name>PT7369</name></trkpt>
<trkpt lat="51.569931" lon="03.822325"><ele>15.4</ele><time>2022-11-15T13:19:40Z</time><name>PT7370</name></trkpt>
<trkpt lat="51.569942" lon="03.822329"><ele>15.4</ele><time>2022-11-15T13:19:42Z</time><name>PT7371</name></trkpt>
<trkpt lat="51.569951" lon="03.822333"><ele>15.4</ele><time>2022-11-15T13:19:42Z</time><name>PT7372</name></trkpt>
<trkpt lat="51.569960" lon="03.822338"><ele>15.2</ele><time>2022-11-15T13:19:44Z</time><name>PT7373</name></trkpt>
<trkpt lat="51.569970" lon="03.822345"><ele>15.1</ele><time>2022-11-15T13:19:44Z</time><name>PT7374</name></trkpt>
<trkpt lat="51.569979" lon="03.822352"><ele>15.1</ele><time>2022-11-15T13:19:46Z</time><name>PT7375</name></trkpt>
<trkpt lat="51.569988" lon="03.822359"><ele>15</ele><time>2022-11-15T13:19:46Z</time><name>PT7376</name></trkpt>
<trkpt lat="51.569999" lon="03.822363"><ele>15.1</ele><time>2022-11-15T13:19:48Z</time><name>PT7377</name></trkpt>
<trkpt lat="51.570008" lon="03.822367"><ele>15.3</ele><time>2022-11-15T13:19:48Z</time><name>PT7378</name></trkpt>
<trkpt lat="51.570018" lon="03.822372"><ele>15.6</ele><time>2022-11-15T13:19:50Z</time><name>PT7379</name></trkpt>
<trkpt lat="51.570028" lon="03.822377"><ele>15.6</ele><time>2022-11-15T13:19:50Z</time><name>PT7380</name></trkpt>
<trkpt lat="51.570038" lon="03.822381"><ele>15.9</ele><time>2022-11-15T13:19:52Z</time><name>PT7381</name></trkpt>
<trkpt lat="51.570049" lon="03.822384"><ele>15.7</ele><time>2022-11-15T13:19:52Z</time><name>PT7382</name></trkpt>
<trkpt lat="51.570060" lon="03.822387"><ele>15.6</ele><time>2022-11-15T13:19:54Z</time><name>PT7383</name></trkpt>
<trkpt lat="51.570069" lon="03.822391"><ele>15.6</ele><time>2022-11-15T13:19:54Z</time><name>PT7384</name></trkpt>
<trkpt lat="51.570079" lon="03.822397"><ele>15.6</ele><time>2022-11-15T13:19:56Z</time><name>PT7385</name></trkpt>
<trkpt lat="51.570089" lon="03.822404"><ele>15.2</ele><time>2022-11-15T13:19:56Z</time><name>PT7386</name></trkpt>
<trkpt lat="51.570099" lon="03.822409"><ele>15.4</ele><time>2022-11-15T13:19:58Z</time><name>PT7387</name></trkpt>
<trkpt lat="51.570109" lon="03.822416"><ele>15.3</ele><time>2022-11-15T13:19:58Z</time><name>PT7388</name></trkpt>
<trkpt lat="51.570120" lon="03.822422"><ele>15.2</ele><time>2022-11-15T13:20:00Z</time><name>PT7389</name></trkpt>
<trkpt lat="51.570129" lon="03.822426"><ele>15.3</ele><time>2022-11-15T13:20:00Z</time><name>PT7390</name></trkpt>
<trkpt lat="51.570138" lon="03.822430"><ele>15.5</ele><time>2022-11-15T13:20:02Z</time><name>PT7391</name></trkpt>
<trkpt lat="51.570146" lon="03.822436"><ele>15.4</ele><time>2022-11-15T13:20:02Z</time><name>PT7392</name></trkpt>
<trkpt lat="51.570156" lon="03.822443"><ele>15.6</ele><time>2022-11-15T13:20:04Z</time><name>PT7393</name></trkpt>
<trkpt lat="51.570165" lon="03.822446"><ele>15.6</ele><time>2022-11-15T13:20:04Z</time><name>PT7394</name></trkpt>
<trkpt lat="51.570175" lon="03.822449"><ele>15.7</ele><time>2022-11-15T13:20:06Z</time><name>PT7395</name></trkpt>
<trkpt lat="51.570185" lon="03.822452"><ele>15.7</ele><time>2022-11-15T13:20:06Z</time><name>PT7396</name></trkpt>
<trkpt lat="51.570194" lon="03.822459"><ele>15.7</ele><time>2022-11-15T13:20:08Z</time><name>PT7397</name></trkpt>
<trkpt lat="51.570205" lon="03.822465"><ele>15.7</ele><time>2022-11-15T13:20:08Z</time><name>PT7398</name></trkpt>
<trkpt lat="51.570215" lon="03.822471"><ele>15.8</ele><time>2022-11-15T13:20:10Z</time><name>PT7399</name></trkpt>
<trkpt lat="51.570226" lon="03.822477"><ele>15.6</ele><time>2022-11-15T13:20:11Z</time><name>PT7400</name></trkpt>
<trkpt lat="51.570236" lon="03.822484"><ele>15.7</ele><time>2022-11-15T13:20:12Z</time><name>PT7401</name></trkpt>
<trkpt lat="51.570246" lon="03.822490"><ele>15.6</ele><time>2022-11-15T13:20:13Z</time><name>PT7402</name></trkpt>
<trkpt lat="51.570257" lon="03.822495"><ele>15.6</ele><time>2022-11-15T13:20:14Z</time><name>PT7403</name></trkpt>
<trkpt lat="51.570268" lon="03.822498"><ele>15.5</ele><time>2022-11-15T13:20:14Z</time><name>PT7404</name></trkpt>
<trkpt lat="51.570278" lon="03.822499"><ele>15.4</ele><time>2022-11-15T13:20:16Z</time><name>PT7405</name></trkpt>
<trkpt lat="51.570288" lon="03.822501"><ele>15.4</ele><time>2022-11-15T13:20:17Z</time><name>PT7406</name></trkpt>
<trkpt lat="51.570298" lon="03.822507"><ele>15.4</ele><time>2022-11-15T13:20:18Z</time><name>PT7407</name></trkpt>
<trkpt lat="51.570307" lon="03.822513"><ele>15.2</ele><time>2022-11-15T13:20:19Z</time><name>PT7408</name></trkpt>
<trkpt lat="51.570317" lon="03.822520"><ele>15.5</ele><time>2022-11-15T13:20:20Z</time><name>PT7409</name></trkpt>
<trkpt lat="51.570326" lon="03.822526"><ele>15.6</ele><time>2022-11-15T13:20:20Z</time><name>PT7410</name></trkpt>
<trkpt lat="51.570335" lon="03.822531"><ele>15.6</ele><time>2022-11-15T13:20:22Z</time><name>PT7411</name></trkpt>
<trkpt lat="51.570346" lon="03.822535"><ele>15.6</ele><time>2022-11-15T13:20:22Z</time><name>PT7412</name></trkpt>
<trkpt lat="51.570357" lon="03.822537"><ele>15.6</ele><time>2022-11-15T13:20:24Z</time><name>PT7413</name></trkpt>
<trkpt lat="51.570368" lon="03.822539"><ele>15.6</ele><time>2022-11-15T13:20:24Z</time><name>PT7414</name></trkpt>
<trkpt lat="51.570378" lon="03.822542"><ele>15.5</ele><time>2022-11-15T13:20:26Z</time><name>PT7415</name></trkpt>
<trkpt lat="51.570388" lon="03.822547"><ele>15.3</ele><time>2022-11-15T13:20:26Z</time><name>PT7416</name></trkpt>
<trkpt lat="51.570398" lon="03.822554"><ele>15.2</ele><time>2022-11-15T13:20:28Z</time><name>PT7417</name></trkpt>
<trkpt lat="51.570408" lon="03.822561"><ele>15.1</ele><time>2022-11-15T13:20:28Z</time><name>PT7418</name></trkpt>
<trkpt lat="51.570417" lon="03.822567"><ele>15.2</ele><time>2022-11-15T13:20:30Z</time><name>PT7419</name></trkpt>
<trkpt lat="51.570427" lon="03.822571"><ele>15.4</ele><time>2022-11-15T13:20:30Z</time><name>PT7420</name></trkpt>
<trkpt lat="51.570436" lon="03.822575"><ele>15.4</ele><time>2022-11-15T13:20:32Z</time><name>PT7421</name></trkpt>
<trkpt lat="51.570446" lon="03.822577"><ele>15.3</ele><time>2022-11-15T13:20:32Z</time><name>PT7422</name></trkpt>
<trkpt lat="51.570455" lon="03.822581"><ele>15.3</ele><time>2022-11-15T13:20:34Z</time><name>PT7423</name></trkpt>
<trkpt lat="51.570463" lon="03.822586"><ele>15.1</ele><time>2022-11-15T13:20:34Z</time><name>PT7424</name></trkpt>
<trkpt lat="51.570473" lon="03.822592"><ele>15.1</ele><time>2022-11-15T13:20:36Z</time><name>PT7425</name></trkpt>
<trkpt lat="51.570484" lon="03.822598"><ele>14.9</ele><time>2022-11-15T13:20:36Z</time><name>PT7426</name></trkpt>
<trkpt lat="51.570494" lon="03.822603"><ele>14.9</ele><time>2022-11-15T13:20:38Z</time><name>PT7427</name></trkpt>
<trkpt lat="51.570505" lon="03.822607"><ele>15</ele><time>2022-11-15T13:20:38Z</time><name>PT7428</name></trkpt>
<trkpt lat="51.570513" lon="03.822612"><ele>15.1</ele><time>2022-11-15T13:20:40Z</time><name>PT7429</name></trkpt>
<trkpt lat="51.570525" lon="03.822616"><ele>15.1</ele><time>2022-11-15T13:20:40Z</time><name>PT7430</name></trkpt>
<trkpt lat="51.570535" lon="03.822618"><ele>15.2</ele><time>2022-11-15T13:20:42Z</time><name>PT7431</name></trkpt>
<trkpt lat="51.570544" lon="03.822622"><ele>15.3</ele><time>2022-11-15T13:20:42Z</time><name>PT7432</name></trkpt>
<trkpt lat="51.570552" lon="03.822628"><ele>15.3</ele><time>2022-11-15T13:20:44Z</time><name>PT7433</name></trkpt>
<trkpt lat="51.570561" lon="03.822634"><ele>15.4</ele><time>2022-11-15T13:20:44Z</time><name>PT7434</name></trkpt>
<trkpt lat="51.570571" lon="03.822639"><ele>15.3</ele><time>2022-11-15T13:20:46Z</time><name>PT7435</name></trkpt>
<trkpt lat="51.570582" lon="03.822644"><ele>15.3</ele><time>2022-11-15T13:20:46Z</time><name>PT7436</name></trkpt>
<trkpt lat="51.570591" lon="03.822649"><ele>15.3</ele><time>2022-11-15T13:20:48Z</time><name>PT7437</name></trkpt>
<trkpt lat="51.570600" lon="03.822651"><ele>15.3</ele><time>2022-11-15T13:20:48Z</time><name>PT7438</name></trkpt>
<trkpt lat="51.570609" lon="03.822655"><ele>15.3</ele><time>2022-11-15T13:20:50Z</time><name>PT7439</name></trkpt>
<trkpt lat="51.570619" lon="03.822662"><ele>15.3</ele><time>2022-11-15T13:20:50Z</time><name>PT7440</name></trkpt>
<trkpt lat="51.570628" lon="03.822669"><ele>15.4</ele><time>2022-11-15T13:20:52Z</time><name>PT7441</name></trkpt>
<trkpt lat="51.570638" lon="03.822675"><ele>15.3</ele><time>2022-11-15T13:20:52Z</time><name>PT7442</name></trkpt>
<trkpt lat="51.570648" lon="03.822681"><ele>15.3</ele><time>2022-11-15T13:20:54Z</time><name>PT7443</name></trkpt>
<trkpt lat="51.570659" lon="03.822684"><ele>15.3</ele><time>2022-11-15T13:20:54Z</time><name>PT7444</name></trkpt>
<trkpt lat="51.570669" lon="03.822686"><ele>15.4</ele><time>2022-11-15T13:20:56Z</time><name>PT7445</name></trkpt>
<trkpt lat="51.570680" lon="03.822690"><ele>15.5</ele><time>2022-11-15T13:20:56Z</time><name>PT7446</name></trkpt>
<trkpt lat="51.570690" lon="03.822694"><ele>15.8</ele><time>2022-11-15T13:20:58Z</time><name>PT7447</name></trkpt>
<trkpt lat="51.570700" lon="03.822699"><ele>16</ele><time>2022-11-15T13:20:58Z</time><name>PT7448</name></trkpt>
<trkpt lat="51.570710" lon="03.822704"><ele>16</ele><time>2022-11-15T13:21:00Z</time><name>PT7449</name></trkpt>
<trkpt lat="51.570719" lon="03.822709"><ele>16</ele><time>2022-11-15T13:21:00Z</time><name>PT7450</name></trkpt>
<trkpt lat="51.570730" lon="03.822715"><ele>16</ele><time>2022-11-15T13:21:02Z</time><name>PT7451</name></trkpt>
<trkpt lat="51.570741" lon="03.822722"><ele>16.1</ele><time>2022-11-15T13:21:02Z</time><name>PT7452</name></trkpt>
<trkpt lat="51.570751" lon="03.822729"><ele>16</ele><time>2022-11-15T13:21:04Z</time><name>PT7453</name></trkpt>
<trkpt lat="51.570761" lon="03.822736"><ele>16</ele><time>2022-11-15T13:21:04Z</time><name>PT7454</name></trkpt>
<trkpt lat="51.570771" lon="03.822741"><ele>15.9</ele><time>2022-11-15T13:21:06Z</time><name>PT7455</name></trkpt>
<trkpt lat="51.570781" lon="03.822744"><ele>15.7</ele><time>2022-11-15T13:21:06Z</time><name>PT7456</name></trkpt>
<trkpt lat="51.570791" lon="03.822749"><ele>15.5</ele><time>2022-11-15T13:21:08Z</time><name>PT7457</name></trkpt>
<trkpt lat="51.570801" lon="03.822751"><ele>15.6</ele><time>2022-11-15T13:21:08Z</time><name>PT7458</name></trkpt>
<trkpt lat="51.570811" lon="03.822754"><ele>15.6</ele><time>2022-11-15T13:21:10Z</time><name>PT7459</name></trkpt>
<trkpt lat="51.570821" lon="03.822758"><ele>15.7</ele><time>2022-11-15T13:21:10Z</time><name>PT7460</name></trkpt>
<trkpt lat="51.570830" lon="03.822763"><ele>15.6</ele><time>2022-11-15T13:21:12Z</time><name>PT7461</name></trkpt>
<trkpt lat="51.570840" lon="03.822769"><ele>15.8</ele><time>2022-11-15T13:21:12Z</time><name>PT7462</name></trkpt>
<trkpt lat="51.570851" lon="03.822775"><ele>15.6</ele><time>2022-11-15T13:21:14Z</time><name>PT7463</name></trkpt>
<trkpt lat="51.570861" lon="03.822782"><ele>15.6</ele><time>2022-11-15T13:21:14Z</time><name>PT7464</name></trkpt>
<trkpt lat="51.570870" lon="03.822789"><ele>15.7</ele><time>2022-11-15T13:21:16Z</time><name>PT7465</name></trkpt>
<trkpt lat="51.570881" lon="03.822794"><ele>15.6</ele><time>2022-11-15T13:21:16Z</time><name>PT7466</name></trkpt>
<trkpt lat="51.570890" lon="03.822799"><ele>15.9</ele><time>2022-11-15T13:21:18Z</time><name>PT7467</name></trkpt>
<trkpt lat="51.570900" lon="03.822802"><ele>15.9</ele><time>2022-11-15T13:21:18Z</time><name>PT7468</name></trkpt>
<trkpt lat="51.570909" lon="03.822808"><ele>16</ele><time>2022-11-15T13:21:20Z</time><name>PT7469</name></trkpt>
<trkpt lat="51.570918" lon="03.822813"><ele>16.1</ele><time>2022-11-15T13:21:20Z</time><name>PT7470</name></trkpt>
<trkpt lat="51.570928" lon="03.822817"><ele>16.1</ele><time>2022-11-15T13:21:22Z</time><name>PT7471</name></trkpt>
<trkpt lat="51.570939" lon="03.822823"><ele>15.8</ele><time>2022-11-15T13:21:22Z</time><name>PT7472</name></trkpt>
<trkpt lat="51.570950" lon="03.822830"><ele>15.9</ele><time>2022-11-15T13:21:24Z</time><name>PT7473</name></trkpt>
<trkpt lat="51.570960" lon="03.822836"><ele>16</ele><time>2022-11-15T13:21:24Z</time><name>PT7474</name></trkpt>
<trkpt lat="51.570971" lon="03.822841"><ele>16</ele><time>2022-11-15T13:21:26Z</time><name>PT7475</name></trkpt>
<trkpt lat="51.570982" lon="03.822844"><ele>16.1</ele><time>2022-11-15T13:21:26Z</time><name>PT7476</name></trkpt>
<trkpt lat="51.570993" lon="03.822849"><ele>16</ele><time>2022-11-15T13:21:28Z</time><name>PT7477</name></trkpt>
<trkpt lat="51.571003" lon="03.822852"><ele>16</ele><time>2022-11-15T13:21:28Z</time><name>PT7478</name></trkpt>
<trkpt lat="51.571013" lon="03.822855"><ele>15.7</ele><time>2022-11-15T13:21:30Z</time><name>PT7479</name></trkpt>
<trkpt lat="51.571022" lon="03.822859"><ele>15.6</ele><time>2022-11-15T13:21:30Z</time><name>PT7480</name></trkpt>
<trkpt lat="51.571033" lon="03.822863"><ele>15.6</ele><time>2022-11-15T13:21:32Z</time><name>PT7481</name></trkpt>
<trkpt lat="51.571044" lon="03.822869"><ele>15.6</ele><time>2022-11-15T13:21:32Z</time><name>PT7482</name></trkpt>
<trkpt lat="51.571054" lon="03.822876"><ele>15.6</ele><time>2022-11-15T13:21:34Z</time><name>PT7483</name></trkpt>
<trkpt lat="51.571064" lon="03.822883"><ele>15.6</ele><time>2022-11-15T13:21:34Z</time><name>PT7484</name></trkpt>
<trkpt lat="51.571073" lon="03.822888"><ele>15.6</ele><time>2022-11-15T13:21:36Z</time><name>PT7485</name></trkpt>
<trkpt lat="51.571083" lon="03.822892"><ele>15.6</ele><time>2022-11-15T13:21:36Z</time><name>PT7486</name></trkpt>
<trkpt lat="51.571093" lon="03.822894"><ele>15.7</ele><time>2022-11-15T13:21:38Z</time><name>PT7487</name></trkpt>
<trkpt lat="51.571101" lon="03.822899"><ele>15.7</ele><time>2022-11-15T13:21:38Z</time><name>PT7488</name></trkpt>
<trkpt lat="51.571109" lon="03.822903"><ele>15.7</ele><time>2022-11-15T13:21:40Z</time><name>PT7489</name></trkpt>
<trkpt lat="51.571118" lon="03.822907"><ele>15.7</ele><time>2022-11-15T13:21:40Z</time><name>PT7490</name></trkpt>
<trkpt lat="51.571128" lon="03.822913"><ele>15.7</ele><time>2022-11-15T13:21:42Z</time><name>PT7491</name></trkpt>
<trkpt lat="51.571136" lon="03.822918"><ele>15.6</ele><time>2022-11-15T13:21:42Z</time><name>PT7492</name></trkpt>
<trkpt lat="51.571144" lon="03.822921"><ele>15.6</ele><time>2022-11-15T13:21:44Z</time><name>PT7493</name></trkpt>
<trkpt lat="51.571152" lon="03.822925"><ele>15.7</ele><time>2022-11-15T13:21:44Z</time><name>PT7494</name></trkpt>
<trkpt lat="51.571161" lon="03.822927"><ele>15.7</ele><time>2022-11-15T13:21:46Z</time><name>PT7495</name></trkpt>
<trkpt lat="51.571170" lon="03.822929"><ele>15.7</ele><time>2022-11-15T13:21:46Z</time><name>PT7496</name></trkpt>
<trkpt lat="51.571179" lon="03.822934"><ele>15.9</ele><time>2022-11-15T13:21:48Z</time><name>PT7497</name></trkpt>
<trkpt lat="51.571187" lon="03.822940"><ele>16</ele><time>2022-11-15T13:21:48Z</time><name>PT7498</name></trkpt>
<trkpt lat="51.571197" lon="03.822945"><ele>16.1</ele><time>2022-11-15T13:21:50Z</time><name>PT7499</name></trkpt>
<trkpt lat="51.571206" lon="03.822952"><ele>16.1</ele><time>2022-11-15T13:21:50Z</time><name>PT7500</name></trkpt>
<trkpt lat="51.571216" lon="03.822956"><ele>16</ele><time>2022-11-15T13:21:52Z</time><name>PT7501</name></trkpt>
<trkpt lat="51.571227" lon="03.822960"><ele>15.9</ele><time>2022-11-15T13:21:52Z</time><name>PT7502</name></trkpt>
<trkpt lat="51.571237" lon="03.822964"><ele>15.9</ele><time>2022-11-15T13:21:54Z</time><name>PT7503</name></trkpt>
<trkpt lat="51.571248" lon="03.822966"><ele>15.9</ele><time>2022-11-15T13:21:54Z</time><name>PT7504</name></trkpt>
<trkpt lat="51.571257" lon="03.822970"><ele>15.9</ele><time>2022-11-15T13:21:56Z</time><name>PT7505</name></trkpt>
<trkpt lat="51.571266" lon="03.822975"><ele>15.9</ele><time>2022-11-15T13:21:56Z</time><name>PT7506</name></trkpt>
<trkpt lat="51.571275" lon="03.822981"><ele>16.1</ele><time>2022-11-15T13:21:58Z</time><name>PT7507</name></trkpt>
<trkpt lat="51.571285" lon="03.822985"><ele>16.1</ele><time>2022-11-15T13:21:58Z</time><name>PT7508</name></trkpt>
<trkpt lat="51.571295" lon="03.822991"><ele>16.1</ele><time>2022-11-15T13:22:00Z</time><name>PT7509</name></trkpt>
<trkpt lat="51.571304" lon="03.822998"><ele>16.2</ele><time>2022-11-15T13:22:00Z</time><name>PT7510</name></trkpt>
<trkpt lat="51.571315" lon="03.823002"><ele>16.3</ele><time>2022-11-15T13:22:02Z</time><name>PT7511</name></trkpt>
<trkpt lat="51.571326" lon="03.822999"><ele>16.2</ele><time>2022-11-15T13:22:02Z</time><name>PT7512</name></trkpt>
<trkpt lat="51.571331" lon="03.822998"><ele>16.1</ele><time>2022-11-15T13:22:04Z</time><name>PT7513</name></trkpt>
<trkpt lat="51.571337" lon="03.822999"><ele>15.9</ele><time>2022-11-15T13:22:04Z</time><name>PT7514</name></trkpt>
<trkpt lat="51.571344" lon="03.823004"><ele>15.6</ele><time>2022-11-15T13:22:06Z</time><name>PT7515</name></trkpt>
<trkpt lat="51.571351" lon="03.823012"><ele>15.3</ele><time>2022-11-15T13:22:06Z</time><name>PT7516</name></trkpt>
<trkpt lat="51.571361" lon="03.823022"><ele>15.3</ele><time>2022-11-15T13:22:08Z</time><name>PT7517</name></trkpt>
<trkpt lat="51.571374" lon="03.823031"><ele>15.2</ele><time>2022-11-15T13:22:08Z</time><name>PT7518</name></trkpt>
<trkpt lat="51.571389" lon="03.823038"><ele>15.4</ele><time>2022-11-15T13:22:10Z</time><name>PT7519</name></trkpt>
<trkpt lat="51.571399" lon="03.823046"><ele>15.6</ele><time>2022-11-15T13:22:10Z</time><name>PT7520</name></trkpt>
<trkpt lat="51.571410" lon="03.823051"><ele>16</ele><time>2022-11-15T13:22:12Z</time><name>PT7521</name></trkpt>
<trkpt lat="51.571419" lon="03.823055"><ele>16</ele><time>2022-11-15T13:22:12Z</time><name>PT7522</name></trkpt>
<trkpt lat="51.571425" lon="03.823055"><ele>16.1</ele><time>2022-11-15T13:22:14Z</time><name>PT7523</name></trkpt>
<trkpt lat="51.571429" lon="03.823053"><ele>16.1</ele><time>2022-11-15T13:22:14Z</time><name>PT7524</name></trkpt>
<trkpt lat="51.571435" lon="03.823057"><ele>16.1</ele><time>2022-11-15T13:22:16Z</time><name>PT7525</name></trkpt>
<trkpt lat="51.571446" lon="03.823066"><ele>15.8</ele><time>2022-11-15T13:22:16Z</time><name>PT7526</name></trkpt>
<trkpt lat="51.571462" lon="03.823078"><ele>15.9</ele><time>2022-11-15T13:22:18Z</time><name>PT7527</name></trkpt>
<trkpt lat="51.571477" lon="03.823086"><ele>16</ele><time>2022-11-15T13:22:18Z</time><name>PT7528</name></trkpt>
<trkpt lat="51.571492" lon="03.823092"><ele>16.3</ele><time>2022-11-15T13:22:20Z</time><name>PT7529</name></trkpt>
<trkpt lat="51.571500" lon="03.823095"><ele>16.3</ele><time>2022-11-15T13:22:20Z</time><name>PT7530</name></trkpt>
<trkpt lat="51.571504" lon="03.823094"><ele>16.6</ele><time>2022-11-15T13:22:22Z</time><name>PT7531</name></trkpt>
<trkpt lat="51.571510" lon="03.823096"><ele>16.6</ele><time>2022-11-15T13:22:22Z</time><name>PT7532</name></trkpt>
<trkpt lat="51.571518" lon="03.823101"><ele>16.8</ele><time>2022-11-15T13:22:24Z</time><name>PT7533</name></trkpt>
<trkpt lat="51.571529" lon="03.823109"><ele>16.7</ele><time>2022-11-15T13:22:24Z</time><name>PT7534</name></trkpt>
<trkpt lat="51.571541" lon="03.823116"><ele>16.6</ele><time>2022-11-15T13:22:26Z</time><name>PT7535</name></trkpt>
<trkpt lat="51.571555" lon="03.823120"><ele>16.6</ele><time>2022-11-15T13:22:26Z</time><name>PT7536</name></trkpt>
<trkpt lat="51.571566" lon="03.823123"><ele>16.3</ele><time>2022-11-15T13:22:28Z</time><name>PT7537</name></trkpt>
<trkpt lat="51.571577" lon="03.823127"><ele>16.2</ele><time>2022-11-15T13:22:28Z</time><name>PT7538</name></trkpt>
<trkpt lat="51.571587" lon="03.823131"><ele>16.3</ele><time>2022-11-15T13:22:30Z</time><name>PT7539</name></trkpt>
<trkpt lat="51.571597" lon="03.823135"><ele>16.2</ele><time>2022-11-15T13:22:30Z</time><name>PT7540</name></trkpt>
<trkpt lat="51.571607" lon="03.823142"><ele>16.1</ele><time>2022-11-15T13:22:32Z</time><name>PT7541</name></trkpt>
<trkpt lat="51.571618" lon="03.823149"><ele>15.8</ele><time>2022-11-15T13:22:32Z</time><name>PT7542</name></trkpt>
<trkpt lat="51.571630" lon="03.823154"><ele>15.8</ele><time>2022-11-15T13:22:34Z</time><name>PT7543</name></trkpt>
<trkpt lat="51.571641" lon="03.823157"><ele>15.6</ele><time>2022-11-15T13:22:35Z</time><name>PT7544</name></trkpt>
<trkpt lat="51.571652" lon="03.823159"><ele>15.6</ele><time>2022-11-15T13:22:36Z</time><name>PT7545</name></trkpt>
<trkpt lat="51.571661" lon="03.823161"><ele>15.7</ele><time>2022-11-15T13:22:36Z</time><name>PT7546</name></trkpt>
<trkpt lat="51.571671" lon="03.823162"><ele>16</ele><time>2022-11-15T13:22:38Z</time><name>PT7547</name></trkpt>
<trkpt lat="51.571681" lon="03.823167"><ele>15.9</ele><time>2022-11-15T13:22:38Z</time><name>PT7548</name></trkpt>
<trkpt lat="51.571690" lon="03.823173"><ele>16</ele><time>2022-11-15T13:22:40Z</time><name>PT7549</name></trkpt>
<trkpt lat="51.571701" lon="03.823181"><ele>16.1</ele><time>2022-11-15T13:22:40Z</time><name>PT7550</name></trkpt>
<trkpt lat="51.571713" lon="03.823188"><ele>16</ele><time>2022-11-15T13:22:42Z</time><name>PT7551</name></trkpt>
<trkpt lat="51.571723" lon="03.823192"><ele>16.1</ele><time>2022-11-15T13:22:42Z</time><name>PT7552</name></trkpt>
<trkpt lat="51.571730" lon="03.823192"><ele>16.1</ele><time>2022-11-15T13:22:44Z</time><name>PT7553</name></trkpt>
<trkpt lat="51.571738" lon="03.823194"><ele>16.3</ele><time>2022-11-15T13:22:44Z</time><name>PT7554</name></trkpt>
<trkpt lat="51.571747" lon="03.823197"><ele>16.1</ele><time>2022-11-15T13:22:46Z</time><name>PT7555</name></trkpt>
<trkpt lat="51.571758" lon="03.823203"><ele>16.1</ele><time>2022-11-15T13:22:46Z</time><name>PT7556</name></trkpt>
<trkpt lat="51.571768" lon="03.823212"><ele>15.9</ele><time>2022-11-15T13:22:48Z</time><name>PT7557</name></trkpt>
<trkpt lat="51.571779" lon="03.823220"><ele>16</ele><time>2022-11-15T13:22:48Z</time><name>PT7558</name></trkpt>
<trkpt lat="51.571791" lon="03.823224"><ele>15.7</ele><time>2022-11-15T13:22:50Z</time><name>PT7559</name></trkpt>
<trkpt lat="51.571801" lon="03.823223"><ele>15.8</ele><time>2022-11-15T13:22:50Z</time><name>PT7560</name></trkpt>
<trkpt lat="51.571810" lon="03.823224"><ele>15.6</ele><time>2022-11-15T13:22:52Z</time><name>PT7561</name></trkpt>
<trkpt lat="51.571821" lon="03.823233"><ele>15.6</ele><time>2022-11-15T13:22:52Z</time><name>PT7562</name></trkpt>
<trkpt lat="51.571831" lon="03.823241"><ele>15.6</ele><time>2022-11-15T13:22:54Z</time><name>PT7563</name></trkpt>
<trkpt lat="51.571842" lon="03.823247"><ele>15.7</ele><time>2022-11-15T13:22:54Z</time><name>PT7564</name></trkpt>
<trkpt lat="51.571851" lon="03.823248"><ele>15.9</ele><time>2022-11-15T13:22:56Z</time><name>PT7565</name></trkpt>
<trkpt lat="51.571860" lon="03.823251"><ele>15.9</ele><time>2022-11-15T13:22:56Z</time><name>PT7566</name></trkpt>
<trkpt lat="51.571870" lon="03.823256"><ele>15.9</ele><time>2022-11-15T13:22:58Z</time><name>PT7567</name></trkpt>
<trkpt lat="51.571881" lon="03.823266"><ele>15.9</ele><time>2022-11-15T13:22:58Z</time><name>PT7568</name></trkpt>
<trkpt lat="51.571892" lon="03.823274"><ele>15.8</ele><time>2022-11-15T13:23:00Z</time><name>PT7569</name></trkpt>
<trkpt lat="51.571904" lon="03.823279"><ele>15.8</ele><time>2022-11-15T13:23:00Z</time><name>PT7570</name></trkpt>
<trkpt lat="51.571914" lon="03.823282"><ele>15.8</ele><time>2022-11-15T13:23:02Z</time><name>PT7571</name></trkpt>
<trkpt lat="51.571922" lon="03.823282"><ele>15.7</ele><time>2022-11-15T13:23:02Z</time><name>PT7572</name></trkpt>
<trkpt lat="51.571931" lon="03.823283"><ele>15.6</ele><time>2022-11-15T13:23:04Z</time><name>PT7573</name></trkpt>
<trkpt lat="51.571942" lon="03.823290"><ele>15.5</ele><time>2022-11-15T13:23:04Z</time><name>PT7574</name></trkpt>
<trkpt lat="51.571954" lon="03.823296"><ele>15.4</ele><time>2022-11-15T13:23:06Z</time><name>PT7575</name></trkpt>
<trkpt lat="51.571964" lon="03.823304"><ele>15.3</ele><time>2022-11-15T13:23:06Z</time><name>PT7576</name></trkpt>
<trkpt lat="51.571975" lon="03.823314"><ele>15.4</ele><time>2022-11-15T13:23:08Z</time><name>PT7577</name></trkpt>
<trkpt lat="51.571983" lon="03.823319"><ele>15.5</ele><time>2022-11-15T13:23:08Z</time><name>PT7578</name></trkpt>
<trkpt lat="51.571990" lon="03.823322"><ele>15.6</ele><time>2022-11-15T13:23:10Z</time><name>PT7579</name></trkpt>
<trkpt lat="51.571995" lon="03.823323"><ele>15.6</ele><time>2022-11-15T13:23:10Z</time><name>PT7580</name></trkpt>
<trkpt lat="51.572002" lon="03.823327"><ele>15.9</ele><time>2022-11-15T13:23:12Z</time><name>PT7581</name></trkpt>
<trkpt lat="51.572010" lon="03.823333"><ele>15.9</ele><time>2022-11-15T13:23:12Z</time><name>PT7582</name></trkpt>
<trkpt lat="51.572023" lon="03.823341"><ele>15.9</ele><time>2022-11-15T13:23:14Z</time><name>PT7583</name></trkpt>
<trkpt lat="51.572039" lon="03.823350"><ele>15.9</ele><time>2022-11-15T13:23:14Z</time><name>PT7584</name></trkpt>
<trkpt lat="51.572055" lon="03.823358"><ele>15.6</ele><time>2022-11-15T13:23:16Z</time><name>PT7585</name></trkpt>
<trkpt lat="51.572068" lon="03.823364"><ele>15.6</ele><time>2022-11-15T13:23:16Z</time><name>PT7586</name></trkpt>
<trkpt lat="51.572077" lon="03.823368"><ele>15.4</ele><time>2022-11-15T13:23:18Z</time><name>PT7587</name></trkpt>
<trkpt lat="51.572085" lon="03.823371"><ele>15.4</ele><time>2022-11-15T13:23:19Z</time><name>PT7588</name></trkpt>
<trkpt lat="51.572095" lon="03.823375"><ele>15.4</ele><time>2022-11-15T13:23:20Z</time><name>PT7589</name></trkpt>
<trkpt lat="51.572104" lon="03.823380"><ele>15.3</ele><time>2022-11-15T13:23:20Z</time><name>PT7590</name></trkpt>
<trkpt lat="51.572115" lon="03.823388"><ele>15.3</ele><time>2022-11-15T13:23:22Z</time><name>PT7591</name></trkpt>
<trkpt lat="51.572126" lon="03.823396"><ele>15.2</ele><time>2022-11-15T13:23:22Z</time><name>PT7592</name></trkpt>
<trkpt lat="51.572139" lon="03.823402"><ele>15.3</ele><time>2022-11-15T13:23:24Z</time><name>PT7593</name></trkpt>
<trkpt lat="51.572149" lon="03.823405"><ele>15.4</ele><time>2022-11-15T13:23:24Z</time><name>PT7594</name></trkpt>
<trkpt lat="51.572157" lon="03.823405"><ele>15.6</ele><time>2022-11-15T13:23:26Z</time><name>PT7595</name></trkpt>
<trkpt lat="51.572165" lon="03.823406"><ele>15.6</ele><time>2022-11-15T13:23:26Z</time><name>PT7596</name></trkpt>
<trkpt lat="51.572173" lon="03.823408"><ele>15.7</ele><time>2022-11-15T13:23:28Z</time><name>PT7597</name></trkpt>
<trkpt lat="51.572182" lon="03.823413"><ele>15.8</ele><time>2022-11-15T13:23:28Z</time><name>PT7598</name></trkpt>
<trkpt lat="51.572192" lon="03.823420"><ele>15.7</ele><time>2022-11-15T13:23:30Z</time><name>PT7599</name></trkpt>
<trkpt lat="51.572201" lon="03.823426"><ele>15.6</ele><time>2022-11-15T13:23:30Z</time><name>PT7600</name></trkpt>
<trkpt lat="51.572211" lon="03.823432"><ele>15.6</ele><time>2022-11-15T13:23:32Z</time><name>PT7601</name></trkpt>
<trkpt lat="51.572222" lon="03.823434"><ele>15.6</ele><time>2022-11-15T13:23:32Z</time><name>PT7602</name></trkpt>
<trkpt lat="51.572232" lon="03.823437"><ele>15.5</ele><time>2022-11-15T13:23:34Z</time><name>PT7603</name></trkpt>
<trkpt lat="51.572240" lon="03.823440"><ele>15.5</ele><time>2022-11-15T13:23:34Z</time><name>PT7604</name></trkpt>
<trkpt lat="51.572247" lon="03.823443"><ele>15.6</ele><time>2022-11-15T13:23:36Z</time><name>PT7605</name></trkpt>
<trkpt lat="51.572256" lon="03.823447"><ele>15.5</ele><time>2022-11-15T13:23:36Z</time><name>PT7606</name></trkpt>
<trkpt lat="51.572266" lon="03.823452"><ele>15.5</ele><time>2022-11-15T13:23:38Z</time><name>PT7607</name></trkpt>
<trkpt lat="51.572279" lon="03.823461"><ele>15.3</ele><time>2022-11-15T13:23:39Z</time><name>PT7608</name></trkpt>
<trkpt lat="51.572293" lon="03.823468"><ele>15.4</ele><time>2022-11-15T13:23:40Z</time><name>PT7609</name></trkpt>
<trkpt lat="51.572305" lon="03.823473"><ele>15.4</ele><time>2022-11-15T13:23:41Z</time><name>PT7610</name></trkpt>
<trkpt lat="51.572315" lon="03.823476"><ele>15.6</ele><time>2022-11-15T13:23:42Z</time><name>PT7611</name></trkpt>
<trkpt lat="51.572324" lon="03.823479"><ele>15.6</ele><time>2022-11-15T13:23:43Z</time><name>PT7612</name></trkpt>
<trkpt lat="51.572333" lon="03.823484"><ele>15.7</ele><time>2022-11-15T13:23:44Z</time><name>PT7613</name></trkpt>
<trkpt lat="51.572343" lon="03.823492"><ele>15.6</ele><time>2022-11-15T13:23:45Z</time><name>PT7614</name></trkpt>
<trkpt lat="51.572354" lon="03.823500"><ele>15.4</ele><time>2022-11-15T13:23:46Z</time><name>PT7615</name></trkpt>
<trkpt lat="51.572367" lon="03.823507"><ele>15.2</ele><time>2022-11-15T13:23:47Z</time><name>PT7616</name></trkpt>
<trkpt lat="51.572381" lon="03.823513"><ele>15</ele><time>2022-11-15T13:23:48Z</time><name>PT7617</name></trkpt>
<trkpt lat="51.572392" lon="03.823518"><ele>15.1</ele><time>2022-11-15T13:23:49Z</time><name>PT7618</name></trkpt>
<trkpt lat="51.572393" lon="03.823520"><ele>15.1</ele><time>2022-11-15T13:23:50Z</time><name>PT7619</name></trkpt>
<trkpt lat="51.572396" lon="03.823522"><ele>15.4</ele><time>2022-11-15T13:23:51Z</time><name>PT7620</name></trkpt>
<trkpt lat="51.572405" lon="03.823526"><ele>15.6</ele><time>2022-11-15T13:23:52Z</time><name>PT7621</name></trkpt>
<trkpt lat="51.572418" lon="03.823534"><ele>15.7</ele><time>2022-11-15T13:23:52Z</time><name>PT7622</name></trkpt>
<trkpt lat="51.572431" lon="03.823537"><ele>15.6</ele><time>2022-11-15T13:23:54Z</time><name>PT7623</name></trkpt>
<trkpt lat="51.572440" lon="03.823538"><ele>15.6</ele><time>2022-11-15T13:23:54Z</time><name>PT7624</name></trkpt>
<trkpt lat="51.572447" lon="03.823540"><ele>15.5</ele><time>2022-11-15T13:23:56Z</time><name>PT7625</name></trkpt>
<trkpt lat="51.572456" lon="03.823544"><ele>15.4</ele><time>2022-11-15T13:23:56Z</time><name>PT7626</name></trkpt>
<trkpt lat="51.572468" lon="03.823551"><ele>15.4</ele><time>2022-11-15T13:23:58Z</time><name>PT7627</name></trkpt>
<trkpt lat="51.572478" lon="03.823559"><ele>15.5</ele><time>2022-11-15T13:23:58Z</time><name>PT7628</name></trkpt>
<trkpt lat="51.572488" lon="03.823564"><ele>15.6</ele><time>2022-11-15T13:24:00Z</time><name>PT7629</name></trkpt>
<trkpt lat="51.572500" lon="03.823568"><ele>16</ele><time>2022-11-15T13:24:00Z</time><name>PT7630</name></trkpt>
<trkpt lat="51.572511" lon="03.823571"><ele>16.2</ele><time>2022-11-15T13:24:02Z</time><name>PT7631</name></trkpt>
<trkpt lat="51.572521" lon="03.823573"><ele>16.3</ele><time>2022-11-15T13:24:02Z</time><name>PT7632</name></trkpt>
<trkpt lat="51.572529" lon="03.823574"><ele>16.2</ele><time>2022-11-15T13:24:04Z</time><name>PT7633</name></trkpt>
<trkpt lat="51.572537" lon="03.823577"><ele>16.2</ele><time>2022-11-15T13:24:04Z</time><name>PT7634</name></trkpt>
<trkpt lat="51.572547" lon="03.823581"><ele>16</ele><time>2022-11-15T13:24:06Z</time><name>PT7635</name></trkpt>
<trkpt lat="51.572559" lon="03.823586"><ele>16</ele><time>2022-11-15T13:24:06Z</time><name>PT7636</name></trkpt>
<trkpt lat="51.572571" lon="03.823592"><ele>16.1</ele><time>2022-11-15T13:24:08Z</time><name>PT7637</name></trkpt>
<trkpt lat="51.572584" lon="03.823598"><ele>16.4</ele><time>2022-11-15T13:24:08Z</time><name>PT7638</name></trkpt>
<trkpt lat="51.572593" lon="03.823603"><ele>16.7</ele><time>2022-11-15T13:24:10Z</time><name>PT7639</name></trkpt>
<trkpt lat="51.572602" lon="03.823605"><ele>16.9</ele><time>2022-11-15T13:24:10Z</time><name>PT7640</name></trkpt>
<trkpt lat="51.572610" lon="03.823606"><ele>16.8</ele><time>2022-11-15T13:24:12Z</time><name>PT7641</name></trkpt>
<trkpt lat="51.572617" lon="03.823610"><ele>16.6</ele><time>2022-11-15T13:24:12Z</time><name>PT7642</name></trkpt>
<trkpt lat="51.572631" lon="03.823625"><ele>16.4</ele><time>2022-11-15T13:24:14Z</time><name>PT7643</name></trkpt>
<trkpt lat="51.572646" lon="03.823635"><ele>16.1</ele><time>2022-11-15T13:24:14Z</time><name>PT7644</name></trkpt>
<trkpt lat="51.572658" lon="03.823640"><ele>15.8</ele><time>2022-11-15T13:24:16Z</time><name>PT7645</name></trkpt>
<trkpt lat="51.572668" lon="03.823640"><ele>15.8</ele><time>2022-11-15T13:24:16Z</time><name>PT7646</name></trkpt>
<trkpt lat="51.572675" lon="03.823644"><ele>15.6</ele><time>2022-11-15T13:24:18Z</time><name>PT7647</name></trkpt>
<trkpt lat="51.572682" lon="03.823649"><ele>15.5</ele><time>2022-11-15T13:24:18Z</time><name>PT7648</name></trkpt>
<trkpt lat="51.572691" lon="03.823653"><ele>15.7</ele><time>2022-11-15T13:24:20Z</time><name>PT7649</name></trkpt>
<trkpt lat="51.572699" lon="03.823661"><ele>15.6</ele><time>2022-11-15T13:24:20Z</time><name>PT7650</name></trkpt>
<trkpt lat="51.572710" lon="03.823670"><ele>15.5</ele><time>2022-11-15T13:24:22Z</time><name>PT7651</name></trkpt>
<trkpt lat="51.572722" lon="03.823676"><ele>15.6</ele><time>2022-11-15T13:24:22Z</time><name>PT7652</name></trkpt>
<trkpt lat="51.572738" lon="03.823682"><ele>15.9</ele><time>2022-11-15T13:24:24Z</time><name>PT7653</name></trkpt>
<trkpt lat="51.572748" lon="03.823685"><ele>16</ele><time>2022-11-15T13:24:24Z</time><name>PT7654</name></trkpt>
<trkpt lat="51.572755" lon="03.823685"><ele>16.3</ele><time>2022-11-15T13:24:26Z</time><name>PT7655</name></trkpt>
<trkpt lat="51.572762" lon="03.823686"><ele>16.5</ele><time>2022-11-15T13:24:26Z</time><name>PT7656</name></trkpt>
<trkpt lat="51.572769" lon="03.823691"><ele>16.6</ele><time>2022-11-15T13:24:28Z</time><name>PT7657</name></trkpt>
<trkpt lat="51.572779" lon="03.823699"><ele>17</ele><time>2022-11-15T13:24:28Z</time><name>PT7658</name></trkpt>
<trkpt lat="51.572794" lon="03.823708"><ele>17.1</ele><time>2022-11-15T13:24:30Z</time><name>PT7659</name></trkpt>
<trkpt lat="51.572810" lon="03.823716"><ele>17.3</ele><time>2022-11-15T13:24:30Z</time><name>PT7660</name></trkpt>
<trkpt lat="51.572824" lon="03.823719"><ele>17.4</ele><time>2022-11-15T13:24:32Z</time><name>PT7661</name></trkpt>
<trkpt lat="51.572833" lon="03.823718"><ele>17.6</ele><time>2022-11-15T13:24:32Z</time><name>PT7662</name></trkpt>
<trkpt lat="51.572841" lon="03.823719"><ele>17.2</ele><time>2022-11-15T13:24:34Z</time><name>PT7663</name></trkpt>
<trkpt lat="51.572849" lon="03.823719"><ele>17.2</ele><time>2022-11-15T13:24:34Z</time><name>PT7664</name></trkpt>
<trkpt lat="51.572856" lon="03.823724"><ele>17.4</ele><time>2022-11-15T13:24:36Z</time><name>PT7665</name></trkpt>
<trkpt lat="51.572864" lon="03.823728"><ele>17.6</ele><time>2022-11-15T13:24:36Z</time><name>PT7666</name></trkpt>
<trkpt lat="51.572876" lon="03.823735"><ele>17.6</ele><time>2022-11-15T13:24:38Z</time><name>PT7667</name></trkpt>
<trkpt lat="51.572892" lon="03.823743"><ele>17.9</ele><time>2022-11-15T13:24:38Z</time><name>PT7668</name></trkpt>
<trkpt lat="51.572905" lon="03.823749"><ele>18.2</ele><time>2022-11-15T13:24:40Z</time><name>PT7669</name></trkpt>
<trkpt lat="51.572916" lon="03.823754"><ele>17.9</ele><time>2022-11-15T13:24:40Z</time><name>PT7670</name></trkpt>
<trkpt lat="51.572923" lon="03.823758"><ele>17.7</ele><time>2022-11-15T13:24:42Z</time><name>PT7671</name></trkpt>
<trkpt lat="51.572931" lon="03.823764"><ele>17.6</ele><time>2022-11-15T13:24:42Z</time><name>PT7672</name></trkpt>
<trkpt lat="51.572938" lon="03.823767"><ele>17.2</ele><time>2022-11-15T13:24:44Z</time><name>PT7673</name></trkpt>
<trkpt lat="51.572948" lon="03.823771"><ele>17.2</ele><time>2022-11-15T13:24:44Z</time><name>PT7674</name></trkpt>
<trkpt lat="51.572961" lon="03.823777"><ele>17.1</ele><time>2022-11-15T13:24:46Z</time><name>PT7675</name></trkpt>
<trkpt lat="51.572975" lon="03.823782"><ele>16.8</ele><time>2022-11-15T13:24:46Z</time><name>PT7676</name></trkpt>
<trkpt lat="51.572990" lon="03.823786"><ele>16.6</ele><time>2022-11-15T13:24:48Z</time><name>PT7677</name></trkpt>
<trkpt lat="51.572999" lon="03.823787"><ele>16.4</ele><time>2022-11-15T13:24:48Z</time><name>PT7678</name></trkpt>
<trkpt lat="51.573008" lon="03.823789"><ele>16.3</ele><time>2022-11-15T13:24:50Z</time><name>PT7679</name></trkpt>
<trkpt lat="51.573015" lon="03.823792"><ele>16.3</ele><time>2022-11-15T13:24:50Z</time><name>PT7680</name></trkpt>
<trkpt lat="51.573023" lon="03.823797"><ele>16.6</ele><time>2022-11-15T13:24:52Z</time><name>PT7681</name></trkpt>
<trkpt lat="51.573032" lon="03.823805"><ele>16.6</ele><time>2022-11-15T13:24:52Z</time><name>PT7682</name></trkpt>
<trkpt lat="51.573051" lon="03.823807"><ele>16.6</ele><time>2022-11-15T13:24:54Z</time><name>PT7683</name></trkpt>
<trkpt lat="51.573065" lon="03.823810"><ele>16.9</ele><time>2022-11-15T13:24:54Z</time><name>PT7684</name></trkpt>
<trkpt lat="51.573079" lon="03.823813"><ele>17.1</ele><time>2022-11-15T13:24:56Z</time><name>PT7685</name></trkpt>
<trkpt lat="51.573089" lon="03.823815"><ele>17.1</ele><time>2022-11-15T13:24:56Z</time><name>PT7686</name></trkpt>
<trkpt lat="51.573095" lon="03.823817"><ele>17.4</ele><time>2022-11-15T13:24:58Z</time><name>PT7687</name></trkpt>
<trkpt lat="51.573104" lon="03.823821"><ele>17.5</ele><time>2022-11-15T13:24:58Z</time><name>PT7688</name></trkpt>
<trkpt lat="51.573112" lon="03.823826"><ele>17.6</ele><time>2022-11-15T13:25:00Z</time><name>PT7689</name></trkpt>
<trkpt lat="51.573122" lon="03.823834"><ele>17.3</ele><time>2022-11-15T13:25:00Z</time><name>PT7690</name></trkpt>
<trkpt lat="51.573135" lon="03.823840"><ele>17.2</ele><time>2022-11-15T13:25:02Z</time><name>PT7691</name></trkpt>
<trkpt lat="51.573150" lon="03.823847"><ele>17.1</ele><time>2022-11-15T13:25:03Z</time><name>PT7692</name></trkpt>
<trkpt lat="51.573162" lon="03.823852"><ele>17.2</ele><time>2022-11-15T13:25:04Z</time><name>PT7693</name></trkpt>
<trkpt lat="51.573172" lon="03.823854"><ele>17.1</ele><time>2022-11-15T13:25:04Z</time><name>PT7694</name></trkpt>
<trkpt lat="51.573180" lon="03.823857"><ele>17.4</ele><time>2022-11-15T13:25:06Z</time><name>PT7695</name></trkpt>
<trkpt lat="51.573187" lon="03.823862"><ele>17.5</ele><time>2022-11-15T13:25:06Z</time><name>PT7696</name></trkpt>
<trkpt lat="51.573194" lon="03.823868"><ele>17.3</ele><time>2022-11-15T13:25:08Z</time><name>PT7697</name></trkpt>
<trkpt lat="51.573205" lon="03.823877"><ele>17.2</ele><time>2022-11-15T13:25:08Z</time><name>PT7698</name></trkpt>
<trkpt lat="51.573219" lon="03.823885"><ele>17.2</ele><time>2022-11-15T13:25:10Z</time><name>PT7699</name></trkpt>
<trkpt lat="51.573232" lon="03.823890"><ele>16.9</ele><time>2022-11-15T13:25:11Z</time><name>PT7700</name></trkpt>
<trkpt lat="51.573241" lon="03.823892"><ele>17</ele><time>2022-11-15T13:25:12Z</time><name>PT7701</name></trkpt>
<trkpt lat="51.573251" lon="03.823894"><ele>17</ele><time>2022-11-15T13:25:13Z</time><name>PT7702</name></trkpt>
<trkpt lat="51.573258" lon="03.823897"><ele>17</ele><time>2022-11-15T13:25:14Z</time><name>PT7703</name></trkpt>
<trkpt lat="51.573264" lon="03.823902"><ele>17</ele><time>2022-11-15T13:25:15Z</time><name>PT7704</name></trkpt>
<trkpt lat="51.573273" lon="03.823910"><ele>17</ele><time>2022-11-15T13:25:16Z</time><name>PT7705</name></trkpt>
<trkpt lat="51.573285" lon="03.823919"><ele>16.8</ele><time>2022-11-15T13:25:16Z</time><name>PT7706</name></trkpt>
<trkpt lat="51.573298" lon="03.823929"><ele>16.6</ele><time>2022-11-15T13:25:18Z</time><name>PT7707</name></trkpt>
<trkpt lat="51.573310" lon="03.823937"><ele>16.6</ele><time>2022-11-15T13:25:19Z</time><name>PT7708</name></trkpt>
<trkpt lat="51.573319" lon="03.823939"><ele>16.5</ele><time>2022-11-15T13:25:20Z</time><name>PT7709</name></trkpt>
<trkpt lat="51.573327" lon="03.823941"><ele>16.6</ele><time>2022-11-15T13:25:20Z</time><name>PT7710</name></trkpt>
<trkpt lat="51.573334" lon="03.823944"><ele>16.7</ele><time>2022-11-15T13:25:22Z</time><name>PT7711</name></trkpt>
<trkpt lat="51.573341" lon="03.823950"><ele>16.6</ele><time>2022-11-15T13:25:22Z</time><name>PT7712</name></trkpt>
<trkpt lat="51.573350" lon="03.823957"><ele>17</ele><time>2022-11-15T13:25:24Z</time><name>PT7713</name></trkpt>
<trkpt lat="51.573361" lon="03.823965"><ele>17.2</ele><time>2022-11-15T13:25:24Z</time><name>PT7714</name></trkpt>
<trkpt lat="51.573375" lon="03.823972"><ele>17.5</ele><time>2022-11-15T13:25:26Z</time><name>PT7715</name></trkpt>
<trkpt lat="51.573385" lon="03.823977"><ele>17.7</ele><time>2022-11-15T13:25:26Z</time><name>PT7716</name></trkpt>
<trkpt lat="51.573393" lon="03.823980"><ele>17.7</ele><time>2022-11-15T13:25:28Z</time><name>PT7717</name></trkpt>
<trkpt lat="51.573402" lon="03.823983"><ele>17.8</ele><time>2022-11-15T13:25:28Z</time><name>PT7718</name></trkpt>
<trkpt lat="51.573410" lon="03.823988"><ele>17.7</ele><time>2022-11-15T13:25:30Z</time><name>PT7719</name></trkpt>
<trkpt lat="51.573417" lon="03.823995"><ele>17.6</ele><time>2022-11-15T13:25:30Z</time><name>PT7720</name></trkpt>
<trkpt lat="51.573427" lon="03.824001"><ele>17.5</ele><time>2022-11-15T13:25:32Z</time><name>PT7721</name></trkpt>
<trkpt lat="51.573439" lon="03.824006"><ele>17.5</ele><time>2022-11-15T13:25:32Z</time><name>PT7722</name></trkpt>
<trkpt lat="51.573449" lon="03.824009"><ele>17.6</ele><time>2022-11-15T13:25:34Z</time><name>PT7723</name></trkpt>
<trkpt lat="51.573458" lon="03.824012"><ele>17.5</ele><time>2022-11-15T13:25:34Z</time><name>PT7724</name></trkpt>
<trkpt lat="51.573465" lon="03.824015"><ele>17.5</ele><time>2022-11-15T13:25:36Z</time><name>PT7725</name></trkpt>
<trkpt lat="51.573472" lon="03.824019"><ele>17.6</ele><time>2022-11-15T13:25:36Z</time><name>PT7726</name></trkpt>
<trkpt lat="51.573480" lon="03.824024"><ele>17.4</ele><time>2022-11-15T13:25:38Z</time><name>PT7727</name></trkpt>
<trkpt lat="51.573492" lon="03.824034"><ele>17.2</ele><time>2022-11-15T13:25:38Z</time><name>PT7728</name></trkpt>
<trkpt lat="51.573506" lon="03.824042"><ele>17.1</ele><time>2022-11-15T13:25:40Z</time><name>PT7729</name></trkpt>
<trkpt lat="51.573519" lon="03.824049"><ele>16.9</ele><time>2022-11-15T13:25:40Z</time><name>PT7730</name></trkpt>
<trkpt lat="51.573529" lon="03.824053"><ele>16.8</ele><time>2022-11-15T13:25:42Z</time><name>PT7731</name></trkpt>
<trkpt lat="51.573536" lon="03.824053"><ele>16.8</ele><time>2022-11-15T13:25:42Z</time><name>PT7732</name></trkpt>
<trkpt lat="51.573546" lon="03.824055"><ele>16.8</ele><time>2022-11-15T13:25:44Z</time><name>PT7733</name></trkpt>
<trkpt lat="51.573555" lon="03.824060"><ele>16.9</ele><time>2022-11-15T13:25:44Z</time><name>PT7734</name></trkpt>
<trkpt lat="51.573565" lon="03.824067"><ele>17</ele><time>2022-11-15T13:25:46Z</time><name>PT7735</name></trkpt>
<trkpt lat="51.573575" lon="03.824074"><ele>16.9</ele><time>2022-11-15T13:25:46Z</time><name>PT7736</name></trkpt>
<trkpt lat="51.573584" lon="03.824079"><ele>16.8</ele><time>2022-11-15T13:25:48Z</time><name>PT7737</name></trkpt>
<trkpt lat="51.573595" lon="03.824082"><ele>16.8</ele><time>2022-11-15T13:25:48Z</time><name>PT7738</name></trkpt>
<trkpt lat="51.573605" lon="03.824085"><ele>16.9</ele><time>2022-11-15T13:25:50Z</time><name>PT7739</name></trkpt>
<trkpt lat="51.573614" lon="03.824089"><ele>17</ele><time>2022-11-15T13:25:50Z</time><name>PT7740</name></trkpt>
<trkpt lat="51.573622" lon="03.824093"><ele>17.2</ele><time>2022-11-15T13:25:52Z</time><name>PT7741</name></trkpt>
<trkpt lat="51.573632" lon="03.824098"><ele>17.1</ele><time>2022-11-15T13:25:52Z</time><name>PT7742</name></trkpt>
<trkpt lat="51.573642" lon="03.824104"><ele>17.2</ele><time>2022-11-15T13:25:54Z</time><name>PT7743</name></trkpt>
<trkpt lat="51.573652" lon="03.824110"><ele>17.2</ele><time>2022-11-15T13:25:54Z</time><name>PT7744</name></trkpt>
<trkpt lat="51.573663" lon="03.824113"><ele>17.1</ele><time>2022-11-15T13:25:56Z</time><name>PT7745</name></trkpt>
<trkpt lat="51.573673" lon="03.824115"><ele>17.2</ele><time>2022-11-15T13:25:56Z</time><name>PT7746</name></trkpt>
<trkpt lat="51.573682" lon="03.824119"><ele>17.2</ele><time>2022-11-15T13:25:58Z</time><name>PT7747</name></trkpt>
<trkpt lat="51.573687" lon="03.824119"><ele>17.2</ele><time>2022-11-15T13:25:58Z</time><name>PT7748</name></trkpt>
<trkpt lat="51.573692" lon="03.824121"><ele>17</ele><time>2022-11-15T13:26:00Z</time><name>PT7749</name></trkpt>
<trkpt lat="51.573700" lon="03.824126"><ele>16.8</ele><time>2022-11-15T13:26:00Z</time><name>PT7750</name></trkpt>
<trkpt lat="51.573711" lon="03.824133"><ele>16.5</ele><time>2022-11-15T13:26:02Z</time><name>PT7751</name></trkpt>
<trkpt lat="51.573722" lon="03.824141"><ele>16.6</ele><time>2022-11-15T13:26:02Z</time><name>PT7752</name></trkpt>
<trkpt lat="51.573734" lon="03.824149"><ele>16.6</ele><time>2022-11-15T13:26:04Z</time><name>PT7753</name></trkpt>
<trkpt lat="51.573745" lon="03.824151"><ele>16.5</ele><time>2022-11-15T13:26:04Z</time><name>PT7754</name></trkpt>
<trkpt lat="51.573754" lon="03.824151"><ele>16.4</ele><time>2022-11-15T13:26:06Z</time><name>PT7755</name></trkpt>
<trkpt lat="51.573762" lon="03.824152"><ele>16.4</ele><time>2022-11-15T13:26:06Z</time><name>PT7756</name></trkpt>
<trkpt lat="51.573770" lon="03.824156"><ele>16.4</ele><time>2022-11-15T13:26:08Z</time><name>PT7757</name></trkpt>
<trkpt lat="51.573777" lon="03.824163"><ele>16.3</ele><time>2022-11-15T13:26:08Z</time><name>PT7758</name></trkpt>
<trkpt lat="51.573787" lon="03.824170"><ele>16.2</ele><time>2022-11-15T13:26:10Z</time><name>PT7759</name></trkpt>
<trkpt lat="51.573800" lon="03.824177"><ele>16.3</ele><time>2022-11-15T13:26:10Z</time><name>PT7760</name></trkpt>
<trkpt lat="51.573815" lon="03.824184"><ele>16.1</ele><time>2022-11-15T13:26:12Z</time><name>PT7761</name></trkpt>
<trkpt lat="51.573827" lon="03.824189"><ele>15.9</ele><time>2022-11-15T13:26:12Z</time><name>PT7762</name></trkpt>
<trkpt lat="51.573837" lon="03.824190"><ele>15.9</ele><time>2022-11-15T13:26:14Z</time><name>PT7763</name></trkpt>
<trkpt lat="51.573845" lon="03.824191"><ele>15.8</ele><time>2022-11-15T13:26:14Z</time><name>PT7764</name></trkpt>
<trkpt lat="51.573853" lon="03.824195"><ele>16.1</ele><time>2022-11-15T13:26:16Z</time><name>PT7765</name></trkpt>
<trkpt lat="51.573861" lon="03.824200"><ele>16.3</ele><time>2022-11-15T13:26:16Z</time><name>PT7766</name></trkpt>
<trkpt lat="51.573869" lon="03.824208"><ele>16.8</ele><time>2022-11-15T13:26:18Z</time><name>PT7767</name></trkpt>
<trkpt lat="51.573877" lon="03.824216"><ele>17</ele><time>2022-11-15T13:26:18Z</time><name>PT7768</name></trkpt>
<trkpt lat="51.573886" lon="03.824222"><ele>17.2</ele><time>2022-11-15T13:26:20Z</time><name>PT7769</name></trkpt>
<trkpt lat="51.573898" lon="03.824226"><ele>17.2</ele><time>2022-11-15T13:26:20Z</time><name>PT7770</name></trkpt>
<trkpt lat="51.573909" lon="03.824229"><ele>17.2</ele><time>2022-11-15T13:26:22Z</time><name>PT7771</name></trkpt>
<trkpt lat="51.573920" lon="03.824231"><ele>17</ele><time>2022-11-15T13:26:22Z</time><name>PT7772</name></trkpt>
<trkpt lat="51.573930" lon="03.824235"><ele>17</ele><time>2022-11-15T13:26:24Z</time><name>PT7773</name></trkpt>
<trkpt lat="51.573940" lon="03.824239"><ele>16.8</ele><time>2022-11-15T13:26:24Z</time><name>PT7774</name></trkpt>
<trkpt lat="51.573950" lon="03.824244"><ele>16.9</ele><time>2022-11-15T13:26:26Z</time><name>PT7775</name></trkpt>
<trkpt lat="51.573961" lon="03.824250"><ele>16.8</ele><time>2022-11-15T13:26:26Z</time><name>PT7776</name></trkpt>
<trkpt lat="51.573972" lon="03.824257"><ele>16.8</ele><time>2022-11-15T13:26:28Z</time><name>PT7777</name></trkpt>
<trkpt lat="51.573984" lon="03.824264"><ele>16.7</ele><time>2022-11-15T13:26:28Z</time><name>PT7778</name></trkpt>
<trkpt lat="51.574000" lon="03.824273"><ele>16.6</ele><time>2022-11-15T13:26:30Z</time><name>PT7779</name></trkpt>
<trkpt lat="51.574017" lon="03.824281"><ele>16.4</ele><time>2022-11-15T13:26:30Z</time><name>PT7780</name></trkpt>
<trkpt lat="51.574031" lon="03.824284"><ele>16.2</ele><time>2022-11-15T13:26:32Z</time><name>PT7781</name></trkpt>
<trkpt lat="51.574042" lon="03.824288"><ele>16.3</ele><time>2022-11-15T13:26:32Z</time><name>PT7782</name></trkpt>
<trkpt lat="51.574053" lon="03.824293"><ele>16.6</ele><time>2022-11-15T13:26:34Z</time><name>PT7783</name></trkpt>
<trkpt lat="51.574062" lon="03.824297"><ele>16.6</ele><time>2022-11-15T13:26:34Z</time><name>PT7784</name></trkpt>
<trkpt lat="51.574071" lon="03.824301"><ele>16.8</ele><time>2022-11-15T13:26:36Z</time><name>PT7785</name></trkpt>
<trkpt lat="51.574081" lon="03.824307"><ele>16.9</ele><time>2022-11-15T13:26:36Z</time><name>PT7786</name></trkpt>
<trkpt lat="51.574090" lon="03.824315"><ele>16.7</ele><time>2022-11-15T13:26:38Z</time><name>PT7787</name></trkpt>
<trkpt lat="51.574100" lon="03.824321"><ele>16.4</ele><time>2022-11-15T13:26:38Z</time><name>PT7788</name></trkpt>
<trkpt lat="51.574111" lon="03.824326"><ele>16.3</ele><time>2022-11-15T13:26:40Z</time><name>PT7789</name></trkpt>
<trkpt lat="51.574120" lon="03.824328"><ele>16.1</ele><time>2022-11-15T13:26:40Z</time><name>PT7790</name></trkpt>
<trkpt lat="51.574129" lon="03.824329"><ele>16.2</ele><time>2022-11-15T13:26:42Z</time><name>PT7791</name></trkpt>
<trkpt lat="51.574137" lon="03.824333"><ele>16.2</ele><time>2022-11-15T13:26:42Z</time><name>PT7792</name></trkpt>
<trkpt lat="51.574147" lon="03.824338"><ele>16.4</ele><time>2022-11-15T13:26:44Z</time><name>PT7793</name></trkpt>
<trkpt lat="51.574156" lon="03.824344"><ele>16.5</ele><time>2022-11-15T13:26:44Z</time><name>PT7794</name></trkpt>
<trkpt lat="51.574166" lon="03.824348"><ele>16.6</ele><time>2022-11-15T13:26:46Z</time><name>PT7795</name></trkpt>
<trkpt lat="51.574177" lon="03.824354"><ele>16.6</ele><time>2022-11-15T13:26:46Z</time><name>PT7796</name></trkpt>
<trkpt lat="51.574186" lon="03.824358"><ele>16.6</ele><time>2022-11-15T13:26:48Z</time><name>PT7797</name></trkpt>
<trkpt lat="51.574196" lon="03.824361"><ele>16.6</ele><time>2022-11-15T13:26:48Z</time><name>PT7798</name></trkpt>
<trkpt lat="51.574206" lon="03.824365"><ele>16.5</ele><time>2022-11-15T13:26:50Z</time><name>PT7799</name></trkpt>
<trkpt lat="51.574216" lon="03.824372"><ele>16.5</ele><time>2022-11-15T13:26:50Z</time><name>PT7800</name></trkpt>
<trkpt lat="51.574226" lon="03.824381"><ele>16.6</ele><time>2022-11-15T13:26:52Z</time><name>PT7801</name></trkpt>
<trkpt lat="51.574236" lon="03.824388"><ele>16.6</ele><time>2022-11-15T13:26:52Z</time><name>PT7802</name></trkpt>
<trkpt lat="51.574245" lon="03.824393"><ele>16.6</ele><time>2022-11-15T13:26:54Z</time><name>PT7803</name></trkpt>
<trkpt lat="51.574254" lon="03.824397"><ele>16.6</ele><time>2022-11-15T13:26:54Z</time><name>PT7804</name></trkpt>
<trkpt lat="51.574264" lon="03.824400"><ele>16.5</ele><time>2022-11-15T13:26:56Z</time><name>PT7805</name></trkpt>
<trkpt lat="51.574274" lon="03.824403"><ele>16.6</ele><time>2022-11-15T13:26:56Z</time><name>PT7806</name></trkpt>
<trkpt lat="51.574283" lon="03.824407"><ele>16.7</ele><time>2022-11-15T13:26:58Z</time><name>PT7807</name></trkpt>
<trkpt lat="51.574292" lon="03.824411"><ele>16.7</ele><time>2022-11-15T13:26:58Z</time><name>PT7808</name></trkpt>
<trkpt lat="51.574301" lon="03.824416"><ele>16.8</ele><time>2022-11-15T13:27:00Z</time><name>PT7809</name></trkpt>
<trkpt lat="51.574311" lon="03.824423"><ele>16.9</ele><time>2022-11-15T13:27:00Z</time><name>PT7810</name></trkpt>
<trkpt lat="51.574321" lon="03.824431"><ele>16.7</ele><time>2022-11-15T13:27:02Z</time><name>PT7811</name></trkpt>
<trkpt lat="51.574331" lon="03.824435"><ele>16.7</ele><time>2022-11-15T13:27:02Z</time><name>PT7812</name></trkpt>
<trkpt lat="51.574343" lon="03.824439"><ele>16.6</ele><time>2022-11-15T13:27:04Z</time><name>PT7813</name></trkpt>
<trkpt lat="51.574353" lon="03.824443"><ele>16.5</ele><time>2022-11-15T13:27:04Z</time><name>PT7814</name></trkpt>
<trkpt lat="51.574364" lon="03.824445"><ele>16.3</ele><time>2022-11-15T13:27:06Z</time><name>PT7815</name></trkpt>
<trkpt lat="51.574373" lon="03.824449"><ele>16.3</ele><time>2022-11-15T13:27:06Z</time><name>PT7816</name></trkpt>
<trkpt lat="51.574381" lon="03.824456"><ele>16.6</ele><time>2022-11-15T13:27:08Z</time><name>PT7817</name></trkpt>
<trkpt lat="51.574390" lon="03.824462"><ele>16.7</ele><time>2022-11-15T13:27:08Z</time><name>PT7818</name></trkpt>
<trkpt lat="51.574399" lon="03.824469"><ele>16.6</ele><time>2022-11-15T13:27:10Z</time><name>PT7819</name></trkpt>
<trkpt lat="51.574410" lon="03.824476"><ele>16.7</ele><time>2022-11-15T13:27:10Z</time><name>PT7820</name></trkpt>
<trkpt lat="51.574420" lon="03.824482"><ele>16.7</ele><time>2022-11-15T13:27:12Z</time><name>PT7821</name></trkpt>
<trkpt lat="51.574429" lon="03.824485"><ele>16.5</ele><time>2022-11-15T13:27:13Z</time><name>PT7822</name></trkpt>
<trkpt lat="51.574439" lon="03.824488"><ele>16.4</ele><time>2022-11-15T13:27:14Z</time><name>PT7823</name></trkpt>
<trkpt lat="51.574449" lon="03.824490"><ele>16.2</ele><time>2022-11-15T13:27:15Z</time><name>PT7824</name></trkpt>
<trkpt lat="51.574457" lon="03.824495"><ele>16.3</ele><time>2022-11-15T13:27:16Z</time><name>PT7825</name></trkpt>
<trkpt lat="51.574466" lon="03.824501"><ele>16.2</ele><time>2022-11-15T13:27:16Z</time><name>PT7826</name></trkpt>
<trkpt lat="51.574475" lon="03.824506"><ele>16.3</ele><time>2022-11-15T13:27:18Z</time><name>PT7827</name></trkpt>
<trkpt lat="51.574486" lon="03.824512"><ele>16.2</ele><time>2022-11-15T13:27:19Z</time><name>PT7828</name></trkpt>
<trkpt lat="51.574496" lon="03.824516"><ele>16.1</ele><time>2022-11-15T13:27:20Z</time><name>PT7829</name></trkpt>
<trkpt lat="51.574506" lon="03.824519"><ele>16.1</ele><time>2022-11-15T13:27:21Z</time><name>PT7830</name></trkpt>
<trkpt lat="51.574515" lon="03.824521"><ele>16.2</ele><time>2022-11-15T13:27:22Z</time><name>PT7831</name></trkpt>
<trkpt lat="51.574525" lon="03.824526"><ele>16.3</ele><time>2022-11-15T13:27:22Z</time><name>PT7832</name></trkpt>
<trkpt lat="51.574534" lon="03.824533"><ele>16.6</ele><time>2022-11-15T13:27:24Z</time><name>PT7833</name></trkpt>
<trkpt lat="51.574543" lon="03.824542"><ele>16.8</ele><time>2022-11-15T13:27:24Z</time><name>PT7834</name></trkpt>
<trkpt lat="51.574551" lon="03.824548"><ele>16.7</ele><time>2022-11-15T13:27:26Z</time><name>PT7835</name></trkpt>
<trkpt lat="51.574561" lon="03.824554"><ele>16.7</ele><time>2022-11-15T13:27:26Z</time><name>PT7836</name></trkpt>
<trkpt lat="51.574569" lon="03.824558"><ele>16.6</ele><time>2022-11-15T13:27:28Z</time><name>PT7837</name></trkpt>
<trkpt lat="51.574578" lon="03.824559"><ele>16.5</ele><time>2022-11-15T13:27:28Z</time><name>PT7838</name></trkpt>
<trkpt lat="51.574586" lon="03.824563"><ele>16.5</ele><time>2022-11-15T13:27:30Z</time><name>PT7839</name></trkpt>
<trkpt lat="51.574594" lon="03.824567"><ele>16.5</ele><time>2022-11-15T13:27:30Z</time><name>PT7840</name></trkpt>
<trkpt lat="51.574603" lon="03.824572"><ele>16.5</ele><time>2022-11-15T13:27:32Z</time><name>PT7841</name></trkpt>
<trkpt lat="51.574613" lon="03.824575"><ele>16.5</ele><time>2022-11-15T13:27:32Z</time><name>PT7842</name></trkpt>
<trkpt lat="51.574624" lon="03.824579"><ele>16.5</ele><time>2022-11-15T13:27:34Z</time><name>PT7843</name></trkpt>
<trkpt lat="51.574634" lon="03.824583"><ele>16.5</ele><time>2022-11-15T13:27:34Z</time><name>PT7844</name></trkpt>
<trkpt lat="51.574645" lon="03.824586"><ele>16.6</ele><time>2022-11-15T13:27:36Z</time><name>PT7845</name></trkpt>
<trkpt lat="51.574655" lon="03.824590"><ele>16.7</ele><time>2022-11-15T13:27:36Z</time><name>PT7846</name></trkpt>
<trkpt lat="51.574663" lon="03.824596"><ele>16.7</ele><time>2022-11-15T13:27:38Z</time><name>PT7847</name></trkpt>
<trkpt lat="51.574672" lon="03.824602"><ele>16.6</ele><time>2022-11-15T13:27:38Z</time><name>PT7848</name></trkpt>
<trkpt lat="51.574681" lon="03.824606"><ele>16.7</ele><time>2022-11-15T13:27:40Z</time><name>PT7849</name></trkpt>
<trkpt lat="51.574690" lon="03.824610"><ele>16.7</ele><time>2022-11-15T13:27:40Z</time><name>PT7850</name></trkpt>
<trkpt lat="51.574699" lon="03.824614"><ele>16.8</ele><time>2022-11-15T13:27:42Z</time><name>PT7851</name></trkpt>
<trkpt lat="51.574708" lon="03.824617"><ele>16.9</ele><time>2022-11-15T13:27:42Z</time><name>PT7852</name></trkpt>
<trkpt lat="51.574716" lon="03.824620"><ele>16.9</ele><time>2022-11-15T13:27:44Z</time><name>PT7853</name></trkpt>
<trkpt lat="51.574725" lon="03.824626"><ele>16.9</ele><time>2022-11-15T13:27:44Z</time><name>PT7854</name></trkpt>
<trkpt lat="51.574733" lon="03.824631"><ele>16.7</ele><time>2022-11-15T13:27:46Z</time><name>PT7855</name></trkpt>
<trkpt lat="51.574741" lon="03.824635"><ele>16.6</ele><time>2022-11-15T13:27:46Z</time><name>PT7856</name></trkpt>
<trkpt lat="51.574748" lon="03.824638"><ele>16.5</ele><time>2022-11-15T13:27:48Z</time><name>PT7857</name></trkpt>
<trkpt lat="51.574756" lon="03.824643"><ele>16.5</ele><time>2022-11-15T13:27:48Z</time><name>PT7858</name></trkpt>
<trkpt lat="51.574764" lon="03.824649"><ele>16.6</ele><time>2022-11-15T13:27:50Z</time><name>PT7859</name></trkpt>
<trkpt lat="51.574774" lon="03.824654"><ele>16.8</ele><time>2022-11-15T13:27:50Z</time><name>PT7860</name></trkpt>
<trkpt lat="51.574785" lon="03.824657"><ele>17</ele><time>2022-11-15T13:27:52Z</time><name>PT7861</name></trkpt>
<trkpt lat="51.574796" lon="03.824660"><ele>16.9</ele><time>2022-11-15T13:27:52Z</time><name>PT7862</name></trkpt>
<trkpt lat="51.574804" lon="03.824663"><ele>16.9</ele><time>2022-11-15T13:27:54Z</time><name>PT7863</name></trkpt>
<trkpt lat="51.574813" lon="03.824669"><ele>16.6</ele><time>2022-11-15T13:27:54Z</time><name>PT7864</name></trkpt>
<trkpt lat="51.574815" lon="03.824675"><ele>16.6</ele><time>2022-11-15T13:27:56Z</time><name>PT7865</name></trkpt>
<trkpt lat="51.574820" lon="03.824678"><ele>16.6</ele><time>2022-11-15T13:27:56Z</time><name>PT7866</name></trkpt>
<trkpt lat="51.574823" lon="03.824680"><ele>16.8</ele><time>2022-11-15T13:27:58Z</time><name>PT7867</name></trkpt>
<trkpt lat="51.574826" lon="03.824686"><ele>16.8</ele><time>2022-11-15T13:27:58Z</time><name>PT7868</name></trkpt>
<trkpt lat="51.574831" lon="03.824694"><ele>16.8</ele><time>2022-11-15T13:28:00Z</time><name>PT7869</name></trkpt>
<trkpt lat="51.574836" lon="03.824699"><ele>16.8</ele><time>2022-11-15T13:28:00Z</time><name>PT7870</name></trkpt>
<trkpt lat="51.574841" lon="03.824703"><ele>16.6</ele><time>2022-11-15T13:28:02Z</time><name>PT7871</name></trkpt>
<trkpt lat="51.574845" lon="03.824706"><ele>16.5</ele><time>2022-11-15T13:28:02Z</time><name>PT7872</name></trkpt>
<trkpt lat="51.574845" lon="03.824706"><ele>16.6</ele><time>2022-11-15T13:28:04Z</time><name>PT7873</name></trkpt>
<trkpt lat="51.574845" lon="03.824705"><ele>16.5</ele><time>2022-11-15T13:28:04Z</time><name>PT7874</name></trkpt>
<trkpt lat="51.574845" lon="03.824705"><ele>16.4</ele><time>2022-11-15T13:28:06Z</time><name>PT7875</name></trkpt>
<trkpt lat="51.574845" lon="03.824701"><ele>16.2</ele><time>2022-11-15T13:29:00Z</time><name>PT7876</name></trkpt>
<trkpt lat="51.574847" lon="03.824704"><ele>16.2</ele><time>2022-11-15T13:29:02Z</time><name>PT7877</name></trkpt>
<trkpt lat="51.574846" lon="03.824706"><ele>16.3</ele><time>2022-11-15T13:29:02Z</time><name>PT7878</name></trkpt>
<trkpt lat="51.574848" lon="03.824707"><ele>16.6</ele><time>2022-11-15T13:29:04Z</time><name>PT7879</name></trkpt>
<trkpt lat="51.574849" lon="03.824710"><ele>16.8</ele><time>2022-11-15T13:29:06Z</time><name>PT7880</name></trkpt>
<trkpt lat="51.574859" lon="03.824718"><ele>16.7</ele><time>2022-11-15T13:29:06Z</time><name>PT7881</name></trkpt>
<trkpt lat="51.574870" lon="03.824719"><ele>16.6</ele><time>2022-11-15T13:29:08Z</time><name>PT7882</name></trkpt>
<trkpt lat="51.574878" lon="03.824721"><ele>16.6</ele><time>2022-11-15T13:29:08Z</time><name>PT7883</name></trkpt>
<trkpt lat="51.574889" lon="03.824722"><ele>16.9</ele><time>2022-11-15T13:29:10Z</time><name>PT7884</name></trkpt>
<trkpt lat="51.574899" lon="03.824726"><ele>16.8</ele><time>2022-11-15T13:29:10Z</time><name>PT7885</name></trkpt>
<trkpt lat="51.574907" lon="03.824728"><ele>16.7</ele><time>2022-11-15T13:29:12Z</time><name>PT7886</name></trkpt>
<trkpt lat="51.574915" lon="03.824730"><ele>16.7</ele><time>2022-11-15T13:29:12Z</time><name>PT7887</name></trkpt>
<trkpt lat="51.574923" lon="03.824732"><ele>16.9</ele><time>2022-11-15T13:29:14Z</time><name>PT7888</name></trkpt>
<trkpt lat="51.574931" lon="03.824735"><ele>16.9</ele><time>2022-11-15T13:29:14Z</time><name>PT7889</name></trkpt>
<trkpt lat="51.574938" lon="03.824740"><ele>16.9</ele><time>2022-11-15T13:29:16Z</time><name>PT7890</name></trkpt>
<trkpt lat="51.574945" lon="03.824745"><ele>17.2</ele><time>2022-11-15T13:29:16Z</time><name>PT7891</name></trkpt>
<trkpt lat="51.574953" lon="03.824752"><ele>17</ele><time>2022-11-15T13:29:18Z</time><name>PT7892</name></trkpt>
<trkpt lat="51.574962" lon="03.824758"><ele>16.7</ele><time>2022-11-15T13:29:18Z</time><name>PT7893</name></trkpt>
<trkpt lat="51.574969" lon="03.824761"><ele>16.7</ele><time>2022-11-15T13:29:20Z</time><name>PT7894</name></trkpt>
<trkpt lat="51.574976" lon="03.824763"><ele>16.6</ele><time>2022-11-15T13:29:20Z</time><name>PT7895</name></trkpt>
<trkpt lat="51.574985" lon="03.824766"><ele>16.8</ele><time>2022-11-15T13:29:22Z</time><name>PT7896</name></trkpt>
<trkpt lat="51.574995" lon="03.824771"><ele>17</ele><time>2022-11-15T13:29:22Z</time><name>PT7897</name></trkpt>
<trkpt lat="51.575005" lon="03.824776"><ele>17.1</ele><time>2022-11-15T13:29:24Z</time><name>PT7898</name></trkpt>
<trkpt lat="51.575014" lon="03.824778"><ele>17.1</ele><time>2022-11-15T13:29:24Z</time><name>PT7899</name></trkpt>
<trkpt lat="51.575022" lon="03.824781"><ele>17</ele><time>2022-11-15T13:29:26Z</time><name>PT7900</name></trkpt>
<trkpt lat="51.575033" lon="03.824787"><ele>16.9</ele><time>2022-11-15T13:29:26Z</time><name>PT7901</name></trkpt>
<trkpt lat="51.575040" lon="03.824795"><ele>16.9</ele><time>2022-11-15T13:29:28Z</time><name>PT7902</name></trkpt>
<trkpt lat="51.575048" lon="03.824803"><ele>17.1</ele><time>2022-11-15T13:29:28Z</time><name>PT7903</name></trkpt>
<trkpt lat="51.575057" lon="03.824808"><ele>17.1</ele><time>2022-11-15T13:29:30Z</time><name>PT7904</name></trkpt>
<trkpt lat="51.575067" lon="03.824809"><ele>17.1</ele><time>2022-11-15T13:29:30Z</time><name>PT7905</name></trkpt>
<trkpt lat="51.575073" lon="03.824810"><ele>17.1</ele><time>2022-11-15T13:29:32Z</time><name>PT7906</name></trkpt>
<trkpt lat="51.575076" lon="03.824813"><ele>17</ele><time>2022-11-15T13:29:32Z</time><name>PT7907</name></trkpt>
<trkpt lat="51.575077" lon="03.824816"><ele>16.8</ele><time>2022-11-15T13:29:34Z</time><name>PT7908</name></trkpt>
<trkpt lat="51.575082" lon="03.824818"><ele>16.7</ele><time>2022-11-15T13:29:34Z</time><name>PT7909</name></trkpt>
<trkpt lat="51.575089" lon="03.824819"><ele>16.8</ele><time>2022-11-15T13:29:36Z</time><name>PT7910</name></trkpt>
<trkpt lat="51.575095" lon="03.824822"><ele>16.7</ele><time>2022-11-15T13:29:36Z</time><name>PT7911</name></trkpt>
<trkpt lat="51.575097" lon="03.824822"><ele>16.7</ele><time>2022-11-15T13:29:38Z</time><name>PT7912</name></trkpt>
<trkpt lat="51.575099" lon="03.824825"><ele>16.6</ele><time>2022-11-15T13:29:38Z</time><name>PT7913</name></trkpt>
<trkpt lat="51.575105" lon="03.824827"><ele>16.8</ele><time>2022-11-15T13:29:40Z</time><name>PT7914</name></trkpt>
<trkpt lat="51.575108" lon="03.824833"><ele>16.9</ele><time>2022-11-15T13:29:40Z</time><name>PT7915</name></trkpt>
<trkpt lat="51.575112" lon="03.824836"><ele>17.2</ele><time>2022-11-15T13:29:42Z</time><name>PT7916</name></trkpt>
<trkpt lat="51.575117" lon="03.824839"><ele>17.3</ele><time>2022-11-15T13:29:42Z</time><name>PT7917</name></trkpt>
<trkpt lat="51.575121" lon="03.824844"><ele>17.6</ele><time>2022-11-15T13:29:44Z</time><name>PT7918</name></trkpt>
<trkpt lat="51.575126" lon="03.824848"><ele>17.6</ele><time>2022-11-15T13:29:44Z</time><name>PT7919</name></trkpt>
<trkpt lat="51.575130" lon="03.824851"><ele>17.9</ele><time>2022-11-15T13:29:46Z</time><name>PT7920</name></trkpt>
<trkpt lat="51.575136" lon="03.824855"><ele>18.2</ele><time>2022-11-15T13:29:46Z</time><name>PT7921</name></trkpt>
<trkpt lat="51.575143" lon="03.824861"><ele>18.3</ele><time>2022-11-15T13:29:48Z</time><name>PT7922</name></trkpt>
<trkpt lat="51.575148" lon="03.824865"><ele>18.4</ele><time>2022-11-15T13:29:48Z</time><name>PT7923</name></trkpt>
<trkpt lat="51.575153" lon="03.824869"><ele>18.6</ele><time>2022-11-15T13:29:50Z</time><name>PT7924</name></trkpt>
<trkpt lat="51.575156" lon="03.824871"><ele>18.7</ele><time>2022-11-15T13:29:50Z</time><name>PT7925</name></trkpt>
<trkpt lat="51.575159" lon="03.824872"><ele>18.8</ele><time>2022-11-15T13:29:52Z</time><name>PT7926</name></trkpt>
<trkpt lat="51.575162" lon="03.824874"><ele>19</ele><time>2022-11-15T13:29:52Z</time><name>PT7927</name></trkpt>
<trkpt lat="51.575165" lon="03.824876"><ele>19.2</ele><time>2022-11-15T13:29:54Z</time><name>PT7928</name></trkpt>
<trkpt lat="51.575169" lon="03.824885"><ele>21.8</ele><time>2022-11-15T13:30:12Z</time><name>PT7929</name></trkpt>
<trkpt lat="51.575174" lon="03.824890"><ele>22</ele><time>2022-11-15T13:30:13Z</time><name>PT7930</name></trkpt>
<trkpt lat="51.575181" lon="03.824897"><ele>22.7</ele><time>2022-11-15T13:30:17Z</time><name>PT7931</name></trkpt>
<trkpt lat="51.575187" lon="03.824903"><ele>22.7</ele><time>2022-11-15T13:30:18Z</time><name>PT7932</name></trkpt>
<trkpt lat="51.575192" lon="03.824910"><ele>22.8</ele><time>2022-11-15T13:30:20Z</time><name>PT7933</name></trkpt>
<trkpt lat="51.575201" lon="03.824917"><ele>23</ele><time>2022-11-15T13:30:22Z</time><name>PT7934</name></trkpt>
<trkpt lat="51.575211" lon="03.824919"><ele>23</ele><time>2022-11-15T13:30:22Z</time><name>PT7935</name></trkpt>
<trkpt lat="51.575218" lon="03.824926"><ele>22.9</ele><time>2022-11-15T13:30:24Z</time><name>PT7936</name></trkpt>
<trkpt lat="51.575224" lon="03.824934"><ele>23.2</ele><time>2022-11-15T13:30:24Z</time><name>PT7937</name></trkpt>
<trkpt lat="51.575233" lon="03.824943"><ele>23.2</ele><time>2022-11-15T13:30:26Z</time><name>PT7938</name></trkpt>
<trkpt lat="51.575241" lon="03.824952"><ele>23.1</ele><time>2022-11-15T13:30:26Z</time><name>PT7939</name></trkpt>
<trkpt lat="51.575250" lon="03.824960"><ele>23.3</ele><time>2022-11-15T13:30:28Z</time><name>PT7940</name></trkpt>
<trkpt lat="51.575258" lon="03.824970"><ele>23.3</ele><time>2022-11-15T13:30:28Z</time><name>PT7941</name></trkpt>
<trkpt lat="51.575266" lon="03.824980"><ele>23.1</ele><time>2022-11-15T13:30:30Z</time><name>PT7942</name></trkpt>
<trkpt lat="51.575274" lon="03.824986"><ele>22.9</ele><time>2022-11-15T13:30:30Z</time><name>PT7943</name></trkpt>
<trkpt lat="51.575282" lon="03.824991"><ele>22.7</ele><time>2022-11-15T13:30:32Z</time><name>PT7944</name></trkpt>
<trkpt lat="51.575289" lon="03.824994"><ele>22.7</ele><time>2022-11-15T13:30:32Z</time><name>PT7945</name></trkpt>
<trkpt lat="51.575297" lon="03.824999"><ele>22.5</ele><time>2022-11-15T13:30:34Z</time><name>PT7946</name></trkpt>
<trkpt lat="51.575303" lon="03.825009"><ele>22.3</ele><time>2022-11-15T13:30:34Z</time><name>PT7947</name></trkpt>
<trkpt lat="51.575309" lon="03.825018"><ele>22.4</ele><time>2022-11-15T13:30:36Z</time><name>PT7948</name></trkpt>
<trkpt lat="51.575315" lon="03.825023"><ele>22.5</ele><time>2022-11-15T13:30:36Z</time><name>PT7949</name></trkpt>
<trkpt lat="51.575319" lon="03.825028"><ele>22.5</ele><time>2022-11-15T13:30:38Z</time><name>PT7950</name></trkpt>
<trkpt lat="51.575322" lon="03.825034"><ele>22.7</ele><time>2022-11-15T13:30:38Z</time><name>PT7951</name></trkpt>
<trkpt lat="51.575327" lon="03.825039"><ele>23</ele><time>2022-11-15T13:30:40Z</time><name>PT7952</name></trkpt>
<trkpt lat="51.575334" lon="03.825041"><ele>23.1</ele><time>2022-11-15T13:30:40Z</time><name>PT7953</name></trkpt>
<trkpt lat="51.575340" lon="03.825044"><ele>23.1</ele><time>2022-11-15T13:30:42Z</time><name>PT7954</name></trkpt>
<trkpt lat="51.575345" lon="03.825050"><ele>22.9</ele><time>2022-11-15T13:30:42Z</time><name>PT7955</name></trkpt>
<trkpt lat="51.575350" lon="03.825055"><ele>22.7</ele><time>2022-11-15T13:30:44Z</time><name>PT7956</name></trkpt>
<trkpt lat="51.575356" lon="03.825061"><ele>22.6</ele><time>2022-11-15T13:30:44Z</time><name>PT7957</name></trkpt>
<trkpt lat="51.575361" lon="03.825065"><ele>22.3</ele><time>2022-11-15T13:30:46Z</time><name>PT7958</name></trkpt>
<trkpt lat="51.575366" lon="03.825069"><ele>22.3</ele><time>2022-11-15T13:30:46Z</time><name>PT7959</name></trkpt>
<trkpt lat="51.575372" lon="03.825074"><ele>22.3</ele><time>2022-11-15T13:30:48Z</time><name>PT7960</name></trkpt>
<trkpt lat="51.575378" lon="03.825079"><ele>22.2</ele><time>2022-11-15T13:30:48Z</time><name>PT7961</name></trkpt>
<trkpt lat="51.575385" lon="03.825084"><ele>22</ele><time>2022-11-15T13:30:50Z</time><name>PT7962</name></trkpt>
<trkpt lat="51.575393" lon="03.825087"><ele>21.8</ele><time>2022-11-15T13:30:50Z</time><name>PT7963</name></trkpt>
<trkpt lat="51.575397" lon="03.825091"><ele>21.6</ele><time>2022-11-15T13:30:52Z</time><name>PT7964</name></trkpt>
<trkpt lat="51.575401" lon="03.825095"><ele>21.4</ele><time>2022-11-15T13:30:52Z</time><name>PT7965</name></trkpt>
<trkpt lat="51.575407" lon="03.825099"><ele>21.3</ele><time>2022-11-15T13:30:54Z</time><name>PT7966</name></trkpt>
<trkpt lat="51.575413" lon="03.825102"><ele>21.2</ele><time>2022-11-15T13:30:54Z</time><name>PT7967</name></trkpt>
<trkpt lat="51.575419" lon="03.825105"><ele>21.3</ele><time>2022-11-15T13:30:56Z</time><name>PT7968</name></trkpt>
<trkpt lat="51.575426" lon="03.825109"><ele>21.2</ele><time>2022-11-15T13:30:56Z</time><name>PT7969</name></trkpt>
<trkpt lat="51.575432" lon="03.825115"><ele>21</ele><time>2022-11-15T13:30:58Z</time><name>PT7970</name></trkpt>
<trkpt lat="51.575438" lon="03.825121"><ele>21</ele><time>2022-11-15T13:30:58Z</time><name>PT7971</name></trkpt>
<trkpt lat="51.575444" lon="03.825125"><ele>20.7</ele><time>2022-11-15T13:31:00Z</time><name>PT7972</name></trkpt>
<trkpt lat="51.575452" lon="03.825129"><ele>20.6</ele><time>2022-11-15T13:31:00Z</time><name>PT7973</name></trkpt>
<trkpt lat="51.575458" lon="03.825130"><ele>20.5</ele><time>2022-11-15T13:31:02Z</time><name>PT7974</name></trkpt>
<trkpt lat="51.575464" lon="03.825132"><ele>20.4</ele><time>2022-11-15T13:31:02Z</time><name>PT7975</name></trkpt>
<trkpt lat="51.575470" lon="03.825134"><ele>20.4</ele><time>2022-11-15T13:31:04Z</time><name>PT7976</name></trkpt>
<trkpt lat="51.575475" lon="03.825139"><ele>20.4</ele><time>2022-11-15T13:31:04Z</time><name>PT7977</name></trkpt>
<trkpt lat="51.575479" lon="03.825144"><ele>20.5</ele><time>2022-11-15T13:31:06Z</time><name>PT7978</name></trkpt>
<trkpt lat="51.575483" lon="03.825150"><ele>20.4</ele><time>2022-11-15T13:31:06Z</time><name>PT7979</name></trkpt>
<trkpt lat="51.575487" lon="03.825155"><ele>20.4</ele><time>2022-11-15T13:31:08Z</time><name>PT7980</name></trkpt>
<trkpt lat="51.575491" lon="03.825163"><ele>20.3</ele><time>2022-11-15T13:31:09Z</time><name>PT7981</name></trkpt>
<trkpt lat="51.575497" lon="03.825170"><ele>20.3</ele><time>2022-11-15T13:31:10Z</time><name>PT7982</name></trkpt>
<trkpt lat="51.575501" lon="03.825179"><ele>20.2</ele><time>2022-11-15T13:31:10Z</time><name>PT7983</name></trkpt>
<trkpt lat="51.575504" lon="03.825187"><ele>20.2</ele><time>2022-11-15T13:31:12Z</time><name>PT7984</name></trkpt>
<trkpt lat="51.575505" lon="03.825194"><ele>20.3</ele><time>2022-11-15T13:31:13Z</time><name>PT7985</name></trkpt>
<trkpt lat="51.575506" lon="03.825206"><ele>20.3</ele><time>2022-11-15T13:31:14Z</time><name>PT7986</name></trkpt>
<trkpt lat="51.575506" lon="03.825219"><ele>20.3</ele><time>2022-11-15T13:31:15Z</time><name>PT7987</name></trkpt>
<trkpt lat="51.575505" lon="03.825230"><ele>20.5</ele><time>2022-11-15T13:31:16Z</time><name>PT7988</name></trkpt>
<trkpt lat="51.575501" lon="03.825241"><ele>20.5</ele><time>2022-11-15T13:31:16Z</time><name>PT7989</name></trkpt>
<trkpt lat="51.575500" lon="03.825251"><ele>20.4</ele><time>2022-11-15T13:31:18Z</time><name>PT7990</name></trkpt>
<trkpt lat="51.575493" lon="03.825261"><ele>20.5</ele><time>2022-11-15T13:31:18Z</time><name>PT7991</name></trkpt>
<trkpt lat="51.575489" lon="03.825275"><ele>20.7</ele><time>2022-11-15T13:31:20Z</time><name>PT7992</name></trkpt>
<trkpt lat="51.575485" lon="03.825286"><ele>20.7</ele><time>2022-11-15T13:31:20Z</time><name>PT7993</name></trkpt>
<trkpt lat="51.575481" lon="03.825297"><ele>20.9</ele><time>2022-11-15T13:31:22Z</time><name>PT7994</name></trkpt>
<trkpt lat="51.575477" lon="03.825306"><ele>21.1</ele><time>2022-11-15T13:31:22Z</time><name>PT7995</name></trkpt>
<trkpt lat="51.575474" lon="03.825315"><ele>21.3</ele><time>2022-11-15T13:31:24Z</time><name>PT7996</name></trkpt>
<trkpt lat="51.575470" lon="03.825324"><ele>21</ele><time>2022-11-15T13:31:24Z</time><name>PT7997</name></trkpt>
<trkpt lat="51.575466" lon="03.825333"><ele>20.8</ele><time>2022-11-15T13:31:26Z</time><name>PT7998</name></trkpt>
<trkpt lat="51.575463" lon="03.825346"><ele>20.7</ele><time>2022-11-15T13:31:26Z</time><name>PT7999</name></trkpt>
<trkpt lat="51.575460" lon="03.825358"><ele>20.5</ele><time>2022-11-15T13:31:28Z</time><name>PT8000</name></trkpt>
<trkpt lat="51.575457" lon="03.825369"><ele>20.4</ele><time>2022-11-15T13:31:28Z</time><name>PT8001</name></trkpt>
<trkpt lat="51.575455" lon="03.825379"><ele>20.4</ele><time>2022-11-15T13:31:30Z</time><name>PT8002</name></trkpt>
<trkpt lat="51.575451" lon="03.825393"><ele>20.4</ele><time>2022-11-15T13:31:30Z</time><name>PT8003</name></trkpt>
<trkpt lat="51.575449" lon="03.825404"><ele>20.6</ele><time>2022-11-15T13:31:32Z</time><name>PT8004</name></trkpt>
<trkpt lat="51.575446" lon="03.825416"><ele>20.8</ele><time>2022-11-15T13:31:32Z</time><name>PT8005</name></trkpt>
<trkpt lat="51.575443" lon="03.825426"><ele>20.7</ele><time>2022-11-15T13:31:34Z</time><name>PT8006</name></trkpt>
<trkpt lat="51.575439" lon="03.825434"><ele>20.7</ele><time>2022-11-15T13:31:34Z</time><name>PT8007</name></trkpt>
<trkpt lat="51.575436" lon="03.825446"><ele>20.7</ele><time>2022-11-15T13:31:36Z</time><name>PT8008</name></trkpt>
<trkpt lat="51.575432" lon="03.825460"><ele>20.7</ele><time>2022-11-15T13:31:36Z</time><name>PT8009</name></trkpt>
<trkpt lat="51.575430" lon="03.825475"><ele>20.5</ele><time>2022-11-15T13:31:38Z</time><name>PT8010</name></trkpt>
<trkpt lat="51.575427" lon="03.825484"><ele>20.6</ele><time>2022-11-15T13:31:38Z</time><name>PT8011</name></trkpt>
<trkpt lat="51.575423" lon="03.825495"><ele>20.7</ele><time>2022-11-15T13:31:40Z</time><name>PT8012</name></trkpt>
<trkpt lat="51.575418" lon="03.825509"><ele>20.7</ele><time>2022-11-15T13:31:40Z</time><name>PT8013</name></trkpt>
<trkpt lat="51.575414" lon="03.825522"><ele>20.7</ele><time>2022-11-15T13:31:42Z</time><name>PT8014</name></trkpt>
<trkpt lat="51.575410" lon="03.825534"><ele>20.8</ele><time>2022-11-15T13:31:42Z</time><name>PT8015</name></trkpt>
<trkpt lat="51.575408" lon="03.825544"><ele>20.9</ele><time>2022-11-15T13:31:44Z</time><name>PT8016</name></trkpt>
<trkpt lat="51.575404" lon="03.825555"><ele>20.8</ele><time>2022-11-15T13:31:44Z</time><name>PT8017</name></trkpt>
<trkpt lat="51.575400" lon="03.825565"><ele>20.7</ele><time>2022-11-15T13:31:46Z</time><name>PT8018</name></trkpt>
<trkpt lat="51.575395" lon="03.825579"><ele>20.7</ele><time>2022-11-15T13:31:46Z</time><name>PT8019</name></trkpt>
<trkpt lat="51.575393" lon="03.825596"><ele>20.6</ele><time>2022-11-15T13:31:48Z</time><name>PT8020</name></trkpt>
<trkpt lat="51.575392" lon="03.825614"><ele>20.5</ele><time>2022-11-15T13:31:48Z</time><name>PT8021</name></trkpt>
<trkpt lat="51.575387" lon="03.825624"><ele>20.4</ele><time>2022-11-15T13:31:50Z</time><name>PT8022</name></trkpt>
<trkpt lat="51.575384" lon="03.825637"><ele>20.3</ele><time>2022-11-15T13:31:50Z</time><name>PT8023</name></trkpt>
<trkpt lat="51.575382" lon="03.825647"><ele>20.3</ele><time>2022-11-15T13:31:52Z</time><name>PT8024</name></trkpt>
<trkpt lat="51.575381" lon="03.825659"><ele>20.4</ele><time>2022-11-15T13:31:52Z</time><name>PT8025</name></trkpt>
<trkpt lat="51.575380" lon="03.825669"><ele>20.2</ele><time>2022-11-15T13:31:54Z</time><name>PT8026</name></trkpt>
<trkpt lat="51.575379" lon="03.825683"><ele>20.1</ele><time>2022-11-15T13:31:54Z</time><name>PT8027</name></trkpt>
<trkpt lat="51.575377" lon="03.825694"><ele>20.1</ele><time>2022-11-15T13:31:56Z</time><name>PT8028</name></trkpt>
<trkpt lat="51.575375" lon="03.825708"><ele>20.1</ele><time>2022-11-15T13:31:56Z</time><name>PT8029</name></trkpt>
<trkpt lat="51.575372" lon="03.825720"><ele>19.8</ele><time>2022-11-15T13:31:58Z</time><name>PT8030</name></trkpt>
<trkpt lat="51.575370" lon="03.825733"><ele>19.9</ele><time>2022-11-15T13:31:58Z</time><name>PT8031</name></trkpt>
<trkpt lat="51.575369" lon="03.825748"><ele>19.8</ele><time>2022-11-15T13:32:00Z</time><name>PT8032</name></trkpt>
<trkpt lat="51.575368" lon="03.825760"><ele>20</ele><time>2022-11-15T13:32:00Z</time><name>PT8033</name></trkpt>
<trkpt lat="51.575366" lon="03.825771"><ele>19.8</ele><time>2022-11-15T13:32:02Z</time><name>PT8034</name></trkpt>
<trkpt lat="51.575363" lon="03.825782"><ele>19.8</ele><time>2022-11-15T13:32:02Z</time><name>PT8035</name></trkpt>
<trkpt lat="51.575359" lon="03.825794"><ele>19.7</ele><time>2022-11-15T13:32:04Z</time><name>PT8036</name></trkpt>
<trkpt lat="51.575357" lon="03.825807"><ele>19.7</ele><time>2022-11-15T13:32:04Z</time><name>PT8037</name></trkpt>
<trkpt lat="51.575355" lon="03.825824"><ele>19.5</ele><time>2022-11-15T13:32:06Z</time><name>PT8038</name></trkpt>
<trkpt lat="51.575352" lon="03.825833"><ele>19.4</ele><time>2022-11-15T13:32:06Z</time><name>PT8039</name></trkpt>
<trkpt lat="51.575350" lon="03.825845"><ele>19.4</ele><time>2022-11-15T13:32:08Z</time><name>PT8040</name></trkpt>
<trkpt lat="51.575346" lon="03.825857"><ele>19.4</ele><time>2022-11-15T13:32:08Z</time><name>PT8041</name></trkpt>
<trkpt lat="51.575346" lon="03.825871"><ele>19.4</ele><time>2022-11-15T13:32:10Z</time><name>PT8042</name></trkpt>
<trkpt lat="51.575345" lon="03.825885"><ele>19.4</ele><time>2022-11-15T13:32:10Z</time><name>PT8043</name></trkpt>
<trkpt lat="51.575343" lon="03.825901"><ele>19.4</ele><time>2022-11-15T13:32:12Z</time><name>PT8044</name></trkpt>
<trkpt lat="51.575340" lon="03.825915"><ele>19.4</ele><time>2022-11-15T13:32:12Z</time><name>PT8045</name></trkpt>
<trkpt lat="51.575337" lon="03.825928"><ele>19.4</ele><time>2022-11-15T13:32:14Z</time><name>PT8046</name></trkpt>
<trkpt lat="51.575334" lon="03.825939"><ele>19.4</ele><time>2022-11-15T13:32:14Z</time><name>PT8047</name></trkpt>
<trkpt lat="51.575333" lon="03.825949"><ele>19.4</ele><time>2022-11-15T13:32:16Z</time><name>PT8048</name></trkpt>
<trkpt lat="51.575332" lon="03.825963"><ele>19.4</ele><time>2022-11-15T13:32:16Z</time><name>PT8049</name></trkpt>
<trkpt lat="51.575330" lon="03.825970"><ele>19.2</ele><time>2022-11-15T13:32:18Z</time><name>PT8050</name></trkpt>
<trkpt lat="51.575332" lon="03.825980"><ele>19.3</ele><time>2022-11-15T13:32:20Z</time><name>PT8051</name></trkpt>
<trkpt lat="51.575331" lon="03.825988"><ele>19.2</ele><time>2022-11-15T13:32:20Z</time><name>PT8052</name></trkpt>
<trkpt lat="51.575329" lon="03.825997"><ele>19.2</ele><time>2022-11-15T13:32:22Z</time><name>PT8053</name></trkpt>
<trkpt lat="51.575330" lon="03.826003"><ele>19.2</ele><time>2022-11-15T13:32:22Z</time><name>PT8054</name></trkpt>
<trkpt lat="51.575328" lon="03.826015"><ele>18.9</ele><time>2022-11-15T13:32:24Z</time><name>PT8055</name></trkpt>
<trkpt lat="51.575324" lon="03.826027"><ele>19.1</ele><time>2022-11-15T13:32:26Z</time><name>PT8056</name></trkpt>
<trkpt lat="51.575324" lon="03.826040"><ele>18.9</ele><time>2022-11-15T13:32:26Z</time><name>PT8057</name></trkpt>
<trkpt lat="51.575321" lon="03.826053"><ele>18.7</ele><time>2022-11-15T13:32:28Z</time><name>PT8058</name></trkpt>
<trkpt lat="51.575317" lon="03.826065"><ele>18.5</ele><time>2022-11-15T13:32:28Z</time><name>PT8059</name></trkpt>
<trkpt lat="51.575316" lon="03.826076"><ele>18.6</ele><time>2022-11-15T13:32:30Z</time><name>PT8060</name></trkpt>
<trkpt lat="51.575314" lon="03.826082"><ele>18.4</ele><time>2022-11-15T13:32:30Z</time><name>PT8061</name></trkpt>
<trkpt lat="51.575314" lon="03.826088"><ele>18.4</ele><time>2022-11-15T13:32:32Z</time><name>PT8062</name></trkpt>
<trkpt lat="51.575313" lon="03.826093"><ele>18.4</ele><time>2022-11-15T13:32:32Z</time><name>PT8063</name></trkpt>
<trkpt lat="51.575312" lon="03.826095"><ele>18.4</ele><time>2022-11-15T13:32:34Z</time><name>PT8064</name></trkpt>
<trkpt lat="51.575312" lon="03.826095"><ele>18.5</ele><time>2022-11-15T13:32:34Z</time><name>PT8065</name></trkpt>
<trkpt lat="51.575312" lon="03.826101"><ele>18.8</ele><time>2022-11-15T13:32:38Z</time><name>PT8066</name></trkpt>
<trkpt lat="51.575308" lon="03.826112"><ele>18.5</ele><time>2022-11-15T13:32:40Z</time><name>PT8067</name></trkpt>
<trkpt lat="51.575305" lon="03.826122"><ele>18.5</ele><time>2022-11-15T13:32:40Z</time><name>PT8068</name></trkpt>
<trkpt lat="51.575305" lon="03.826127"><ele>18.2</ele><time>2022-11-15T13:32:42Z</time><name>PT8069</name></trkpt>
<trkpt lat="51.575305" lon="03.826129"><ele>18.2</ele><time>2022-11-15T13:32:42Z</time><name>PT8070</name></trkpt>
<trkpt lat="51.575304" lon="03.826131"><ele>18.3</ele><time>2022-11-15T13:32:44Z</time><name>PT8071</name></trkpt>
<trkpt lat="51.575305" lon="03.826134"><ele>18.4</ele><time>2022-11-15T13:32:46Z</time><name>PT8072</name></trkpt>
<trkpt lat="51.575304" lon="03.826147"><ele>18.3</ele><time>2022-11-15T13:32:46Z</time><name>PT8073</name></trkpt>
<trkpt lat="51.575300" lon="03.826156"><ele>18.2</ele><time>2022-11-15T13:32:48Z</time><name>PT8074</name></trkpt>
<trkpt lat="51.575296" lon="03.826164"><ele>18.2</ele><time>2022-11-15T13:32:48Z</time><name>PT8075</name></trkpt>
<trkpt lat="51.575292" lon="03.826174"><ele>18.2</ele><time>2022-11-15T13:32:50Z</time><name>PT8076</name></trkpt>
<trkpt lat="51.575289" lon="03.826185"><ele>18.1</ele><time>2022-11-15T13:32:50Z</time><name>PT8077</name></trkpt>
<trkpt lat="51.575285" lon="03.826194"><ele>18.2</ele><time>2022-11-15T13:32:52Z</time><name>PT8078</name></trkpt>
<trkpt lat="51.575281" lon="03.826204"><ele>18.3</ele><time>2022-11-15T13:32:52Z</time><name>PT8079</name></trkpt>
<trkpt lat="51.575279" lon="03.826211"><ele>18.2</ele><time>2022-11-15T13:32:54Z</time><name>PT8080</name></trkpt>
<trkpt lat="51.575277" lon="03.826218"><ele>18.2</ele><time>2022-11-15T13:32:54Z</time><name>PT8081</name></trkpt>
<trkpt lat="51.575274" lon="03.826225"><ele>18.2</ele><time>2022-11-15T13:32:56Z</time><name>PT8082</name></trkpt>
<trkpt lat="51.575272" lon="03.826232"><ele>18.2</ele><time>2022-11-15T13:32:56Z</time><name>PT8083</name></trkpt>
<trkpt lat="51.575272" lon="03.826241"><ele>18.2</ele><time>2022-11-15T13:32:58Z</time><name>PT8084</name></trkpt>
<trkpt lat="51.575275" lon="03.826250"><ele>18.2</ele><time>2022-11-15T13:32:58Z</time><name>PT8085</name></trkpt>
<trkpt lat="51.575275" lon="03.826258"><ele>18.2</ele><time>2022-11-15T13:33:00Z</time><name>PT8086</name></trkpt>
<trkpt lat="51.575275" lon="03.826267"><ele>18.2</ele><time>2022-11-15T13:33:00Z</time><name>PT8087</name></trkpt>
<trkpt lat="51.575275" lon="03.826274"><ele>18</ele><time>2022-11-15T13:33:02Z</time><name>PT8088</name></trkpt>
<trkpt lat="51.575275" lon="03.826284"><ele>18.1</ele><time>2022-11-15T13:33:02Z</time><name>PT8089</name></trkpt>
<trkpt lat="51.575278" lon="03.826290"><ele>18</ele><time>2022-11-15T13:33:04Z</time><name>PT8090</name></trkpt>
<trkpt lat="51.575281" lon="03.826293"><ele>17.9</ele><time>2022-11-15T13:33:04Z</time><name>PT8091</name></trkpt>
<trkpt lat="51.575283" lon="03.826291"><ele>17.8</ele><time>2022-11-15T13:33:06Z</time><name>PT8092</name></trkpt>
<trkpt lat="51.575283" lon="03.826289"><ele>18</ele><time>2022-11-15T13:33:06Z</time><name>PT8093</name></trkpt>
<trkpt lat="51.575281" lon="03.826293"><ele>17.8</ele><time>2022-11-15T13:33:08Z</time><name>PT8094</name></trkpt>
<trkpt lat="51.575281" lon="03.826299"><ele>18</ele><time>2022-11-15T13:33:09Z</time><name>PT8095</name></trkpt>
<trkpt lat="51.575280" lon="03.826305"><ele>18</ele><time>2022-11-15T13:33:10Z</time><name>PT8096</name></trkpt>
<trkpt lat="51.575282" lon="03.826313"><ele>18.1</ele><time>2022-11-15T13:33:10Z</time><name>PT8097</name></trkpt>
<trkpt lat="51.575287" lon="03.826321"><ele>18.3</ele><time>2022-11-15T13:33:12Z</time><name>PT8098</name></trkpt>
<trkpt lat="51.575293" lon="03.826331"><ele>18.4</ele><time>2022-11-15T13:33:13Z</time><name>PT8099</name></trkpt>
<trkpt lat="51.575298" lon="03.826340"><ele>18.4</ele><time>2022-11-15T13:33:14Z</time><name>PT8100</name></trkpt>
<trkpt lat="51.575304" lon="03.826348"><ele>18.3</ele><time>2022-11-15T13:33:14Z</time><name>PT8101</name></trkpt>
<trkpt lat="51.575312" lon="03.826356"><ele>18.2</ele><time>2022-11-15T13:33:16Z</time><name>PT8102</name></trkpt>
<trkpt lat="51.575318" lon="03.826363"><ele>18.1</ele><time>2022-11-15T13:33:16Z</time><name>PT8103</name></trkpt>
<trkpt lat="51.575325" lon="03.826370"><ele>18</ele><time>2022-11-15T13:33:18Z</time><name>PT8104</name></trkpt>
<trkpt lat="51.575330" lon="03.826383"><ele>17.9</ele><time>2022-11-15T13:33:18Z</time><name>PT8105</name></trkpt>
<trkpt lat="51.575336" lon="03.826395"><ele>18.1</ele><time>2022-11-15T13:33:20Z</time><name>PT8106</name></trkpt>
<trkpt lat="51.575343" lon="03.826402"><ele>17.9</ele><time>2022-11-15T13:33:20Z</time><name>PT8107</name></trkpt>
<trkpt lat="51.575347" lon="03.826409"><ele>17.7</ele><time>2022-11-15T13:33:22Z</time><name>PT8108</name></trkpt>
<trkpt lat="51.575351" lon="03.826419"><ele>17.5</ele><time>2022-11-15T13:33:22Z</time><name>PT8109</name></trkpt>
<trkpt lat="51.575359" lon="03.826430"><ele>17.2</ele><time>2022-11-15T13:33:24Z</time><name>PT8110</name></trkpt>
<trkpt lat="51.575368" lon="03.826436"><ele>17</ele><time>2022-11-15T13:33:24Z</time><name>PT8111</name></trkpt>
<trkpt lat="51.575374" lon="03.826440"><ele>16.8</ele><time>2022-11-15T13:33:26Z</time><name>PT8112</name></trkpt>
<trkpt lat="51.575379" lon="03.826443"><ele>16.8</ele><time>2022-11-15T13:33:26Z</time><name>PT8113</name></trkpt>
<trkpt lat="51.575386" lon="03.826452"><ele>16.9</ele><time>2022-11-15T13:33:28Z</time><name>PT8114</name></trkpt>
<trkpt lat="51.575395" lon="03.826461"><ele>16.9</ele><time>2022-11-15T13:33:28Z</time><name>PT8115</name></trkpt>
<trkpt lat="51.575402" lon="03.826464"><ele>17.1</ele><time>2022-11-15T13:33:30Z</time><name>PT8116</name></trkpt>
<trkpt lat="51.575407" lon="03.826470"><ele>17.3</ele><time>2022-11-15T13:33:30Z</time><name>PT8117</name></trkpt>
<trkpt lat="51.575411" lon="03.826481"><ele>17.6</ele><time>2022-11-15T13:33:32Z</time><name>PT8118</name></trkpt>
<trkpt lat="51.575420" lon="03.826493"><ele>17.6</ele><time>2022-11-15T13:33:32Z</time><name>PT8119</name></trkpt>
<trkpt lat="51.575431" lon="03.826504"><ele>17.7</ele><time>2022-11-15T13:33:34Z</time><name>PT8120</name></trkpt>
<trkpt lat="51.575440" lon="03.826509"><ele>17.6</ele><time>2022-11-15T13:33:34Z</time><name>PT8121</name></trkpt>
<trkpt lat="51.575445" lon="03.826513"><ele>17.3</ele><time>2022-11-15T13:33:36Z</time><name>PT8122</name></trkpt>
<trkpt lat="51.575451" lon="03.826519"><ele>17.2</ele><time>2022-11-15T13:33:36Z</time><name>PT8123</name></trkpt>
<trkpt lat="51.575461" lon="03.826531"><ele>17.2</ele><time>2022-11-15T13:33:38Z</time><name>PT8124</name></trkpt>
<trkpt lat="51.575475" lon="03.826543"><ele>17.2</ele><time>2022-11-15T13:33:39Z</time><name>PT8125</name></trkpt>
<trkpt lat="51.575486" lon="03.826553"><ele>17.2</ele><time>2022-11-15T13:33:40Z</time><name>PT8126</name></trkpt>
<trkpt lat="51.575496" lon="03.826559"><ele>17.4</ele><time>2022-11-15T13:33:41Z</time><name>PT8127</name></trkpt>
<trkpt lat="51.575502" lon="03.826568"><ele>17.3</ele><time>2022-11-15T13:33:42Z</time><name>PT8128</name></trkpt>
<trkpt lat="51.575509" lon="03.826572"><ele>17.3</ele><time>2022-11-15T13:33:42Z</time><name>PT8129</name></trkpt>
<trkpt lat="51.575517" lon="03.826580"><ele>16.9</ele><time>2022-11-15T13:33:44Z</time><name>PT8130</name></trkpt>
<trkpt lat="51.575528" lon="03.826594"><ele>16.6</ele><time>2022-11-15T13:33:44Z</time><name>PT8131</name></trkpt>
<trkpt lat="51.575540" lon="03.826606"><ele>16.6</ele><time>2022-11-15T13:33:46Z</time><name>PT8132</name></trkpt>
<trkpt lat="51.575557" lon="03.826619"><ele>16.3</ele><time>2022-11-15T13:33:46Z</time><name>PT8133</name></trkpt>
<trkpt lat="51.575570" lon="03.826628"><ele>16.4</ele><time>2022-11-15T13:33:48Z</time><name>PT8134</name></trkpt>
<trkpt lat="51.575576" lon="03.826633"><ele>16.5</ele><time>2022-11-15T13:33:48Z</time><name>PT8135</name></trkpt>
<trkpt lat="51.575580" lon="03.826638"><ele>16.6</ele><time>2022-11-15T13:33:50Z</time><name>PT8136</name></trkpt>
<trkpt lat="51.575583" lon="03.826642"><ele>16.6</ele><time>2022-11-15T13:33:50Z</time><name>PT8137</name></trkpt>
<trkpt lat="51.575590" lon="03.826648"><ele>16.8</ele><time>2022-11-15T13:33:52Z</time><name>PT8138</name></trkpt>
<trkpt lat="51.575596" lon="03.826660"><ele>16.7</ele><time>2022-11-15T13:33:52Z</time><name>PT8139</name></trkpt>
<trkpt lat="51.575606" lon="03.826675"><ele>16.6</ele><time>2022-11-15T13:33:54Z</time><name>PT8140</name></trkpt>
<trkpt lat="51.575619" lon="03.826689"><ele>16.5</ele><time>2022-11-15T13:33:54Z</time><name>PT8141</name></trkpt>
<trkpt lat="51.575633" lon="03.826701"><ele>16.3</ele><time>2022-11-15T13:33:56Z</time><name>PT8142</name></trkpt>
<trkpt lat="51.575650" lon="03.826713"><ele>16.4</ele><time>2022-11-15T13:33:56Z</time><name>PT8143</name></trkpt>
<trkpt lat="51.575663" lon="03.826725"><ele>16.6</ele><time>2022-11-15T13:33:58Z</time><name>PT8144</name></trkpt>
<trkpt lat="51.575671" lon="03.826733"><ele>16.5</ele><time>2022-11-15T13:33:58Z</time><name>PT8145</name></trkpt>
<trkpt lat="51.575677" lon="03.826739"><ele>16.6</ele><time>2022-11-15T13:34:00Z</time><name>PT8146</name></trkpt>
<trkpt lat="51.575683" lon="03.826745"><ele>16.6</ele><time>2022-11-15T13:34:00Z</time><name>PT8147</name></trkpt>
<trkpt lat="51.575687" lon="03.826751"><ele>16.5</ele><time>2022-11-15T13:34:02Z</time><name>PT8148</name></trkpt>
<trkpt lat="51.575692" lon="03.826758"><ele>16.4</ele><time>2022-11-15T13:34:02Z</time><name>PT8149</name></trkpt>
<trkpt lat="51.575699" lon="03.826767"><ele>16.5</ele><time>2022-11-15T13:34:04Z</time><name>PT8150</name></trkpt>
<trkpt lat="51.575708" lon="03.826777"><ele>16.6</ele><time>2022-11-15T13:34:04Z</time><name>PT8151</name></trkpt>
<trkpt lat="51.575722" lon="03.826791"><ele>16.6</ele><time>2022-11-15T13:34:06Z</time><name>PT8152</name></trkpt>
<trkpt lat="51.575737" lon="03.826806"><ele>16.5</ele><time>2022-11-15T13:34:06Z</time><name>PT8153</name></trkpt>
<trkpt lat="51.575753" lon="03.826819"><ele>16.6</ele><time>2022-11-15T13:34:08Z</time><name>PT8154</name></trkpt>
<trkpt lat="51.575766" lon="03.826830"><ele>16.6</ele><time>2022-11-15T13:34:08Z</time><name>PT8155</name></trkpt>
<trkpt lat="51.575775" lon="03.826839"><ele>16.6</ele><time>2022-11-15T13:34:10Z</time><name>PT8156</name></trkpt>
<trkpt lat="51.575783" lon="03.826847"><ele>16.5</ele><time>2022-11-15T13:34:10Z</time><name>PT8157</name></trkpt>
<trkpt lat="51.575790" lon="03.826852"><ele>16.4</ele><time>2022-11-15T13:34:12Z</time><name>PT8158</name></trkpt>
<trkpt lat="51.575797" lon="03.826855"><ele>16.2</ele><time>2022-11-15T13:34:12Z</time><name>PT8159</name></trkpt>
<trkpt lat="51.575805" lon="03.826862"><ele>16.1</ele><time>2022-11-15T13:34:14Z</time><name>PT8160</name></trkpt>
<trkpt lat="51.575812" lon="03.826869"><ele>16.1</ele><time>2022-11-15T13:34:14Z</time><name>PT8161</name></trkpt>
<trkpt lat="51.575818" lon="03.826876"><ele>16.1</ele><time>2022-11-15T13:34:16Z</time><name>PT8162</name></trkpt>
<trkpt lat="51.575825" lon="03.826888"><ele>16.2</ele><time>2022-11-15T13:34:16Z</time><name>PT8163</name></trkpt>
<trkpt lat="51.575834" lon="03.826903"><ele>16.4</ele><time>2022-11-15T13:34:18Z</time><name>PT8164</name></trkpt>
<trkpt lat="51.575845" lon="03.826916"><ele>16.4</ele><time>2022-11-15T13:34:18Z</time><name>PT8165</name></trkpt>
<trkpt lat="51.575858" lon="03.826928"><ele>16.5</ele><time>2022-11-15T13:34:20Z</time><name>PT8166</name></trkpt>
<trkpt lat="51.575872" lon="03.826939"><ele>16.6</ele><time>2022-11-15T13:34:20Z</time><name>PT8167</name></trkpt>
<trkpt lat="51.575884" lon="03.826948"><ele>16.5</ele><time>2022-11-15T13:34:22Z</time><name>PT8168</name></trkpt>
<trkpt lat="51.575892" lon="03.826957"><ele>16.6</ele><time>2022-11-15T13:34:22Z</time><name>PT8169</name></trkpt>
<trkpt lat="51.575898" lon="03.826963"><ele>16.6</ele><time>2022-11-15T13:34:24Z</time><name>PT8170</name></trkpt>
<trkpt lat="51.575903" lon="03.826968"><ele>16.6</ele><time>2022-11-15T13:34:24Z</time><name>PT8171</name></trkpt>
<trkpt lat="51.575909" lon="03.826974"><ele>16.6</ele><time>2022-11-15T13:34:26Z</time><name>PT8172</name></trkpt>
<trkpt lat="51.575915" lon="03.826979"><ele>16.8</ele><time>2022-11-15T13:34:26Z</time><name>PT8173</name></trkpt>
<trkpt lat="51.575922" lon="03.826988"><ele>16.7</ele><time>2022-11-15T13:34:28Z</time><name>PT8174</name></trkpt>
<trkpt lat="51.575930" lon="03.826996"><ele>16.7</ele><time>2022-11-15T13:34:28Z</time><name>PT8175</name></trkpt>
<trkpt lat="51.575947" lon="03.827012"><ele>16.6</ele><time>2022-11-15T13:34:30Z</time><name>PT8176</name></trkpt>
<trkpt lat="51.575957" lon="03.827023"><ele>16.6</ele><time>2022-11-15T13:34:30Z</time><name>PT8177</name></trkpt>
<trkpt lat="51.575964" lon="03.827031"><ele>16.9</ele><time>2022-11-15T13:34:32Z</time><name>PT8178</name></trkpt>
<trkpt lat="51.575973" lon="03.827037"><ele>17.1</ele><time>2022-11-15T13:34:32Z</time><name>PT8179</name></trkpt>
<trkpt lat="51.575982" lon="03.827046"><ele>17.2</ele><time>2022-11-15T13:34:34Z</time><name>PT8180</name></trkpt>
<trkpt lat="51.575991" lon="03.827052"><ele>17.2</ele><time>2022-11-15T13:34:34Z</time><name>PT8181</name></trkpt>
<trkpt lat="51.575996" lon="03.827055"><ele>17.2</ele><time>2022-11-15T13:34:36Z</time><name>PT8182</name></trkpt>
<trkpt lat="51.575993" lon="03.827057"><ele>17</ele><time>2022-11-15T13:34:36Z</time><name>PT8183</name></trkpt>
<trkpt lat="51.575992" lon="03.827059"><ele>16.9</ele><time>2022-11-15T13:34:38Z</time><name>PT8184</name></trkpt>
<trkpt lat="51.575996" lon="03.827060"><ele>16.9</ele><time>2022-11-15T13:34:38Z</time><name>PT8185</name></trkpt>
<trkpt lat="51.575999" lon="03.827056"><ele>16.6</ele><time>2022-11-15T13:34:40Z</time><name>PT8186</name></trkpt>
<trkpt lat="51.576008" lon="03.827056"><ele>16.5</ele><time>2022-11-15T13:34:40Z</time><name>PT8187</name></trkpt>
<trkpt lat="51.576018" lon="03.827064"><ele>16.5</ele><time>2022-11-15T13:34:42Z</time><name>PT8188</name></trkpt>
<trkpt lat="51.576026" lon="03.827073"><ele>16.6</ele><time>2022-11-15T13:34:42Z</time><name>PT8189</name></trkpt>
<trkpt lat="51.576033" lon="03.827082"><ele>16.7</ele><time>2022-11-15T13:34:44Z</time><name>PT8190</name></trkpt>
<trkpt lat="51.576041" lon="03.827090"><ele>16.8</ele><time>2022-11-15T13:34:44Z</time><name>PT8191</name></trkpt>
<trkpt lat="51.576050" lon="03.827096"><ele>17</ele><time>2022-11-15T13:34:46Z</time><name>PT8192</name></trkpt>
<trkpt lat="51.576058" lon="03.827103"><ele>17.2</ele><time>2022-11-15T13:34:46Z</time><name>PT8193</name></trkpt>
<trkpt lat="51.576066" lon="03.827111"><ele>17</ele><time>2022-11-15T13:34:48Z</time><name>PT8194</name></trkpt>
<trkpt lat="51.576073" lon="03.827121"><ele>17.2</ele><time>2022-11-15T13:34:48Z</time><name>PT8195</name></trkpt>
<trkpt lat="51.576081" lon="03.827132"><ele>17.2</ele><time>2022-11-15T13:34:50Z</time><name>PT8196</name></trkpt>
<trkpt lat="51.576089" lon="03.827142"><ele>17.3</ele><time>2022-11-15T13:34:50Z</time><name>PT8197</name></trkpt>
<trkpt lat="51.576105" lon="03.827155"><ele>17.1</ele><time>2022-11-15T13:34:52Z</time><name>PT8198</name></trkpt>
<trkpt lat="51.576123" lon="03.827168"><ele>16.8</ele><time>2022-11-15T13:34:52Z</time><name>PT8199</name></trkpt>
<trkpt lat="51.576136" lon="03.827173"><ele>16.5</ele><time>2022-11-15T13:34:54Z</time><name>PT8200</name></trkpt>
<trkpt lat="51.576144" lon="03.827177"><ele>16.2</ele><time>2022-11-15T13:34:54Z</time><name>PT8201</name></trkpt>
<trkpt lat="51.576147" lon="03.827181"><ele>16.2</ele><time>2022-11-15T13:34:56Z</time><name>PT8202</name></trkpt>
<trkpt lat="51.576152" lon="03.827189"><ele>16.3</ele><time>2022-11-15T13:34:56Z</time><name>PT8203</name></trkpt>
<trkpt lat="51.576159" lon="03.827197"><ele>16.6</ele><time>2022-11-15T13:34:58Z</time><name>PT8204</name></trkpt>
<trkpt lat="51.576165" lon="03.827200"><ele>16.8</ele><time>2022-11-15T13:34:58Z</time><name>PT8205</name></trkpt>
<trkpt lat="51.576175" lon="03.827208"><ele>17</ele><time>2022-11-15T13:35:00Z</time><name>PT8206</name></trkpt>
<trkpt lat="51.576187" lon="03.827220"><ele>17</ele><time>2022-11-15T13:35:00Z</time><name>PT8207</name></trkpt>
<trkpt lat="51.576201" lon="03.827234"><ele>16.8</ele><time>2022-11-15T13:35:02Z</time><name>PT8208</name></trkpt>
<trkpt lat="51.576216" lon="03.827248"><ele>16.9</ele><time>2022-11-15T13:35:02Z</time><name>PT8209</name></trkpt>
<trkpt lat="51.576231" lon="03.827261"><ele>16.8</ele><time>2022-11-15T13:35:04Z</time><name>PT8210</name></trkpt>
<trkpt lat="51.576242" lon="03.827268"><ele>16.6</ele><time>2022-11-15T13:35:04Z</time><name>PT8211</name></trkpt>
<trkpt lat="51.576249" lon="03.827273"><ele>16.8</ele><time>2022-11-15T13:35:06Z</time><name>PT8212</name></trkpt>
<trkpt lat="51.576255" lon="03.827276"><ele>16.8</ele><time>2022-11-15T13:35:06Z</time><name>PT8213</name></trkpt>
<trkpt lat="51.576260" lon="03.827282"><ele>17.1</ele><time>2022-11-15T13:35:08Z</time><name>PT8214</name></trkpt>
<trkpt lat="51.576266" lon="03.827288"><ele>17.2</ele><time>2022-11-15T13:35:09Z</time><name>PT8215</name></trkpt>
<trkpt lat="51.576278" lon="03.827300"><ele>17.4</ele><time>2022-11-15T13:35:10Z</time><name>PT8216</name></trkpt>
<trkpt lat="51.576293" lon="03.827314"><ele>17.6</ele><time>2022-11-15T13:35:11Z</time><name>PT8217</name></trkpt>
<trkpt lat="51.576306" lon="03.827322"><ele>17.5</ele><time>2022-11-15T13:35:12Z</time><name>PT8218</name></trkpt>
<trkpt lat="51.576314" lon="03.827325"><ele>17.4</ele><time>2022-11-15T13:35:12Z</time><name>PT8219</name></trkpt>
<trkpt lat="51.576320" lon="03.827329"><ele>17.2</ele><time>2022-11-15T13:35:14Z</time><name>PT8220</name></trkpt>
<trkpt lat="51.576325" lon="03.827334"><ele>17</ele><time>2022-11-15T13:35:14Z</time><name>PT8221</name></trkpt>
<trkpt lat="51.576330" lon="03.827343"><ele>16.8</ele><time>2022-11-15T13:35:16Z</time><name>PT8222</name></trkpt>
<trkpt lat="51.576337" lon="03.827355"><ele>16.9</ele><time>2022-11-15T13:35:16Z</time><name>PT8223</name></trkpt>
<trkpt lat="51.576346" lon="03.827366"><ele>17.1</ele><time>2022-11-15T13:35:18Z</time><name>PT8224</name></trkpt>
<trkpt lat="51.576356" lon="03.827379"><ele>17.2</ele><time>2022-11-15T13:35:18Z</time><name>PT8225</name></trkpt>
<trkpt lat="51.576367" lon="03.827392"><ele>17.3</ele><time>2022-11-15T13:35:20Z</time><name>PT8226</name></trkpt>
<trkpt lat="51.576378" lon="03.827400"><ele>17.4</ele><time>2022-11-15T13:35:20Z</time><name>PT8227</name></trkpt>
<trkpt lat="51.576386" lon="03.827402"><ele>17.3</ele><time>2022-11-15T13:35:22Z</time><name>PT8228</name></trkpt>
<trkpt lat="51.576395" lon="03.827408"><ele>17.2</ele><time>2022-11-15T13:35:22Z</time><name>PT8229</name></trkpt>
<trkpt lat="51.576403" lon="03.827414"><ele>17.2</ele><time>2022-11-15T13:35:24Z</time><name>PT8230</name></trkpt>
<trkpt lat="51.576411" lon="03.827420"><ele>17.2</ele><time>2022-11-15T13:35:24Z</time><name>PT8231</name></trkpt>
<trkpt lat="51.576418" lon="03.827427"><ele>17.1</ele><time>2022-11-15T13:35:26Z</time><name>PT8232</name></trkpt>
<trkpt lat="51.576428" lon="03.827436"><ele>17.2</ele><time>2022-11-15T13:35:26Z</time><name>PT8233</name></trkpt>
<trkpt lat="51.576438" lon="03.827449"><ele>17.2</ele><time>2022-11-15T13:35:28Z</time><name>PT8234</name></trkpt>
<trkpt lat="51.576452" lon="03.827462"><ele>17.3</ele><time>2022-11-15T13:35:28Z</time><name>PT8235</name></trkpt>
<trkpt lat="51.576464" lon="03.827467"><ele>17.3</ele><time>2022-11-15T13:35:30Z</time><name>PT8236</name></trkpt>
<trkpt lat="51.576472" lon="03.827470"><ele>17.3</ele><time>2022-11-15T13:35:30Z</time><name>PT8237</name></trkpt>
<trkpt lat="51.576478" lon="03.827473"><ele>17.4</ele><time>2022-11-15T13:35:32Z</time><name>PT8238</name></trkpt>
<trkpt lat="51.576484" lon="03.827479"><ele>17.3</ele><time>2022-11-15T13:35:32Z</time><name>PT8239</name></trkpt>
<trkpt lat="51.576490" lon="03.827487"><ele>17.3</ele><time>2022-11-15T13:35:34Z</time><name>PT8240</name></trkpt>
<trkpt lat="51.576497" lon="03.827497"><ele>17.3</ele><time>2022-11-15T13:35:34Z</time><name>PT8241</name></trkpt>
<trkpt lat="51.576505" lon="03.827509"><ele>17.2</ele><time>2022-11-15T13:35:36Z</time><name>PT8242</name></trkpt>
<trkpt lat="51.576515" lon="03.827524"><ele>17.2</ele><time>2022-11-15T13:35:36Z</time><name>PT8243</name></trkpt>
<trkpt lat="51.576526" lon="03.827536"><ele>17.2</ele><time>2022-11-15T13:35:38Z</time><name>PT8244</name></trkpt>
<trkpt lat="51.576538" lon="03.827547"><ele>17.2</ele><time>2022-11-15T13:35:38Z</time><name>PT8245</name></trkpt>
<trkpt lat="51.576548" lon="03.827554"><ele>17.2</ele><time>2022-11-15T13:35:40Z</time><name>PT8246</name></trkpt>
<trkpt lat="51.576553" lon="03.827559"><ele>17.1</ele><time>2022-11-15T13:35:40Z</time><name>PT8247</name></trkpt>
<trkpt lat="51.576560" lon="03.827563"><ele>17.3</ele><time>2022-11-15T13:35:42Z</time><name>PT8248</name></trkpt>
<trkpt lat="51.576568" lon="03.827568"><ele>17.3</ele><time>2022-11-15T13:35:42Z</time><name>PT8249</name></trkpt>
<trkpt lat="51.576577" lon="03.827574"><ele>17.4</ele><time>2022-11-15T13:35:44Z</time><name>PT8250</name></trkpt>
<trkpt lat="51.576585" lon="03.827584"><ele>17.4</ele><time>2022-11-15T13:35:44Z</time><name>PT8251</name></trkpt>
<trkpt lat="51.576593" lon="03.827593"><ele>17.5</ele><time>2022-11-15T13:35:46Z</time><name>PT8252</name></trkpt>
<trkpt lat="51.576602" lon="03.827606"><ele>17.5</ele><time>2022-11-15T13:35:46Z</time><name>PT8253</name></trkpt>
<trkpt lat="51.576614" lon="03.827622"><ele>17.3</ele><time>2022-11-15T13:35:48Z</time><name>PT8254</name></trkpt>
<trkpt lat="51.576628" lon="03.827638"><ele>17.2</ele><time>2022-11-15T13:35:48Z</time><name>PT8255</name></trkpt>
<trkpt lat="51.576640" lon="03.827649"><ele>17.2</ele><time>2022-11-15T13:35:50Z</time><name>PT8256</name></trkpt>
<trkpt lat="51.576649" lon="03.827656"><ele>17.1</ele><time>2022-11-15T13:35:50Z</time><name>PT8257</name></trkpt>
<trkpt lat="51.576653" lon="03.827660"><ele>16.8</ele><time>2022-11-15T13:35:52Z</time><name>PT8258</name></trkpt>
<trkpt lat="51.576656" lon="03.827661"><ele>16.6</ele><time>2022-11-15T13:35:52Z</time><name>PT8259</name></trkpt>
<trkpt lat="51.576656" lon="03.827662"><ele>16.3</ele><time>2022-11-15T13:35:54Z</time><name>PT8260</name></trkpt>
<trkpt lat="51.576656" lon="03.827662"><ele>16.1</ele><time>2022-11-15T13:35:54Z</time><name>PT8261</name></trkpt>
<trkpt lat="51.576660" lon="03.827667"><ele>16.1</ele><time>2022-11-15T13:35:56Z</time><name>PT8262</name></trkpt>
<trkpt lat="51.576665" lon="03.827674"><ele>16.1</ele><time>2022-11-15T13:35:56Z</time><name>PT8263</name></trkpt>
<trkpt lat="51.576670" lon="03.827677"><ele>16.4</ele><time>2022-11-15T13:35:58Z</time><name>PT8264</name></trkpt>
<trkpt lat="51.576676" lon="03.827682"><ele>16.6</ele><time>2022-11-15T13:35:58Z</time><name>PT8265</name></trkpt>
<trkpt lat="51.576684" lon="03.827695"><ele>16.8</ele><time>2022-11-15T13:36:00Z</time><name>PT8266</name></trkpt>
<trkpt lat="51.576693" lon="03.827710"><ele>17</ele><time>2022-11-15T13:36:00Z</time><name>PT8267</name></trkpt>
<trkpt lat="51.576703" lon="03.827728"><ele>17</ele><time>2022-11-15T13:36:02Z</time><name>PT8268</name></trkpt>
<trkpt lat="51.576710" lon="03.827745"><ele>17</ele><time>2022-11-15T13:36:02Z</time><name>PT8269</name></trkpt>
<trkpt lat="51.576716" lon="03.827754"><ele>17.3</ele><time>2022-11-15T13:36:04Z</time><name>PT8270</name></trkpt>
<trkpt lat="51.576719" lon="03.827761"><ele>17.5</ele><time>2022-11-15T13:36:04Z</time><name>PT8271</name></trkpt>
<trkpt lat="51.576722" lon="03.827768"><ele>17.5</ele><time>2022-11-15T13:36:06Z</time><name>PT8272</name></trkpt>
<trkpt lat="51.576723" lon="03.827775"><ele>17.7</ele><time>2022-11-15T13:36:06Z</time><name>PT8273</name></trkpt>
<trkpt lat="51.576726" lon="03.827782"><ele>17.7</ele><time>2022-11-15T13:36:08Z</time><name>PT8274</name></trkpt>
<trkpt lat="51.576731" lon="03.827789"><ele>17.7</ele><time>2022-11-15T13:36:08Z</time><name>PT8275</name></trkpt>
<trkpt lat="51.576739" lon="03.827800"><ele>17.5</ele><time>2022-11-15T13:36:10Z</time><name>PT8276</name></trkpt>
<trkpt lat="51.576747" lon="03.827809"><ele>17.3</ele><time>2022-11-15T13:36:10Z</time><name>PT8277</name></trkpt>
<trkpt lat="51.576752" lon="03.827812"><ele>17.1</ele><time>2022-11-15T13:36:12Z</time><name>PT8278</name></trkpt>
<trkpt lat="51.576756" lon="03.827816"><ele>17</ele><time>2022-11-15T13:36:12Z</time><name>PT8279</name></trkpt>
<trkpt lat="51.576767" lon="03.827823"><ele>16.9</ele><time>2022-11-15T13:36:14Z</time><name>PT8280</name></trkpt>
<trkpt lat="51.576776" lon="03.827831"><ele>16.9</ele><time>2022-11-15T13:36:14Z</time><name>PT8281</name></trkpt>
<trkpt lat="51.576781" lon="03.827833"><ele>17</ele><time>2022-11-15T13:36:16Z</time><name>PT8282</name></trkpt>
<trkpt lat="51.576785" lon="03.827833"><ele>17.1</ele><time>2022-11-15T13:36:17Z</time><name>PT8283</name></trkpt>
<trkpt lat="51.576795" lon="03.827838"><ele>17.2</ele><time>2022-11-15T13:36:18Z</time><name>PT8284</name></trkpt>
<trkpt lat="51.576809" lon="03.827847"><ele>17.3</ele><time>2022-11-15T13:36:18Z</time><name>PT8285</name></trkpt>
<trkpt lat="51.576825" lon="03.827857"><ele>17.3</ele><time>2022-11-15T13:36:20Z</time><name>PT8286</name></trkpt>
<trkpt lat="51.576834" lon="03.827863"><ele>17.3</ele><time>2022-11-15T13:36:20Z</time><name>PT8287</name></trkpt>
<trkpt lat="51.576839" lon="03.827866"><ele>17.2</ele><time>2022-11-15T13:36:22Z</time><name>PT8288</name></trkpt>
<trkpt lat="51.576843" lon="03.827871"><ele>17.2</ele><time>2022-11-15T13:36:22Z</time><name>PT8289</name></trkpt>
<trkpt lat="51.576848" lon="03.827878"><ele>17.2</ele><time>2022-11-15T13:36:24Z</time><name>PT8290</name></trkpt>
<trkpt lat="51.576858" lon="03.827890"><ele>17.2</ele><time>2022-11-15T13:36:24Z</time><name>PT8291</name></trkpt>
<trkpt lat="51.576874" lon="03.827906"><ele>17.2</ele><time>2022-11-15T13:36:26Z</time><name>PT8292</name></trkpt>
<trkpt lat="51.576887" lon="03.827920"><ele>17.2</ele><time>2022-11-15T13:36:26Z</time><name>PT8293</name></trkpt>
<trkpt lat="51.576902" lon="03.827931"><ele>17.2</ele><time>2022-11-15T13:36:28Z</time><name>PT8294</name></trkpt>
<trkpt lat="51.576911" lon="03.827940"><ele>17.2</ele><time>2022-11-15T13:36:28Z</time><name>PT8295</name></trkpt>
<trkpt lat="51.576919" lon="03.827948"><ele>17.2</ele><time>2022-11-15T13:36:30Z</time><name>PT8296</name></trkpt>
<trkpt lat="51.576928" lon="03.827954"><ele>17.3</ele><time>2022-11-15T13:36:30Z</time><name>PT8297</name></trkpt>
<trkpt lat="51.576937" lon="03.827959"><ele>17.4</ele><time>2022-11-15T13:36:32Z</time><name>PT8298</name></trkpt>
<trkpt lat="51.576948" lon="03.827969"><ele>17.3</ele><time>2022-11-15T13:36:32Z</time><name>PT8299</name></trkpt>
<trkpt lat="51.576962" lon="03.827985"><ele>17.4</ele><time>2022-11-15T13:36:34Z</time><name>PT8300</name></trkpt>
<trkpt lat="51.576977" lon="03.827996"><ele>17.3</ele><time>2022-11-15T13:36:34Z</time><name>PT8301</name></trkpt>
<trkpt lat="51.576991" lon="03.828005"><ele>16.8</ele><time>2022-11-15T13:36:36Z</time><name>PT8302</name></trkpt>
<trkpt lat="51.577002" lon="03.828009"><ele>16.6</ele><time>2022-11-15T13:36:36Z</time><name>PT8303</name></trkpt>
<trkpt lat="51.577010" lon="03.828012"><ele>16.3</ele><time>2022-11-15T13:36:38Z</time><name>PT8304</name></trkpt>
<trkpt lat="51.577016" lon="03.828013"><ele>16.2</ele><time>2022-11-15T13:36:38Z</time><name>PT8305</name></trkpt>
<trkpt lat="51.577023" lon="03.828020"><ele>16.1</ele><time>2022-11-15T13:36:40Z</time><name>PT8306</name></trkpt>
<trkpt lat="51.577035" lon="03.828034"><ele>16.6</ele><time>2022-11-15T13:36:40Z</time><name>PT8307</name></trkpt>
<trkpt lat="51.577049" lon="03.828049"><ele>16.9</ele><time>2022-11-15T13:36:42Z</time><name>PT8308</name></trkpt>
<trkpt lat="51.577060" lon="03.828057"><ele>16.9</ele><time>2022-11-15T13:36:42Z</time><name>PT8309</name></trkpt>
<trkpt lat="51.577067" lon="03.828063"><ele>17.1</ele><time>2022-11-15T13:36:44Z</time><name>PT8310</name></trkpt>
<trkpt lat="51.577071" lon="03.828065"><ele>17.3</ele><time>2022-11-15T13:36:44Z</time><name>PT8311</name></trkpt>
<trkpt lat="51.577074" lon="03.828069"><ele>17.6</ele><time>2022-11-15T13:36:46Z</time><name>PT8312</name></trkpt>
<trkpt lat="51.577083" lon="03.828080"><ele>17.9</ele><time>2022-11-15T13:36:47Z</time><name>PT8313</name></trkpt>
<trkpt lat="51.577092" lon="03.828096"><ele>17.9</ele><time>2022-11-15T13:36:48Z</time><name>PT8314</name></trkpt>
<trkpt lat="51.577104" lon="03.828111"><ele>17.7</ele><time>2022-11-15T13:36:49Z</time><name>PT8315</name></trkpt>
<trkpt lat="51.577115" lon="03.828121"><ele>17.8</ele><time>2022-11-15T13:36:50Z</time><name>PT8316</name></trkpt>
<trkpt lat="51.577123" lon="03.828125"><ele>17.5</ele><time>2022-11-15T13:36:51Z</time><name>PT8317</name></trkpt>
<trkpt lat="51.577125" lon="03.828127"><ele>17.3</ele><time>2022-11-15T13:36:52Z</time><name>PT8318</name></trkpt>
<trkpt lat="51.577129" lon="03.828131"><ele>17.2</ele><time>2022-11-15T13:36:53Z</time><name>PT8319</name></trkpt>
<trkpt lat="51.577139" lon="03.828140"><ele>17.3</ele><time>2022-11-15T13:36:54Z</time><name>PT8320</name></trkpt>
<trkpt lat="51.577156" lon="03.828151"><ele>17.4</ele><time>2022-11-15T13:36:54Z</time><name>PT8321</name></trkpt>
<trkpt lat="51.577173" lon="03.828163"><ele>17.6</ele><time>2022-11-15T13:36:56Z</time><name>PT8322</name></trkpt>
<trkpt lat="51.577185" lon="03.828171"><ele>17.7</ele><time>2022-11-15T13:36:56Z</time><name>PT8323</name></trkpt>
<trkpt lat="51.577190" lon="03.828175"><ele>17.7</ele><time>2022-11-15T13:36:58Z</time><name>PT8324</name></trkpt>
<trkpt lat="51.577192" lon="03.828178"><ele>17.9</ele><time>2022-11-15T13:36:58Z</time><name>PT8325</name></trkpt>
<trkpt lat="51.577193" lon="03.828181"><ele>17.7</ele><time>2022-11-15T13:37:00Z</time><name>PT8326</name></trkpt>
<trkpt lat="51.577197" lon="03.828189"><ele>17.7</ele><time>2022-11-15T13:37:00Z</time><name>PT8327</name></trkpt>
<trkpt lat="51.577208" lon="03.828201"><ele>17.9</ele><time>2022-11-15T13:37:02Z</time><name>PT8328</name></trkpt>
<trkpt lat="51.577223" lon="03.828217"><ele>17.9</ele><time>2022-11-15T13:37:02Z</time><name>PT8329</name></trkpt>
<trkpt lat="51.577236" lon="03.828229"><ele>17.9</ele><time>2022-11-15T13:37:04Z</time><name>PT8330</name></trkpt>
<trkpt lat="51.577243" lon="03.828235"><ele>17.8</ele><time>2022-11-15T13:37:04Z</time><name>PT8331</name></trkpt>
<trkpt lat="51.577246" lon="03.828238"><ele>17.7</ele><time>2022-11-15T13:37:06Z</time><name>PT8332</name></trkpt>
<trkpt lat="51.577246" lon="03.828239"><ele>17.5</ele><time>2022-11-15T13:37:06Z</time><name>PT8333</name></trkpt>
<trkpt lat="51.577253" lon="03.828247"><ele>17.5</ele><time>2022-11-15T13:37:08Z</time><name>PT8334</name></trkpt>
<trkpt lat="51.577267" lon="03.828264"><ele>17.6</ele><time>2022-11-15T13:37:08Z</time><name>PT8335</name></trkpt>
<trkpt lat="51.577280" lon="03.828278"><ele>17.7</ele><time>2022-11-15T13:37:10Z</time><name>PT8336</name></trkpt>
<trkpt lat="51.577286" lon="03.828285"><ele>17.7</ele><time>2022-11-15T13:37:10Z</time><name>PT8337</name></trkpt>
<trkpt lat="51.577288" lon="03.828287"><ele>17.7</ele><time>2022-11-15T13:37:12Z</time><name>PT8338</name></trkpt>
<trkpt lat="51.577293" lon="03.828292"><ele>17.7</ele><time>2022-11-15T13:37:12Z</time><name>PT8339</name></trkpt>
<trkpt lat="51.577302" lon="03.828301"><ele>17.8</ele><time>2022-11-15T13:37:14Z</time><name>PT8340</name></trkpt>
<trkpt lat="51.577318" lon="03.828316"><ele>17.7</ele><time>2022-11-15T13:37:14Z</time><name>PT8341</name></trkpt>
<trkpt lat="51.577333" lon="03.828326"><ele>17.7</ele><time>2022-11-15T13:37:16Z</time><name>PT8342</name></trkpt>
<trkpt lat="51.577342" lon="03.828330"><ele>17.7</ele><time>2022-11-15T13:37:16Z</time><name>PT8343</name></trkpt>
<trkpt lat="51.577341" lon="03.828332"><ele>17.5</ele><time>2022-11-15T13:37:18Z</time><name>PT8344</name></trkpt>
<trkpt lat="51.577348" lon="03.828342"><ele>17.5</ele><time>2022-11-15T13:37:18Z</time><name>PT8345</name></trkpt>
<trkpt lat="51.577362" lon="03.828356"><ele>17.7</ele><time>2022-11-15T13:37:20Z</time><name>PT8346</name></trkpt>
<trkpt lat="51.577375" lon="03.828369"><ele>17.9</ele><time>2022-11-15T13:37:20Z</time><name>PT8347</name></trkpt>
<trkpt lat="51.577383" lon="03.828374"><ele>18</ele><time>2022-11-15T13:37:22Z</time><name>PT8348</name></trkpt>
<trkpt lat="51.577385" lon="03.828376"><ele>17.9</ele><time>2022-11-15T13:37:22Z</time><name>PT8349</name></trkpt>
<trkpt lat="51.577387" lon="03.828378"><ele>17.9</ele><time>2022-11-15T13:37:24Z</time><name>PT8350</name></trkpt>
<trkpt lat="51.577399" lon="03.828385"><ele>17.7</ele><time>2022-11-15T13:37:24Z</time><name>PT8351</name></trkpt>
<trkpt lat="51.577412" lon="03.828398"><ele>17.7</ele><time>2022-11-15T13:37:26Z</time><name>PT8352</name></trkpt>
<trkpt lat="51.577421" lon="03.828405"><ele>17.8</ele><time>2022-11-15T13:37:26Z</time><name>PT8353</name></trkpt>
<trkpt lat="51.577424" lon="03.828407"><ele>18</ele><time>2022-11-15T13:37:28Z</time><name>PT8354</name></trkpt>
<trkpt lat="51.577426" lon="03.828411"><ele>17.9</ele><time>2022-11-15T13:37:28Z</time><name>PT8355</name></trkpt>
<trkpt lat="51.577432" lon="03.828420"><ele>18.2</ele><time>2022-11-15T13:37:30Z</time><name>PT8356</name></trkpt>
<trkpt lat="51.577445" lon="03.828433"><ele>18</ele><time>2022-11-15T13:37:30Z</time><name>PT8357</name></trkpt>
<trkpt lat="51.577460" lon="03.828449"><ele>17.9</ele><time>2022-11-15T13:37:32Z</time><name>PT8358</name></trkpt>
<trkpt lat="51.577470" lon="03.828460"><ele>17.8</ele><time>2022-11-15T13:37:32Z</time><name>PT8359</name></trkpt>
<trkpt lat="51.577474" lon="03.828464"><ele>17.7</ele><time>2022-11-15T13:37:34Z</time><name>PT8360</name></trkpt>
<trkpt lat="51.577477" lon="03.828467"><ele>17.7</ele><time>2022-11-15T13:37:34Z</time><name>PT8361</name></trkpt>
<trkpt lat="51.577481" lon="03.828471"><ele>17.7</ele><time>2022-11-15T13:37:36Z</time><name>PT8362</name></trkpt>
<trkpt lat="51.577494" lon="03.828485"><ele>17.6</ele><time>2022-11-15T13:37:36Z</time><name>PT8363</name></trkpt>
<trkpt lat="51.577510" lon="03.828499"><ele>17.7</ele><time>2022-11-15T13:37:38Z</time><name>PT8364</name></trkpt>
<trkpt lat="51.577524" lon="03.828510"><ele>17.6</ele><time>2022-11-15T13:37:38Z</time><name>PT8365</name></trkpt>
<trkpt lat="51.577535" lon="03.828520"><ele>17.7</ele><time>2022-11-15T13:37:40Z</time><name>PT8366</name></trkpt>
<trkpt lat="51.577538" lon="03.828526"><ele>17.6</ele><time>2022-11-15T13:37:40Z</time><name>PT8367</name></trkpt>
<trkpt lat="51.577538" lon="03.828527"><ele>17.7</ele><time>2022-11-15T13:37:42Z</time><name>PT8368</name></trkpt>
<trkpt lat="51.577542" lon="03.828527"><ele>17.6</ele><time>2022-11-15T13:37:42Z</time><name>PT8369</name></trkpt>
<trkpt lat="51.577552" lon="03.828538"><ele>17.5</ele><time>2022-11-15T13:37:44Z</time><name>PT8370</name></trkpt>
<trkpt lat="51.577577" lon="03.828550"><ele>17.5</ele><time>2022-11-15T13:37:44Z</time><name>PT8371</name></trkpt>
<trkpt lat="51.577594" lon="03.828565"><ele>17.6</ele><time>2022-11-15T13:37:46Z</time><name>PT8372</name></trkpt>
<trkpt lat="51.577613" lon="03.828576"><ele>17.7</ele><time>2022-11-15T13:37:46Z</time><name>PT8373</name></trkpt>
<trkpt lat="51.577629" lon="03.828584"><ele>17.7</ele><time>2022-11-15T13:37:48Z</time><name>PT8374</name></trkpt>
<trkpt lat="51.577635" lon="03.828589"><ele>17.8</ele><time>2022-11-15T13:37:48Z</time><name>PT8375</name></trkpt>
<trkpt lat="51.577635" lon="03.828592"><ele>17.7</ele><time>2022-11-15T13:37:50Z</time><name>PT8376</name></trkpt>
<trkpt lat="51.577637" lon="03.828594"><ele>17.7</ele><time>2022-11-15T13:37:50Z</time><name>PT8377</name></trkpt>
<trkpt lat="51.577641" lon="03.828599"><ele>17.7</ele><time>2022-11-15T13:37:52Z</time><name>PT8378</name></trkpt>
<trkpt lat="51.577650" lon="03.828613"><ele>17.4</ele><time>2022-11-15T13:37:52Z</time><name>PT8379</name></trkpt>
<trkpt lat="51.577663" lon="03.828629"><ele>17.3</ele><time>2022-11-15T13:37:54Z</time><name>PT8380</name></trkpt>
<trkpt lat="51.577677" lon="03.828640"><ele>17.2</ele><time>2022-11-15T13:37:54Z</time><name>PT8381</name></trkpt>
<trkpt lat="51.577689" lon="03.828646"><ele>17.1</ele><time>2022-11-15T13:37:56Z</time><name>PT8382</name></trkpt>
<trkpt lat="51.577697" lon="03.828649"><ele>17.1</ele><time>2022-11-15T13:37:56Z</time><name>PT8383</name></trkpt>
<trkpt lat="51.577700" lon="03.828653"><ele>17.2</ele><time>2022-11-15T13:37:58Z</time><name>PT8384</name></trkpt>
<trkpt lat="51.577704" lon="03.828656"><ele>17.3</ele><time>2022-11-15T13:37:58Z</time><name>PT8385</name></trkpt>
<trkpt lat="51.577710" lon="03.828663"><ele>17.3</ele><time>2022-11-15T13:38:00Z</time><name>PT8386</name></trkpt>
<trkpt lat="51.577715" lon="03.828673"><ele>17.3</ele><time>2022-11-15T13:38:00Z</time><name>PT8387</name></trkpt>
<trkpt lat="51.577723" lon="03.828686"><ele>17.2</ele><time>2022-11-15T13:38:02Z</time><name>PT8388</name></trkpt>
<trkpt lat="51.577735" lon="03.828697"><ele>17.1</ele><time>2022-11-15T13:38:02Z</time><name>PT8389</name></trkpt>
<trkpt lat="51.577749" lon="03.828710"><ele>17.2</ele><time>2022-11-15T13:38:04Z</time><name>PT8390</name></trkpt>
<trkpt lat="51.577758" lon="03.828718"><ele>17.3</ele><time>2022-11-15T13:38:04Z</time><name>PT8391</name></trkpt>
<trkpt lat="51.577763" lon="03.828722"><ele>17.5</ele><time>2022-11-15T13:38:06Z</time><name>PT8392</name></trkpt>
<trkpt lat="51.577765" lon="03.828726"><ele>17.6</ele><time>2022-11-15T13:38:06Z</time><name>PT8393</name></trkpt>
<trkpt lat="51.577770" lon="03.828732"><ele>17.7</ele><time>2022-11-15T13:38:08Z</time><name>PT8394</name></trkpt>
<trkpt lat="51.577776" lon="03.828742"><ele>17.7</ele><time>2022-11-15T13:38:09Z</time><name>PT8395</name></trkpt>
<trkpt lat="51.577785" lon="03.828755"><ele>17.7</ele><time>2022-11-15T13:38:10Z</time><name>PT8396</name></trkpt>
<trkpt lat="51.577799" lon="03.828770"><ele>17.5</ele><time>2022-11-15T13:38:11Z</time><name>PT8397</name></trkpt>
<trkpt lat="51.577814" lon="03.828784"><ele>17.4</ele><time>2022-11-15T13:38:12Z</time><name>PT8398</name></trkpt>
<trkpt lat="51.577827" lon="03.828795"><ele>17.3</ele><time>2022-11-15T13:38:13Z</time><name>PT8399</name></trkpt>
<trkpt lat="51.577836" lon="03.828800"><ele>17.4</ele><time>2022-11-15T13:38:14Z</time><name>PT8400</name></trkpt>
<trkpt lat="51.577840" lon="03.828800"><ele>17.4</ele><time>2022-11-15T13:38:15Z</time><name>PT8401</name></trkpt>
<trkpt lat="51.577846" lon="03.828802"><ele>17.6</ele><time>2022-11-15T13:38:16Z</time><name>PT8402</name></trkpt>
<trkpt lat="51.577856" lon="03.828812"><ele>17.6</ele><time>2022-11-15T13:38:16Z</time><name>PT8403</name></trkpt>
<trkpt lat="51.577865" lon="03.828821"><ele>17.7</ele><time>2022-11-15T13:38:18Z</time><name>PT8404</name></trkpt>
<trkpt lat="51.577873" lon="03.828830"><ele>17.7</ele><time>2022-11-15T13:38:18Z</time><name>PT8405</name></trkpt>
<trkpt lat="51.577879" lon="03.828839"><ele>17.7</ele><time>2022-11-15T13:38:20Z</time><name>PT8406</name></trkpt>
<trkpt lat="51.577886" lon="03.828847"><ele>17.9</ele><time>2022-11-15T13:38:20Z</time><name>PT8407</name></trkpt>
<trkpt lat="51.577897" lon="03.828862"><ele>17.8</ele><time>2022-11-15T13:38:22Z</time><name>PT8408</name></trkpt>
<trkpt lat="51.577909" lon="03.828876"><ele>17.7</ele><time>2022-11-15T13:38:22Z</time><name>PT8409</name></trkpt>
<trkpt lat="51.577920" lon="03.828883"><ele>17.7</ele><time>2022-11-15T13:38:24Z</time><name>PT8410</name></trkpt>
<trkpt lat="51.577931" lon="03.828888"><ele>17.6</ele><time>2022-11-15T13:38:24Z</time><name>PT8411</name></trkpt>
<trkpt lat="51.577940" lon="03.828890"><ele>17.5</ele><time>2022-11-15T13:38:26Z</time><name>PT8412</name></trkpt>
<trkpt lat="51.577944" lon="03.828894"><ele>17.6</ele><time>2022-11-15T13:38:26Z</time><name>PT8413</name></trkpt>
<trkpt lat="51.577948" lon="03.828902"><ele>17.7</ele><time>2022-11-15T13:38:28Z</time><name>PT8414</name></trkpt>
<trkpt lat="51.577954" lon="03.828912"><ele>17.7</ele><time>2022-11-15T13:38:28Z</time><name>PT8415</name></trkpt>
<trkpt lat="51.577963" lon="03.828923"><ele>17.6</ele><time>2022-11-15T13:38:30Z</time><name>PT8416</name></trkpt>
<trkpt lat="51.577977" lon="03.828939"><ele>17.5</ele><time>2022-11-15T13:38:30Z</time><name>PT8417</name></trkpt>
<trkpt lat="51.577994" lon="03.828962"><ele>17.4</ele><time>2022-11-15T13:38:32Z</time><name>PT8418</name></trkpt>
<trkpt lat="51.578011" lon="03.828980"><ele>17.4</ele><time>2022-11-15T13:38:32Z</time><name>PT8419</name></trkpt>
<trkpt lat="51.578026" lon="03.828992"><ele>17.5</ele><time>2022-11-15T13:38:34Z</time><name>PT8420</name></trkpt>
<trkpt lat="51.578039" lon="03.829001"><ele>17.5</ele><time>2022-11-15T13:38:34Z</time><name>PT8421</name></trkpt>
<trkpt lat="51.578050" lon="03.829005"><ele>17.7</ele><time>2022-11-15T13:38:36Z</time><name>PT8422</name></trkpt>
<trkpt lat="51.578053" lon="03.829007"><ele>17.7</ele><time>2022-11-15T13:38:36Z</time><name>PT8423</name></trkpt>
<trkpt lat="51.578053" lon="03.829008"><ele>17.7</ele><time>2022-11-15T13:38:38Z</time><name>PT8424</name></trkpt>
<trkpt lat="51.578054" lon="03.829012"><ele>17.7</ele><time>2022-11-15T13:38:38Z</time><name>PT8425</name></trkpt>
<trkpt lat="51.578060" lon="03.829020"><ele>17.7</ele><time>2022-11-15T13:38:40Z</time><name>PT8426</name></trkpt>
<trkpt lat="51.578069" lon="03.829032"><ele>17.7</ele><time>2022-11-15T13:38:40Z</time><name>PT8427</name></trkpt>
<trkpt lat="51.578084" lon="03.829045"><ele>17.8</ele><time>2022-11-15T13:38:42Z</time><name>PT8428</name></trkpt>
<trkpt lat="51.578106" lon="03.829064"><ele>17.8</ele><time>2022-11-15T13:38:42Z</time><name>PT8429</name></trkpt>
<trkpt lat="51.578128" lon="03.829079"><ele>17.9</ele><time>2022-11-15T13:38:44Z</time><name>PT8430</name></trkpt>
<trkpt lat="51.578152" lon="03.829093"><ele>18.1</ele><time>2022-11-15T13:38:44Z</time><name>PT8431</name></trkpt>
<trkpt lat="51.578168" lon="03.829105"><ele>18.2</ele><time>2022-11-15T13:38:46Z</time><name>PT8432</name></trkpt>
<trkpt lat="51.578176" lon="03.829114"><ele>18.2</ele><time>2022-11-15T13:38:46Z</time><name>PT8433</name></trkpt>
<trkpt lat="51.578178" lon="03.829115"><ele>18.2</ele><time>2022-11-15T13:38:48Z</time><name>PT8434</name></trkpt>
<trkpt lat="51.578177" lon="03.829118"><ele>18.1</ele><time>2022-11-15T13:38:48Z</time><name>PT8435</name></trkpt>
<trkpt lat="51.578179" lon="03.829124"><ele>18</ele><time>2022-11-15T13:38:50Z</time><name>PT8436</name></trkpt>
<trkpt lat="51.578185" lon="03.829133"><ele>18</ele><time>2022-11-15T13:38:50Z</time><name>PT8437</name></trkpt>
<trkpt lat="51.578198" lon="03.829147"><ele>17.7</ele><time>2022-11-15T13:38:52Z</time><name>PT8438</name></trkpt>
<trkpt lat="51.578214" lon="03.829163"><ele>17.7</ele><time>2022-11-15T13:38:52Z</time><name>PT8439</name></trkpt>
<trkpt lat="51.578235" lon="03.829178"><ele>17.6</ele><time>2022-11-15T13:38:54Z</time><name>PT8440</name></trkpt>
<trkpt lat="51.578257" lon="03.829194"><ele>17.5</ele><time>2022-11-15T13:38:54Z</time><name>PT8441</name></trkpt>
<trkpt lat="51.578277" lon="03.829208"><ele>17.4</ele><time>2022-11-15T13:38:56Z</time><name>PT8442</name></trkpt>
<trkpt lat="51.578292" lon="03.829221"><ele>17.6</ele><time>2022-11-15T13:38:56Z</time><name>PT8443</name></trkpt>
<trkpt lat="51.578303" lon="03.829231"><ele>17.7</ele><time>2022-11-15T13:38:58Z</time><name>PT8444</name></trkpt>
<trkpt lat="51.578311" lon="03.829235"><ele>17.7</ele><time>2022-11-15T13:38:58Z</time><name>PT8445</name></trkpt>
<trkpt lat="51.578315" lon="03.829238"><ele>18</ele><time>2022-11-15T13:39:00Z</time><name>PT8446</name></trkpt>
<trkpt lat="51.578317" lon="03.829246"><ele>18.1</ele><time>2022-11-15T13:39:00Z</time><name>PT8447</name></trkpt>
<trkpt lat="51.578320" lon="03.829248"><ele>18.3</ele><time>2022-11-15T13:39:02Z</time><name>PT8448</name></trkpt>
<trkpt lat="51.578314" lon="03.829257"><ele>18.6</ele><time>2022-11-15T13:39:02Z</time><name>PT8449</name></trkpt>
<trkpt lat="51.578313" lon="03.829260"><ele>18.7</ele><time>2022-11-15T13:39:04Z</time><name>PT8450</name></trkpt>
<trkpt lat="51.578316" lon="03.829262"><ele>18.7</ele><time>2022-11-15T13:39:04Z</time><name>PT8451</name></trkpt>
<trkpt lat="51.578321" lon="03.829270"><ele>18.7</ele><time>2022-11-15T13:39:06Z</time><name>PT8452</name></trkpt>
<trkpt lat="51.578326" lon="03.829279"><ele>18.6</ele><time>2022-11-15T13:39:06Z</time><name>PT8453</name></trkpt>
<trkpt lat="51.578336" lon="03.829290"><ele>18.6</ele><time>2022-11-15T13:39:08Z</time><name>PT8454</name></trkpt>
<trkpt lat="51.578349" lon="03.829307"><ele>18.7</ele><time>2022-11-15T13:39:08Z</time><name>PT8455</name></trkpt>
<trkpt lat="51.578365" lon="03.829323"><ele>18.8</ele><time>2022-11-15T13:39:10Z</time><name>PT8456</name></trkpt>
<trkpt lat="51.578380" lon="03.829337"><ele>19</ele><time>2022-11-15T13:39:10Z</time><name>PT8457</name></trkpt>
<trkpt lat="51.578393" lon="03.829346"><ele>18.8</ele><time>2022-11-15T13:39:12Z</time><name>PT8458</name></trkpt>
<trkpt lat="51.578403" lon="03.829353"><ele>18.4</ele><time>2022-11-15T13:39:12Z</time><name>PT8459</name></trkpt>
<trkpt lat="51.578407" lon="03.829360"><ele>18.2</ele><time>2022-11-15T13:39:14Z</time><name>PT8460</name></trkpt>
<trkpt lat="51.578411" lon="03.829365"><ele>18.2</ele><time>2022-11-15T13:39:14Z</time><name>PT8461</name></trkpt>
<trkpt lat="51.578419" lon="03.829372"><ele>18.2</ele><time>2022-11-15T13:39:16Z</time><name>PT8462</name></trkpt>
<trkpt lat="51.578428" lon="03.829383"><ele>18</ele><time>2022-11-15T13:39:16Z</time><name>PT8463</name></trkpt>
<trkpt lat="51.578441" lon="03.829396"><ele>18.1</ele><time>2022-11-15T13:39:18Z</time><name>PT8464</name></trkpt>
<trkpt lat="51.578461" lon="03.829412"><ele>18</ele><time>2022-11-15T13:39:19Z</time><name>PT8465</name></trkpt>
<trkpt lat="51.578476" lon="03.829425"><ele>18</ele><time>2022-11-15T13:39:20Z</time><name>PT8466</name></trkpt>
<trkpt lat="51.578486" lon="03.829434"><ele>18.2</ele><time>2022-11-15T13:39:21Z</time><name>PT8467</name></trkpt>
<trkpt lat="51.578497" lon="03.829442"><ele>18.3</ele><time>2022-11-15T13:39:22Z</time><name>PT8468</name></trkpt>
<trkpt lat="51.578508" lon="03.829449"><ele>18.3</ele><time>2022-11-15T13:39:22Z</time><name>PT8469</name></trkpt>
<trkpt lat="51.578518" lon="03.829456"><ele>18.3</ele><time>2022-11-15T13:39:24Z</time><name>PT8470</name></trkpt>
<trkpt lat="51.578528" lon="03.829464"><ele>18.3</ele><time>2022-11-15T13:39:24Z</time><name>PT8471</name></trkpt>
<trkpt lat="51.578539" lon="03.829473"><ele>18.2</ele><time>2022-11-15T13:39:26Z</time><name>PT8472</name></trkpt>
<trkpt lat="51.578552" lon="03.829485"><ele>18.1</ele><time>2022-11-15T13:39:27Z</time><name>PT8473</name></trkpt>
<trkpt lat="51.578568" lon="03.829499"><ele>18.1</ele><time>2022-11-15T13:39:28Z</time><name>PT8474</name></trkpt>
<trkpt lat="51.578584" lon="03.829514"><ele>18.2</ele><time>2022-11-15T13:39:29Z</time><name>PT8475</name></trkpt>
<trkpt lat="51.578595" lon="03.829524"><ele>18.1</ele><time>2022-11-15T13:39:30Z</time><name>PT8476</name></trkpt>
<trkpt lat="51.578604" lon="03.829530"><ele>18</ele><time>2022-11-15T13:39:31Z</time><name>PT8477</name></trkpt>
<trkpt lat="51.578613" lon="03.829533"><ele>18</ele><time>2022-11-15T13:39:32Z</time><name>PT8478</name></trkpt>
<trkpt lat="51.578620" lon="03.829538"><ele>18</ele><time>2022-11-15T13:39:32Z</time><name>PT8479</name></trkpt>
<trkpt lat="51.578625" lon="03.829547"><ele>18.1</ele><time>2022-11-15T13:39:34Z</time><name>PT8480</name></trkpt>
<trkpt lat="51.578631" lon="03.829557"><ele>18.2</ele><time>2022-11-15T13:39:34Z</time><name>PT8481</name></trkpt>
<trkpt lat="51.578641" lon="03.829570"><ele>18.2</ele><time>2022-11-15T13:39:36Z</time><name>PT8482</name></trkpt>
<trkpt lat="51.578655" lon="03.829583"><ele>18.3</ele><time>2022-11-15T13:39:36Z</time><name>PT8483</name></trkpt>
<trkpt lat="51.578671" lon="03.829595"><ele>18.2</ele><time>2022-11-15T13:39:38Z</time><name>PT8484</name></trkpt>
<trkpt lat="51.578686" lon="03.829607"><ele>18.2</ele><time>2022-11-15T13:39:38Z</time><name>PT8485</name></trkpt>
<trkpt lat="51.578697" lon="03.829616"><ele>18.2</ele><time>2022-11-15T13:39:40Z</time><name>PT8486</name></trkpt>
<trkpt lat="51.578705" lon="03.829623"><ele>18.4</ele><time>2022-11-15T13:39:40Z</time><name>PT8487</name></trkpt>
<trkpt lat="51.578711" lon="03.829631"><ele>18.6</ele><time>2022-11-15T13:39:42Z</time><name>PT8488</name></trkpt>
<trkpt lat="51.578716" lon="03.829638"><ele>18.5</ele><time>2022-11-15T13:39:42Z</time><name>PT8489</name></trkpt>
<trkpt lat="51.578722" lon="03.829646"><ele>18.4</ele><time>2022-11-15T13:39:44Z</time><name>PT8490</name></trkpt>
<trkpt lat="51.578730" lon="03.829659"><ele>18.5</ele><time>2022-11-15T13:39:44Z</time><name>PT8491</name></trkpt>
<trkpt lat="51.578740" lon="03.829674"><ele>18.5</ele><time>2022-11-15T13:39:46Z</time><name>PT8492</name></trkpt>
<trkpt lat="51.578754" lon="03.829689"><ele>18.3</ele><time>2022-11-15T13:39:46Z</time><name>PT8493</name></trkpt>
<trkpt lat="51.578767" lon="03.829701"><ele>18.4</ele><time>2022-11-15T13:39:48Z</time><name>PT8494</name></trkpt>
<trkpt lat="51.578776" lon="03.829707"><ele>18.3</ele><time>2022-11-15T13:39:48Z</time><name>PT8495</name></trkpt>
<trkpt lat="51.578785" lon="03.829711"><ele>18.2</ele><time>2022-11-15T13:39:50Z</time><name>PT8496</name></trkpt>
<trkpt lat="51.578790" lon="03.829719"><ele>18.2</ele><time>2022-11-15T13:39:50Z</time><name>PT8497</name></trkpt>
<trkpt lat="51.578797" lon="03.829727"><ele>18.2</ele><time>2022-11-15T13:39:52Z</time><name>PT8498</name></trkpt>
<trkpt lat="51.578805" lon="03.829738"><ele>18.2</ele><time>2022-11-15T13:39:52Z</time><name>PT8499</name></trkpt>
<trkpt lat="51.578815" lon="03.829750"><ele>18.1</ele><time>2022-11-15T13:39:54Z</time><name>PT8500</name></trkpt>
<trkpt lat="51.578824" lon="03.829758"><ele>18.2</ele><time>2022-11-15T13:39:54Z</time><name>PT8501</name></trkpt>
<trkpt lat="51.578832" lon="03.829761"><ele>18.2</ele><time>2022-11-15T13:39:56Z</time><name>PT8502</name></trkpt>
<trkpt lat="51.578841" lon="03.829766"><ele>18.3</ele><time>2022-11-15T13:39:56Z</time><name>PT8503</name></trkpt>
<trkpt lat="51.578851" lon="03.829775"><ele>18.7</ele><time>2022-11-15T13:39:58Z</time><name>PT8504</name></trkpt>
<trkpt lat="51.578862" lon="03.829789"><ele>18.7</ele><time>2022-11-15T13:39:58Z</time><name>PT8505</name></trkpt>
<trkpt lat="51.578871" lon="03.829805"><ele>18.7</ele><time>2022-11-15T13:40:00Z</time><name>PT8506</name></trkpt>
<trkpt lat="51.578880" lon="03.829819"><ele>18.7</ele><time>2022-11-15T13:40:00Z</time><name>PT8507</name></trkpt>
<trkpt lat="51.578890" lon="03.829825"><ele>18.6</ele><time>2022-11-15T13:40:02Z</time><name>PT8508</name></trkpt>
<trkpt lat="51.578900" lon="03.829830"><ele>18.5</ele><time>2022-11-15T13:40:02Z</time><name>PT8509</name></trkpt>
<trkpt lat="51.578909" lon="03.829835"><ele>18.3</ele><time>2022-11-15T13:40:04Z</time><name>PT8510</name></trkpt>
<trkpt lat="51.578917" lon="03.829841"><ele>18.2</ele><time>2022-11-15T13:40:04Z</time><name>PT8511</name></trkpt>
<trkpt lat="51.578926" lon="03.829851"><ele>18.2</ele><time>2022-11-15T13:40:06Z</time><name>PT8512</name></trkpt>
<trkpt lat="51.578934" lon="03.829865"><ele>18.2</ele><time>2022-11-15T13:40:06Z</time><name>PT8513</name></trkpt>
<trkpt lat="51.578943" lon="03.829879"><ele>18.2</ele><time>2022-11-15T13:40:08Z</time><name>PT8514</name></trkpt>
<trkpt lat="51.578955" lon="03.829888"><ele>18.3</ele><time>2022-11-15T13:40:08Z</time><name>PT8515</name></trkpt>
<trkpt lat="51.578964" lon="03.829894"><ele>18.4</ele><time>2022-11-15T13:40:10Z</time><name>PT8516</name></trkpt>
<trkpt lat="51.578973" lon="03.829899"><ele>18.2</ele><time>2022-11-15T13:40:10Z</time><name>PT8517</name></trkpt>
<trkpt lat="51.578983" lon="03.829906"><ele>18</ele><time>2022-11-15T13:40:12Z</time><name>PT8518</name></trkpt>
<trkpt lat="51.578992" lon="03.829917"><ele>17.8</ele><time>2022-11-15T13:40:12Z</time><name>PT8519</name></trkpt>
<trkpt lat="51.579003" lon="03.829932"><ele>17.8</ele><time>2022-11-15T13:40:14Z</time><name>PT8520</name></trkpt>
<trkpt lat="51.579015" lon="03.829945"><ele>17.7</ele><time>2022-11-15T13:40:14Z</time><name>PT8521</name></trkpt>
<trkpt lat="51.579025" lon="03.829954"><ele>18</ele><time>2022-11-15T13:40:16Z</time><name>PT8522</name></trkpt>
<trkpt lat="51.579033" lon="03.829961"><ele>18.2</ele><time>2022-11-15T13:40:16Z</time><name>PT8523</name></trkpt>
<trkpt lat="51.579038" lon="03.829963"><ele>18.1</ele><time>2022-11-15T13:40:18Z</time><name>PT8524</name></trkpt>
<trkpt lat="51.579043" lon="03.829965"><ele>18</ele><time>2022-11-15T13:40:18Z</time><name>PT8525</name></trkpt>
<trkpt lat="51.579051" lon="03.829976"><ele>18.1</ele><time>2022-11-15T13:40:20Z</time><name>PT8526</name></trkpt>
<trkpt lat="51.579061" lon="03.829990"><ele>18</ele><time>2022-11-15T13:40:20Z</time><name>PT8527</name></trkpt>
<trkpt lat="51.579073" lon="03.830002"><ele>17.8</ele><time>2022-11-15T13:40:22Z</time><name>PT8528</name></trkpt>
<trkpt lat="51.579083" lon="03.830009"><ele>17.8</ele><time>2022-11-15T13:40:22Z</time><name>PT8529</name></trkpt>
<trkpt lat="51.579090" lon="03.830014"><ele>18.1</ele><time>2022-11-15T13:40:24Z</time><name>PT8530</name></trkpt>
<trkpt lat="51.579098" lon="03.830019"><ele>18</ele><time>2022-11-15T13:40:24Z</time><name>PT8531</name></trkpt>
<trkpt lat="51.579105" lon="03.830024"><ele>18.1</ele><time>2022-11-15T13:40:26Z</time><name>PT8532</name></trkpt>
<trkpt lat="51.579113" lon="03.830032"><ele>18</ele><time>2022-11-15T13:40:26Z</time><name>PT8533</name></trkpt>
<trkpt lat="51.579125" lon="03.830042"><ele>18.1</ele><time>2022-11-15T13:40:28Z</time><name>PT8534</name></trkpt>
<trkpt lat="51.579139" lon="03.830053"><ele>17.9</ele><time>2022-11-15T13:40:28Z</time><name>PT8535</name></trkpt>
<trkpt lat="51.579148" lon="03.830059"><ele>18.1</ele><time>2022-11-15T13:40:30Z</time><name>PT8536</name></trkpt>
<trkpt lat="51.579152" lon="03.830061"><ele>18.2</ele><time>2022-11-15T13:40:30Z</time><name>PT8537</name></trkpt>
<trkpt lat="51.579159" lon="03.830064"><ele>18.2</ele><time>2022-11-15T13:40:32Z</time><name>PT8538</name></trkpt>
<trkpt lat="51.579166" lon="03.830073"><ele>18.2</ele><time>2022-11-15T13:40:32Z</time><name>PT8539</name></trkpt>
<trkpt lat="51.579176" lon="03.830088"><ele>18.4</ele><time>2022-11-15T13:40:34Z</time><name>PT8540</name></trkpt>
<trkpt lat="51.579190" lon="03.830107"><ele>18.5</ele><time>2022-11-15T13:40:34Z</time><name>PT8541</name></trkpt>
<trkpt lat="51.579204" lon="03.830123"><ele>18.3</ele><time>2022-11-15T13:40:36Z</time><name>PT8542</name></trkpt>
<trkpt lat="51.579212" lon="03.830130"><ele>18.4</ele><time>2022-11-15T13:40:36Z</time><name>PT8543</name></trkpt>
<trkpt lat="51.579215" lon="03.830131"><ele>18.3</ele><time>2022-11-15T13:40:38Z</time><name>PT8544</name></trkpt>
<trkpt lat="51.579218" lon="03.830133"><ele>18.3</ele><time>2022-11-15T13:40:38Z</time><name>PT8545</name></trkpt>
<trkpt lat="51.579225" lon="03.830140"><ele>18.4</ele><time>2022-11-15T13:40:40Z</time><name>PT8546</name></trkpt>
<trkpt lat="51.579234" lon="03.830157"><ele>18.6</ele><time>2022-11-15T13:40:40Z</time><name>PT8547</name></trkpt>
<trkpt lat="51.579249" lon="03.830175"><ele>18.7</ele><time>2022-11-15T13:40:42Z</time><name>PT8548</name></trkpt>
<trkpt lat="51.579260" lon="03.830185"><ele>18.7</ele><time>2022-11-15T13:40:43Z</time><name>PT8549</name></trkpt>
<trkpt lat="51.579267" lon="03.830190"><ele>18.5</ele><time>2022-11-15T13:40:44Z</time><name>PT8550</name></trkpt>
<trkpt lat="51.579272" lon="03.830193"><ele>18.3</ele><time>2022-11-15T13:40:44Z</time><name>PT8551</name></trkpt>
<trkpt lat="51.579277" lon="03.830199"><ele>18.1</ele><time>2022-11-15T13:40:46Z</time><name>PT8552</name></trkpt>
<trkpt lat="51.579287" lon="03.830216"><ele>17.9</ele><time>2022-11-15T13:40:46Z</time><name>PT8553</name></trkpt>
<trkpt lat="51.579301" lon="03.830231"><ele>17.7</ele><time>2022-11-15T13:40:48Z</time><name>PT8554</name></trkpt>
<trkpt lat="51.579311" lon="03.830240"><ele>17.7</ele><time>2022-11-15T13:40:48Z</time><name>PT8555</name></trkpt>
<trkpt lat="51.579317" lon="03.830243"><ele>17.8</ele><time>2022-11-15T13:40:50Z</time><name>PT8556</name></trkpt>
<trkpt lat="51.579322" lon="03.830246"><ele>17.9</ele><time>2022-11-15T13:40:50Z</time><name>PT8557</name></trkpt>
<trkpt lat="51.579333" lon="03.830254"><ele>18.2</ele><time>2022-11-15T13:40:52Z</time><name>PT8558</name></trkpt>
<trkpt lat="51.579350" lon="03.830269"><ele>18.2</ele><time>2022-11-15T13:40:52Z</time><name>PT8559</name></trkpt>
<trkpt lat="51.579362" lon="03.830281"><ele>18.4</ele><time>2022-11-15T13:40:54Z</time><name>PT8560</name></trkpt>
<trkpt lat="51.579367" lon="03.830285"><ele>18.6</ele><time>2022-11-15T13:40:54Z</time><name>PT8561</name></trkpt>
<trkpt lat="51.579370" lon="03.830287"><ele>18.7</ele><time>2022-11-15T13:40:56Z</time><name>PT8562</name></trkpt>
<trkpt lat="51.579374" lon="03.830294"><ele>18.7</ele><time>2022-11-15T13:40:56Z</time><name>PT8563</name></trkpt>
<trkpt lat="51.579385" lon="03.830308"><ele>18.8</ele><time>2022-11-15T13:40:58Z</time><name>PT8564</name></trkpt>
<trkpt lat="51.579400" lon="03.830324"><ele>18.9</ele><time>2022-11-15T13:40:58Z</time><name>PT8565</name></trkpt>
<trkpt lat="51.579412" lon="03.830332"><ele>19</ele><time>2022-11-15T13:41:00Z</time><name>PT8566</name></trkpt>
<trkpt lat="51.579418" lon="03.830336"><ele>19</ele><time>2022-11-15T13:41:00Z</time><name>PT8567</name></trkpt>
<trkpt lat="51.579423" lon="03.830337"><ele>19</ele><time>2022-11-15T13:41:02Z</time><name>PT8568</name></trkpt>
<trkpt lat="51.579427" lon="03.830342"><ele>18.7</ele><time>2022-11-15T13:41:02Z</time><name>PT8569</name></trkpt>
<trkpt lat="51.579433" lon="03.830349"><ele>18.7</ele><time>2022-11-15T13:41:04Z</time><name>PT8570</name></trkpt>
<trkpt lat="51.579446" lon="03.830362"><ele>18.5</ele><time>2022-11-15T13:41:04Z</time><name>PT8571</name></trkpt>
<trkpt lat="51.579460" lon="03.830377"><ele>18.5</ele><time>2022-11-15T13:41:06Z</time><name>PT8572</name></trkpt>
<trkpt lat="51.579473" lon="03.830389"><ele>18.5</ele><time>2022-11-15T13:41:06Z</time><name>PT8573</name></trkpt>
<trkpt lat="51.579479" lon="03.830393"><ele>18.6</ele><time>2022-11-15T13:41:08Z</time><name>PT8574</name></trkpt>
<trkpt lat="51.579483" lon="03.830395"><ele>18.6</ele><time>2022-11-15T13:41:09Z</time><name>PT8575</name></trkpt>
<trkpt lat="51.579489" lon="03.830398"><ele>18.4</ele><time>2022-11-15T13:41:10Z</time><name>PT8576</name></trkpt>
<trkpt lat="51.579497" lon="03.830406"><ele>18.2</ele><time>2022-11-15T13:41:11Z</time><name>PT8577</name></trkpt>
<trkpt lat="51.579513" lon="03.830421"><ele>18.1</ele><time>2022-11-15T13:41:12Z</time><name>PT8578</name></trkpt>
<trkpt lat="51.579527" lon="03.830436"><ele>18.1</ele><time>2022-11-15T13:41:13Z</time><name>PT8579</name></trkpt>
<trkpt lat="51.579539" lon="03.830444"><ele>18.2</ele><time>2022-11-15T13:41:14Z</time><name>PT8580</name></trkpt>
<trkpt lat="51.579547" lon="03.830450"><ele>18.2</ele><time>2022-11-15T13:41:14Z</time><name>PT8581</name></trkpt>
<trkpt lat="51.579549" lon="03.830456"><ele>18.4</ele><time>2022-11-15T13:41:16Z</time><name>PT8582</name></trkpt>
<trkpt lat="51.579558" lon="03.830461"><ele>18.3</ele><time>2022-11-15T13:41:16Z</time><name>PT8583</name></trkpt>
<trkpt lat="51.579567" lon="03.830469"><ele>18.3</ele><time>2022-11-15T13:41:18Z</time><name>PT8584</name></trkpt>
<trkpt lat="51.579576" lon="03.830478"><ele>18.3</ele><time>2022-11-15T13:41:18Z</time><name>PT8585</name></trkpt>
<trkpt lat="51.579585" lon="03.830487"><ele>18.3</ele><time>2022-11-15T13:41:20Z</time><name>PT8586</name></trkpt>
<trkpt lat="51.579594" lon="03.830496"><ele>18.4</ele><time>2022-11-15T13:41:20Z</time><name>PT8587</name></trkpt>
<trkpt lat="51.579603" lon="03.830503"><ele>18.7</ele><time>2022-11-15T13:41:22Z</time><name>PT8588</name></trkpt>
<trkpt lat="51.579613" lon="03.830509"><ele>18.9</ele><time>2022-11-15T13:41:22Z</time><name>PT8589</name></trkpt>
<trkpt lat="51.579622" lon="03.830513"><ele>18.9</ele><time>2022-11-15T13:41:24Z</time><name>PT8590</name></trkpt>
<trkpt lat="51.579630" lon="03.830518"><ele>18.9</ele><time>2022-11-15T13:41:24Z</time><name>PT8591</name></trkpt>
<trkpt lat="51.579640" lon="03.830527"><ele>18.7</ele><time>2022-11-15T13:41:26Z</time><name>PT8592</name></trkpt>
<trkpt lat="51.579648" lon="03.830537"><ele>18.5</ele><time>2022-11-15T13:41:26Z</time><name>PT8593</name></trkpt>
<trkpt lat="51.579656" lon="03.830545"><ele>18.3</ele><time>2022-11-15T13:41:28Z</time><name>PT8594</name></trkpt>
<trkpt lat="51.579665" lon="03.830554"><ele>18.2</ele><time>2022-11-15T13:41:28Z</time><name>PT8595</name></trkpt>
<trkpt lat="51.579674" lon="03.830560"><ele>18.2</ele><time>2022-11-15T13:41:30Z</time><name>PT8596</name></trkpt>
<trkpt lat="51.579683" lon="03.830566"><ele>18.3</ele><time>2022-11-15T13:41:30Z</time><name>PT8597</name></trkpt>
<trkpt lat="51.579691" lon="03.830573"><ele>18.2</ele><time>2022-11-15T13:41:32Z</time><name>PT8598</name></trkpt>
<trkpt lat="51.579700" lon="03.830583"><ele>18.4</ele><time>2022-11-15T13:41:32Z</time><name>PT8599</name></trkpt>
<trkpt lat="51.579709" lon="03.830593"><ele>18.6</ele><time>2022-11-15T13:41:34Z</time><name>PT8600</name></trkpt>
<trkpt lat="51.579717" lon="03.830603"><ele>18.3</ele><time>2022-11-15T13:41:34Z</time><name>PT8601</name></trkpt>
<trkpt lat="51.579725" lon="03.830613"><ele>18.3</ele><time>2022-11-15T13:41:36Z</time><name>PT8602</name></trkpt>
<trkpt lat="51.579734" lon="03.830617"><ele>18.3</ele><time>2022-11-15T13:41:36Z</time><name>PT8603</name></trkpt>
<trkpt lat="51.579743" lon="03.830621"><ele>18</ele><time>2022-11-15T13:41:38Z</time><name>PT8604</name></trkpt>
<trkpt lat="51.579751" lon="03.830624"><ele>17.9</ele><time>2022-11-15T13:41:38Z</time><name>PT8605</name></trkpt>
<trkpt lat="51.579759" lon="03.830635"><ele>17.9</ele><time>2022-11-15T13:41:40Z</time><name>PT8606</name></trkpt>
<trkpt lat="51.579772" lon="03.830648"><ele>18.1</ele><time>2022-11-15T13:41:41Z</time><name>PT8607</name></trkpt>
<trkpt lat="51.579788" lon="03.830663"><ele>18.2</ele><time>2022-11-15T13:41:42Z</time><name>PT8608</name></trkpt>
<trkpt lat="51.579801" lon="03.830674"><ele>18.3</ele><time>2022-11-15T13:41:43Z</time><name>PT8609</name></trkpt>
<trkpt lat="51.579808" lon="03.830682"><ele>18.2</ele><time>2022-11-15T13:41:44Z</time><name>PT8610</name></trkpt>
<trkpt lat="51.579813" lon="03.830685"><ele>18.2</ele><time>2022-11-15T13:41:45Z</time><name>PT8611</name></trkpt>
<trkpt lat="51.579815" lon="03.830689"><ele>18.1</ele><time>2022-11-15T13:41:46Z</time><name>PT8612</name></trkpt>
<trkpt lat="51.579824" lon="03.830703"><ele>17.9</ele><time>2022-11-15T13:41:47Z</time><name>PT8613</name></trkpt>
<trkpt lat="51.579840" lon="03.830721"><ele>17.7</ele><time>2022-11-15T13:41:48Z</time><name>PT8614</name></trkpt>
<trkpt lat="51.579854" lon="03.830734"><ele>17.7</ele><time>2022-11-15T13:41:48Z</time><name>PT8615</name></trkpt>
<trkpt lat="51.579861" lon="03.830740"><ele>17.6</ele><time>2022-11-15T13:41:50Z</time><name>PT8616</name></trkpt>
<trkpt lat="51.579865" lon="03.830742"><ele>17.4</ele><time>2022-11-15T13:41:51Z</time><name>PT8617</name></trkpt>
<trkpt lat="51.579871" lon="03.830748"><ele>17.7</ele><time>2022-11-15T13:41:52Z</time><name>PT8618</name></trkpt>
<trkpt lat="51.579879" lon="03.830759"><ele>17.8</ele><time>2022-11-15T13:41:53Z</time><name>PT8619</name></trkpt>
<trkpt lat="51.579888" lon="03.830774"><ele>17.9</ele><time>2022-11-15T13:41:54Z</time><name>PT8620</name></trkpt>
<trkpt lat="51.579900" lon="03.830787"><ele>18.1</ele><time>2022-11-15T13:41:54Z</time><name>PT8621</name></trkpt>
<trkpt lat="51.579906" lon="03.830790"><ele>18</ele><time>2022-11-15T13:41:56Z</time><name>PT8622</name></trkpt>
<trkpt lat="51.579908" lon="03.830791"><ele>18.2</ele><time>2022-11-15T13:41:56Z</time><name>PT8623</name></trkpt>
<trkpt lat="51.579911" lon="03.830795"><ele>18.2</ele><time>2022-11-15T13:41:58Z</time><name>PT8624</name></trkpt>
<trkpt lat="51.579919" lon="03.830808"><ele>18.1</ele><time>2022-11-15T13:41:58Z</time><name>PT8625</name></trkpt>
<trkpt lat="51.579934" lon="03.830825"><ele>18.1</ele><time>2022-11-15T13:42:00Z</time><name>PT8626</name></trkpt>
<trkpt lat="51.579947" lon="03.830837"><ele>18.1</ele><time>2022-11-15T13:42:00Z</time><name>PT8627</name></trkpt>
<trkpt lat="51.579952" lon="03.830841"><ele>18</ele><time>2022-11-15T13:42:02Z</time><name>PT8628</name></trkpt>
<trkpt lat="51.579956" lon="03.830844"><ele>18</ele><time>2022-11-15T13:42:02Z</time><name>PT8629</name></trkpt>
<trkpt lat="51.579961" lon="03.830850"><ele>18.2</ele><time>2022-11-15T13:42:04Z</time><name>PT8630</name></trkpt>
<trkpt lat="51.579973" lon="03.830864"><ele>18.2</ele><time>2022-11-15T13:42:04Z</time><name>PT8631</name></trkpt>
<trkpt lat="51.579991" lon="03.830883"><ele>18.3</ele><time>2022-11-15T13:42:06Z</time><name>PT8632</name></trkpt>
<trkpt lat="51.580008" lon="03.830901"><ele>18.7</ele><time>2022-11-15T13:42:06Z</time><name>PT8633</name></trkpt>
<trkpt lat="51.580023" lon="03.830912"><ele>18.8</ele><time>2022-11-15T13:42:08Z</time><name>PT8634</name></trkpt>
<trkpt lat="51.580031" lon="03.830916"><ele>18.7</ele><time>2022-11-15T13:42:08Z</time><name>PT8635</name></trkpt>
<trkpt lat="51.580034" lon="03.830918"><ele>18.6</ele><time>2022-11-15T13:42:10Z</time><name>PT8636</name></trkpt>
<trkpt lat="51.580035" lon="03.830922"><ele>18.4</ele><time>2022-11-15T13:42:10Z</time><name>PT8637</name></trkpt>
<trkpt lat="51.580041" lon="03.830932"><ele>18.2</ele><time>2022-11-15T13:42:12Z</time><name>PT8638</name></trkpt>
<trkpt lat="51.580056" lon="03.830946"><ele>18.2</ele><time>2022-11-15T13:42:12Z</time><name>PT8639</name></trkpt>
<trkpt lat="51.580069" lon="03.830960"><ele>18.2</ele><time>2022-11-15T13:42:14Z</time><name>PT8640</name></trkpt>
<trkpt lat="51.580078" lon="03.830969"><ele>18.2</ele><time>2022-11-15T13:42:14Z</time><name>PT8641</name></trkpt>
<trkpt lat="51.580084" lon="03.830971"><ele>18.1</ele><time>2022-11-15T13:42:16Z</time><name>PT8642</name></trkpt>
<trkpt lat="51.580086" lon="03.830972"><ele>18</ele><time>2022-11-15T13:42:16Z</time><name>PT8643</name></trkpt>
<trkpt lat="51.580088" lon="03.830978"><ele>17.8</ele><time>2022-11-15T13:42:18Z</time><name>PT8644</name></trkpt>
<trkpt lat="51.580098" lon="03.830985"><ele>17.9</ele><time>2022-11-15T13:42:18Z</time><name>PT8645</name></trkpt>
<trkpt lat="51.580115" lon="03.831001"><ele>18.2</ele><time>2022-11-15T13:42:20Z</time><name>PT8646</name></trkpt>
<trkpt lat="51.580128" lon="03.831011"><ele>18.3</ele><time>2022-11-15T13:42:20Z</time><name>PT8647</name></trkpt>
<trkpt lat="51.580136" lon="03.831015"><ele>18.3</ele><time>2022-11-15T13:42:22Z</time><name>PT8648</name></trkpt>
<trkpt lat="51.580139" lon="03.831016"><ele>18.5</ele><time>2022-11-15T13:42:22Z</time><name>PT8649</name></trkpt>
<trkpt lat="51.580143" lon="03.831018"><ele>18.6</ele><time>2022-11-15T13:42:24Z</time><name>PT8650</name></trkpt>
<trkpt lat="51.580149" lon="03.831023"><ele>18.4</ele><time>2022-11-15T13:42:24Z</time><name>PT8651</name></trkpt>
<trkpt lat="51.580158" lon="03.831037"><ele>18.3</ele><time>2022-11-15T13:42:26Z</time><name>PT8652</name></trkpt>
<trkpt lat="51.580171" lon="03.831057"><ele>18.2</ele><time>2022-11-15T13:42:26Z</time><name>PT8653</name></trkpt>
<trkpt lat="51.580189" lon="03.831075"><ele>18.2</ele><time>2022-11-15T13:42:28Z</time><name>PT8654</name></trkpt>
<trkpt lat="51.580199" lon="03.831082"><ele>18.2</ele><time>2022-11-15T13:42:28Z</time><name>PT8655</name></trkpt>
<trkpt lat="51.580201" lon="03.831081"><ele>18.2</ele><time>2022-11-15T13:42:30Z</time><name>PT8656</name></trkpt>
<trkpt lat="51.580203" lon="03.831082"><ele>18.3</ele><time>2022-11-15T13:42:30Z</time><name>PT8657</name></trkpt>
<trkpt lat="51.580214" lon="03.831095"><ele>18.2</ele><time>2022-11-15T13:42:32Z</time><name>PT8658</name></trkpt>
<trkpt lat="51.580229" lon="03.831111"><ele>18.3</ele><time>2022-11-15T13:42:32Z</time><name>PT8659</name></trkpt>
<trkpt lat="51.580246" lon="03.831125"><ele>18.3</ele><time>2022-11-15T13:42:34Z</time><name>PT8660</name></trkpt>
<trkpt lat="51.580257" lon="03.831135"><ele>18.2</ele><time>2022-11-15T13:42:34Z</time><name>PT8661</name></trkpt>
<trkpt lat="51.580261" lon="03.831136"><ele>18.3</ele><time>2022-11-15T13:42:36Z</time><name>PT8662</name></trkpt>
<trkpt lat="51.580264" lon="03.831134"><ele>18.3</ele><time>2022-11-15T13:42:36Z</time><name>PT8663</name></trkpt>
<trkpt lat="51.580267" lon="03.831140"><ele>18.4</ele><time>2022-11-15T13:42:38Z</time><name>PT8664</name></trkpt>
<trkpt lat="51.580279" lon="03.831155"><ele>18.4</ele><time>2022-11-15T13:42:38Z</time><name>PT8665</name></trkpt>
<trkpt lat="51.580297" lon="03.831173"><ele>18.3</ele><time>2022-11-15T13:42:40Z</time><name>PT8666</name></trkpt>
<trkpt lat="51.580312" lon="03.831185"><ele>18.2</ele><time>2022-11-15T13:42:40Z</time><name>PT8667</name></trkpt>
<trkpt lat="51.580318" lon="03.831188"><ele>18.2</ele><time>2022-11-15T13:42:42Z</time><name>PT8668</name></trkpt>
<trkpt lat="51.580318" lon="03.831186"><ele>18.1</ele><time>2022-11-15T13:42:43Z</time><name>PT8669</name></trkpt>
<trkpt lat="51.580318" lon="03.831188"><ele>17.8</ele><time>2022-11-15T13:42:44Z</time><name>PT8670</name></trkpt>
<trkpt lat="51.580314" lon="03.831190"><ele>17.9</ele><time>2022-11-15T13:42:44Z</time><name>PT8671</name></trkpt>
<trkpt lat="51.580319" lon="03.831193"><ele>17.7</ele><time>2022-11-15T13:42:46Z</time><name>PT8672</name></trkpt>
<trkpt lat="51.580339" lon="03.831208"><ele>17.8</ele><time>2022-11-15T13:42:46Z</time><name>PT8673</name></trkpt>
<trkpt lat="51.580351" lon="03.831219"><ele>17.7</ele><time>2022-11-15T13:42:48Z</time><name>PT8674</name></trkpt>
<trkpt lat="51.580361" lon="03.831226"><ele>18</ele><time>2022-11-15T13:42:49Z</time><name>PT8675</name></trkpt>
<trkpt lat="51.580372" lon="03.831231"><ele>18.2</ele><time>2022-11-15T13:42:50Z</time><name>PT8676</name></trkpt>
<trkpt lat="51.580383" lon="03.831235"><ele>18.2</ele><time>2022-11-15T13:42:51Z</time><name>PT8677</name></trkpt>
<trkpt lat="51.580393" lon="03.831234"><ele>18.3</ele><time>2022-11-15T13:42:52Z</time><name>PT8678</name></trkpt>
<trkpt lat="51.580394" lon="03.831234"><ele>18.2</ele><time>2022-11-15T13:42:52Z</time><name>PT8679</name></trkpt>
<trkpt lat="51.580395" lon="03.831238"><ele>18.1</ele><time>2022-11-15T13:42:54Z</time><name>PT8680</name></trkpt>
<trkpt lat="51.580400" lon="03.831248"><ele>18.1</ele><time>2022-11-15T13:42:55Z</time><name>PT8681</name></trkpt>
<trkpt lat="51.580417" lon="03.831269"><ele>18.2</ele><time>2022-11-15T13:42:56Z</time><name>PT8682</name></trkpt>
<trkpt lat="51.580438" lon="03.831289"><ele>18.2</ele><time>2022-11-15T13:42:56Z</time><name>PT8683</name></trkpt>
<trkpt lat="51.580454" lon="03.831301"><ele>18.3</ele><time>2022-11-15T13:42:58Z</time><name>PT8684</name></trkpt>
<trkpt lat="51.580463" lon="03.831307"><ele>18.4</ele><time>2022-11-15T13:42:58Z</time><name>PT8685</name></trkpt>
<trkpt lat="51.580470" lon="03.831309"><ele>18.6</ele><time>2022-11-15T13:43:00Z</time><name>PT8686</name></trkpt>
<trkpt lat="51.580472" lon="03.831310"><ele>18.6</ele><time>2022-11-15T13:43:00Z</time><name>PT8687</name></trkpt>
<trkpt lat="51.580473" lon="03.831314"><ele>18.6</ele><time>2022-11-15T13:43:02Z</time><name>PT8688</name></trkpt>
<trkpt lat="51.580476" lon="03.831320"><ele>18.6</ele><time>2022-11-15T13:43:02Z</time><name>PT8689</name></trkpt>
<trkpt lat="51.580487" lon="03.831335"><ele>18.3</ele><time>2022-11-15T13:43:04Z</time><name>PT8690</name></trkpt>
<trkpt lat="51.580503" lon="03.831356"><ele>18.2</ele><time>2022-11-15T13:43:04Z</time><name>PT8691</name></trkpt>
<trkpt lat="51.580525" lon="03.831379"><ele>18.2</ele><time>2022-11-15T13:43:06Z</time><name>PT8692</name></trkpt>
<trkpt lat="51.580549" lon="03.831402"><ele>18.2</ele><time>2022-11-15T13:43:06Z</time><name>PT8693</name></trkpt>
<trkpt lat="51.580574" lon="03.831418"><ele>18.2</ele><time>2022-11-15T13:43:08Z</time><name>PT8694</name></trkpt>
<trkpt lat="51.580595" lon="03.831435"><ele>18.5</ele><time>2022-11-15T13:43:08Z</time><name>PT8695</name></trkpt>
<trkpt lat="51.580609" lon="03.831446"><ele>18.4</ele><time>2022-11-15T13:43:10Z</time><name>PT8696</name></trkpt>
<trkpt lat="51.580618" lon="03.831454"><ele>18.4</ele><time>2022-11-15T13:43:10Z</time><name>PT8697</name></trkpt>
<trkpt lat="51.580622" lon="03.831455"><ele>18.7</ele><time>2022-11-15T13:43:12Z</time><name>PT8698</name></trkpt>
<trkpt lat="51.580623" lon="03.831454"><ele>18.8</ele><time>2022-11-15T13:43:12Z</time><name>PT8699</name></trkpt>
<trkpt lat="51.580624" lon="03.831457"><ele>18.6</ele><time>2022-11-15T13:43:14Z</time><name>PT8700</name></trkpt>
<trkpt lat="51.580621" lon="03.831462"><ele>18.5</ele><time>2022-11-15T13:43:14Z</time><name>PT8701</name></trkpt>
<trkpt lat="51.580624" lon="03.831469"><ele>18.6</ele><time>2022-11-15T13:43:16Z</time><name>PT8702</name></trkpt>
<trkpt lat="51.580635" lon="03.831484"><ele>18.3</ele><time>2022-11-15T13:43:16Z</time><name>PT8703</name></trkpt>
<trkpt lat="51.580656" lon="03.831502"><ele>18.2</ele><time>2022-11-15T13:43:18Z</time><name>PT8704</name></trkpt>
<trkpt lat="51.580678" lon="03.831520"><ele>18.4</ele><time>2022-11-15T13:43:18Z</time><name>PT8705</name></trkpt>
<trkpt lat="51.580698" lon="03.831536"><ele>18.4</ele><time>2022-11-15T13:43:20Z</time><name>PT8706</name></trkpt>
<trkpt lat="51.580713" lon="03.831548"><ele>18.4</ele><time>2022-11-15T13:43:20Z</time><name>PT8707</name></trkpt>
<trkpt lat="51.580722" lon="03.831550"><ele>18.4</ele><time>2022-11-15T13:43:22Z</time><name>PT8708</name></trkpt>
<trkpt lat="51.580727" lon="03.831552"><ele>18.5</ele><time>2022-11-15T13:43:22Z</time><name>PT8709</name></trkpt>
<trkpt lat="51.580727" lon="03.831552"><ele>18.5</ele><time>2022-11-15T13:43:24Z</time><name>PT8710</name></trkpt>
<trkpt lat="51.580729" lon="03.831557"><ele>18.3</ele><time>2022-11-15T13:43:24Z</time><name>PT8711</name></trkpt>
<trkpt lat="51.580735" lon="03.831566"><ele>18.4</ele><time>2022-11-15T13:43:26Z</time><name>PT8712</name></trkpt>
<trkpt lat="51.580749" lon="03.831575"><ele>18.5</ele><time>2022-11-15T13:43:26Z</time><name>PT8713</name></trkpt>
<trkpt lat="51.580761" lon="03.831585"><ele>18.5</ele><time>2022-11-15T13:43:28Z</time><name>PT8714</name></trkpt>
<trkpt lat="51.580770" lon="03.831596"><ele>18.5</ele><time>2022-11-15T13:43:28Z</time><name>PT8715</name></trkpt>
<trkpt lat="51.580770" lon="03.831602"><ele>18.7</ele><time>2022-11-15T13:43:30Z</time><name>PT8716</name></trkpt>
<trkpt lat="51.580772" lon="03.831607"><ele>18.7</ele><time>2022-11-15T13:43:30Z</time><name>PT8717</name></trkpt>
<trkpt lat="51.580782" lon="03.831622"><ele>18.6</ele><time>2022-11-15T13:43:32Z</time><name>PT8718</name></trkpt>
<trkpt lat="51.580798" lon="03.831642"><ele>18.7</ele><time>2022-11-15T13:43:32Z</time><name>PT8719</name></trkpt>
<trkpt lat="51.580813" lon="03.831655"><ele>18.7</ele><time>2022-11-15T13:43:34Z</time><name>PT8720</name></trkpt>
<trkpt lat="51.580823" lon="03.831662"><ele>18.7</ele><time>2022-11-15T13:43:34Z</time><name>PT8721</name></trkpt>
<trkpt lat="51.580830" lon="03.831666"><ele>18.9</ele><time>2022-11-15T13:43:36Z</time><name>PT8722</name></trkpt>
<trkpt lat="51.580837" lon="03.831673"><ele>18.9</ele><time>2022-11-15T13:43:36Z</time><name>PT8723</name></trkpt>
<trkpt lat="51.580845" lon="03.831675"><ele>18.9</ele><time>2022-11-15T13:43:38Z</time><name>PT8724</name></trkpt>
<trkpt lat="51.580848" lon="03.831676"><ele>18.9</ele><time>2022-11-15T13:43:38Z</time><name>PT8725</name></trkpt>
<trkpt lat="51.580852" lon="03.831679"><ele>19</ele><time>2022-11-15T13:43:40Z</time><name>PT8726</name></trkpt>
<trkpt lat="51.580862" lon="03.831689"><ele>18.9</ele><time>2022-11-15T13:43:40Z</time><name>PT8727</name></trkpt>
<trkpt lat="51.580876" lon="03.831707"><ele>19.2</ele><time>2022-11-15T13:43:42Z</time><name>PT8728</name></trkpt>
<trkpt lat="51.580891" lon="03.831729"><ele>19.4</ele><time>2022-11-15T13:43:42Z</time><name>PT8729</name></trkpt>
<trkpt lat="51.580905" lon="03.831744"><ele>19.5</ele><time>2022-11-15T13:43:44Z</time><name>PT8730</name></trkpt>
<trkpt lat="51.580915" lon="03.831750"><ele>19.4</ele><time>2022-11-15T13:43:44Z</time><name>PT8731</name></trkpt>
<trkpt lat="51.580923" lon="03.831757"><ele>19.5</ele><time>2022-11-15T13:43:46Z</time><name>PT8732</name></trkpt>
<trkpt lat="51.580927" lon="03.831761"><ele>19.3</ele><time>2022-11-15T13:43:46Z</time><name>PT8733</name></trkpt>
<trkpt lat="51.580934" lon="03.831762"><ele>19.2</ele><time>2022-11-15T13:43:48Z</time><name>PT8734</name></trkpt>
<trkpt lat="51.580947" lon="03.831771"><ele>19.2</ele><time>2022-11-15T13:43:48Z</time><name>PT8735</name></trkpt>
<trkpt lat="51.580959" lon="03.831785"><ele>19.2</ele><time>2022-11-15T13:43:50Z</time><name>PT8736</name></trkpt>
<trkpt lat="51.580973" lon="03.831794"><ele>19.1</ele><time>2022-11-15T13:43:50Z</time><name>PT8737</name></trkpt>
<trkpt lat="51.580981" lon="03.831802"><ele>19.1</ele><time>2022-11-15T13:43:52Z</time><name>PT8738</name></trkpt>
<trkpt lat="51.580988" lon="03.831807"><ele>18.9</ele><time>2022-11-15T13:43:52Z</time><name>PT8739</name></trkpt>
<trkpt lat="51.580995" lon="03.831812"><ele>19.1</ele><time>2022-11-15T13:43:54Z</time><name>PT8740</name></trkpt>
<trkpt lat="51.581002" lon="03.831820"><ele>19.1</ele><time>2022-11-15T13:43:54Z</time><name>PT8741</name></trkpt>
<trkpt lat="51.581008" lon="03.831829"><ele>19.1</ele><time>2022-11-15T13:43:56Z</time><name>PT8742</name></trkpt>
<trkpt lat="51.581015" lon="03.831838"><ele>19.2</ele><time>2022-11-15T13:43:56Z</time><name>PT8743</name></trkpt>
<trkpt lat="51.581025" lon="03.831851"><ele>19.1</ele><time>2022-11-15T13:43:58Z</time><name>PT8744</name></trkpt>
<trkpt lat="51.581038" lon="03.831867"><ele>19</ele><time>2022-11-15T13:43:58Z</time><name>PT8745</name></trkpt>
<trkpt lat="51.581050" lon="03.831880"><ele>18.7</ele><time>2022-11-15T13:44:00Z</time><name>PT8746</name></trkpt>
<trkpt lat="51.581060" lon="03.831887"><ele>18.8</ele><time>2022-11-15T13:44:00Z</time><name>PT8747</name></trkpt>
<trkpt lat="51.581071" lon="03.831892"><ele>18.7</ele><time>2022-11-15T13:44:02Z</time><name>PT8748</name></trkpt>
<trkpt lat="51.581076" lon="03.831895"><ele>18.7</ele><time>2022-11-15T13:44:02Z</time><name>PT8749</name></trkpt>
<trkpt lat="51.581080" lon="03.831898"><ele>18.7</ele><time>2022-11-15T13:44:04Z</time><name>PT8750</name></trkpt>
<trkpt lat="51.581085" lon="03.831904"><ele>18.8</ele><time>2022-11-15T13:44:04Z</time><name>PT8751</name></trkpt>
<trkpt lat="51.581091" lon="03.831912"><ele>18.8</ele><time>2022-11-15T13:44:06Z</time><name>PT8752</name></trkpt>
<trkpt lat="51.581102" lon="03.831924"><ele>18.9</ele><time>2022-11-15T13:44:06Z</time><name>PT8753</name></trkpt>
<trkpt lat="51.581117" lon="03.831940"><ele>18.8</ele><time>2022-11-15T13:44:08Z</time><name>PT8754</name></trkpt>
<trkpt lat="51.581133" lon="03.831953"><ele>18.7</ele><time>2022-11-15T13:44:08Z</time><name>PT8755</name></trkpt>
<trkpt lat="51.581146" lon="03.831963"><ele>18.7</ele><time>2022-11-15T13:44:10Z</time><name>PT8756</name></trkpt>
<trkpt lat="51.581155" lon="03.831970"><ele>18.7</ele><time>2022-11-15T13:44:10Z</time><name>PT8757</name></trkpt>
<trkpt lat="51.581162" lon="03.831975"><ele>18.8</ele><time>2022-11-15T13:44:12Z</time><name>PT8758</name></trkpt>
<trkpt lat="51.581166" lon="03.831978"><ele>18.8</ele><time>2022-11-15T13:44:12Z</time><name>PT8759</name></trkpt>
<trkpt lat="51.581170" lon="03.831982"><ele>19</ele><time>2022-11-15T13:44:14Z</time><name>PT8760</name></trkpt>
<trkpt lat="51.581178" lon="03.831992"><ele>18.8</ele><time>2022-11-15T13:44:14Z</time><name>PT8761</name></trkpt>
<trkpt lat="51.581181" lon="03.832002"><ele>18.7</ele><time>2022-11-15T13:44:16Z</time><name>PT8762</name></trkpt>
<trkpt lat="51.581179" lon="03.832004"><ele>18.6</ele><time>2022-11-15T13:44:16Z</time><name>PT8763</name></trkpt>
<trkpt lat="51.581177" lon="03.832004"><ele>18.5</ele><time>2022-11-15T13:44:18Z</time><name>PT8764</name></trkpt>
<trkpt lat="51.581179" lon="03.832002"><ele>18.5</ele><time>2022-11-15T13:44:18Z</time><name>PT8765</name></trkpt>
<trkpt lat="51.581179" lon="03.832004"><ele>18.7</ele><time>2022-11-15T13:44:20Z</time><name>PT8766</name></trkpt>
<trkpt lat="51.581187" lon="03.832012"><ele>18.9</ele><time>2022-11-15T13:44:20Z</time><name>PT8767</name></trkpt>
<trkpt lat="51.581200" lon="03.832023"><ele>18.9</ele><time>2022-11-15T13:44:22Z</time><name>PT8768</name></trkpt>
<trkpt lat="51.581211" lon="03.832029"><ele>19</ele><time>2022-11-15T13:44:22Z</time><name>PT8769</name></trkpt>
<trkpt lat="51.581217" lon="03.832032"><ele>19.1</ele><time>2022-11-15T13:44:24Z</time><name>PT8770</name></trkpt>
<trkpt lat="51.581220" lon="03.832036"><ele>19</ele><time>2022-11-15T13:44:24Z</time><name>PT8771</name></trkpt>
<trkpt lat="51.581224" lon="03.832041"><ele>18.8</ele><time>2022-11-15T13:44:26Z</time><name>PT8772</name></trkpt>
<trkpt lat="51.581230" lon="03.832049"><ele>18.9</ele><time>2022-11-15T13:44:26Z</time><name>PT8773</name></trkpt>
<trkpt lat="51.581238" lon="03.832059"><ele>18.9</ele><time>2022-11-15T13:44:28Z</time><name>PT8774</name></trkpt>
<trkpt lat="51.581248" lon="03.832070"><ele>18.8</ele><time>2022-11-15T13:44:28Z</time><name>PT8775</name></trkpt>
<trkpt lat="51.581261" lon="03.832085"><ele>18.8</ele><time>2022-11-15T13:44:30Z</time><name>PT8776</name></trkpt>
<trkpt lat="51.581276" lon="03.832098"><ele>18.7</ele><time>2022-11-15T13:44:30Z</time><name>PT8777</name></trkpt>
<trkpt lat="51.581288" lon="03.832106"><ele>18.7</ele><time>2022-11-15T13:44:32Z</time><name>PT8778</name></trkpt>
<trkpt lat="51.581294" lon="03.832111"><ele>18.8</ele><time>2022-11-15T13:44:32Z</time><name>PT8779</name></trkpt>
<trkpt lat="51.581299" lon="03.832115"><ele>18.8</ele><time>2022-11-15T13:44:34Z</time><name>PT8780</name></trkpt>
<trkpt lat="51.581302" lon="03.832121"><ele>18.9</ele><time>2022-11-15T13:44:34Z</time><name>PT8781</name></trkpt>
<trkpt lat="51.581307" lon="03.832129"><ele>19.2</ele><time>2022-11-15T13:44:36Z</time><name>PT8782</name></trkpt>
<trkpt lat="51.581318" lon="03.832144"><ele>19.2</ele><time>2022-11-15T13:44:36Z</time><name>PT8783</name></trkpt>
<trkpt lat="51.581332" lon="03.832158"><ele>18.8</ele><time>2022-11-15T13:44:38Z</time><name>PT8784</name></trkpt>
<trkpt lat="51.581348" lon="03.832168"><ele>18.8</ele><time>2022-11-15T13:44:39Z</time><name>PT8785</name></trkpt>
<trkpt lat="51.581363" lon="03.832179"><ele>18.7</ele><time>2022-11-15T13:44:40Z</time><name>PT8786</name></trkpt>
<trkpt lat="51.581374" lon="03.832185"><ele>18.7</ele><time>2022-11-15T13:44:40Z</time><name>PT8787</name></trkpt>
<trkpt lat="51.581382" lon="03.832193"><ele>18.7</ele><time>2022-11-15T13:44:42Z</time><name>PT8788</name></trkpt>
<trkpt lat="51.581389" lon="03.832199"><ele>18.7</ele><time>2022-11-15T13:44:42Z</time><name>PT8789</name></trkpt>
<trkpt lat="51.581396" lon="03.832209"><ele>18.7</ele><time>2022-11-15T13:44:44Z</time><name>PT8790</name></trkpt>
<trkpt lat="51.581403" lon="03.832219"><ele>18.9</ele><time>2022-11-15T13:44:45Z</time><name>PT8791</name></trkpt>
<trkpt lat="51.581411" lon="03.832229"><ele>18.7</ele><time>2022-11-15T13:44:46Z</time><name>PT8792</name></trkpt>
<trkpt lat="51.581419" lon="03.832238"><ele>18.6</ele><time>2022-11-15T13:44:46Z</time><name>PT8793</name></trkpt>
<trkpt lat="51.581427" lon="03.832245"><ele>18.7</ele><time>2022-11-15T13:44:48Z</time><name>PT8794</name></trkpt>
<trkpt lat="51.581436" lon="03.832252"><ele>18.9</ele><time>2022-11-15T13:44:48Z</time><name>PT8795</name></trkpt>
<trkpt lat="51.581444" lon="03.832258"><ele>19</ele><time>2022-11-15T13:44:50Z</time><name>PT8796</name></trkpt>
<trkpt lat="51.581453" lon="03.832264"><ele>19.2</ele><time>2022-11-15T13:44:50Z</time><name>PT8797</name></trkpt>
<trkpt lat="51.581461" lon="03.832270"><ele>19.3</ele><time>2022-11-15T13:44:52Z</time><name>PT8798</name></trkpt>
<trkpt lat="51.581469" lon="03.832276"><ele>19.5</ele><time>2022-11-15T13:44:52Z</time><name>PT8799</name></trkpt>
<trkpt lat="51.581476" lon="03.832283"><ele>19.2</ele><time>2022-11-15T13:44:54Z</time><name>PT8800</name></trkpt>
<trkpt lat="51.581484" lon="03.832292"><ele>19.2</ele><time>2022-11-15T13:44:54Z</time><name>PT8801</name></trkpt>
<trkpt lat="51.581491" lon="03.832300"><ele>19.2</ele><time>2022-11-15T13:44:56Z</time><name>PT8802</name></trkpt>
<trkpt lat="51.581500" lon="03.832308"><ele>18.9</ele><time>2022-11-15T13:44:56Z</time><name>PT8803</name></trkpt>
<trkpt lat="51.581508" lon="03.832316"><ele>18.7</ele><time>2022-11-15T13:44:58Z</time><name>PT8804</name></trkpt>
<trkpt lat="51.581517" lon="03.832324"><ele>18.8</ele><time>2022-11-15T13:44:58Z</time><name>PT8805</name></trkpt>
<trkpt lat="51.581525" lon="03.832333"><ele>18.9</ele><time>2022-11-15T13:45:00Z</time><name>PT8806</name></trkpt>
<trkpt lat="51.581534" lon="03.832339"><ele>18.7</ele><time>2022-11-15T13:45:00Z</time><name>PT8807</name></trkpt>
<trkpt lat="51.581543" lon="03.832346"><ele>18.8</ele><time>2022-11-15T13:45:02Z</time><name>PT8808</name></trkpt>
<trkpt lat="51.581551" lon="03.832353"><ele>18.9</ele><time>2022-11-15T13:45:02Z</time><name>PT8809</name></trkpt>
<trkpt lat="51.581559" lon="03.832359"><ele>19.2</ele><time>2022-11-15T13:45:04Z</time><name>PT8810</name></trkpt>
<trkpt lat="51.581568" lon="03.832364"><ele>19.1</ele><time>2022-11-15T13:45:04Z</time><name>PT8811</name></trkpt>
<trkpt lat="51.581577" lon="03.832372"><ele>19.1</ele><time>2022-11-15T13:45:06Z</time><name>PT8812</name></trkpt>
<trkpt lat="51.581585" lon="03.832381"><ele>19.2</ele><time>2022-11-15T13:45:06Z</time><name>PT8813</name></trkpt>
<trkpt lat="51.581594" lon="03.832391"><ele>19.1</ele><time>2022-11-15T13:45:08Z</time><name>PT8814</name></trkpt>
<trkpt lat="51.581603" lon="03.832400"><ele>18.8</ele><time>2022-11-15T13:45:08Z</time><name>PT8815</name></trkpt>
<trkpt lat="51.581611" lon="03.832409"><ele>18.7</ele><time>2022-11-15T13:45:10Z</time><name>PT8816</name></trkpt>
<trkpt lat="51.581620" lon="03.832417"><ele>18.8</ele><time>2022-11-15T13:45:10Z</time><name>PT8817</name></trkpt>
<trkpt lat="51.581630" lon="03.832423"><ele>18.7</ele><time>2022-11-15T13:45:12Z</time><name>PT8818</name></trkpt>
<trkpt lat="51.581639" lon="03.832430"><ele>18.7</ele><time>2022-11-15T13:45:12Z</time><name>PT8819</name></trkpt>
<trkpt lat="51.581649" lon="03.832437"><ele>18.9</ele><time>2022-11-15T13:45:14Z</time><name>PT8820</name></trkpt>
<trkpt lat="51.581657" lon="03.832446"><ele>18.9</ele><time>2022-11-15T13:45:14Z</time><name>PT8821</name></trkpt>
<trkpt lat="51.581666" lon="03.832454"><ele>19</ele><time>2022-11-15T13:45:16Z</time><name>PT8822</name></trkpt>
<trkpt lat="51.581671" lon="03.832457"><ele>19</ele><time>2022-11-15T13:45:16Z</time><name>PT8823</name></trkpt>
<trkpt lat="51.581678" lon="03.832462"><ele>19</ele><time>2022-11-15T13:45:18Z</time><name>PT8824</name></trkpt>
<trkpt lat="51.581693" lon="03.832479"><ele>18.7</ele><time>2022-11-15T13:45:18Z</time><name>PT8825</name></trkpt>
<trkpt lat="51.581703" lon="03.832493"><ele>18.9</ele><time>2022-11-15T13:45:20Z</time><name>PT8826</name></trkpt>
<trkpt lat="51.581711" lon="03.832505"><ele>19</ele><time>2022-11-15T13:45:20Z</time><name>PT8827</name></trkpt>
<trkpt lat="51.581720" lon="03.832518"><ele>18.9</ele><time>2022-11-15T13:45:22Z</time><name>PT8828</name></trkpt>
<trkpt lat="51.581729" lon="03.832527"><ele>19</ele><time>2022-11-15T13:45:22Z</time><name>PT8829</name></trkpt>
<trkpt lat="51.581739" lon="03.832533"><ele>19</ele><time>2022-11-15T13:45:24Z</time><name>PT8830</name></trkpt>
<trkpt lat="51.581749" lon="03.832540"><ele>19</ele><time>2022-11-15T13:45:24Z</time><name>PT8831</name></trkpt>
<trkpt lat="51.581758" lon="03.832548"><ele>18.8</ele><time>2022-11-15T13:45:26Z</time><name>PT8832</name></trkpt>
<trkpt lat="51.581768" lon="03.832556"><ele>18.9</ele><time>2022-11-15T13:45:26Z</time><name>PT8833</name></trkpt>
<trkpt lat="51.581777" lon="03.832566"><ele>18.9</ele><time>2022-11-15T13:45:28Z</time><name>PT8834</name></trkpt>
<trkpt lat="51.581786" lon="03.832577"><ele>19.1</ele><time>2022-11-15T13:45:28Z</time><name>PT8835</name></trkpt>
<trkpt lat="51.581796" lon="03.832586"><ele>19.2</ele><time>2022-11-15T13:45:30Z</time><name>PT8836</name></trkpt>
<trkpt lat="51.581803" lon="03.832593"><ele>18.8</ele><time>2022-11-15T13:45:30Z</time><name>PT8837</name></trkpt>
<trkpt lat="51.581811" lon="03.832596"><ele>18.9</ele><time>2022-11-15T13:45:32Z</time><name>PT8838</name></trkpt>
<trkpt lat="51.581821" lon="03.832603"><ele>18.8</ele><time>2022-11-15T13:45:32Z</time><name>PT8839</name></trkpt>
<trkpt lat="51.581831" lon="03.832612"><ele>18.8</ele><time>2022-11-15T13:45:34Z</time><name>PT8840</name></trkpt>
<trkpt lat="51.581840" lon="03.832621"><ele>18.8</ele><time>2022-11-15T13:45:34Z</time><name>PT8841</name></trkpt>
<trkpt lat="51.581850" lon="03.832630"><ele>19.1</ele><time>2022-11-15T13:45:36Z</time><name>PT8842</name></trkpt>
<trkpt lat="51.581859" lon="03.832639"><ele>19.1</ele><time>2022-11-15T13:45:36Z</time><name>PT8843</name></trkpt>
<trkpt lat="51.581869" lon="03.832646"><ele>18.8</ele><time>2022-11-15T13:45:38Z</time><name>PT8844</name></trkpt>
<trkpt lat="51.581880" lon="03.832653"><ele>18.6</ele><time>2022-11-15T13:45:38Z</time><name>PT8845</name></trkpt>
<trkpt lat="51.581890" lon="03.832660"><ele>18.4</ele><time>2022-11-15T13:45:40Z</time><name>PT8846</name></trkpt>
<trkpt lat="51.581897" lon="03.832667"><ele>18.3</ele><time>2022-11-15T13:45:40Z</time><name>PT8847</name></trkpt>
<trkpt lat="51.581901" lon="03.832675"><ele>18.2</ele><time>2022-11-15T13:45:42Z</time><name>PT8848</name></trkpt>
<trkpt lat="51.581906" lon="03.832683"><ele>18</ele><time>2022-11-15T13:45:42Z</time><name>PT8849</name></trkpt>
<trkpt lat="51.581913" lon="03.832690"><ele>18</ele><time>2022-11-15T13:45:44Z</time><name>PT8850</name></trkpt>
<trkpt lat="51.581925" lon="03.832702"><ele>18.1</ele><time>2022-11-15T13:45:44Z</time><name>PT8851</name></trkpt>
<trkpt lat="51.581939" lon="03.832717"><ele>17.7</ele><time>2022-11-15T13:45:46Z</time><name>PT8852</name></trkpt>
<trkpt lat="51.581950" lon="03.832729"><ele>17.7</ele><time>2022-11-15T13:45:46Z</time><name>PT8853</name></trkpt>
<trkpt lat="51.581958" lon="03.832737"><ele>17.7</ele><time>2022-11-15T13:45:48Z</time><name>PT8854</name></trkpt>
<trkpt lat="51.581963" lon="03.832744"><ele>17.5</ele><time>2022-11-15T13:45:48Z</time><name>PT8855</name></trkpt>
<trkpt lat="51.581967" lon="03.832750"><ele>17.4</ele><time>2022-11-15T13:45:50Z</time><name>PT8856</name></trkpt>
<trkpt lat="51.581974" lon="03.832756"><ele>17.2</ele><time>2022-11-15T13:45:50Z</time><name>PT8857</name></trkpt>
<trkpt lat="51.581985" lon="03.832765"><ele>17.4</ele><time>2022-11-15T13:45:52Z</time><name>PT8858</name></trkpt>
<trkpt lat="51.581999" lon="03.832779"><ele>17.5</ele><time>2022-11-15T13:45:52Z</time><name>PT8859</name></trkpt>
<trkpt lat="51.582012" lon="03.832792"><ele>17.4</ele><time>2022-11-15T13:45:54Z</time><name>PT8860</name></trkpt>
<trkpt lat="51.582024" lon="03.832802"><ele>17.2</ele><time>2022-11-15T13:45:54Z</time><name>PT8861</name></trkpt>
<trkpt lat="51.582033" lon="03.832812"><ele>17.2</ele><time>2022-11-15T13:45:56Z</time><name>PT8862</name></trkpt>
<trkpt lat="51.582038" lon="03.832819"><ele>17.2</ele><time>2022-11-15T13:45:56Z</time><name>PT8863</name></trkpt>
<trkpt lat="51.582042" lon="03.832826"><ele>17.2</ele><time>2022-11-15T13:45:58Z</time><name>PT8864</name></trkpt>
<trkpt lat="51.582046" lon="03.832833"><ele>17.3</ele><time>2022-11-15T13:45:58Z</time><name>PT8865</name></trkpt>
<trkpt lat="51.582051" lon="03.832838"><ele>17.6</ele><time>2022-11-15T13:46:00Z</time><name>PT8866</name></trkpt>
<trkpt lat="51.582062" lon="03.832845"><ele>17.6</ele><time>2022-11-15T13:46:00Z</time><name>PT8867</name></trkpt>
<trkpt lat="51.582077" lon="03.832855"><ele>17.7</ele><time>2022-11-15T13:46:02Z</time><name>PT8868</name></trkpt>
<trkpt lat="51.582093" lon="03.832869"><ele>17.6</ele><time>2022-11-15T13:46:02Z</time><name>PT8869</name></trkpt>
<trkpt lat="51.582104" lon="03.832881"><ele>17.7</ele><time>2022-11-15T13:46:04Z</time><name>PT8870</name></trkpt>
<trkpt lat="51.582112" lon="03.832890"><ele>17.6</ele><time>2022-11-15T13:46:04Z</time><name>PT8871</name></trkpt>
<trkpt lat="51.582117" lon="03.832898"><ele>17.7</ele><time>2022-11-15T13:46:06Z</time><name>PT8872</name></trkpt>
<trkpt lat="51.582121" lon="03.832908"><ele>17.7</ele><time>2022-11-15T13:46:06Z</time><name>PT8873</name></trkpt>
<trkpt lat="51.582127" lon="03.832916"><ele>17.6</ele><time>2022-11-15T13:46:08Z</time><name>PT8874</name></trkpt>
<trkpt lat="51.582138" lon="03.832923"><ele>17.5</ele><time>2022-11-15T13:46:08Z</time><name>PT8875</name></trkpt>
<trkpt lat="51.582150" lon="03.832931"><ele>17.6</ele><time>2022-11-15T13:46:10Z</time><name>PT8876</name></trkpt>
<trkpt lat="51.582163" lon="03.832943"><ele>17.5</ele><time>2022-11-15T13:46:10Z</time><name>PT8877</name></trkpt>
<trkpt lat="51.582178" lon="03.832960"><ele>17.5</ele><time>2022-11-15T13:46:12Z</time><name>PT8878</name></trkpt>
<trkpt lat="51.582194" lon="03.832972"><ele>17.5</ele><time>2022-11-15T13:46:12Z</time><name>PT8879</name></trkpt>
<trkpt lat="51.582211" lon="03.832983"><ele>17.2</ele><time>2022-11-15T13:46:14Z</time><name>PT8880</name></trkpt>
<trkpt lat="51.582219" lon="03.832991"><ele>17.1</ele><time>2022-11-15T13:46:14Z</time><name>PT8881</name></trkpt>
<trkpt lat="51.582225" lon="03.832996"><ele>17.2</ele><time>2022-11-15T13:46:16Z</time><name>PT8882</name></trkpt>
<trkpt lat="51.582230" lon="03.833002"><ele>16.9</ele><time>2022-11-15T13:46:16Z</time><name>PT8883</name></trkpt>
<trkpt lat="51.582235" lon="03.833006"><ele>16.8</ele><time>2022-11-15T13:46:18Z</time><name>PT8884</name></trkpt>
<trkpt lat="51.582245" lon="03.833013"><ele>17.1</ele><time>2022-11-15T13:46:18Z</time><name>PT8885</name></trkpt>
<trkpt lat="51.582258" lon="03.833027"><ele>17.2</ele><time>2022-11-15T13:46:20Z</time><name>PT8886</name></trkpt>
<trkpt lat="51.582269" lon="03.833041"><ele>17.3</ele><time>2022-11-15T13:46:20Z</time><name>PT8887</name></trkpt>
<trkpt lat="51.582280" lon="03.833050"><ele>17.7</ele><time>2022-11-15T13:46:22Z</time><name>PT8888</name></trkpt>
<trkpt lat="51.582287" lon="03.833058"><ele>17.8</ele><time>2022-11-15T13:46:22Z</time><name>PT8889</name></trkpt>
<trkpt lat="51.582294" lon="03.833065"><ele>17.9</ele><time>2022-11-15T13:46:24Z</time><name>PT8890</name></trkpt>
<trkpt lat="51.582301" lon="03.833070"><ele>17.8</ele><time>2022-11-15T13:46:25Z</time><name>PT8891</name></trkpt>
<trkpt lat="51.582309" lon="03.833075"><ele>17.8</ele><time>2022-11-15T13:46:26Z</time><name>PT8892</name></trkpt>
<trkpt lat="51.582321" lon="03.833083"><ele>18</ele><time>2022-11-15T13:46:26Z</time><name>PT8893</name></trkpt>
<trkpt lat="51.582335" lon="03.833095"><ele>18.1</ele><time>2022-11-15T13:46:28Z</time><name>PT8894</name></trkpt>
<trkpt lat="51.582347" lon="03.833106"><ele>18.1</ele><time>2022-11-15T13:46:29Z</time><name>PT8895</name></trkpt>
<trkpt lat="51.582356" lon="03.833116"><ele>18.2</ele><time>2022-11-15T13:46:30Z</time><name>PT8896</name></trkpt>
<trkpt lat="51.582360" lon="03.833123"><ele>18.3</ele><time>2022-11-15T13:46:30Z</time><name>PT8897</name></trkpt>
<trkpt lat="51.582365" lon="03.833128"><ele>18.1</ele><time>2022-11-15T13:46:32Z</time><name>PT8898</name></trkpt>
<trkpt lat="51.582374" lon="03.833134"><ele>18.1</ele><time>2022-11-15T13:46:32Z</time><name>PT8899</name></trkpt>
<trkpt lat="51.582384" lon="03.833143"><ele>18.1</ele><time>2022-11-15T13:46:34Z</time><name>PT8900</name></trkpt>
<trkpt lat="51.582394" lon="03.833155"><ele>17.8</ele><time>2022-11-15T13:46:34Z</time><name>PT8901</name></trkpt>
<trkpt lat="51.582402" lon="03.833164"><ele>17.7</ele><time>2022-11-15T13:46:36Z</time><name>PT8902</name></trkpt>
<trkpt lat="51.582409" lon="03.833172"><ele>17.7</ele><time>2022-11-15T13:46:36Z</time><name>PT8903</name></trkpt>
<trkpt lat="51.582415" lon="03.833179"><ele>17.5</ele><time>2022-11-15T13:46:38Z</time><name>PT8904</name></trkpt>
<trkpt lat="51.582421" lon="03.833185"><ele>17.4</ele><time>2022-11-15T13:46:38Z</time><name>PT8905</name></trkpt>
<trkpt lat="51.582433" lon="03.833193"><ele>17.5</ele><time>2022-11-15T13:46:40Z</time><name>PT8906</name></trkpt>
<trkpt lat="51.582445" lon="03.833204"><ele>17.2</ele><time>2022-11-15T13:46:40Z</time><name>PT8907</name></trkpt>
<trkpt lat="51.582454" lon="03.833215"><ele>17.2</ele><time>2022-11-15T13:46:42Z</time><name>PT8908</name></trkpt>
<trkpt lat="51.582462" lon="03.833224"><ele>17.2</ele><time>2022-11-15T13:46:42Z</time><name>PT8909</name></trkpt>
<trkpt lat="51.582468" lon="03.833232"><ele>17.3</ele><time>2022-11-15T13:46:44Z</time><name>PT8910</name></trkpt>
<trkpt lat="51.582473" lon="03.833240"><ele>17.4</ele><time>2022-11-15T13:46:44Z</time><name>PT8911</name></trkpt>
<trkpt lat="51.582478" lon="03.833246"><ele>17.6</ele><time>2022-11-15T13:46:45Z</time><name>PT8912</name></trkpt>
<trkpt lat="51.582489" lon="03.833253"><ele>17.7</ele><time>2022-11-15T13:46:46Z</time><name>PT8913</name></trkpt>
<trkpt lat="51.582500" lon="03.833261"><ele>18.1</ele><time>2022-11-15T13:46:48Z</time><name>PT8914</name></trkpt>
<trkpt lat="51.582508" lon="03.833270"><ele>18.1</ele><time>2022-11-15T13:46:48Z</time><name>PT8915</name></trkpt>
<trkpt lat="51.582515" lon="03.833278"><ele>18.2</ele><time>2022-11-15T13:46:50Z</time><name>PT8916</name></trkpt>
<trkpt lat="51.582520" lon="03.833286"><ele>18.2</ele><time>2022-11-15T13:46:51Z</time><name>PT8917</name></trkpt>
<trkpt lat="51.582524" lon="03.833292"><ele>18</ele><time>2022-11-15T13:46:52Z</time><name>PT8918</name></trkpt>
<trkpt lat="51.582534" lon="03.833299"><ele>17.8</ele><time>2022-11-15T13:46:53Z</time><name>PT8919</name></trkpt>
<trkpt lat="51.582547" lon="03.833308"><ele>17.7</ele><time>2022-11-15T13:46:54Z</time><name>PT8920</name></trkpt>
<trkpt lat="51.582556" lon="03.833317"><ele>17.7</ele><time>2022-11-15T13:46:54Z</time><name>PT8921</name></trkpt>
<trkpt lat="51.582564" lon="03.833326"><ele>17.7</ele><time>2022-11-15T13:46:56Z</time><name>PT8922</name></trkpt>
<trkpt lat="51.582571" lon="03.833334"><ele>17.7</ele><time>2022-11-15T13:46:56Z</time><name>PT8923</name></trkpt>
<trkpt lat="51.582577" lon="03.833338"><ele>17.9</ele><time>2022-11-15T13:46:58Z</time><name>PT8924</name></trkpt>
<trkpt lat="51.582586" lon="03.833343"><ele>17.8</ele><time>2022-11-15T13:46:58Z</time><name>PT8925</name></trkpt>
<trkpt lat="51.582597" lon="03.833350"><ele>17.8</ele><time>2022-11-15T13:47:00Z</time><name>PT8926</name></trkpt>
<trkpt lat="51.582610" lon="03.833357"><ele>17.7</ele><time>2022-11-15T13:47:00Z</time><name>PT8927</name></trkpt>
<trkpt lat="51.582619" lon="03.833366"><ele>17.8</ele><time>2022-11-15T13:47:02Z</time><name>PT8928</name></trkpt>
<trkpt lat="51.582627" lon="03.833374"><ele>17.7</ele><time>2022-11-15T13:47:02Z</time><name>PT8929</name></trkpt>
<trkpt lat="51.582629" lon="03.833381"><ele>17.7</ele><time>2022-11-15T13:47:04Z</time><name>PT8930</name></trkpt>
<trkpt lat="51.582633" lon="03.833388"><ele>17.6</ele><time>2022-11-15T13:47:04Z</time><name>PT8931</name></trkpt>
<trkpt lat="51.582641" lon="03.833396"><ele>17.6</ele><time>2022-11-15T13:47:06Z</time><name>PT8932</name></trkpt>
<trkpt lat="51.582653" lon="03.833408"><ele>17.6</ele><time>2022-11-15T13:47:06Z</time><name>PT8933</name></trkpt>
<trkpt lat="51.582665" lon="03.833421"><ele>17.7</ele><time>2022-11-15T13:47:08Z</time><name>PT8934</name></trkpt>
<trkpt lat="51.582676" lon="03.833430"><ele>17.8</ele><time>2022-11-15T13:47:08Z</time><name>PT8935</name></trkpt>
<trkpt lat="51.582684" lon="03.833436"><ele>18</ele><time>2022-11-15T13:47:10Z</time><name>PT8936</name></trkpt>
<trkpt lat="51.582691" lon="03.833445"><ele>18.1</ele><time>2022-11-15T13:47:10Z</time><name>PT8937</name></trkpt>
<trkpt lat="51.582698" lon="03.833452"><ele>18.2</ele><time>2022-11-15T13:47:12Z</time><name>PT8938</name></trkpt>
<trkpt lat="51.582707" lon="03.833462"><ele>18.2</ele><time>2022-11-15T13:47:12Z</time><name>PT8939</name></trkpt>
<trkpt lat="51.582719" lon="03.833475"><ele>18.2</ele><time>2022-11-15T13:47:14Z</time><name>PT8940</name></trkpt>
<trkpt lat="51.582729" lon="03.833486"><ele>18.1</ele><time>2022-11-15T13:47:14Z</time><name>PT8941</name></trkpt>
<trkpt lat="51.582736" lon="03.833495"><ele>17.8</ele><time>2022-11-15T13:47:16Z</time><name>PT8942</name></trkpt>
<trkpt lat="51.582742" lon="03.833501"><ele>17.7</ele><time>2022-11-15T13:47:16Z</time><name>PT8943</name></trkpt>
<trkpt lat="51.582747" lon="03.833506"><ele>17.5</ele><time>2022-11-15T13:47:18Z</time><name>PT8944</name></trkpt>
<trkpt lat="51.582755" lon="03.833512"><ele>17.4</ele><time>2022-11-15T13:47:18Z</time><name>PT8945</name></trkpt>
<trkpt lat="51.582767" lon="03.833521"><ele>17.3</ele><time>2022-11-15T13:47:20Z</time><name>PT8946</name></trkpt>
<trkpt lat="51.582781" lon="03.833534"><ele>17.5</ele><time>2022-11-15T13:47:20Z</time><name>PT8947</name></trkpt>
<trkpt lat="51.582791" lon="03.833547"><ele>17.4</ele><time>2022-11-15T13:47:22Z</time><name>PT8948</name></trkpt>
<trkpt lat="51.582801" lon="03.833556"><ele>17.5</ele><time>2022-11-15T13:47:22Z</time><name>PT8949</name></trkpt>
<trkpt lat="51.582807" lon="03.833562"><ele>17.6</ele><time>2022-11-15T13:47:24Z</time><name>PT8950</name></trkpt>
<trkpt lat="51.582815" lon="03.833567"><ele>17.7</ele><time>2022-11-15T13:47:24Z</time><name>PT8951</name></trkpt>
<trkpt lat="51.582823" lon="03.833575"><ele>18.1</ele><time>2022-11-15T13:47:26Z</time><name>PT8952</name></trkpt>
<trkpt lat="51.582835" lon="03.833587"><ele>18.1</ele><time>2022-11-15T13:47:26Z</time><name>PT8953</name></trkpt>
<trkpt lat="51.582847" lon="03.833596"><ele>18.1</ele><time>2022-11-15T13:47:28Z</time><name>PT8954</name></trkpt>
<trkpt lat="51.582859" lon="03.833607"><ele>18.2</ele><time>2022-11-15T13:47:28Z</time><name>PT8955</name></trkpt>
<trkpt lat="51.582870" lon="03.833616"><ele>18</ele><time>2022-11-15T13:47:30Z</time><name>PT8956</name></trkpt>
<trkpt lat="51.582877" lon="03.833623"><ele>17.7</ele><time>2022-11-15T13:47:30Z</time><name>PT8957</name></trkpt>
<trkpt lat="51.582880" lon="03.833629"><ele>17.8</ele><time>2022-11-15T13:47:32Z</time><name>PT8958</name></trkpt>
<trkpt lat="51.582885" lon="03.833636"><ele>18</ele><time>2022-11-15T13:47:32Z</time><name>PT8959</name></trkpt>
<trkpt lat="51.582892" lon="03.833643"><ele>18.2</ele><time>2022-11-15T13:47:34Z</time><name>PT8960</name></trkpt>
<trkpt lat="51.582902" lon="03.833651"><ele>18.3</ele><time>2022-11-15T13:47:34Z</time><name>PT8961</name></trkpt>
<trkpt lat="51.582915" lon="03.833660"><ele>18.4</ele><time>2022-11-15T13:47:36Z</time><name>PT8962</name></trkpt>
<trkpt lat="51.582923" lon="03.833671"><ele>18.4</ele><time>2022-11-15T13:47:36Z</time><name>PT8963</name></trkpt>
<trkpt lat="51.582929" lon="03.833678"><ele>18.2</ele><time>2022-11-15T13:47:38Z</time><name>PT8964</name></trkpt>
<trkpt lat="51.582935" lon="03.833683"><ele>18.2</ele><time>2022-11-15T13:47:38Z</time><name>PT8965</name></trkpt>
<trkpt lat="51.582942" lon="03.833689"><ele>18</ele><time>2022-11-15T13:47:40Z</time><name>PT8966</name></trkpt>
<trkpt lat="51.582953" lon="03.833699"><ele>18.1</ele><time>2022-11-15T13:47:40Z</time><name>PT8967</name></trkpt>
<trkpt lat="51.582967" lon="03.833711"><ele>18.1</ele><time>2022-11-15T13:47:42Z</time><name>PT8968</name></trkpt>
<trkpt lat="51.582979" lon="03.833722"><ele>18</ele><time>2022-11-15T13:47:42Z</time><name>PT8969</name></trkpt>
<trkpt lat="51.582989" lon="03.833731"><ele>18</ele><time>2022-11-15T13:47:44Z</time><name>PT8970</name></trkpt>
<trkpt lat="51.582996" lon="03.833737"><ele>17.9</ele><time>2022-11-15T13:47:44Z</time><name>PT8971</name></trkpt>
<trkpt lat="51.583000" lon="03.833743"><ele>17.7</ele><time>2022-11-15T13:47:46Z</time><name>PT8972</name></trkpt>
<trkpt lat="51.583007" lon="03.833750"><ele>17.9</ele><time>2022-11-15T13:47:46Z</time><name>PT8973</name></trkpt>
<trkpt lat="51.583019" lon="03.833760"><ele>18</ele><time>2022-11-15T13:47:48Z</time><name>PT8974</name></trkpt>
<trkpt lat="51.583030" lon="03.833773"><ele>18.1</ele><time>2022-11-15T13:47:48Z</time><name>PT8975</name></trkpt>
<trkpt lat="51.583040" lon="03.833783"><ele>18.2</ele><time>2022-11-15T13:47:50Z</time><name>PT8976</name></trkpt>
<trkpt lat="51.583046" lon="03.833790"><ele>18.4</ele><time>2022-11-15T13:47:50Z</time><name>PT8977</name></trkpt>
<trkpt lat="51.583052" lon="03.833798"><ele>18.3</ele><time>2022-11-15T13:47:52Z</time><name>PT8978</name></trkpt>
<trkpt lat="51.583057" lon="03.833805"><ele>18.4</ele><time>2022-11-15T13:47:52Z</time><name>PT8979</name></trkpt>
<trkpt lat="51.583066" lon="03.833813"><ele>18.2</ele><time>2022-11-15T13:47:54Z</time><name>PT8980</name></trkpt>
<trkpt lat="51.583077" lon="03.833821"><ele>18.2</ele><time>2022-11-15T13:47:54Z</time><name>PT8981</name></trkpt>
<trkpt lat="51.583087" lon="03.833830"><ele>18.1</ele><time>2022-11-15T13:47:56Z</time><name>PT8982</name></trkpt>
<trkpt lat="51.583096" lon="03.833840"><ele>17.9</ele><time>2022-11-15T13:47:56Z</time><name>PT8983</name></trkpt>
<trkpt lat="51.583103" lon="03.833848"><ele>18</ele><time>2022-11-15T13:47:58Z</time><name>PT8984</name></trkpt>
<trkpt lat="51.583109" lon="03.833855"><ele>18.1</ele><time>2022-11-15T13:47:58Z</time><name>PT8985</name></trkpt>
<trkpt lat="51.583116" lon="03.833863"><ele>18</ele><time>2022-11-15T13:47:59Z</time><name>PT8986</name></trkpt>
<trkpt lat="51.583123" lon="03.833869"><ele>17.8</ele><time>2022-11-15T13:48:00Z</time><name>PT8987</name></trkpt>
<trkpt lat="51.583133" lon="03.833878"><ele>17.8</ele><time>2022-11-15T13:48:02Z</time><name>PT8988</name></trkpt>
<trkpt lat="51.583145" lon="03.833886"><ele>17.7</ele><time>2022-11-15T13:48:02Z</time><name>PT8989</name></trkpt>
<trkpt lat="51.583157" lon="03.833897"><ele>17.7</ele><time>2022-11-15T13:48:04Z</time><name>PT8990</name></trkpt>
<trkpt lat="51.583167" lon="03.833907"><ele>17.7</ele><time>2022-11-15T13:48:04Z</time><name>PT8991</name></trkpt>
<trkpt lat="51.583173" lon="03.833916"><ele>18</ele><time>2022-11-15T13:48:06Z</time><name>PT8992</name></trkpt>
<trkpt lat="51.583178" lon="03.833921"><ele>18</ele><time>2022-11-15T13:48:06Z</time><name>PT8993</name></trkpt>
<trkpt lat="51.583183" lon="03.833926"><ele>18</ele><time>2022-11-15T13:48:08Z</time><name>PT8994</name></trkpt>
<trkpt lat="51.583191" lon="03.833932"><ele>18</ele><time>2022-11-15T13:48:08Z</time><name>PT8995</name></trkpt>
<trkpt lat="51.583203" lon="03.833941"><ele>17.9</ele><time>2022-11-15T13:48:10Z</time><name>PT8996</name></trkpt>
<trkpt lat="51.583223" lon="03.833954"><ele>17.9</ele><time>2022-11-15T13:48:10Z</time><name>PT8997</name></trkpt>
<trkpt lat="51.583234" lon="03.833962"><ele>18</ele><time>2022-11-15T13:48:12Z</time><name>PT8998</name></trkpt>
<trkpt lat="51.583241" lon="03.833966"><ele>18</ele><time>2022-11-15T13:48:12Z</time><name>PT8999</name></trkpt>
<trkpt lat="51.583246" lon="03.833973"><ele>18</ele><time>2022-11-15T13:48:14Z</time><name>PT9000</name></trkpt>
<trkpt lat="51.583249" lon="03.833980"><ele>18.1</ele><time>2022-11-15T13:48:15Z</time><name>PT9001</name></trkpt>
<trkpt lat="51.583258" lon="03.833992"><ele>18.1</ele><time>2022-11-15T13:48:16Z</time><name>PT9002</name></trkpt>
<trkpt lat="51.583275" lon="03.834007"><ele>18.1</ele><time>2022-11-15T13:48:17Z</time><name>PT9003</name></trkpt>
<trkpt lat="51.583291" lon="03.834022"><ele>18</ele><time>2022-11-15T13:48:18Z</time><name>PT9004</name></trkpt>
<trkpt lat="51.583304" lon="03.834035"><ele>18</ele><time>2022-11-15T13:48:18Z</time><name>PT9005</name></trkpt>
<trkpt lat="51.583311" lon="03.834043"><ele>18</ele><time>2022-11-15T13:48:20Z</time><name>PT9006</name></trkpt>
<trkpt lat="51.583317" lon="03.834051"><ele>18.1</ele><time>2022-11-15T13:48:20Z</time><name>PT9007</name></trkpt>
<trkpt lat="51.583322" lon="03.834057"><ele>18.2</ele><time>2022-11-15T13:48:22Z</time><name>PT9008</name></trkpt>
<trkpt lat="51.583327" lon="03.834063"><ele>18.4</ele><time>2022-11-15T13:48:22Z</time><name>PT9009</name></trkpt>
<trkpt lat="51.583329" lon="03.834066"><ele>18.6</ele><time>2022-11-15T13:48:24Z</time><name>PT9010</name></trkpt>
<trkpt lat="51.583327" lon="03.834069"><ele>18.6</ele><time>2022-11-15T13:48:24Z</time><name>PT9011</name></trkpt>
<trkpt lat="51.583331" lon="03.834074"><ele>18.7</ele><time>2022-11-15T13:48:26Z</time><name>PT9012</name></trkpt>
<trkpt lat="51.583338" lon="03.834082"><ele>18.7</ele><time>2022-11-15T13:48:26Z</time><name>PT9013</name></trkpt>
<trkpt lat="51.583349" lon="03.834092"><ele>18.7</ele><time>2022-11-15T13:48:28Z</time><name>PT9014</name></trkpt>
<trkpt lat="51.583360" lon="03.834103"><ele>18.7</ele><time>2022-11-15T13:48:28Z</time><name>PT9015</name></trkpt>
<trkpt lat="51.583368" lon="03.834111"><ele>18.7</ele><time>2022-11-15T13:48:30Z</time><name>PT9016</name></trkpt>
<trkpt lat="51.583374" lon="03.834117"><ele>18.7</ele><time>2022-11-15T13:48:30Z</time><name>PT9017</name></trkpt>
<trkpt lat="51.583373" lon="03.834121"><ele>18.7</ele><time>2022-11-15T13:48:32Z</time><name>PT9018</name></trkpt>
<trkpt lat="51.583376" lon="03.834129"><ele>18.7</ele><time>2022-11-15T13:48:32Z</time><name>PT9019</name></trkpt>
<trkpt lat="51.583386" lon="03.834139"><ele>18.6</ele><time>2022-11-15T13:48:34Z</time><name>PT9020</name></trkpt>
<trkpt lat="51.583399" lon="03.834155"><ele>18.5</ele><time>2022-11-15T13:48:34Z</time><name>PT9021</name></trkpt>
<trkpt lat="51.583415" lon="03.834179"><ele>18.7</ele><time>2022-11-15T13:48:36Z</time><name>PT9022</name></trkpt>
<trkpt lat="51.583429" lon="03.834194"><ele>18.7</ele><time>2022-11-15T13:48:36Z</time><name>PT9023</name></trkpt>
<trkpt lat="51.583443" lon="03.834207"><ele>18.7</ele><time>2022-11-15T13:48:38Z</time><name>PT9024</name></trkpt>
<trkpt lat="51.583450" lon="03.834211"><ele>18.7</ele><time>2022-11-15T13:48:38Z</time><name>PT9025</name></trkpt>
<trkpt lat="51.583452" lon="03.834214"><ele>18.7</ele><time>2022-11-15T13:48:40Z</time><name>PT9026</name></trkpt>
<trkpt lat="51.583454" lon="03.834220"><ele>18.5</ele><time>2022-11-15T13:48:40Z</time><name>PT9027</name></trkpt>
<trkpt lat="51.583458" lon="03.834222"><ele>18.5</ele><time>2022-11-15T13:48:42Z</time><name>PT9028</name></trkpt>
<trkpt lat="51.583469" lon="03.834224"><ele>18.5</ele><time>2022-11-15T13:48:42Z</time><name>PT9029</name></trkpt>
<trkpt lat="51.583488" lon="03.834237"><ele>18.7</ele><time>2022-11-15T13:48:44Z</time><name>PT9030</name></trkpt>
<trkpt lat="51.583507" lon="03.834248"><ele>18.5</ele><time>2022-11-15T13:48:44Z</time><name>PT9031</name></trkpt>
<trkpt lat="51.583521" lon="03.834256"><ele>18.6</ele><time>2022-11-15T13:48:46Z</time><name>PT9032</name></trkpt>
<trkpt lat="51.583531" lon="03.834259"><ele>18.7</ele><time>2022-11-15T13:48:46Z</time><name>PT9033</name></trkpt>
<trkpt lat="51.583533" lon="03.834257"><ele>18.6</ele><time>2022-11-15T13:48:48Z</time><name>PT9034</name></trkpt>
<trkpt lat="51.583540" lon="03.834260"><ele>18.5</ele><time>2022-11-15T13:48:48Z</time><name>PT9035</name></trkpt>
<trkpt lat="51.583545" lon="03.834264"><ele>18.7</ele><time>2022-11-15T13:48:50Z</time><name>PT9036</name></trkpt>
<trkpt lat="51.583549" lon="03.834269"><ele>19</ele><time>2022-11-15T13:48:50Z</time><name>PT9037</name></trkpt>
<trkpt lat="51.583554" lon="03.834275"><ele>19.2</ele><time>2022-11-15T13:48:52Z</time><name>PT9038</name></trkpt>
<trkpt lat="51.583564" lon="03.834283"><ele>19.2</ele><time>2022-11-15T13:48:52Z</time><name>PT9039</name></trkpt>
<trkpt lat="51.583571" lon="03.834289"><ele>19.6</ele><time>2022-11-15T13:48:54Z</time><name>PT9040</name></trkpt>
<trkpt lat="51.583579" lon="03.834293"><ele>19.5</ele><time>2022-11-15T13:48:54Z</time><name>PT9041</name></trkpt>
<trkpt lat="51.583584" lon="03.834298"><ele>19.5</ele><time>2022-11-15T13:48:56Z</time><name>PT9042</name></trkpt>
<trkpt lat="51.583587" lon="03.834302"><ele>19.3</ele><time>2022-11-15T13:48:56Z</time><name>PT9043</name></trkpt>
<trkpt lat="51.583590" lon="03.834306"><ele>19.5</ele><time>2022-11-15T13:48:58Z</time><name>PT9044</name></trkpt>
<trkpt lat="51.583596" lon="03.834310"><ele>19.5</ele><time>2022-11-15T13:48:58Z</time><name>PT9045</name></trkpt>
<trkpt lat="51.583602" lon="03.834314"><ele>19.6</ele><time>2022-11-15T13:49:00Z</time><name>PT9046</name></trkpt>
<trkpt lat="51.583605" lon="03.834319"><ele>19.7</ele><time>2022-11-15T13:49:00Z</time><name>PT9047</name></trkpt>
<trkpt lat="51.583608" lon="03.834324"><ele>19.8</ele><time>2022-11-15T13:49:02Z</time><name>PT9048</name></trkpt>
<trkpt lat="51.583610" lon="03.834333"><ele>19.7</ele><time>2022-11-15T13:49:02Z</time><name>PT9049</name></trkpt>
<trkpt lat="51.583613" lon="03.834344"><ele>19.7</ele><time>2022-11-15T13:49:04Z</time><name>PT9050</name></trkpt>
<trkpt lat="51.583611" lon="03.834354"><ele>19.7</ele><time>2022-11-15T13:49:04Z</time><name>PT9051</name></trkpt>
<trkpt lat="51.583611" lon="03.834366"><ele>19.6</ele><time>2022-11-15T13:49:06Z</time><name>PT9052</name></trkpt>
<trkpt lat="51.583611" lon="03.834380"><ele>19.4</ele><time>2022-11-15T13:49:06Z</time><name>PT9053</name></trkpt>
<trkpt lat="51.583613" lon="03.834391"><ele>19.5</ele><time>2022-11-15T13:49:08Z</time><name>PT9054</name></trkpt>
<trkpt lat="51.583617" lon="03.834404"><ele>19.4</ele><time>2022-11-15T13:49:08Z</time><name>PT9055</name></trkpt>
<trkpt lat="51.583619" lon="03.834418"><ele>19.5</ele><time>2022-11-15T13:49:10Z</time><name>PT9056</name></trkpt>
<trkpt lat="51.583620" lon="03.834431"><ele>19.8</ele><time>2022-11-15T13:49:10Z</time><name>PT9057</name></trkpt>
<trkpt lat="51.583621" lon="03.834446"><ele>19.9</ele><time>2022-11-15T13:49:12Z</time><name>PT9058</name></trkpt>
<trkpt lat="51.583624" lon="03.834459"><ele>19.8</ele><time>2022-11-15T13:49:12Z</time><name>PT9059</name></trkpt>
<trkpt lat="51.583624" lon="03.834472"><ele>19.8</ele><time>2022-11-15T13:49:14Z</time><name>PT9060</name></trkpt>
<trkpt lat="51.583625" lon="03.834489"><ele>19.7</ele><time>2022-11-15T13:49:14Z</time><name>PT9061</name></trkpt>
<trkpt lat="51.583623" lon="03.834504"><ele>19.5</ele><time>2022-11-15T13:49:15Z</time><name>PT9062</name></trkpt>
<trkpt lat="51.583622" lon="03.834520"><ele>19.4</ele><time>2022-11-15T13:49:16Z</time><name>PT9063</name></trkpt>
<trkpt lat="51.583622" lon="03.834534"><ele>19.6</ele><time>2022-11-15T13:49:18Z</time><name>PT9064</name></trkpt>
<trkpt lat="51.583624" lon="03.834548"><ele>19.8</ele><time>2022-11-15T13:49:18Z</time><name>PT9065</name></trkpt>
<trkpt lat="51.583623" lon="03.834562"><ele>19.9</ele><time>2022-11-15T13:49:20Z</time><name>PT9066</name></trkpt>
<trkpt lat="51.583620" lon="03.834574"><ele>20</ele><time>2022-11-15T13:49:20Z</time><name>PT9067</name></trkpt>
<trkpt lat="51.583618" lon="03.834587"><ele>20</ele><time>2022-11-15T13:49:22Z</time><name>PT9068</name></trkpt>
<trkpt lat="51.583613" lon="03.834602"><ele>19.9</ele><time>2022-11-15T13:49:22Z</time><name>PT9069</name></trkpt>
<trkpt lat="51.583610" lon="03.834615"><ele>19.8</ele><time>2022-11-15T13:49:24Z</time><name>PT9070</name></trkpt>
<trkpt lat="51.583608" lon="03.834629"><ele>19.7</ele><time>2022-11-15T13:49:24Z</time><name>PT9071</name></trkpt>
<trkpt lat="51.583607" lon="03.834641"><ele>19.6</ele><time>2022-11-15T13:49:26Z</time><name>PT9072</name></trkpt>
<trkpt lat="51.583606" lon="03.834653"><ele>19.7</ele><time>2022-11-15T13:49:26Z</time><name>PT9073</name></trkpt>
<trkpt lat="51.583603" lon="03.834664"><ele>19.6</ele><time>2022-11-15T13:49:28Z</time><name>PT9074</name></trkpt>
<trkpt lat="51.583599" lon="03.834676"><ele>19.6</ele><time>2022-11-15T13:49:28Z</time><name>PT9075</name></trkpt>
<trkpt lat="51.583597" lon="03.834691"><ele>19.7</ele><time>2022-11-15T13:49:30Z</time><name>PT9076</name></trkpt>
<trkpt lat="51.583595" lon="03.834706"><ele>19.9</ele><time>2022-11-15T13:49:30Z</time><name>PT9077</name></trkpt>
<trkpt lat="51.583593" lon="03.834720"><ele>20.2</ele><time>2022-11-15T13:49:32Z</time><name>PT9078</name></trkpt>
<trkpt lat="51.583590" lon="03.834734"><ele>20.3</ele><time>2022-11-15T13:49:32Z</time><name>PT9079</name></trkpt>
<trkpt lat="51.583586" lon="03.834747"><ele>20.5</ele><time>2022-11-15T13:49:34Z</time><name>PT9080</name></trkpt>
<trkpt lat="51.583583" lon="03.834759"><ele>20.5</ele><time>2022-11-15T13:49:34Z</time><name>PT9081</name></trkpt>
<trkpt lat="51.583579" lon="03.834772"><ele>20.5</ele><time>2022-11-15T13:49:36Z</time><name>PT9082</name></trkpt>
<trkpt lat="51.583576" lon="03.834787"><ele>20.4</ele><time>2022-11-15T13:49:36Z</time><name>PT9083</name></trkpt>
<trkpt lat="51.583574" lon="03.834802"><ele>20.6</ele><time>2022-11-15T13:49:38Z</time><name>PT9084</name></trkpt>
<trkpt lat="51.583573" lon="03.834816"><ele>20.8</ele><time>2022-11-15T13:49:38Z</time><name>PT9085</name></trkpt>
<trkpt lat="51.583571" lon="03.834830"><ele>20.9</ele><time>2022-11-15T13:49:40Z</time><name>PT9086</name></trkpt>
<trkpt lat="51.583566" lon="03.834845"><ele>20.9</ele><time>2022-11-15T13:49:40Z</time><name>PT9087</name></trkpt>
<trkpt lat="51.583562" lon="03.834858"><ele>21</ele><time>2022-11-15T13:49:42Z</time><name>PT9088</name></trkpt>
<trkpt lat="51.583559" lon="03.834871"><ele>21</ele><time>2022-11-15T13:49:42Z</time><name>PT9089</name></trkpt>
<trkpt lat="51.583555" lon="03.834886"><ele>21</ele><time>2022-11-15T13:49:44Z</time><name>PT9090</name></trkpt>
<trkpt lat="51.583554" lon="03.834895"><ele>21.3</ele><time>2022-11-15T13:49:44Z</time><name>PT9091</name></trkpt>
<trkpt lat="51.583553" lon="03.834903"><ele>21.5</ele><time>2022-11-15T13:49:46Z</time><name>PT9092</name></trkpt>
<trkpt lat="51.583551" lon="03.834909"><ele>21.6</ele><time>2022-11-15T13:49:46Z</time><name>PT9093</name></trkpt>
<trkpt lat="51.583546" lon="03.834919"><ele>21.8</ele><time>2022-11-15T13:49:48Z</time><name>PT9094</name></trkpt>
<trkpt lat="51.583542" lon="03.834936"><ele>22</ele><time>2022-11-15T13:49:48Z</time><name>PT9095</name></trkpt>
<trkpt lat="51.583540" lon="03.834958"><ele>22.1</ele><time>2022-11-15T13:49:50Z</time><name>PT9096</name></trkpt>
<trkpt lat="51.583539" lon="03.834972"><ele>22.3</ele><time>2022-11-15T13:49:50Z</time><name>PT9097</name></trkpt>
<trkpt lat="51.583537" lon="03.834979"><ele>22.2</ele><time>2022-11-15T13:49:52Z</time><name>PT9098</name></trkpt>
<trkpt lat="51.583533" lon="03.834986"><ele>22.2</ele><time>2022-11-15T13:49:52Z</time><name>PT9099</name></trkpt>
<trkpt lat="51.583524" lon="03.835003"><ele>22.3</ele><time>2022-11-15T13:49:54Z</time><name>PT9100</name></trkpt>
<trkpt lat="51.583518" lon="03.835024"><ele>22.3</ele><time>2022-11-15T13:49:54Z</time><name>PT9101</name></trkpt>
<trkpt lat="51.583516" lon="03.835040"><ele>22.5</ele><time>2022-11-15T13:49:56Z</time><name>PT9102</name></trkpt>
<trkpt lat="51.583516" lon="03.835048"><ele>22.8</ele><time>2022-11-15T13:49:56Z</time><name>PT9103</name></trkpt>
<trkpt lat="51.583513" lon="03.835056"><ele>22.9</ele><time>2022-11-15T13:49:58Z</time><name>PT9104</name></trkpt>
<trkpt lat="51.583510" lon="03.835066"><ele>23</ele><time>2022-11-15T13:49:58Z</time><name>PT9105</name></trkpt>
<trkpt lat="51.583503" lon="03.835084"><ele>22.9</ele><time>2022-11-15T13:50:00Z</time><name>PT9106</name></trkpt>
<trkpt lat="51.583498" lon="03.835104"><ele>22.8</ele><time>2022-11-15T13:50:00Z</time><name>PT9107</name></trkpt>
<trkpt lat="51.583496" lon="03.835114"><ele>22.8</ele><time>2022-11-15T13:50:02Z</time><name>PT9108</name></trkpt>
<trkpt lat="51.583495" lon="03.835117"><ele>22.8</ele><time>2022-11-15T13:50:02Z</time><name>PT9109</name></trkpt>
<trkpt lat="51.583491" lon="03.835129"><ele>22.8</ele><time>2022-11-15T13:50:04Z</time><name>PT9110</name></trkpt>
<trkpt lat="51.583489" lon="03.835153"><ele>22.8</ele><time>2022-11-15T13:50:04Z</time><name>PT9111</name></trkpt>
<trkpt lat="51.583485" lon="03.835175"><ele>22.8</ele><time>2022-11-15T13:50:06Z</time><name>PT9112</name></trkpt>
<trkpt lat="51.583483" lon="03.835189"><ele>22.9</ele><time>2022-11-15T13:50:06Z</time><name>PT9113</name></trkpt>
<trkpt lat="51.583481" lon="03.835194"><ele>23.3</ele><time>2022-11-15T13:50:08Z</time><name>PT9114</name></trkpt>
<trkpt lat="51.583478" lon="03.835201"><ele>23.5</ele><time>2022-11-15T13:50:08Z</time><name>PT9115</name></trkpt>
<trkpt lat="51.583476" lon="03.835215"><ele>23.8</ele><time>2022-11-15T13:50:10Z</time><name>PT9116</name></trkpt>
<trkpt lat="51.583473" lon="03.835237"><ele>24.1</ele><time>2022-11-15T13:50:10Z</time><name>PT9117</name></trkpt>
<trkpt lat="51.583470" lon="03.835258"><ele>24</ele><time>2022-11-15T13:50:12Z</time><name>PT9118</name></trkpt>
<trkpt lat="51.583466" lon="03.835274"><ele>23.8</ele><time>2022-11-15T13:50:12Z</time><name>PT9119</name></trkpt>
<trkpt lat="51.583463" lon="03.835284"><ele>23.5</ele><time>2022-11-15T13:50:14Z</time><name>PT9120</name></trkpt>
<trkpt lat="51.583460" lon="03.835291"><ele>23.3</ele><time>2022-11-15T13:50:14Z</time><name>PT9121</name></trkpt>
<trkpt lat="51.583459" lon="03.835291"><ele>23.1</ele><time>2022-11-15T13:50:16Z</time><name>PT9122</name></trkpt>
<trkpt lat="51.583459" lon="03.835289"><ele>22.8</ele><time>2022-11-15T13:50:16Z</time><name>PT9123</name></trkpt>
<trkpt lat="51.583461" lon="03.835296"><ele>22.6</ele><time>2022-11-15T13:50:18Z</time><name>PT9124</name></trkpt>
<trkpt lat="51.583461" lon="03.835304"><ele>22.6</ele><time>2022-11-15T13:50:18Z</time><name>PT9125</name></trkpt>
<trkpt lat="51.583456" lon="03.835310"><ele>22.7</ele><time>2022-11-15T13:50:20Z</time><name>PT9126</name></trkpt>
<trkpt lat="51.583450" lon="03.835320"><ele>22.8</ele><time>2022-11-15T13:50:20Z</time><name>PT9127</name></trkpt>
<trkpt lat="51.583445" lon="03.835338"><ele>23.1</ele><time>2022-11-15T13:50:22Z</time><name>PT9128</name></trkpt>
<trkpt lat="51.583442" lon="03.835357"><ele>23.2</ele><time>2022-11-15T13:50:22Z</time><name>PT9129</name></trkpt>
<trkpt lat="51.583441" lon="03.835372"><ele>23.2</ele><time>2022-11-15T13:50:24Z</time><name>PT9130</name></trkpt>
<trkpt lat="51.583439" lon="03.835385"><ele>23</ele><time>2022-11-15T13:50:25Z</time><name>PT9131</name></trkpt>
<trkpt lat="51.583436" lon="03.835395"><ele>22.8</ele><time>2022-11-15T13:50:25Z</time><name>PT9132</name></trkpt>
<trkpt lat="51.583430" lon="03.835412"><ele>22.8</ele><time>2022-11-15T13:50:26Z</time><name>PT9133</name></trkpt>
<trkpt lat="51.583423" lon="03.835431"><ele>22.7</ele><time>2022-11-15T13:50:27Z</time><name>PT9134</name></trkpt>
<trkpt lat="51.583418" lon="03.835447"><ele>22.5</ele><time>2022-11-15T13:50:28Z</time><name>PT9135</name></trkpt>
<trkpt lat="51.583414" lon="03.835459"><ele>22.5</ele><time>2022-11-15T13:50:30Z</time><name>PT9136</name></trkpt>
<trkpt lat="51.583411" lon="03.835467"><ele>22.8</ele><time>2022-11-15T13:50:31Z</time><name>PT9137</name></trkpt>
<trkpt lat="51.583406" lon="03.835469"><ele>22.8</ele><time>2022-11-15T13:50:32Z</time><name>PT9138</name></trkpt>
<trkpt lat="51.583403" lon="03.835468"><ele>22.8</ele><time>2022-11-15T13:50:32Z</time><name>PT9139</name></trkpt>
<trkpt lat="51.583403" lon="03.835475"><ele>23</ele><time>2022-11-15T13:50:34Z</time><name>PT9140</name></trkpt>
<trkpt lat="51.583403" lon="03.835478"><ele>23.3</ele><time>2022-11-15T13:50:34Z</time><name>PT9141</name></trkpt>
<trkpt lat="51.583397" lon="03.835490"><ele>23.4</ele><time>2022-11-15T13:50:36Z</time><name>PT9142</name></trkpt>
<trkpt lat="51.583389" lon="03.835501"><ele>23.5</ele><time>2022-11-15T13:50:36Z</time><name>PT9143</name></trkpt>
<trkpt lat="51.583386" lon="03.835501"><ele>23.3</ele><time>2022-11-15T13:50:38Z</time><name>PT9144</name></trkpt>
<trkpt lat="51.583386" lon="03.835502"><ele>23.1</ele><time>2022-11-15T13:50:38Z</time><name>PT9145</name></trkpt>
<trkpt lat="51.583384" lon="03.835505"><ele>22.4</ele><time>2022-11-15T13:50:40Z</time><name>PT9146</name></trkpt>
<trkpt lat="51.583382" lon="03.835516"><ele>22.1</ele><time>2022-11-15T13:50:40Z</time><name>PT9147</name></trkpt>
<trkpt lat="51.583377" lon="03.835534"><ele>22.1</ele><time>2022-11-15T13:50:42Z</time><name>PT9148</name></trkpt>
<trkpt lat="51.583369" lon="03.835550"><ele>22.3</ele><time>2022-11-15T13:50:42Z</time><name>PT9149</name></trkpt>
<trkpt lat="51.583361" lon="03.835566"><ele>22.7</ele><time>2022-11-15T13:50:44Z</time><name>PT9150</name></trkpt>
<trkpt lat="51.583356" lon="03.835581"><ele>22.9</ele><time>2022-11-15T13:50:44Z</time><name>PT9151</name></trkpt>
<trkpt lat="51.583354" lon="03.835592"><ele>23.1</ele><time>2022-11-15T13:50:46Z</time><name>PT9152</name></trkpt>
<trkpt lat="51.583351" lon="03.835603"><ele>23.1</ele><time>2022-11-15T13:50:46Z</time><name>PT9153</name></trkpt>
<trkpt lat="51.583347" lon="03.835610"><ele>23.1</ele><time>2022-11-15T13:50:48Z</time><name>PT9154</name></trkpt>
<trkpt lat="51.583342" lon="03.835620"><ele>23.3</ele><time>2022-11-15T13:50:48Z</time><name>PT9155</name></trkpt>
<trkpt lat="51.583344" lon="03.835640"><ele>23.3</ele><time>2022-11-15T13:50:50Z</time><name>PT9156</name></trkpt>
<trkpt lat="51.583344" lon="03.835658"><ele>23.3</ele><time>2022-11-15T13:50:50Z</time><name>PT9157</name></trkpt>
<trkpt lat="51.583340" lon="03.835669"><ele>23.3</ele><time>2022-11-15T13:50:52Z</time><name>PT9158</name></trkpt>
<trkpt lat="51.583336" lon="03.835676"><ele>23</ele><time>2022-11-15T13:50:52Z</time><name>PT9159</name></trkpt>
<trkpt lat="51.583330" lon="03.835683"><ele>22.8</ele><time>2022-11-15T13:50:54Z</time><name>PT9160</name></trkpt>
<trkpt lat="51.583323" lon="03.835696"><ele>22.8</ele><time>2022-11-15T13:50:55Z</time><name>PT9161</name></trkpt>
<trkpt lat="51.583317" lon="03.835716"><ele>22.8</ele><time>2022-11-15T13:50:56Z</time><name>PT9162</name></trkpt>
<trkpt lat="51.583311" lon="03.835733"><ele>22.8</ele><time>2022-11-15T13:50:56Z</time><name>PT9163</name></trkpt>
<trkpt lat="51.583306" lon="03.835745"><ele>22.8</ele><time>2022-11-15T13:50:58Z</time><name>PT9164</name></trkpt>
<trkpt lat="51.583303" lon="03.835750"><ele>23.1</ele><time>2022-11-15T13:50:58Z</time><name>PT9165</name></trkpt>
<trkpt lat="51.583299" lon="03.835754"><ele>23</ele><time>2022-11-15T13:51:00Z</time><name>PT9166</name></trkpt>
<trkpt lat="51.583293" lon="03.835763"><ele>22.8</ele><time>2022-11-15T13:51:00Z</time><name>PT9167</name></trkpt>
<trkpt lat="51.583281" lon="03.835780"><ele>22.6</ele><time>2022-11-15T13:51:02Z</time><name>PT9168</name></trkpt>
<trkpt lat="51.583273" lon="03.835795"><ele>22.8</ele><time>2022-11-15T13:51:02Z</time><name>PT9169</name></trkpt>
<trkpt lat="51.583268" lon="03.835805"><ele>22.5</ele><time>2022-11-15T13:51:04Z</time><name>PT9170</name></trkpt>
<trkpt lat="51.583265" lon="03.835812"><ele>22.3</ele><time>2022-11-15T13:51:04Z</time><name>PT9171</name></trkpt>
<trkpt lat="51.583262" lon="03.835816"><ele>22.3</ele><time>2022-11-15T13:51:06Z</time><name>PT9172</name></trkpt>
<trkpt lat="51.583256" lon="03.835818"><ele>22.2</ele><time>2022-11-15T13:51:06Z</time><name>PT9173</name></trkpt>
<trkpt lat="51.583245" lon="03.835825"><ele>21.9</ele><time>2022-11-15T13:51:08Z</time><name>PT9174</name></trkpt>
<trkpt lat="51.583235" lon="03.835838"><ele>21.9</ele><time>2022-11-15T13:51:08Z</time><name>PT9175</name></trkpt>
<trkpt lat="51.583231" lon="03.835845"><ele>22</ele><time>2022-11-15T13:51:10Z</time><name>PT9176</name></trkpt>
<trkpt lat="51.583229" lon="03.835854"><ele>21.9</ele><time>2022-11-15T13:51:10Z</time><name>PT9177</name></trkpt>
<trkpt lat="51.583224" lon="03.835858"><ele>22</ele><time>2022-11-15T13:51:12Z</time><name>PT9178</name></trkpt>
<trkpt lat="51.583216" lon="03.835863"><ele>22</ele><time>2022-11-15T13:51:12Z</time><name>PT9179</name></trkpt>
<trkpt lat="51.583206" lon="03.835873"><ele>22</ele><time>2022-11-15T13:51:14Z</time><name>PT9180</name></trkpt>
<trkpt lat="51.583195" lon="03.835883"><ele>22</ele><time>2022-11-15T13:51:14Z</time><name>PT9181</name></trkpt>
<trkpt lat="51.583187" lon="03.835888"><ele>21.8</ele><time>2022-11-15T13:51:16Z</time><name>PT9182</name></trkpt>
<trkpt lat="51.583184" lon="03.835890"><ele>21.9</ele><time>2022-11-15T13:51:16Z</time><name>PT9183</name></trkpt>
<trkpt lat="51.583182" lon="03.835889"><ele>21.8</ele><time>2022-11-15T13:51:18Z</time><name>PT9184</name></trkpt>
<trkpt lat="51.583178" lon="03.835890"><ele>21.8</ele><time>2022-11-15T13:51:18Z</time><name>PT9185</name></trkpt>
<trkpt lat="51.583166" lon="03.835893"><ele>21.8</ele><time>2022-11-15T13:51:20Z</time><name>PT9186</name></trkpt>
<trkpt lat="51.583153" lon="03.835900"><ele>21.8</ele><time>2022-11-15T13:51:20Z</time><name>PT9187</name></trkpt>
<trkpt lat="51.583144" lon="03.835907"><ele>21.8</ele><time>2022-11-15T13:51:22Z</time><name>PT9188</name></trkpt>
<trkpt lat="51.583138" lon="03.835910"><ele>21.8</ele><time>2022-11-15T13:51:22Z</time><name>PT9189</name></trkpt>
<trkpt lat="51.583132" lon="03.835911"><ele>21.8</ele><time>2022-11-15T13:51:24Z</time><name>PT9190</name></trkpt>
<trkpt lat="51.583121" lon="03.835921"><ele>21.7</ele><time>2022-11-15T13:51:24Z</time><name>PT9191</name></trkpt>
<trkpt lat="51.583107" lon="03.835937"><ele>21.5</ele><time>2022-11-15T13:51:26Z</time><name>PT9192</name></trkpt>
<trkpt lat="51.583091" lon="03.835959"><ele>21.2</ele><time>2022-11-15T13:51:26Z</time><name>PT9193</name></trkpt>
<trkpt lat="51.583081" lon="03.835973"><ele>20.9</ele><time>2022-11-15T13:51:28Z</time><name>PT9194</name></trkpt>
<trkpt lat="51.583076" lon="03.835982"><ele>20.9</ele><time>2022-11-15T13:51:28Z</time><name>PT9195</name></trkpt>
<trkpt lat="51.583070" lon="03.835993"><ele>20.7</ele><time>2022-11-15T13:51:30Z</time><name>PT9196</name></trkpt>
<trkpt lat="51.583062" lon="03.836002"><ele>20.6</ele><time>2022-11-15T13:51:30Z</time><name>PT9197</name></trkpt>
<trkpt lat="51.583054" lon="03.836008"><ele>20.5</ele><time>2022-11-15T13:51:31Z</time><name>PT9198</name></trkpt>
<trkpt lat="51.583046" lon="03.836019"><ele>20.4</ele><time>2022-11-15T13:51:32Z</time><name>PT9199</name></trkpt>
<trkpt lat="51.583038" lon="03.836031"><ele>20.5</ele><time>2022-11-15T13:51:34Z</time><name>PT9200</name></trkpt>
<trkpt lat="51.583031" lon="03.836040"><ele>20.7</ele><time>2022-11-15T13:51:34Z</time><name>PT9201</name></trkpt>
<trkpt lat="51.583026" lon="03.836046"><ele>20.9</ele><time>2022-11-15T13:51:36Z</time><name>PT9202</name></trkpt>
<trkpt lat="51.583021" lon="03.836049"><ele>21.1</ele><time>2022-11-15T13:51:36Z</time><name>PT9203</name></trkpt>
<trkpt lat="51.583014" lon="03.836052"><ele>21.3</ele><time>2022-11-15T13:51:38Z</time><name>PT9204</name></trkpt>
<trkpt lat="51.583006" lon="03.836062"><ele>21.3</ele><time>2022-11-15T13:51:38Z</time><name>PT9205</name></trkpt>
<trkpt lat="51.582997" lon="03.836078"><ele>21.2</ele><time>2022-11-15T13:51:40Z</time><name>PT9206</name></trkpt>
<trkpt lat="51.582988" lon="03.836089"><ele>21.3</ele><time>2022-11-15T13:51:40Z</time><name>PT9207</name></trkpt>
<trkpt lat="51.582982" lon="03.836095"><ele>21.3</ele><time>2022-11-15T13:51:42Z</time><name>PT9208</name></trkpt>
<trkpt lat="51.582978" lon="03.836098"><ele>21.2</ele><time>2022-11-15T13:51:42Z</time><name>PT9209</name></trkpt>
<trkpt lat="51.582973" lon="03.836102"><ele>21.3</ele><time>2022-11-15T13:51:43Z</time><name>PT9210</name></trkpt>
<trkpt lat="51.582966" lon="03.836111"><ele>21.5</ele><time>2022-11-15T13:51:44Z</time><name>PT9211</name></trkpt>
<trkpt lat="51.582957" lon="03.836128"><ele>21.4</ele><time>2022-11-15T13:51:46Z</time><name>PT9212</name></trkpt>
<trkpt lat="51.582947" lon="03.836146"><ele>21.4</ele><time>2022-11-15T13:51:46Z</time><name>PT9213</name></trkpt>
<trkpt lat="51.582942" lon="03.836158"><ele>21.3</ele><time>2022-11-15T13:51:48Z</time><name>PT9214</name></trkpt>
<trkpt lat="51.582939" lon="03.836162"><ele>21.2</ele><time>2022-11-15T13:51:48Z</time><name>PT9215</name></trkpt>
<trkpt lat="51.582937" lon="03.836167"><ele>20.8</ele><time>2022-11-15T13:51:50Z</time><name>PT9216</name></trkpt>
<trkpt lat="51.582934" lon="03.836181"><ele>20.7</ele><time>2022-11-15T13:51:50Z</time><name>PT9217</name></trkpt>
<trkpt lat="51.582934" lon="03.836200"><ele>20.4</ele><time>2022-11-15T13:51:52Z</time><name>PT9218</name></trkpt>
<trkpt lat="51.582934" lon="03.836211"><ele>20.2</ele><time>2022-11-15T13:51:52Z</time><name>PT9219</name></trkpt>
<trkpt lat="51.582931" lon="03.836210"><ele>20.2</ele><time>2022-11-15T13:51:54Z</time><name>PT9220</name></trkpt>
<trkpt lat="51.582929" lon="03.836217"><ele>20.2</ele><time>2022-11-15T13:51:54Z</time><name>PT9221</name></trkpt>
<trkpt lat="51.582933" lon="03.836231"><ele>20.2</ele><time>2022-11-15T13:51:56Z</time><name>PT9222</name></trkpt>
<trkpt lat="51.582941" lon="03.836247"><ele>20.2</ele><time>2022-11-15T13:51:56Z</time><name>PT9223</name></trkpt>
<trkpt lat="51.582946" lon="03.836256"><ele>20.2</ele><time>2022-11-15T13:51:58Z</time><name>PT9224</name></trkpt>
<trkpt lat="51.582946" lon="03.836258"><ele>20.1</ele><time>2022-11-15T13:51:58Z</time><name>PT9225</name></trkpt>
<trkpt lat="51.582948" lon="03.836262"><ele>19.8</ele><time>2022-11-15T13:52:00Z</time><name>PT9226</name></trkpt>
<trkpt lat="51.582959" lon="03.836280"><ele>19.8</ele><time>2022-11-15T13:52:00Z</time><name>PT9227</name></trkpt>
<trkpt lat="51.582973" lon="03.836299"><ele>19.7</ele><time>2022-11-15T13:52:02Z</time><name>PT9228</name></trkpt>
<trkpt lat="51.582984" lon="03.836312"><ele>19.7</ele><time>2022-11-15T13:52:02Z</time><name>PT9229</name></trkpt>
<trkpt lat="51.582990" lon="03.836317"><ele>19.7</ele><time>2022-11-15T13:52:04Z</time><name>PT9230</name></trkpt>
<trkpt lat="51.582995" lon="03.836320"><ele>19.7</ele><time>2022-11-15T13:52:04Z</time><name>PT9231</name></trkpt>
<trkpt lat="51.583000" lon="03.836329"><ele>19.7</ele><time>2022-11-15T13:52:06Z</time><name>PT9232</name></trkpt>
<trkpt lat="51.583008" lon="03.836342"><ele>19.8</ele><time>2022-11-15T13:52:06Z</time><name>PT9233</name></trkpt>
<trkpt lat="51.583021" lon="03.836357"><ele>19.8</ele><time>2022-11-15T13:52:08Z</time><name>PT9234</name></trkpt>
<trkpt lat="51.583037" lon="03.836371"><ele>20</ele><time>2022-11-15T13:52:08Z</time><name>PT9235</name></trkpt>
<trkpt lat="51.583054" lon="03.836380"><ele>20</ele><time>2022-11-15T13:52:10Z</time><name>PT9236</name></trkpt>
<trkpt lat="51.583058" lon="03.836384"><ele>20.1</ele><time>2022-11-15T13:52:10Z</time><name>PT9237</name></trkpt>
<trkpt lat="51.583060" lon="03.836387"><ele>20</ele><time>2022-11-15T13:52:12Z</time><name>PT9238</name></trkpt>
<trkpt lat="51.583064" lon="03.836397"><ele>19.9</ele><time>2022-11-15T13:52:12Z</time><name>PT9239</name></trkpt>
<trkpt lat="51.583074" lon="03.836418"><ele>19.7</ele><time>2022-11-15T13:52:14Z</time><name>PT9240</name></trkpt>
<trkpt lat="51.583091" lon="03.836439"><ele>19.6</ele><time>2022-11-15T13:52:14Z</time><name>PT9241</name></trkpt>
<trkpt lat="51.583108" lon="03.836453"><ele>19.4</ele><time>2022-11-15T13:52:16Z</time><name>PT9242</name></trkpt>
<trkpt lat="51.583115" lon="03.836459"><ele>19.3</ele><time>2022-11-15T13:52:16Z</time><name>PT9243</name></trkpt>
<trkpt lat="51.583119" lon="03.836460"><ele>19.2</ele><time>2022-11-15T13:52:17Z</time><name>PT9244</name></trkpt>
<trkpt lat="51.583119" lon="03.836462"><ele>19.3</ele><time>2022-11-15T13:52:18Z</time><name>PT9245</name></trkpt>
<trkpt lat="51.583121" lon="03.836469"><ele>19.5</ele><time>2022-11-15T13:52:19Z</time><name>PT9246</name></trkpt>
<trkpt lat="51.583129" lon="03.836487"><ele>19.4</ele><time>2022-11-15T13:52:20Z</time><name>PT9247</name></trkpt>
<trkpt lat="51.583141" lon="03.836510"><ele>19.5</ele><time>2022-11-15T13:52:22Z</time><name>PT9248</name></trkpt>
<trkpt lat="51.583153" lon="03.836525"><ele>19.6</ele><time>2022-11-15T13:52:22Z</time><name>PT9249</name></trkpt>
<trkpt lat="51.583156" lon="03.836532"><ele>19.6</ele><time>2022-11-15T13:52:24Z</time><name>PT9250</name></trkpt>
<trkpt lat="51.583159" lon="03.836536"><ele>19.7</ele><time>2022-11-15T13:52:24Z</time><name>PT9251</name></trkpt>
<trkpt lat="51.583165" lon="03.836548"><ele>19.7</ele><time>2022-11-15T13:52:26Z</time><name>PT9252</name></trkpt>
<trkpt lat="51.583174" lon="03.836562"><ele>19.8</ele><time>2022-11-15T13:52:26Z</time><name>PT9253</name></trkpt>
<trkpt lat="51.583182" lon="03.836568"><ele>19.7</ele><time>2022-11-15T13:52:27Z</time><name>PT9254</name></trkpt>
<trkpt lat="51.583185" lon="03.836571"><ele>19.8</ele><time>2022-11-15T13:52:28Z</time><name>PT9255</name></trkpt>
<trkpt lat="51.583188" lon="03.836575"><ele>19.8</ele><time>2022-11-15T13:52:29Z</time><name>PT9256</name></trkpt>
<trkpt lat="51.583193" lon="03.836585"><ele>19.8</ele><time>2022-11-15T13:52:30Z</time><name>PT9257</name></trkpt>
<trkpt lat="51.583205" lon="03.836605"><ele>19.7</ele><time>2022-11-15T13:52:31Z</time><name>PT9258</name></trkpt>
<trkpt lat="51.583220" lon="03.836622"><ele>19.5</ele><time>2022-11-15T13:52:32Z</time><name>PT9259</name></trkpt>
<trkpt lat="51.583229" lon="03.836630"><ele>19.5</ele><time>2022-11-15T13:52:34Z</time><name>PT9260</name></trkpt>
<trkpt lat="51.583232" lon="03.836634"><ele>19.2</ele><time>2022-11-15T13:52:34Z</time><name>PT9261</name></trkpt>
<trkpt lat="51.583233" lon="03.836634"><ele>19.3</ele><time>2022-11-15T13:52:36Z</time><name>PT9262</name></trkpt>
<trkpt lat="51.583238" lon="03.836645"><ele>19.4</ele><time>2022-11-15T13:52:36Z</time><name>PT9263</name></trkpt>
<trkpt lat="51.583250" lon="03.836666"><ele>19.7</ele><time>2022-11-15T13:52:38Z</time><name>PT9264</name></trkpt>
<trkpt lat="51.583265" lon="03.836686"><ele>19.7</ele><time>2022-11-15T13:52:38Z</time><name>PT9265</name></trkpt>
<trkpt lat="51.583273" lon="03.836694"><ele>19.9</ele><time>2022-11-15T13:52:40Z</time><name>PT9266</name></trkpt>
<trkpt lat="51.583277" lon="03.836703"><ele>19.9</ele><time>2022-11-15T13:52:41Z</time><name>PT9267</name></trkpt>
<trkpt lat="51.583279" lon="03.836712"><ele>20</ele><time>2022-11-15T13:52:41Z</time><name>PT9268</name></trkpt>
<trkpt lat="51.583279" lon="03.836714"><ele>20.1</ele><time>2022-11-15T13:52:43Z</time><name>PT9269</name></trkpt>
<trkpt lat="51.583280" lon="03.836713"><ele>20.2</ele><time>2022-11-15T13:52:44Z</time><name>PT9270</name></trkpt>
<trkpt lat="51.583281" lon="03.836714"><ele>20.2</ele><time>2022-11-15T13:52:44Z</time><name>PT9271</name></trkpt>
<trkpt lat="51.583281" lon="03.836714"><ele>20</ele><time>2022-11-15T13:52:46Z</time><name>PT9272</name></trkpt>
<trkpt lat="51.583281" lon="03.836712"><ele>19.8</ele><time>2022-11-15T13:52:46Z</time><name>PT9273</name></trkpt>
<trkpt lat="51.583284" lon="03.836714"><ele>19.7</ele><time>2022-11-15T13:52:48Z</time><name>PT9274</name></trkpt>
<trkpt lat="51.583290" lon="03.836721"><ele>19.6</ele><time>2022-11-15T13:52:48Z</time><name>PT9275</name></trkpt>
<trkpt lat="51.583295" lon="03.836728"><ele>19.7</ele><time>2022-11-15T13:52:50Z</time><name>PT9276</name></trkpt>
<trkpt lat="51.583295" lon="03.836730"><ele>19.8</ele><time>2022-11-15T13:52:50Z</time><name>PT9277</name></trkpt>
<trkpt lat="51.583294" lon="03.836725"><ele>20</ele><time>2022-11-15T13:52:51Z</time><name>PT9278</name></trkpt>
<trkpt lat="51.583293" lon="03.836725"><ele>19.9</ele><time>2022-11-15T13:52:52Z</time><name>PT9279</name></trkpt>
<trkpt lat="51.583293" lon="03.836725"><ele>20.1</ele><time>2022-11-15T13:52:54Z</time><name>PT9280</name></trkpt>
<trkpt lat="51.583292" lon="03.836726"><ele>20</ele><time>2022-11-15T13:52:54Z</time><name>PT9281</name></trkpt>
<trkpt lat="51.583291" lon="03.836725"><ele>20.2</ele><time>2022-11-15T13:52:56Z</time><name>PT9282</name></trkpt>
<trkpt lat="51.583290" lon="03.836730"><ele>20</ele><time>2022-11-15T13:53:06Z</time><name>PT9283</name></trkpt>
<trkpt lat="51.583294" lon="03.836735"><ele>19.9</ele><time>2022-11-15T13:53:06Z</time><name>PT9284</name></trkpt>
<trkpt lat="51.583298" lon="03.836742"><ele>19.8</ele><time>2022-11-15T13:53:08Z</time><name>PT9285</name></trkpt>
<trkpt lat="51.583305" lon="03.836748"><ele>19.7</ele><time>2022-11-15T13:53:08Z</time><name>PT9286</name></trkpt>
<trkpt lat="51.583311" lon="03.836754"><ele>19.6</ele><time>2022-11-15T13:53:10Z</time><name>PT9287</name></trkpt>
<trkpt lat="51.583316" lon="03.836762"><ele>19.6</ele><time>2022-11-15T13:53:10Z</time><name>PT9288</name></trkpt>
<trkpt lat="51.583322" lon="03.836769"><ele>19.7</ele><time>2022-11-15T13:53:12Z</time><name>PT9289</name></trkpt>
<trkpt lat="51.583319" lon="03.836765"><ele>19.7</ele><time>2022-11-15T13:53:12Z</time><name>PT9290</name></trkpt>
<trkpt lat="51.583327" lon="03.836772"><ele>19.7</ele><time>2022-11-15T13:53:14Z</time><name>PT9291</name></trkpt>
<trkpt lat="51.583334" lon="03.836779"><ele>19.7</ele><time>2022-11-15T13:53:14Z</time><name>PT9292</name></trkpt>
<trkpt lat="51.583339" lon="03.836789"><ele>19.7</ele><time>2022-11-15T13:53:16Z</time><name>PT9293</name></trkpt>
<trkpt lat="51.583345" lon="03.836798"><ele>19.6</ele><time>2022-11-15T13:53:16Z</time><name>PT9294</name></trkpt>
<trkpt lat="51.583352" lon="03.836807"><ele>19.5</ele><time>2022-11-15T13:53:18Z</time><name>PT9295</name></trkpt>
<trkpt lat="51.583360" lon="03.836817"><ele>19.7</ele><time>2022-11-15T13:53:18Z</time><name>PT9296</name></trkpt>
<trkpt lat="51.583368" lon="03.836826"><ele>19.6</ele><time>2022-11-15T13:53:20Z</time><name>PT9297</name></trkpt>
<trkpt lat="51.583375" lon="03.836834"><ele>19.6</ele><time>2022-11-15T13:53:20Z</time><name>PT9298</name></trkpt>
<trkpt lat="51.583382" lon="03.836846"><ele>19.6</ele><time>2022-11-15T13:53:22Z</time><name>PT9299</name></trkpt>
<trkpt lat="51.583388" lon="03.836858"><ele>19.5</ele><time>2022-11-15T13:53:22Z</time><name>PT9300</name></trkpt>
<trkpt lat="51.583395" lon="03.836867"><ele>19.5</ele><time>2022-11-15T13:53:24Z</time><name>PT9301</name></trkpt>
<trkpt lat="51.583402" lon="03.836874"><ele>19.5</ele><time>2022-11-15T13:53:24Z</time><name>PT9302</name></trkpt>
<trkpt lat="51.583410" lon="03.836881"><ele>19.4</ele><time>2022-11-15T13:53:25Z</time><name>PT9303</name></trkpt>
<trkpt lat="51.583418" lon="03.836889"><ele>19.5</ele><time>2022-11-15T13:53:26Z</time><name>PT9304</name></trkpt>
<trkpt lat="51.583425" lon="03.836898"><ele>19.5</ele><time>2022-11-15T13:53:28Z</time><name>PT9305</name></trkpt>
<trkpt lat="51.583433" lon="03.836908"><ele>19.6</ele><time>2022-11-15T13:53:28Z</time><name>PT9306</name></trkpt>
<trkpt lat="51.583441" lon="03.836916"><ele>19.6</ele><time>2022-11-15T13:53:30Z</time><name>PT9307</name></trkpt>
<trkpt lat="51.583449" lon="03.836926"><ele>19.6</ele><time>2022-11-15T13:53:30Z</time><name>PT9308</name></trkpt>
<trkpt lat="51.583458" lon="03.836936"><ele>19.6</ele><time>2022-11-15T13:53:31Z</time><name>PT9309</name></trkpt>
<trkpt lat="51.583464" lon="03.836944"><ele>19.6</ele><time>2022-11-15T13:53:32Z</time><name>PT9310</name></trkpt>
<trkpt lat="51.583470" lon="03.836957"><ele>19.7</ele><time>2022-11-15T13:53:33Z</time><name>PT9311</name></trkpt>
<trkpt lat="51.583478" lon="03.836969"><ele>19.8</ele><time>2022-11-15T13:53:34Z</time><name>PT9312</name></trkpt>
<trkpt lat="51.583486" lon="03.836978"><ele>20.1</ele><time>2022-11-15T13:53:36Z</time><name>PT9313</name></trkpt>
<trkpt lat="51.583494" lon="03.836985"><ele>20</ele><time>2022-11-15T13:53:36Z</time><name>PT9314</name></trkpt>
<trkpt lat="51.583504" lon="03.836993"><ele>20.1</ele><time>2022-11-15T13:53:38Z</time><name>PT9315</name></trkpt>
<trkpt lat="51.583513" lon="03.837002"><ele>20.1</ele><time>2022-11-15T13:53:38Z</time><name>PT9316</name></trkpt>
<trkpt lat="51.583520" lon="03.837011"><ele>20</ele><time>2022-11-15T13:53:40Z</time><name>PT9317</name></trkpt>
<trkpt lat="51.583525" lon="03.837021"><ele>20</ele><time>2022-11-15T13:53:40Z</time><name>PT9318</name></trkpt>
<trkpt lat="51.583533" lon="03.837033"><ele>19.9</ele><time>2022-11-15T13:53:42Z</time><name>PT9319</name></trkpt>
<trkpt lat="51.583541" lon="03.837043"><ele>19.8</ele><time>2022-11-15T13:53:42Z</time><name>PT9320</name></trkpt>
<trkpt lat="51.583549" lon="03.837053"><ele>19.8</ele><time>2022-11-15T13:53:44Z</time><name>PT9321</name></trkpt>
<trkpt lat="51.583557" lon="03.837063"><ele>20</ele><time>2022-11-15T13:53:44Z</time><name>PT9322</name></trkpt>
<trkpt lat="51.583567" lon="03.837071"><ele>19.9</ele><time>2022-11-15T13:53:46Z</time><name>PT9323</name></trkpt>
<trkpt lat="51.583575" lon="03.837078"><ele>19.8</ele><time>2022-11-15T13:53:46Z</time><name>PT9324</name></trkpt>
<trkpt lat="51.583584" lon="03.837087"><ele>19.7</ele><time>2022-11-15T13:53:48Z</time><name>PT9325</name></trkpt>
<trkpt lat="51.583592" lon="03.837099"><ele>19.8</ele><time>2022-11-15T13:53:48Z</time><name>PT9326</name></trkpt>
<trkpt lat="51.583600" lon="03.837113"><ele>19.7</ele><time>2022-11-15T13:53:50Z</time><name>PT9327</name></trkpt>
<trkpt lat="51.583608" lon="03.837124"><ele>19.7</ele><time>2022-11-15T13:53:50Z</time><name>PT9328</name></trkpt>
<trkpt lat="51.583616" lon="03.837134"><ele>19.5</ele><time>2022-11-15T13:53:51Z</time><name>PT9329</name></trkpt>
<trkpt lat="51.583624" lon="03.837145"><ele>19.5</ele><time>2022-11-15T13:53:52Z</time><name>PT9330</name></trkpt>
<trkpt lat="51.583632" lon="03.837155"><ele>19.3</ele><time>2022-11-15T13:53:54Z</time><name>PT9331</name></trkpt>
<trkpt lat="51.583639" lon="03.837162"><ele>19.4</ele><time>2022-11-15T13:53:54Z</time><name>PT9332</name></trkpt>
<trkpt lat="51.583646" lon="03.837171"><ele>19.4</ele><time>2022-11-15T13:53:56Z</time><name>PT9333</name></trkpt>
<trkpt lat="51.583653" lon="03.837184"><ele>19.6</ele><time>2022-11-15T13:53:56Z</time><name>PT9334</name></trkpt>
<trkpt lat="51.583661" lon="03.837196"><ele>19.8</ele><time>2022-11-15T13:53:58Z</time><name>PT9335</name></trkpt>
<trkpt lat="51.583669" lon="03.837206"><ele>19.7</ele><time>2022-11-15T13:53:58Z</time><name>PT9336</name></trkpt>
<trkpt lat="51.583677" lon="03.837214"><ele>19.6</ele><time>2022-11-15T13:54:00Z</time><name>PT9337</name></trkpt>
<trkpt lat="51.583685" lon="03.837223"><ele>19.6</ele><time>2022-11-15T13:54:00Z</time><name>PT9338</name></trkpt>
<trkpt lat="51.583693" lon="03.837233"><ele>19.4</ele><time>2022-11-15T13:54:02Z</time><name>PT9339</name></trkpt>
<trkpt lat="51.583699" lon="03.837242"><ele>19.4</ele><time>2022-11-15T13:54:02Z</time><name>PT9340</name></trkpt>
<trkpt lat="51.583704" lon="03.837251"><ele>19.7</ele><time>2022-11-15T13:54:04Z</time><name>PT9341</name></trkpt>
<trkpt lat="51.583707" lon="03.837256"><ele>19.8</ele><time>2022-11-15T13:54:04Z</time><name>PT9342</name></trkpt>
<trkpt lat="51.583711" lon="03.837252"><ele>19.9</ele><time>2022-11-15T13:54:06Z</time><name>PT9343</name></trkpt>
<trkpt lat="51.583714" lon="03.837249"><ele>19.8</ele><time>2022-11-15T13:54:06Z</time><name>PT9344</name></trkpt>
<trkpt lat="51.583715" lon="03.837251"><ele>19.7</ele><time>2022-11-15T13:54:08Z</time><name>PT9345</name></trkpt>
<trkpt lat="51.583715" lon="03.837252"><ele>19.6</ele><time>2022-11-15T13:54:08Z</time><name>PT9346</name></trkpt>
<trkpt lat="51.583715" lon="03.837251"><ele>19.6</ele><time>2022-11-15T13:54:10Z</time><name>PT9347</name></trkpt>
<trkpt lat="51.583715" lon="03.837253"><ele>19.5</ele><time>2022-11-15T13:54:10Z</time><name>PT9348</name></trkpt>
<trkpt lat="51.583715" lon="03.837252"><ele>20.2</ele><time>2022-11-15T13:54:33Z</time><name>PT9349</name></trkpt>
<trkpt lat="51.583717" lon="03.837251"><ele>20.2</ele><time>2022-11-15T13:54:34Z</time><name>PT9350</name></trkpt>
<trkpt lat="51.583717" lon="03.837253"><ele>20.1</ele><time>2022-11-15T13:54:35Z</time><name>PT9351</name></trkpt>
<trkpt lat="51.583717" lon="03.837255"><ele>19.9</ele><time>2022-11-15T13:54:36Z</time><name>PT9352</name></trkpt>
<trkpt lat="51.583719" lon="03.837256"><ele>19.8</ele><time>2022-11-15T13:54:38Z</time><name>PT9353</name></trkpt>
<trkpt lat="51.583718" lon="03.837262"><ele>20.1</ele><time>2022-11-15T13:54:50Z</time><name>PT9354</name></trkpt>
<trkpt lat="51.583724" lon="03.837274"><ele>20</ele><time>2022-11-15T13:54:52Z</time><name>PT9355</name></trkpt>
<trkpt lat="51.583730" lon="03.837286"><ele>20</ele><time>2022-11-15T13:54:52Z</time><name>PT9356</name></trkpt>
<trkpt lat="51.583738" lon="03.837299"><ele>19.9</ele><time>2022-11-15T13:54:53Z</time><name>PT9357</name></trkpt>
<trkpt lat="51.583747" lon="03.837307"><ele>19.9</ele><time>2022-11-15T13:54:54Z</time><name>PT9358</name></trkpt>
<trkpt lat="51.583755" lon="03.837316"><ele>19.8</ele><time>2022-11-15T13:54:55Z</time><name>PT9359</name></trkpt>
<trkpt lat="51.583762" lon="03.837327"><ele>19.8</ele><time>2022-11-15T13:54:56Z</time><name>PT9360</name></trkpt>
<trkpt lat="51.583769" lon="03.837338"><ele>19.7</ele><time>2022-11-15T13:54:58Z</time><name>PT9361</name></trkpt>
<trkpt lat="51.583776" lon="03.837349"><ele>19.7</ele><time>2022-11-15T13:54:58Z</time><name>PT9362</name></trkpt>
<trkpt lat="51.583784" lon="03.837358"><ele>19.7</ele><time>2022-11-15T13:55:00Z</time><name>PT9363</name></trkpt>
<trkpt lat="51.583793" lon="03.837366"><ele>19.8</ele><time>2022-11-15T13:55:00Z</time><name>PT9364</name></trkpt>
<trkpt lat="51.583802" lon="03.837375"><ele>19.8</ele><time>2022-11-15T13:55:01Z</time><name>PT9365</name></trkpt>
<trkpt lat="51.583809" lon="03.837385"><ele>19.7</ele><time>2022-11-15T13:55:02Z</time><name>PT9366</name></trkpt>
<trkpt lat="51.583817" lon="03.837396"><ele>20.1</ele><time>2022-11-15T13:55:04Z</time><name>PT9367</name></trkpt>
<trkpt lat="51.583825" lon="03.837408"><ele>20</ele><time>2022-11-15T13:55:04Z</time><name>PT9368</name></trkpt>
<trkpt lat="51.583833" lon="03.837420"><ele>20</ele><time>2022-11-15T13:55:06Z</time><name>PT9369</name></trkpt>
<trkpt lat="51.583840" lon="03.837431"><ele>20</ele><time>2022-11-15T13:55:06Z</time><name>PT9370</name></trkpt>
<trkpt lat="51.583848" lon="03.837440"><ele>20</ele><time>2022-11-15T13:55:07Z</time><name>PT9371</name></trkpt>
<trkpt lat="51.583857" lon="03.837448"><ele>19.8</ele><time>2022-11-15T13:55:08Z</time><name>PT9372</name></trkpt>
<trkpt lat="51.583864" lon="03.837456"><ele>19.9</ele><time>2022-11-15T13:55:09Z</time><name>PT9373</name></trkpt>
<trkpt lat="51.583872" lon="03.837464"><ele>19.8</ele><time>2022-11-15T13:55:10Z</time><name>PT9374</name></trkpt>
<trkpt lat="51.583879" lon="03.837476"><ele>20.1</ele><time>2022-11-15T13:55:11Z</time><name>PT9375</name></trkpt>
<trkpt lat="51.583886" lon="03.837489"><ele>20</ele><time>2022-11-15T13:55:12Z</time><name>PT9376</name></trkpt>
<trkpt lat="51.583893" lon="03.837501"><ele>20</ele><time>2022-11-15T13:55:14Z</time><name>PT9377</name></trkpt>
<trkpt lat="51.583901" lon="03.837513"><ele>20.1</ele><time>2022-11-15T13:55:15Z</time><name>PT9378</name></trkpt>
<trkpt lat="51.583909" lon="03.837523"><ele>19.9</ele><time>2022-11-15T13:55:15Z</time><name>PT9379</name></trkpt>
<trkpt lat="51.583918" lon="03.837533"><ele>19.7</ele><time>2022-11-15T13:55:16Z</time><name>PT9380</name></trkpt>
<trkpt lat="51.583927" lon="03.837543"><ele>19.8</ele><time>2022-11-15T13:55:17Z</time><name>PT9381</name></trkpt>
<trkpt lat="51.583936" lon="03.837551"><ele>19.7</ele><time>2022-11-15T13:55:18Z</time><name>PT9382</name></trkpt>
<trkpt lat="51.583944" lon="03.837561"><ele>19.6</ele><time>2022-11-15T13:55:20Z</time><name>PT9383</name></trkpt>
<trkpt lat="51.583950" lon="03.837570"><ele>19.7</ele><time>2022-11-15T13:55:20Z</time><name>PT9384</name></trkpt>
<trkpt lat="51.583959" lon="03.837580"><ele>19.7</ele><time>2022-11-15T13:55:21Z</time><name>PT9385</name></trkpt>
<trkpt lat="51.583965" lon="03.837590"><ele>19.7</ele><time>2022-11-15T13:55:22Z</time><name>PT9386</name></trkpt>
<trkpt lat="51.583971" lon="03.837601"><ele>19.8</ele><time>2022-11-15T13:55:23Z</time><name>PT9387</name></trkpt>
<trkpt lat="51.583979" lon="03.837610"><ele>20</ele><time>2022-11-15T13:55:24Z</time><name>PT9388</name></trkpt>
<trkpt lat="51.583987" lon="03.837620"><ele>20</ele><time>2022-11-15T13:55:25Z</time><name>PT9389</name></trkpt>
<trkpt lat="51.583995" lon="03.837631"><ele>19.9</ele><time>2022-11-15T13:55:26Z</time><name>PT9390</name></trkpt>
<trkpt lat="51.583999" lon="03.837636"><ele>20</ele><time>2022-11-15T13:55:27Z</time><name>PT9391</name></trkpt>
<trkpt lat="51.584000" lon="03.837637"><ele>19.9</ele><time>2022-11-15T13:55:28Z</time><name>PT9392</name></trkpt>
<trkpt lat="51.584001" lon="03.837638"><ele>19.8</ele><time>2022-11-15T13:55:30Z</time><name>PT9393</name></trkpt>
<trkpt lat="51.584002" lon="03.837641"><ele>19.8</ele><time>2022-11-15T13:55:31Z</time><name>PT9394</name></trkpt>
<trkpt lat="51.584004" lon="03.837644"><ele>19.9</ele><time>2022-11-15T13:55:32Z</time><name>PT9395</name></trkpt>
<trkpt lat="51.584008" lon="03.837656"><ele>20.3</ele><time>2022-11-15T13:55:40Z</time><name>PT9396</name></trkpt>
<trkpt lat="51.584020" lon="03.837672"><ele>20.3</ele><time>2022-11-15T13:55:42Z</time><name>PT9397</name></trkpt>
<trkpt lat="51.584030" lon="03.837689"><ele>20.3</ele><time>2022-11-15T13:55:42Z</time><name>PT9398</name></trkpt>
<trkpt lat="51.584041" lon="03.837704"><ele>20.3</ele><time>2022-11-15T13:55:44Z</time><name>PT9399</name></trkpt>
<trkpt lat="51.584050" lon="03.837719"><ele>20.2</ele><time>2022-11-15T13:55:44Z</time><name>PT9400</name></trkpt>
<trkpt lat="51.584059" lon="03.837733"><ele>20.2</ele><time>2022-11-15T13:55:46Z</time><name>PT9401</name></trkpt>
<trkpt lat="51.584068" lon="03.837745"><ele>20.2</ele><time>2022-11-15T13:55:46Z</time><name>PT9402</name></trkpt>
<trkpt lat="51.584078" lon="03.837757"><ele>20.1</ele><time>2022-11-15T13:55:48Z</time><name>PT9403</name></trkpt>
<trkpt lat="51.584087" lon="03.837766"><ele>20.2</ele><time>2022-11-15T13:55:48Z</time><name>PT9404</name></trkpt>
<trkpt lat="51.584096" lon="03.837775"><ele>20</ele><time>2022-11-15T13:55:50Z</time><name>PT9405</name></trkpt>
<trkpt lat="51.584105" lon="03.837782"><ele>20</ele><time>2022-11-15T13:55:50Z</time><name>PT9406</name></trkpt>
<trkpt lat="51.584112" lon="03.837789"><ele>19.9</ele><time>2022-11-15T13:55:52Z</time><name>PT9407</name></trkpt>
<trkpt lat="51.584121" lon="03.837799"><ele>19.8</ele><time>2022-11-15T13:55:52Z</time><name>PT9408</name></trkpt>
<trkpt lat="51.584128" lon="03.837809"><ele>19.8</ele><time>2022-11-15T13:55:54Z</time><name>PT9409</name></trkpt>
<trkpt lat="51.584138" lon="03.837823"><ele>19.7</ele><time>2022-11-15T13:55:54Z</time><name>PT9410</name></trkpt>
<trkpt lat="51.584145" lon="03.837838"><ele>19.7</ele><time>2022-11-15T13:55:56Z</time><name>PT9411</name></trkpt>
<trkpt lat="51.584152" lon="03.837849"><ele>19.7</ele><time>2022-11-15T13:55:56Z</time><name>PT9412</name></trkpt>
<trkpt lat="51.584159" lon="03.837859"><ele>19.7</ele><time>2022-11-15T13:55:58Z</time><name>PT9413</name></trkpt>
<trkpt lat="51.584169" lon="03.837868"><ele>19.8</ele><time>2022-11-15T13:55:58Z</time><name>PT9414</name></trkpt>
<trkpt lat="51.584179" lon="03.837877"><ele>20</ele><time>2022-11-15T13:56:00Z</time><name>PT9415</name></trkpt>
<trkpt lat="51.584187" lon="03.837886"><ele>19.9</ele><time>2022-11-15T13:56:00Z</time><name>PT9416</name></trkpt>
<trkpt lat="51.584196" lon="03.837896"><ele>19.8</ele><time>2022-11-15T13:56:02Z</time><name>PT9417</name></trkpt>
<trkpt lat="51.584205" lon="03.837907"><ele>19.7</ele><time>2022-11-15T13:56:02Z</time><name>PT9418</name></trkpt>
<trkpt lat="51.584212" lon="03.837919"><ele>19.7</ele><time>2022-11-15T13:56:04Z</time><name>PT9419</name></trkpt>
<trkpt lat="51.584219" lon="03.837930"><ele>19.7</ele><time>2022-11-15T13:56:04Z</time><name>PT9420</name></trkpt>
<trkpt lat="51.584228" lon="03.837939"><ele>19.7</ele><time>2022-11-15T13:56:06Z</time><name>PT9421</name></trkpt>
<trkpt lat="51.584238" lon="03.837947"><ele>19.8</ele><time>2022-11-15T13:56:06Z</time><name>PT9422</name></trkpt>
<trkpt lat="51.584246" lon="03.837956"><ele>19.9</ele><time>2022-11-15T13:56:08Z</time><name>PT9423</name></trkpt>
<trkpt lat="51.584255" lon="03.837965"><ele>19.8</ele><time>2022-11-15T13:56:08Z</time><name>PT9424</name></trkpt>
<trkpt lat="51.584264" lon="03.837976"><ele>19.9</ele><time>2022-11-15T13:56:10Z</time><name>PT9425</name></trkpt>
<trkpt lat="51.584272" lon="03.837987"><ele>19.8</ele><time>2022-11-15T13:56:10Z</time><name>PT9426</name></trkpt>
<trkpt lat="51.584280" lon="03.837997"><ele>19.7</ele><time>2022-11-15T13:56:12Z</time><name>PT9427</name></trkpt>
<trkpt lat="51.584288" lon="03.838008"><ele>19.7</ele><time>2022-11-15T13:56:12Z</time><name>PT9428</name></trkpt>
<trkpt lat="51.584295" lon="03.838019"><ele>19.7</ele><time>2022-11-15T13:56:14Z</time><name>PT9429</name></trkpt>
<trkpt lat="51.584304" lon="03.838030"><ele>19.7</ele><time>2022-11-15T13:56:14Z</time><name>PT9430</name></trkpt>
<trkpt lat="51.584313" lon="03.838040"><ele>19.9</ele><time>2022-11-15T13:56:16Z</time><name>PT9431</name></trkpt>
<trkpt lat="51.584322" lon="03.838051"><ele>20</ele><time>2022-11-15T13:56:16Z</time><name>PT9432</name></trkpt>
<trkpt lat="51.584331" lon="03.838060"><ele>20.1</ele><time>2022-11-15T13:56:18Z</time><name>PT9433</name></trkpt>
<trkpt lat="51.584339" lon="03.838069"><ele>20.1</ele><time>2022-11-15T13:56:18Z</time><name>PT9434</name></trkpt>
<trkpt lat="51.584348" lon="03.838080"><ele>19.9</ele><time>2022-11-15T13:56:20Z</time><name>PT9435</name></trkpt>
<trkpt lat="51.584356" lon="03.838091"><ele>19.8</ele><time>2022-11-15T13:56:20Z</time><name>PT9436</name></trkpt>
<trkpt lat="51.584363" lon="03.838104"><ele>19.8</ele><time>2022-11-15T13:56:22Z</time><name>PT9437</name></trkpt>
<trkpt lat="51.584371" lon="03.838117"><ele>19.8</ele><time>2022-11-15T13:56:22Z</time><name>PT9438</name></trkpt>
<trkpt lat="51.584379" lon="03.838128"><ele>19.8</ele><time>2022-11-15T13:56:23Z</time><name>PT9439</name></trkpt>
<trkpt lat="51.584386" lon="03.838137"><ele>19.9</ele><time>2022-11-15T13:56:24Z</time><name>PT9440</name></trkpt>
<trkpt lat="51.584394" lon="03.838147"><ele>19.8</ele><time>2022-11-15T13:56:26Z</time><name>PT9441</name></trkpt>
<trkpt lat="51.584404" lon="03.838155"><ele>19.9</ele><time>2022-11-15T13:56:26Z</time><name>PT9442</name></trkpt>
<trkpt lat="51.584413" lon="03.838163"><ele>20</ele><time>2022-11-15T13:56:28Z</time><name>PT9443</name></trkpt>
<trkpt lat="51.584422" lon="03.838170"><ele>20.2</ele><time>2022-11-15T13:56:28Z</time><name>PT9444</name></trkpt>
<trkpt lat="51.584430" lon="03.838178"><ele>20.3</ele><time>2022-11-15T13:56:30Z</time><name>PT9445</name></trkpt>
<trkpt lat="51.584437" lon="03.838189"><ele>20.3</ele><time>2022-11-15T13:56:30Z</time><name>PT9446</name></trkpt>
<trkpt lat="51.584444" lon="03.838203"><ele>20.3</ele><time>2022-11-15T13:56:31Z</time><name>PT9447</name></trkpt>
<trkpt lat="51.584453" lon="03.838216"><ele>20.5</ele><time>2022-11-15T13:56:32Z</time><name>PT9448</name></trkpt>
<trkpt lat="51.584461" lon="03.838228"><ele>20.4</ele><time>2022-11-15T13:56:33Z</time><name>PT9449</name></trkpt>
<trkpt lat="51.584469" lon="03.838238"><ele>20.4</ele><time>2022-11-15T13:56:34Z</time><name>PT9450</name></trkpt>
<trkpt lat="51.584480" lon="03.838245"><ele>20.4</ele><time>2022-11-15T13:56:35Z</time><name>PT9451</name></trkpt>
<trkpt lat="51.584489" lon="03.838253"><ele>20.3</ele><time>2022-11-15T13:56:36Z</time><name>PT9452</name></trkpt>
<trkpt lat="51.584498" lon="03.838264"><ele>20.2</ele><time>2022-11-15T13:56:38Z</time><name>PT9453</name></trkpt>
<trkpt lat="51.584506" lon="03.838276"><ele>20.3</ele><time>2022-11-15T13:56:38Z</time><name>PT9454</name></trkpt>
<trkpt lat="51.584515" lon="03.838286"><ele>20.5</ele><time>2022-11-15T13:56:39Z</time><name>PT9455</name></trkpt>
<trkpt lat="51.584524" lon="03.838298"><ele>20.5</ele><time>2022-11-15T13:56:40Z</time><name>PT9456</name></trkpt>
<trkpt lat="51.584533" lon="03.838311"><ele>20.6</ele><time>2022-11-15T13:56:42Z</time><name>PT9457</name></trkpt>
<trkpt lat="51.584541" lon="03.838322"><ele>20.7</ele><time>2022-11-15T13:56:42Z</time><name>PT9458</name></trkpt>
<trkpt lat="51.584549" lon="03.838332"><ele>20.2</ele><time>2022-11-15T13:56:44Z</time><name>PT9459</name></trkpt>
<trkpt lat="51.584558" lon="03.838340"><ele>20.2</ele><time>2022-11-15T13:56:44Z</time><name>PT9460</name></trkpt>
<trkpt lat="51.584567" lon="03.838351"><ele>19.9</ele><time>2022-11-15T13:56:46Z</time><name>PT9461</name></trkpt>
<trkpt lat="51.584576" lon="03.838362"><ele>19.8</ele><time>2022-11-15T13:56:46Z</time><name>PT9462</name></trkpt>
<trkpt lat="51.584583" lon="03.838371"><ele>19.8</ele><time>2022-11-15T13:56:47Z</time><name>PT9463</name></trkpt>
<trkpt lat="51.584592" lon="03.838381"><ele>20</ele><time>2022-11-15T13:56:48Z</time><name>PT9464</name></trkpt>
<trkpt lat="51.584600" lon="03.838393"><ele>20.1</ele><time>2022-11-15T13:56:49Z</time><name>PT9465</name></trkpt>
<trkpt lat="51.584607" lon="03.838406"><ele>20.2</ele><time>2022-11-15T13:56:50Z</time><name>PT9466</name></trkpt>
<trkpt lat="51.584615" lon="03.838419"><ele>20.2</ele><time>2022-11-15T13:56:51Z</time><name>PT9467</name></trkpt>
<trkpt lat="51.584622" lon="03.838428"><ele>20.2</ele><time>2022-11-15T13:56:52Z</time><name>PT9468</name></trkpt>
<trkpt lat="51.584631" lon="03.838439"><ele>20.2</ele><time>2022-11-15T13:56:53Z</time><name>PT9469</name></trkpt>
<trkpt lat="51.584640" lon="03.838448"><ele>20.2</ele><time>2022-11-15T13:56:54Z</time><name>PT9470</name></trkpt>
<trkpt lat="51.584649" lon="03.838457"><ele>20.2</ele><time>2022-11-15T13:56:56Z</time><name>PT9471</name></trkpt>
<trkpt lat="51.584659" lon="03.838467"><ele>20</ele><time>2022-11-15T13:56:56Z</time><name>PT9472</name></trkpt>
<trkpt lat="51.584667" lon="03.838477"><ele>20</ele><time>2022-11-15T13:56:58Z</time><name>PT9473</name></trkpt>
<trkpt lat="51.584675" lon="03.838488"><ele>19.9</ele><time>2022-11-15T13:56:58Z</time><name>PT9474</name></trkpt>
<trkpt lat="51.584681" lon="03.838499"><ele>19.9</ele><time>2022-11-15T13:57:00Z</time><name>PT9475</name></trkpt>
<trkpt lat="51.584688" lon="03.838511"><ele>19.9</ele><time>2022-11-15T13:57:00Z</time><name>PT9476</name></trkpt>
<trkpt lat="51.584696" lon="03.838524"><ele>20.1</ele><time>2022-11-15T13:57:02Z</time><name>PT9477</name></trkpt>
<trkpt lat="51.584705" lon="03.838534"><ele>19.9</ele><time>2022-11-15T13:57:02Z</time><name>PT9478</name></trkpt>
<trkpt lat="51.584713" lon="03.838545"><ele>20.1</ele><time>2022-11-15T13:57:04Z</time><name>PT9479</name></trkpt>
<trkpt lat="51.584722" lon="03.838555"><ele>20.1</ele><time>2022-11-15T13:57:04Z</time><name>PT9480</name></trkpt>
<trkpt lat="51.584731" lon="03.838565"><ele>20.2</ele><time>2022-11-15T13:57:06Z</time><name>PT9481</name></trkpt>
<trkpt lat="51.584740" lon="03.838576"><ele>20.2</ele><time>2022-11-15T13:57:06Z</time><name>PT9482</name></trkpt>
<trkpt lat="51.584750" lon="03.838585"><ele>20.3</ele><time>2022-11-15T13:57:07Z</time><name>PT9483</name></trkpt>
<trkpt lat="51.584758" lon="03.838596"><ele>20.3</ele><time>2022-11-15T13:57:08Z</time><name>PT9484</name></trkpt>
<trkpt lat="51.584764" lon="03.838607"><ele>20.3</ele><time>2022-11-15T13:57:10Z</time><name>PT9485</name></trkpt>
<trkpt lat="51.584771" lon="03.838619"><ele>20.2</ele><time>2022-11-15T13:57:10Z</time><name>PT9486</name></trkpt>
<trkpt lat="51.584779" lon="03.838631"><ele>20.4</ele><time>2022-11-15T13:57:12Z</time><name>PT9487</name></trkpt>
<trkpt lat="51.584787" lon="03.838642"><ele>20.3</ele><time>2022-11-15T13:57:12Z</time><name>PT9488</name></trkpt>
<trkpt lat="51.584796" lon="03.838654"><ele>20.2</ele><time>2022-11-15T13:57:14Z</time><name>PT9489</name></trkpt>
<trkpt lat="51.584804" lon="03.838666"><ele>20.2</ele><time>2022-11-15T13:57:14Z</time><name>PT9490</name></trkpt>
<trkpt lat="51.584812" lon="03.838677"><ele>20.2</ele><time>2022-11-15T13:57:16Z</time><name>PT9491</name></trkpt>
<trkpt lat="51.584821" lon="03.838687"><ele>20.1</ele><time>2022-11-15T13:57:16Z</time><name>PT9492</name></trkpt>
<trkpt lat="51.584830" lon="03.838697"><ele>20.1</ele><time>2022-11-15T13:57:18Z</time><name>PT9493</name></trkpt>
<trkpt lat="51.584840" lon="03.838707"><ele>20.1</ele><time>2022-11-15T13:57:18Z</time><name>PT9494</name></trkpt>
<trkpt lat="51.584848" lon="03.838716"><ele>20.2</ele><time>2022-11-15T13:57:20Z</time><name>PT9495</name></trkpt>
<trkpt lat="51.584856" lon="03.838727"><ele>20.2</ele><time>2022-11-15T13:57:20Z</time><name>PT9496</name></trkpt>
<trkpt lat="51.584864" lon="03.838738"><ele>20.2</ele><time>2022-11-15T13:57:22Z</time><name>PT9497</name></trkpt>
<trkpt lat="51.584872" lon="03.838750"><ele>20.3</ele><time>2022-11-15T13:57:22Z</time><name>PT9498</name></trkpt>
<trkpt lat="51.584879" lon="03.838762"><ele>20.2</ele><time>2022-11-15T13:57:24Z</time><name>PT9499</name></trkpt>
<trkpt lat="51.584888" lon="03.838774"><ele>20.3</ele><time>2022-11-15T13:57:24Z</time><name>PT9500</name></trkpt>
<trkpt lat="51.584896" lon="03.838786"><ele>20.2</ele><time>2022-11-15T13:57:26Z</time><name>PT9501</name></trkpt>
<trkpt lat="51.584904" lon="03.838797"><ele>20.2</ele><time>2022-11-15T13:57:26Z</time><name>PT9502</name></trkpt>
<trkpt lat="51.584912" lon="03.838806"><ele>20.3</ele><time>2022-11-15T13:57:28Z</time><name>PT9503</name></trkpt>
<trkpt lat="51.584922" lon="03.838815"><ele>20.2</ele><time>2022-11-15T13:57:28Z</time><name>PT9504</name></trkpt>
<trkpt lat="51.584932" lon="03.838826"><ele>20.2</ele><time>2022-11-15T13:57:30Z</time><name>PT9505</name></trkpt>
<trkpt lat="51.584941" lon="03.838838"><ele>20.2</ele><time>2022-11-15T13:57:30Z</time><name>PT9506</name></trkpt>
<trkpt lat="51.584950" lon="03.838848"><ele>19.9</ele><time>2022-11-15T13:57:32Z</time><name>PT9507</name></trkpt>
<trkpt lat="51.584957" lon="03.838857"><ele>19.8</ele><time>2022-11-15T13:57:32Z</time><name>PT9508</name></trkpt>
<trkpt lat="51.584964" lon="03.838867"><ele>19.8</ele><time>2022-11-15T13:57:34Z</time><name>PT9509</name></trkpt>
<trkpt lat="51.584971" lon="03.838879"><ele>19.9</ele><time>2022-11-15T13:57:34Z</time><name>PT9510</name></trkpt>
<trkpt lat="51.584979" lon="03.838890"><ele>20.2</ele><time>2022-11-15T13:57:36Z</time><name>PT9511</name></trkpt>
<trkpt lat="51.584988" lon="03.838904"><ele>20.3</ele><time>2022-11-15T13:57:36Z</time><name>PT9512</name></trkpt>
<trkpt lat="51.584996" lon="03.838915"><ele>20.3</ele><time>2022-11-15T13:57:37Z</time><name>PT9513</name></trkpt>
<trkpt lat="51.585004" lon="03.838926"><ele>20.6</ele><time>2022-11-15T13:57:38Z</time><name>PT9514</name></trkpt>
<trkpt lat="51.585013" lon="03.838936"><ele>20.3</ele><time>2022-11-15T13:57:40Z</time><name>PT9515</name></trkpt>
<trkpt lat="51.585021" lon="03.838948"><ele>20.1</ele><time>2022-11-15T13:57:40Z</time><name>PT9516</name></trkpt>
<trkpt lat="51.585030" lon="03.838959"><ele>20.1</ele><time>2022-11-15T13:57:42Z</time><name>PT9517</name></trkpt>
<trkpt lat="51.585039" lon="03.838968"><ele>20.1</ele><time>2022-11-15T13:57:42Z</time><name>PT9518</name></trkpt>
<trkpt lat="51.585048" lon="03.838978"><ele>20</ele><time>2022-11-15T13:57:43Z</time><name>PT9519</name></trkpt>
<trkpt lat="51.585056" lon="03.838988"><ele>20.2</ele><time>2022-11-15T13:57:44Z</time><name>PT9520</name></trkpt>
<trkpt lat="51.585064" lon="03.838997"><ele>20.3</ele><time>2022-11-15T13:57:45Z</time><name>PT9521</name></trkpt>
<trkpt lat="51.585072" lon="03.839009"><ele>20.3</ele><time>2022-11-15T13:57:46Z</time><name>PT9522</name></trkpt>
<trkpt lat="51.585080" lon="03.839022"><ele>20.2</ele><time>2022-11-15T13:57:48Z</time><name>PT9523</name></trkpt>
<trkpt lat="51.585087" lon="03.839033"><ele>20.2</ele><time>2022-11-15T13:57:48Z</time><name>PT9524</name></trkpt>
<trkpt lat="51.585095" lon="03.839042"><ele>20.2</ele><time>2022-11-15T13:57:50Z</time><name>PT9525</name></trkpt>
<trkpt lat="51.585104" lon="03.839050"><ele>20.2</ele><time>2022-11-15T13:57:50Z</time><name>PT9526</name></trkpt>
<trkpt lat="51.585113" lon="03.839059"><ele>20.2</ele><time>2022-11-15T13:57:52Z</time><name>PT9527</name></trkpt>
<trkpt lat="51.585123" lon="03.839069"><ele>20.2</ele><time>2022-11-15T13:57:52Z</time><name>PT9528</name></trkpt>
<trkpt lat="51.585131" lon="03.839080"><ele>20.2</ele><time>2022-11-15T13:57:54Z</time><name>PT9529</name></trkpt>
<trkpt lat="51.585139" lon="03.839090"><ele>20.2</ele><time>2022-11-15T13:57:54Z</time><name>PT9530</name></trkpt>
<trkpt lat="51.585146" lon="03.839102"><ele>20.1</ele><time>2022-11-15T13:57:56Z</time><name>PT9531</name></trkpt>
<trkpt lat="51.585154" lon="03.839115"><ele>20</ele><time>2022-11-15T13:57:56Z</time><name>PT9532</name></trkpt>
<trkpt lat="51.585163" lon="03.839126"><ele>19.8</ele><time>2022-11-15T13:57:58Z</time><name>PT9533</name></trkpt>
<trkpt lat="51.585172" lon="03.839137"><ele>19.9</ele><time>2022-11-15T13:57:58Z</time><name>PT9534</name></trkpt>
<trkpt lat="51.585180" lon="03.839147"><ele>20</ele><time>2022-11-15T13:57:59Z</time><name>PT9535</name></trkpt>
<trkpt lat="51.585189" lon="03.839157"><ele>20.2</ele><time>2022-11-15T13:58:00Z</time><name>PT9536</name></trkpt>
<trkpt lat="51.585199" lon="03.839167"><ele>20.2</ele><time>2022-11-15T13:58:02Z</time><name>PT9537</name></trkpt>
<trkpt lat="51.585207" lon="03.839177"><ele>20.3</ele><time>2022-11-15T13:58:02Z</time><name>PT9538</name></trkpt>
<trkpt lat="51.585215" lon="03.839185"><ele>20.4</ele><time>2022-11-15T13:58:04Z</time><name>PT9539</name></trkpt>
<trkpt lat="51.585223" lon="03.839196"><ele>20.4</ele><time>2022-11-15T13:58:04Z</time><name>PT9540</name></trkpt>
<trkpt lat="51.585230" lon="03.839207"><ele>20.2</ele><time>2022-11-15T13:58:05Z</time><name>PT9541</name></trkpt>
<trkpt lat="51.585237" lon="03.839218"><ele>20.2</ele><time>2022-11-15T13:58:06Z</time><name>PT9542</name></trkpt>
<trkpt lat="51.585244" lon="03.839228"><ele>20.2</ele><time>2022-11-15T13:58:08Z</time><name>PT9543</name></trkpt>
<trkpt lat="51.585250" lon="03.839238"><ele>20.2</ele><time>2022-11-15T13:58:08Z</time><name>PT9544</name></trkpt>
<trkpt lat="51.585258" lon="03.839247"><ele>20.1</ele><time>2022-11-15T13:58:10Z</time><name>PT9545</name></trkpt>
<trkpt lat="51.585267" lon="03.839256"><ele>20.2</ele><time>2022-11-15T13:58:10Z</time><name>PT9546</name></trkpt>
<trkpt lat="51.585276" lon="03.839265"><ele>20.3</ele><time>2022-11-15T13:58:12Z</time><name>PT9547</name></trkpt>
<trkpt lat="51.585286" lon="03.839275"><ele>20.3</ele><time>2022-11-15T13:58:12Z</time><name>PT9548</name></trkpt>
<trkpt lat="51.585295" lon="03.839286"><ele>20.3</ele><time>2022-11-15T13:58:14Z</time><name>PT9549</name></trkpt>
<trkpt lat="51.585302" lon="03.839296"><ele>20.5</ele><time>2022-11-15T13:58:14Z</time><name>PT9550</name></trkpt>
<trkpt lat="51.585309" lon="03.839307"><ele>20.7</ele><time>2022-11-15T13:58:16Z</time><name>PT9551</name></trkpt>
<trkpt lat="51.585318" lon="03.839319"><ele>20.7</ele><time>2022-11-15T13:58:16Z</time><name>PT9552</name></trkpt>
<trkpt lat="51.585325" lon="03.839331"><ele>20.7</ele><time>2022-11-15T13:58:18Z</time><name>PT9553</name></trkpt>
<trkpt lat="51.585332" lon="03.839343"><ele>20.7</ele><time>2022-11-15T13:58:18Z</time><name>PT9554</name></trkpt>
<trkpt lat="51.585340" lon="03.839351"><ele>20.5</ele><time>2022-11-15T13:58:19Z</time><name>PT9555</name></trkpt>
<trkpt lat="51.585348" lon="03.839360"><ele>20.3</ele><time>2022-11-15T13:58:20Z</time><name>PT9556</name></trkpt>
<trkpt lat="51.585356" lon="03.839370"><ele>20.3</ele><time>2022-11-15T13:58:22Z</time><name>PT9557</name></trkpt>
<trkpt lat="51.585364" lon="03.839378"><ele>20.2</ele><time>2022-11-15T13:58:22Z</time><name>PT9558</name></trkpt>
<trkpt lat="51.585371" lon="03.839390"><ele>20</ele><time>2022-11-15T13:58:23Z</time><name>PT9559</name></trkpt>
<trkpt lat="51.585379" lon="03.839401"><ele>20.2</ele><time>2022-11-15T13:58:24Z</time><name>PT9560</name></trkpt>
<trkpt lat="51.585386" lon="03.839415"><ele>20.2</ele><time>2022-11-15T13:58:25Z</time><name>PT9561</name></trkpt>
<trkpt lat="51.585394" lon="03.839428"><ele>20.2</ele><time>2022-11-15T13:58:26Z</time><name>PT9562</name></trkpt>
<trkpt lat="51.585401" lon="03.839438"><ele>20.6</ele><time>2022-11-15T13:58:28Z</time><name>PT9563</name></trkpt>
<trkpt lat="51.585410" lon="03.839448"><ele>20.7</ele><time>2022-11-15T13:58:28Z</time><name>PT9564</name></trkpt>
<trkpt lat="51.585419" lon="03.839458"><ele>20.8</ele><time>2022-11-15T13:58:30Z</time><name>PT9565</name></trkpt>
<trkpt lat="51.585428" lon="03.839467"><ele>20.8</ele><time>2022-11-15T13:58:30Z</time><name>PT9566</name></trkpt>
<trkpt lat="51.585437" lon="03.839476"><ele>20.9</ele><time>2022-11-15T13:58:32Z</time><name>PT9567</name></trkpt>
<trkpt lat="51.585445" lon="03.839485"><ele>20.9</ele><time>2022-11-15T13:58:32Z</time><name>PT9568</name></trkpt>
<trkpt lat="51.585453" lon="03.839496"><ele>20.8</ele><time>2022-11-15T13:58:34Z</time><name>PT9569</name></trkpt>
<trkpt lat="51.585461" lon="03.839509"><ele>20.7</ele><time>2022-11-15T13:58:34Z</time><name>PT9570</name></trkpt>
<trkpt lat="51.585470" lon="03.839520"><ele>20.7</ele><time>2022-11-15T13:58:36Z</time><name>PT9571</name></trkpt>
<trkpt lat="51.585478" lon="03.839531"><ele>20.7</ele><time>2022-11-15T13:58:36Z</time><name>PT9572</name></trkpt>
<trkpt lat="51.585487" lon="03.839541"><ele>20.7</ele><time>2022-11-15T13:58:37Z</time><name>PT9573</name></trkpt>
<trkpt lat="51.585495" lon="03.839550"><ele>20.6</ele><time>2022-11-15T13:58:38Z</time><name>PT9574</name></trkpt>
<trkpt lat="51.585503" lon="03.839559"><ele>20.6</ele><time>2022-11-15T13:58:40Z</time><name>PT9575</name></trkpt>
<trkpt lat="51.585510" lon="03.839568"><ele>20.4</ele><time>2022-11-15T13:58:40Z</time><name>PT9576</name></trkpt>
<trkpt lat="51.585517" lon="03.839580"><ele>20.2</ele><time>2022-11-15T13:58:42Z</time><name>PT9577</name></trkpt>
<trkpt lat="51.585524" lon="03.839590"><ele>20.2</ele><time>2022-11-15T13:58:42Z</time><name>PT9578</name></trkpt>
<trkpt lat="51.585532" lon="03.839601"><ele>20.2</ele><time>2022-11-15T13:58:43Z</time><name>PT9579</name></trkpt>
<trkpt lat="51.585541" lon="03.839612"><ele>20.2</ele><time>2022-11-15T13:58:44Z</time><name>PT9580</name></trkpt>
<trkpt lat="51.585548" lon="03.839622"><ele>20.2</ele><time>2022-11-15T13:58:45Z</time><name>PT9581</name></trkpt>
<trkpt lat="51.585556" lon="03.839631"><ele>20.2</ele><time>2022-11-15T13:58:46Z</time><name>PT9582</name></trkpt>
<trkpt lat="51.585564" lon="03.839640"><ele>20.1</ele><time>2022-11-15T13:58:48Z</time><name>PT9583</name></trkpt>
<trkpt lat="51.585573" lon="03.839649"><ele>20</ele><time>2022-11-15T13:58:48Z</time><name>PT9584</name></trkpt>
<trkpt lat="51.585581" lon="03.839658"><ele>20</ele><time>2022-11-15T13:58:50Z</time><name>PT9585</name></trkpt>
<trkpt lat="51.585588" lon="03.839669"><ele>20.1</ele><time>2022-11-15T13:58:50Z</time><name>PT9586</name></trkpt>
<trkpt lat="51.585596" lon="03.839681"><ele>20.2</ele><time>2022-11-15T13:58:52Z</time><name>PT9587</name></trkpt>
<trkpt lat="51.585603" lon="03.839693"><ele>20.1</ele><time>2022-11-15T13:58:52Z</time><name>PT9588</name></trkpt>
<trkpt lat="51.585611" lon="03.839704"><ele>20.2</ele><time>2022-11-15T13:58:53Z</time><name>PT9589</name></trkpt>
<trkpt lat="51.585619" lon="03.839714"><ele>20.2</ele><time>2022-11-15T13:58:54Z</time><name>PT9590</name></trkpt>
<trkpt lat="51.585628" lon="03.839723"><ele>20.3</ele><time>2022-11-15T13:58:55Z</time><name>PT9591</name></trkpt>
<trkpt lat="51.585636" lon="03.839734"><ele>20.2</ele><time>2022-11-15T13:58:56Z</time><name>PT9592</name></trkpt>
<trkpt lat="51.585644" lon="03.839742"><ele>20.2</ele><time>2022-11-15T13:58:57Z</time><name>PT9593</name></trkpt>
<trkpt lat="51.585652" lon="03.839750"><ele>20.2</ele><time>2022-11-15T13:58:58Z</time><name>PT9594</name></trkpt>
<trkpt lat="51.585659" lon="03.839760"><ele>20.2</ele><time>2022-11-15T13:58:59Z</time><name>PT9595</name></trkpt>
<trkpt lat="51.585667" lon="03.839771"><ele>20.1</ele><time>2022-11-15T13:59:00Z</time><name>PT9596</name></trkpt>
<trkpt lat="51.585675" lon="03.839783"><ele>20.2</ele><time>2022-11-15T13:59:01Z</time><name>PT9597</name></trkpt>
<trkpt lat="51.585683" lon="03.839796"><ele>20.2</ele><time>2022-11-15T13:59:02Z</time><name>PT9598</name></trkpt>
<trkpt lat="51.585691" lon="03.839805"><ele>20</ele><time>2022-11-15T13:59:04Z</time><name>PT9599</name></trkpt>
<trkpt lat="51.585698" lon="03.839814"><ele>20</ele><time>2022-11-15T13:59:04Z</time><name>PT9600</name></trkpt>
<trkpt lat="51.585706" lon="03.839822"><ele>20.1</ele><time>2022-11-15T13:59:05Z</time><name>PT9601</name></trkpt>
<trkpt lat="51.585714" lon="03.839831"><ele>20</ele><time>2022-11-15T13:59:06Z</time><name>PT9602</name></trkpt>
<trkpt lat="51.585724" lon="03.839840"><ele>20.2</ele><time>2022-11-15T13:59:08Z</time><name>PT9603</name></trkpt>
<trkpt lat="51.585733" lon="03.839851"><ele>20.2</ele><time>2022-11-15T13:59:08Z</time><name>PT9604</name></trkpt>
<trkpt lat="51.585741" lon="03.839861"><ele>20</ele><time>2022-11-15T13:59:09Z</time><name>PT9605</name></trkpt>
<trkpt lat="51.585749" lon="03.839871"><ele>20</ele><time>2022-11-15T13:59:10Z</time><name>PT9606</name></trkpt>
<trkpt lat="51.585756" lon="03.839882"><ele>20.1</ele><time>2022-11-15T13:59:11Z</time><name>PT9607</name></trkpt>
<trkpt lat="51.585763" lon="03.839895"><ele>20</ele><time>2022-11-15T13:59:12Z</time><name>PT9608</name></trkpt>
<trkpt lat="51.585771" lon="03.839908"><ele>20</ele><time>2022-11-15T13:59:13Z</time><name>PT9609</name></trkpt>
<trkpt lat="51.585780" lon="03.839919"><ele>20.2</ele><time>2022-11-15T13:59:14Z</time><name>PT9610</name></trkpt>
<trkpt lat="51.585787" lon="03.839930"><ele>20.4</ele><time>2022-11-15T13:59:15Z</time><name>PT9611</name></trkpt>
<trkpt lat="51.585794" lon="03.839937"><ele>20.5</ele><time>2022-11-15T13:59:16Z</time><name>PT9612</name></trkpt>
<trkpt lat="51.585802" lon="03.839947"><ele>20.6</ele><time>2022-11-15T13:59:18Z</time><name>PT9613</name></trkpt>
<trkpt lat="51.585810" lon="03.839956"><ele>20.6</ele><time>2022-11-15T13:59:18Z</time><name>PT9614</name></trkpt>
<trkpt lat="51.585818" lon="03.839966"><ele>20.5</ele><time>2022-11-15T13:59:19Z</time><name>PT9615</name></trkpt>
<trkpt lat="51.585828" lon="03.839976"><ele>20.7</ele><time>2022-11-15T13:59:20Z</time><name>PT9616</name></trkpt>
<trkpt lat="51.585837" lon="03.839987"><ele>20.5</ele><time>2022-11-15T13:59:21Z</time><name>PT9617</name></trkpt>
<trkpt lat="51.585845" lon="03.839999"><ele>20.5</ele><time>2022-11-15T13:59:22Z</time><name>PT9618</name></trkpt>
<trkpt lat="51.585853" lon="03.840012"><ele>20.6</ele><time>2022-11-15T13:59:24Z</time><name>PT9619</name></trkpt>
<trkpt lat="51.585862" lon="03.840022"><ele>20.6</ele><time>2022-11-15T13:59:24Z</time><name>PT9620</name></trkpt>
<trkpt lat="51.585870" lon="03.840033"><ele>20.3</ele><time>2022-11-15T13:59:25Z</time><name>PT9621</name></trkpt>
<trkpt lat="51.585878" lon="03.840043"><ele>20.3</ele><time>2022-11-15T13:59:26Z</time><name>PT9622</name></trkpt>
<trkpt lat="51.585887" lon="03.840053"><ele>20.2</ele><time>2022-11-15T13:59:28Z</time><name>PT9623</name></trkpt>
<trkpt lat="51.585895" lon="03.840062"><ele>20.2</ele><time>2022-11-15T13:59:28Z</time><name>PT9624</name></trkpt>
<trkpt lat="51.585904" lon="03.840073"><ele>20</ele><time>2022-11-15T13:59:29Z</time><name>PT9625</name></trkpt>
<trkpt lat="51.585910" lon="03.840084"><ele>20.2</ele><time>2022-11-15T13:59:30Z</time><name>PT9626</name></trkpt>
<trkpt lat="51.585916" lon="03.840093"><ele>20.1</ele><time>2022-11-15T13:59:32Z</time><name>PT9627</name></trkpt>
<trkpt lat="51.585923" lon="03.840102"><ele>20.1</ele><time>2022-11-15T13:59:32Z</time><name>PT9628</name></trkpt>
<trkpt lat="51.585930" lon="03.840112"><ele>20.2</ele><time>2022-11-15T13:59:33Z</time><name>PT9629</name></trkpt>
<trkpt lat="51.585938" lon="03.840121"><ele>20.4</ele><time>2022-11-15T13:59:34Z</time><name>PT9630</name></trkpt>
<trkpt lat="51.585946" lon="03.840130"><ele>20.3</ele><time>2022-11-15T13:59:35Z</time><name>PT9631</name></trkpt>
<trkpt lat="51.585954" lon="03.840138"><ele>20.2</ele><time>2022-11-15T13:59:36Z</time><name>PT9632</name></trkpt>
<trkpt lat="51.585962" lon="03.840148"><ele>20.4</ele><time>2022-11-15T13:59:38Z</time><name>PT9633</name></trkpt>
<trkpt lat="51.585968" lon="03.840158"><ele>20.3</ele><time>2022-11-15T13:59:38Z</time><name>PT9634</name></trkpt>
<trkpt lat="51.585975" lon="03.840163"><ele>20.2</ele><time>2022-11-15T13:59:40Z</time><name>PT9635</name></trkpt>
<trkpt lat="51.585982" lon="03.840170"><ele>20.3</ele><time>2022-11-15T13:59:40Z</time><name>PT9636</name></trkpt>
<trkpt lat="51.585990" lon="03.840180"><ele>20.3</ele><time>2022-11-15T13:59:41Z</time><name>PT9637</name></trkpt>
<trkpt lat="51.585997" lon="03.840190"><ele>20.2</ele><time>2022-11-15T13:59:42Z</time><name>PT9638</name></trkpt>
<trkpt lat="51.586005" lon="03.840202"><ele>20.3</ele><time>2022-11-15T13:59:43Z</time><name>PT9639</name></trkpt>
<trkpt lat="51.586011" lon="03.840214"><ele>20.2</ele><time>2022-11-15T13:59:44Z</time><name>PT9640</name></trkpt>
<trkpt lat="51.586018" lon="03.840223"><ele>20.2</ele><time>2022-11-15T13:59:46Z</time><name>PT9641</name></trkpt>
<trkpt lat="51.586027" lon="03.840232"><ele>20.2</ele><time>2022-11-15T13:59:46Z</time><name>PT9642</name></trkpt>
<trkpt lat="51.586036" lon="03.840242"><ele>20.2</ele><time>2022-11-15T13:59:48Z</time><name>PT9643</name></trkpt>
<trkpt lat="51.586044" lon="03.840253"><ele>20.2</ele><time>2022-11-15T13:59:48Z</time><name>PT9644</name></trkpt>
<trkpt lat="51.586053" lon="03.840263"><ele>20.3</ele><time>2022-11-15T13:59:49Z</time><name>PT9645</name></trkpt>
<trkpt lat="51.586061" lon="03.840272"><ele>20.3</ele><time>2022-11-15T13:59:50Z</time><name>PT9646</name></trkpt>
<trkpt lat="51.586069" lon="03.840283"><ele>20.2</ele><time>2022-11-15T13:59:51Z</time><name>PT9647</name></trkpt>
<trkpt lat="51.586077" lon="03.840294"><ele>20.2</ele><time>2022-11-15T13:59:52Z</time><name>PT9648</name></trkpt>
<trkpt lat="51.586084" lon="03.840305"><ele>20.1</ele><time>2022-11-15T13:59:53Z</time><name>PT9649</name></trkpt>
<trkpt lat="51.586091" lon="03.840315"><ele>20.2</ele><time>2022-11-15T13:59:54Z</time><name>PT9650</name></trkpt>
<trkpt lat="51.586098" lon="03.840324"><ele>20.3</ele><time>2022-11-15T13:59:56Z</time><name>PT9651</name></trkpt>
<trkpt lat="51.586107" lon="03.840335"><ele>20.4</ele><time>2022-11-15T13:59:56Z</time><name>PT9652</name></trkpt>
<trkpt lat="51.586116" lon="03.840345"><ele>20.3</ele><time>2022-11-15T13:59:57Z</time><name>PT9653</name></trkpt>
<trkpt lat="51.586125" lon="03.840354"><ele>20.6</ele><time>2022-11-15T13:59:58Z</time><name>PT9654</name></trkpt>
<trkpt lat="51.586133" lon="03.840364"><ele>20.5</ele><time>2022-11-15T14:00:00Z</time><name>PT9655</name></trkpt>
<trkpt lat="51.586142" lon="03.840374"><ele>20.4</ele><time>2022-11-15T14:00:00Z</time><name>PT9656</name></trkpt>
<trkpt lat="51.586150" lon="03.840385"><ele>20.5</ele><time>2022-11-15T14:00:01Z</time><name>PT9657</name></trkpt>
<trkpt lat="51.586158" lon="03.840400"><ele>20.6</ele><time>2022-11-15T14:00:02Z</time><name>PT9658</name></trkpt>
<trkpt lat="51.586166" lon="03.840410"><ele>20.3</ele><time>2022-11-15T14:00:03Z</time><name>PT9659</name></trkpt>
<trkpt lat="51.586175" lon="03.840420"><ele>20.3</ele><time>2022-11-15T14:00:04Z</time><name>PT9660</name></trkpt>
<trkpt lat="51.586184" lon="03.840428"><ele>20.3</ele><time>2022-11-15T14:00:06Z</time><name>PT9661</name></trkpt>
<trkpt lat="51.586193" lon="03.840437"><ele>20.4</ele><time>2022-11-15T14:00:06Z</time><name>PT9662</name></trkpt>
<trkpt lat="51.586201" lon="03.840446"><ele>20.3</ele><time>2022-11-15T14:00:07Z</time><name>PT9663</name></trkpt>
<trkpt lat="51.586208" lon="03.840455"><ele>20.4</ele><time>2022-11-15T14:00:08Z</time><name>PT9664</name></trkpt>
<trkpt lat="51.586215" lon="03.840467"><ele>20.3</ele><time>2022-11-15T14:00:10Z</time><name>PT9665</name></trkpt>
<trkpt lat="51.586222" lon="03.840478"><ele>20.2</ele><time>2022-11-15T14:00:10Z</time><name>PT9666</name></trkpt>
<trkpt lat="51.586229" lon="03.840487"><ele>20.3</ele><time>2022-11-15T14:00:12Z</time><name>PT9667</name></trkpt>
<trkpt lat="51.586237" lon="03.840495"><ele>20.2</ele><time>2022-11-15T14:00:12Z</time><name>PT9668</name></trkpt>
<trkpt lat="51.586245" lon="03.840504"><ele>20.3</ele><time>2022-11-15T14:00:14Z</time><name>PT9669</name></trkpt>
<trkpt lat="51.586253" lon="03.840513"><ele>20.5</ele><time>2022-11-15T14:00:14Z</time><name>PT9670</name></trkpt>
<trkpt lat="51.586260" lon="03.840521"><ele>20.6</ele><time>2022-11-15T14:00:15Z</time><name>PT9671</name></trkpt>
<trkpt lat="51.586268" lon="03.840532"><ele>20.7</ele><time>2022-11-15T14:00:16Z</time><name>PT9672</name></trkpt>
<trkpt lat="51.586275" lon="03.840541"><ele>20.7</ele><time>2022-11-15T14:00:17Z</time><name>PT9673</name></trkpt>
<trkpt lat="51.586282" lon="03.840551"><ele>20.7</ele><time>2022-11-15T14:00:18Z</time><name>PT9674</name></trkpt>
<trkpt lat="51.586289" lon="03.840562"><ele>20.5</ele><time>2022-11-15T14:00:20Z</time><name>PT9675</name></trkpt>
<trkpt lat="51.586296" lon="03.840573"><ele>20.3</ele><time>2022-11-15T14:00:20Z</time><name>PT9676</name></trkpt>
<trkpt lat="51.586304" lon="03.840582"><ele>20.2</ele><time>2022-11-15T14:00:21Z</time><name>PT9677</name></trkpt>
<trkpt lat="51.586314" lon="03.840591"><ele>20.2</ele><time>2022-11-15T14:00:22Z</time><name>PT9678</name></trkpt>
<trkpt lat="51.586322" lon="03.840600"><ele>20.1</ele><time>2022-11-15T14:00:23Z</time><name>PT9679</name></trkpt>
<trkpt lat="51.586330" lon="03.840610"><ele>20.2</ele><time>2022-11-15T14:00:24Z</time><name>PT9680</name></trkpt>
<trkpt lat="51.586338" lon="03.840620"><ele>20.4</ele><time>2022-11-15T14:00:26Z</time><name>PT9681</name></trkpt>
<trkpt lat="51.586345" lon="03.840631"><ele>20.4</ele><time>2022-11-15T14:00:26Z</time><name>PT9682</name></trkpt>
<trkpt lat="51.586352" lon="03.840641"><ele>20.4</ele><time>2022-11-15T14:00:28Z</time><name>PT9683</name></trkpt>
<trkpt lat="51.586360" lon="03.840650"><ele>20.6</ele><time>2022-11-15T14:00:28Z</time><name>PT9684</name></trkpt>
<trkpt lat="51.586369" lon="03.840659"><ele>20.4</ele><time>2022-11-15T14:00:30Z</time><name>PT9685</name></trkpt>
<trkpt lat="51.586378" lon="03.840668"><ele>20.4</ele><time>2022-11-15T14:00:30Z</time><name>PT9686</name></trkpt>
<trkpt lat="51.586386" lon="03.840677"><ele>20.3</ele><time>2022-11-15T14:00:31Z</time><name>PT9687</name></trkpt>
<trkpt lat="51.586393" lon="03.840685"><ele>20.4</ele><time>2022-11-15T14:00:32Z</time><name>PT9688</name></trkpt>
<trkpt lat="51.586400" lon="03.840695"><ele>20.4</ele><time>2022-11-15T14:00:33Z</time><name>PT9689</name></trkpt>
<trkpt lat="51.586406" lon="03.840708"><ele>20.5</ele><time>2022-11-15T14:00:34Z</time><name>PT9690</name></trkpt>
<trkpt lat="51.586414" lon="03.840722"><ele>20.7</ele><time>2022-11-15T14:00:35Z</time><name>PT9691</name></trkpt>
<trkpt lat="51.586423" lon="03.840734"><ele>20.6</ele><time>2022-11-15T14:00:36Z</time><name>PT9692</name></trkpt>
<trkpt lat="51.586431" lon="03.840744"><ele>20.5</ele><time>2022-11-15T14:00:37Z</time><name>PT9693</name></trkpt>
<trkpt lat="51.586440" lon="03.840753"><ele>20.3</ele><time>2022-11-15T14:00:38Z</time><name>PT9694</name></trkpt>
<trkpt lat="51.586448" lon="03.840763"><ele>20.2</ele><time>2022-11-15T14:00:40Z</time><name>PT9695</name></trkpt>
<trkpt lat="51.586456" lon="03.840773"><ele>20.1</ele><time>2022-11-15T14:00:40Z</time><name>PT9696</name></trkpt>
<trkpt lat="51.586461" lon="03.840782"><ele>20.4</ele><time>2022-11-15T14:00:42Z</time><name>PT9697</name></trkpt>
<trkpt lat="51.586468" lon="03.840793"><ele>20.3</ele><time>2022-11-15T14:00:42Z</time><name>PT9698</name></trkpt>
<trkpt lat="51.586477" lon="03.840806"><ele>20.6</ele><time>2022-11-15T14:00:43Z</time><name>PT9699</name></trkpt>
<trkpt lat="51.586486" lon="03.840816"><ele>20.6</ele><time>2022-11-15T14:00:44Z</time><name>PT9700</name></trkpt>
<trkpt lat="51.586494" lon="03.840825"><ele>20.6</ele><time>2022-11-15T14:00:45Z</time><name>PT9701</name></trkpt>
<trkpt lat="51.586502" lon="03.840833"><ele>20.5</ele><time>2022-11-15T14:00:46Z</time><name>PT9702</name></trkpt>
<trkpt lat="51.586510" lon="03.840843"><ele>20.3</ele><time>2022-11-15T14:00:48Z</time><name>PT9703</name></trkpt>
<trkpt lat="51.586518" lon="03.840852"><ele>20.2</ele><time>2022-11-15T14:00:48Z</time><name>PT9704</name></trkpt>
<trkpt lat="51.586524" lon="03.840861"><ele>20.2</ele><time>2022-11-15T14:00:50Z</time><name>PT9705</name></trkpt>
<trkpt lat="51.586532" lon="03.840872"><ele>20</ele><time>2022-11-15T14:00:50Z</time><name>PT9706</name></trkpt>
<trkpt lat="51.586540" lon="03.840884"><ele>19.9</ele><time>2022-11-15T14:00:51Z</time><name>PT9707</name></trkpt>
<trkpt lat="51.586548" lon="03.840895"><ele>20.1</ele><time>2022-11-15T14:00:52Z</time><name>PT9708</name></trkpt>
<trkpt lat="51.586556" lon="03.840904"><ele>20.2</ele><time>2022-11-15T14:00:53Z</time><name>PT9709</name></trkpt>
<trkpt lat="51.586565" lon="03.840912"><ele>20.3</ele><time>2022-11-15T14:00:54Z</time><name>PT9710</name></trkpt>
<trkpt lat="51.586574" lon="03.840921"><ele>20.6</ele><time>2022-11-15T14:00:56Z</time><name>PT9711</name></trkpt>
<trkpt lat="51.586583" lon="03.840930"><ele>20.7</ele><time>2022-11-15T14:00:56Z</time><name>PT9712</name></trkpt>
<trkpt lat="51.586592" lon="03.840940"><ele>20.4</ele><time>2022-11-15T14:00:57Z</time><name>PT9713</name></trkpt>
<trkpt lat="51.586600" lon="03.840953"><ele>20.3</ele><time>2022-11-15T14:00:58Z</time><name>PT9714</name></trkpt>
<trkpt lat="51.586609" lon="03.840966"><ele>20</ele><time>2022-11-15T14:01:00Z</time><name>PT9715</name></trkpt>
<trkpt lat="51.586617" lon="03.840976"><ele>19.7</ele><time>2022-11-15T14:01:00Z</time><name>PT9716</name></trkpt>
<trkpt lat="51.586623" lon="03.840987"><ele>19.7</ele><time>2022-11-15T14:01:02Z</time><name>PT9717</name></trkpt>
<trkpt lat="51.586631" lon="03.840996"><ele>19.9</ele><time>2022-11-15T14:01:02Z</time><name>PT9718</name></trkpt>
<trkpt lat="51.586640" lon="03.841006"><ele>20.1</ele><time>2022-11-15T14:01:03Z</time><name>PT9719</name></trkpt>
<trkpt lat="51.586648" lon="03.841014"><ele>20.2</ele><time>2022-11-15T14:01:04Z</time><name>PT9720</name></trkpt>
<trkpt lat="51.586656" lon="03.841025"><ele>20.3</ele><time>2022-11-15T14:01:05Z</time><name>PT9721</name></trkpt>
<trkpt lat="51.586664" lon="03.841036"><ele>20.3</ele><time>2022-11-15T14:01:06Z</time><name>PT9722</name></trkpt>
<trkpt lat="51.586672" lon="03.841048"><ele>20.4</ele><time>2022-11-15T14:01:07Z</time><name>PT9723</name></trkpt>
<trkpt lat="51.586680" lon="03.841060"><ele>20.5</ele><time>2022-11-15T14:01:08Z</time><name>PT9724</name></trkpt>
<trkpt lat="51.586688" lon="03.841070"><ele>20.6</ele><time>2022-11-15T14:01:10Z</time><name>PT9725</name></trkpt>
<trkpt lat="51.586695" lon="03.841077"><ele>20.6</ele><time>2022-11-15T14:01:10Z</time><name>PT9726</name></trkpt>
<trkpt lat="51.586704" lon="03.841085"><ele>20.6</ele><time>2022-11-15T14:01:11Z</time><name>PT9727</name></trkpt>
<trkpt lat="51.586713" lon="03.841094"><ele>20.5</ele><time>2022-11-15T14:01:12Z</time><name>PT9728</name></trkpt>
<trkpt lat="51.586721" lon="03.841105"><ele>20.3</ele><time>2022-11-15T14:01:13Z</time><name>PT9729</name></trkpt>
<trkpt lat="51.586727" lon="03.841116"><ele>20.3</ele><time>2022-11-15T14:01:14Z</time><name>PT9730</name></trkpt>
<trkpt lat="51.586735" lon="03.841132"><ele>0.1</ele><time>2022-11-15T14:01:16Z</time><name>PT9731</name></trkpt>
<trkpt lat="51.586744" lon="03.841143"><ele>0</ele><time>2022-11-15T14:01:16Z</time><name>PT9732</name></trkpt>
<trkpt lat="51.586751" lon="03.841153"><ele>0.4</ele><time>2022-11-15T14:01:17Z</time><name>PT9733</name></trkpt>
<trkpt lat="51.586759" lon="03.841161"><ele>0.2</ele><time>2022-11-15T14:01:18Z</time><name>PT9734</name></trkpt>
<trkpt lat="51.586767" lon="03.841170"><ele>0.3</ele><time>2022-11-15T14:01:19Z</time><name>PT9735</name></trkpt>
<trkpt lat="51.586775" lon="03.841178"><ele>0.1</ele><time>2022-11-15T14:01:20Z</time><name>PT9736</name></trkpt>
<trkpt lat="51.586782" lon="03.841187"><ele>0</ele><time>2022-11-15T14:01:21Z</time><name>PT9737</name></trkpt>
<trkpt lat="51.586789" lon="03.841198"><ele>0</ele><time>2022-11-15T14:01:22Z</time><name>PT9738</name></trkpt>
<trkpt lat="51.586796" lon="03.841209"><ele>0</ele><time>2022-11-15T14:01:24Z</time><name>PT9739</name></trkpt>
<trkpt lat="51.586804" lon="03.841220"><ele>0</ele><time>2022-11-15T14:01:24Z</time><name>PT9740</name></trkpt>
<trkpt lat="51.586811" lon="03.841228"><ele>0</ele><time>2022-11-15T14:01:26Z</time><name>PT9741</name></trkpt>
<trkpt lat="51.586819" lon="03.841238"><ele>0.1</ele><time>2022-11-15T14:01:26Z</time><name>PT9742</name></trkpt>
<trkpt lat="51.586827" lon="03.841247"><ele>0.2</ele><time>2022-11-15T14:01:27Z</time><name>PT9743</name></trkpt>
<trkpt lat="51.586835" lon="03.841256"><ele>0.2</ele><time>2022-11-15T14:01:28Z</time><name>PT9744</name></trkpt>
<trkpt lat="51.586842" lon="03.841265"><ele>0</ele><time>2022-11-15T14:01:29Z</time><name>PT9745</name></trkpt>
<trkpt lat="51.586848" lon="03.841275"><ele>0</ele><time>2022-11-15T14:01:30Z</time><name>PT9746</name></trkpt>
<trkpt lat="51.586856" lon="03.841287"><ele>0</ele><time>2022-11-15T14:01:31Z</time><name>PT9747</name></trkpt>
<trkpt lat="51.586863" lon="03.841297"><ele>0.1</ele><time>2022-11-15T14:01:32Z</time><name>PT9748</name></trkpt>
<trkpt lat="51.586871" lon="03.841307"><ele>0.1</ele><time>2022-11-15T14:01:33Z</time><name>PT9749</name></trkpt>
<trkpt lat="51.586880" lon="03.841315"><ele>0</ele><time>2022-11-15T14:01:34Z</time><name>PT9750</name></trkpt>
<trkpt lat="51.586890" lon="03.841325"><ele>0</ele><time>2022-11-15T14:01:35Z</time><name>PT9751</name></trkpt>
<trkpt lat="51.586899" lon="03.841335"><ele>0</ele><time>2022-11-15T14:01:36Z</time><name>PT9752</name></trkpt>
<trkpt lat="51.586905" lon="03.841345"><ele>0</ele><time>2022-11-15T14:01:38Z</time><name>PT9753</name></trkpt>
<trkpt lat="51.586913" lon="03.841357"><ele>0</ele><time>2022-11-15T14:01:38Z</time><name>PT9754</name></trkpt>
<trkpt lat="51.586921" lon="03.841369"><ele>0</ele><time>2022-11-15T14:01:39Z</time><name>PT9755</name></trkpt>
<trkpt lat="51.586929" lon="03.841381"><ele>0.1</ele><time>2022-11-15T14:01:40Z</time><name>PT9756</name></trkpt>
<trkpt lat="51.586936" lon="03.841393"><ele>0</ele><time>2022-11-15T14:01:41Z</time><name>PT9757</name></trkpt>
<trkpt lat="51.586944" lon="03.841401"><ele>0</ele><time>2022-11-15T14:01:42Z</time><name>PT9758</name></trkpt>
<trkpt lat="51.586953" lon="03.841409"><ele>0.1</ele><time>2022-11-15T14:01:43Z</time><name>PT9759</name></trkpt>
<trkpt lat="51.586963" lon="03.841417"><ele>0.2</ele><time>2022-11-15T14:01:44Z</time><name>PT9760</name></trkpt>
<trkpt lat="51.586971" lon="03.841425"><ele>0</ele><time>2022-11-15T14:01:45Z</time><name>PT9761</name></trkpt>
<trkpt lat="51.586978" lon="03.841434"><ele>0</ele><time>2022-11-15T14:01:46Z</time><name>PT9762</name></trkpt>
<trkpt lat="51.586986" lon="03.841446"><ele>0</ele><time>2022-11-15T14:01:47Z</time><name>PT9763</name></trkpt>
<trkpt lat="51.586995" lon="03.841458"><ele>0.2</ele><time>2022-11-15T14:01:48Z</time><name>PT9764</name></trkpt>
<trkpt lat="51.587003" lon="03.841470"><ele>0.2</ele><time>2022-11-15T14:01:49Z</time><name>PT9765</name></trkpt>
<trkpt lat="51.587010" lon="03.841480"><ele>0.2</ele><time>2022-11-15T14:01:50Z</time><name>PT9766</name></trkpt>
<trkpt lat="51.587019" lon="03.841490"><ele>0.3</ele><time>2022-11-15T14:01:52Z</time><name>PT9767</name></trkpt>
<trkpt lat="51.587028" lon="03.841500"><ele>0.2</ele><time>2022-11-15T14:01:52Z</time><name>PT9768</name></trkpt>
<trkpt lat="51.587036" lon="03.841509"><ele>0</ele><time>2022-11-15T14:01:53Z</time><name>PT9769</name></trkpt>
<trkpt lat="51.587044" lon="03.841518"><ele>0.1</ele><time>2022-11-15T14:01:54Z</time><name>PT9770</name></trkpt>
<trkpt lat="51.587051" lon="03.841530"><ele>0.1</ele><time>2022-11-15T14:01:55Z</time><name>PT9771</name></trkpt>
<trkpt lat="51.587057" lon="03.841544"><ele>0.1</ele><time>2022-11-15T14:01:56Z</time><name>PT9772</name></trkpt>
<trkpt lat="51.587063" lon="03.841555"><ele>0</ele><time>2022-11-15T14:01:57Z</time><name>PT9773</name></trkpt>
<trkpt lat="51.587071" lon="03.841563"><ele>0</ele><time>2022-11-15T14:01:58Z</time><name>PT9774</name></trkpt>
<trkpt lat="51.587079" lon="03.841571"><ele>0</ele><time>2022-11-15T14:01:59Z</time><name>PT9775</name></trkpt>
<trkpt lat="51.587088" lon="03.841579"><ele>0.1</ele><time>2022-11-15T14:02:00Z</time><name>PT9776</name></trkpt>
<trkpt lat="51.587096" lon="03.841588"><ele>0.2</ele><time>2022-11-15T14:02:01Z</time><name>PT9777</name></trkpt>
<trkpt lat="51.587103" lon="03.841599"><ele>0.4</ele><time>2022-11-15T14:02:02Z</time><name>PT9778</name></trkpt>
<trkpt lat="51.587109" lon="03.841611"><ele>0.4</ele><time>2022-11-15T14:02:03Z</time><name>PT9779</name></trkpt>
<trkpt lat="51.587117" lon="03.841623"><ele>0.3</ele><time>2022-11-15T14:02:04Z</time><name>PT9780</name></trkpt>
<trkpt lat="51.587124" lon="03.841632"><ele>0.4</ele><time>2022-11-15T14:02:06Z</time><name>PT9781</name></trkpt>
<trkpt lat="51.587132" lon="03.841642"><ele>0.2</ele><time>2022-11-15T14:02:06Z</time><name>PT9782</name></trkpt>
<trkpt lat="51.587141" lon="03.841651"><ele>0.2</ele><time>2022-11-15T14:02:07Z</time><name>PT9783</name></trkpt>
<trkpt lat="51.587149" lon="03.841660"><ele>0.3</ele><time>2022-11-15T14:02:08Z</time><name>PT9784</name></trkpt>
<trkpt lat="51.587156" lon="03.841672"><ele>0</ele><time>2022-11-15T14:02:09Z</time><name>PT9785</name></trkpt>
<trkpt lat="51.587163" lon="03.841683"><ele>0.1</ele><time>2022-11-15T14:02:10Z</time><name>PT9786</name></trkpt>
<trkpt lat="51.587170" lon="03.841696"><ele>0.2</ele><time>2022-11-15T14:02:11Z</time><name>PT9787</name></trkpt>
<trkpt lat="51.587177" lon="03.841707"><ele>0.1</ele><time>2022-11-15T14:02:12Z</time><name>PT9788</name></trkpt>
<trkpt lat="51.587185" lon="03.841716"><ele>0.2</ele><time>2022-11-15T14:02:13Z</time><name>PT9789</name></trkpt>
<trkpt lat="51.587193" lon="03.841725"><ele>0.2</ele><time>2022-11-15T14:02:14Z</time><name>PT9790</name></trkpt>
<trkpt lat="51.587201" lon="03.841734"><ele>0.1</ele><time>2022-11-15T14:02:15Z</time><name>PT9791</name></trkpt>
<trkpt lat="51.587209" lon="03.841744"><ele>0.3</ele><time>2022-11-15T14:02:16Z</time><name>PT9792</name></trkpt>
<trkpt lat="51.587217" lon="03.841754"><ele>0.2</ele><time>2022-11-15T14:02:17Z</time><name>PT9793</name></trkpt>
<trkpt lat="51.587224" lon="03.841764"><ele>0.2</ele><time>2022-11-15T14:02:18Z</time><name>PT9794</name></trkpt>
<trkpt lat="51.587231" lon="03.841774"><ele>0.2</ele><time>2022-11-15T14:02:20Z</time><name>PT9795</name></trkpt>
<trkpt lat="51.587238" lon="03.841783"><ele>0.2</ele><time>2022-11-15T14:02:20Z</time><name>PT9796</name></trkpt>
<trkpt lat="51.587246" lon="03.841792"><ele>0.1</ele><time>2022-11-15T14:02:21Z</time><name>PT9797</name></trkpt>
<trkpt lat="51.587254" lon="03.841801"><ele>0</ele><time>2022-11-15T14:02:22Z</time><name>PT9798</name></trkpt>
<trkpt lat="51.587262" lon="03.841811"><ele>0</ele><time>2022-11-15T14:02:23Z</time><name>PT9799</name></trkpt>
<trkpt lat="51.587270" lon="03.841823"><ele>0</ele><time>2022-11-15T14:02:24Z</time><name>PT9800</name></trkpt>
<trkpt lat="51.587278" lon="03.841836"><ele>0</ele><time>2022-11-15T14:02:25Z</time><name>PT9801</name></trkpt>
<trkpt lat="51.587285" lon="03.841847"><ele>0</ele><time>2022-11-15T14:02:26Z</time><name>PT9802</name></trkpt>
<trkpt lat="51.587292" lon="03.841857"><ele>0.1</ele><time>2022-11-15T14:02:27Z</time><name>PT9803</name></trkpt>
<trkpt lat="51.587301" lon="03.841867"><ele>0.2</ele><time>2022-11-15T14:02:28Z</time><name>PT9804</name></trkpt>
<trkpt lat="51.587309" lon="03.841875"><ele>0.2</ele><time>2022-11-15T14:02:29Z</time><name>PT9805</name></trkpt>
<trkpt lat="51.587317" lon="03.841885"><ele>0.1</ele><time>2022-11-15T14:02:30Z</time><name>PT9806</name></trkpt>
<trkpt lat="51.587324" lon="03.841896"><ele>0.1</ele><time>2022-11-15T14:02:31Z</time><name>PT9807</name></trkpt>
<trkpt lat="51.587332" lon="03.841906"><ele>0</ele><time>2022-11-15T14:02:32Z</time><name>PT9808</name></trkpt>
<trkpt lat="51.587341" lon="03.841915"><ele>0</ele><time>2022-11-15T14:02:34Z</time><name>PT9809</name></trkpt>
<trkpt lat="51.587350" lon="03.841924"><ele>0</ele><time>2022-11-15T14:02:34Z</time><name>PT9810</name></trkpt>
<trkpt lat="51.587357" lon="03.841934"><ele>0</ele><time>2022-11-15T14:02:35Z</time><name>PT9811</name></trkpt>
<trkpt lat="51.587366" lon="03.841943"><ele>0</ele><time>2022-11-15T14:02:36Z</time><name>PT9812</name></trkpt>
<trkpt lat="51.587373" lon="03.841950"><ele>0</ele><time>2022-11-15T14:02:37Z</time><name>PT9813</name></trkpt>
<trkpt lat="51.587379" lon="03.841960"><ele>0</ele><time>2022-11-15T14:02:38Z</time><name>PT9814</name></trkpt>
<trkpt lat="51.587388" lon="03.841972"><ele>0</ele><time>2022-11-15T14:02:39Z</time><name>PT9815</name></trkpt>
<trkpt lat="51.587397" lon="03.841984"><ele>0</ele><time>2022-11-15T14:02:40Z</time><name>PT9816</name></trkpt>
<trkpt lat="51.587406" lon="03.841994"><ele>0.1</ele><time>2022-11-15T14:02:41Z</time><name>PT9817</name></trkpt>
<trkpt lat="51.587414" lon="03.842002"><ele>0.1</ele><time>2022-11-15T14:02:42Z</time><name>PT9818</name></trkpt>
<trkpt lat="51.587422" lon="03.842011"><ele>0</ele><time>2022-11-15T14:02:43Z</time><name>PT9819</name></trkpt>
<trkpt lat="51.587431" lon="03.842021"><ele>0</ele><time>2022-11-15T14:02:44Z</time><name>PT9820</name></trkpt>
<trkpt lat="51.587438" lon="03.842033"><ele>0</ele><time>2022-11-15T14:02:46Z</time><name>PT9821</name></trkpt>
<trkpt lat="51.587447" lon="03.842045"><ele>0.1</ele><time>2022-11-15T14:02:46Z</time><name>PT9822</name></trkpt>
<trkpt lat="51.587455" lon="03.842051"><ele>0</ele><time>2022-11-15T14:02:48Z</time><name>PT9823</name></trkpt>
<trkpt lat="51.587464" lon="03.842060"><ele>0</ele><time>2022-11-15T14:02:48Z</time><name>PT9824</name></trkpt>
<trkpt lat="51.587472" lon="03.842070"><ele>0</ele><time>2022-11-15T14:02:49Z</time><name>PT9825</name></trkpt>
<trkpt lat="51.587480" lon="03.842079"><ele>0</ele><time>2022-11-15T14:02:50Z</time><name>PT9826</name></trkpt>
<trkpt lat="51.587486" lon="03.842089"><ele>0.1</ele><time>2022-11-15T14:02:51Z</time><name>PT9827</name></trkpt>
<trkpt lat="51.587494" lon="03.842098"><ele>0.1</ele><time>2022-11-15T14:02:52Z</time><name>PT9828</name></trkpt>
<trkpt lat="51.587499" lon="03.842110"><ele>0.2</ele><time>2022-11-15T14:02:53Z</time><name>PT9829</name></trkpt>
<trkpt lat="51.587507" lon="03.842121"><ele>0.2</ele><time>2022-11-15T14:02:54Z</time><name>PT9830</name></trkpt>
<trkpt lat="51.587515" lon="03.842129"><ele>0.1</ele><time>2022-11-15T14:02:55Z</time><name>PT9831</name></trkpt>
<trkpt lat="51.587524" lon="03.842139"><ele>0.1</ele><time>2022-11-15T14:02:56Z</time><name>PT9832</name></trkpt>
<trkpt lat="51.587532" lon="03.842149"><ele>0</ele><time>2022-11-15T14:02:58Z</time><name>PT9833</name></trkpt>
<trkpt lat="51.587540" lon="03.842159"><ele>0</ele><time>2022-11-15T14:02:58Z</time><name>PT9834</name></trkpt>
<trkpt lat="51.587550" lon="03.842170"><ele>0</ele><time>2022-11-15T14:02:59Z</time><name>PT9835</name></trkpt>
<trkpt lat="51.587559" lon="03.842181"><ele>0.1</ele><time>2022-11-15T14:03:00Z</time><name>PT9836</name></trkpt>
<trkpt lat="51.587567" lon="03.842192"><ele>0</ele><time>2022-11-15T14:03:02Z</time><name>PT9837</name></trkpt>
<trkpt lat="51.587574" lon="03.842203"><ele>0.1</ele><time>2022-11-15T14:03:02Z</time><name>PT9838</name></trkpt>
<trkpt lat="51.587583" lon="03.842213"><ele>0</ele><time>2022-11-15T14:03:03Z</time><name>PT9839</name></trkpt>
<trkpt lat="51.587591" lon="03.842222"><ele>0</ele><time>2022-11-15T14:03:04Z</time><name>PT9840</name></trkpt>
<trkpt lat="51.587599" lon="03.842232"><ele>0</ele><time>2022-11-15T14:03:05Z</time><name>PT9841</name></trkpt>
<trkpt lat="51.587607" lon="03.842242"><ele>0</ele><time>2022-11-15T14:03:06Z</time><name>PT9842</name></trkpt>
<trkpt lat="51.587615" lon="03.842252"><ele>0</ele><time>2022-11-15T14:03:08Z</time><name>PT9843</name></trkpt>
<trkpt lat="51.587623" lon="03.842262"><ele>0.2</ele><time>2022-11-15T14:03:08Z</time><name>PT9844</name></trkpt>
<trkpt lat="51.587630" lon="03.842271"><ele>0.1</ele><time>2022-11-15T14:03:09Z</time><name>PT9845</name></trkpt>
<trkpt lat="51.587638" lon="03.842280"><ele>0.3</ele><time>2022-11-15T14:03:10Z</time><name>PT9846</name></trkpt>
<trkpt lat="51.587646" lon="03.842290"><ele>0.4</ele><time>2022-11-15T14:03:11Z</time><name>PT9847</name></trkpt>
<trkpt lat="51.587655" lon="03.842300"><ele>0.4</ele><time>2022-11-15T14:03:12Z</time><name>PT9848</name></trkpt>
<trkpt lat="51.587663" lon="03.842311"><ele>0.2</ele><time>2022-11-15T14:03:13Z</time><name>PT9849</name></trkpt>
<trkpt lat="51.587672" lon="03.842321"><ele>0.2</ele><time>2022-11-15T14:03:14Z</time><name>PT9850</name></trkpt>
<trkpt lat="51.587681" lon="03.842333"><ele>0.2</ele><time>2022-11-15T14:03:16Z</time><name>PT9851</name></trkpt>
<trkpt lat="51.587689" lon="03.842346"><ele>0</ele><time>2022-11-15T14:03:16Z</time><name>PT9852</name></trkpt>
<trkpt lat="51.587697" lon="03.842359"><ele>0</ele><time>2022-11-15T14:03:18Z</time><name>PT9853</name></trkpt>
<trkpt lat="51.587705" lon="03.842373"><ele>0.1</ele><time>2022-11-15T14:03:18Z</time><name>PT9854</name></trkpt>
<trkpt lat="51.587711" lon="03.842382"><ele>0.4</ele><time>2022-11-15T14:03:19Z</time><name>PT9855</name></trkpt>
<trkpt lat="51.587713" lon="03.842385"><ele>0.2</ele><time>2022-11-15T14:03:20Z</time><name>PT9856</name></trkpt>
<trkpt lat="51.587712" lon="03.842384"><ele>0.3</ele><time>2022-11-15T14:03:21Z</time><name>PT9857</name></trkpt>
<trkpt lat="51.587713" lon="03.842384"><ele>0.3</ele><time>2022-11-15T14:03:22Z</time><name>PT9858</name></trkpt>
<trkpt lat="51.587716" lon="03.842385"><ele>0.3</ele><time>2022-11-15T14:03:28Z</time><name>PT9859</name></trkpt>
<trkpt lat="51.587723" lon="03.842392"><ele>0.1</ele><time>2022-11-15T14:03:30Z</time><name>PT9860</name></trkpt>
<trkpt lat="51.587729" lon="03.842400"><ele>0.2</ele><time>2022-11-15T14:03:30Z</time><name>PT9861</name></trkpt>
<trkpt lat="51.587736" lon="03.842409"><ele>0</ele><time>2022-11-15T14:03:31Z</time><name>PT9862</name></trkpt>
<trkpt lat="51.587743" lon="03.842420"><ele>0</ele><time>2022-11-15T14:03:32Z</time><name>PT9863</name></trkpt>
<trkpt lat="51.587750" lon="03.842430"><ele>0.2</ele><time>2022-11-15T14:03:34Z</time><name>PT9864</name></trkpt>
<trkpt lat="51.587757" lon="03.842439"><ele>0.4</ele><time>2022-11-15T14:03:34Z</time><name>PT9865</name></trkpt>
<trkpt lat="51.587764" lon="03.842449"><ele>0.2</ele><time>2022-11-15T14:03:35Z</time><name>PT9866</name></trkpt>
<trkpt lat="51.587771" lon="03.842459"><ele>0.3</ele><time>2022-11-15T14:03:36Z</time><name>PT9867</name></trkpt>
<trkpt lat="51.587777" lon="03.842468"><ele>0.3</ele><time>2022-11-15T14:03:37Z</time><name>PT9868</name></trkpt>
<trkpt lat="51.587784" lon="03.842478"><ele>0</ele><time>2022-11-15T14:03:38Z</time><name>PT9869</name></trkpt>
<trkpt lat="51.587791" lon="03.842489"><ele>0</ele><time>2022-11-15T14:03:39Z</time><name>PT9870</name></trkpt>
<trkpt lat="51.587799" lon="03.842499"><ele>0.1</ele><time>2022-11-15T14:03:40Z</time><name>PT9871</name></trkpt>
<trkpt lat="51.587807" lon="03.842510"><ele>0</ele><time>2022-11-15T14:03:41Z</time><name>PT9872</name></trkpt>
<trkpt lat="51.587815" lon="03.842520"><ele>0.2</ele><time>2022-11-15T14:03:42Z</time><name>PT9873</name></trkpt>
<trkpt lat="51.587823" lon="03.842529"><ele>0.4</ele><time>2022-11-15T14:03:43Z</time><name>PT9874</name></trkpt>
<trkpt lat="51.587830" lon="03.842538"><ele>0.4</ele><time>2022-11-15T14:03:44Z</time><name>PT9875</name></trkpt>
<trkpt lat="51.587836" lon="03.842547"><ele>0.3</ele><time>2022-11-15T14:03:45Z</time><name>PT9876</name></trkpt>
<trkpt lat="51.587842" lon="03.842554"><ele>0.4</ele><time>2022-11-15T14:03:46Z</time><name>PT9877</name></trkpt>
<trkpt lat="51.587848" lon="03.842562"><ele>0.3</ele><time>2022-11-15T14:03:47Z</time><name>PT9878</name></trkpt>
<trkpt lat="51.587853" lon="03.842572"><ele>0.2</ele><time>2022-11-15T14:03:48Z</time><name>PT9879</name></trkpt>
<trkpt lat="51.587859" lon="03.842580"><ele>0.2</ele><time>2022-11-15T14:03:49Z</time><name>PT9880</name></trkpt>
<trkpt lat="51.587864" lon="03.842586"><ele>0.3</ele><time>2022-11-15T14:03:50Z</time><name>PT9881</name></trkpt>
<trkpt lat="51.587871" lon="03.842593"><ele>0.3</ele><time>2022-11-15T14:03:52Z</time><name>PT9882</name></trkpt>
<trkpt lat="51.587877" lon="03.842602"><ele>0.3</ele><time>2022-11-15T14:03:52Z</time><name>PT9883</name></trkpt>
<trkpt lat="51.587883" lon="03.842612"><ele>0.3</ele><time>2022-11-15T14:03:53Z</time><name>PT9884</name></trkpt>
<trkpt lat="51.587889" lon="03.842622"><ele>0</ele><time>2022-11-15T14:03:54Z</time><name>PT9885</name></trkpt>
<trkpt lat="51.587895" lon="03.842629"><ele>0</ele><time>2022-11-15T14:03:55Z</time><name>PT9886</name></trkpt>
<trkpt lat="51.587902" lon="03.842636"><ele>0</ele><time>2022-11-15T14:03:56Z</time><name>PT9887</name></trkpt>
<trkpt lat="51.587908" lon="03.842643"><ele>0.1</ele><time>2022-11-15T14:03:57Z</time><name>PT9888</name></trkpt>
<trkpt lat="51.587914" lon="03.842651"><ele>0.2</ele><time>2022-11-15T14:03:58Z</time><name>PT9889</name></trkpt>
<trkpt lat="51.587920" lon="03.842659"><ele>0.4</ele><time>2022-11-15T14:03:59Z</time><name>PT9890</name></trkpt>
<trkpt lat="51.587926" lon="03.842665"><ele>0.5</ele><time>2022-11-15T14:04:00Z</time><name>PT9891</name></trkpt>
<trkpt lat="51.587928" lon="03.842667"><ele>0.7</ele><time>2022-11-15T14:04:01Z</time><name>PT9892</name></trkpt>
<trkpt lat="51.587928" lon="03.842668"><ele>0.9</ele><time>2022-11-15T14:04:02Z</time><name>PT9893</name></trkpt>
<trkpt lat="51.587928" lon="03.842670"><ele>1.1</ele><time>2022-11-15T14:04:03Z</time><name>PT9894</name></trkpt>
<trkpt lat="51.587931" lon="03.842671"><ele>1.5</ele><time>2022-11-15T14:04:05Z</time><name>PT9895</name></trkpt>
<trkpt lat="51.587936" lon="03.842678"><ele>1.5</ele><time>2022-11-15T14:04:06Z</time><name>PT9896</name></trkpt>
<trkpt lat="51.587941" lon="03.842685"><ele>1.4</ele><time>2022-11-15T14:04:08Z</time><name>PT9897</name></trkpt>
<trkpt lat="51.587943" lon="03.842688"><ele>1.4</ele><time>2022-11-15T14:04:08Z</time><name>PT9898</name></trkpt>
<trkpt lat="51.587943" lon="03.842690"><ele>1.2</ele><time>2022-11-15T14:04:10Z</time><name>PT9899</name></trkpt>
<trkpt lat="51.587947" lon="03.842694"><ele>1</ele><time>2022-11-15T14:04:10Z</time><name>PT9900</name></trkpt>
<trkpt lat="51.587948" lon="03.842696"><ele>0.8</ele><time>2022-11-15T14:04:12Z</time><name>PT9901</name></trkpt>
<trkpt lat="51.587948" lon="03.842698"><ele>0.5</ele><time>2022-11-15T14:04:12Z</time><name>PT9902</name></trkpt>
<trkpt lat="51.587949" lon="03.842699"><ele>0.5</ele><time>2022-11-15T14:04:14Z</time><name>PT9903</name></trkpt>
<trkpt lat="51.587949" lon="03.842700"><ele>0.6</ele><time>2022-11-15T14:04:14Z</time><name>PT9904</name></trkpt>
<trkpt lat="51.587952" lon="03.842700"><ele>0.4</ele><time>2022-11-15T14:04:19Z</time><name>PT9905</name></trkpt>
<trkpt lat="51.587960" lon="03.842707"><ele>0.4</ele><time>2022-11-15T14:04:20Z</time><name>PT9906</name></trkpt>
<trkpt lat="51.587967" lon="03.842714"><ele>0.4</ele><time>2022-11-15T14:04:21Z</time><name>PT9907</name></trkpt>
<trkpt lat="51.587971" lon="03.842720"><ele>0.4</ele><time>2022-11-15T14:04:22Z</time><name>PT9908</name></trkpt>
<trkpt lat="51.587974" lon="03.842722"><ele>0.5</ele><time>2022-11-15T14:04:23Z</time><name>PT9909</name></trkpt>
<trkpt lat="51.587975" lon="03.842723"><ele>0.6</ele><time>2022-11-15T14:04:24Z</time><name>PT9910</name></trkpt>
<trkpt lat="51.587978" lon="03.842726"><ele>0.7</ele><time>2022-11-15T14:04:25Z</time><name>PT9911</name></trkpt>
<trkpt lat="51.587985" lon="03.842732"><ele>0.6</ele><time>2022-11-15T14:04:26Z</time><name>PT9912</name></trkpt>
<trkpt lat="51.587992" lon="03.842740"><ele>0.8</ele><time>2022-11-15T14:04:27Z</time><name>PT9913</name></trkpt>
<trkpt lat="51.587999" lon="03.842750"><ele>0.8</ele><time>2022-11-15T14:04:28Z</time><name>PT9914</name></trkpt>
<trkpt lat="51.588007" lon="03.842761"><ele>0.8</ele><time>2022-11-15T14:04:30Z</time><name>PT9915</name></trkpt>
<trkpt lat="51.588015" lon="03.842771"><ele>1</ele><time>2022-11-15T14:04:30Z</time><name>PT9916</name></trkpt>
<trkpt lat="51.588024" lon="03.842782"><ele>1</ele><time>2022-11-15T14:04:31Z</time><name>PT9917</name></trkpt>
<trkpt lat="51.588032" lon="03.842793"><ele>1</ele><time>2022-11-15T14:04:32Z</time><name>PT9918</name></trkpt>
<trkpt lat="51.588040" lon="03.842802"><ele>1</ele><time>2022-11-15T14:04:33Z</time><name>PT9919</name></trkpt>
<trkpt lat="51.588047" lon="03.842811"><ele>0.9</ele><time>2022-11-15T14:04:34Z</time><name>PT9920</name></trkpt>
<trkpt lat="51.588055" lon="03.842822"><ele>0.8</ele><time>2022-11-15T14:04:35Z</time><name>PT9921</name></trkpt>
<trkpt lat="51.588062" lon="03.842832"><ele>0.8</ele><time>2022-11-15T14:04:36Z</time><name>PT9922</name></trkpt>
<trkpt lat="51.588068" lon="03.842840"><ele>0.9</ele><time>2022-11-15T14:04:37Z</time><name>PT9923</name></trkpt>
<trkpt lat="51.588074" lon="03.842847"><ele>0.8</ele><time>2022-11-15T14:04:38Z</time><name>PT9924</name></trkpt>
<trkpt lat="51.588080" lon="03.842856"><ele>1</ele><time>2022-11-15T14:04:39Z</time><name>PT9925</name></trkpt>
<trkpt lat="51.588086" lon="03.842866"><ele>1.2</ele><time>2022-11-15T14:04:40Z</time><name>PT9926</name></trkpt>
<trkpt lat="51.588092" lon="03.842875"><ele>1.2</ele><time>2022-11-15T14:04:42Z</time><name>PT9927</name></trkpt>
<trkpt lat="51.588100" lon="03.842883"><ele>1.2</ele><time>2022-11-15T14:04:42Z</time><name>PT9928</name></trkpt>
<trkpt lat="51.588106" lon="03.842892"><ele>1.2</ele><time>2022-11-15T14:04:43Z</time><name>PT9929</name></trkpt>
<trkpt lat="51.588113" lon="03.842902"><ele>1</ele><time>2022-11-15T14:04:44Z</time><name>PT9930</name></trkpt>
<trkpt lat="51.588120" lon="03.842914"><ele>0.7</ele><time>2022-11-15T14:04:45Z</time><name>PT9931</name></trkpt>
<trkpt lat="51.588126" lon="03.842925"><ele>0.6</ele><time>2022-11-15T14:04:46Z</time><name>PT9932</name></trkpt>
<trkpt lat="51.588134" lon="03.842934"><ele>0.7</ele><time>2022-11-15T14:04:47Z</time><name>PT9933</name></trkpt>
<trkpt lat="51.588140" lon="03.842941"><ele>0.8</ele><time>2022-11-15T14:04:48Z</time><name>PT9934</name></trkpt>
<trkpt lat="51.588148" lon="03.842947"><ele>1</ele><time>2022-11-15T14:04:49Z</time><name>PT9935</name></trkpt>
<trkpt lat="51.588156" lon="03.842957"><ele>0.9</ele><time>2022-11-15T14:04:50Z</time><name>PT9936</name></trkpt>
<trkpt lat="51.588160" lon="03.842965"><ele>0.9</ele><time>2022-11-15T14:04:51Z</time><name>PT9937</name></trkpt>
<trkpt lat="51.588163" lon="03.842968"><ele>0.8</ele><time>2022-11-15T14:04:52Z</time><name>PT9938</name></trkpt>
<trkpt lat="51.588163" lon="03.842969"><ele>0.8</ele><time>2022-11-15T14:04:54Z</time><name>PT9939</name></trkpt>
<trkpt lat="51.588164" lon="03.842969"><ele>0.8</ele><time>2022-11-15T14:04:54Z</time><name>PT9940</name></trkpt>
<trkpt lat="51.588165" lon="03.842972"><ele>0.8</ele><time>2022-11-15T14:04:57Z</time><name>PT9941</name></trkpt>
<trkpt lat="51.588172" lon="03.842982"><ele>0.9</ele><time>2022-11-15T14:04:58Z</time><name>PT9942</name></trkpt>
<trkpt lat="51.588179" lon="03.842992"><ele>0.8</ele><time>2022-11-15T14:04:59Z</time><name>PT9943</name></trkpt>
<trkpt lat="51.588187" lon="03.842999"><ele>0.7</ele><time>2022-11-15T14:05:00Z</time><name>PT9944</name></trkpt>
<trkpt lat="51.588195" lon="03.843007"><ele>0.9</ele><time>2022-11-15T14:05:01Z</time><name>PT9945</name></trkpt>
<trkpt lat="51.588202" lon="03.843016"><ele>1</ele><time>2022-11-15T14:05:02Z</time><name>PT9946</name></trkpt>
<trkpt lat="51.588210" lon="03.843025"><ele>1</ele><time>2022-11-15T14:05:04Z</time><name>PT9947</name></trkpt>
<trkpt lat="51.588217" lon="03.843036"><ele>1.1</ele><time>2022-11-15T14:05:04Z</time><name>PT9948</name></trkpt>
<trkpt lat="51.588224" lon="03.843048"><ele>1</ele><time>2022-11-15T14:05:05Z</time><name>PT9949</name></trkpt>
<trkpt lat="51.588231" lon="03.843058"><ele>0.9</ele><time>2022-11-15T14:05:06Z</time><name>PT9950</name></trkpt>
<trkpt lat="51.588240" lon="03.843068"><ele>0.7</ele><time>2022-11-15T14:05:08Z</time><name>PT9951</name></trkpt>
<trkpt lat="51.588248" lon="03.843076"><ele>0.5</ele><time>2022-11-15T14:05:08Z</time><name>PT9952</name></trkpt>
<trkpt lat="51.588256" lon="03.843087"><ele>0.4</ele><time>2022-11-15T14:05:09Z</time><name>PT9953</name></trkpt>
<trkpt lat="51.588263" lon="03.843099"><ele>0.4</ele><time>2022-11-15T14:05:10Z</time><name>PT9954</name></trkpt>
<trkpt lat="51.588270" lon="03.843109"><ele>0.5</ele><time>2022-11-15T14:05:11Z</time><name>PT9955</name></trkpt>
<trkpt lat="51.588278" lon="03.843118"><ele>0.6</ele><time>2022-11-15T14:05:12Z</time><name>PT9956</name></trkpt>
<trkpt lat="51.588286" lon="03.843126"><ele>0.8</ele><time>2022-11-15T14:05:13Z</time><name>PT9957</name></trkpt>
<trkpt lat="51.588294" lon="03.843135"><ele>0.9</ele><time>2022-11-15T14:05:14Z</time><name>PT9958</name></trkpt>
<trkpt lat="51.588301" lon="03.843144"><ele>0.8</ele><time>2022-11-15T14:05:15Z</time><name>PT9959</name></trkpt>
<trkpt lat="51.588309" lon="03.843155"><ele>0.7</ele><time>2022-11-15T14:05:16Z</time><name>PT9960</name></trkpt>
<trkpt lat="51.588316" lon="03.843166"><ele>0.6</ele><time>2022-11-15T14:05:17Z</time><name>PT9961</name></trkpt>
<trkpt lat="51.588324" lon="03.843176"><ele>0.6</ele><time>2022-11-15T14:05:18Z</time><name>PT9962</name></trkpt>
<trkpt lat="51.588332" lon="03.843185"><ele>0.5</ele><time>2022-11-15T14:05:19Z</time><name>PT9963</name></trkpt>
<trkpt lat="51.588341" lon="03.843192"><ele>0.6</ele><time>2022-11-15T14:05:20Z</time><name>PT9964</name></trkpt>
<trkpt lat="51.588349" lon="03.843202"><ele>0.6</ele><time>2022-11-15T14:05:22Z</time><name>PT9965</name></trkpt>
<trkpt lat="51.588356" lon="03.843215"><ele>0.6</ele><time>2022-11-15T14:05:22Z</time><name>PT9966</name></trkpt>
<trkpt lat="51.588365" lon="03.843227"><ele>0.7</ele><time>2022-11-15T14:05:23Z</time><name>PT9967</name></trkpt>
<trkpt lat="51.588373" lon="03.843237"><ele>0.6</ele><time>2022-11-15T14:05:24Z</time><name>PT9968</name></trkpt>
<trkpt lat="51.588379" lon="03.843248"><ele>0.5</ele><time>2022-11-15T14:05:25Z</time><name>PT9969</name></trkpt>
<trkpt lat="51.588386" lon="03.843259"><ele>0.4</ele><time>2022-11-15T14:05:26Z</time><name>PT9970</name></trkpt>
<trkpt lat="51.588393" lon="03.843268"><ele>0.3</ele><time>2022-11-15T14:05:27Z</time><name>PT9971</name></trkpt>
<trkpt lat="51.588402" lon="03.843277"><ele>0.2</ele><time>2022-11-15T14:05:28Z</time><name>PT9972</name></trkpt>
<trkpt lat="51.588410" lon="03.843288"><ele>0.4</ele><time>2022-11-15T14:05:29Z</time><name>PT9973</name></trkpt>
<trkpt lat="51.588419" lon="03.843300"><ele>0.4</ele><time>2022-11-15T14:05:30Z</time><name>PT9974</name></trkpt>
<trkpt lat="51.588427" lon="03.843311"><ele>0.5</ele><time>2022-11-15T14:05:31Z</time><name>PT9975</name></trkpt>
<trkpt lat="51.588434" lon="03.843320"><ele>0.8</ele><time>2022-11-15T14:05:32Z</time><name>PT9976</name></trkpt>
<trkpt lat="51.588442" lon="03.843329"><ele>0.9</ele><time>2022-11-15T14:05:33Z</time><name>PT9977</name></trkpt>
<trkpt lat="51.588449" lon="03.843338"><ele>0.9</ele><time>2022-11-15T14:05:34Z</time><name>PT9978</name></trkpt>
<trkpt lat="51.588458" lon="03.843345"><ele>1</ele><time>2022-11-15T14:05:36Z</time><name>PT9979</name></trkpt>
<trkpt lat="51.588467" lon="03.843355"><ele>1</ele><time>2022-11-15T14:05:36Z</time><name>PT9980</name></trkpt>
<trkpt lat="51.588478" lon="03.843366"><ele>1</ele><time>2022-11-15T14:05:37Z</time><name>PT9981</name></trkpt>
<trkpt lat="51.588485" lon="03.843378"><ele>1</ele><time>2022-11-15T14:05:38Z</time><name>PT9982</name></trkpt>
<trkpt lat="51.588492" lon="03.843390"><ele>0.9</ele><time>2022-11-15T14:05:39Z</time><name>PT9983</name></trkpt>
<trkpt lat="51.588501" lon="03.843400"><ele>0.7</ele><time>2022-11-15T14:05:40Z</time><name>PT9984</name></trkpt>
<trkpt lat="51.588510" lon="03.843411"><ele>0.7</ele><time>2022-11-15T14:05:41Z</time><name>PT9985</name></trkpt>
<trkpt lat="51.588519" lon="03.843421"><ele>0.6</ele><time>2022-11-15T14:05:42Z</time><name>PT9986</name></trkpt>
<trkpt lat="51.588525" lon="03.843426"><ele>0.6</ele><time>2022-11-15T14:05:43Z</time><name>PT9987</name></trkpt>
<trkpt lat="51.588527" lon="03.843431"><ele>0.6</ele><time>2022-11-15T14:05:44Z</time><name>PT9988</name></trkpt>
<trkpt lat="51.588530" lon="03.843439"><ele>0.9</ele><time>2022-11-15T14:05:45Z</time><name>PT9989</name></trkpt>
<trkpt lat="51.588538" lon="03.843455"><ele>0.9</ele><time>2022-11-15T14:05:46Z</time><name>PT9990</name></trkpt>
<trkpt lat="51.588544" lon="03.843469"><ele>1</ele><time>2022-11-15T14:05:47Z</time><name>PT9991</name></trkpt>
<trkpt lat="51.588552" lon="03.843478"><ele>1</ele><time>2022-11-15T14:05:48Z</time><name>PT9992</name></trkpt>
<trkpt lat="51.588559" lon="03.843485"><ele>1</ele><time>2022-11-15T14:05:49Z</time><name>PT9993</name></trkpt>
<trkpt lat="51.588567" lon="03.843493"><ele>1</ele><time>2022-11-15T14:05:50Z</time><name>PT9994</name></trkpt>
<trkpt lat="51.588575" lon="03.843501"><ele>1</ele><time>2022-11-15T14:05:51Z</time><name>PT9995</name></trkpt>
<trkpt lat="51.588583" lon="03.843513"><ele>1</ele><time>2022-11-15T14:05:52Z</time><name>PT9996</name></trkpt>
<trkpt lat="51.588590" lon="03.843524"><ele>1</ele><time>2022-11-15T14:05:53Z</time><name>PT9997</name></trkpt>
<trkpt lat="51.588597" lon="03.843535"><ele>1.2</ele><time>2022-11-15T14:05:54Z</time><name>PT9998</name></trkpt>
<trkpt lat="51.588605" lon="03.843544"><ele>1.1</ele><time>2022-11-15T14:05:55Z</time><name>PT9999</name></trkpt>
<trkpt lat="51.588613" lon="03.843551"><ele>1</ele><time>2022-11-15T14:05:56Z</time><name>PT10000</name></trkpt>
<trkpt lat="51.588620" lon="03.843560"><ele>1.1</ele><time>2022-11-15T14:05:57Z</time><name>PT10001</name></trkpt>
<trkpt lat="51.588627" lon="03.843572"><ele>1.1</ele><time>2022-11-15T14:05:58Z</time><name>PT10002</name></trkpt>
<trkpt lat="51.588634" lon="03.843583"><ele>1</ele><time>2022-11-15T14:05:59Z</time><name>PT10003</name></trkpt>
<trkpt lat="51.588642" lon="03.843591"><ele>1</ele><time>2022-11-15T14:06:00Z</time><name>PT10004</name></trkpt>
<trkpt lat="51.588646" lon="03.843595"><ele>1</ele><time>2022-11-15T14:06:01Z</time><name>PT10005</name></trkpt>
<trkpt lat="51.588648" lon="03.843597"><ele>1</ele><time>2022-11-15T14:06:02Z</time><name>PT10006</name></trkpt>
<trkpt lat="51.588652" lon="03.843603"><ele>1</ele><time>2022-11-15T14:06:03Z</time><name>PT10007</name></trkpt>
<trkpt lat="51.588657" lon="03.843616"><ele>1.2</ele><time>2022-11-15T14:06:04Z</time><name>PT10008</name></trkpt>
<trkpt lat="51.588669" lon="03.843634"><ele>1.1</ele><time>2022-11-15T14:06:05Z</time><name>PT10009</name></trkpt>
<trkpt lat="51.588682" lon="03.843650"><ele>1</ele><time>2022-11-15T14:06:06Z</time><name>PT10010</name></trkpt>
<trkpt lat="51.588691" lon="03.843659"><ele>1</ele><time>2022-11-15T14:06:07Z</time><name>PT10011</name></trkpt>
<trkpt lat="51.588697" lon="03.843662"><ele>0.9</ele><time>2022-11-15T14:06:08Z</time><name>PT10012</name></trkpt>
<trkpt lat="51.588700" lon="03.843665"><ele>0.7</ele><time>2022-11-15T14:06:09Z</time><name>PT10013</name></trkpt>
<trkpt lat="51.588709" lon="03.843679"><ele>0.8</ele><time>2022-11-15T14:06:10Z</time><name>PT10014</name></trkpt>
<trkpt lat="51.588721" lon="03.843697"><ele>0.9</ele><time>2022-11-15T14:06:11Z</time><name>PT10015</name></trkpt>
<trkpt lat="51.588732" lon="03.843705"><ele>0.9</ele><time>2022-11-15T14:06:12Z</time><name>PT10016</name></trkpt>
<trkpt lat="51.588735" lon="03.843712"><ele>1</ele><time>2022-11-15T14:06:13Z</time><name>PT10017</name></trkpt>
<trkpt lat="51.588739" lon="03.843715"><ele>1</ele><time>2022-11-15T14:06:14Z</time><name>PT10018</name></trkpt>
<trkpt lat="51.588747" lon="03.843724"><ele>0.9</ele><time>2022-11-15T14:06:15Z</time><name>PT10019</name></trkpt>
<trkpt lat="51.588757" lon="03.843740"><ele>0.7</ele><time>2022-11-15T14:06:16Z</time><name>PT10020</name></trkpt>
<trkpt lat="51.588768" lon="03.843752"><ele>0.7</ele><time>2022-11-15T14:06:18Z</time><name>PT10021</name></trkpt>
<trkpt lat="51.588773" lon="03.843759"><ele>0.6</ele><time>2022-11-15T14:06:18Z</time><name>PT10022</name></trkpt>
<trkpt lat="51.588775" lon="03.843760"><ele>0.7</ele><time>2022-11-15T14:06:20Z</time><name>PT10023</name></trkpt>
<trkpt lat="51.588780" lon="03.843767"><ele>0.8</ele><time>2022-11-15T14:06:20Z</time><name>PT10024</name></trkpt>
<trkpt lat="51.588791" lon="03.843788"><ele>0.7</ele><time>2022-11-15T14:06:22Z</time><name>PT10025</name></trkpt>
<trkpt lat="51.588799" lon="03.843802"><ele>0.7</ele><time>2022-11-15T14:06:22Z</time><name>PT10026</name></trkpt>
<trkpt lat="51.588805" lon="03.843812"><ele>0.9</ele><time>2022-11-15T14:06:23Z</time><name>PT10027</name></trkpt>
<trkpt lat="51.588812" lon="03.843819"><ele>0.9</ele><time>2022-11-15T14:06:24Z</time><name>PT10028</name></trkpt>
<trkpt lat="51.588819" lon="03.843825"><ele>0.9</ele><time>2022-11-15T14:06:25Z</time><name>PT10029</name></trkpt>
<trkpt lat="51.588827" lon="03.843831"><ele>1.1</ele><time>2022-11-15T14:06:26Z</time><name>PT10030</name></trkpt>
<trkpt lat="51.588834" lon="03.843838"><ele>1.2</ele><time>2022-11-15T14:06:27Z</time><name>PT10031</name></trkpt>
<trkpt lat="51.588839" lon="03.843841"><ele>1.1</ele><time>2022-11-15T14:06:28Z</time><name>PT10032</name></trkpt>
<trkpt lat="51.588841" lon="03.843844"><ele>1.1</ele><time>2022-11-15T14:06:29Z</time><name>PT10033</name></trkpt>
<trkpt lat="51.588842" lon="03.843845"><ele>1</ele><time>2022-11-15T14:06:30Z</time><name>PT10034</name></trkpt>
<trkpt lat="51.588843" lon="03.843846"><ele>1.1</ele><time>2022-11-15T14:06:32Z</time><name>PT10035</name></trkpt>
<trkpt lat="51.588844" lon="03.843847"><ele>1.1</ele><time>2022-11-15T14:06:32Z</time><name>PT10036</name></trkpt>
<trkpt lat="51.588844" lon="03.843852"><ele>1.5</ele><time>2022-11-15T14:06:38Z</time><name>PT10037</name></trkpt>
<trkpt lat="51.588850" lon="03.843860"><ele>1.4</ele><time>2022-11-15T14:06:39Z</time><name>PT10038</name></trkpt>
<trkpt lat="51.588854" lon="03.843863"><ele>1.4</ele><time>2022-11-15T14:06:40Z</time><name>PT10039</name></trkpt>
<trkpt lat="51.588856" lon="03.843865"><ele>1.2</ele><time>2022-11-15T14:06:41Z</time><name>PT10040</name></trkpt>
<trkpt lat="51.588861" lon="03.843875"><ele>1.2</ele><time>2022-11-15T14:06:42Z</time><name>PT10041</name></trkpt>
<trkpt lat="51.588874" lon="03.843891"><ele>1.1</ele><time>2022-11-15T14:06:43Z</time><name>PT10042</name></trkpt>
<trkpt lat="51.588887" lon="03.843911"><ele>1.2</ele><time>2022-11-15T14:06:44Z</time><name>PT10043</name></trkpt>
<trkpt lat="51.588898" lon="03.843923"><ele>1.5</ele><time>2022-11-15T14:06:46Z</time><name>PT10044</name></trkpt>
<trkpt lat="51.588905" lon="03.843925"><ele>1.8</ele><time>2022-11-15T14:06:46Z</time><name>PT10045</name></trkpt>
<trkpt lat="51.588909" lon="03.843923"><ele>1.9</ele><time>2022-11-15T14:06:47Z</time><name>PT10046</name></trkpt>
<trkpt lat="51.588910" lon="03.843927"><ele>2</ele><time>2022-11-15T14:06:48Z</time><name>PT10047</name></trkpt>
<trkpt lat="51.588918" lon="03.843938"><ele>2</ele><time>2022-11-15T14:06:49Z</time><name>PT10048</name></trkpt>
<trkpt lat="51.588927" lon="03.843954"><ele>2</ele><time>2022-11-15T14:06:50Z</time><name>PT10049</name></trkpt>
<trkpt lat="51.588942" lon="03.843971"><ele>1.9</ele><time>2022-11-15T14:06:51Z</time><name>PT10050</name></trkpt>
<trkpt lat="51.588954" lon="03.843986"><ele>1.9</ele><time>2022-11-15T14:06:52Z</time><name>PT10051</name></trkpt>
<trkpt lat="51.588960" lon="03.843994"><ele>2</ele><time>2022-11-15T14:06:53Z</time><name>PT10052</name></trkpt>
<trkpt lat="51.588963" lon="03.843994"><ele>1.7</ele><time>2022-11-15T14:06:54Z</time><name>PT10053</name></trkpt>
<trkpt lat="51.588966" lon="03.843997"><ele>1.5</ele><time>2022-11-15T14:06:55Z</time><name>PT10054</name></trkpt>
<trkpt lat="51.588974" lon="03.844005"><ele>1.3</ele><time>2022-11-15T14:06:56Z</time><name>PT10055</name></trkpt>
<trkpt lat="51.588985" lon="03.844020"><ele>1.2</ele><time>2022-11-15T14:06:57Z</time><name>PT10056</name></trkpt>
<trkpt lat="51.588999" lon="03.844042"><ele>1.2</ele><time>2022-11-15T14:06:58Z</time><name>PT10057</name></trkpt>
<trkpt lat="51.589011" lon="03.844057"><ele>1.5</ele><time>2022-11-15T14:07:00Z</time><name>PT10058</name></trkpt>
<trkpt lat="51.589020" lon="03.844064"><ele>1.5</ele><time>2022-11-15T14:07:00Z</time><name>PT10059</name></trkpt>
<trkpt lat="51.589026" lon="03.844065"><ele>1.3</ele><time>2022-11-15T14:07:01Z</time><name>PT10060</name></trkpt>
<trkpt lat="51.589029" lon="03.844068"><ele>1.3</ele><time>2022-11-15T14:07:02Z</time><name>PT10061</name></trkpt>
<trkpt lat="51.589036" lon="03.844080"><ele>1.3</ele><time>2022-11-15T14:07:03Z</time><name>PT10062</name></trkpt>
<trkpt lat="51.589047" lon="03.844098"><ele>1.2</ele><time>2022-11-15T14:07:04Z</time><name>PT10063</name></trkpt>
<trkpt lat="51.589061" lon="03.844117"><ele>1.1</ele><time>2022-11-15T14:07:05Z</time><name>PT10064</name></trkpt>
<trkpt lat="51.589072" lon="03.844132"><ele>1.3</ele><time>2022-11-15T14:07:06Z</time><name>PT10065</name></trkpt>
<trkpt lat="51.589079" lon="03.844138"><ele>1.1</ele><time>2022-11-15T14:07:07Z</time><name>PT10066</name></trkpt>
<trkpt lat="51.589084" lon="03.844141"><ele>1.1</ele><time>2022-11-15T14:07:08Z</time><name>PT10067</name></trkpt>
<trkpt lat="51.589086" lon="03.844145"><ele>1</ele><time>2022-11-15T14:07:09Z</time><name>PT10068</name></trkpt>
<trkpt lat="51.589090" lon="03.844151"><ele>1.4</ele><time>2022-11-15T14:07:10Z</time><name>PT10069</name></trkpt>
<trkpt lat="51.589097" lon="03.844163"><ele>1.4</ele><time>2022-11-15T14:07:12Z</time><name>PT10070</name></trkpt>
<trkpt lat="51.589107" lon="03.844174"><ele>1.5</ele><time>2022-11-15T14:07:12Z</time><name>PT10071</name></trkpt>
<trkpt lat="51.589115" lon="03.844183"><ele>1.5</ele><time>2022-11-15T14:07:14Z</time><name>PT10072</name></trkpt>
<trkpt lat="51.589122" lon="03.844189"><ele>1.7</ele><time>2022-11-15T14:07:14Z</time><name>PT10073</name></trkpt>
<trkpt lat="51.589131" lon="03.844194"><ele>1.6</ele><time>2022-11-15T14:07:15Z</time><name>PT10074</name></trkpt>
<trkpt lat="51.589145" lon="03.844211"><ele>1.7</ele><time>2022-11-15T14:07:16Z</time><name>PT10075</name></trkpt>
<trkpt lat="51.589154" lon="03.844226"><ele>1.7</ele><time>2022-11-15T14:07:18Z</time><name>PT10076</name></trkpt>
<trkpt lat="51.589160" lon="03.844232"><ele>1.5</ele><time>2022-11-15T14:07:18Z</time><name>PT10077</name></trkpt>
<trkpt lat="51.589163" lon="03.844234"><ele>1.5</ele><time>2022-11-15T14:07:19Z</time><name>PT10078</name></trkpt>
<trkpt lat="51.589170" lon="03.844249"><ele>1.5</ele><time>2022-11-15T14:07:20Z</time><name>PT10079</name></trkpt>
<trkpt lat="51.589176" lon="03.844263"><ele>1.8</ele><time>2022-11-15T14:07:21Z</time><name>PT10080</name></trkpt>
<trkpt lat="51.589183" lon="03.844275"><ele>1.8</ele><time>2022-11-15T14:07:22Z</time><name>PT10081</name></trkpt>
<trkpt lat="51.589191" lon="03.844284"><ele>1.7</ele><time>2022-11-15T14:07:23Z</time><name>PT10082</name></trkpt>
<trkpt lat="51.589198" lon="03.844293"><ele>1.6</ele><time>2022-11-15T14:07:24Z</time><name>PT10083</name></trkpt>
<trkpt lat="51.589205" lon="03.844302"><ele>1.5</ele><time>2022-11-15T14:07:25Z</time><name>PT10084</name></trkpt>
<trkpt lat="51.589212" lon="03.844311"><ele>1.2</ele><time>2022-11-15T14:07:26Z</time><name>PT10085</name></trkpt>
<trkpt lat="51.589219" lon="03.844319"><ele>1.4</ele><time>2022-11-15T14:07:28Z</time><name>PT10086</name></trkpt>
<trkpt lat="51.589226" lon="03.844329"><ele>1.6</ele><time>2022-11-15T14:07:28Z</time><name>PT10087</name></trkpt>
<trkpt lat="51.589233" lon="03.844337"><ele>2</ele><time>2022-11-15T14:07:29Z</time><name>PT10088</name></trkpt>
<trkpt lat="51.589239" lon="03.844346"><ele>2</ele><time>2022-11-15T14:07:30Z</time><name>PT10089</name></trkpt>
<trkpt lat="51.589245" lon="03.844356"><ele>2</ele><time>2022-11-15T14:07:31Z</time><name>PT10090</name></trkpt>
<trkpt lat="51.589252" lon="03.844365"><ele>2</ele><time>2022-11-15T14:07:32Z</time><name>PT10091</name></trkpt>
<trkpt lat="51.589259" lon="03.844375"><ele>1.7</ele><time>2022-11-15T14:07:33Z</time><name>PT10092</name></trkpt>
<trkpt lat="51.589267" lon="03.844382"><ele>1.5</ele><time>2022-11-15T14:07:34Z</time><name>PT10093</name></trkpt>
<trkpt lat="51.589274" lon="03.844389"><ele>1.3</ele><time>2022-11-15T14:07:35Z</time><name>PT10094</name></trkpt>
<trkpt lat="51.589281" lon="03.844398"><ele>1.3</ele><time>2022-11-15T14:07:36Z</time><name>PT10095</name></trkpt>
<trkpt lat="51.589287" lon="03.844406"><ele>1.4</ele><time>2022-11-15T14:07:37Z</time><name>PT10096</name></trkpt>
<trkpt lat="51.589295" lon="03.844415"><ele>1.5</ele><time>2022-11-15T14:07:38Z</time><name>PT10097</name></trkpt>
<trkpt lat="51.589302" lon="03.844423"><ele>1.5</ele><time>2022-11-15T14:07:39Z</time><name>PT10098</name></trkpt>
<trkpt lat="51.589309" lon="03.844433"><ele>1.6</ele><time>2022-11-15T14:07:40Z</time><name>PT10099</name></trkpt>
<trkpt lat="51.589316" lon="03.844445"><ele>1.7</ele><time>2022-11-15T14:07:42Z</time><name>PT10100</name></trkpt>
<trkpt lat="51.589322" lon="03.844454"><ele>1.6</ele><time>2022-11-15T14:07:42Z</time><name>PT10101</name></trkpt>
<trkpt lat="51.589329" lon="03.844462"><ele>1.7</ele><time>2022-11-15T14:07:43Z</time><name>PT10102</name></trkpt>
<trkpt lat="51.589335" lon="03.844469"><ele>1.7</ele><time>2022-11-15T14:07:44Z</time><name>PT10103</name></trkpt>
<trkpt lat="51.589341" lon="03.844478"><ele>1.6</ele><time>2022-11-15T14:07:45Z</time><name>PT10104</name></trkpt>
<trkpt lat="51.589345" lon="03.844487"><ele>1.6</ele><time>2022-11-15T14:07:46Z</time><name>PT10105</name></trkpt>
<trkpt lat="51.589347" lon="03.844489"><ele>1.5</ele><time>2022-11-15T14:07:47Z</time><name>PT10106</name></trkpt>
<trkpt lat="51.589347" lon="03.844490"><ele>1.5</ele><time>2022-11-15T14:07:48Z</time><name>PT10107</name></trkpt>
<trkpt lat="51.589346" lon="03.844490"><ele>1.5</ele><time>2022-11-15T14:07:49Z</time><name>PT10108</name></trkpt>
<trkpt lat="51.589348" lon="03.844490"><ele>1.4</ele><time>2022-11-15T14:07:52Z</time><name>PT10109</name></trkpt>
<trkpt lat="51.589353" lon="03.844497"><ele>1.5</ele><time>2022-11-15T14:07:53Z</time><name>PT10110</name></trkpt>
<trkpt lat="51.589358" lon="03.844504"><ele>1.5</ele><time>2022-11-15T14:07:54Z</time><name>PT10111</name></trkpt>
<trkpt lat="51.589364" lon="03.844510"><ele>1.5</ele><time>2022-11-15T14:07:56Z</time><name>PT10112</name></trkpt>
<trkpt lat="51.589370" lon="03.844517"><ele>1.6</ele><time>2022-11-15T14:07:56Z</time><name>PT10113</name></trkpt>
<trkpt lat="51.589375" lon="03.844525"><ele>1.5</ele><time>2022-11-15T14:07:57Z</time><name>PT10114</name></trkpt>
<trkpt lat="51.589381" lon="03.844531"><ele>1.5</ele><time>2022-11-15T14:07:58Z</time><name>PT10115</name></trkpt>
<trkpt lat="51.589387" lon="03.844536"><ele>1.7</ele><time>2022-11-15T14:07:59Z</time><name>PT10116</name></trkpt>
<trkpt lat="51.589393" lon="03.844543"><ele>1.6</ele><time>2022-11-15T14:08:00Z</time><name>PT10117</name></trkpt>
<trkpt lat="51.589398" lon="03.844551"><ele>1.5</ele><time>2022-11-15T14:08:01Z</time><name>PT10118</name></trkpt>
<trkpt lat="51.589403" lon="03.844557"><ele>1.6</ele><time>2022-11-15T14:08:02Z</time><name>PT10119</name></trkpt>
<trkpt lat="51.589408" lon="03.844562"><ele>1.7</ele><time>2022-11-15T14:08:03Z</time><name>PT10120</name></trkpt>
<trkpt lat="51.589413" lon="03.844568"><ele>1.9</ele><time>2022-11-15T14:08:04Z</time><name>PT10121</name></trkpt>
<trkpt lat="51.589420" lon="03.844575"><ele>1.9</ele><time>2022-11-15T14:08:05Z</time><name>PT10122</name></trkpt>
<trkpt lat="51.589425" lon="03.844578"><ele>2</ele><time>2022-11-15T14:08:06Z</time><name>PT10123</name></trkpt>
<trkpt lat="51.589429" lon="03.844582"><ele>1.9</ele><time>2022-11-15T14:08:07Z</time><name>PT10124</name></trkpt>
<trkpt lat="51.589432" lon="03.844587"><ele>1.7</ele><time>2022-11-15T14:08:08Z</time><name>PT10125</name></trkpt>
<trkpt lat="51.589438" lon="03.844589"><ele>1.5</ele><time>2022-11-15T14:08:09Z</time><name>PT10126</name></trkpt>
<trkpt lat="51.589442" lon="03.844590"><ele>1.5</ele><time>2022-11-15T14:08:10Z</time><name>PT10127</name></trkpt>
<trkpt lat="51.589447" lon="03.844593"><ele>1.5</ele><time>2022-11-15T14:08:11Z</time><name>PT10128</name></trkpt>
<trkpt lat="51.589451" lon="03.844594"><ele>1.6</ele><time>2022-11-15T14:08:12Z</time><name>PT10129</name></trkpt>
<trkpt lat="51.589454" lon="03.844595"><ele>1.6</ele><time>2022-11-15T14:08:13Z</time><name>PT10130</name></trkpt>
<trkpt lat="51.589456" lon="03.844595"><ele>1.5</ele><time>2022-11-15T14:08:14Z</time><name>PT10131</name></trkpt>
<trkpt lat="51.589458" lon="03.844594"><ele>1.4</ele><time>2022-11-15T14:08:15Z</time><name>PT10132</name></trkpt>
<trkpt lat="51.589462" lon="03.844597"><ele>1.5</ele><time>2022-11-15T14:08:16Z</time><name>PT10133</name></trkpt>
<trkpt lat="51.589463" lon="03.844599"><ele>1.6</ele><time>2022-11-15T14:08:17Z</time><name>PT10134</name></trkpt>
<trkpt lat="51.589462" lon="03.844599"><ele>2</ele><time>2022-11-15T14:08:18Z</time><name>PT10135</name></trkpt>
<trkpt lat="51.589462" lon="03.844599"><ele>2.3</ele><time>2022-11-15T14:08:19Z</time><name>PT10136</name></trkpt>
<trkpt lat="51.589457" lon="03.844598"><ele>2</ele><time>2022-11-15T14:08:27Z</time><name>PT10137</name></trkpt>
<trkpt lat="51.589458" lon="03.844598"><ele>2.1</ele><time>2022-11-15T14:08:28Z</time><name>PT10138</name></trkpt>
<trkpt lat="51.589459" lon="03.844596"><ele>2.1</ele><time>2022-11-15T14:08:29Z</time><name>PT10139</name></trkpt>
<trkpt lat="51.589460" lon="03.844597"><ele>2.3</ele><time>2022-11-15T14:08:30Z</time><name>PT10140</name></trkpt>
<trkpt lat="51.589461" lon="03.844599"><ele>2.3</ele><time>2022-11-15T14:08:31Z</time><name>PT10141</name></trkpt>
<trkpt lat="51.589463" lon="03.844600"><ele>2.3</ele><time>2022-11-15T14:08:32Z</time><name>PT10142</name></trkpt>
<trkpt lat="51.589472" lon="03.844597"><ele>2</ele><time>2022-11-15T14:08:34Z</time><name>PT10143</name></trkpt>
<trkpt lat="51.589473" lon="03.844604"><ele>2</ele><time>2022-11-15T14:08:35Z</time><name>PT10144</name></trkpt>
<trkpt lat="51.589476" lon="03.844606"><ele>1.8</ele><time>2022-11-15T14:08:36Z</time><name>PT10145</name></trkpt>
<trkpt lat="51.589486" lon="03.844608"><ele>1.7</ele><time>2022-11-15T14:08:38Z</time><name>PT10146</name></trkpt>
<trkpt lat="51.589495" lon="03.844607"><ele>1.9</ele><time>2022-11-15T14:08:38Z</time><name>PT10147</name></trkpt>
<trkpt lat="51.589500" lon="03.844605"><ele>1.9</ele><time>2022-11-15T14:08:39Z</time><name>PT10148</name></trkpt>
<trkpt lat="51.589503" lon="03.844599"><ele>1.9</ele><time>2022-11-15T14:08:40Z</time><name>PT10149</name></trkpt>
<trkpt lat="51.589507" lon="03.844594"><ele>1.9</ele><time>2022-11-15T14:08:41Z</time><name>PT10150</name></trkpt>
<trkpt lat="51.589514" lon="03.844589"><ele>1.8</ele><time>2022-11-15T14:08:42Z</time><name>PT10151</name></trkpt>
<trkpt lat="51.589524" lon="03.844582"><ele>1.8</ele><time>2022-11-15T14:08:43Z</time><name>PT10152</name></trkpt>
<trkpt lat="51.589540" lon="03.844568"><ele>1.7</ele><time>2022-11-15T14:08:44Z</time><name>PT10153</name></trkpt>
<trkpt lat="51.589558" lon="03.844551"><ele>1.7</ele><time>2022-11-15T14:08:45Z</time><name>PT10154</name></trkpt>
<trkpt lat="51.589573" lon="03.844531"><ele>1.5</ele><time>2022-11-15T14:08:46Z</time><name>PT10155</name></trkpt>
<trkpt lat="51.589581" lon="03.844514"><ele>1.5</ele><time>2022-11-15T14:08:47Z</time><name>PT10156</name></trkpt>
<trkpt lat="51.589586" lon="03.844501"><ele>1.5</ele><time>2022-11-15T14:08:48Z</time><name>PT10157</name></trkpt>
<trkpt lat="51.589588" lon="03.844494"><ele>1.3</ele><time>2022-11-15T14:08:49Z</time><name>PT10158</name></trkpt>
<trkpt lat="51.589587" lon="03.844489"><ele>1.2</ele><time>2022-11-15T14:08:50Z</time><name>PT10159</name></trkpt>
<trkpt lat="51.589587" lon="03.844481"><ele>1.2</ele><time>2022-11-15T14:08:51Z</time><name>PT10160</name></trkpt>
<trkpt lat="51.589595" lon="03.844472"><ele>1.3</ele><time>2022-11-15T14:08:52Z</time><name>PT10161</name></trkpt>
<trkpt lat="51.589607" lon="03.844457"><ele>1.4</ele><time>2022-11-15T14:08:53Z</time><name>PT10162</name></trkpt>
<trkpt lat="51.589620" lon="03.844438"><ele>1.5</ele><time>2022-11-15T14:08:54Z</time><name>PT10163</name></trkpt>
<trkpt lat="51.589629" lon="03.844422"><ele>1.5</ele><time>2022-11-15T14:08:55Z</time><name>PT10164</name></trkpt>
<trkpt lat="51.589633" lon="03.844413"><ele>1.5</ele><time>2022-11-15T14:08:56Z</time><name>PT10165</name></trkpt>
<trkpt lat="51.589633" lon="03.844412"><ele>1.2</ele><time>2022-11-15T14:08:57Z</time><name>PT10166</name></trkpt>
<trkpt lat="51.589630" lon="03.844409"><ele>1.2</ele><time>2022-11-15T14:08:58Z</time><name>PT10167</name></trkpt>
<trkpt lat="51.589633" lon="03.844401"><ele>1.1</ele><time>2022-11-15T14:08:59Z</time><name>PT10168</name></trkpt>
<trkpt lat="51.589642" lon="03.844388"><ele>1.1</ele><time>2022-11-15T14:09:00Z</time><name>PT10169</name></trkpt>
<trkpt lat="51.589652" lon="03.844370"><ele>1.2</ele><time>2022-11-15T14:09:01Z</time><name>PT10170</name></trkpt>
<trkpt lat="51.589657" lon="03.844355"><ele>1.2</ele><time>2022-11-15T14:09:02Z</time><name>PT10171</name></trkpt>
<trkpt lat="51.589659" lon="03.844348"><ele>1.3</ele><time>2022-11-15T14:09:03Z</time><name>PT10172</name></trkpt>
<trkpt lat="51.589664" lon="03.844345"><ele>1.5</ele><time>2022-11-15T14:09:04Z</time><name>PT10173</name></trkpt>
<trkpt lat="51.589673" lon="03.844344"><ele>1.5</ele><time>2022-11-15T14:09:06Z</time><name>PT10174</name></trkpt>
<trkpt lat="51.589685" lon="03.844334"><ele>1.5</ele><time>2022-11-15T14:09:06Z</time><name>PT10175</name></trkpt>
<trkpt lat="51.589694" lon="03.844329"><ele>1.7</ele><time>2022-11-15T14:09:07Z</time><name>PT10176</name></trkpt>
<trkpt lat="51.589700" lon="03.844330"><ele>1.6</ele><time>2022-11-15T14:09:08Z</time><name>PT10177</name></trkpt>
<trkpt lat="51.589705" lon="03.844330"><ele>1.9</ele><time>2022-11-15T14:09:09Z</time><name>PT10178</name></trkpt>
<trkpt lat="51.589710" lon="03.844332"><ele>1.9</ele><time>2022-11-15T14:09:10Z</time><name>PT10179</name></trkpt>
<trkpt lat="51.589715" lon="03.844338"><ele>2.1</ele><time>2022-11-15T14:09:11Z</time><name>PT10180</name></trkpt>
<trkpt lat="51.589718" lon="03.844339"><ele>2.1</ele><time>2022-11-15T14:09:12Z</time><name>PT10181</name></trkpt>
<trkpt lat="51.589720" lon="03.844339"><ele>1.9</ele><time>2022-11-15T14:09:13Z</time><name>PT10182</name></trkpt>
<trkpt lat="51.589722" lon="03.844339"><ele>1.8</ele><time>2022-11-15T14:09:14Z</time><name>PT10183</name></trkpt>
<trkpt lat="51.589721" lon="03.844336"><ele>1.7</ele><time>2022-11-15T14:09:15Z</time><name>PT10184</name></trkpt>
<trkpt lat="51.589722" lon="03.844336"><ele>1.5</ele><time>2022-11-15T14:09:16Z</time><name>PT10185</name></trkpt>
<trkpt lat="51.589723" lon="03.844338"><ele>1.9</ele><time>2022-11-15T14:09:17Z</time><name>PT10186</name></trkpt>
<trkpt lat="51.589722" lon="03.844337"><ele>1.7</ele><time>2022-11-15T14:09:18Z</time><name>PT10187</name></trkpt>
<trkpt lat="51.589726" lon="03.844342"><ele>1.6</ele><time>2022-11-15T14:09:21Z</time><name>PT10188</name></trkpt>
<trkpt lat="51.589736" lon="03.844351"><ele>1.5</ele><time>2022-11-15T14:09:22Z</time><name>PT10189</name></trkpt>
<trkpt lat="51.589747" lon="03.844357"><ele>1.8</ele><time>2022-11-15T14:09:23Z</time><name>PT10190</name></trkpt>
<trkpt lat="51.589760" lon="03.844360"><ele>1.9</ele><time>2022-11-15T14:09:24Z</time><name>PT10191</name></trkpt>
<trkpt lat="51.589768" lon="03.844361"><ele>1.9</ele><time>2022-11-15T14:09:25Z</time><name>PT10192</name></trkpt>
<trkpt lat="51.589773" lon="03.844363"><ele>1.8</ele><time>2022-11-15T14:09:26Z</time><name>PT10193</name></trkpt>
<trkpt lat="51.589777" lon="03.844370"><ele>1.8</ele><time>2022-11-15T14:09:27Z</time><name>PT10194</name></trkpt>
<trkpt lat="51.589783" lon="03.844382"><ele>1.9</ele><time>2022-11-15T14:09:28Z</time><name>PT10195</name></trkpt>
<trkpt lat="51.589795" lon="03.844401"><ele>1.6</ele><time>2022-11-15T14:09:29Z</time><name>PT10196</name></trkpt>
<trkpt lat="51.589805" lon="03.844424"><ele>1.8</ele><time>2022-11-15T14:09:30Z</time><name>PT10197</name></trkpt>
<trkpt lat="51.589813" lon="03.844439"><ele>1.6</ele><time>2022-11-15T14:09:31Z</time><name>PT10198</name></trkpt>
<trkpt lat="51.589818" lon="03.844451"><ele>1.5</ele><time>2022-11-15T14:09:32Z</time><name>PT10199</name></trkpt>
<trkpt lat="51.589824" lon="03.844457"><ele>1.5</ele><time>2022-11-15T14:09:34Z</time><name>PT10200</name></trkpt>
<trkpt lat="51.589826" lon="03.844463"><ele>1.5</ele><time>2022-11-15T14:09:34Z</time><name>PT10201</name></trkpt>
<trkpt lat="51.589827" lon="03.844471"><ele>1.4</ele><time>2022-11-15T14:09:36Z</time><name>PT10202</name></trkpt>
<trkpt lat="51.589832" lon="03.844480"><ele>1.3</ele><time>2022-11-15T14:09:36Z</time><name>PT10203</name></trkpt>
<trkpt lat="51.589837" lon="03.844491"><ele>1.2</ele><time>2022-11-15T14:09:37Z</time><name>PT10204</name></trkpt>
<trkpt lat="51.589847" lon="03.844507"><ele>1.2</ele><time>2022-11-15T14:09:38Z</time><name>PT10205</name></trkpt>
<trkpt lat="51.589858" lon="03.844523"><ele>1.3</ele><time>2022-11-15T14:09:39Z</time><name>PT10206</name></trkpt>
<trkpt lat="51.589865" lon="03.844533"><ele>1.2</ele><time>2022-11-15T14:09:40Z</time><name>PT10207</name></trkpt>
<trkpt lat="51.589868" lon="03.844536"><ele>1.2</ele><time>2022-11-15T14:09:41Z</time><name>PT10208</name></trkpt>
<trkpt lat="51.589872" lon="03.844539"><ele>1.2</ele><time>2022-11-15T14:09:42Z</time><name>PT10209</name></trkpt>
<trkpt lat="51.589879" lon="03.844545"><ele>1.2</ele><time>2022-11-15T14:09:43Z</time><name>PT10210</name></trkpt>
<trkpt lat="51.589888" lon="03.844553"><ele>1.2</ele><time>2022-11-15T14:09:44Z</time><name>PT10211</name></trkpt>
<trkpt lat="51.589896" lon="03.844563"><ele>1.3</ele><time>2022-11-15T14:09:45Z</time><name>PT10212</name></trkpt>
<trkpt lat="51.589901" lon="03.844570"><ele>1.2</ele><time>2022-11-15T14:09:46Z</time><name>PT10213</name></trkpt>
<trkpt lat="51.589904" lon="03.844573"><ele>1.2</ele><time>2022-11-15T14:09:48Z</time><name>PT10214</name></trkpt>
<trkpt lat="51.589907" lon="03.844580"><ele>1.1</ele><time>2022-11-15T14:09:48Z</time><name>PT10215</name></trkpt>
<trkpt lat="51.589918" lon="03.844592"><ele>1.2</ele><time>2022-11-15T14:09:49Z</time><name>PT10216</name></trkpt>
<trkpt lat="51.589930" lon="03.844608"><ele>1.2</ele><time>2022-11-15T14:09:50Z</time><name>PT10217</name></trkpt>
<trkpt lat="51.589935" lon="03.844619"><ele>1.2</ele><time>2022-11-15T14:09:51Z</time><name>PT10218</name></trkpt>
<trkpt lat="51.589940" lon="03.844622"><ele>1.1</ele><time>2022-11-15T14:09:52Z</time><name>PT10219</name></trkpt>
<trkpt lat="51.589942" lon="03.844626"><ele>1.3</ele><time>2022-11-15T14:09:53Z</time><name>PT10220</name></trkpt>
<trkpt lat="51.589944" lon="03.844634"><ele>1.4</ele><time>2022-11-15T14:09:54Z</time><name>PT10221</name></trkpt>
<trkpt lat="51.589951" lon="03.844645"><ele>1.5</ele><time>2022-11-15T14:09:55Z</time><name>PT10222</name></trkpt>
<trkpt lat="51.589959" lon="03.844651"><ele>1.5</ele><time>2022-11-15T14:09:56Z</time><name>PT10223</name></trkpt>
<trkpt lat="51.589962" lon="03.844653"><ele>1.6</ele><time>2022-11-15T14:09:57Z</time><name>PT10224</name></trkpt>
<trkpt lat="51.589964" lon="03.844658"><ele>1.5</ele><time>2022-11-15T14:09:58Z</time><name>PT10225</name></trkpt>
<trkpt lat="51.589968" lon="03.844669"><ele>1.4</ele><time>2022-11-15T14:09:59Z</time><name>PT10226</name></trkpt>
<trkpt lat="51.589978" lon="03.844684"><ele>1.4</ele><time>2022-11-15T14:10:00Z</time><name>PT10227</name></trkpt>
<trkpt lat="51.589991" lon="03.844698"><ele>1.4</ele><time>2022-11-15T14:10:02Z</time><name>PT10228</name></trkpt>
<trkpt lat="51.589999" lon="03.844704"><ele>1.4</ele><time>2022-11-15T14:10:02Z</time><name>PT10229</name></trkpt>
<trkpt lat="51.590003" lon="03.844706"><ele>1.4</ele><time>2022-11-15T14:10:03Z</time><name>PT10230</name></trkpt>
<trkpt lat="51.590008" lon="03.844710"><ele>1.6</ele><time>2022-11-15T14:10:04Z</time><name>PT10231</name></trkpt>
<trkpt lat="51.590016" lon="03.844723"><ele>1.5</ele><time>2022-11-15T14:10:05Z</time><name>PT10232</name></trkpt>
<trkpt lat="51.590030" lon="03.844737"><ele>1.4</ele><time>2022-11-15T14:10:06Z</time><name>PT10233</name></trkpt>
<trkpt lat="51.590039" lon="03.844745"><ele>1.5</ele><time>2022-11-15T14:10:07Z</time><name>PT10234</name></trkpt>
<trkpt lat="51.590043" lon="03.844748"><ele>1.5</ele><time>2022-11-15T14:10:08Z</time><name>PT10235</name></trkpt>
<trkpt lat="51.590047" lon="03.844753"><ele>1.5</ele><time>2022-11-15T14:10:09Z</time><name>PT10236</name></trkpt>
<trkpt lat="51.590054" lon="03.844761"><ele>1.6</ele><time>2022-11-15T14:10:10Z</time><name>PT10237</name></trkpt>
<trkpt lat="51.590062" lon="03.844775"><ele>1.8</ele><time>2022-11-15T14:10:11Z</time><name>PT10238</name></trkpt>
<trkpt lat="51.590073" lon="03.844791"><ele>1.6</ele><time>2022-11-15T14:10:12Z</time><name>PT10239</name></trkpt>
<trkpt lat="51.590086" lon="03.844804"><ele>1.8</ele><time>2022-11-15T14:10:13Z</time><name>PT10240</name></trkpt>
<trkpt lat="51.590095" lon="03.844814"><ele>1.6</ele><time>2022-11-15T14:10:14Z</time><name>PT10241</name></trkpt>
<trkpt lat="51.590100" lon="03.844820"><ele>1.5</ele><time>2022-11-15T14:10:16Z</time><name>PT10242</name></trkpt>
<trkpt lat="51.590106" lon="03.844824"><ele>1.5</ele><time>2022-11-15T14:10:16Z</time><name>PT10243</name></trkpt>
<trkpt lat="51.590110" lon="03.844829"><ele>1.6</ele><time>2022-11-15T14:10:17Z</time><name>PT10244</name></trkpt>
<trkpt lat="51.590115" lon="03.844844"><ele>1.5</ele><time>2022-11-15T14:10:18Z</time><name>PT10245</name></trkpt>
<trkpt lat="51.590121" lon="03.844856"><ele>1.8</ele><time>2022-11-15T14:10:19Z</time><name>PT10246</name></trkpt>
<trkpt lat="51.590133" lon="03.844861"><ele>1.9</ele><time>2022-11-15T14:10:20Z</time><name>PT10247</name></trkpt>
<trkpt lat="51.590143" lon="03.844869"><ele>2</ele><time>2022-11-15T14:10:21Z</time><name>PT10248</name></trkpt>
<trkpt lat="51.590145" lon="03.844880"><ele>2</ele><time>2022-11-15T14:10:22Z</time><name>PT10249</name></trkpt>
<trkpt lat="51.590143" lon="03.844888"><ele>2</ele><time>2022-11-15T14:10:23Z</time><name>PT10250</name></trkpt>
<trkpt lat="51.590148" lon="03.844903"><ele>1.9</ele><time>2022-11-15T14:10:24Z</time><name>PT10251</name></trkpt>
<trkpt lat="51.590153" lon="03.844918"><ele>1.9</ele><time>2022-11-15T14:10:26Z</time><name>PT10252</name></trkpt>
<trkpt lat="51.590159" lon="03.844928"><ele>1.9</ele><time>2022-11-15T14:10:26Z</time><name>PT10253</name></trkpt>
<trkpt lat="51.590168" lon="03.844936"><ele>2.1</ele><time>2022-11-15T14:10:28Z</time><name>PT10254</name></trkpt>
<trkpt lat="51.590176" lon="03.844942"><ele>2.1</ele><time>2022-11-15T14:10:28Z</time><name>PT10255</name></trkpt>
<trkpt lat="51.590184" lon="03.844950"><ele>2</ele><time>2022-11-15T14:10:30Z</time><name>PT10256</name></trkpt>
<trkpt lat="51.590193" lon="03.844956"><ele>2</ele><time>2022-11-15T14:10:30Z</time><name>PT10257</name></trkpt>
<trkpt lat="51.590202" lon="03.844962"><ele>1.8</ele><time>2022-11-15T14:10:31Z</time><name>PT10258</name></trkpt>
<trkpt lat="51.590218" lon="03.844981"><ele>1.8</ele><time>2022-11-15T14:10:32Z</time><name>PT10259</name></trkpt>
<trkpt lat="51.590230" lon="03.844994"><ele>1.9</ele><time>2022-11-15T14:10:33Z</time><name>PT10260</name></trkpt>
<trkpt lat="51.590233" lon="03.844997"><ele>2</ele><time>2022-11-15T14:10:34Z</time><name>PT10261</name></trkpt>
<trkpt lat="51.590236" lon="03.845001"><ele>2</ele><time>2022-11-15T14:10:35Z</time><name>PT10262</name></trkpt>
<trkpt lat="51.590242" lon="03.845010"><ele>1.9</ele><time>2022-11-15T14:10:36Z</time><name>PT10263</name></trkpt>
<trkpt lat="51.590252" lon="03.845022"><ele>1.7</ele><time>2022-11-15T14:10:37Z</time><name>PT10264</name></trkpt>
<trkpt lat="51.590269" lon="03.845036"><ele>1.5</ele><time>2022-11-15T14:10:38Z</time><name>PT10265</name></trkpt>
<trkpt lat="51.590281" lon="03.845051"><ele>1.4</ele><time>2022-11-15T14:10:39Z</time><name>PT10266</name></trkpt>
<trkpt lat="51.590289" lon="03.845057"><ele>1.5</ele><time>2022-11-15T14:10:40Z</time><name>PT10267</name></trkpt>
<trkpt lat="51.590290" lon="03.845058"><ele>1.6</ele><time>2022-11-15T14:10:41Z</time><name>PT10268</name></trkpt>
<trkpt lat="51.590291" lon="03.845061"><ele>1.8</ele><time>2022-11-15T14:10:42Z</time><name>PT10269</name></trkpt>
<trkpt lat="51.590295" lon="03.845072"><ele>1.9</ele><time>2022-11-15T14:10:44Z</time><name>PT10270</name></trkpt>
<trkpt lat="51.590305" lon="03.845087"><ele>2</ele><time>2022-11-15T14:10:44Z</time><name>PT10271</name></trkpt>
<trkpt lat="51.590316" lon="03.845100"><ele>1.9</ele><time>2022-11-15T14:10:45Z</time><name>PT10272</name></trkpt>
<trkpt lat="51.590321" lon="03.845107"><ele>1.8</ele><time>2022-11-15T14:10:46Z</time><name>PT10273</name></trkpt>
<trkpt lat="51.590321" lon="03.845107"><ele>1.6</ele><time>2022-11-15T14:10:47Z</time><name>PT10274</name></trkpt>
<trkpt lat="51.590323" lon="03.845113"><ele>1.5</ele><time>2022-11-15T14:10:48Z</time><name>PT10275</name></trkpt>
<trkpt lat="51.590334" lon="03.845131"><ele>1.3</ele><time>2022-11-15T14:10:49Z</time><name>PT10276</name></trkpt>
<trkpt lat="51.590348" lon="03.845150"><ele>1.2</ele><time>2022-11-15T14:10:50Z</time><name>PT10277</name></trkpt>
<trkpt lat="51.590356" lon="03.845160"><ele>1.4</ele><time>2022-11-15T14:10:51Z</time><name>PT10278</name></trkpt>
<trkpt lat="51.590360" lon="03.845163"><ele>1.3</ele><time>2022-11-15T14:10:52Z</time><name>PT10279</name></trkpt>
<trkpt lat="51.590360" lon="03.845167"><ele>1.3</ele><time>2022-11-15T14:10:53Z</time><name>PT10280</name></trkpt>
<trkpt lat="51.590363" lon="03.845171"><ele>1.4</ele><time>2022-11-15T14:10:54Z</time><name>PT10281</name></trkpt>
<trkpt lat="51.590370" lon="03.845183"><ele>1.4</ele><time>2022-11-15T14:10:55Z</time><name>PT10282</name></trkpt>
<trkpt lat="51.590381" lon="03.845199"><ele>1.4</ele><time>2022-11-15T14:10:56Z</time><name>PT10283</name></trkpt>
<trkpt lat="51.590389" lon="03.845210"><ele>1.4</ele><time>2022-11-15T14:10:58Z</time><name>PT10284</name></trkpt>
<trkpt lat="51.590393" lon="03.845212"><ele>1.5</ele><time>2022-11-15T14:10:58Z</time><name>PT10285</name></trkpt>
<trkpt lat="51.590397" lon="03.845217"><ele>1.5</ele><time>2022-11-15T14:10:59Z</time><name>PT10286</name></trkpt>
<trkpt lat="51.590403" lon="03.845229"><ele>1.6</ele><time>2022-11-15T14:11:00Z</time><name>PT10287</name></trkpt>
<trkpt lat="51.590413" lon="03.845243"><ele>1.7</ele><time>2022-11-15T14:11:01Z</time><name>PT10288</name></trkpt>
<trkpt lat="51.590424" lon="03.845253"><ele>1.8</ele><time>2022-11-15T14:11:02Z</time><name>PT10289</name></trkpt>
<trkpt lat="51.590429" lon="03.845257"><ele>1.5</ele><time>2022-11-15T14:11:03Z</time><name>PT10290</name></trkpt>
<trkpt lat="51.590432" lon="03.845262"><ele>1.4</ele><time>2022-11-15T14:11:04Z</time><name>PT10291</name></trkpt>
<trkpt lat="51.590443" lon="03.845270"><ele>1.3</ele><time>2022-11-15T14:11:05Z</time><name>PT10292</name></trkpt>
<trkpt lat="51.590455" lon="03.845286"><ele>1.3</ele><time>2022-11-15T14:11:06Z</time><name>PT10293</name></trkpt>
<trkpt lat="51.590468" lon="03.845304"><ele>1.5</ele><time>2022-11-15T14:11:08Z</time><name>PT10294</name></trkpt>
<trkpt lat="51.590478" lon="03.845317"><ele>1.7</ele><time>2022-11-15T14:11:08Z</time><name>PT10295</name></trkpt>
<trkpt lat="51.590480" lon="03.845324"><ele>1.7</ele><time>2022-11-15T14:11:09Z</time><name>PT10296</name></trkpt>
<trkpt lat="51.590483" lon="03.845327"><ele>1.6</ele><time>2022-11-15T14:11:10Z</time><name>PT10297</name></trkpt>
<trkpt lat="51.590487" lon="03.845335"><ele>1.5</ele><time>2022-11-15T14:11:12Z</time><name>PT10298</name></trkpt>
<trkpt lat="51.590499" lon="03.845352"><ele>1.5</ele><time>2022-11-15T14:11:12Z</time><name>PT10299</name></trkpt>
<trkpt lat="51.590510" lon="03.845372"><ele>1.4</ele><time>2022-11-15T14:11:13Z</time><name>PT10300</name></trkpt>
<trkpt lat="51.590518" lon="03.845386"><ele>1.5</ele><time>2022-11-15T14:11:14Z</time><name>PT10301</name></trkpt>
<trkpt lat="51.590522" lon="03.845392"><ele>1.7</ele><time>2022-11-15T14:11:15Z</time><name>PT10302</name></trkpt>
<trkpt lat="51.590523" lon="03.845397"><ele>1.9</ele><time>2022-11-15T14:11:16Z</time><name>PT10303</name></trkpt>
<trkpt lat="51.590531" lon="03.845406"><ele>1.9</ele><time>2022-11-15T14:11:17Z</time><name>PT10304</name></trkpt>
<trkpt lat="51.590539" lon="03.845411"><ele>1.9</ele><time>2022-11-15T14:11:18Z</time><name>PT10305</name></trkpt>
<trkpt lat="51.590543" lon="03.845418"><ele>2</ele><time>2022-11-15T14:11:19Z</time><name>PT10306</name></trkpt>
<trkpt lat="51.590546" lon="03.845425"><ele>2</ele><time>2022-11-15T14:11:20Z</time><name>PT10307</name></trkpt>
<trkpt lat="51.590551" lon="03.845437"><ele>1.8</ele><time>2022-11-15T14:11:21Z</time><name>PT10308</name></trkpt>
<trkpt lat="51.590562" lon="03.845450"><ele>1.8</ele><time>2022-11-15T14:11:22Z</time><name>PT10309</name></trkpt>
<trkpt lat="51.590574" lon="03.845460"><ele>1.6</ele><time>2022-11-15T14:11:23Z</time><name>PT10310</name></trkpt>
<trkpt lat="51.590580" lon="03.845465"><ele>1.5</ele><time>2022-11-15T14:11:24Z</time><name>PT10311</name></trkpt>
<trkpt lat="51.590582" lon="03.845469"><ele>1.5</ele><time>2022-11-15T14:11:26Z</time><name>PT10312</name></trkpt>
<trkpt lat="51.590588" lon="03.845482"><ele>1.5</ele><time>2022-11-15T14:11:26Z</time><name>PT10313</name></trkpt>
<trkpt lat="51.590597" lon="03.845498"><ele>1.5</ele><time>2022-11-15T14:11:27Z</time><name>PT10314</name></trkpt>
<trkpt lat="51.590607" lon="03.845508"><ele>1.5</ele><time>2022-11-15T14:11:28Z</time><name>PT10315</name></trkpt>
<trkpt lat="51.590614" lon="03.845511"><ele>1.6</ele><time>2022-11-15T14:11:29Z</time><name>PT10316</name></trkpt>
<trkpt lat="51.590617" lon="03.845513"><ele>1.6</ele><time>2022-11-15T14:11:30Z</time><name>PT10317</name></trkpt>
<trkpt lat="51.590617" lon="03.845517"><ele>1.6</ele><time>2022-11-15T14:11:31Z</time><name>PT10318</name></trkpt>
<trkpt lat="51.590620" lon="03.845524"><ele>1.6</ele><time>2022-11-15T14:11:32Z</time><name>PT10319</name></trkpt>
<trkpt lat="51.590628" lon="03.845536"><ele>1.5</ele><time>2022-11-15T14:11:33Z</time><name>PT10320</name></trkpt>
<trkpt lat="51.590634" lon="03.845545"><ele>1.6</ele><time>2022-11-15T14:11:34Z</time><name>PT10321</name></trkpt>
<trkpt lat="51.590637" lon="03.845548"><ele>1.6</ele><time>2022-11-15T14:11:35Z</time><name>PT10322</name></trkpt>
<trkpt lat="51.590639" lon="03.845551"><ele>1.6</ele><time>2022-11-15T14:11:36Z</time><name>PT10323</name></trkpt>
<trkpt lat="51.590647" lon="03.845560"><ele>1.9</ele><time>2022-11-15T14:11:37Z</time><name>PT10324</name></trkpt>
<trkpt lat="51.590660" lon="03.845573"><ele>2</ele><time>2022-11-15T14:11:38Z</time><name>PT10325</name></trkpt>
<trkpt lat="51.590669" lon="03.845581"><ele>1.6</ele><time>2022-11-15T14:11:40Z</time><name>PT10326</name></trkpt>
<trkpt lat="51.590672" lon="03.845587"><ele>1.5</ele><time>2022-11-15T14:11:40Z</time><name>PT10327</name></trkpt>
<trkpt lat="51.590675" lon="03.845592"><ele>1.5</ele><time>2022-11-15T14:11:41Z</time><name>PT10328</name></trkpt>
<trkpt lat="51.590681" lon="03.845602"><ele>1.3</ele><time>2022-11-15T14:11:42Z</time><name>PT10329</name></trkpt>
<trkpt lat="51.590689" lon="03.845616"><ele>1.5</ele><time>2022-11-15T14:11:43Z</time><name>PT10330</name></trkpt>
<trkpt lat="51.590699" lon="03.845626"><ele>1.5</ele><time>2022-11-15T14:11:44Z</time><name>PT10331</name></trkpt>
<trkpt lat="51.590704" lon="03.845629"><ele>1.7</ele><time>2022-11-15T14:11:45Z</time><name>PT10332</name></trkpt>
<trkpt lat="51.590706" lon="03.845633"><ele>1.7</ele><time>2022-11-15T14:11:46Z</time><name>PT10333</name></trkpt>
<trkpt lat="51.590707" lon="03.845642"><ele>1.7</ele><time>2022-11-15T14:11:47Z</time><name>PT10334</name></trkpt>
<trkpt lat="51.590716" lon="03.845656"><ele>1.7</ele><time>2022-11-15T14:11:48Z</time><name>PT10335</name></trkpt>
<trkpt lat="51.590726" lon="03.845669"><ele>1.7</ele><time>2022-11-15T14:11:49Z</time><name>PT10336</name></trkpt>
<trkpt lat="51.590730" lon="03.845676"><ele>1.8</ele><time>2022-11-15T14:11:50Z</time><name>PT10337</name></trkpt>
<trkpt lat="51.590730" lon="03.845679"><ele>1.9</ele><time>2022-11-15T14:11:51Z</time><name>PT10338</name></trkpt>
<trkpt lat="51.590733" lon="03.845688"><ele>1.9</ele><time>2022-11-15T14:11:52Z</time><name>PT10339</name></trkpt>
<trkpt lat="51.590741" lon="03.845697"><ele>2</ele><time>2022-11-15T14:11:54Z</time><name>PT10340</name></trkpt>
<trkpt lat="51.590745" lon="03.845701"><ele>2</ele><time>2022-11-15T14:11:54Z</time><name>PT10341</name></trkpt>
<trkpt lat="51.590748" lon="03.845704"><ele>1.7</ele><time>2022-11-15T14:11:55Z</time><name>PT10342</name></trkpt>
<trkpt lat="51.590753" lon="03.845707"><ele>1.7</ele><time>2022-11-15T14:11:56Z</time><name>PT10343</name></trkpt>
<trkpt lat="51.590755" lon="03.845711"><ele>1.5</ele><time>2022-11-15T14:11:57Z</time><name>PT10344</name></trkpt>
<trkpt lat="51.590758" lon="03.845718"><ele>1.5</ele><time>2022-11-15T14:11:58Z</time><name>PT10345</name></trkpt>
<trkpt lat="51.590765" lon="03.845726"><ele>1.4</ele><time>2022-11-15T14:11:59Z</time><name>PT10346</name></trkpt>
<trkpt lat="51.590776" lon="03.845733"><ele>1.4</ele><time>2022-11-15T14:12:00Z</time><name>PT10347</name></trkpt>
<trkpt lat="51.590786" lon="03.845739"><ele>1.3</ele><time>2022-11-15T14:12:01Z</time><name>PT10348</name></trkpt>
<trkpt lat="51.590789" lon="03.845742"><ele>1.4</ele><time>2022-11-15T14:12:02Z</time><name>PT10349</name></trkpt>
<trkpt lat="51.590793" lon="03.845747"><ele>1.5</ele><time>2022-11-15T14:12:03Z</time><name>PT10350</name></trkpt>
<trkpt lat="51.590796" lon="03.845758"><ele>1.6</ele><time>2022-11-15T14:12:04Z</time><name>PT10351</name></trkpt>
<trkpt lat="51.590807" lon="03.845772"><ele>1.7</ele><time>2022-11-15T14:12:05Z</time><name>PT10352</name></trkpt>
<trkpt lat="51.590817" lon="03.845775"><ele>1.9</ele><time>2022-11-15T14:12:06Z</time><name>PT10353</name></trkpt>
<trkpt lat="51.590819" lon="03.845779"><ele>1.8</ele><time>2022-11-15T14:12:08Z</time><name>PT10354</name></trkpt>
<trkpt lat="51.590819" lon="03.845783"><ele>1.8</ele><time>2022-11-15T14:12:08Z</time><name>PT10355</name></trkpt>
<trkpt lat="51.590822" lon="03.845788"><ele>1.9</ele><time>2022-11-15T14:12:09Z</time><name>PT10356</name></trkpt>
<trkpt lat="51.590829" lon="03.845801"><ele>1.8</ele><time>2022-11-15T14:12:10Z</time><name>PT10357</name></trkpt>
<trkpt lat="51.590839" lon="03.845823"><ele>1.7</ele><time>2022-11-15T14:12:11Z</time><name>PT10358</name></trkpt>
<trkpt lat="51.590845" lon="03.845834"><ele>1.7</ele><time>2022-11-15T14:12:12Z</time><name>PT10359</name></trkpt>
<trkpt lat="51.590846" lon="03.845839"><ele>1.8</ele><time>2022-11-15T14:12:13Z</time><name>PT10360</name></trkpt>
<trkpt lat="51.590850" lon="03.845844"><ele>2</ele><time>2022-11-15T14:12:14Z</time><name>PT10361</name></trkpt>
<trkpt lat="51.590862" lon="03.845858"><ele>2.1</ele><time>2022-11-15T14:12:15Z</time><name>PT10362</name></trkpt>
<trkpt lat="51.590875" lon="03.845872"><ele>2</ele><time>2022-11-15T14:12:16Z</time><name>PT10363</name></trkpt>
<trkpt lat="51.590880" lon="03.845879"><ele>2</ele><time>2022-11-15T14:12:17Z</time><name>PT10364</name></trkpt>
<trkpt lat="51.590879" lon="03.845880"><ele>2</ele><time>2022-11-15T14:12:18Z</time><name>PT10365</name></trkpt>
<trkpt lat="51.590882" lon="03.845886"><ele>1.8</ele><time>2022-11-15T14:12:19Z</time><name>PT10366</name></trkpt>
<trkpt lat="51.590891" lon="03.845900"><ele>1.6</ele><time>2022-11-15T14:12:20Z</time><name>PT10367</name></trkpt>
<trkpt lat="51.590906" lon="03.845915"><ele>1.6</ele><time>2022-11-15T14:12:22Z</time><name>PT10368</name></trkpt>
<trkpt lat="51.590914" lon="03.845923"><ele>1.7</ele><time>2022-11-15T14:12:22Z</time><name>PT10369</name></trkpt>
<trkpt lat="51.590915" lon="03.845929"><ele>1.5</ele><time>2022-11-15T14:12:23Z</time><name>PT10370</name></trkpt>
<trkpt lat="51.590916" lon="03.845930"><ele>1.6</ele><time>2022-11-15T14:12:24Z</time><name>PT10371</name></trkpt>
<trkpt lat="51.590927" lon="03.845945"><ele>1.7</ele><time>2022-11-15T14:12:25Z</time><name>PT10372</name></trkpt>
<trkpt lat="51.590934" lon="03.845960"><ele>1.7</ele><time>2022-11-15T14:12:26Z</time><name>PT10373</name></trkpt>
<trkpt lat="51.590941" lon="03.845971"><ele>2</ele><time>2022-11-15T14:12:27Z</time><name>PT10374</name></trkpt>
<trkpt lat="51.590950" lon="03.845977"><ele>2.2</ele><time>2022-11-15T14:12:28Z</time><name>PT10375</name></trkpt>
<trkpt lat="51.590956" lon="03.845981"><ele>2.5</ele><time>2022-11-15T14:12:29Z</time><name>PT10376</name></trkpt>
<trkpt lat="51.590962" lon="03.845990"><ele>2.6</ele><time>2022-11-15T14:12:30Z</time><name>PT10377</name></trkpt>
<trkpt lat="51.590968" lon="03.846000"><ele>2.5</ele><time>2022-11-15T14:12:31Z</time><name>PT10378</name></trkpt>
<trkpt lat="51.590975" lon="03.846010"><ele>2.3</ele><time>2022-11-15T14:12:32Z</time><name>PT10379</name></trkpt>
<trkpt lat="51.590982" lon="03.846020"><ele>2.2</ele><time>2022-11-15T14:12:33Z</time><name>PT10380</name></trkpt>
<trkpt lat="51.590990" lon="03.846028"><ele>2</ele><time>2022-11-15T14:12:34Z</time><name>PT10381</name></trkpt>
<trkpt lat="51.590997" lon="03.846038"><ele>1.9</ele><time>2022-11-15T14:12:36Z</time><name>PT10382</name></trkpt>
<trkpt lat="51.591004" lon="03.846051"><ele>1.8</ele><time>2022-11-15T14:12:36Z</time><name>PT10383</name></trkpt>
<trkpt lat="51.591010" lon="03.846061"><ele>1.7</ele><time>2022-11-15T14:12:37Z</time><name>PT10384</name></trkpt>
<trkpt lat="51.591017" lon="03.846071"><ele>1.5</ele><time>2022-11-15T14:12:38Z</time><name>PT10385</name></trkpt>
<trkpt lat="51.591024" lon="03.846081"><ele>1.5</ele><time>2022-11-15T14:12:39Z</time><name>PT10386</name></trkpt>
<trkpt lat="51.591032" lon="03.846088"><ele>1.7</ele><time>2022-11-15T14:12:40Z</time><name>PT10387</name></trkpt>
<trkpt lat="51.591038" lon="03.846097"><ele>1.7</ele><time>2022-11-15T14:12:41Z</time><name>PT10388</name></trkpt>
<trkpt lat="51.591045" lon="03.846107"><ele>2</ele><time>2022-11-15T14:12:42Z</time><name>PT10389</name></trkpt>
<trkpt lat="51.591052" lon="03.846115"><ele>2.1</ele><time>2022-11-15T14:12:43Z</time><name>PT10390</name></trkpt>
<trkpt lat="51.591059" lon="03.846123"><ele>2.2</ele><time>2022-11-15T14:12:44Z</time><name>PT10391</name></trkpt>
<trkpt lat="51.591066" lon="03.846131"><ele>2.2</ele><time>2022-11-15T14:12:45Z</time><name>PT10392</name></trkpt>
<trkpt lat="51.591072" lon="03.846139"><ele>2.3</ele><time>2022-11-15T14:12:46Z</time><name>PT10393</name></trkpt>
<trkpt lat="51.591078" lon="03.846149"><ele>2.4</ele><time>2022-11-15T14:12:47Z</time><name>PT10394</name></trkpt>
<trkpt lat="51.591083" lon="03.846160"><ele>2.5</ele><time>2022-11-15T14:12:48Z</time><name>PT10395</name></trkpt>
<trkpt lat="51.591084" lon="03.846164"><ele>2.5</ele><time>2022-11-15T14:12:50Z</time><name>PT10396</name></trkpt>
<trkpt lat="51.591088" lon="03.846169"><ele>2.5</ele><time>2022-11-15T14:12:50Z</time><name>PT10397</name></trkpt>
<trkpt lat="51.591090" lon="03.846171"><ele>2.5</ele><time>2022-11-15T14:12:51Z</time><name>PT10398</name></trkpt>
<trkpt lat="51.591095" lon="03.846178"><ele>2.3</ele><time>2022-11-15T14:12:52Z</time><name>PT10399</name></trkpt>
<trkpt lat="51.591102" lon="03.846185"><ele>2</ele><time>2022-11-15T14:12:53Z</time><name>PT10400</name></trkpt>
<trkpt lat="51.591109" lon="03.846192"><ele>2.3</ele><time>2022-11-15T14:12:54Z</time><name>PT10401</name></trkpt>
<trkpt lat="51.591115" lon="03.846201"><ele>2.1</ele><time>2022-11-15T14:12:55Z</time><name>PT10402</name></trkpt>
<trkpt lat="51.591121" lon="03.846209"><ele>2.2</ele><time>2022-11-15T14:12:56Z</time><name>PT10403</name></trkpt>
<trkpt lat="51.591127" lon="03.846216"><ele>2.2</ele><time>2022-11-15T14:12:58Z</time><name>PT10404</name></trkpt>
<trkpt lat="51.591133" lon="03.846225"><ele>2.2</ele><time>2022-11-15T14:12:58Z</time><name>PT10405</name></trkpt>
<trkpt lat="51.591140" lon="03.846233"><ele>2</ele><time>2022-11-15T14:12:59Z</time><name>PT10406</name></trkpt>
<trkpt lat="51.591144" lon="03.846244"><ele>2.1</ele><time>2022-11-15T14:13:00Z</time><name>PT10407</name></trkpt>
<trkpt lat="51.591147" lon="03.846254"><ele>2</ele><time>2022-11-15T14:13:01Z</time><name>PT10408</name></trkpt>
<trkpt lat="51.591153" lon="03.846264"><ele>2.1</ele><time>2022-11-15T14:13:02Z</time><name>PT10409</name></trkpt>
<trkpt lat="51.591155" lon="03.846274"><ele>2.1</ele><time>2022-11-15T14:13:03Z</time><name>PT10410</name></trkpt>
<trkpt lat="51.591156" lon="03.846278"><ele>2.3</ele><time>2022-11-15T14:13:04Z</time><name>PT10411</name></trkpt>
<trkpt lat="51.591156" lon="03.846279"><ele>2.2</ele><time>2022-11-15T14:13:05Z</time><name>PT10412</name></trkpt>
<trkpt lat="51.591154" lon="03.846279"><ele>2.3</ele><time>2022-11-15T14:13:06Z</time><name>PT10413</name></trkpt>
<trkpt lat="51.591154" lon="03.846278"><ele>2.2</ele><time>2022-11-15T14:13:07Z</time><name>PT10414</name></trkpt>
<trkpt lat="51.591154" lon="03.846277"><ele>2.1</ele><time>2022-11-15T14:13:08Z</time><name>PT10415</name></trkpt>
<trkpt lat="51.591155" lon="03.846277"><ele>2</ele><time>2022-11-15T14:13:09Z</time><name>PT10416</name></trkpt>
<trkpt lat="51.591153" lon="03.846272"><ele>2</ele><time>2022-11-15T14:13:20Z</time><name>PT10417</name></trkpt>
<trkpt lat="51.591152" lon="03.846271"><ele>1.9</ele><time>2022-11-15T14:13:21Z</time><name>PT10418</name></trkpt>
<trkpt lat="51.591152" lon="03.846271"><ele>1.5</ele><time>2022-11-15T14:13:22Z</time><name>PT10419</name></trkpt>
<trkpt lat="51.591153" lon="03.846275"><ele>1.8</ele><time>2022-11-15T14:13:43Z</time><name>PT10420</name></trkpt>
<trkpt lat="51.591159" lon="03.846276"><ele>1.9</ele><time>2022-11-15T14:13:44Z</time><name>PT10421</name></trkpt>
<trkpt lat="51.591166" lon="03.846279"><ele>2.2</ele><time>2022-11-15T14:13:46Z</time><name>PT10422</name></trkpt>
<trkpt lat="51.591172" lon="03.846285"><ele>2.5</ele><time>2022-11-15T14:13:46Z</time><name>PT10423</name></trkpt>
<trkpt lat="51.591175" lon="03.846288"><ele>2.6</ele><time>2022-11-15T14:13:47Z</time><name>PT10424</name></trkpt>
<trkpt lat="51.591176" lon="03.846290"><ele>2.7</ele><time>2022-11-15T14:13:48Z</time><name>PT10425</name></trkpt>
<trkpt lat="51.591176" lon="03.846290"><ele>3</ele><time>2022-11-15T14:13:49Z</time><name>PT10426</name></trkpt>
<trkpt lat="51.591176" lon="03.846290"><ele>3</ele><time>2022-11-15T14:13:50Z</time><name>PT10427</name></trkpt>
<trkpt lat="51.591179" lon="03.846292"><ele>2.4</ele><time>2022-11-15T14:14:00Z</time><name>PT10428</name></trkpt>
<trkpt lat="51.591186" lon="03.846299"><ele>2.3</ele><time>2022-11-15T14:14:00Z</time><name>PT10429</name></trkpt>
<trkpt lat="51.591193" lon="03.846306"><ele>2.5</ele><time>2022-11-15T14:14:01Z</time><name>PT10430</name></trkpt>
<trkpt lat="51.591199" lon="03.846313"><ele>2.5</ele><time>2022-11-15T14:14:02Z</time><name>PT10431</name></trkpt>
<trkpt lat="51.591207" lon="03.846320"><ele>2.8</ele><time>2022-11-15T14:14:03Z</time><name>PT10432</name></trkpt>
<trkpt lat="51.591213" lon="03.846328"><ele>2.8</ele><time>2022-11-15T14:14:04Z</time><name>PT10433</name></trkpt>
<trkpt lat="51.591220" lon="03.846338"><ele>2.8</ele><time>2022-11-15T14:14:05Z</time><name>PT10434</name></trkpt>
<trkpt lat="51.591226" lon="03.846350"><ele>2.5</ele><time>2022-11-15T14:14:06Z</time><name>PT10435</name></trkpt>
<trkpt lat="51.591232" lon="03.846362"><ele>2.5</ele><time>2022-11-15T14:14:07Z</time><name>PT10436</name></trkpt>
<trkpt lat="51.591238" lon="03.846372"><ele>2.4</ele><time>2022-11-15T14:14:08Z</time><name>PT10437</name></trkpt>
<trkpt lat="51.591244" lon="03.846382"><ele>2.4</ele><time>2022-11-15T14:14:09Z</time><name>PT10438</name></trkpt>
<trkpt lat="51.591249" lon="03.846393"><ele>2.4</ele><time>2022-11-15T14:14:10Z</time><name>PT10439</name></trkpt>
<trkpt lat="51.591255" lon="03.846404"><ele>2.5</ele><time>2022-11-15T14:14:11Z</time><name>PT10440</name></trkpt>
<trkpt lat="51.591261" lon="03.846416"><ele>2.5</ele><time>2022-11-15T14:14:12Z</time><name>PT10441</name></trkpt>
<trkpt lat="51.591268" lon="03.846429"><ele>2.5</ele><time>2022-11-15T14:14:14Z</time><name>PT10442</name></trkpt>
<trkpt lat="51.591273" lon="03.846442"><ele>2.4</ele><time>2022-11-15T14:14:14Z</time><name>PT10443</name></trkpt>
<trkpt lat="51.591279" lon="03.846454"><ele>2.4</ele><time>2022-11-15T14:14:15Z</time><name>PT10444</name></trkpt>
<trkpt lat="51.591283" lon="03.846469"><ele>2.5</ele><time>2022-11-15T14:14:16Z</time><name>PT10445</name></trkpt>
<trkpt lat="51.591285" lon="03.846480"><ele>2.5</ele><time>2022-11-15T14:14:17Z</time><name>PT10446</name></trkpt>
<trkpt lat="51.591289" lon="03.846494"><ele>2.5</ele><time>2022-11-15T14:14:18Z</time><name>PT10447</name></trkpt>
<trkpt lat="51.591293" lon="03.846507"><ele>2.4</ele><time>2022-11-15T14:14:19Z</time><name>PT10448</name></trkpt>
<trkpt lat="51.591297" lon="03.846520"><ele>2.3</ele><time>2022-11-15T14:14:20Z</time><name>PT10449</name></trkpt>
<trkpt lat="51.591302" lon="03.846533"><ele>2.2</ele><time>2022-11-15T14:14:21Z</time><name>PT10450</name></trkpt>
<trkpt lat="51.591306" lon="03.846544"><ele>2.1</ele><time>2022-11-15T14:14:22Z</time><name>PT10451</name></trkpt>
<trkpt lat="51.591309" lon="03.846555"><ele>2.1</ele><time>2022-11-15T14:14:23Z</time><name>PT10452</name></trkpt>
<trkpt lat="51.591312" lon="03.846567"><ele>2.1</ele><time>2022-11-15T14:14:24Z</time><name>PT10453</name></trkpt>
<trkpt lat="51.591317" lon="03.846576"><ele>2.2</ele><time>2022-11-15T14:14:25Z</time><name>PT10454</name></trkpt>
<trkpt lat="51.591323" lon="03.846584"><ele>2.1</ele><time>2022-11-15T14:14:26Z</time><name>PT10455</name></trkpt>
<trkpt lat="51.591327" lon="03.846594"><ele>2.2</ele><time>2022-11-15T14:14:28Z</time><name>PT10456</name></trkpt>
<trkpt lat="51.591333" lon="03.846604"><ele>2.2</ele><time>2022-11-15T14:14:28Z</time><name>PT10457</name></trkpt>
<trkpt lat="51.591339" lon="03.846617"><ele>2.3</ele><time>2022-11-15T14:14:29Z</time><name>PT10458</name></trkpt>
<trkpt lat="51.591347" lon="03.846626"><ele>2</ele><time>2022-11-15T14:14:30Z</time><name>PT10459</name></trkpt>
<trkpt lat="51.591354" lon="03.846633"><ele>2</ele><time>2022-11-15T14:14:31Z</time><name>PT10460</name></trkpt>
<trkpt lat="51.591361" lon="03.846642"><ele>2</ele><time>2022-11-15T14:14:32Z</time><name>PT10461</name></trkpt>
<trkpt lat="51.591368" lon="03.846653"><ele>1.9</ele><time>2022-11-15T14:14:33Z</time><name>PT10462</name></trkpt>
<trkpt lat="51.591375" lon="03.846666"><ele>1.8</ele><time>2022-11-15T14:14:34Z</time><name>PT10463</name></trkpt>
<trkpt lat="51.591381" lon="03.846678"><ele>2</ele><time>2022-11-15T14:14:35Z</time><name>PT10464</name></trkpt>
<trkpt lat="51.591386" lon="03.846688"><ele>2</ele><time>2022-11-15T14:14:36Z</time><name>PT10465</name></trkpt>
<trkpt lat="51.591393" lon="03.846699"><ele>2.1</ele><time>2022-11-15T14:14:37Z</time><name>PT10466</name></trkpt>
<trkpt lat="51.591400" lon="03.846709"><ele>2.3</ele><time>2022-11-15T14:14:38Z</time><name>PT10467</name></trkpt>
<trkpt lat="51.591407" lon="03.846719"><ele>2.5</ele><time>2022-11-15T14:14:39Z</time><name>PT10468</name></trkpt>
<trkpt lat="51.591414" lon="03.846728"><ele>2.5</ele><time>2022-11-15T14:14:40Z</time><name>PT10469</name></trkpt>
<trkpt lat="51.591423" lon="03.846736"><ele>2.5</ele><time>2022-11-15T14:14:41Z</time><name>PT10470</name></trkpt>
<trkpt lat="51.591432" lon="03.846743"><ele>2.5</ele><time>2022-11-15T14:14:42Z</time><name>PT10471</name></trkpt>
<trkpt lat="51.591440" lon="03.846750"><ele>2.5</ele><time>2022-11-15T14:14:43Z</time><name>PT10472</name></trkpt>
<trkpt lat="51.591447" lon="03.846755"><ele>2.5</ele><time>2022-11-15T14:14:44Z</time><name>PT10473</name></trkpt>
<trkpt lat="51.591456" lon="03.846764"><ele>2.3</ele><time>2022-11-15T14:14:45Z</time><name>PT10474</name></trkpt>
<trkpt lat="51.591464" lon="03.846773"><ele>2.4</ele><time>2022-11-15T14:14:46Z</time><name>PT10475</name></trkpt>
<trkpt lat="51.591473" lon="03.846780"><ele>2.2</ele><time>2022-11-15T14:14:47Z</time><name>PT10476</name></trkpt>
<trkpt lat="51.591482" lon="03.846789"><ele>2</ele><time>2022-11-15T14:14:48Z</time><name>PT10477</name></trkpt>
<trkpt lat="51.591490" lon="03.846796"><ele>2.3</ele><time>2022-11-15T14:14:49Z</time><name>PT10478</name></trkpt>
<trkpt lat="51.591497" lon="03.846805"><ele>2.4</ele><time>2022-11-15T14:14:50Z</time><name>PT10479</name></trkpt>
<trkpt lat="51.591506" lon="03.846815"><ele>2.3</ele><time>2022-11-15T14:14:51Z</time><name>PT10480</name></trkpt>
<trkpt lat="51.591513" lon="03.846826"><ele>2.5</ele><time>2022-11-15T14:14:52Z</time><name>PT10481</name></trkpt>
<trkpt lat="51.591519" lon="03.846836"><ele>2.4</ele><time>2022-11-15T14:14:53Z</time><name>PT10482</name></trkpt>
<trkpt lat="51.591524" lon="03.846847"><ele>2.5</ele><time>2022-11-15T14:14:54Z</time><name>PT10483</name></trkpt>
<trkpt lat="51.591529" lon="03.846860"><ele>2.3</ele><time>2022-11-15T14:14:56Z</time><name>PT10484</name></trkpt>
<trkpt lat="51.591535" lon="03.846871"><ele>2.2</ele><time>2022-11-15T14:14:56Z</time><name>PT10485</name></trkpt>
<trkpt lat="51.591542" lon="03.846878"><ele>2.2</ele><time>2022-11-15T14:14:57Z</time><name>PT10486</name></trkpt>
<trkpt lat="51.591550" lon="03.846883"><ele>2.3</ele><time>2022-11-15T14:14:58Z</time><name>PT10487</name></trkpt>
<trkpt lat="51.591560" lon="03.846889"><ele>2.4</ele><time>2022-11-15T14:14:59Z</time><name>PT10488</name></trkpt>
<trkpt lat="51.591568" lon="03.846894"><ele>2.4</ele><time>2022-11-15T14:15:00Z</time><name>PT10489</name></trkpt>
<trkpt lat="51.591576" lon="03.846899"><ele>2.3</ele><time>2022-11-15T14:15:01Z</time><name>PT10490</name></trkpt>
<trkpt lat="51.591583" lon="03.846906"><ele>2.1</ele><time>2022-11-15T14:15:02Z</time><name>PT10491</name></trkpt>
<trkpt lat="51.591590" lon="03.846913"><ele>2</ele><time>2022-11-15T14:15:03Z</time><name>PT10492</name></trkpt>
<trkpt lat="51.591599" lon="03.846917"><ele>2</ele><time>2022-11-15T14:15:04Z</time><name>PT10493</name></trkpt>
<trkpt lat="51.591608" lon="03.846921"><ele>2</ele><time>2022-11-15T14:15:05Z</time><name>PT10494</name></trkpt>
<trkpt lat="51.591616" lon="03.846926"><ele>2</ele><time>2022-11-15T14:15:06Z</time><name>PT10495</name></trkpt>
<trkpt lat="51.591626" lon="03.846931"><ele>2</ele><time>2022-11-15T14:15:07Z</time><name>PT10496</name></trkpt>
<trkpt lat="51.591636" lon="03.846935"><ele>2.1</ele><time>2022-11-15T14:15:08Z</time><name>PT10497</name></trkpt>
<trkpt lat="51.591644" lon="03.846939"><ele>2.1</ele><time>2022-11-15T14:15:10Z</time><name>PT10498</name></trkpt>
<trkpt lat="51.591652" lon="03.846944"><ele>2.1</ele><time>2022-11-15T14:15:10Z</time><name>PT10499</name></trkpt>
<trkpt lat="51.591660" lon="03.846949"><ele>2</ele><time>2022-11-15T14:15:11Z</time><name>PT10500</name></trkpt>
<trkpt lat="51.591669" lon="03.846956"><ele>2</ele><time>2022-11-15T14:15:12Z</time><name>PT10501</name></trkpt>
<trkpt lat="51.591679" lon="03.846962"><ele>2</ele><time>2022-11-15T14:15:13Z</time><name>PT10502</name></trkpt>
<trkpt lat="51.591688" lon="03.846968"><ele>1.9</ele><time>2022-11-15T14:15:14Z</time><name>PT10503</name></trkpt>
<trkpt lat="51.591698" lon="03.846973"><ele>1.9</ele><time>2022-11-15T14:15:15Z</time><name>PT10504</name></trkpt>
<trkpt lat="51.591707" lon="03.846975"><ele>2</ele><time>2022-11-15T14:15:16Z</time><name>PT10505</name></trkpt>
<trkpt lat="51.591716" lon="03.846980"><ele>2.1</ele><time>2022-11-15T14:15:17Z</time><name>PT10506</name></trkpt>
<trkpt lat="51.591725" lon="03.846984"><ele>2.1</ele><time>2022-11-15T14:15:18Z</time><name>PT10507</name></trkpt>
<trkpt lat="51.591733" lon="03.846989"><ele>2.2</ele><time>2022-11-15T14:15:19Z</time><name>PT10508</name></trkpt>
<trkpt lat="51.591741" lon="03.846994"><ele>2.2</ele><time>2022-11-15T14:15:20Z</time><name>PT10509</name></trkpt>
<trkpt lat="51.591750" lon="03.846999"><ele>2</ele><time>2022-11-15T14:15:22Z</time><name>PT10510</name></trkpt>
<trkpt lat="51.591759" lon="03.847005"><ele>2</ele><time>2022-11-15T14:15:22Z</time><name>PT10511</name></trkpt>
<trkpt lat="51.591767" lon="03.847011"><ele>2.1</ele><time>2022-11-15T14:15:23Z</time><name>PT10512</name></trkpt>
<trkpt lat="51.591777" lon="03.847014"><ele>2</ele><time>2022-11-15T14:15:24Z</time><name>PT10513</name></trkpt>
<trkpt lat="51.591786" lon="03.847015"><ele>2.1</ele><time>2022-11-15T14:15:25Z</time><name>PT10514</name></trkpt>
<trkpt lat="51.591795" lon="03.847018"><ele>2.2</ele><time>2022-11-15T14:15:26Z</time><name>PT10515</name></trkpt>
<trkpt lat="51.591802" lon="03.847025"><ele>2.3</ele><time>2022-11-15T14:15:27Z</time><name>PT10516</name></trkpt>
<trkpt lat="51.591811" lon="03.847030"><ele>2.3</ele><time>2022-11-15T14:15:28Z</time><name>PT10517</name></trkpt>
<trkpt lat="51.591821" lon="03.847035"><ele>2.3</ele><time>2022-11-15T14:15:29Z</time><name>PT10518</name></trkpt>
<trkpt lat="51.591830" lon="03.847039"><ele>2.2</ele><time>2022-11-15T14:15:30Z</time><name>PT10519</name></trkpt>
<trkpt lat="51.591839" lon="03.847046"><ele>2.1</ele><time>2022-11-15T14:15:31Z</time><name>PT10520</name></trkpt>
<trkpt lat="51.591848" lon="03.847051"><ele>2</ele><time>2022-11-15T14:15:32Z</time><name>PT10521</name></trkpt>
<trkpt lat="51.591859" lon="03.847056"><ele>2.1</ele><time>2022-11-15T14:15:33Z</time><name>PT10522</name></trkpt>
<trkpt lat="51.591868" lon="03.847062"><ele>2.1</ele><time>2022-11-15T14:15:34Z</time><name>PT10523</name></trkpt>
<trkpt lat="51.591876" lon="03.847065"><ele>2.2</ele><time>2022-11-15T14:15:35Z</time><name>PT10524</name></trkpt>
<trkpt lat="51.591885" lon="03.847067"><ele>2.2</ele><time>2022-11-15T14:15:36Z</time><name>PT10525</name></trkpt>
<trkpt lat="51.591894" lon="03.847071"><ele>2.2</ele><time>2022-11-15T14:15:37Z</time><name>PT10526</name></trkpt>
<trkpt lat="51.591903" lon="03.847076"><ele>2</ele><time>2022-11-15T14:15:38Z</time><name>PT10527</name></trkpt>
<trkpt lat="51.591911" lon="03.847081"><ele>2</ele><time>2022-11-15T14:15:39Z</time><name>PT10528</name></trkpt>
<trkpt lat="51.591920" lon="03.847085"><ele>2</ele><time>2022-11-15T14:15:40Z</time><name>PT10529</name></trkpt>
<trkpt lat="51.591929" lon="03.847089"><ele>2</ele><time>2022-11-15T14:15:41Z</time><name>PT10530</name></trkpt>
<trkpt lat="51.591938" lon="03.847093"><ele>1.9</ele><time>2022-11-15T14:15:42Z</time><name>PT10531</name></trkpt>
<trkpt lat="51.591947" lon="03.847097"><ele>2</ele><time>2022-11-15T14:15:43Z</time><name>PT10532</name></trkpt>
<trkpt lat="51.591956" lon="03.847101"><ele>2</ele><time>2022-11-15T14:15:44Z</time><name>PT10533</name></trkpt>
<trkpt lat="51.591965" lon="03.847106"><ele>1.9</ele><time>2022-11-15T14:15:45Z</time><name>PT10534</name></trkpt>
<trkpt lat="51.591974" lon="03.847111"><ele>1.9</ele><time>2022-11-15T14:15:46Z</time><name>PT10535</name></trkpt>
<trkpt lat="51.591986" lon="03.847114"><ele>2.1</ele><time>2022-11-15T14:15:47Z</time><name>PT10536</name></trkpt>
<trkpt lat="51.591995" lon="03.847117"><ele>2</ele><time>2022-11-15T14:15:48Z</time><name>PT10537</name></trkpt>
<trkpt lat="51.592003" lon="03.847121"><ele>2.2</ele><time>2022-11-15T14:15:49Z</time><name>PT10538</name></trkpt>
<trkpt lat="51.592013" lon="03.847122"><ele>2.1</ele><time>2022-11-15T14:15:50Z</time><name>PT10539</name></trkpt>
<trkpt lat="51.592024" lon="03.847125"><ele>2</ele><time>2022-11-15T14:15:51Z</time><name>PT10540</name></trkpt>
<trkpt lat="51.592033" lon="03.847128"><ele>2</ele><time>2022-11-15T14:15:52Z</time><name>PT10541</name></trkpt>
<trkpt lat="51.592041" lon="03.847131"><ele>2</ele><time>2022-11-15T14:15:53Z</time><name>PT10542</name></trkpt>
<trkpt lat="51.592050" lon="03.847134"><ele>2</ele><time>2022-11-15T14:15:54Z</time><name>PT10543</name></trkpt>
<trkpt lat="51.592059" lon="03.847137"><ele>2</ele><time>2022-11-15T14:15:55Z</time><name>PT10544</name></trkpt>
<trkpt lat="51.592068" lon="03.847139"><ele>2.1</ele><time>2022-11-15T14:15:56Z</time><name>PT10545</name></trkpt>
<trkpt lat="51.592077" lon="03.847141"><ele>2.3</ele><time>2022-11-15T14:15:57Z</time><name>PT10546</name></trkpt>
<trkpt lat="51.592087" lon="03.847142"><ele>2.4</ele><time>2022-11-15T14:15:58Z</time><name>PT10547</name></trkpt>
<trkpt lat="51.592095" lon="03.847142"><ele>2.4</ele><time>2022-11-15T14:15:59Z</time><name>PT10548</name></trkpt>
<trkpt lat="51.592102" lon="03.847145"><ele>2.2</ele><time>2022-11-15T14:16:00Z</time><name>PT10549</name></trkpt>
<trkpt lat="51.592111" lon="03.847146"><ele>2.2</ele><time>2022-11-15T14:16:01Z</time><name>PT10550</name></trkpt>
<trkpt lat="51.592119" lon="03.847146"><ele>2</ele><time>2022-11-15T14:16:02Z</time><name>PT10551</name></trkpt>
<trkpt lat="51.592127" lon="03.847147"><ele>2</ele><time>2022-11-15T14:16:03Z</time><name>PT10552</name></trkpt>
<trkpt lat="51.592135" lon="03.847148"><ele>1.9</ele><time>2022-11-15T14:16:04Z</time><name>PT10553</name></trkpt>
<trkpt lat="51.592141" lon="03.847152"><ele>2.1</ele><time>2022-11-15T14:16:05Z</time><name>PT10554</name></trkpt>
<trkpt lat="51.592147" lon="03.847159"><ele>2</ele><time>2022-11-15T14:16:06Z</time><name>PT10555</name></trkpt>
<trkpt lat="51.592154" lon="03.847163"><ele>2.2</ele><time>2022-11-15T14:16:07Z</time><name>PT10556</name></trkpt>
<trkpt lat="51.592161" lon="03.847165"><ele>2.3</ele><time>2022-11-15T14:16:08Z</time><name>PT10557</name></trkpt>
<trkpt lat="51.592170" lon="03.847166"><ele>2.2</ele><time>2022-11-15T14:16:09Z</time><name>PT10558</name></trkpt>
<trkpt lat="51.592178" lon="03.847166"><ele>2.3</ele><time>2022-11-15T14:16:10Z</time><name>PT10559</name></trkpt>
<trkpt lat="51.592186" lon="03.847167"><ele>2.4</ele><time>2022-11-15T14:16:11Z</time><name>PT10560</name></trkpt>
<trkpt lat="51.592193" lon="03.847168"><ele>2.5</ele><time>2022-11-15T14:16:12Z</time><name>PT10561</name></trkpt>
<trkpt lat="51.592200" lon="03.847169"><ele>2.4</ele><time>2022-11-15T14:16:13Z</time><name>PT10562</name></trkpt>
<trkpt lat="51.592208" lon="03.847170"><ele>2.4</ele><time>2022-11-15T14:16:14Z</time><name>PT10563</name></trkpt>
<trkpt lat="51.592216" lon="03.847169"><ele>2.3</ele><time>2022-11-15T14:16:15Z</time><name>PT10564</name></trkpt>
<trkpt lat="51.592224" lon="03.847170"><ele>2.2</ele><time>2022-11-15T14:16:16Z</time><name>PT10565</name></trkpt>
<trkpt lat="51.592233" lon="03.847173"><ele>1.9</ele><time>2022-11-15T14:16:17Z</time><name>PT10566</name></trkpt>
<trkpt lat="51.592241" lon="03.847176"><ele>2</ele><time>2022-11-15T14:16:18Z</time><name>PT10567</name></trkpt>
<trkpt lat="51.592249" lon="03.847177"><ele>2.1</ele><time>2022-11-15T14:16:19Z</time><name>PT10568</name></trkpt>
<trkpt lat="51.592257" lon="03.847176"><ele>2.1</ele><time>2022-11-15T14:16:20Z</time><name>PT10569</name></trkpt>
<trkpt lat="51.592268" lon="03.847173"><ele>2.2</ele><time>2022-11-15T14:16:21Z</time><name>PT10570</name></trkpt>
<trkpt lat="51.592277" lon="03.847171"><ele>2.4</ele><time>2022-11-15T14:16:22Z</time><name>PT10571</name></trkpt>
<trkpt lat="51.592285" lon="03.847170"><ele>2.4</ele><time>2022-11-15T14:16:23Z</time><name>PT10572</name></trkpt>
<trkpt lat="51.592294" lon="03.847170"><ele>2.3</ele><time>2022-11-15T14:16:24Z</time><name>PT10573</name></trkpt>
<trkpt lat="51.592304" lon="03.847174"><ele>2.4</ele><time>2022-11-15T14:16:25Z</time><name>PT10574</name></trkpt>
<trkpt lat="51.592314" lon="03.847176"><ele>2.3</ele><time>2022-11-15T14:16:26Z</time><name>PT10575</name></trkpt>
<trkpt lat="51.592323" lon="03.847178"><ele>2.1</ele><time>2022-11-15T14:16:27Z</time><name>PT10576</name></trkpt>
<trkpt lat="51.592331" lon="03.847175"><ele>2</ele><time>2022-11-15T14:16:28Z</time><name>PT10577</name></trkpt>
<trkpt lat="51.592341" lon="03.847170"><ele>2</ele><time>2022-11-15T14:16:29Z</time><name>PT10578</name></trkpt>
<trkpt lat="51.592349" lon="03.847167"><ele>1.9</ele><time>2022-11-15T14:16:30Z</time><name>PT10579</name></trkpt>
<trkpt lat="51.592359" lon="03.847167"><ele>1.8</ele><time>2022-11-15T14:16:31Z</time><name>PT10580</name></trkpt>
<trkpt lat="51.592369" lon="03.847166"><ele>1.9</ele><time>2022-11-15T14:16:32Z</time><name>PT10581</name></trkpt>
<trkpt lat="51.592378" lon="03.847166"><ele>2</ele><time>2022-11-15T14:16:34Z</time><name>PT10582</name></trkpt>
<trkpt lat="51.592388" lon="03.847165"><ele>2</ele><time>2022-11-15T14:16:34Z</time><name>PT10583</name></trkpt>
<trkpt lat="51.592397" lon="03.847165"><ele>2.1</ele><time>2022-11-15T14:16:35Z</time><name>PT10584</name></trkpt>
<trkpt lat="51.592406" lon="03.847166"><ele>2.3</ele><time>2022-11-15T14:16:36Z</time><name>PT10585</name></trkpt>
<trkpt lat="51.592415" lon="03.847169"><ele>2.3</ele><time>2022-11-15T14:16:37Z</time><name>PT10586</name></trkpt>
<trkpt lat="51.592424" lon="03.847174"><ele>2.1</ele><time>2022-11-15T14:16:38Z</time><name>PT10587</name></trkpt>
<trkpt lat="51.592433" lon="03.847176"><ele>2.2</ele><time>2022-11-15T14:16:39Z</time><name>PT10588</name></trkpt>
<trkpt lat="51.592442" lon="03.847175"><ele>2.1</ele><time>2022-11-15T14:16:40Z</time><name>PT10589</name></trkpt>
<trkpt lat="51.592451" lon="03.847173"><ele>2</ele><time>2022-11-15T14:16:41Z</time><name>PT10590</name></trkpt>
<trkpt lat="51.592461" lon="03.847170"><ele>2</ele><time>2022-11-15T14:16:42Z</time><name>PT10591</name></trkpt>
<trkpt lat="51.592469" lon="03.847167"><ele>2</ele><time>2022-11-15T14:16:43Z</time><name>PT10592</name></trkpt>
<trkpt lat="51.592478" lon="03.847165"><ele>2</ele><time>2022-11-15T14:16:44Z</time><name>PT10593</name></trkpt>
<trkpt lat="51.592488" lon="03.847164"><ele>2</ele><time>2022-11-15T14:16:45Z</time><name>PT10594</name></trkpt>
<trkpt lat="51.592498" lon="03.847163"><ele>2</ele><time>2022-11-15T14:16:46Z</time><name>PT10595</name></trkpt>
<trkpt lat="51.592506" lon="03.847161"><ele>2</ele><time>2022-11-15T14:16:47Z</time><name>PT10596</name></trkpt>
<trkpt lat="51.592515" lon="03.847161"><ele>2.1</ele><time>2022-11-15T14:16:48Z</time><name>PT10597</name></trkpt>
<trkpt lat="51.592525" lon="03.847160"><ele>2.2</ele><time>2022-11-15T14:16:49Z</time><name>PT10598</name></trkpt>
<trkpt lat="51.592536" lon="03.847156"><ele>2.2</ele><time>2022-11-15T14:16:50Z</time><name>PT10599</name></trkpt>
<trkpt lat="51.592545" lon="03.847153"><ele>2.2</ele><time>2022-11-15T14:16:51Z</time><name>PT10600</name></trkpt>
<trkpt lat="51.592554" lon="03.847151"><ele>2.3</ele><time>2022-11-15T14:16:52Z</time><name>PT10601</name></trkpt>
<trkpt lat="51.592563" lon="03.847152"><ele>2.3</ele><time>2022-11-15T14:16:54Z</time><name>PT10602</name></trkpt>
<trkpt lat="51.592573" lon="03.847151"><ele>2.3</ele><time>2022-11-15T14:16:54Z</time><name>PT10603</name></trkpt>
<trkpt lat="51.592582" lon="03.847151"><ele>2.5</ele><time>2022-11-15T14:16:55Z</time><name>PT10604</name></trkpt>
<trkpt lat="51.592591" lon="03.847152"><ele>2.5</ele><time>2022-11-15T14:16:56Z</time><name>PT10605</name></trkpt>
<trkpt lat="51.592601" lon="03.847152"><ele>2.5</ele><time>2022-11-15T14:16:58Z</time><name>PT10606</name></trkpt>
<trkpt lat="51.592612" lon="03.847148"><ele>2.5</ele><time>2022-11-15T14:16:58Z</time><name>PT10607</name></trkpt>
<trkpt lat="51.592622" lon="03.847146"><ele>2.6</ele><time>2022-11-15T14:17:00Z</time><name>PT10608</name></trkpt>
<trkpt lat="51.592631" lon="03.847146"><ele>2.5</ele><time>2022-11-15T14:17:00Z</time><name>PT10609</name></trkpt>
<trkpt lat="51.592640" lon="03.847146"><ele>2.5</ele><time>2022-11-15T14:17:01Z</time><name>PT10610</name></trkpt>
<trkpt lat="51.592650" lon="03.847148"><ele>2.6</ele><time>2022-11-15T14:17:02Z</time><name>PT10611</name></trkpt>
<trkpt lat="51.592660" lon="03.847147"><ele>2.5</ele><time>2022-11-15T14:17:03Z</time><name>PT10612</name></trkpt>
<trkpt lat="51.592670" lon="03.847144"><ele>2.5</ele><time>2022-11-15T14:17:04Z</time><name>PT10613</name></trkpt>
<trkpt lat="51.592679" lon="03.847142"><ele>2.5</ele><time>2022-11-15T14:17:05Z</time><name>PT10614</name></trkpt>
<trkpt lat="51.592688" lon="03.847140"><ele>2.6</ele><time>2022-11-15T14:17:06Z</time><name>PT10615</name></trkpt>
<trkpt lat="51.592696" lon="03.847136"><ele>2.5</ele><time>2022-11-15T14:17:07Z</time><name>PT10616</name></trkpt>
<trkpt lat="51.592705" lon="03.847135"><ele>2.6</ele><time>2022-11-15T14:17:08Z</time><name>PT10617</name></trkpt>
<trkpt lat="51.592712" lon="03.847135"><ele>2.9</ele><time>2022-11-15T14:17:09Z</time><name>PT10618</name></trkpt>
<trkpt lat="51.592717" lon="03.847130"><ele>2.9</ele><time>2022-11-15T14:17:10Z</time><name>PT10619</name></trkpt>
<trkpt lat="51.592725" lon="03.847129"><ele>2.9</ele><time>2022-11-15T14:17:11Z</time><name>PT10620</name></trkpt>
<trkpt lat="51.592733" lon="03.847127"><ele>3</ele><time>2022-11-15T14:17:12Z</time><name>PT10621</name></trkpt>
<trkpt lat="51.592744" lon="03.847124"><ele>3</ele><time>2022-11-15T14:17:13Z</time><name>PT10622</name></trkpt>
<trkpt lat="51.592754" lon="03.847123"><ele>3</ele><time>2022-11-15T14:17:14Z</time><name>PT10623</name></trkpt>
<trkpt lat="51.592764" lon="03.847124"><ele>3</ele><time>2022-11-15T14:17:15Z</time><name>PT10624</name></trkpt>
<trkpt lat="51.592773" lon="03.847121"><ele>2.9</ele><time>2022-11-15T14:17:16Z</time><name>PT10625</name></trkpt>
<trkpt lat="51.592783" lon="03.847115"><ele>2.8</ele><time>2022-11-15T14:17:17Z</time><name>PT10626</name></trkpt>
<trkpt lat="51.592793" lon="03.847114"><ele>2.9</ele><time>2022-11-15T14:17:18Z</time><name>PT10627</name></trkpt>
<trkpt lat="51.592803" lon="03.847116"><ele>2.9</ele><time>2022-11-15T14:17:19Z</time><name>PT10628</name></trkpt>
<trkpt lat="51.592813" lon="03.847117"><ele>3</ele><time>2022-11-15T14:17:20Z</time><name>PT10629</name></trkpt>
<trkpt lat="51.592822" lon="03.847117"><ele>3.3</ele><time>2022-11-15T14:17:21Z</time><name>PT10630</name></trkpt>
<trkpt lat="51.592830" lon="03.847116"><ele>3.3</ele><time>2022-11-15T14:17:22Z</time><name>PT10631</name></trkpt>
<trkpt lat="51.592838" lon="03.847117"><ele>3.1</ele><time>2022-11-15T14:17:23Z</time><name>PT10632</name></trkpt>
<trkpt lat="51.592847" lon="03.847116"><ele>3.2</ele><time>2022-11-15T14:17:24Z</time><name>PT10633</name></trkpt>
<trkpt lat="51.592856" lon="03.847116"><ele>3.1</ele><time>2022-11-15T14:17:25Z</time><name>PT10634</name></trkpt>
<trkpt lat="51.592863" lon="03.847119"><ele>3</ele><time>2022-11-15T14:17:26Z</time><name>PT10635</name></trkpt>
<trkpt lat="51.592872" lon="03.847116"><ele>3</ele><time>2022-11-15T14:17:27Z</time><name>PT10636</name></trkpt>
<trkpt lat="51.592880" lon="03.847113"><ele>3.1</ele><time>2022-11-15T14:17:28Z</time><name>PT10637</name></trkpt>
<trkpt lat="51.592887" lon="03.847108"><ele>3</ele><time>2022-11-15T14:17:29Z</time><name>PT10638</name></trkpt>
<trkpt lat="51.592895" lon="03.847108"><ele>3</ele><time>2022-11-15T14:17:30Z</time><name>PT10639</name></trkpt>
<trkpt lat="51.592901" lon="03.847108"><ele>2.8</ele><time>2022-11-15T14:17:31Z</time><name>PT10640</name></trkpt>
<trkpt lat="51.592908" lon="03.847105"><ele>2.8</ele><time>2022-11-15T14:17:32Z</time><name>PT10641</name></trkpt>
<trkpt lat="51.592914" lon="03.847103"><ele>2.8</ele><time>2022-11-15T14:17:33Z</time><name>PT10642</name></trkpt>
<trkpt lat="51.592923" lon="03.847103"><ele>2.8</ele><time>2022-11-15T14:17:34Z</time><name>PT10643</name></trkpt>
<trkpt lat="51.592932" lon="03.847104"><ele>2.9</ele><time>2022-11-15T14:17:35Z</time><name>PT10644</name></trkpt>
<trkpt lat="51.592947" lon="03.847101"><ele>3</ele><time>2022-11-15T14:17:36Z</time><name>PT10645</name></trkpt>
<trkpt lat="51.592958" lon="03.847099"><ele>3</ele><time>2022-11-15T14:17:37Z</time><name>PT10646</name></trkpt>
<trkpt lat="51.592966" lon="03.847097"><ele>2.8</ele><time>2022-11-15T14:17:38Z</time><name>PT10647</name></trkpt>
<trkpt lat="51.592974" lon="03.847096"><ele>2.7</ele><time>2022-11-15T14:17:39Z</time><name>PT10648</name></trkpt>
<trkpt lat="51.592982" lon="03.847097"><ele>2.7</ele><time>2022-11-15T14:17:40Z</time><name>PT10649</name></trkpt>
<trkpt lat="51.592990" lon="03.847096"><ele>2.8</ele><time>2022-11-15T14:17:41Z</time><name>PT10650</name></trkpt>
<trkpt lat="51.593000" lon="03.847093"><ele>2.9</ele><time>2022-11-15T14:17:42Z</time><name>PT10651</name></trkpt>
<trkpt lat="51.593009" lon="03.847087"><ele>3</ele><time>2022-11-15T14:17:43Z</time><name>PT10652</name></trkpt>
<trkpt lat="51.593017" lon="03.847085"><ele>3</ele><time>2022-11-15T14:17:44Z</time><name>PT10653</name></trkpt>
<trkpt lat="51.593027" lon="03.847083"><ele>2.9</ele><time>2022-11-15T14:17:45Z</time><name>PT10654</name></trkpt>
<trkpt lat="51.593034" lon="03.847083"><ele>2.9</ele><time>2022-11-15T14:17:46Z</time><name>PT10655</name></trkpt>
<trkpt lat="51.593044" lon="03.847083"><ele>2.8</ele><time>2022-11-15T14:17:47Z</time><name>PT10656</name></trkpt>
<trkpt lat="51.593052" lon="03.847082"><ele>2.8</ele><time>2022-11-15T14:17:48Z</time><name>PT10657</name></trkpt>
<trkpt lat="51.593060" lon="03.847080"><ele>2.9</ele><time>2022-11-15T14:17:49Z</time><name>PT10658</name></trkpt>
<trkpt lat="51.593070" lon="03.847079"><ele>3</ele><time>2022-11-15T14:17:50Z</time><name>PT10659</name></trkpt>
<trkpt lat="51.593078" lon="03.847079"><ele>2.9</ele><time>2022-11-15T14:17:51Z</time><name>PT10660</name></trkpt>
<trkpt lat="51.593089" lon="03.847077"><ele>2.8</ele><time>2022-11-15T14:17:52Z</time><name>PT10661</name></trkpt>
<trkpt lat="51.593098" lon="03.847073"><ele>2.8</ele><time>2022-11-15T14:17:53Z</time><name>PT10662</name></trkpt>
<trkpt lat="51.593108" lon="03.847069"><ele>2.6</ele><time>2022-11-15T14:17:54Z</time><name>PT10663</name></trkpt>
<trkpt lat="51.593117" lon="03.847068"><ele>2.5</ele><time>2022-11-15T14:17:55Z</time><name>PT10664</name></trkpt>
<trkpt lat="51.593125" lon="03.847068"><ele>2.5</ele><time>2022-11-15T14:17:56Z</time><name>PT10665</name></trkpt>
<trkpt lat="51.593135" lon="03.847066"><ele>2.6</ele><time>2022-11-15T14:17:57Z</time><name>PT10666</name></trkpt>
<trkpt lat="51.593145" lon="03.847063"><ele>2.5</ele><time>2022-11-15T14:17:58Z</time><name>PT10667</name></trkpt>
<trkpt lat="51.593154" lon="03.847059"><ele>2.6</ele><time>2022-11-15T14:17:59Z</time><name>PT10668</name></trkpt>
<trkpt lat="51.593162" lon="03.847055"><ele>2.7</ele><time>2022-11-15T14:18:00Z</time><name>PT10669</name></trkpt>
<trkpt lat="51.593171" lon="03.847051"><ele>2.8</ele><time>2022-11-15T14:18:01Z</time><name>PT10670</name></trkpt>
<trkpt lat="51.593180" lon="03.847048"><ele>2.8</ele><time>2022-11-15T14:18:02Z</time><name>PT10671</name></trkpt>
<trkpt lat="51.593188" lon="03.847045"><ele>2.8</ele><time>2022-11-15T14:18:03Z</time><name>PT10672</name></trkpt>
<trkpt lat="51.593196" lon="03.847038"><ele>2.9</ele><time>2022-11-15T14:18:04Z</time><name>PT10673</name></trkpt>
<trkpt lat="51.593204" lon="03.847032"><ele>2.7</ele><time>2022-11-15T14:18:05Z</time><name>PT10674</name></trkpt>
<trkpt lat="51.593211" lon="03.847027"><ele>2.8</ele><time>2022-11-15T14:18:06Z</time><name>PT10675</name></trkpt>
<trkpt lat="51.593219" lon="03.847024"><ele>2.9</ele><time>2022-11-15T14:18:07Z</time><name>PT10676</name></trkpt>
<trkpt lat="51.593227" lon="03.847020"><ele>3</ele><time>2022-11-15T14:18:08Z</time><name>PT10677</name></trkpt>
<trkpt lat="51.593234" lon="03.847015"><ele>2.9</ele><time>2022-11-15T14:18:09Z</time><name>PT10678</name></trkpt>
<trkpt lat="51.593243" lon="03.847009"><ele>3</ele><time>2022-11-15T14:18:10Z</time><name>PT10679</name></trkpt>
<trkpt lat="51.593251" lon="03.847005"><ele>2.8</ele><time>2022-11-15T14:18:11Z</time><name>PT10680</name></trkpt>
<trkpt lat="51.593258" lon="03.847000"><ele>2.6</ele><time>2022-11-15T14:18:12Z</time><name>PT10681</name></trkpt>
<trkpt lat="51.593266" lon="03.846994"><ele>2.7</ele><time>2022-11-15T14:18:13Z</time><name>PT10682</name></trkpt>
<trkpt lat="51.593274" lon="03.846988"><ele>3</ele><time>2022-11-15T14:18:14Z</time><name>PT10683</name></trkpt>
<trkpt lat="51.593281" lon="03.846982"><ele>2.8</ele><time>2022-11-15T14:18:15Z</time><name>PT10684</name></trkpt>
<trkpt lat="51.593289" lon="03.846978"><ele>2.8</ele><time>2022-11-15T14:18:16Z</time><name>PT10685</name></trkpt>
<trkpt lat="51.593296" lon="03.846973"><ele>2.6</ele><time>2022-11-15T14:18:17Z</time><name>PT10686</name></trkpt>
<trkpt lat="51.593303" lon="03.846967"><ele>2.5</ele><time>2022-11-15T14:18:18Z</time><name>PT10687</name></trkpt>
<trkpt lat="51.593310" lon="03.846961"><ele>2.5</ele><time>2022-11-15T14:18:19Z</time><name>PT10688</name></trkpt>
<trkpt lat="51.593318" lon="03.846957"><ele>2.5</ele><time>2022-11-15T14:18:20Z</time><name>PT10689</name></trkpt>
<trkpt lat="51.593325" lon="03.846953"><ele>2.6</ele><time>2022-11-15T14:18:21Z</time><name>PT10690</name></trkpt>
<trkpt lat="51.593331" lon="03.846947"><ele>2.6</ele><time>2022-11-15T14:18:22Z</time><name>PT10691</name></trkpt>
<trkpt lat="51.593340" lon="03.846941"><ele>2.5</ele><time>2022-11-15T14:18:23Z</time><name>PT10692</name></trkpt>
<trkpt lat="51.593347" lon="03.846935"><ele>2.7</ele><time>2022-11-15T14:18:24Z</time><name>PT10693</name></trkpt>
<trkpt lat="51.593356" lon="03.846931"><ele>2.8</ele><time>2022-11-15T14:18:25Z</time><name>PT10694</name></trkpt>
<trkpt lat="51.593367" lon="03.846928"><ele>2.9</ele><time>2022-11-15T14:18:26Z</time><name>PT10695</name></trkpt>
<trkpt lat="51.593376" lon="03.846924"><ele>3</ele><time>2022-11-15T14:18:27Z</time><name>PT10696</name></trkpt>
<trkpt lat="51.593384" lon="03.846917"><ele>3.2</ele><time>2022-11-15T14:18:28Z</time><name>PT10697</name></trkpt>
<trkpt lat="51.593392" lon="03.846911"><ele>3</ele><time>2022-11-15T14:18:29Z</time><name>PT10698</name></trkpt>
<trkpt lat="51.593400" lon="03.846907"><ele>2.9</ele><time>2022-11-15T14:18:30Z</time><name>PT10699</name></trkpt>
<trkpt lat="51.593408" lon="03.846905"><ele>2.8</ele><time>2022-11-15T14:18:31Z</time><name>PT10700</name></trkpt>
<trkpt lat="51.593416" lon="03.846899"><ele>2.6</ele><time>2022-11-15T14:18:32Z</time><name>PT10701</name></trkpt>
<trkpt lat="51.593424" lon="03.846892"><ele>2.6</ele><time>2022-11-15T14:18:33Z</time><name>PT10702</name></trkpt>
<trkpt lat="51.593431" lon="03.846885"><ele>2.6</ele><time>2022-11-15T14:18:34Z</time><name>PT10703</name></trkpt>
<trkpt lat="51.593439" lon="03.846878"><ele>2.6</ele><time>2022-11-15T14:18:35Z</time><name>PT10704</name></trkpt>
<trkpt lat="51.593448" lon="03.846872"><ele>2.6</ele><time>2022-11-15T14:18:36Z</time><name>PT10705</name></trkpt>
<trkpt lat="51.593456" lon="03.846868"><ele>2.5</ele><time>2022-11-15T14:18:37Z</time><name>PT10706</name></trkpt>
<trkpt lat="51.593465" lon="03.846863"><ele>2.6</ele><time>2022-11-15T14:18:38Z</time><name>PT10707</name></trkpt>
<trkpt lat="51.593474" lon="03.846858"><ele>2.8</ele><time>2022-11-15T14:18:39Z</time><name>PT10708</name></trkpt>
<trkpt lat="51.593483" lon="03.846854"><ele>2.9</ele><time>2022-11-15T14:18:40Z</time><name>PT10709</name></trkpt>
<trkpt lat="51.593492" lon="03.846850"><ele>3.1</ele><time>2022-11-15T14:18:41Z</time><name>PT10710</name></trkpt>
<trkpt lat="51.593500" lon="03.846846"><ele>3.2</ele><time>2022-11-15T14:18:42Z</time><name>PT10711</name></trkpt>
<trkpt lat="51.593508" lon="03.846841"><ele>3</ele><time>2022-11-15T14:18:43Z</time><name>PT10712</name></trkpt>
<trkpt lat="51.593517" lon="03.846834"><ele>3</ele><time>2022-11-15T14:18:44Z</time><name>PT10713</name></trkpt>
<trkpt lat="51.593526" lon="03.846828"><ele>3</ele><time>2022-11-15T14:18:45Z</time><name>PT10714</name></trkpt>
<trkpt lat="51.593535" lon="03.846823"><ele>3</ele><time>2022-11-15T14:18:46Z</time><name>PT10715</name></trkpt>
<trkpt lat="51.593544" lon="03.846819"><ele>3</ele><time>2022-11-15T14:18:47Z</time><name>PT10716</name></trkpt>
<trkpt lat="51.593551" lon="03.846814"><ele>3</ele><time>2022-11-15T14:18:48Z</time><name>PT10717</name></trkpt>
<trkpt lat="51.593559" lon="03.846808"><ele>3</ele><time>2022-11-15T14:18:49Z</time><name>PT10718</name></trkpt>
<trkpt lat="51.593568" lon="03.846804"><ele>3.2</ele><time>2022-11-15T14:18:50Z</time><name>PT10719</name></trkpt>
<trkpt lat="51.593577" lon="03.846800"><ele>3.2</ele><time>2022-11-15T14:18:51Z</time><name>PT10720</name></trkpt>
<trkpt lat="51.593586" lon="03.846795"><ele>3.2</ele><time>2022-11-15T14:18:52Z</time><name>PT10721</name></trkpt>
<trkpt lat="51.593595" lon="03.846792"><ele>3.3</ele><time>2022-11-15T14:18:53Z</time><name>PT10722</name></trkpt>
<trkpt lat="51.593603" lon="03.846788"><ele>3.2</ele><time>2022-11-15T14:18:54Z</time><name>PT10723</name></trkpt>
<trkpt lat="51.593612" lon="03.846782"><ele>3.1</ele><time>2022-11-15T14:18:55Z</time><name>PT10724</name></trkpt>
<trkpt lat="51.593619" lon="03.846777"><ele>3</ele><time>2022-11-15T14:18:56Z</time><name>PT10725</name></trkpt>
<trkpt lat="51.593629" lon="03.846775"><ele>3</ele><time>2022-11-15T14:18:57Z</time><name>PT10726</name></trkpt>
<trkpt lat="51.593637" lon="03.846772"><ele>3</ele><time>2022-11-15T14:18:58Z</time><name>PT10727</name></trkpt>
<trkpt lat="51.593645" lon="03.846767"><ele>2.8</ele><time>2022-11-15T14:18:59Z</time><name>PT10728</name></trkpt>
<trkpt lat="51.593655" lon="03.846762"><ele>2.7</ele><time>2022-11-15T14:19:00Z</time><name>PT10729</name></trkpt>
<trkpt lat="51.593663" lon="03.846755"><ele>2.6</ele><time>2022-11-15T14:19:01Z</time><name>PT10730</name></trkpt>
<trkpt lat="51.593671" lon="03.846748"><ele>2.7</ele><time>2022-11-15T14:19:02Z</time><name>PT10731</name></trkpt>
<trkpt lat="51.593679" lon="03.846743"><ele>2.9</ele><time>2022-11-15T14:19:03Z</time><name>PT10732</name></trkpt>
<trkpt lat="51.593687" lon="03.846742"><ele>3</ele><time>2022-11-15T14:19:04Z</time><name>PT10733</name></trkpt>
<trkpt lat="51.593694" lon="03.846738"><ele>3</ele><time>2022-11-15T14:19:05Z</time><name>PT10734</name></trkpt>
<trkpt lat="51.593702" lon="03.846732"><ele>3.1</ele><time>2022-11-15T14:19:06Z</time><name>PT10735</name></trkpt>
<trkpt lat="51.593709" lon="03.846726"><ele>3.1</ele><time>2022-11-15T14:19:07Z</time><name>PT10736</name></trkpt>
<trkpt lat="51.593717" lon="03.846723"><ele>3</ele><time>2022-11-15T14:19:08Z</time><name>PT10737</name></trkpt>
<trkpt lat="51.593724" lon="03.846720"><ele>3.1</ele><time>2022-11-15T14:19:09Z</time><name>PT10738</name></trkpt>
<trkpt lat="51.593731" lon="03.846715"><ele>3.2</ele><time>2022-11-15T14:19:10Z</time><name>PT10739</name></trkpt>
<trkpt lat="51.593738" lon="03.846709"><ele>3</ele><time>2022-11-15T14:19:11Z</time><name>PT10740</name></trkpt>
<trkpt lat="51.593744" lon="03.846704"><ele>3</ele><time>2022-11-15T14:19:12Z</time><name>PT10741</name></trkpt>
<trkpt lat="51.593751" lon="03.846700"><ele>3</ele><time>2022-11-15T14:19:13Z</time><name>PT10742</name></trkpt>
<trkpt lat="51.593759" lon="03.846696"><ele>3</ele><time>2022-11-15T14:19:14Z</time><name>PT10743</name></trkpt>
<trkpt lat="51.593767" lon="03.846689"><ele>3.1</ele><time>2022-11-15T14:19:15Z</time><name>PT10744</name></trkpt>
<trkpt lat="51.593773" lon="03.846686"><ele>3.2</ele><time>2022-11-15T14:19:16Z</time><name>PT10745</name></trkpt>
<trkpt lat="51.593779" lon="03.846682"><ele>3.3</ele><time>2022-11-15T14:19:17Z</time><name>PT10746</name></trkpt>
<trkpt lat="51.593784" lon="03.846677"><ele>3.4</ele><time>2022-11-15T14:19:18Z</time><name>PT10747</name></trkpt>
<trkpt lat="51.593790" lon="03.846674"><ele>3.5</ele><time>2022-11-15T14:19:19Z</time><name>PT10748</name></trkpt>
<trkpt lat="51.593797" lon="03.846672"><ele>3.4</ele><time>2022-11-15T14:19:20Z</time><name>PT10749</name></trkpt>
<trkpt lat="51.593803" lon="03.846669"><ele>3.2</ele><time>2022-11-15T14:19:21Z</time><name>PT10750</name></trkpt>
<trkpt lat="51.593811" lon="03.846668"><ele>3.2</ele><time>2022-11-15T14:19:22Z</time><name>PT10751</name></trkpt>
<trkpt lat="51.593819" lon="03.846668"><ele>3</ele><time>2022-11-15T14:19:23Z</time><name>PT10752</name></trkpt>
<trkpt lat="51.593825" lon="03.846666"><ele>3</ele><time>2022-11-15T14:19:24Z</time><name>PT10753</name></trkpt>
<trkpt lat="51.593830" lon="03.846665"><ele>3</ele><time>2022-11-15T14:19:25Z</time><name>PT10754</name></trkpt>
<trkpt lat="51.593835" lon="03.846665"><ele>3</ele><time>2022-11-15T14:19:26Z</time><name>PT10755</name></trkpt>
<trkpt lat="51.593838" lon="03.846664"><ele>3</ele><time>2022-11-15T14:19:27Z</time><name>PT10756</name></trkpt>
<trkpt lat="51.593839" lon="03.846663"><ele>3</ele><time>2022-11-15T14:19:28Z</time><name>PT10757</name></trkpt>
<trkpt lat="51.593840" lon="03.846664"><ele>3.3</ele><time>2022-11-15T14:19:29Z</time><name>PT10758</name></trkpt>
<trkpt lat="51.593840" lon="03.846664"><ele>3.3</ele><time>2022-11-15T14:19:30Z</time><name>PT10759</name></trkpt>
<trkpt lat="51.593838" lon="03.846661"><ele>3.5</ele><time>2022-11-15T14:20:25Z</time><name>PT10760</name></trkpt>
<trkpt lat="51.593840" lon="03.846648"><ele>3.4</ele><time>2022-11-15T14:20:26Z</time><name>PT10761</name></trkpt>
<trkpt lat="51.593844" lon="03.846635"><ele>3.5</ele><time>2022-11-15T14:20:27Z</time><name>PT10762</name></trkpt>
<trkpt lat="51.593846" lon="03.846624"><ele>3.4</ele><time>2022-11-15T14:20:28Z</time><name>PT10763</name></trkpt>
<trkpt lat="51.593849" lon="03.846611"><ele>3.3</ele><time>2022-11-15T14:20:29Z</time><name>PT10764</name></trkpt>
<trkpt lat="51.593851" lon="03.846601"><ele>3.2</ele><time>2022-11-15T14:20:30Z</time><name>PT10765</name></trkpt>
<trkpt lat="51.593851" lon="03.846591"><ele>3</ele><time>2022-11-15T14:20:31Z</time><name>PT10766</name></trkpt>
<trkpt lat="51.593850" lon="03.846580"><ele>2.8</ele><time>2022-11-15T14:20:32Z</time><name>PT10767</name></trkpt>
<trkpt lat="51.593848" lon="03.846568"><ele>2.7</ele><time>2022-11-15T14:20:33Z</time><name>PT10768</name></trkpt>
<trkpt lat="51.593849" lon="03.846557"><ele>2.8</ele><time>2022-11-15T14:20:34Z</time><name>PT10769</name></trkpt>
<trkpt lat="51.593853" lon="03.846547"><ele>3</ele><time>2022-11-15T14:20:35Z</time><name>PT10770</name></trkpt>
<trkpt lat="51.593859" lon="03.846538"><ele>3.2</ele><time>2022-11-15T14:20:36Z</time><name>PT10771</name></trkpt>
<trkpt lat="51.593865" lon="03.846529"><ele>3.6</ele><time>2022-11-15T14:20:37Z</time><name>PT10772</name></trkpt>
<trkpt lat="51.593871" lon="03.846522"><ele>3.8</ele><time>2022-11-15T14:20:38Z</time><name>PT10773</name></trkpt>
<trkpt lat="51.593878" lon="03.846518"><ele>3.6</ele><time>2022-11-15T14:20:39Z</time><name>PT10774</name></trkpt>
<trkpt lat="51.593885" lon="03.846510"><ele>3.8</ele><time>2022-11-15T14:20:40Z</time><name>PT10775</name></trkpt>
<trkpt lat="51.593892" lon="03.846504"><ele>3.8</ele><time>2022-11-15T14:20:41Z</time><name>PT10776</name></trkpt>
<trkpt lat="51.593901" lon="03.846502"><ele>3.6</ele><time>2022-11-15T14:20:42Z</time><name>PT10777</name></trkpt>
<trkpt lat="51.593907" lon="03.846499"><ele>3.8</ele><time>2022-11-15T14:20:43Z</time><name>PT10778</name></trkpt>
<trkpt lat="51.593914" lon="03.846495"><ele>3.6</ele><time>2022-11-15T14:20:44Z</time><name>PT10779</name></trkpt>
<trkpt lat="51.593920" lon="03.846490"><ele>3.6</ele><time>2022-11-15T14:20:45Z</time><name>PT10780</name></trkpt>
<trkpt lat="51.593927" lon="03.846485"><ele>3.6</ele><time>2022-11-15T14:20:46Z</time><name>PT10781</name></trkpt>
<trkpt lat="51.593936" lon="03.846483"><ele>3.9</ele><time>2022-11-15T14:20:47Z</time><name>PT10782</name></trkpt>
<trkpt lat="51.593944" lon="03.846481"><ele>3.8</ele><time>2022-11-15T14:20:48Z</time><name>PT10783</name></trkpt>
<trkpt lat="51.593951" lon="03.846477"><ele>4</ele><time>2022-11-15T14:20:49Z</time><name>PT10784</name></trkpt>
<trkpt lat="51.593958" lon="03.846472"><ele>4</ele><time>2022-11-15T14:20:50Z</time><name>PT10785</name></trkpt>
<trkpt lat="51.593967" lon="03.846469"><ele>4</ele><time>2022-11-15T14:20:51Z</time><name>PT10786</name></trkpt>
<trkpt lat="51.593976" lon="03.846467"><ele>4</ele><time>2022-11-15T14:20:52Z</time><name>PT10787</name></trkpt>
<trkpt lat="51.593984" lon="03.846464"><ele>4.2</ele><time>2022-11-15T14:20:53Z</time><name>PT10788</name></trkpt>
<trkpt lat="51.593993" lon="03.846460"><ele>4.3</ele><time>2022-11-15T14:20:54Z</time><name>PT10789</name></trkpt>
<trkpt lat="51.594000" lon="03.846458"><ele>4.3</ele><time>2022-11-15T14:20:55Z</time><name>PT10790</name></trkpt>
<trkpt lat="51.594008" lon="03.846458"><ele>4.3</ele><time>2022-11-15T14:20:56Z</time><name>PT10791</name></trkpt>
<trkpt lat="51.594016" lon="03.846457"><ele>4.3</ele><time>2022-11-15T14:20:57Z</time><name>PT10792</name></trkpt>
<trkpt lat="51.594025" lon="03.846454"><ele>4.3</ele><time>2022-11-15T14:20:58Z</time><name>PT10793</name></trkpt>
<trkpt lat="51.594033" lon="03.846451"><ele>4.1</ele><time>2022-11-15T14:20:59Z</time><name>PT10794</name></trkpt>
<trkpt lat="51.594041" lon="03.846450"><ele>4</ele><time>2022-11-15T14:21:00Z</time><name>PT10795</name></trkpt>
<trkpt lat="51.594050" lon="03.846449"><ele>3.8</ele><time>2022-11-15T14:21:01Z</time><name>PT10796</name></trkpt>
<trkpt lat="51.594058" lon="03.846446"><ele>3.7</ele><time>2022-11-15T14:21:02Z</time><name>PT10797</name></trkpt>
<trkpt lat="51.594065" lon="03.846440"><ele>3.8</ele><time>2022-11-15T14:21:03Z</time><name>PT10798</name></trkpt>
<trkpt lat="51.594072" lon="03.846439"><ele>3.7</ele><time>2022-11-15T14:21:04Z</time><name>PT10799</name></trkpt>
<trkpt lat="51.594080" lon="03.846439"><ele>3.8</ele><time>2022-11-15T14:21:05Z</time><name>PT10800</name></trkpt>
<trkpt lat="51.594086" lon="03.846436"><ele>3.8</ele><time>2022-11-15T14:21:06Z</time><name>PT10801</name></trkpt>
<trkpt lat="51.594096" lon="03.846431"><ele>3.8</ele><time>2022-11-15T14:21:07Z</time><name>PT10802</name></trkpt>
<trkpt lat="51.594104" lon="03.846429"><ele>3.7</ele><time>2022-11-15T14:21:08Z</time><name>PT10803</name></trkpt>
<trkpt lat="51.594112" lon="03.846427"><ele>3.8</ele><time>2022-11-15T14:21:09Z</time><name>PT10804</name></trkpt>
<trkpt lat="51.594121" lon="03.846425"><ele>3.9</ele><time>2022-11-15T14:21:10Z</time><name>PT10805</name></trkpt>
<trkpt lat="51.594128" lon="03.846422"><ele>4.1</ele><time>2022-11-15T14:21:11Z</time><name>PT10806</name></trkpt>
<trkpt lat="51.594136" lon="03.846418"><ele>3.9</ele><time>2022-11-15T14:21:12Z</time><name>PT10807</name></trkpt>
<trkpt lat="51.594146" lon="03.846414"><ele>4</ele><time>2022-11-15T14:21:14Z</time><name>PT10808</name></trkpt>
<trkpt lat="51.594155" lon="03.846409"><ele>4</ele><time>2022-11-15T14:21:14Z</time><name>PT10809</name></trkpt>
<trkpt lat="51.594163" lon="03.846409"><ele>3.9</ele><time>2022-11-15T14:21:15Z</time><name>PT10810</name></trkpt>
<trkpt lat="51.594172" lon="03.846410"><ele>4</ele><time>2022-11-15T14:21:16Z</time><name>PT10811</name></trkpt>
<trkpt lat="51.594180" lon="03.846411"><ele>4</ele><time>2022-11-15T14:21:17Z</time><name>PT10812</name></trkpt>
<trkpt lat="51.594189" lon="03.846407"><ele>4</ele><time>2022-11-15T14:21:18Z</time><name>PT10813</name></trkpt>
<trkpt lat="51.594198" lon="03.846401"><ele>4</ele><time>2022-11-15T14:21:19Z</time><name>PT10814</name></trkpt>
<trkpt lat="51.594206" lon="03.846397"><ele>4.3</ele><time>2022-11-15T14:21:20Z</time><name>PT10815</name></trkpt>
<trkpt lat="51.594214" lon="03.846395"><ele>4.1</ele><time>2022-11-15T14:21:21Z</time><name>PT10816</name></trkpt>
<trkpt lat="51.594224" lon="03.846396"><ele>4.2</ele><time>2022-11-15T14:21:22Z</time><name>PT10817</name></trkpt>
<trkpt lat="51.594233" lon="03.846395"><ele>4.3</ele><time>2022-11-15T14:21:24Z</time><name>PT10818</name></trkpt>
<trkpt lat="51.594240" lon="03.846392"><ele>4.2</ele><time>2022-11-15T14:21:24Z</time><name>PT10819</name></trkpt>
<trkpt lat="51.594248" lon="03.846390"><ele>4.2</ele><time>2022-11-15T14:21:25Z</time><name>PT10820</name></trkpt>
<trkpt lat="51.594256" lon="03.846389"><ele>4.2</ele><time>2022-11-15T14:21:26Z</time><name>PT10821</name></trkpt>
<trkpt lat="51.594265" lon="03.846388"><ele>4</ele><time>2022-11-15T14:21:27Z</time><name>PT10822</name></trkpt>
<trkpt lat="51.594272" lon="03.846385"><ele>4.1</ele><time>2022-11-15T14:21:28Z</time><name>PT10823</name></trkpt>
<trkpt lat="51.594280" lon="03.846380"><ele>3.9</ele><time>2022-11-15T14:21:29Z</time><name>PT10824</name></trkpt>
<trkpt lat="51.594289" lon="03.846378"><ele>4</ele><time>2022-11-15T14:21:30Z</time><name>PT10825</name></trkpt>
<trkpt lat="51.594297" lon="03.846377"><ele>4</ele><time>2022-11-15T14:21:31Z</time><name>PT10826</name></trkpt>
<trkpt lat="51.594305" lon="03.846378"><ele>4</ele><time>2022-11-15T14:21:32Z</time><name>PT10827</name></trkpt>
<trkpt lat="51.594311" lon="03.846377"><ele>4</ele><time>2022-11-15T14:21:33Z</time><name>PT10828</name></trkpt>
<trkpt lat="51.594319" lon="03.846372"><ele>4.3</ele><time>2022-11-15T14:21:34Z</time><name>PT10829</name></trkpt>
<trkpt lat="51.594327" lon="03.846366"><ele>4.1</ele><time>2022-11-15T14:21:35Z</time><name>PT10830</name></trkpt>
<trkpt lat="51.594334" lon="03.846363"><ele>4.2</ele><time>2022-11-15T14:21:36Z</time><name>PT10831</name></trkpt>
<trkpt lat="51.594343" lon="03.846362"><ele>4.1</ele><time>2022-11-15T14:21:37Z</time><name>PT10832</name></trkpt>
<trkpt lat="51.594353" lon="03.846363"><ele>4</ele><time>2022-11-15T14:21:38Z</time><name>PT10833</name></trkpt>
<trkpt lat="51.594362" lon="03.846360"><ele>4.1</ele><time>2022-11-15T14:21:39Z</time><name>PT10834</name></trkpt>
<trkpt lat="51.594370" lon="03.846357"><ele>4.1</ele><time>2022-11-15T14:21:40Z</time><name>PT10835</name></trkpt>
<trkpt lat="51.594379" lon="03.846355"><ele>4.1</ele><time>2022-11-15T14:21:41Z</time><name>PT10836</name></trkpt>
<trkpt lat="51.594388" lon="03.846354"><ele>4.1</ele><time>2022-11-15T14:21:42Z</time><name>PT10837</name></trkpt>
<trkpt lat="51.594397" lon="03.846354"><ele>4.2</ele><time>2022-11-15T14:21:43Z</time><name>PT10838</name></trkpt>
<trkpt lat="51.594406" lon="03.846350"><ele>4.3</ele><time>2022-11-15T14:21:44Z</time><name>PT10839</name></trkpt>
<trkpt lat="51.594412" lon="03.846347"><ele>4.2</ele><time>2022-11-15T14:21:45Z</time><name>PT10840</name></trkpt>
<trkpt lat="51.594420" lon="03.846346"><ele>4.2</ele><time>2022-11-15T14:21:46Z</time><name>PT10841</name></trkpt>
<trkpt lat="51.594429" lon="03.846346"><ele>4</ele><time>2022-11-15T14:21:47Z</time><name>PT10842</name></trkpt>
<trkpt lat="51.594438" lon="03.846345"><ele>4.1</ele><time>2022-11-15T14:21:48Z</time><name>PT10843</name></trkpt>
<trkpt lat="51.594446" lon="03.846340"><ele>4.3</ele><time>2022-11-15T14:21:49Z</time><name>PT10844</name></trkpt>
<trkpt lat="51.594455" lon="03.846334"><ele>4.4</ele><time>2022-11-15T14:21:50Z</time><name>PT10845</name></trkpt>
<trkpt lat="51.594463" lon="03.846330"><ele>4.6</ele><time>2022-11-15T14:21:51Z</time><name>PT10846</name></trkpt>
<trkpt lat="51.594473" lon="03.846328"><ele>4.6</ele><time>2022-11-15T14:21:52Z</time><name>PT10847</name></trkpt>
<trkpt lat="51.594483" lon="03.846328"><ele>4.5</ele><time>2022-11-15T14:21:53Z</time><name>PT10848</name></trkpt>
<trkpt lat="51.594491" lon="03.846326"><ele>4.3</ele><time>2022-11-15T14:21:54Z</time><name>PT10849</name></trkpt>
<trkpt lat="51.594500" lon="03.846323"><ele>4.4</ele><time>2022-11-15T14:21:55Z</time><name>PT10850</name></trkpt>
<trkpt lat="51.594509" lon="03.846320"><ele>4.2</ele><time>2022-11-15T14:21:56Z</time><name>PT10851</name></trkpt>
<trkpt lat="51.594518" lon="03.846318"><ele>4.2</ele><time>2022-11-15T14:21:57Z</time><name>PT10852</name></trkpt>
<trkpt lat="51.594527" lon="03.846317"><ele>4.1</ele><time>2022-11-15T14:21:58Z</time><name>PT10853</name></trkpt>
<trkpt lat="51.594535" lon="03.846314"><ele>4.3</ele><time>2022-11-15T14:21:59Z</time><name>PT10854</name></trkpt>
<trkpt lat="51.594543" lon="03.846312"><ele>4</ele><time>2022-11-15T14:22:00Z</time><name>PT10855</name></trkpt>
<trkpt lat="51.594553" lon="03.846311"><ele>4.1</ele><time>2022-11-15T14:22:01Z</time><name>PT10856</name></trkpt>
<trkpt lat="51.594562" lon="03.846308"><ele>4.1</ele><time>2022-11-15T14:22:02Z</time><name>PT10857</name></trkpt>
<trkpt lat="51.594572" lon="03.846304"><ele>4.2</ele><time>2022-11-15T14:22:03Z</time><name>PT10858</name></trkpt>
<trkpt lat="51.594582" lon="03.846302"><ele>4.2</ele><time>2022-11-15T14:22:04Z</time><name>PT10859</name></trkpt>
<trkpt lat="51.594592" lon="03.846302"><ele>4.4</ele><time>2022-11-15T14:22:05Z</time><name>PT10860</name></trkpt>
<trkpt lat="51.594601" lon="03.846300"><ele>4.3</ele><time>2022-11-15T14:22:06Z</time><name>PT10861</name></trkpt>
<trkpt lat="51.594612" lon="03.846296"><ele>4.3</ele><time>2022-11-15T14:22:07Z</time><name>PT10862</name></trkpt>
<trkpt lat="51.594619" lon="03.846290"><ele>4.2</ele><time>2022-11-15T14:22:08Z</time><name>PT10863</name></trkpt>
<trkpt lat="51.594629" lon="03.846288"><ele>4.1</ele><time>2022-11-15T14:22:09Z</time><name>PT10864</name></trkpt>
<trkpt lat="51.594640" lon="03.846287"><ele>4.1</ele><time>2022-11-15T14:22:10Z</time><name>PT10865</name></trkpt>
<trkpt lat="51.594648" lon="03.846286"><ele>4</ele><time>2022-11-15T14:22:11Z</time><name>PT10866</name></trkpt>
<trkpt lat="51.594656" lon="03.846282"><ele>4</ele><time>2022-11-15T14:22:12Z</time><name>PT10867</name></trkpt>
<trkpt lat="51.594664" lon="03.846278"><ele>4.1</ele><time>2022-11-15T14:22:13Z</time><name>PT10868</name></trkpt>
<trkpt lat="51.594673" lon="03.846276"><ele>4.3</ele><time>2022-11-15T14:22:14Z</time><name>PT10869</name></trkpt>
<trkpt lat="51.594682" lon="03.846274"><ele>4.4</ele><time>2022-11-15T14:22:15Z</time><name>PT10870</name></trkpt>
<trkpt lat="51.594690" lon="03.846272"><ele>4.4</ele><time>2022-11-15T14:22:16Z</time><name>PT10871</name></trkpt>
<trkpt lat="51.594698" lon="03.846269"><ele>4.6</ele><time>2022-11-15T14:22:17Z</time><name>PT10872</name></trkpt>
<trkpt lat="51.594706" lon="03.846265"><ele>4.6</ele><time>2022-11-15T14:22:18Z</time><name>PT10873</name></trkpt>
<trkpt lat="51.594714" lon="03.846262"><ele>4.6</ele><time>2022-11-15T14:22:19Z</time><name>PT10874</name></trkpt>
<trkpt lat="51.594723" lon="03.846263"><ele>4.7</ele><time>2022-11-15T14:22:20Z</time><name>PT10875</name></trkpt>
<trkpt lat="51.594732" lon="03.846263"><ele>4.6</ele><time>2022-11-15T14:22:21Z</time><name>PT10876</name></trkpt>
<trkpt lat="51.594739" lon="03.846260"><ele>4.5</ele><time>2022-11-15T14:22:22Z</time><name>PT10877</name></trkpt>
<trkpt lat="51.594749" lon="03.846258"><ele>4.2</ele><time>2022-11-15T14:22:23Z</time><name>PT10878</name></trkpt>
<trkpt lat="51.594758" lon="03.846256"><ele>4.1</ele><time>2022-11-15T14:22:24Z</time><name>PT10879</name></trkpt>
<trkpt lat="51.594767" lon="03.846253"><ele>4</ele><time>2022-11-15T14:22:25Z</time><name>PT10880</name></trkpt>
<trkpt lat="51.594776" lon="03.846252"><ele>4</ele><time>2022-11-15T14:22:26Z</time><name>PT10881</name></trkpt>
<trkpt lat="51.594785" lon="03.846250"><ele>4.1</ele><time>2022-11-15T14:22:27Z</time><name>PT10882</name></trkpt>
<trkpt lat="51.594793" lon="03.846249"><ele>4</ele><time>2022-11-15T14:22:28Z</time><name>PT10883</name></trkpt>
<trkpt lat="51.594802" lon="03.846246"><ele>4</ele><time>2022-11-15T14:22:29Z</time><name>PT10884</name></trkpt>
<trkpt lat="51.594812" lon="03.846243"><ele>4</ele><time>2022-11-15T14:22:30Z</time><name>PT10885</name></trkpt>
<trkpt lat="51.594821" lon="03.846240"><ele>4</ele><time>2022-11-15T14:22:31Z</time><name>PT10886</name></trkpt>
<trkpt lat="51.594829" lon="03.846239"><ele>4</ele><time>2022-11-15T14:22:32Z</time><name>PT10887</name></trkpt>
<trkpt lat="51.594839" lon="03.846239"><ele>4</ele><time>2022-11-15T14:22:33Z</time><name>PT10888</name></trkpt>
<trkpt lat="51.594847" lon="03.846236"><ele>4.1</ele><time>2022-11-15T14:22:34Z</time><name>PT10889</name></trkpt>
<trkpt lat="51.594857" lon="03.846233"><ele>4.2</ele><time>2022-11-15T14:22:35Z</time><name>PT10890</name></trkpt>
<trkpt lat="51.594865" lon="03.846230"><ele>4.2</ele><time>2022-11-15T14:22:36Z</time><name>PT10891</name></trkpt>
<trkpt lat="51.594873" lon="03.846228"><ele>4.1</ele><time>2022-11-15T14:22:37Z</time><name>PT10892</name></trkpt>
<trkpt lat="51.594882" lon="03.846226"><ele>4.1</ele><time>2022-11-15T14:22:38Z</time><name>PT10893</name></trkpt>
<trkpt lat="51.594891" lon="03.846223"><ele>4.4</ele><time>2022-11-15T14:22:39Z</time><name>PT10894</name></trkpt>
<trkpt lat="51.594901" lon="03.846220"><ele>4.4</ele><time>2022-11-15T14:22:40Z</time><name>PT10895</name></trkpt>
<trkpt lat="51.594908" lon="03.846217"><ele>4.3</ele><time>2022-11-15T14:22:41Z</time><name>PT10896</name></trkpt>
<trkpt lat="51.594916" lon="03.846215"><ele>4.2</ele><time>2022-11-15T14:22:42Z</time><name>PT10897</name></trkpt>
<trkpt lat="51.594924" lon="03.846214"><ele>4.2</ele><time>2022-11-15T14:22:43Z</time><name>PT10898</name></trkpt>
<trkpt lat="51.594932" lon="03.846216"><ele>4.1</ele><time>2022-11-15T14:22:44Z</time><name>PT10899</name></trkpt>
<trkpt lat="51.594942" lon="03.846216"><ele>4</ele><time>2022-11-15T14:22:45Z</time><name>PT10900</name></trkpt>
<trkpt lat="51.594949" lon="03.846216"><ele>4.2</ele><time>2022-11-15T14:22:46Z</time><name>PT10901</name></trkpt>
<trkpt lat="51.594957" lon="03.846214"><ele>4.1</ele><time>2022-11-15T14:22:47Z</time><name>PT10902</name></trkpt>
<trkpt lat="51.594966" lon="03.846211"><ele>4.1</ele><time>2022-11-15T14:22:48Z</time><name>PT10903</name></trkpt>
<trkpt lat="51.594973" lon="03.846209"><ele>4</ele><time>2022-11-15T14:22:49Z</time><name>PT10904</name></trkpt>
<trkpt lat="51.594982" lon="03.846207"><ele>4</ele><time>2022-11-15T14:22:50Z</time><name>PT10905</name></trkpt>
<trkpt lat="51.594990" lon="03.846205"><ele>4</ele><time>2022-11-15T14:22:51Z</time><name>PT10906</name></trkpt>
<trkpt lat="51.594999" lon="03.846204"><ele>4</ele><time>2022-11-15T14:22:52Z</time><name>PT10907</name></trkpt>
<trkpt lat="51.595007" lon="03.846202"><ele>4.2</ele><time>2022-11-15T14:22:53Z</time><name>PT10908</name></trkpt>
<trkpt lat="51.595015" lon="03.846198"><ele>4.4</ele><time>2022-11-15T14:22:54Z</time><name>PT10909</name></trkpt>
<trkpt lat="51.595023" lon="03.846194"><ele>4.3</ele><time>2022-11-15T14:22:55Z</time><name>PT10910</name></trkpt>
<trkpt lat="51.595032" lon="03.846192"><ele>4.2</ele><time>2022-11-15T14:22:56Z</time><name>PT10911</name></trkpt>
<trkpt lat="51.595040" lon="03.846190"><ele>4.2</ele><time>2022-11-15T14:22:57Z</time><name>PT10912</name></trkpt>
<trkpt lat="51.595049" lon="03.846189"><ele>4</ele><time>2022-11-15T14:22:58Z</time><name>PT10913</name></trkpt>
<trkpt lat="51.595057" lon="03.846189"><ele>3.8</ele><time>2022-11-15T14:22:59Z</time><name>PT10914</name></trkpt>
<trkpt lat="51.595065" lon="03.846188"><ele>3.8</ele><time>2022-11-15T14:23:00Z</time><name>PT10915</name></trkpt>
<trkpt lat="51.595071" lon="03.846186"><ele>3.9</ele><time>2022-11-15T14:23:01Z</time><name>PT10916</name></trkpt>
<trkpt lat="51.595080" lon="03.846185"><ele>3.8</ele><time>2022-11-15T14:23:02Z</time><name>PT10917</name></trkpt>
<trkpt lat="51.595088" lon="03.846182"><ele>4</ele><time>2022-11-15T14:23:03Z</time><name>PT10918</name></trkpt>
<trkpt lat="51.595097" lon="03.846182"><ele>4</ele><time>2022-11-15T14:23:04Z</time><name>PT10919</name></trkpt>
<trkpt lat="51.595105" lon="03.846179"><ele>4</ele><time>2022-11-15T14:23:05Z</time><name>PT10920</name></trkpt>
<trkpt lat="51.595114" lon="03.846175"><ele>3.9</ele><time>2022-11-15T14:23:06Z</time><name>PT10921</name></trkpt>
<trkpt lat="51.595123" lon="03.846172"><ele>3.9</ele><time>2022-11-15T14:23:07Z</time><name>PT10922</name></trkpt>
<trkpt lat="51.595132" lon="03.846169"><ele>3.8</ele><time>2022-11-15T14:23:08Z</time><name>PT10923</name></trkpt>
<trkpt lat="51.595140" lon="03.846169"><ele>3.9</ele><time>2022-11-15T14:23:09Z</time><name>PT10924</name></trkpt>
<trkpt lat="51.595148" lon="03.846170"><ele>4</ele><time>2022-11-15T14:23:10Z</time><name>PT10925</name></trkpt>
<trkpt lat="51.595155" lon="03.846167"><ele>4</ele><time>2022-11-15T14:23:11Z</time><name>PT10926</name></trkpt>
<trkpt lat="51.595164" lon="03.846163"><ele>4.2</ele><time>2022-11-15T14:23:12Z</time><name>PT10927</name></trkpt>
<trkpt lat="51.595172" lon="03.846161"><ele>4.5</ele><time>2022-11-15T14:23:13Z</time><name>PT10928</name></trkpt>
<trkpt lat="51.595180" lon="03.846161"><ele>4.6</ele><time>2022-11-15T14:23:14Z</time><name>PT10929</name></trkpt>
<trkpt lat="51.595188" lon="03.846159"><ele>4.5</ele><time>2022-11-15T14:23:15Z</time><name>PT10930</name></trkpt>
<trkpt lat="51.595195" lon="03.846158"><ele>4.6</ele><time>2022-11-15T14:23:16Z</time><name>PT10931</name></trkpt>
<trkpt lat="51.595203" lon="03.846154"><ele>4.4</ele><time>2022-11-15T14:23:17Z</time><name>PT10932</name></trkpt>
<trkpt lat="51.595210" lon="03.846152"><ele>4.4</ele><time>2022-11-15T14:23:18Z</time><name>PT10933</name></trkpt>
<trkpt lat="51.595218" lon="03.846151"><ele>4.4</ele><time>2022-11-15T14:23:19Z</time><name>PT10934</name></trkpt>
<trkpt lat="51.595225" lon="03.846146"><ele>4.2</ele><time>2022-11-15T14:23:20Z</time><name>PT10935</name></trkpt>
<trkpt lat="51.595233" lon="03.846142"><ele>4.1</ele><time>2022-11-15T14:23:21Z</time><name>PT10936</name></trkpt>
<trkpt lat="51.595242" lon="03.846142"><ele>4</ele><time>2022-11-15T14:23:22Z</time><name>PT10937</name></trkpt>
<trkpt lat="51.595249" lon="03.846141"><ele>4</ele><time>2022-11-15T14:23:23Z</time><name>PT10938</name></trkpt>
<trkpt lat="51.595257" lon="03.846141"><ele>4</ele><time>2022-11-15T14:23:24Z</time><name>PT10939</name></trkpt>
<trkpt lat="51.595264" lon="03.846141"><ele>4.1</ele><time>2022-11-15T14:23:25Z</time><name>PT10940</name></trkpt>
<trkpt lat="51.595272" lon="03.846140"><ele>4.4</ele><time>2022-11-15T14:23:26Z</time><name>PT10941</name></trkpt>
<trkpt lat="51.595279" lon="03.846137"><ele>4.4</ele><time>2022-11-15T14:23:27Z</time><name>PT10942</name></trkpt>
<trkpt lat="51.595286" lon="03.846134"><ele>4.5</ele><time>2022-11-15T14:23:28Z</time><name>PT10943</name></trkpt>
<trkpt lat="51.595295" lon="03.846132"><ele>4.5</ele><time>2022-11-15T14:23:29Z</time><name>PT10944</name></trkpt>
<trkpt lat="51.595305" lon="03.846130"><ele>4.7</ele><time>2022-11-15T14:23:30Z</time><name>PT10945</name></trkpt>
<trkpt lat="51.595312" lon="03.846126"><ele>4.6</ele><time>2022-11-15T14:23:31Z</time><name>PT10946</name></trkpt>
<trkpt lat="51.595319" lon="03.846121"><ele>4.6</ele><time>2022-11-15T14:23:32Z</time><name>PT10947</name></trkpt>
<trkpt lat="51.595327" lon="03.846114"><ele>4.5</ele><time>2022-11-15T14:23:33Z</time><name>PT10948</name></trkpt>
<trkpt lat="51.595334" lon="03.846107"><ele>4.2</ele><time>2022-11-15T14:23:34Z</time><name>PT10949</name></trkpt>
<trkpt lat="51.595341" lon="03.846103"><ele>4</ele><time>2022-11-15T14:23:35Z</time><name>PT10950</name></trkpt>
<trkpt lat="51.595348" lon="03.846098"><ele>3.9</ele><time>2022-11-15T14:23:36Z</time><name>PT10951</name></trkpt>
<trkpt lat="51.595356" lon="03.846091"><ele>3.9</ele><time>2022-11-15T14:23:37Z</time><name>PT10952</name></trkpt>
<trkpt lat="51.595363" lon="03.846082"><ele>4</ele><time>2022-11-15T14:23:38Z</time><name>PT10953</name></trkpt>
<trkpt lat="51.595370" lon="03.846073"><ele>4</ele><time>2022-11-15T14:23:39Z</time><name>PT10954</name></trkpt>
<trkpt lat="51.595378" lon="03.846064"><ele>4</ele><time>2022-11-15T14:23:40Z</time><name>PT10955</name></trkpt>
<trkpt lat="51.595384" lon="03.846055"><ele>4.1</ele><time>2022-11-15T14:23:41Z</time><name>PT10956</name></trkpt>
<trkpt lat="51.595389" lon="03.846045"><ele>4.2</ele><time>2022-11-15T14:23:42Z</time><name>PT10957</name></trkpt>
<trkpt lat="51.595394" lon="03.846033"><ele>4.2</ele><time>2022-11-15T14:23:43Z</time><name>PT10958</name></trkpt>
<trkpt lat="51.595397" lon="03.846025"><ele>4.1</ele><time>2022-11-15T14:23:44Z</time><name>PT10959</name></trkpt>
<trkpt lat="51.595399" lon="03.846021"><ele>4.3</ele><time>2022-11-15T14:23:45Z</time><name>PT10960</name></trkpt>
<trkpt lat="51.595401" lon="03.846021"><ele>4.3</ele><time>2022-11-15T14:23:46Z</time><name>PT10961</name></trkpt>
<trkpt lat="51.595402" lon="03.846018"><ele>4.3</ele><time>2022-11-15T14:23:47Z</time><name>PT10962</name></trkpt>
<trkpt lat="51.595409" lon="03.846014"><ele>4.4</ele><time>2022-11-15T14:23:48Z</time><name>PT10963</name></trkpt>
<trkpt lat="51.595412" lon="03.846009"><ele>4.6</ele><time>2022-11-15T14:23:49Z</time><name>PT10964</name></trkpt>
<trkpt lat="51.595415" lon="03.846004"><ele>4.6</ele><time>2022-11-15T14:23:50Z</time><name>PT10965</name></trkpt>
<trkpt lat="51.595417" lon="03.846002"><ele>4.6</ele><time>2022-11-15T14:23:51Z</time><name>PT10966</name></trkpt>
<trkpt lat="51.595419" lon="03.845998"><ele>4.8</ele><time>2022-11-15T14:23:52Z</time><name>PT10967</name></trkpt>
<trkpt lat="51.595425" lon="03.845987"><ele>4.7</ele><time>2022-11-15T14:23:53Z</time><name>PT10968</name></trkpt>
<trkpt lat="51.595430" lon="03.845973"><ele>4.4</ele><time>2022-11-15T14:23:54Z</time><name>PT10969</name></trkpt>
<trkpt lat="51.595434" lon="03.845960"><ele>4.3</ele><time>2022-11-15T14:23:55Z</time><name>PT10970</name></trkpt>
<trkpt lat="51.595438" lon="03.845950"><ele>4.1</ele><time>2022-11-15T14:23:56Z</time><name>PT10971</name></trkpt>
<trkpt lat="51.595442" lon="03.845941"><ele>4.1</ele><time>2022-11-15T14:23:57Z</time><name>PT10972</name></trkpt>
<trkpt lat="51.595447" lon="03.845932"><ele>4.2</ele><time>2022-11-15T14:23:58Z</time><name>PT10973</name></trkpt>
<trkpt lat="51.595452" lon="03.845922"><ele>4.3</ele><time>2022-11-15T14:23:59Z</time><name>PT10974</name></trkpt>
<trkpt lat="51.595456" lon="03.845910"><ele>4.3</ele><time>2022-11-15T14:24:00Z</time><name>PT10975</name></trkpt>
<trkpt lat="51.595461" lon="03.845897"><ele>4.6</ele><time>2022-11-15T14:24:01Z</time><name>PT10976</name></trkpt>
<trkpt lat="51.595466" lon="03.845886"><ele>4.5</ele><time>2022-11-15T14:24:02Z</time><name>PT10977</name></trkpt>
<trkpt lat="51.595473" lon="03.845876"><ele>4.4</ele><time>2022-11-15T14:24:03Z</time><name>PT10978</name></trkpt>
<trkpt lat="51.595479" lon="03.845866"><ele>4.5</ele><time>2022-11-15T14:24:04Z</time><name>PT10979</name></trkpt>
<trkpt lat="51.595485" lon="03.845856"><ele>4.6</ele><time>2022-11-15T14:24:05Z</time><name>PT10980</name></trkpt>
<trkpt lat="51.595489" lon="03.845846"><ele>4.5</ele><time>2022-11-15T14:24:06Z</time><name>PT10981</name></trkpt>
<trkpt lat="51.595494" lon="03.845837"><ele>5</ele><time>2022-11-15T14:24:07Z</time><name>PT10982</name></trkpt>
<trkpt lat="51.595499" lon="03.845827"><ele>5.2</ele><time>2022-11-15T14:24:08Z</time><name>PT10983</name></trkpt>
<trkpt lat="51.595503" lon="03.845817"><ele>5.5</ele><time>2022-11-15T14:24:09Z</time><name>PT10984</name></trkpt>
<trkpt lat="51.595509" lon="03.845806"><ele>5.4</ele><time>2022-11-15T14:24:10Z</time><name>PT10985</name></trkpt>
<trkpt lat="51.595514" lon="03.845795"><ele>5.1</ele><time>2022-11-15T14:24:11Z</time><name>PT10986</name></trkpt>
<trkpt lat="51.595521" lon="03.845786"><ele>4.9</ele><time>2022-11-15T14:24:12Z</time><name>PT10987</name></trkpt>
<trkpt lat="51.595525" lon="03.845777"><ele>4.8</ele><time>2022-11-15T14:24:13Z</time><name>PT10988</name></trkpt>
<trkpt lat="51.595527" lon="03.845769"><ele>4.5</ele><time>2022-11-15T14:24:14Z</time><name>PT10989</name></trkpt>
<trkpt lat="51.595532" lon="03.845760"><ele>4.5</ele><time>2022-11-15T14:24:15Z</time><name>PT10990</name></trkpt>
<trkpt lat="51.595537" lon="03.845751"><ele>4.6</ele><time>2022-11-15T14:24:16Z</time><name>PT10991</name></trkpt>
<trkpt lat="51.595544" lon="03.845745"><ele>4.6</ele><time>2022-11-15T14:24:17Z</time><name>PT10992</name></trkpt>
<trkpt lat="51.595551" lon="03.845740"><ele>4.6</ele><time>2022-11-15T14:24:18Z</time><name>PT10993</name></trkpt>
<trkpt lat="51.595557" lon="03.845732"><ele>4.6</ele><time>2022-11-15T14:24:19Z</time><name>PT10994</name></trkpt>
<trkpt lat="51.595563" lon="03.845726"><ele>4.6</ele><time>2022-11-15T14:24:20Z</time><name>PT10995</name></trkpt>
<trkpt lat="51.595569" lon="03.845718"><ele>4.5</ele><time>2022-11-15T14:24:21Z</time><name>PT10996</name></trkpt>
<trkpt lat="51.595574" lon="03.845709"><ele>4.6</ele><time>2022-11-15T14:24:22Z</time><name>PT10997</name></trkpt>
<trkpt lat="51.595577" lon="03.845699"><ele>4.7</ele><time>2022-11-15T14:24:23Z</time><name>PT10998</name></trkpt>
<trkpt lat="51.595578" lon="03.845689"><ele>4.6</ele><time>2022-11-15T14:24:24Z</time><name>PT10999</name></trkpt>
<trkpt lat="51.595581" lon="03.845680"><ele>4.6</ele><time>2022-11-15T14:24:25Z</time><name>PT11000</name></trkpt>
<trkpt lat="51.595588" lon="03.845672"><ele>4.6</ele><time>2022-11-15T14:24:26Z</time><name>PT11001</name></trkpt>
<trkpt lat="51.595593" lon="03.845665"><ele>4.6</ele><time>2022-11-15T14:24:28Z</time><name>PT11002</name></trkpt>
<trkpt lat="51.595597" lon="03.845655"><ele>4.5</ele><time>2022-11-15T14:24:28Z</time><name>PT11003</name></trkpt>
<trkpt lat="51.595599" lon="03.845642"><ele>4.6</ele><time>2022-11-15T14:24:29Z</time><name>PT11004</name></trkpt>
<trkpt lat="51.595603" lon="03.845633"><ele>4.5</ele><time>2022-11-15T14:24:30Z</time><name>PT11005</name></trkpt>
<trkpt lat="51.595609" lon="03.845622"><ele>4.5</ele><time>2022-11-15T14:24:31Z</time><name>PT11006</name></trkpt>
<trkpt lat="51.595615" lon="03.845612"><ele>4.5</ele><time>2022-11-15T14:24:32Z</time><name>PT11007</name></trkpt>
<trkpt lat="51.595620" lon="03.845604"><ele>4.6</ele><time>2022-11-15T14:24:33Z</time><name>PT11008</name></trkpt>
<trkpt lat="51.595626" lon="03.845594"><ele>4.8</ele><time>2022-11-15T14:24:34Z</time><name>PT11009</name></trkpt>
<trkpt lat="51.595631" lon="03.845583"><ele>5</ele><time>2022-11-15T14:24:35Z</time><name>PT11010</name></trkpt>
<trkpt lat="51.595637" lon="03.845573"><ele>5</ele><time>2022-11-15T14:24:36Z</time><name>PT11011</name></trkpt>
<trkpt lat="51.595643" lon="03.845561"><ele>5.1</ele><time>2022-11-15T14:24:37Z</time><name>PT11012</name></trkpt>
<trkpt lat="51.595648" lon="03.845550"><ele>5.1</ele><time>2022-11-15T14:24:38Z</time><name>PT11013</name></trkpt>
<trkpt lat="51.595652" lon="03.845536"><ele>5</ele><time>2022-11-15T14:24:39Z</time><name>PT11014</name></trkpt>
<trkpt lat="51.595656" lon="03.845524"><ele>5</ele><time>2022-11-15T14:24:40Z</time><name>PT11015</name></trkpt>
<trkpt lat="51.595662" lon="03.845514"><ele>4.7</ele><time>2022-11-15T14:24:41Z</time><name>PT11016</name></trkpt>
<trkpt lat="51.595666" lon="03.845503"><ele>4.7</ele><time>2022-11-15T14:24:42Z</time><name>PT11017</name></trkpt>
<trkpt lat="51.595671" lon="03.845492"><ele>4.4</ele><time>2022-11-15T14:24:43Z</time><name>PT11018</name></trkpt>
<trkpt lat="51.595676" lon="03.845482"><ele>4.1</ele><time>2022-11-15T14:24:44Z</time><name>PT11019</name></trkpt>
<trkpt lat="51.595680" lon="03.845472"><ele>4.2</ele><time>2022-11-15T14:24:45Z</time><name>PT11020</name></trkpt>
<trkpt lat="51.595686" lon="03.845463"><ele>4.3</ele><time>2022-11-15T14:24:46Z</time><name>PT11021</name></trkpt>
<trkpt lat="51.595693" lon="03.845452"><ele>4.4</ele><time>2022-11-15T14:24:47Z</time><name>PT11022</name></trkpt>
<trkpt lat="51.595698" lon="03.845443"><ele>4.5</ele><time>2022-11-15T14:24:48Z</time><name>PT11023</name></trkpt>
<trkpt lat="51.595704" lon="03.845432"><ele>4.5</ele><time>2022-11-15T14:24:49Z</time><name>PT11024</name></trkpt>
<trkpt lat="51.595707" lon="03.845422"><ele>4.4</ele><time>2022-11-15T14:24:50Z</time><name>PT11025</name></trkpt>
<trkpt lat="51.595712" lon="03.845413"><ele>4.3</ele><time>2022-11-15T14:24:51Z</time><name>PT11026</name></trkpt>
<trkpt lat="51.595716" lon="03.845405"><ele>4.1</ele><time>2022-11-15T14:24:52Z</time><name>PT11027</name></trkpt>
<trkpt lat="51.595718" lon="03.845398"><ele>4.3</ele><time>2022-11-15T14:24:53Z</time><name>PT11028</name></trkpt>
<trkpt lat="51.595722" lon="03.845390"><ele>4.5</ele><time>2022-11-15T14:24:54Z</time><name>PT11029</name></trkpt>
<trkpt lat="51.595727" lon="03.845381"><ele>4.5</ele><time>2022-11-15T14:24:55Z</time><name>PT11030</name></trkpt>
<trkpt lat="51.595730" lon="03.845370"><ele>4.6</ele><time>2022-11-15T14:24:56Z</time><name>PT11031</name></trkpt>
<trkpt lat="51.595734" lon="03.845360"><ele>4.6</ele><time>2022-11-15T14:24:57Z</time><name>PT11032</name></trkpt>
<trkpt lat="51.595738" lon="03.845349"><ele>4.5</ele><time>2022-11-15T14:24:58Z</time><name>PT11033</name></trkpt>
<trkpt lat="51.595741" lon="03.845339"><ele>4.4</ele><time>2022-11-15T14:24:59Z</time><name>PT11034</name></trkpt>
<trkpt lat="51.595742" lon="03.845326"><ele>4.2</ele><time>2022-11-15T14:25:00Z</time><name>PT11035</name></trkpt>
<trkpt lat="51.595745" lon="03.845315"><ele>4.2</ele><time>2022-11-15T14:25:01Z</time><name>PT11036</name></trkpt>
<trkpt lat="51.595749" lon="03.845307"><ele>4.3</ele><time>2022-11-15T14:25:02Z</time><name>PT11037</name></trkpt>
<trkpt lat="51.595751" lon="03.845299"><ele>4.2</ele><time>2022-11-15T14:25:03Z</time><name>PT11038</name></trkpt>
<trkpt lat="51.595754" lon="03.845289"><ele>4.2</ele><time>2022-11-15T14:25:04Z</time><name>PT11039</name></trkpt>
<trkpt lat="51.595758" lon="03.845282"><ele>4.2</ele><time>2022-11-15T14:25:05Z</time><name>PT11040</name></trkpt>
<trkpt lat="51.595764" lon="03.845280"><ele>4.1</ele><time>2022-11-15T14:25:06Z</time><name>PT11041</name></trkpt>
<trkpt lat="51.595773" lon="03.845273"><ele>4.2</ele><time>2022-11-15T14:25:07Z</time><name>PT11042</name></trkpt>
<trkpt lat="51.595778" lon="03.845265"><ele>4.2</ele><time>2022-11-15T14:25:08Z</time><name>PT11043</name></trkpt>
<trkpt lat="51.595779" lon="03.845258"><ele>4.3</ele><time>2022-11-15T14:25:09Z</time><name>PT11044</name></trkpt>
<trkpt lat="51.595782" lon="03.845254"><ele>4.5</ele><time>2022-11-15T14:25:10Z</time><name>PT11045</name></trkpt>
<trkpt lat="51.595788" lon="03.845248"><ele>4.7</ele><time>2022-11-15T14:25:11Z</time><name>PT11046</name></trkpt>
<trkpt lat="51.595793" lon="03.845248"><ele>5</ele><time>2022-11-15T14:25:12Z</time><name>PT11047</name></trkpt>
<trkpt lat="51.595799" lon="03.845251"><ele>5.4</ele><time>2022-11-15T14:25:13Z</time><name>PT11048</name></trkpt>
<trkpt lat="51.595803" lon="03.845250"><ele>5.6</ele><time>2022-11-15T14:25:14Z</time><name>PT11049</name></trkpt>
<trkpt lat="51.595806" lon="03.845252"><ele>5.6</ele><time>2022-11-15T14:25:15Z</time><name>PT11050</name></trkpt>
<trkpt lat="51.595810" lon="03.845255"><ele>5.6</ele><time>2022-11-15T14:25:16Z</time><name>PT11051</name></trkpt>
<trkpt lat="51.595813" lon="03.845259"><ele>5.5</ele><time>2022-11-15T14:25:17Z</time><name>PT11052</name></trkpt>
<trkpt lat="51.595818" lon="03.845264"><ele>5.3</ele><time>2022-11-15T14:25:18Z</time><name>PT11053</name></trkpt>
<trkpt lat="51.595823" lon="03.845270"><ele>5.1</ele><time>2022-11-15T14:25:19Z</time><name>PT11054</name></trkpt>
<trkpt lat="51.595829" lon="03.845275"><ele>5.1</ele><time>2022-11-15T14:25:20Z</time><name>PT11055</name></trkpt>
<trkpt lat="51.595834" lon="03.845281"><ele>5</ele><time>2022-11-15T14:25:21Z</time><name>PT11056</name></trkpt>
<trkpt lat="51.595842" lon="03.845285"><ele>4.9</ele><time>2022-11-15T14:25:22Z</time><name>PT11057</name></trkpt>
<trkpt lat="51.595848" lon="03.845287"><ele>4.8</ele><time>2022-11-15T14:25:23Z</time><name>PT11058</name></trkpt>
<trkpt lat="51.595853" lon="03.845290"><ele>4.9</ele><time>2022-11-15T14:25:24Z</time><name>PT11059</name></trkpt>
<trkpt lat="51.595860" lon="03.845295"><ele>4.8</ele><time>2022-11-15T14:25:25Z</time><name>PT11060</name></trkpt>
<trkpt lat="51.595866" lon="03.845302"><ele>4.8</ele><time>2022-11-15T14:25:26Z</time><name>PT11061</name></trkpt>
<trkpt lat="51.595872" lon="03.845313"><ele>5.1</ele><time>2022-11-15T14:25:27Z</time><name>PT11062</name></trkpt>
<trkpt lat="51.595876" lon="03.845322"><ele>5</ele><time>2022-11-15T14:25:28Z</time><name>PT11063</name></trkpt>
<trkpt lat="51.595883" lon="03.845330"><ele>4.9</ele><time>2022-11-15T14:25:29Z</time><name>PT11064</name></trkpt>
<trkpt lat="51.595890" lon="03.845339"><ele>4.8</ele><time>2022-11-15T14:25:30Z</time><name>PT11065</name></trkpt>
<trkpt lat="51.595896" lon="03.845347"><ele>4.9</ele><time>2022-11-15T14:25:31Z</time><name>PT11066</name></trkpt>
<trkpt lat="51.595903" lon="03.845354"><ele>4.6</ele><time>2022-11-15T14:25:32Z</time><name>PT11067</name></trkpt>
<trkpt lat="51.595910" lon="03.845363"><ele>5</ele><time>2022-11-15T14:25:33Z</time><name>PT11068</name></trkpt>
<trkpt lat="51.595916" lon="03.845373"><ele>5.1</ele><time>2022-11-15T14:25:34Z</time><name>PT11069</name></trkpt>
<trkpt lat="51.595922" lon="03.845386"><ele>5.1</ele><time>2022-11-15T14:25:35Z</time><name>PT11070</name></trkpt>
<trkpt lat="51.595928" lon="03.845396"><ele>5.1</ele><time>2022-11-15T14:25:36Z</time><name>PT11071</name></trkpt>
<trkpt lat="51.595933" lon="03.845404"><ele>5.1</ele><time>2022-11-15T14:25:37Z</time><name>PT11072</name></trkpt>
<trkpt lat="51.595938" lon="03.845412"><ele>5</ele><time>2022-11-15T14:25:38Z</time><name>PT11073</name></trkpt>
<trkpt lat="51.595945" lon="03.845418"><ele>5</ele><time>2022-11-15T14:25:39Z</time><name>PT11074</name></trkpt>
<trkpt lat="51.595952" lon="03.845424"><ele>4.8</ele><time>2022-11-15T14:25:40Z</time><name>PT11075</name></trkpt>
<trkpt lat="51.595958" lon="03.845429"><ele>4.7</ele><time>2022-11-15T14:25:41Z</time><name>PT11076</name></trkpt>
<trkpt lat="51.595964" lon="03.845438"><ele>4.6</ele><time>2022-11-15T14:25:42Z</time><name>PT11077</name></trkpt>
<trkpt lat="51.595968" lon="03.845448"><ele>4.5</ele><time>2022-11-15T14:25:43Z</time><name>PT11078</name></trkpt>
<trkpt lat="51.595973" lon="03.845454"><ele>4.5</ele><time>2022-11-15T14:25:44Z</time><name>PT11079</name></trkpt>
<trkpt lat="51.595980" lon="03.845461"><ele>4.5</ele><time>2022-11-15T14:25:45Z</time><name>PT11080</name></trkpt>
<trkpt lat="51.595986" lon="03.845469"><ele>4.5</ele><time>2022-11-15T14:25:46Z</time><name>PT11081</name></trkpt>
<trkpt lat="51.595993" lon="03.845479"><ele>4.7</ele><time>2022-11-15T14:25:47Z</time><name>PT11082</name></trkpt>
<trkpt lat="51.596000" lon="03.845487"><ele>4.8</ele><time>2022-11-15T14:25:48Z</time><name>PT11083</name></trkpt>
<trkpt lat="51.596007" lon="03.845494"><ele>4.7</ele><time>2022-11-15T14:25:49Z</time><name>PT11084</name></trkpt>
<trkpt lat="51.596015" lon="03.845501"><ele>5.1</ele><time>2022-11-15T14:25:50Z</time><name>PT11085</name></trkpt>
<trkpt lat="51.596022" lon="03.845506"><ele>5.1</ele><time>2022-11-15T14:25:51Z</time><name>PT11086</name></trkpt>
<trkpt lat="51.596027" lon="03.845516"><ele>4.9</ele><time>2022-11-15T14:25:52Z</time><name>PT11087</name></trkpt>
<trkpt lat="51.596032" lon="03.845526"><ele>4.8</ele><time>2022-11-15T14:25:53Z</time><name>PT11088</name></trkpt>
<trkpt lat="51.596039" lon="03.845535"><ele>4.6</ele><time>2022-11-15T14:25:54Z</time><name>PT11089</name></trkpt>
<trkpt lat="51.596045" lon="03.845545"><ele>4.6</ele><time>2022-11-15T14:25:55Z</time><name>PT11090</name></trkpt>
<trkpt lat="51.596052" lon="03.845554"><ele>4.6</ele><time>2022-11-15T14:25:56Z</time><name>PT11091</name></trkpt>
<trkpt lat="51.596060" lon="03.845563"><ele>4.6</ele><time>2022-11-15T14:25:57Z</time><name>PT11092</name></trkpt>
<trkpt lat="51.596066" lon="03.845570"><ele>4.6</ele><time>2022-11-15T14:25:58Z</time><name>PT11093</name></trkpt>
<trkpt lat="51.596072" lon="03.845576"><ele>4.6</ele><time>2022-11-15T14:25:59Z</time><name>PT11094</name></trkpt>
<trkpt lat="51.596077" lon="03.845583"><ele>4.6</ele><time>2022-11-15T14:26:00Z</time><name>PT11095</name></trkpt>
<trkpt lat="51.596084" lon="03.845589"><ele>4.5</ele><time>2022-11-15T14:26:01Z</time><name>PT11096</name></trkpt>
<trkpt lat="51.596092" lon="03.845597"><ele>4.6</ele><time>2022-11-15T14:26:02Z</time><name>PT11097</name></trkpt>
<trkpt lat="51.596098" lon="03.845602"><ele>4.4</ele><time>2022-11-15T14:26:03Z</time><name>PT11098</name></trkpt>
<trkpt lat="51.596105" lon="03.845604"><ele>4.4</ele><time>2022-11-15T14:26:04Z</time><name>PT11099</name></trkpt>
<trkpt lat="51.596111" lon="03.845604"><ele>4.6</ele><time>2022-11-15T14:26:05Z</time><name>PT11100</name></trkpt>
<trkpt lat="51.596119" lon="03.845604"><ele>4.4</ele><time>2022-11-15T14:26:06Z</time><name>PT11101</name></trkpt>
<trkpt lat="51.596127" lon="03.845604"><ele>4.4</ele><time>2022-11-15T14:26:07Z</time><name>PT11102</name></trkpt>
<trkpt lat="51.596133" lon="03.845602"><ele>4.6</ele><time>2022-11-15T14:26:08Z</time><name>PT11103</name></trkpt>
<trkpt lat="51.596139" lon="03.845595"><ele>4.6</ele><time>2022-11-15T14:26:09Z</time><name>PT11104</name></trkpt>
<trkpt lat="51.596145" lon="03.845588"><ele>4.5</ele><time>2022-11-15T14:26:10Z</time><name>PT11105</name></trkpt>
<trkpt lat="51.596152" lon="03.845584"><ele>4.3</ele><time>2022-11-15T14:26:11Z</time><name>PT11106</name></trkpt>
<trkpt lat="51.596157" lon="03.845578"><ele>4.1</ele><time>2022-11-15T14:26:12Z</time><name>PT11107</name></trkpt>
<trkpt lat="51.596161" lon="03.845571"><ele>4.1</ele><time>2022-11-15T14:26:13Z</time><name>PT11108</name></trkpt>
<trkpt lat="51.596166" lon="03.845564"><ele>4.3</ele><time>2022-11-15T14:26:14Z</time><name>PT11109</name></trkpt>
<trkpt lat="51.596172" lon="03.845557"><ele>4.3</ele><time>2022-11-15T14:26:15Z</time><name>PT11110</name></trkpt>
<trkpt lat="51.596176" lon="03.845551"><ele>4.6</ele><time>2022-11-15T14:26:16Z</time><name>PT11111</name></trkpt>
<trkpt lat="51.596181" lon="03.845543"><ele>4.8</ele><time>2022-11-15T14:26:17Z</time><name>PT11112</name></trkpt>
<trkpt lat="51.596187" lon="03.845536"><ele>4.7</ele><time>2022-11-15T14:26:18Z</time><name>PT11113</name></trkpt>
<trkpt lat="51.596193" lon="03.845528"><ele>4.8</ele><time>2022-11-15T14:26:19Z</time><name>PT11114</name></trkpt>
<trkpt lat="51.596199" lon="03.845521"><ele>5</ele><time>2022-11-15T14:26:20Z</time><name>PT11115</name></trkpt>
<trkpt lat="51.596205" lon="03.845514"><ele>4.6</ele><time>2022-11-15T14:26:21Z</time><name>PT11116</name></trkpt>
<trkpt lat="51.596212" lon="03.845508"><ele>4.7</ele><time>2022-11-15T14:26:22Z</time><name>PT11117</name></trkpt>
<trkpt lat="51.596220" lon="03.845503"><ele>4.6</ele><time>2022-11-15T14:26:23Z</time><name>PT11118</name></trkpt>
<trkpt lat="51.596226" lon="03.845495"><ele>4.5</ele><time>2022-11-15T14:26:24Z</time><name>PT11119</name></trkpt>
<trkpt lat="51.596232" lon="03.845485"><ele>4.4</ele><time>2022-11-15T14:26:25Z</time><name>PT11120</name></trkpt>
<trkpt lat="51.596239" lon="03.845476"><ele>4.5</ele><time>2022-11-15T14:26:26Z</time><name>PT11121</name></trkpt>
<trkpt lat="51.596247" lon="03.845467"><ele>4.5</ele><time>2022-11-15T14:26:27Z</time><name>PT11122</name></trkpt>
<trkpt lat="51.596254" lon="03.845459"><ele>4.6</ele><time>2022-11-15T14:26:28Z</time><name>PT11123</name></trkpt>
<trkpt lat="51.596260" lon="03.845450"><ele>4.7</ele><time>2022-11-15T14:26:29Z</time><name>PT11124</name></trkpt>
<trkpt lat="51.596265" lon="03.845440"><ele>4.8</ele><time>2022-11-15T14:26:30Z</time><name>PT11125</name></trkpt>
<trkpt lat="51.596270" lon="03.845432"><ele>4.7</ele><time>2022-11-15T14:26:31Z</time><name>PT11126</name></trkpt>
<trkpt lat="51.596277" lon="03.845426"><ele>4.6</ele><time>2022-11-15T14:26:32Z</time><name>PT11127</name></trkpt>
<trkpt lat="51.596283" lon="03.845419"><ele>4.6</ele><time>2022-11-15T14:26:33Z</time><name>PT11128</name></trkpt>
<trkpt lat="51.596289" lon="03.845410"><ele>4.6</ele><time>2022-11-15T14:26:34Z</time><name>PT11129</name></trkpt>
<trkpt lat="51.596295" lon="03.845401"><ele>4.5</ele><time>2022-11-15T14:26:35Z</time><name>PT11130</name></trkpt>
<trkpt lat="51.596301" lon="03.845394"><ele>4.5</ele><time>2022-11-15T14:26:36Z</time><name>PT11131</name></trkpt>
<trkpt lat="51.596309" lon="03.845387"><ele>4.3</ele><time>2022-11-15T14:26:37Z</time><name>PT11132</name></trkpt>
<trkpt lat="51.596317" lon="03.845380"><ele>4.1</ele><time>2022-11-15T14:26:38Z</time><name>PT11133</name></trkpt>
<trkpt lat="51.596324" lon="03.845372"><ele>4</ele><time>2022-11-15T14:26:39Z</time><name>PT11134</name></trkpt>
<trkpt lat="51.596330" lon="03.845367"><ele>4</ele><time>2022-11-15T14:26:40Z</time><name>PT11135</name></trkpt>
<trkpt lat="51.596336" lon="03.845360"><ele>4.2</ele><time>2022-11-15T14:26:41Z</time><name>PT11136</name></trkpt>
<trkpt lat="51.596342" lon="03.845351"><ele>4.3</ele><time>2022-11-15T14:26:42Z</time><name>PT11137</name></trkpt>
<trkpt lat="51.596348" lon="03.845344"><ele>4.3</ele><time>2022-11-15T14:26:43Z</time><name>PT11138</name></trkpt>
<trkpt lat="51.596353" lon="03.845337"><ele>4.3</ele><time>2022-11-15T14:26:44Z</time><name>PT11139</name></trkpt>
<trkpt lat="51.596359" lon="03.845331"><ele>4.1</ele><time>2022-11-15T14:26:45Z</time><name>PT11140</name></trkpt>
<trkpt lat="51.596365" lon="03.845327"><ele>4</ele><time>2022-11-15T14:26:46Z</time><name>PT11141</name></trkpt>
<trkpt lat="51.596371" lon="03.845321"><ele>4</ele><time>2022-11-15T14:26:47Z</time><name>PT11142</name></trkpt>
<trkpt lat="51.596376" lon="03.845312"><ele>3.9</ele><time>2022-11-15T14:26:48Z</time><name>PT11143</name></trkpt>
<trkpt lat="51.596382" lon="03.845303"><ele>3.9</ele><time>2022-11-15T14:26:49Z</time><name>PT11144</name></trkpt>
<trkpt lat="51.596387" lon="03.845296"><ele>3.8</ele><time>2022-11-15T14:26:50Z</time><name>PT11145</name></trkpt>
<trkpt lat="51.596391" lon="03.845291"><ele>3.7</ele><time>2022-11-15T14:26:51Z</time><name>PT11146</name></trkpt>
<trkpt lat="51.596396" lon="03.845286"><ele>3.5</ele><time>2022-11-15T14:26:52Z</time><name>PT11147</name></trkpt>
<trkpt lat="51.596401" lon="03.845280"><ele>3.7</ele><time>2022-11-15T14:26:53Z</time><name>PT11148</name></trkpt>
<trkpt lat="51.596405" lon="03.845274"><ele>3.8</ele><time>2022-11-15T14:26:54Z</time><name>PT11149</name></trkpt>
<trkpt lat="51.596410" lon="03.845267"><ele>4</ele><time>2022-11-15T14:26:56Z</time><name>PT11150</name></trkpt>
<trkpt lat="51.596415" lon="03.845260"><ele>4.1</ele><time>2022-11-15T14:26:56Z</time><name>PT11151</name></trkpt>
<trkpt lat="51.596417" lon="03.845257"><ele>4.2</ele><time>2022-11-15T14:26:57Z</time><name>PT11152</name></trkpt>
<trkpt lat="51.596418" lon="03.845256"><ele>4.2</ele><time>2022-11-15T14:26:58Z</time><name>PT11153</name></trkpt>
<trkpt lat="51.596418" lon="03.845257"><ele>4.4</ele><time>2022-11-15T14:26:59Z</time><name>PT11154</name></trkpt>
<trkpt lat="51.596419" lon="03.845255"><ele>4.6</ele><time>2022-11-15T14:27:04Z</time><name>PT11155</name></trkpt>
<trkpt lat="51.596427" lon="03.845247"><ele>4.8</ele><time>2022-11-15T14:27:05Z</time><name>PT11156</name></trkpt>
<trkpt lat="51.596433" lon="03.845239"><ele>4.8</ele><time>2022-11-15T14:27:06Z</time><name>PT11157</name></trkpt>
<trkpt lat="51.596435" lon="03.845237"><ele>4.8</ele><time>2022-11-15T14:27:07Z</time><name>PT11158</name></trkpt>
<trkpt lat="51.596437" lon="03.845232"><ele>4.6</ele><time>2022-11-15T14:27:08Z</time><name>PT11159</name></trkpt>
<trkpt lat="51.596443" lon="03.845222"><ele>4.6</ele><time>2022-11-15T14:27:09Z</time><name>PT11160</name></trkpt>
<trkpt lat="51.596449" lon="03.845213"><ele>4.5</ele><time>2022-11-15T14:27:10Z</time><name>PT11161</name></trkpt>
<trkpt lat="51.596456" lon="03.845207"><ele>4.3</ele><time>2022-11-15T14:27:11Z</time><name>PT11162</name></trkpt>
<trkpt lat="51.596464" lon="03.845203"><ele>4.3</ele><time>2022-11-15T14:27:12Z</time><name>PT11163</name></trkpt>
<trkpt lat="51.596473" lon="03.845198"><ele>4.3</ele><time>2022-11-15T14:27:13Z</time><name>PT11164</name></trkpt>
<trkpt lat="51.596481" lon="03.845188"><ele>4.3</ele><time>2022-11-15T14:27:14Z</time><name>PT11165</name></trkpt>
<trkpt lat="51.596489" lon="03.845178"><ele>4.3</ele><time>2022-11-15T14:27:15Z</time><name>PT11166</name></trkpt>
<trkpt lat="51.596497" lon="03.845167"><ele>4.3</ele><time>2022-11-15T14:27:16Z</time><name>PT11167</name></trkpt>
<trkpt lat="51.596504" lon="03.845158"><ele>4.4</ele><time>2022-11-15T14:27:17Z</time><name>PT11168</name></trkpt>
<trkpt lat="51.596511" lon="03.845149"><ele>4.4</ele><time>2022-11-15T14:27:18Z</time><name>PT11169</name></trkpt>
<trkpt lat="51.596519" lon="03.845138"><ele>4.4</ele><time>2022-11-15T14:27:19Z</time><name>PT11170</name></trkpt>
<trkpt lat="51.596529" lon="03.845130"><ele>4.2</ele><time>2022-11-15T14:27:20Z</time><name>PT11171</name></trkpt>
<trkpt lat="51.596536" lon="03.845123"><ele>4.2</ele><time>2022-11-15T14:27:21Z</time><name>PT11172</name></trkpt>
<trkpt lat="51.596543" lon="03.845117"><ele>4.1</ele><time>2022-11-15T14:27:22Z</time><name>PT11173</name></trkpt>
<trkpt lat="51.596549" lon="03.845109"><ele>4.1</ele><time>2022-11-15T14:27:23Z</time><name>PT11174</name></trkpt>
<trkpt lat="51.596557" lon="03.845101"><ele>4.1</ele><time>2022-11-15T14:27:24Z</time><name>PT11175</name></trkpt>
<trkpt lat="51.596566" lon="03.845094"><ele>4</ele><time>2022-11-15T14:27:25Z</time><name>PT11176</name></trkpt>
<trkpt lat="51.596575" lon="03.845090"><ele>4</ele><time>2022-11-15T14:27:26Z</time><name>PT11177</name></trkpt>
<trkpt lat="51.596582" lon="03.845083"><ele>3.9</ele><time>2022-11-15T14:27:27Z</time><name>PT11178</name></trkpt>
<trkpt lat="51.596589" lon="03.845076"><ele>3.9</ele><time>2022-11-15T14:27:28Z</time><name>PT11179</name></trkpt>
<trkpt lat="51.596595" lon="03.845069"><ele>4</ele><time>2022-11-15T14:27:29Z</time><name>PT11180</name></trkpt>
<trkpt lat="51.596602" lon="03.845062"><ele>4</ele><time>2022-11-15T14:27:30Z</time><name>PT11181</name></trkpt>
<trkpt lat="51.596609" lon="03.845054"><ele>4.1</ele><time>2022-11-15T14:27:31Z</time><name>PT11182</name></trkpt>
<trkpt lat="51.596616" lon="03.845046"><ele>4.2</ele><time>2022-11-15T14:27:32Z</time><name>PT11183</name></trkpt>
<trkpt lat="51.596622" lon="03.845037"><ele>4.2</ele><time>2022-11-15T14:27:33Z</time><name>PT11184</name></trkpt>
<trkpt lat="51.596628" lon="03.845029"><ele>4.3</ele><time>2022-11-15T14:27:34Z</time><name>PT11185</name></trkpt>
<trkpt lat="51.596635" lon="03.845024"><ele>4.4</ele><time>2022-11-15T14:27:35Z</time><name>PT11186</name></trkpt>
<trkpt lat="51.596642" lon="03.845018"><ele>4.4</ele><time>2022-11-15T14:27:36Z</time><name>PT11187</name></trkpt>
<trkpt lat="51.596650" lon="03.845009"><ele>4.3</ele><time>2022-11-15T14:27:37Z</time><name>PT11188</name></trkpt>
<trkpt lat="51.596659" lon="03.845001"><ele>4.4</ele><time>2022-11-15T14:27:38Z</time><name>PT11189</name></trkpt>
<trkpt lat="51.596666" lon="03.844993"><ele>4.2</ele><time>2022-11-15T14:27:39Z</time><name>PT11190</name></trkpt>
<trkpt lat="51.596673" lon="03.844987"><ele>4.1</ele><time>2022-11-15T14:27:40Z</time><name>PT11191</name></trkpt>
<trkpt lat="51.596680" lon="03.844984"><ele>4</ele><time>2022-11-15T14:27:41Z</time><name>PT11192</name></trkpt>
<trkpt lat="51.596687" lon="03.844978"><ele>4</ele><time>2022-11-15T14:27:42Z</time><name>PT11193</name></trkpt>
<trkpt lat="51.596692" lon="03.844971"><ele>4</ele><time>2022-11-15T14:27:43Z</time><name>PT11194</name></trkpt>
<trkpt lat="51.596698" lon="03.844963"><ele>4</ele><time>2022-11-15T14:27:44Z</time><name>PT11195</name></trkpt>
<trkpt lat="51.596704" lon="03.844955"><ele>4.1</ele><time>2022-11-15T14:27:45Z</time><name>PT11196</name></trkpt>
<trkpt lat="51.596709" lon="03.844949"><ele>4.2</ele><time>2022-11-15T14:27:46Z</time><name>PT11197</name></trkpt>
<trkpt lat="51.596716" lon="03.844943"><ele>4.3</ele><time>2022-11-15T14:27:47Z</time><name>PT11198</name></trkpt>
<trkpt lat="51.596722" lon="03.844938"><ele>4.2</ele><time>2022-11-15T14:27:48Z</time><name>PT11199</name></trkpt>
<trkpt lat="51.596728" lon="03.844934"><ele>4.3</ele><time>2022-11-15T14:27:49Z</time><name>PT11200</name></trkpt>
<trkpt lat="51.596734" lon="03.844927"><ele>4.6</ele><time>2022-11-15T14:27:50Z</time><name>PT11201</name></trkpt>
<trkpt lat="51.596740" lon="03.844922"><ele>4.5</ele><time>2022-11-15T14:27:51Z</time><name>PT11202</name></trkpt>
<trkpt lat="51.596745" lon="03.844915"><ele>4.6</ele><time>2022-11-15T14:27:52Z</time><name>PT11203</name></trkpt>
<trkpt lat="51.596751" lon="03.844909"><ele>4.7</ele><time>2022-11-15T14:27:53Z</time><name>PT11204</name></trkpt>
<trkpt lat="51.596758" lon="03.844904"><ele>4.6</ele><time>2022-11-15T14:27:54Z</time><name>PT11205</name></trkpt>
<trkpt lat="51.596765" lon="03.844898"><ele>4.6</ele><time>2022-11-15T14:27:55Z</time><name>PT11206</name></trkpt>
<trkpt lat="51.596771" lon="03.844892"><ele>4.6</ele><time>2022-11-15T14:27:56Z</time><name>PT11207</name></trkpt>
<trkpt lat="51.596779" lon="03.844884"><ele>4.4</ele><time>2022-11-15T14:27:57Z</time><name>PT11208</name></trkpt>
<trkpt lat="51.596784" lon="03.844878"><ele>4.4</ele><time>2022-11-15T14:27:58Z</time><name>PT11209</name></trkpt>
<trkpt lat="51.596792" lon="03.844872"><ele>4.2</ele><time>2022-11-15T14:27:59Z</time><name>PT11210</name></trkpt>
<trkpt lat="51.596797" lon="03.844868"><ele>4</ele><time>2022-11-15T14:28:00Z</time><name>PT11211</name></trkpt>
<trkpt lat="51.596798" lon="03.844868"><ele>4</ele><time>2022-11-15T14:28:01Z</time><name>PT11212</name></trkpt>
<trkpt lat="51.596799" lon="03.844866"><ele>3.9</ele><time>2022-11-15T14:28:02Z</time><name>PT11213</name></trkpt>
<trkpt lat="51.596802" lon="03.844864"><ele>4</ele><time>2022-11-15T14:28:03Z</time><name>PT11214</name></trkpt>
<trkpt lat="51.596808" lon="03.844861"><ele>4</ele><time>2022-11-15T14:28:04Z</time><name>PT11215</name></trkpt>
<trkpt lat="51.596813" lon="03.844857"><ele>3.9</ele><time>2022-11-15T14:28:05Z</time><name>PT11216</name></trkpt>
<trkpt lat="51.596821" lon="03.844852"><ele>3.9</ele><time>2022-11-15T14:28:06Z</time><name>PT11217</name></trkpt>
<trkpt lat="51.596828" lon="03.844846"><ele>3.8</ele><time>2022-11-15T14:28:07Z</time><name>PT11218</name></trkpt>
<trkpt lat="51.596836" lon="03.844841"><ele>3.8</ele><time>2022-11-15T14:28:08Z</time><name>PT11219</name></trkpt>
<trkpt lat="51.596844" lon="03.844836"><ele>4</ele><time>2022-11-15T14:28:09Z</time><name>PT11220</name></trkpt>
<trkpt lat="51.596850" lon="03.844831"><ele>4.2</ele><time>2022-11-15T14:28:10Z</time><name>PT11221</name></trkpt>
<trkpt lat="51.596853" lon="03.844828"><ele>4.2</ele><time>2022-11-15T14:28:11Z</time><name>PT11222</name></trkpt>
<trkpt lat="51.596854" lon="03.844826"><ele>4.4</ele><time>2022-11-15T14:28:12Z</time><name>PT11223</name></trkpt>
<trkpt lat="51.596855" lon="03.844826"><ele>4.5</ele><time>2022-11-15T14:28:13Z</time><name>PT11224</name></trkpt>
<trkpt lat="51.596858" lon="03.844823"><ele>4.1</ele><time>2022-11-15T14:28:19Z</time><name>PT11225</name></trkpt>
<trkpt lat="51.596867" lon="03.844814"><ele>4.2</ele><time>2022-11-15T14:28:20Z</time><name>PT11226</name></trkpt>
<trkpt lat="51.596875" lon="03.844806"><ele>4.3</ele><time>2022-11-15T14:28:21Z</time><name>PT11227</name></trkpt>
<trkpt lat="51.596884" lon="03.844797"><ele>4.3</ele><time>2022-11-15T14:28:22Z</time><name>PT11228</name></trkpt>
<trkpt lat="51.596892" lon="03.844791"><ele>4.3</ele><time>2022-11-15T14:28:23Z</time><name>PT11229</name></trkpt>
<trkpt lat="51.596901" lon="03.844782"><ele>4.3</ele><time>2022-11-15T14:28:24Z</time><name>PT11230</name></trkpt>
<trkpt lat="51.596911" lon="03.844775"><ele>4.3</ele><time>2022-11-15T14:28:25Z</time><name>PT11231</name></trkpt>
<trkpt lat="51.596920" lon="03.844768"><ele>4.3</ele><time>2022-11-15T14:28:26Z</time><name>PT11232</name></trkpt>
<trkpt lat="51.596929" lon="03.844762"><ele>4.4</ele><time>2022-11-15T14:28:28Z</time><name>PT11233</name></trkpt>
<trkpt lat="51.596937" lon="03.844754"><ele>4.5</ele><time>2022-11-15T14:28:28Z</time><name>PT11234</name></trkpt>
<trkpt lat="51.596945" lon="03.844751"><ele>4.5</ele><time>2022-11-15T14:28:29Z</time><name>PT11235</name></trkpt>
<trkpt lat="51.596954" lon="03.844745"><ele>4.3</ele><time>2022-11-15T14:28:30Z</time><name>PT11236</name></trkpt>
<trkpt lat="51.596963" lon="03.844737"><ele>4.4</ele><time>2022-11-15T14:28:31Z</time><name>PT11237</name></trkpt>
<trkpt lat="51.596972" lon="03.844729"><ele>4.4</ele><time>2022-11-15T14:28:32Z</time><name>PT11238</name></trkpt>
<trkpt lat="51.596980" lon="03.844721"><ele>4.2</ele><time>2022-11-15T14:28:34Z</time><name>PT11239</name></trkpt>
<trkpt lat="51.596987" lon="03.844713"><ele>4.2</ele><time>2022-11-15T14:28:34Z</time><name>PT11240</name></trkpt>
<trkpt lat="51.596992" lon="03.844708"><ele>4</ele><time>2022-11-15T14:28:35Z</time><name>PT11241</name></trkpt>
<trkpt lat="51.596999" lon="03.844702"><ele>4.2</ele><time>2022-11-15T14:28:36Z</time><name>PT11242</name></trkpt>
<trkpt lat="51.597007" lon="03.844695"><ele>4.3</ele><time>2022-11-15T14:28:37Z</time><name>PT11243</name></trkpt>
<trkpt lat="51.597015" lon="03.844689"><ele>4.3</ele><time>2022-11-15T14:28:38Z</time><name>PT11244</name></trkpt>
<trkpt lat="51.597024" lon="03.844682"><ele>4.3</ele><time>2022-11-15T14:28:39Z</time><name>PT11245</name></trkpt>
<trkpt lat="51.597031" lon="03.844678"><ele>4.4</ele><time>2022-11-15T14:28:40Z</time><name>PT11246</name></trkpt>
<trkpt lat="51.597038" lon="03.844674"><ele>4.1</ele><time>2022-11-15T14:28:41Z</time><name>PT11247</name></trkpt>
<trkpt lat="51.597047" lon="03.844669"><ele>4.1</ele><time>2022-11-15T14:28:42Z</time><name>PT11248</name></trkpt>
<trkpt lat="51.597055" lon="03.844664"><ele>4.3</ele><time>2022-11-15T14:28:43Z</time><name>PT11249</name></trkpt>
<trkpt lat="51.597062" lon="03.844657"><ele>4.2</ele><time>2022-11-15T14:28:44Z</time><name>PT11250</name></trkpt>
<trkpt lat="51.597069" lon="03.844648"><ele>4.2</ele><time>2022-11-15T14:28:45Z</time><name>PT11251</name></trkpt>
<trkpt lat="51.597076" lon="03.844641"><ele>4.3</ele><time>2022-11-15T14:28:46Z</time><name>PT11252</name></trkpt>
<trkpt lat="51.597084" lon="03.844638"><ele>4.4</ele><time>2022-11-15T14:28:47Z</time><name>PT11253</name></trkpt>
<trkpt lat="51.597093" lon="03.844635"><ele>4.4</ele><time>2022-11-15T14:28:48Z</time><name>PT11254</name></trkpt>
<trkpt lat="51.597100" lon="03.844632"><ele>4.5</ele><time>2022-11-15T14:28:49Z</time><name>PT11255</name></trkpt>
<trkpt lat="51.597107" lon="03.844626"><ele>4.6</ele><time>2022-11-15T14:28:50Z</time><name>PT11256</name></trkpt>
<trkpt lat="51.597116" lon="03.844617"><ele>4.5</ele><time>2022-11-15T14:28:51Z</time><name>PT11257</name></trkpt>
<trkpt lat="51.597123" lon="03.844609"><ele>4.4</ele><time>2022-11-15T14:28:52Z</time><name>PT11258</name></trkpt>
<trkpt lat="51.597133" lon="03.844603"><ele>4.4</ele><time>2022-11-15T14:28:53Z</time><name>PT11259</name></trkpt>
<trkpt lat="51.597143" lon="03.844598"><ele>4.3</ele><time>2022-11-15T14:28:54Z</time><name>PT11260</name></trkpt>
<trkpt lat="51.597150" lon="03.844595"><ele>4.2</ele><time>2022-11-15T14:28:55Z</time><name>PT11261</name></trkpt>
<trkpt lat="51.597158" lon="03.844591"><ele>4.3</ele><time>2022-11-15T14:28:56Z</time><name>PT11262</name></trkpt>
<trkpt lat="51.597166" lon="03.844585"><ele>4.2</ele><time>2022-11-15T14:28:57Z</time><name>PT11263</name></trkpt>
<trkpt lat="51.597174" lon="03.844578"><ele>4.1</ele><time>2022-11-15T14:28:58Z</time><name>PT11264</name></trkpt>
<trkpt lat="51.597181" lon="03.844574"><ele>4.1</ele><time>2022-11-15T14:28:59Z</time><name>PT11265</name></trkpt>
<trkpt lat="51.597190" lon="03.844571"><ele>4.2</ele><time>2022-11-15T14:29:00Z</time><name>PT11266</name></trkpt>
<trkpt lat="51.597198" lon="03.844566"><ele>4.1</ele><time>2022-11-15T14:29:01Z</time><name>PT11267</name></trkpt>
<trkpt lat="51.597204" lon="03.844561"><ele>4.2</ele><time>2022-11-15T14:29:02Z</time><name>PT11268</name></trkpt>
<trkpt lat="51.597212" lon="03.844555"><ele>4</ele><time>2022-11-15T14:29:03Z</time><name>PT11269</name></trkpt>
<trkpt lat="51.597220" lon="03.844549"><ele>4</ele><time>2022-11-15T14:29:04Z</time><name>PT11270</name></trkpt>
<trkpt lat="51.597229" lon="03.844543"><ele>4.2</ele><time>2022-11-15T14:29:05Z</time><name>PT11271</name></trkpt>
<trkpt lat="51.597239" lon="03.844534"><ele>4.3</ele><time>2022-11-15T14:29:06Z</time><name>PT11272</name></trkpt>
<trkpt lat="51.597247" lon="03.844527"><ele>4.3</ele><time>2022-11-15T14:29:07Z</time><name>PT11273</name></trkpt>
<trkpt lat="51.597255" lon="03.844522"><ele>4.4</ele><time>2022-11-15T14:29:08Z</time><name>PT11274</name></trkpt>
<trkpt lat="51.597263" lon="03.844518"><ele>4.3</ele><time>2022-11-15T14:29:09Z</time><name>PT11275</name></trkpt>
<trkpt lat="51.597271" lon="03.844512"><ele>4.2</ele><time>2022-11-15T14:29:10Z</time><name>PT11276</name></trkpt>
<trkpt lat="51.597278" lon="03.844505"><ele>4.1</ele><time>2022-11-15T14:29:11Z</time><name>PT11277</name></trkpt>
<trkpt lat="51.597286" lon="03.844502"><ele>4.1</ele><time>2022-11-15T14:29:12Z</time><name>PT11278</name></trkpt>
<trkpt lat="51.597294" lon="03.844501"><ele>3.9</ele><time>2022-11-15T14:29:13Z</time><name>PT11279</name></trkpt>
<trkpt lat="51.597303" lon="03.844501"><ele>3.9</ele><time>2022-11-15T14:29:14Z</time><name>PT11280</name></trkpt>
<trkpt lat="51.597310" lon="03.844499"><ele>3.9</ele><time>2022-11-15T14:29:15Z</time><name>PT11281</name></trkpt>
<trkpt lat="51.597318" lon="03.844496"><ele>3.9</ele><time>2022-11-15T14:29:16Z</time><name>PT11282</name></trkpt>
<trkpt lat="51.597327" lon="03.844491"><ele>4</ele><time>2022-11-15T14:29:17Z</time><name>PT11283</name></trkpt>
<trkpt lat="51.597336" lon="03.844484"><ele>4.1</ele><time>2022-11-15T14:29:18Z</time><name>PT11284</name></trkpt>
<trkpt lat="51.597345" lon="03.844478"><ele>4.1</ele><time>2022-11-15T14:29:19Z</time><name>PT11285</name></trkpt>
<trkpt lat="51.597351" lon="03.844472"><ele>4.2</ele><time>2022-11-15T14:29:20Z</time><name>PT11286</name></trkpt>
<trkpt lat="51.597358" lon="03.844465"><ele>4.1</ele><time>2022-11-15T14:29:21Z</time><name>PT11287</name></trkpt>
<trkpt lat="51.597365" lon="03.844461"><ele>4.2</ele><time>2022-11-15T14:29:22Z</time><name>PT11288</name></trkpt>
<trkpt lat="51.597373" lon="03.844459"><ele>4.3</ele><time>2022-11-15T14:29:23Z</time><name>PT11289</name></trkpt>
<trkpt lat="51.597382" lon="03.844459"><ele>4.3</ele><time>2022-11-15T14:29:24Z</time><name>PT11290</name></trkpt>
<trkpt lat="51.597391" lon="03.844456"><ele>4.6</ele><time>2022-11-15T14:29:25Z</time><name>PT11291</name></trkpt>
<trkpt lat="51.597399" lon="03.844447"><ele>4.6</ele><time>2022-11-15T14:29:26Z</time><name>PT11292</name></trkpt>
<trkpt lat="51.597406" lon="03.844441"><ele>4.6</ele><time>2022-11-15T14:29:27Z</time><name>PT11293</name></trkpt>
<trkpt lat="51.597414" lon="03.844440"><ele>4.7</ele><time>2022-11-15T14:29:28Z</time><name>PT11294</name></trkpt>
<trkpt lat="51.597421" lon="03.844438"><ele>4.6</ele><time>2022-11-15T14:29:29Z</time><name>PT11295</name></trkpt>
<trkpt lat="51.597427" lon="03.844435"><ele>4.6</ele><time>2022-11-15T14:29:30Z</time><name>PT11296</name></trkpt>
<trkpt lat="51.597436" lon="03.844431"><ele>4.6</ele><time>2022-11-15T14:29:31Z</time><name>PT11297</name></trkpt>
<trkpt lat="51.597443" lon="03.844426"><ele>4.4</ele><time>2022-11-15T14:29:32Z</time><name>PT11298</name></trkpt>
<trkpt lat="51.597451" lon="03.844418"><ele>4.4</ele><time>2022-11-15T14:29:33Z</time><name>PT11299</name></trkpt>
<trkpt lat="51.597456" lon="03.844411"><ele>4.3</ele><time>2022-11-15T14:29:34Z</time><name>PT11300</name></trkpt>
<trkpt lat="51.597461" lon="03.844407"><ele>4.3</ele><time>2022-11-15T14:29:35Z</time><name>PT11301</name></trkpt>
<trkpt lat="51.597468" lon="03.844402"><ele>4.3</ele><time>2022-11-15T14:29:36Z</time><name>PT11302</name></trkpt>
<trkpt lat="51.597476" lon="03.844399"><ele>4.4</ele><time>2022-11-15T14:29:37Z</time><name>PT11303</name></trkpt>
<trkpt lat="51.597483" lon="03.844392"><ele>4.4</ele><time>2022-11-15T14:29:38Z</time><name>PT11304</name></trkpt>
<trkpt lat="51.597486" lon="03.844389"><ele>4.3</ele><time>2022-11-15T14:29:39Z</time><name>PT11305</name></trkpt>
<trkpt lat="51.597487" lon="03.844388"><ele>4.5</ele><time>2022-11-15T14:29:40Z</time><name>PT11306</name></trkpt>
<trkpt lat="51.597488" lon="03.844386"><ele>4.6</ele><time>2022-11-15T14:29:41Z</time><name>PT11307</name></trkpt>
<trkpt lat="51.597491" lon="03.844383"><ele>4.4</ele><time>2022-11-15T14:30:12Z</time><name>PT11308</name></trkpt>
<trkpt lat="51.597499" lon="03.844374"><ele>4.5</ele><time>2022-11-15T14:30:13Z</time><name>PT11309</name></trkpt>
<trkpt lat="51.597508" lon="03.844366"><ele>4.5</ele><time>2022-11-15T14:30:14Z</time><name>PT11310</name></trkpt>
<trkpt lat="51.597517" lon="03.844360"><ele>4.3</ele><time>2022-11-15T14:30:15Z</time><name>PT11311</name></trkpt>
<trkpt lat="51.597525" lon="03.844358"><ele>4.1</ele><time>2022-11-15T14:30:16Z</time><name>PT11312</name></trkpt>
<trkpt lat="51.597533" lon="03.844357"><ele>4.1</ele><time>2022-11-15T14:30:17Z</time><name>PT11313</name></trkpt>
<trkpt lat="51.597543" lon="03.844351"><ele>4</ele><time>2022-11-15T14:30:18Z</time><name>PT11314</name></trkpt>
<trkpt lat="51.597551" lon="03.844346"><ele>4</ele><time>2022-11-15T14:30:19Z</time><name>PT11315</name></trkpt>
<trkpt lat="51.597561" lon="03.844343"><ele>4</ele><time>2022-11-15T14:30:20Z</time><name>PT11316</name></trkpt>
<trkpt lat="51.597569" lon="03.844338"><ele>4</ele><time>2022-11-15T14:30:21Z</time><name>PT11317</name></trkpt>
<trkpt lat="51.597578" lon="03.844332"><ele>3.9</ele><time>2022-11-15T14:30:22Z</time><name>PT11318</name></trkpt>
<trkpt lat="51.597585" lon="03.844326"><ele>4.1</ele><time>2022-11-15T14:30:23Z</time><name>PT11319</name></trkpt>
<trkpt lat="51.597594" lon="03.844323"><ele>4.1</ele><time>2022-11-15T14:30:24Z</time><name>PT11320</name></trkpt>
<trkpt lat="51.597602" lon="03.844320"><ele>4.1</ele><time>2022-11-15T14:30:25Z</time><name>PT11321</name></trkpt>
<trkpt lat="51.597610" lon="03.844317"><ele>4.2</ele><time>2022-11-15T14:30:26Z</time><name>PT11322</name></trkpt>
<trkpt lat="51.597618" lon="03.844313"><ele>4</ele><time>2022-11-15T14:30:27Z</time><name>PT11323</name></trkpt>
<trkpt lat="51.597627" lon="03.844310"><ele>4</ele><time>2022-11-15T14:30:28Z</time><name>PT11324</name></trkpt>
<trkpt lat="51.597638" lon="03.844309"><ele>4.3</ele><time>2022-11-15T14:30:29Z</time><name>PT11325</name></trkpt>
<trkpt lat="51.597646" lon="03.844307"><ele>4.3</ele><time>2022-11-15T14:30:30Z</time><name>PT11326</name></trkpt>
<trkpt lat="51.597654" lon="03.844302"><ele>4.1</ele><time>2022-11-15T14:30:31Z</time><name>PT11327</name></trkpt>
<trkpt lat="51.597662" lon="03.844297"><ele>4.4</ele><time>2022-11-15T14:30:32Z</time><name>PT11328</name></trkpt>
<trkpt lat="51.597670" lon="03.844295"><ele>4.5</ele><time>2022-11-15T14:30:33Z</time><name>PT11329</name></trkpt>
<trkpt lat="51.597678" lon="03.844293"><ele>4.5</ele><time>2022-11-15T14:30:34Z</time><name>PT11330</name></trkpt>
<trkpt lat="51.597686" lon="03.844290"><ele>4.6</ele><time>2022-11-15T14:30:35Z</time><name>PT11331</name></trkpt>
<trkpt lat="51.597693" lon="03.844285"><ele>4.8</ele><time>2022-11-15T14:30:36Z</time><name>PT11332</name></trkpt>
<trkpt lat="51.597701" lon="03.844280"><ele>4.6</ele><time>2022-11-15T14:30:37Z</time><name>PT11333</name></trkpt>
<trkpt lat="51.597708" lon="03.844277"><ele>4.6</ele><time>2022-11-15T14:30:38Z</time><name>PT11334</name></trkpt>
<trkpt lat="51.597716" lon="03.844274"><ele>4.5</ele><time>2022-11-15T14:30:39Z</time><name>PT11335</name></trkpt>
<trkpt lat="51.597724" lon="03.844270"><ele>4.4</ele><time>2022-11-15T14:30:40Z</time><name>PT11336</name></trkpt>
<trkpt lat="51.597734" lon="03.844263"><ele>4.4</ele><time>2022-11-15T14:30:41Z</time><name>PT11337</name></trkpt>
<trkpt lat="51.597742" lon="03.844260"><ele>4.6</ele><time>2022-11-15T14:30:42Z</time><name>PT11338</name></trkpt>
<trkpt lat="51.597750" lon="03.844256"><ele>4.5</ele><time>2022-11-15T14:30:43Z</time><name>PT11339</name></trkpt>
<trkpt lat="51.597757" lon="03.844252"><ele>4.4</ele><time>2022-11-15T14:30:44Z</time><name>PT11340</name></trkpt>
<trkpt lat="51.597765" lon="03.844247"><ele>4.4</ele><time>2022-11-15T14:30:45Z</time><name>PT11341</name></trkpt>
<trkpt lat="51.597774" lon="03.844242"><ele>4.1</ele><time>2022-11-15T14:30:46Z</time><name>PT11342</name></trkpt>
<trkpt lat="51.597782" lon="03.844237"><ele>4</ele><time>2022-11-15T14:30:47Z</time><name>PT11343</name></trkpt>
<trkpt lat="51.597791" lon="03.844233"><ele>4</ele><time>2022-11-15T14:30:48Z</time><name>PT11344</name></trkpt>
<trkpt lat="51.597800" lon="03.844230"><ele>3.9</ele><time>2022-11-15T14:30:49Z</time><name>PT11345</name></trkpt>
<trkpt lat="51.597808" lon="03.844227"><ele>4</ele><time>2022-11-15T14:30:50Z</time><name>PT11346</name></trkpt>
<trkpt lat="51.597816" lon="03.844222"><ele>4</ele><time>2022-11-15T14:30:51Z</time><name>PT11347</name></trkpt>
<trkpt lat="51.597824" lon="03.844215"><ele>4.1</ele><time>2022-11-15T14:30:52Z</time><name>PT11348</name></trkpt>
<trkpt lat="51.597833" lon="03.844209"><ele>4.2</ele><time>2022-11-15T14:30:53Z</time><name>PT11349</name></trkpt>
<trkpt lat="51.597842" lon="03.844204"><ele>4.3</ele><time>2022-11-15T14:30:54Z</time><name>PT11350</name></trkpt>
<trkpt lat="51.597852" lon="03.844200"><ele>4.4</ele><time>2022-11-15T14:30:55Z</time><name>PT11351</name></trkpt>
<trkpt lat="51.597861" lon="03.844197"><ele>4.5</ele><time>2022-11-15T14:30:56Z</time><name>PT11352</name></trkpt>
<trkpt lat="51.597868" lon="03.844192"><ele>4.6</ele><time>2022-11-15T14:30:57Z</time><name>PT11353</name></trkpt>
<trkpt lat="51.597876" lon="03.844186"><ele>4.7</ele><time>2022-11-15T14:30:58Z</time><name>PT11354</name></trkpt>
<trkpt lat="51.597884" lon="03.844182"><ele>4.7</ele><time>2022-11-15T14:30:59Z</time><name>PT11355</name></trkpt>
<trkpt lat="51.597892" lon="03.844177"><ele>4.9</ele><time>2022-11-15T14:31:00Z</time><name>PT11356</name></trkpt>
<trkpt lat="51.597902" lon="03.844173"><ele>4.6</ele><time>2022-11-15T14:31:01Z</time><name>PT11357</name></trkpt>
<trkpt lat="51.597910" lon="03.844167"><ele>4.6</ele><time>2022-11-15T14:31:02Z</time><name>PT11358</name></trkpt>
<trkpt lat="51.597917" lon="03.844161"><ele>4.5</ele><time>2022-11-15T14:31:03Z</time><name>PT11359</name></trkpt>
<trkpt lat="51.597925" lon="03.844157"><ele>4.3</ele><time>2022-11-15T14:31:04Z</time><name>PT11360</name></trkpt>
<trkpt lat="51.597934" lon="03.844155"><ele>4.2</ele><time>2022-11-15T14:31:05Z</time><name>PT11361</name></trkpt>
<trkpt lat="51.597943" lon="03.844152"><ele>4.3</ele><time>2022-11-15T14:31:06Z</time><name>PT11362</name></trkpt>
<trkpt lat="51.597951" lon="03.844148"><ele>4.6</ele><time>2022-11-15T14:31:07Z</time><name>PT11363</name></trkpt>
<trkpt lat="51.597960" lon="03.844141"><ele>4.6</ele><time>2022-11-15T14:31:08Z</time><name>PT11364</name></trkpt>
<trkpt lat="51.597971" lon="03.844136"><ele>4.6</ele><time>2022-11-15T14:31:09Z</time><name>PT11365</name></trkpt>
<trkpt lat="51.597981" lon="03.844135"><ele>4.8</ele><time>2022-11-15T14:31:10Z</time><name>PT11366</name></trkpt>
<trkpt lat="51.597989" lon="03.844136"><ele>4.6</ele><time>2022-11-15T14:31:11Z</time><name>PT11367</name></trkpt>
<trkpt lat="51.597996" lon="03.844133"><ele>4.6</ele><time>2022-11-15T14:31:12Z</time><name>PT11368</name></trkpt>
<trkpt lat="51.598001" lon="03.844126"><ele>4.6</ele><time>2022-11-15T14:31:13Z</time><name>PT11369</name></trkpt>
<trkpt lat="51.598009" lon="03.844119"><ele>4.5</ele><time>2022-11-15T14:31:14Z</time><name>PT11370</name></trkpt>
<trkpt lat="51.598019" lon="03.844115"><ele>4.6</ele><time>2022-11-15T14:31:15Z</time><name>PT11371</name></trkpt>
<trkpt lat="51.598027" lon="03.844110"><ele>4.5</ele><time>2022-11-15T14:31:16Z</time><name>PT11372</name></trkpt>
<trkpt lat="51.598035" lon="03.844106"><ele>4.6</ele><time>2022-11-15T14:31:17Z</time><name>PT11373</name></trkpt>
<trkpt lat="51.598043" lon="03.844102"><ele>4.7</ele><time>2022-11-15T14:31:18Z</time><name>PT11374</name></trkpt>
<trkpt lat="51.598051" lon="03.844096"><ele>5</ele><time>2022-11-15T14:31:19Z</time><name>PT11375</name></trkpt>
<trkpt lat="51.598058" lon="03.844089"><ele>5</ele><time>2022-11-15T14:31:20Z</time><name>PT11376</name></trkpt>
<trkpt lat="51.598065" lon="03.844084"><ele>5.1</ele><time>2022-11-15T14:31:21Z</time><name>PT11377</name></trkpt>
<trkpt lat="51.598074" lon="03.844081"><ele>5.1</ele><time>2022-11-15T14:31:22Z</time><name>PT11378</name></trkpt>
<trkpt lat="51.598081" lon="03.844080"><ele>5.1</ele><time>2022-11-15T14:31:23Z</time><name>PT11379</name></trkpt>
<trkpt lat="51.598088" lon="03.844075"><ele>5.1</ele><time>2022-11-15T14:31:24Z</time><name>PT11380</name></trkpt>
<trkpt lat="51.598095" lon="03.844071"><ele>5.1</ele><time>2022-11-15T14:31:25Z</time><name>PT11381</name></trkpt>
<trkpt lat="51.598103" lon="03.844068"><ele>5</ele><time>2022-11-15T14:31:26Z</time><name>PT11382</name></trkpt>
<trkpt lat="51.598112" lon="03.844064"><ele>4.6</ele><time>2022-11-15T14:31:27Z</time><name>PT11383</name></trkpt>
<trkpt lat="51.598120" lon="03.844061"><ele>4.4</ele><time>2022-11-15T14:31:28Z</time><name>PT11384</name></trkpt>
<trkpt lat="51.598128" lon="03.844055"><ele>4.4</ele><time>2022-11-15T14:31:29Z</time><name>PT11385</name></trkpt>
<trkpt lat="51.598135" lon="03.844046"><ele>4.4</ele><time>2022-11-15T14:31:30Z</time><name>PT11386</name></trkpt>
<trkpt lat="51.598143" lon="03.844039"><ele>4.4</ele><time>2022-11-15T14:31:31Z</time><name>PT11387</name></trkpt>
<trkpt lat="51.598151" lon="03.844037"><ele>4.6</ele><time>2022-11-15T14:31:32Z</time><name>PT11388</name></trkpt>
<trkpt lat="51.598161" lon="03.844034"><ele>4.3</ele><time>2022-11-15T14:31:33Z</time><name>PT11389</name></trkpt>
<trkpt lat="51.598170" lon="03.844029"><ele>4.2</ele><time>2022-11-15T14:31:34Z</time><name>PT11390</name></trkpt>
<trkpt lat="51.598178" lon="03.844022"><ele>4.3</ele><time>2022-11-15T14:31:35Z</time><name>PT11391</name></trkpt>
<trkpt lat="51.598187" lon="03.844016"><ele>4.4</ele><time>2022-11-15T14:31:36Z</time><name>PT11392</name></trkpt>
<trkpt lat="51.598196" lon="03.844012"><ele>4.3</ele><time>2022-11-15T14:31:37Z</time><name>PT11393</name></trkpt>
<trkpt lat="51.598206" lon="03.844010"><ele>4.4</ele><time>2022-11-15T14:31:38Z</time><name>PT11394</name></trkpt>
<trkpt lat="51.598213" lon="03.844007"><ele>4.3</ele><time>2022-11-15T14:31:39Z</time><name>PT11395</name></trkpt>
<trkpt lat="51.598222" lon="03.844002"><ele>4.4</ele><time>2022-11-15T14:31:40Z</time><name>PT11396</name></trkpt>
<trkpt lat="51.598230" lon="03.843996"><ele>4.4</ele><time>2022-11-15T14:31:41Z</time><name>PT11397</name></trkpt>
<trkpt lat="51.598239" lon="03.843992"><ele>4.5</ele><time>2022-11-15T14:31:42Z</time><name>PT11398</name></trkpt>
<trkpt lat="51.598247" lon="03.843989"><ele>4.6</ele><time>2022-11-15T14:31:43Z</time><name>PT11399</name></trkpt>
<trkpt lat="51.598255" lon="03.843986"><ele>4.5</ele><time>2022-11-15T14:31:44Z</time><name>PT11400</name></trkpt>
<trkpt lat="51.598263" lon="03.843979"><ele>4.3</ele><time>2022-11-15T14:31:45Z</time><name>PT11401</name></trkpt>
<trkpt lat="51.598273" lon="03.843970"><ele>4.4</ele><time>2022-11-15T14:31:46Z</time><name>PT11402</name></trkpt>
<trkpt lat="51.598281" lon="03.843963"><ele>4.3</ele><time>2022-11-15T14:31:47Z</time><name>PT11403</name></trkpt>
<trkpt lat="51.598290" lon="03.843959"><ele>4.4</ele><time>2022-11-15T14:31:48Z</time><name>PT11404</name></trkpt>
<trkpt lat="51.598300" lon="03.843957"><ele>4.6</ele><time>2022-11-15T14:31:49Z</time><name>PT11405</name></trkpt>
<trkpt lat="51.598307" lon="03.843952"><ele>4.6</ele><time>2022-11-15T14:31:50Z</time><name>PT11406</name></trkpt>
<trkpt lat="51.598319" lon="03.843947"><ele>4.7</ele><time>2022-11-15T14:31:51Z</time><name>PT11407</name></trkpt>
<trkpt lat="51.598328" lon="03.843943"><ele>4.7</ele><time>2022-11-15T14:31:52Z</time><name>PT11408</name></trkpt>
<trkpt lat="51.598337" lon="03.843939"><ele>4.6</ele><time>2022-11-15T14:31:53Z</time><name>PT11409</name></trkpt>
<trkpt lat="51.598345" lon="03.843937"><ele>4.8</ele><time>2022-11-15T14:31:54Z</time><name>PT11410</name></trkpt>
<trkpt lat="51.598356" lon="03.843936"><ele>4.9</ele><time>2022-11-15T14:31:55Z</time><name>PT11411</name></trkpt>
<trkpt lat="51.598364" lon="03.843935"><ele>4.9</ele><time>2022-11-15T14:31:56Z</time><name>PT11412</name></trkpt>
<trkpt lat="51.598373" lon="03.843937"><ele>4.8</ele><time>2022-11-15T14:31:57Z</time><name>PT11413</name></trkpt>
<trkpt lat="51.598381" lon="03.843938"><ele>4.6</ele><time>2022-11-15T14:31:58Z</time><name>PT11414</name></trkpt>
<trkpt lat="51.598389" lon="03.843939"><ele>4.4</ele><time>2022-11-15T14:31:59Z</time><name>PT11415</name></trkpt>
<trkpt lat="51.598396" lon="03.843943"><ele>4.5</ele><time>2022-11-15T14:32:00Z</time><name>PT11416</name></trkpt>
<trkpt lat="51.598402" lon="03.843944"><ele>4.5</ele><time>2022-11-15T14:32:01Z</time><name>PT11417</name></trkpt>
<trkpt lat="51.598410" lon="03.843945"><ele>4.6</ele><time>2022-11-15T14:32:02Z</time><name>PT11418</name></trkpt>
<trkpt lat="51.598419" lon="03.843946"><ele>4.5</ele><time>2022-11-15T14:32:03Z</time><name>PT11419</name></trkpt>
<trkpt lat="51.598427" lon="03.843950"><ele>4.4</ele><time>2022-11-15T14:32:04Z</time><name>PT11420</name></trkpt>
<trkpt lat="51.598436" lon="03.843952"><ele>4.4</ele><time>2022-11-15T14:32:05Z</time><name>PT11421</name></trkpt>
<trkpt lat="51.598444" lon="03.843950"><ele>4.5</ele><time>2022-11-15T14:32:06Z</time><name>PT11422</name></trkpt>
<trkpt lat="51.598453" lon="03.843951"><ele>4.4</ele><time>2022-11-15T14:32:07Z</time><name>PT11423</name></trkpt>
<trkpt lat="51.598462" lon="03.843956"><ele>4.6</ele><time>2022-11-15T14:32:08Z</time><name>PT11424</name></trkpt>
<trkpt lat="51.598471" lon="03.843958"><ele>4.6</ele><time>2022-11-15T14:32:09Z</time><name>PT11425</name></trkpt>
<trkpt lat="51.598482" lon="03.843956"><ele>4.6</ele><time>2022-11-15T14:32:10Z</time><name>PT11426</name></trkpt>
<trkpt lat="51.598492" lon="03.843955"><ele>4.6</ele><time>2022-11-15T14:32:11Z</time><name>PT11427</name></trkpt>
<trkpt lat="51.598500" lon="03.843953"><ele>4.6</ele><time>2022-11-15T14:32:12Z</time><name>PT11428</name></trkpt>
<trkpt lat="51.598510" lon="03.843953"><ele>4.5</ele><time>2022-11-15T14:32:13Z</time><name>PT11429</name></trkpt>
<trkpt lat="51.598518" lon="03.843953"><ele>4.3</ele><time>2022-11-15T14:32:14Z</time><name>PT11430</name></trkpt>
<trkpt lat="51.598527" lon="03.843952"><ele>4.3</ele><time>2022-11-15T14:32:15Z</time><name>PT11431</name></trkpt>
<trkpt lat="51.598537" lon="03.843949"><ele>4.3</ele><time>2022-11-15T14:32:16Z</time><name>PT11432</name></trkpt>
<trkpt lat="51.598545" lon="03.843946"><ele>4.6</ele><time>2022-11-15T14:32:17Z</time><name>PT11433</name></trkpt>
<trkpt lat="51.598553" lon="03.843945"><ele>4.8</ele><time>2022-11-15T14:32:18Z</time><name>PT11434</name></trkpt>
<trkpt lat="51.598561" lon="03.843944"><ele>5.1</ele><time>2022-11-15T14:32:19Z</time><name>PT11435</name></trkpt>
<trkpt lat="51.598568" lon="03.843942"><ele>5.1</ele><time>2022-11-15T14:32:20Z</time><name>PT11436</name></trkpt>
<trkpt lat="51.598577" lon="03.843939"><ele>5</ele><time>2022-11-15T14:32:21Z</time><name>PT11437</name></trkpt>
<trkpt lat="51.598585" lon="03.843935"><ele>4.9</ele><time>2022-11-15T14:32:22Z</time><name>PT11438</name></trkpt>
<trkpt lat="51.598593" lon="03.843933"><ele>4.7</ele><time>2022-11-15T14:32:23Z</time><name>PT11439</name></trkpt>
<trkpt lat="51.598601" lon="03.843932"><ele>4.4</ele><time>2022-11-15T14:32:24Z</time><name>PT11440</name></trkpt>
<trkpt lat="51.598609" lon="03.843929"><ele>4.5</ele><time>2022-11-15T14:32:25Z</time><name>PT11441</name></trkpt>
<trkpt lat="51.598618" lon="03.843926"><ele>4.5</ele><time>2022-11-15T14:32:26Z</time><name>PT11442</name></trkpt>
<trkpt lat="51.598628" lon="03.843923"><ele>4.4</ele><time>2022-11-15T14:32:27Z</time><name>PT11443</name></trkpt>
<trkpt lat="51.598637" lon="03.843922"><ele>4.5</ele><time>2022-11-15T14:32:28Z</time><name>PT11444</name></trkpt>
<trkpt lat="51.598646" lon="03.843924"><ele>4.3</ele><time>2022-11-15T14:32:29Z</time><name>PT11445</name></trkpt>
<trkpt lat="51.598654" lon="03.843925"><ele>4.1</ele><time>2022-11-15T14:32:30Z</time><name>PT11446</name></trkpt>
<trkpt lat="51.598662" lon="03.843923"><ele>4.3</ele><time>2022-11-15T14:32:31Z</time><name>PT11447</name></trkpt>
<trkpt lat="51.598670" lon="03.843923"><ele>4.4</ele><time>2022-11-15T14:32:32Z</time><name>PT11448</name></trkpt>
<trkpt lat="51.598678" lon="03.843924"><ele>4.5</ele><time>2022-11-15T14:32:33Z</time><name>PT11449</name></trkpt>
<trkpt lat="51.598685" lon="03.843924"><ele>4.7</ele><time>2022-11-15T14:32:34Z</time><name>PT11450</name></trkpt>
<trkpt lat="51.598691" lon="03.843921"><ele>4.7</ele><time>2022-11-15T14:32:35Z</time><name>PT11451</name></trkpt>
<trkpt lat="51.598698" lon="03.843918"><ele>4.7</ele><time>2022-11-15T14:32:36Z</time><name>PT11452</name></trkpt>
<trkpt lat="51.598705" lon="03.843918"><ele>4.7</ele><time>2022-11-15T14:32:37Z</time><name>PT11453</name></trkpt>
<trkpt lat="51.598712" lon="03.843919"><ele>4.7</ele><time>2022-11-15T14:32:38Z</time><name>PT11454</name></trkpt>
<trkpt lat="51.598721" lon="03.843918"><ele>4.6</ele><time>2022-11-15T14:32:39Z</time><name>PT11455</name></trkpt>
<trkpt lat="51.598729" lon="03.843919"><ele>4.6</ele><time>2022-11-15T14:32:40Z</time><name>PT11456</name></trkpt>
<trkpt lat="51.598738" lon="03.843920"><ele>4.7</ele><time>2022-11-15T14:32:41Z</time><name>PT11457</name></trkpt>
<trkpt lat="51.598743" lon="03.843922"><ele>4.9</ele><time>2022-11-15T14:32:42Z</time><name>PT11458</name></trkpt>
<trkpt lat="51.598750" lon="03.843922"><ele>4.9</ele><time>2022-11-15T14:32:43Z</time><name>PT11459</name></trkpt>
<trkpt lat="51.598756" lon="03.843921"><ele>4.9</ele><time>2022-11-15T14:32:44Z</time><name>PT11460</name></trkpt>
<trkpt lat="51.598765" lon="03.843923"><ele>5.1</ele><time>2022-11-15T14:32:45Z</time><name>PT11461</name></trkpt>
<trkpt lat="51.598770" lon="03.843928"><ele>4.8</ele><time>2022-11-15T14:32:46Z</time><name>PT11462</name></trkpt>
<trkpt lat="51.598776" lon="03.843930"><ele>4.8</ele><time>2022-11-15T14:32:47Z</time><name>PT11463</name></trkpt>
<trkpt lat="51.598784" lon="03.843928"><ele>4.7</ele><time>2022-11-15T14:32:48Z</time><name>PT11464</name></trkpt>
<trkpt lat="51.598791" lon="03.843924"><ele>4.7</ele><time>2022-11-15T14:32:49Z</time><name>PT11465</name></trkpt>
<trkpt lat="51.598795" lon="03.843920"><ele>4.7</ele><time>2022-11-15T14:32:50Z</time><name>PT11466</name></trkpt>
<trkpt lat="51.598797" lon="03.843916"><ele>4.6</ele><time>2022-11-15T14:32:51Z</time><name>PT11467</name></trkpt>
<trkpt lat="51.598797" lon="03.843911"><ele>4.5</ele><time>2022-11-15T14:32:52Z</time><name>PT11468</name></trkpt>
<trkpt lat="51.598798" lon="03.843911"><ele>4.2</ele><time>2022-11-15T14:32:54Z</time><name>PT11469</name></trkpt>
<trkpt lat="51.598806" lon="03.843910"><ele>4.5</ele><time>2022-11-15T14:32:55Z</time><name>PT11470</name></trkpt>
<trkpt lat="51.598812" lon="03.843912"><ele>4.6</ele><time>2022-11-15T14:32:56Z</time><name>PT11471</name></trkpt>
<trkpt lat="51.598820" lon="03.843913"><ele>4.6</ele><time>2022-11-15T14:32:57Z</time><name>PT11472</name></trkpt>
<trkpt lat="51.598827" lon="03.843916"><ele>4.7</ele><time>2022-11-15T14:32:58Z</time><name>PT11473</name></trkpt>
<trkpt lat="51.598834" lon="03.843916"><ele>4.6</ele><time>2022-11-15T14:32:59Z</time><name>PT11474</name></trkpt>
<trkpt lat="51.598842" lon="03.843920"><ele>4.7</ele><time>2022-11-15T14:33:00Z</time><name>PT11475</name></trkpt>
<trkpt lat="51.598848" lon="03.843923"><ele>4.8</ele><time>2022-11-15T14:33:01Z</time><name>PT11476</name></trkpt>
<trkpt lat="51.598856" lon="03.843922"><ele>5</ele><time>2022-11-15T14:33:02Z</time><name>PT11477</name></trkpt>
<trkpt lat="51.598864" lon="03.843924"><ele>5.5</ele><time>2022-11-15T14:33:03Z</time><name>PT11478</name></trkpt>
<trkpt lat="51.598871" lon="03.843930"><ele>5.6</ele><time>2022-11-15T14:33:04Z</time><name>PT11479</name></trkpt>
<trkpt lat="51.598877" lon="03.843934"><ele>5.8</ele><time>2022-11-15T14:33:05Z</time><name>PT11480</name></trkpt>
<trkpt lat="51.598882" lon="03.843936"><ele>6.1</ele><time>2022-11-15T14:33:06Z</time><name>PT11481</name></trkpt>
<trkpt lat="51.598888" lon="03.843942"><ele>6.4</ele><time>2022-11-15T14:33:07Z</time><name>PT11482</name></trkpt>
<trkpt lat="51.598893" lon="03.843948"><ele>6.6</ele><time>2022-11-15T14:33:08Z</time><name>PT11483</name></trkpt>
<trkpt lat="51.598897" lon="03.843957"><ele>7.4</ele><time>2022-11-15T14:33:09Z</time><name>PT11484</name></trkpt>
<trkpt lat="51.598900" lon="03.843965"><ele>7.6</ele><time>2022-11-15T14:33:10Z</time><name>PT11485</name></trkpt>
<trkpt lat="51.598902" lon="03.843975"><ele>7.6</ele><time>2022-11-15T14:33:11Z</time><name>PT11486</name></trkpt>
<trkpt lat="51.598905" lon="03.843987"><ele>7.8</ele><time>2022-11-15T14:33:12Z</time><name>PT11487</name></trkpt>
<trkpt lat="51.598908" lon="03.844001"><ele>7.6</ele><time>2022-11-15T14:33:13Z</time><name>PT11488</name></trkpt>
<trkpt lat="51.598910" lon="03.844013"><ele>7.5</ele><time>2022-11-15T14:33:14Z</time><name>PT11489</name></trkpt>
<trkpt lat="51.598912" lon="03.844026"><ele>7.6</ele><time>2022-11-15T14:33:15Z</time><name>PT11490</name></trkpt>
<trkpt lat="51.598914" lon="03.844038"><ele>7.4</ele><time>2022-11-15T14:33:16Z</time><name>PT11491</name></trkpt>
<trkpt lat="51.598917" lon="03.844050"><ele>7.2</ele><time>2022-11-15T14:33:17Z</time><name>PT11492</name></trkpt>
<trkpt lat="51.598919" lon="03.844063"><ele>7.5</ele><time>2022-11-15T14:33:18Z</time><name>PT11493</name></trkpt>
<trkpt lat="51.598921" lon="03.844076"><ele>7.6</ele><time>2022-11-15T14:33:19Z</time><name>PT11494</name></trkpt>
<trkpt lat="51.598922" lon="03.844089"><ele>7.8</ele><time>2022-11-15T14:33:20Z</time><name>PT11495</name></trkpt>
<trkpt lat="51.598922" lon="03.844104"><ele>8.2</ele><time>2022-11-15T14:33:21Z</time><name>PT11496</name></trkpt>
<trkpt lat="51.598923" lon="03.844117"><ele>8.1</ele><time>2022-11-15T14:33:22Z</time><name>PT11497</name></trkpt>
<trkpt lat="51.598926" lon="03.844130"><ele>8</ele><time>2022-11-15T14:33:23Z</time><name>PT11498</name></trkpt>
<trkpt lat="51.598929" lon="03.844142"><ele>7.8</ele><time>2022-11-15T14:33:24Z</time><name>PT11499</name></trkpt>
<trkpt lat="51.598930" lon="03.844151"><ele>7.5</ele><time>2022-11-15T14:33:25Z</time><name>PT11500</name></trkpt>
<trkpt lat="51.598930" lon="03.844161"><ele>7.4</ele><time>2022-11-15T14:33:26Z</time><name>PT11501</name></trkpt>
<trkpt lat="51.598931" lon="03.844174"><ele>7.2</ele><time>2022-11-15T14:33:27Z</time><name>PT11502</name></trkpt>
<trkpt lat="51.598933" lon="03.844184"><ele>7.1</ele><time>2022-11-15T14:33:28Z</time><name>PT11503</name></trkpt>
<trkpt lat="51.598934" lon="03.844195"><ele>6.8</ele><time>2022-11-15T14:33:29Z</time><name>PT11504</name></trkpt>
<trkpt lat="51.598934" lon="03.844207"><ele>6.6</ele><time>2022-11-15T14:33:30Z</time><name>PT11505</name></trkpt>
<trkpt lat="51.598936" lon="03.844218"><ele>6.4</ele><time>2022-11-15T14:33:31Z</time><name>PT11506</name></trkpt>
<trkpt lat="51.598940" lon="03.844230"><ele>6.1</ele><time>2022-11-15T14:33:32Z</time><name>PT11507</name></trkpt>
<trkpt lat="51.598941" lon="03.844243"><ele>6</ele><time>2022-11-15T14:33:33Z</time><name>PT11508</name></trkpt>
<trkpt lat="51.598941" lon="03.844255"><ele>5.7</ele><time>2022-11-15T14:33:34Z</time><name>PT11509</name></trkpt>
<trkpt lat="51.598940" lon="03.844268"><ele>5.6</ele><time>2022-11-15T14:33:35Z</time><name>PT11510</name></trkpt>
<trkpt lat="51.598941" lon="03.844282"><ele>5.5</ele><time>2022-11-15T14:33:36Z</time><name>PT11511</name></trkpt>
<trkpt lat="51.598940" lon="03.844298"><ele>5.3</ele><time>2022-11-15T14:33:37Z</time><name>PT11512</name></trkpt>
<trkpt lat="51.598939" lon="03.844313"><ele>5.3</ele><time>2022-11-15T14:33:38Z</time><name>PT11513</name></trkpt>
<trkpt lat="51.598940" lon="03.844325"><ele>5.1</ele><time>2022-11-15T14:33:39Z</time><name>PT11514</name></trkpt>
<trkpt lat="51.598938" lon="03.844337"><ele>5.1</ele><time>2022-11-15T14:33:40Z</time><name>PT11515</name></trkpt>
<trkpt lat="51.598936" lon="03.844347"><ele>5.1</ele><time>2022-11-15T14:33:41Z</time><name>PT11516</name></trkpt>
<trkpt lat="51.598935" lon="03.844359"><ele>5.1</ele><time>2022-11-15T14:33:42Z</time><name>PT11517</name></trkpt>
<trkpt lat="51.598936" lon="03.844373"><ele>5.1</ele><time>2022-11-15T14:33:43Z</time><name>PT11518</name></trkpt>
<trkpt lat="51.598938" lon="03.844384"><ele>5.2</ele><time>2022-11-15T14:33:44Z</time><name>PT11519</name></trkpt>
<trkpt lat="51.598940" lon="03.844398"><ele>5.1</ele><time>2022-11-15T14:33:45Z</time><name>PT11520</name></trkpt>
<trkpt lat="51.598942" lon="03.844412"><ele>5.1</ele><time>2022-11-15T14:33:46Z</time><name>PT11521</name></trkpt>
<trkpt lat="51.598944" lon="03.844426"><ele>5.2</ele><time>2022-11-15T14:33:47Z</time><name>PT11522</name></trkpt>
<trkpt lat="51.598946" lon="03.844440"><ele>5.4</ele><time>2022-11-15T14:33:48Z</time><name>PT11523</name></trkpt>
<trkpt lat="51.598946" lon="03.844454"><ele>5.4</ele><time>2022-11-15T14:33:49Z</time><name>PT11524</name></trkpt>
<trkpt lat="51.598946" lon="03.844467"><ele>5.5</ele><time>2022-11-15T14:33:50Z</time><name>PT11525</name></trkpt>
<trkpt lat="51.598946" lon="03.844481"><ele>5.6</ele><time>2022-11-15T14:33:51Z</time><name>PT11526</name></trkpt>
<trkpt lat="51.598949" lon="03.844493"><ele>5.5</ele><time>2022-11-15T14:33:52Z</time><name>PT11527</name></trkpt>
<trkpt lat="51.598949" lon="03.844504"><ele>5.3</ele><time>2022-11-15T14:33:53Z</time><name>PT11528</name></trkpt>
<trkpt lat="51.598950" lon="03.844514"><ele>5.3</ele><time>2022-11-15T14:33:54Z</time><name>PT11529</name></trkpt>
<trkpt lat="51.598952" lon="03.844527"><ele>5.3</ele><time>2022-11-15T14:33:55Z</time><name>PT11530</name></trkpt>
<trkpt lat="51.598950" lon="03.844537"><ele>5.2</ele><time>2022-11-15T14:33:56Z</time><name>PT11531</name></trkpt>
<trkpt lat="51.598951" lon="03.844546"><ele>5.5</ele><time>2022-11-15T14:33:57Z</time><name>PT11532</name></trkpt>
<trkpt lat="51.598953" lon="03.844552"><ele>5.5</ele><time>2022-11-15T14:33:58Z</time><name>PT11533</name></trkpt>
<trkpt lat="51.598956" lon="03.844560"><ele>5.3</ele><time>2022-11-15T14:33:59Z</time><name>PT11534</name></trkpt>
<trkpt lat="51.598959" lon="03.844566"><ele>5.1</ele><time>2022-11-15T14:34:00Z</time><name>PT11535</name></trkpt>
<trkpt lat="51.598963" lon="03.844573"><ele>5.2</ele><time>2022-11-15T14:34:01Z</time><name>PT11536</name></trkpt>
<trkpt lat="51.598965" lon="03.844580"><ele>5.1</ele><time>2022-11-15T14:34:02Z</time><name>PT11537</name></trkpt>
<trkpt lat="51.598968" lon="03.844591"><ele>5.4</ele><time>2022-11-15T14:34:03Z</time><name>PT11538</name></trkpt>
<trkpt lat="51.598968" lon="03.844599"><ele>5.6</ele><time>2022-11-15T14:34:04Z</time><name>PT11539</name></trkpt>
<trkpt lat="51.598968" lon="03.844604"><ele>5.6</ele><time>2022-11-15T14:34:05Z</time><name>PT11540</name></trkpt>
<trkpt lat="51.598969" lon="03.844609"><ele>5.6</ele><time>2022-11-15T14:34:06Z</time><name>PT11541</name></trkpt>
<trkpt lat="51.598968" lon="03.844610"><ele>5.5</ele><time>2022-11-15T14:34:07Z</time><name>PT11542</name></trkpt>
<trkpt lat="51.598968" lon="03.844611"><ele>5.8</ele><time>2022-11-15T14:34:08Z</time><name>PT11543</name></trkpt>
<trkpt lat="51.598966" lon="03.844613"><ele>5.8</ele><time>2022-11-15T14:34:09Z</time><name>PT11544</name></trkpt>
<trkpt lat="51.598963" lon="03.844612"><ele>5.9</ele><time>2022-11-15T14:34:10Z</time><name>PT11545</name></trkpt>
<trkpt lat="51.598962" lon="03.844612"><ele>6.2</ele><time>2022-11-15T14:34:11Z</time><name>PT11546</name></trkpt>
<trkpt lat="51.598961" lon="03.844612"><ele>6.1</ele><time>2022-11-15T14:34:12Z</time><name>PT11547</name></trkpt>
<trkpt lat="51.598958" lon="03.844622"><ele>5.8</ele><time>2022-11-15T14:34:17Z</time><name>PT11548</name></trkpt>
<trkpt lat="51.598956" lon="03.844634"><ele>5.6</ele><time>2022-11-15T14:34:18Z</time><name>PT11549</name></trkpt>
<trkpt lat="51.598956" lon="03.844651"><ele>5.8</ele><time>2022-11-15T14:34:19Z</time><name>PT11550</name></trkpt>
<trkpt lat="51.598957" lon="03.844668"><ele>5.6</ele><time>2022-11-15T14:34:20Z</time><name>PT11551</name></trkpt>
<trkpt lat="51.598958" lon="03.844687"><ele>5.6</ele><time>2022-11-15T14:34:21Z</time><name>PT11552</name></trkpt>
<trkpt lat="51.598958" lon="03.844705"><ele>5.6</ele><time>2022-11-15T14:34:22Z</time><name>PT11553</name></trkpt>
<trkpt lat="51.598957" lon="03.844721"><ele>5.6</ele><time>2022-11-15T14:34:23Z</time><name>PT11554</name></trkpt>
<trkpt lat="51.598958" lon="03.844737"><ele>5.6</ele><time>2022-11-15T14:34:24Z</time><name>PT11555</name></trkpt>
<trkpt lat="51.598962" lon="03.844754"><ele>5.7</ele><time>2022-11-15T14:34:25Z</time><name>PT11556</name></trkpt>
<trkpt lat="51.598968" lon="03.844769"><ele>6</ele><time>2022-11-15T14:34:26Z</time><name>PT11557</name></trkpt>
<trkpt lat="51.598971" lon="03.844782"><ele>5.9</ele><time>2022-11-15T14:34:27Z</time><name>PT11558</name></trkpt>
<trkpt lat="51.598970" lon="03.844795"><ele>6.1</ele><time>2022-11-15T14:34:28Z</time><name>PT11559</name></trkpt>
<trkpt lat="51.598969" lon="03.844810"><ele>6.3</ele><time>2022-11-15T14:34:29Z</time><name>PT11560</name></trkpt>
<trkpt lat="51.598969" lon="03.844826"><ele>6.2</ele><time>2022-11-15T14:34:30Z</time><name>PT11561</name></trkpt>
<trkpt lat="51.598969" lon="03.844845"><ele>6.4</ele><time>2022-11-15T14:34:31Z</time><name>PT11562</name></trkpt>
<trkpt lat="51.598969" lon="03.844863"><ele>6.6</ele><time>2022-11-15T14:34:32Z</time><name>PT11563</name></trkpt>
<trkpt lat="51.598970" lon="03.844881"><ele>6.4</ele><time>2022-11-15T14:34:33Z</time><name>PT11564</name></trkpt>
<trkpt lat="51.598971" lon="03.844899"><ele>6.1</ele><time>2022-11-15T14:34:34Z</time><name>PT11565</name></trkpt>
<trkpt lat="51.598971" lon="03.844917"><ele>6.3</ele><time>2022-11-15T14:34:35Z</time><name>PT11566</name></trkpt>
<trkpt lat="51.598971" lon="03.844933"><ele>6.1</ele><time>2022-11-15T14:34:36Z</time><name>PT11567</name></trkpt>
<trkpt lat="51.598973" lon="03.844949"><ele>6.1</ele><time>2022-11-15T14:34:37Z</time><name>PT11568</name></trkpt>
<trkpt lat="51.598976" lon="03.844965"><ele>5.8</ele><time>2022-11-15T14:34:38Z</time><name>PT11569</name></trkpt>
<trkpt lat="51.598978" lon="03.844980"><ele>5.7</ele><time>2022-11-15T14:34:39Z</time><name>PT11570</name></trkpt>
<trkpt lat="51.598980" lon="03.844996"><ele>5.7</ele><time>2022-11-15T14:34:40Z</time><name>PT11571</name></trkpt>
<trkpt lat="51.598982" lon="03.845013"><ele>5.8</ele><time>2022-11-15T14:34:41Z</time><name>PT11572</name></trkpt>
<trkpt lat="51.598983" lon="03.845028"><ele>5.6</ele><time>2022-11-15T14:34:42Z</time><name>PT11573</name></trkpt>
<trkpt lat="51.598985" lon="03.845043"><ele>5.6</ele><time>2022-11-15T14:34:43Z</time><name>PT11574</name></trkpt>
<trkpt lat="51.598988" lon="03.845057"><ele>5.5</ele><time>2022-11-15T14:34:44Z</time><name>PT11575</name></trkpt>
<trkpt lat="51.598991" lon="03.845072"><ele>5.3</ele><time>2022-11-15T14:34:45Z</time><name>PT11576</name></trkpt>
<trkpt lat="51.598993" lon="03.845087"><ele>5.3</ele><time>2022-11-15T14:34:46Z</time><name>PT11577</name></trkpt>
<trkpt lat="51.598995" lon="03.845102"><ele>5.5</ele><time>2022-11-15T14:34:47Z</time><name>PT11578</name></trkpt>
<trkpt lat="51.598998" lon="03.845115"><ele>5.4</ele><time>2022-11-15T14:34:48Z</time><name>PT11579</name></trkpt>
<trkpt lat="51.599002" lon="03.845127"><ele>5.6</ele><time>2022-11-15T14:34:49Z</time><name>PT11580</name></trkpt>
<trkpt lat="51.599006" lon="03.845139"><ele>5.6</ele><time>2022-11-15T14:34:50Z</time><name>PT11581</name></trkpt>
<trkpt lat="51.599008" lon="03.845151"><ele>5.6</ele><time>2022-11-15T14:34:51Z</time><name>PT11582</name></trkpt>
<trkpt lat="51.599008" lon="03.845162"><ele>5.6</ele><time>2022-11-15T14:34:52Z</time><name>PT11583</name></trkpt>
<trkpt lat="51.599007" lon="03.845172"><ele>5.4</ele><time>2022-11-15T14:34:53Z</time><name>PT11584</name></trkpt></trkseg></trk></gpx>